<?xml version="1.0" encoding="UTF-8" standalone="no" ?>
<gpx xmlns="http://www.topografix.com/GPX/1/1" xmlns:xsi="http://www.w3.org/2001/XMLSchema-instance" xsi:schemaLocation="http://www.topografix.com/GPX/1/1 http://www.topografix.com/GPX/1/1/gpx.xsd" version="1.1" creator="VisuGPX - https://www.visugpx.com">
  <metadata>
    <name>Sortie du 1 avril 2012</name>
    <desc><![CDATA[Sortie autour de Nueil les Aubiers]]></desc>
  </metadata>
  <trk>
    <name><![CDATA[2012-04-01-01]]></name>
    <trkseg>
      <trkpt lat="46.94472" lon="-0.59295">
        <ele>115</ele>
        <time>2012-04-01T06:43:04Z</time>
      </trkpt>
      <trkpt lat="46.94475" lon="-0.59298">
        <ele>115</ele>
        <time>2012-04-01T06:43:05Z</time>
      </trkpt>
      <trkpt lat="46.94486" lon="-0.59308">
        <ele>115.4</ele>
        <time>2012-04-01T06:43:08Z</time>
      </trkpt>
      <trkpt lat="46.94492" lon="-0.59314">
        <ele>115.5</ele>
        <time>2012-04-01T06:43:10Z</time>
      </trkpt>
      <trkpt lat="46.94499" lon="-0.59321">
        <ele>116</ele>
        <time>2012-04-01T06:43:12Z</time>
      </trkpt>
      <trkpt lat="46.94505" lon="-0.59327">
        <ele>116.3</ele>
        <time>2012-04-01T06:43:14Z</time>
      </trkpt>
      <trkpt lat="46.94512" lon="-0.59333">
        <ele>116.5</ele>
        <time>2012-04-01T06:43:16Z</time>
      </trkpt>
      <trkpt lat="46.94519" lon="-0.59339">
        <ele>116.8</ele>
        <time>2012-04-01T06:43:18Z</time>
      </trkpt>
      <trkpt lat="46.94525" lon="-0.59345">
        <ele>116.8</ele>
        <time>2012-04-01T06:43:20Z</time>
      </trkpt>
      <trkpt lat="46.94532" lon="-0.59351">
        <ele>116.9</ele>
        <time>2012-04-01T06:43:22Z</time>
      </trkpt>
      <trkpt lat="46.94536" lon="-0.59359">
        <ele>116.9</ele>
        <time>2012-04-01T06:43:24Z</time>
      </trkpt>
      <trkpt lat="46.94538" lon="-0.59368">
        <ele>116.9</ele>
        <time>2012-04-01T06:43:26Z</time>
      </trkpt>
      <trkpt lat="46.94541" lon="-0.59378">
        <ele>117.3</ele>
        <time>2012-04-01T06:43:28Z</time>
      </trkpt>
      <trkpt lat="46.94544" lon="-0.59389">
        <ele>117.5</ele>
        <time>2012-04-01T06:43:30Z</time>
      </trkpt>
      <trkpt lat="46.94549" lon="-0.59399">
        <ele>117.5</ele>
        <time>2012-04-01T06:43:32Z</time>
      </trkpt>
      <trkpt lat="46.94555" lon="-0.59407">
        <ele>117.8</ele>
        <time>2012-04-01T06:43:34Z</time>
      </trkpt>
      <trkpt lat="46.94561" lon="-0.59414">
        <ele>118</ele>
        <time>2012-04-01T06:43:36Z</time>
      </trkpt>
      <trkpt lat="46.94568" lon="-0.59418">
        <ele>118</ele>
        <time>2012-04-01T06:43:38Z</time>
      </trkpt>
      <trkpt lat="46.94575" lon="-0.59421">
        <ele>118</ele>
        <time>2012-04-01T06:43:40Z</time>
      </trkpt>
      <trkpt lat="46.94582" lon="-0.59421">
        <ele>118</ele>
        <time>2012-04-01T06:43:42Z</time>
      </trkpt>
      <trkpt lat="46.9459" lon="-0.59419">
        <ele>118.3</ele>
        <time>2012-04-01T06:43:44Z</time>
      </trkpt>
      <trkpt lat="46.94597" lon="-0.59415">
        <ele>118.5</ele>
        <time>2012-04-01T06:43:46Z</time>
      </trkpt>
      <trkpt lat="46.94605" lon="-0.5941">
        <ele>118.5</ele>
        <time>2012-04-01T06:43:48Z</time>
      </trkpt>
      <trkpt lat="46.94612" lon="-0.59406">
        <ele>119</ele>
        <time>2012-04-01T06:43:50Z</time>
      </trkpt>
      <trkpt lat="46.94621" lon="-0.59406">
        <ele>119.4</ele>
        <time>2012-04-01T06:43:52Z</time>
      </trkpt>
      <trkpt lat="46.94627" lon="-0.59413">
        <ele>119.5</ele>
        <time>2012-04-01T06:43:54Z</time>
      </trkpt>
      <trkpt lat="46.94631" lon="-0.59423">
        <ele>120</ele>
        <time>2012-04-01T06:43:56Z</time>
      </trkpt>
      <trkpt lat="46.94634" lon="-0.59434">
        <ele>120.5</ele>
        <time>2012-04-01T06:43:58Z</time>
      </trkpt>
      <trkpt lat="46.94636" lon="-0.59445">
        <ele>120.8</ele>
        <time>2012-04-01T06:44:00Z</time>
      </trkpt>
      <trkpt lat="46.9464" lon="-0.59454">
        <ele>120.8</ele>
        <time>2012-04-01T06:44:02Z</time>
      </trkpt>
      <trkpt lat="46.94644" lon="-0.59463">
        <ele>120.9</ele>
        <time>2012-04-01T06:44:04Z</time>
      </trkpt>
      <trkpt lat="46.94648" lon="-0.59472">
        <ele>120.9</ele>
        <time>2012-04-01T06:44:06Z</time>
      </trkpt>
      <trkpt lat="46.94651" lon="-0.59476">
        <ele>121</ele>
        <time>2012-04-01T06:44:07Z</time>
      </trkpt>
      <trkpt lat="46.94657" lon="-0.59488">
        <ele>121</ele>
        <time>2012-04-01T06:44:10Z</time>
      </trkpt>
      <trkpt lat="46.94662" lon="-0.59496">
        <ele>121</ele>
        <time>2012-04-01T06:44:12Z</time>
      </trkpt>
      <trkpt lat="46.94666" lon="-0.59504">
        <ele>121.3</ele>
        <time>2012-04-01T06:44:14Z</time>
      </trkpt>
      <trkpt lat="46.9467" lon="-0.59512">
        <ele>121.4</ele>
        <time>2012-04-01T06:44:16Z</time>
      </trkpt>
      <trkpt lat="46.94674" lon="-0.5952">
        <ele>121.5</ele>
        <time>2012-04-01T06:44:18Z</time>
      </trkpt>
      <trkpt lat="46.94679" lon="-0.59528">
        <ele>121.5</ele>
        <time>2012-04-01T06:44:20Z</time>
      </trkpt>
      <trkpt lat="46.94683" lon="-0.59536">
        <ele>121.8</ele>
        <time>2012-04-01T06:44:22Z</time>
      </trkpt>
      <trkpt lat="46.94687" lon="-0.59544">
        <ele>121.9</ele>
        <time>2012-04-01T06:44:24Z</time>
      </trkpt>
      <trkpt lat="46.94692" lon="-0.59553">
        <ele>122</ele>
        <time>2012-04-01T06:44:26Z</time>
      </trkpt>
      <trkpt lat="46.94696" lon="-0.59561">
        <ele>122</ele>
        <time>2012-04-01T06:44:28Z</time>
      </trkpt>
      <trkpt lat="46.94701" lon="-0.5957">
        <ele>122.3</ele>
        <time>2012-04-01T06:44:30Z</time>
      </trkpt>
      <trkpt lat="46.94706" lon="-0.59578">
        <ele>122.4</ele>
        <time>2012-04-01T06:44:32Z</time>
      </trkpt>
      <trkpt lat="46.9471" lon="-0.59587">
        <ele>122.5</ele>
        <time>2012-04-01T06:44:34Z</time>
      </trkpt>
      <trkpt lat="46.94716" lon="-0.59595">
        <ele>123.5</ele>
        <time>2012-04-01T06:44:36Z</time>
      </trkpt>
      <trkpt lat="46.94722" lon="-0.59603">
        <ele>124</ele>
        <time>2012-04-01T06:44:38Z</time>
      </trkpt>
      <trkpt lat="46.94726" lon="-0.59613">
        <ele>124.5</ele>
        <time>2012-04-01T06:44:40Z</time>
      </trkpt>
      <trkpt lat="46.9473" lon="-0.59624">
        <ele>125</ele>
        <time>2012-04-01T06:44:42Z</time>
      </trkpt>
      <trkpt lat="46.94735" lon="-0.59634">
        <ele>125</ele>
        <time>2012-04-01T06:44:44Z</time>
      </trkpt>
      <trkpt lat="46.94738" lon="-0.59639">
        <ele>125</ele>
        <time>2012-04-01T06:44:45Z</time>
      </trkpt>
      <trkpt lat="46.94741" lon="-0.59645">
        <ele>125.3</ele>
        <time>2012-04-01T06:44:46Z</time>
      </trkpt>
      <trkpt lat="46.94744" lon="-0.5965">
        <ele>125.3</ele>
        <time>2012-04-01T06:44:47Z</time>
      </trkpt>
      <trkpt lat="46.94747" lon="-0.59656">
        <ele>125.3</ele>
        <time>2012-04-01T06:44:48Z</time>
      </trkpt>
      <trkpt lat="46.9475" lon="-0.59662">
        <ele>125.4</ele>
        <time>2012-04-01T06:44:49Z</time>
      </trkpt>
      <trkpt lat="46.94753" lon="-0.59667">
        <ele>125.4</ele>
        <time>2012-04-01T06:44:50Z</time>
      </trkpt>
      <trkpt lat="46.94756" lon="-0.59673">
        <ele>125.5</ele>
        <time>2012-04-01T06:44:51Z</time>
      </trkpt>
      <trkpt lat="46.9476" lon="-0.59679">
        <ele>125.5</ele>
        <time>2012-04-01T06:44:52Z</time>
      </trkpt>
      <trkpt lat="46.94763" lon="-0.59685">
        <ele>125.5</ele>
        <time>2012-04-01T06:44:53Z</time>
      </trkpt>
      <trkpt lat="46.94766" lon="-0.59691">
        <ele>125.5</ele>
        <time>2012-04-01T06:44:54Z</time>
      </trkpt>
      <trkpt lat="46.94768" lon="-0.59697">
        <ele>125.5</ele>
        <time>2012-04-01T06:44:55Z</time>
      </trkpt>
      <trkpt lat="46.94771" lon="-0.59702">
        <ele>125.5</ele>
        <time>2012-04-01T06:44:56Z</time>
      </trkpt>
      <trkpt lat="46.94775" lon="-0.59714">
        <ele>125.4</ele>
        <time>2012-04-01T06:44:58Z</time>
      </trkpt>
      <trkpt lat="46.94778" lon="-0.59719">
        <ele>125.4</ele>
        <time>2012-04-01T06:44:59Z</time>
      </trkpt>
      <trkpt lat="46.9478" lon="-0.59726">
        <ele>125.4</ele>
        <time>2012-04-01T06:45:00Z</time>
      </trkpt>
      <trkpt lat="46.94782" lon="-0.59732">
        <ele>125.4</ele>
        <time>2012-04-01T06:45:01Z</time>
      </trkpt>
      <trkpt lat="46.94784" lon="-0.59739">
        <ele>125.4</ele>
        <time>2012-04-01T06:45:02Z</time>
      </trkpt>
      <trkpt lat="46.94786" lon="-0.59745">
        <ele>125.4</ele>
        <time>2012-04-01T06:45:03Z</time>
      </trkpt>
      <trkpt lat="46.94788" lon="-0.59752">
        <ele>125.3</ele>
        <time>2012-04-01T06:45:04Z</time>
      </trkpt>
      <trkpt lat="46.9479" lon="-0.59758">
        <ele>125.3</ele>
        <time>2012-04-01T06:45:05Z</time>
      </trkpt>
      <trkpt lat="46.94792" lon="-0.59765">
        <ele>125.3</ele>
        <time>2012-04-01T06:45:06Z</time>
      </trkpt>
      <trkpt lat="46.94793" lon="-0.59771">
        <ele>125.3</ele>
        <time>2012-04-01T06:45:07Z</time>
      </trkpt>
      <trkpt lat="46.94795" lon="-0.59777">
        <ele>125.3</ele>
        <time>2012-04-01T06:45:08Z</time>
      </trkpt>
      <trkpt lat="46.94797" lon="-0.59784">
        <ele>125.4</ele>
        <time>2012-04-01T06:45:09Z</time>
      </trkpt>
      <trkpt lat="46.948" lon="-0.59796">
        <ele>125.4</ele>
        <time>2012-04-01T06:45:11Z</time>
      </trkpt>
      <trkpt lat="46.94804" lon="-0.59807">
        <ele>125.5</ele>
        <time>2012-04-01T06:45:13Z</time>
      </trkpt>
      <trkpt lat="46.94808" lon="-0.59819">
        <ele>125.5</ele>
        <time>2012-04-01T06:45:15Z</time>
      </trkpt>
      <trkpt lat="46.94812" lon="-0.5983">
        <ele>125.5</ele>
        <time>2012-04-01T06:45:17Z</time>
      </trkpt>
      <trkpt lat="46.94816" lon="-0.5984">
        <ele>125.8</ele>
        <time>2012-04-01T06:45:19Z</time>
      </trkpt>
      <trkpt lat="46.9482" lon="-0.5985">
        <ele>125.9</ele>
        <time>2012-04-01T06:45:21Z</time>
      </trkpt>
      <trkpt lat="46.94824" lon="-0.59859">
        <ele>125.9</ele>
        <time>2012-04-01T06:45:23Z</time>
      </trkpt>
      <trkpt lat="46.94828" lon="-0.59868">
        <ele>125.9</ele>
        <time>2012-04-01T06:45:25Z</time>
      </trkpt>
      <trkpt lat="46.94832" lon="-0.59877">
        <ele>126</ele>
        <time>2012-04-01T06:45:27Z</time>
      </trkpt>
      <trkpt lat="46.94837" lon="-0.59885">
        <ele>126</ele>
        <time>2012-04-01T06:45:29Z</time>
      </trkpt>
      <trkpt lat="46.94841" lon="-0.59892">
        <ele>126</ele>
        <time>2012-04-01T06:45:31Z</time>
      </trkpt>
      <trkpt lat="46.94849" lon="-0.59891">
        <ele>126</ele>
        <time>2012-04-01T06:45:34Z</time>
      </trkpt>
      <trkpt lat="46.94856" lon="-0.59883">
        <ele>126</ele>
        <time>2012-04-01T06:45:37Z</time>
      </trkpt>
      <trkpt lat="46.94861" lon="-0.59877">
        <ele>126</ele>
        <time>2012-04-01T06:45:39Z</time>
      </trkpt>
      <trkpt lat="46.94867" lon="-0.5987">
        <ele>126</ele>
        <time>2012-04-01T06:45:41Z</time>
      </trkpt>
      <trkpt lat="46.94872" lon="-0.59863">
        <ele>126.4</ele>
        <time>2012-04-01T06:45:43Z</time>
      </trkpt>
      <trkpt lat="46.94878" lon="-0.59856">
        <ele>126.4</ele>
        <time>2012-04-01T06:45:45Z</time>
      </trkpt>
      <trkpt lat="46.94884" lon="-0.5985">
        <ele>126.4</ele>
        <time>2012-04-01T06:45:47Z</time>
      </trkpt>
      <trkpt lat="46.9489" lon="-0.59843">
        <ele>126.5</ele>
        <time>2012-04-01T06:45:49Z</time>
      </trkpt>
      <trkpt lat="46.94896" lon="-0.59837">
        <ele>126.5</ele>
        <time>2012-04-01T06:45:51Z</time>
      </trkpt>
      <trkpt lat="46.94902" lon="-0.59831">
        <ele>126.5</ele>
        <time>2012-04-01T06:45:53Z</time>
      </trkpt>
      <trkpt lat="46.94908" lon="-0.59824">
        <ele>126.5</ele>
        <time>2012-04-01T06:45:55Z</time>
      </trkpt>
      <trkpt lat="46.94913" lon="-0.59818">
        <ele>126.8</ele>
        <time>2012-04-01T06:45:57Z</time>
      </trkpt>
      <trkpt lat="46.94919" lon="-0.59812">
        <ele>126.9</ele>
        <time>2012-04-01T06:45:59Z</time>
      </trkpt>
      <trkpt lat="46.94925" lon="-0.59805">
        <ele>127</ele>
        <time>2012-04-01T06:46:01Z</time>
      </trkpt>
      <trkpt lat="46.9493" lon="-0.59799">
        <ele>127</ele>
        <time>2012-04-01T06:46:03Z</time>
      </trkpt>
      <trkpt lat="46.94935" lon="-0.59792">
        <ele>127</ele>
        <time>2012-04-01T06:46:05Z</time>
      </trkpt>
      <trkpt lat="46.9494" lon="-0.59785">
        <ele>127.3</ele>
        <time>2012-04-01T06:46:07Z</time>
      </trkpt>
      <trkpt lat="46.94944" lon="-0.59778">
        <ele>127.4</ele>
        <time>2012-04-01T06:46:09Z</time>
      </trkpt>
      <trkpt lat="46.94946" lon="-0.59775">
        <ele>127.5</ele>
        <time>2012-04-01T06:46:10Z</time>
      </trkpt>
      <trkpt lat="46.94953" lon="-0.59765">
        <ele>127.5</ele>
        <time>2012-04-01T06:46:13Z</time>
      </trkpt>
      <trkpt lat="46.94957" lon="-0.59759">
        <ele>127.8</ele>
        <time>2012-04-01T06:46:15Z</time>
      </trkpt>
      <trkpt lat="46.94961" lon="-0.59752">
        <ele>128</ele>
        <time>2012-04-01T06:46:17Z</time>
      </trkpt>
      <trkpt lat="46.94966" lon="-0.59745">
        <ele>128.1</ele>
        <time>2012-04-01T06:46:19Z</time>
      </trkpt>
      <trkpt lat="46.9497" lon="-0.59738">
        <ele>128.3</ele>
        <time>2012-04-01T06:46:21Z</time>
      </trkpt>
      <trkpt lat="46.94974" lon="-0.59732">
        <ele>128.6</ele>
        <time>2012-04-01T06:46:23Z</time>
      </trkpt>
      <trkpt lat="46.94979" lon="-0.59721">
        <ele>129</ele>
        <time>2012-04-01T06:46:26Z</time>
      </trkpt>
      <trkpt lat="46.94982" lon="-0.59714">
        <ele>129.3</ele>
        <time>2012-04-01T06:46:28Z</time>
      </trkpt>
      <trkpt lat="46.94986" lon="-0.59703">
        <ele>129.6</ele>
        <time>2012-04-01T06:46:31Z</time>
      </trkpt>
      <trkpt lat="46.94983" lon="-0.59693">
        <ele>130.1</ele>
        <time>2012-04-01T06:46:34Z</time>
      </trkpt>
      <trkpt lat="46.94978" lon="-0.59684">
        <ele>130.5</ele>
        <time>2012-04-01T06:46:37Z</time>
      </trkpt>
      <trkpt lat="46.94974" lon="-0.59678">
        <ele>130.8</ele>
        <time>2012-04-01T06:46:39Z</time>
      </trkpt>
      <trkpt lat="46.94969" lon="-0.59671">
        <ele>131.1</ele>
        <time>2012-04-01T06:46:41Z</time>
      </trkpt>
      <trkpt lat="46.94965" lon="-0.59664">
        <ele>131.3</ele>
        <time>2012-04-01T06:46:43Z</time>
      </trkpt>
      <trkpt lat="46.9496" lon="-0.59657">
        <ele>131.6</ele>
        <time>2012-04-01T06:46:45Z</time>
      </trkpt>
      <trkpt lat="46.94955" lon="-0.59649">
        <ele>131.8</ele>
        <time>2012-04-01T06:46:47Z</time>
      </trkpt>
      <trkpt lat="46.94951" lon="-0.59642">
        <ele>132.1</ele>
        <time>2012-04-01T06:46:49Z</time>
      </trkpt>
      <trkpt lat="46.94945" lon="-0.59634">
        <ele>133.1</ele>
        <time>2012-04-01T06:46:51Z</time>
      </trkpt>
      <trkpt lat="46.9494" lon="-0.59626">
        <ele>134.6</ele>
        <time>2012-04-01T06:46:53Z</time>
      </trkpt>
      <trkpt lat="46.94934" lon="-0.59617">
        <ele>135.5</ele>
        <time>2012-04-01T06:46:55Z</time>
      </trkpt>
      <trkpt lat="46.9493" lon="-0.59612">
        <ele>135.8</ele>
        <time>2012-04-01T06:46:56Z</time>
      </trkpt>
      <trkpt lat="46.94927" lon="-0.59607">
        <ele>135.8</ele>
        <time>2012-04-01T06:46:57Z</time>
      </trkpt>
      <trkpt lat="46.94924" lon="-0.59602">
        <ele>136.1</ele>
        <time>2012-04-01T06:46:58Z</time>
      </trkpt>
      <trkpt lat="46.9492" lon="-0.59596">
        <ele>136.1</ele>
        <time>2012-04-01T06:46:59Z</time>
      </trkpt>
      <trkpt lat="46.94916" lon="-0.5959">
        <ele>136</ele>
        <time>2012-04-01T06:47:00Z</time>
      </trkpt>
      <trkpt lat="46.94912" lon="-0.59585">
        <ele>135.8</ele>
        <time>2012-04-01T06:47:01Z</time>
      </trkpt>
      <trkpt lat="46.94909" lon="-0.59579">
        <ele>135.6</ele>
        <time>2012-04-01T06:47:02Z</time>
      </trkpt>
      <trkpt lat="46.94905" lon="-0.59574">
        <ele>135.5</ele>
        <time>2012-04-01T06:47:03Z</time>
      </trkpt>
      <trkpt lat="46.94902" lon="-0.59569">
        <ele>135.3</ele>
        <time>2012-04-01T06:47:04Z</time>
      </trkpt>
      <trkpt lat="46.94899" lon="-0.59564">
        <ele>135.1</ele>
        <time>2012-04-01T06:47:05Z</time>
      </trkpt>
      <trkpt lat="46.94896" lon="-0.59559">
        <ele>135</ele>
        <time>2012-04-01T06:47:06Z</time>
      </trkpt>
      <trkpt lat="46.9489" lon="-0.5955">
        <ele>134.8</ele>
        <time>2012-04-01T06:47:08Z</time>
      </trkpt>
      <trkpt lat="46.94888" lon="-0.59539">
        <ele>134.8</ele>
        <time>2012-04-01T06:47:11Z</time>
      </trkpt>
      <trkpt lat="46.94888" lon="-0.59535">
        <ele>134.8</ele>
        <time>2012-04-01T06:47:12Z</time>
      </trkpt>
      <trkpt lat="46.94899" lon="-0.59525">
        <ele>135</ele>
        <time>2012-04-01T06:47:20Z</time>
      </trkpt>
      <trkpt lat="46.94908" lon="-0.59525">
        <ele>135</ele>
        <time>2012-04-01T06:47:23Z</time>
      </trkpt>
      <trkpt lat="46.94914" lon="-0.59524">
        <ele>135</ele>
        <time>2012-04-01T06:47:25Z</time>
      </trkpt>
      <trkpt lat="46.94923" lon="-0.5952">
        <ele>134.8</ele>
        <time>2012-04-01T06:47:28Z</time>
      </trkpt>
      <trkpt lat="46.94931" lon="-0.59515">
        <ele>134.8</ele>
        <time>2012-04-01T06:47:31Z</time>
      </trkpt>
      <trkpt lat="46.94939" lon="-0.59511">
        <ele>134.8</ele>
        <time>2012-04-01T06:47:34Z</time>
      </trkpt>
      <trkpt lat="46.94946" lon="-0.59505">
        <ele>134.8</ele>
        <time>2012-04-01T06:47:37Z</time>
      </trkpt>
      <trkpt lat="46.94953" lon="-0.59498">
        <ele>135</ele>
        <time>2012-04-01T06:47:40Z</time>
      </trkpt>
      <trkpt lat="46.9496" lon="-0.59492">
        <ele>135</ele>
        <time>2012-04-01T06:47:43Z</time>
      </trkpt>
      <trkpt lat="46.94967" lon="-0.59485">
        <ele>135.1</ele>
        <time>2012-04-01T06:47:46Z</time>
      </trkpt>
      <trkpt lat="46.94974" lon="-0.59479">
        <ele>135.3</ele>
        <time>2012-04-01T06:47:49Z</time>
      </trkpt>
      <trkpt lat="46.94981" lon="-0.59472">
        <ele>135.3</ele>
        <time>2012-04-01T06:47:52Z</time>
      </trkpt>
      <trkpt lat="46.94988" lon="-0.59466">
        <ele>135.5</ele>
        <time>2012-04-01T06:47:55Z</time>
      </trkpt>
      <trkpt lat="46.94995" lon="-0.59459">
        <ele>135.5</ele>
        <time>2012-04-01T06:47:58Z</time>
      </trkpt>
      <trkpt lat="46.95002" lon="-0.59453">
        <ele>135.5</ele>
        <time>2012-04-01T06:48:01Z</time>
      </trkpt>
      <trkpt lat="46.9501" lon="-0.59446">
        <ele>135.5</ele>
        <time>2012-04-01T06:48:04Z</time>
      </trkpt>
      <trkpt lat="46.95018" lon="-0.59439">
        <ele>135.5</ele>
        <time>2012-04-01T06:48:07Z</time>
      </trkpt>
      <trkpt lat="46.95025" lon="-0.59433">
        <ele>135.5</ele>
        <time>2012-04-01T06:48:10Z</time>
      </trkpt>
      <trkpt lat="46.95031" lon="-0.59428">
        <ele>135.5</ele>
        <time>2012-04-01T06:48:12Z</time>
      </trkpt>
      <trkpt lat="46.95033" lon="-0.59426">
        <ele>135.5</ele>
        <time>2012-04-01T06:48:13Z</time>
      </trkpt>
      <trkpt lat="46.95043" lon="-0.5942">
        <ele>135.5</ele>
        <time>2012-04-01T06:48:16Z</time>
      </trkpt>
      <trkpt lat="46.95049" lon="-0.59416">
        <ele>135.6</ele>
        <time>2012-04-01T06:48:18Z</time>
      </trkpt>
      <trkpt lat="46.95056" lon="-0.59412">
        <ele>135.6</ele>
        <time>2012-04-01T06:48:20Z</time>
      </trkpt>
      <trkpt lat="46.95063" lon="-0.5941">
        <ele>135.8</ele>
        <time>2012-04-01T06:48:22Z</time>
      </trkpt>
      <trkpt lat="46.95071" lon="-0.59407">
        <ele>136</ele>
        <time>2012-04-01T06:48:25Z</time>
      </trkpt>
      <trkpt lat="46.95079" lon="-0.59406">
        <ele>136.1</ele>
        <time>2012-04-01T06:48:28Z</time>
      </trkpt>
      <trkpt lat="46.95087" lon="-0.59402">
        <ele>136.3</ele>
        <time>2012-04-01T06:48:31Z</time>
      </trkpt>
      <trkpt lat="46.95093" lon="-0.59399">
        <ele>136.5</ele>
        <time>2012-04-01T06:48:33Z</time>
      </trkpt>
      <trkpt lat="46.95101" lon="-0.59395">
        <ele>136.6</ele>
        <time>2012-04-01T06:48:36Z</time>
      </trkpt>
      <trkpt lat="46.95108" lon="-0.59401">
        <ele>137</ele>
        <time>2012-04-01T06:48:39Z</time>
      </trkpt>
      <trkpt lat="46.95114" lon="-0.59411">
        <ele>137.3</ele>
        <time>2012-04-01T06:48:42Z</time>
      </trkpt>
      <trkpt lat="46.9512" lon="-0.59419">
        <ele>137.6</ele>
        <time>2012-04-01T06:48:45Z</time>
      </trkpt>
      <trkpt lat="46.95126" lon="-0.59427">
        <ele>138</ele>
        <time>2012-04-01T06:48:48Z</time>
      </trkpt>
      <trkpt lat="46.95132" lon="-0.59435">
        <ele>138.3</ele>
        <time>2012-04-01T06:48:51Z</time>
      </trkpt>
      <trkpt lat="46.95139" lon="-0.59438">
        <ele>138.5</ele>
        <time>2012-04-01T06:48:54Z</time>
      </trkpt>
      <trkpt lat="46.95145" lon="-0.59433">
        <ele>138.8</ele>
        <time>2012-04-01T06:48:57Z</time>
      </trkpt>
      <trkpt lat="46.95151" lon="-0.59425">
        <ele>139.1</ele>
        <time>2012-04-01T06:49:00Z</time>
      </trkpt>
      <trkpt lat="46.95156" lon="-0.59417">
        <ele>139.3</ele>
        <time>2012-04-01T06:49:03Z</time>
      </trkpt>
      <trkpt lat="46.95161" lon="-0.59408">
        <ele>139.5</ele>
        <time>2012-04-01T06:49:06Z</time>
      </trkpt>
      <trkpt lat="46.95166" lon="-0.594">
        <ele>139.8</ele>
        <time>2012-04-01T06:49:09Z</time>
      </trkpt>
      <trkpt lat="46.95171" lon="-0.59392">
        <ele>140</ele>
        <time>2012-04-01T06:49:12Z</time>
      </trkpt>
      <trkpt lat="46.95176" lon="-0.59382">
        <ele>140.1</ele>
        <time>2012-04-01T06:49:15Z</time>
      </trkpt>
      <trkpt lat="46.95178" lon="-0.5938">
        <ele>140.3</ele>
        <time>2012-04-01T06:49:16Z</time>
      </trkpt>
      <trkpt lat="46.95187" lon="-0.59366">
        <ele>140.6</ele>
        <time>2012-04-01T06:49:21Z</time>
      </trkpt>
      <trkpt lat="46.95193" lon="-0.59358">
        <ele>140.8</ele>
        <time>2012-04-01T06:49:24Z</time>
      </trkpt>
      <trkpt lat="46.95198" lon="-0.5935">
        <ele>141</ele>
        <time>2012-04-01T06:49:27Z</time>
      </trkpt>
      <trkpt lat="46.95203" lon="-0.59342">
        <ele>141.1</ele>
        <time>2012-04-01T06:49:30Z</time>
      </trkpt>
      <trkpt lat="46.95209" lon="-0.59335">
        <ele>141.3</ele>
        <time>2012-04-01T06:49:33Z</time>
      </trkpt>
      <trkpt lat="46.95214" lon="-0.59328">
        <ele>141.5</ele>
        <time>2012-04-01T06:49:36Z</time>
      </trkpt>
      <trkpt lat="46.95218" lon="-0.5932">
        <ele>141.6</ele>
        <time>2012-04-01T06:49:39Z</time>
      </trkpt>
      <trkpt lat="46.95222" lon="-0.59312">
        <ele>141.8</ele>
        <time>2012-04-01T06:49:42Z</time>
      </trkpt>
      <trkpt lat="46.95227" lon="-0.59304">
        <ele>142</ele>
        <time>2012-04-01T06:49:45Z</time>
      </trkpt>
      <trkpt lat="46.95232" lon="-0.59296">
        <ele>142.1</ele>
        <time>2012-04-01T06:49:48Z</time>
      </trkpt>
      <trkpt lat="46.95238" lon="-0.59287">
        <ele>142.3</ele>
        <time>2012-04-01T06:49:52Z</time>
      </trkpt>
      <trkpt lat="46.95244" lon="-0.59281">
        <ele>142.6</ele>
        <time>2012-04-01T06:49:58Z</time>
      </trkpt>
      <trkpt lat="46.95253" lon="-0.5928">
        <ele>142.8</ele>
        <time>2012-04-01T06:50:02Z</time>
      </trkpt>
      <trkpt lat="46.9526" lon="-0.59273">
        <ele>143</ele>
        <time>2012-04-01T06:50:06Z</time>
      </trkpt>
      <trkpt lat="46.95268" lon="-0.59271">
        <ele>143.1</ele>
        <time>2012-04-01T06:50:10Z</time>
      </trkpt>
      <trkpt lat="46.95276" lon="-0.59266">
        <ele>143.5</ele>
        <time>2012-04-01T06:50:14Z</time>
      </trkpt>
      <trkpt lat="46.95281" lon="-0.59257">
        <ele>144</ele>
        <time>2012-04-01T06:50:22Z</time>
      </trkpt>
      <trkpt lat="46.95282" lon="-0.59256">
        <ele>144.1</ele>
        <time>2012-04-01T06:50:23Z</time>
      </trkpt>
      <trkpt lat="46.95295" lon="-0.59261">
        <ele>144.6</ele>
        <time>2012-04-01T06:50:32Z</time>
      </trkpt>
      <trkpt lat="46.95301" lon="-0.5927">
        <ele>145.1</ele>
        <time>2012-04-01T06:50:38Z</time>
      </trkpt>
      <trkpt lat="46.95306" lon="-0.5928">
        <ele>145.6</ele>
        <time>2012-04-01T06:50:45Z</time>
      </trkpt>
      <trkpt lat="46.9531" lon="-0.59291">
        <ele>146</ele>
        <time>2012-04-01T06:50:52Z</time>
      </trkpt>
      <trkpt lat="46.95315" lon="-0.59299">
        <ele>146.3</ele>
        <time>2012-04-01T06:50:57Z</time>
      </trkpt>
      <trkpt lat="46.95321" lon="-0.59308">
        <ele>146.6</ele>
        <time>2012-04-01T06:51:02Z</time>
      </trkpt>
      <trkpt lat="46.95326" lon="-0.59316">
        <ele>146.8</ele>
        <time>2012-04-01T06:51:06Z</time>
      </trkpt>
      <trkpt lat="46.95331" lon="-0.59324">
        <ele>147</ele>
        <time>2012-04-01T06:51:10Z</time>
      </trkpt>
      <trkpt lat="46.95338" lon="-0.59334">
        <ele>147.1</ele>
        <time>2012-04-01T06:51:14Z</time>
      </trkpt>
      <trkpt lat="46.95342" lon="-0.5934">
        <ele>147.1</ele>
        <time>2012-04-01T06:51:16Z</time>
      </trkpt>
      <trkpt lat="46.95346" lon="-0.59347">
        <ele>147.3</ele>
        <time>2012-04-01T06:51:18Z</time>
      </trkpt>
      <trkpt lat="46.95351" lon="-0.59355">
        <ele>147.3</ele>
        <time>2012-04-01T06:51:20Z</time>
      </trkpt>
      <trkpt lat="46.95356" lon="-0.59363">
        <ele>147.8</ele>
        <time>2012-04-01T06:51:22Z</time>
      </trkpt>
      <trkpt lat="46.95362" lon="-0.59372">
        <ele>148.3</ele>
        <time>2012-04-01T06:51:24Z</time>
      </trkpt>
      <trkpt lat="46.95365" lon="-0.59377">
        <ele>148.6</ele>
        <time>2012-04-01T06:51:25Z</time>
      </trkpt>
      <trkpt lat="46.95374" lon="-0.5939">
        <ele>149.1</ele>
        <time>2012-04-01T06:51:28Z</time>
      </trkpt>
      <trkpt lat="46.9538" lon="-0.59399">
        <ele>149.3</ele>
        <time>2012-04-01T06:51:30Z</time>
      </trkpt>
      <trkpt lat="46.95387" lon="-0.59408">
        <ele>149.3</ele>
        <time>2012-04-01T06:51:32Z</time>
      </trkpt>
      <trkpt lat="46.9539" lon="-0.59413">
        <ele>149.3</ele>
        <time>2012-04-01T06:51:33Z</time>
      </trkpt>
      <trkpt lat="46.95394" lon="-0.59417">
        <ele>149.5</ele>
        <time>2012-04-01T06:51:34Z</time>
      </trkpt>
      <trkpt lat="46.95397" lon="-0.59422">
        <ele>149.5</ele>
        <time>2012-04-01T06:51:35Z</time>
      </trkpt>
      <trkpt lat="46.954" lon="-0.59426">
        <ele>149.6</ele>
        <time>2012-04-01T06:51:36Z</time>
      </trkpt>
      <trkpt lat="46.95404" lon="-0.59431">
        <ele>149.6</ele>
        <time>2012-04-01T06:51:37Z</time>
      </trkpt>
      <trkpt lat="46.95407" lon="-0.59435">
        <ele>149.6</ele>
        <time>2012-04-01T06:51:38Z</time>
      </trkpt>
      <trkpt lat="46.95414" lon="-0.59444">
        <ele>149.6</ele>
        <time>2012-04-01T06:51:40Z</time>
      </trkpt>
      <trkpt lat="46.9542" lon="-0.59453">
        <ele>149.6</ele>
        <time>2012-04-01T06:51:42Z</time>
      </trkpt>
      <trkpt lat="46.95427" lon="-0.59462">
        <ele>149.6</ele>
        <time>2012-04-01T06:51:44Z</time>
      </trkpt>
      <trkpt lat="46.95433" lon="-0.5947">
        <ele>149.8</ele>
        <time>2012-04-01T06:51:46Z</time>
      </trkpt>
      <trkpt lat="46.9544" lon="-0.59479">
        <ele>149.8</ele>
        <time>2012-04-01T06:51:48Z</time>
      </trkpt>
      <trkpt lat="46.95446" lon="-0.59487">
        <ele>149.8</ele>
        <time>2012-04-01T06:51:50Z</time>
      </trkpt>
      <trkpt lat="46.95453" lon="-0.59496">
        <ele>149.8</ele>
        <time>2012-04-01T06:51:52Z</time>
      </trkpt>
      <trkpt lat="46.95459" lon="-0.59503">
        <ele>149.8</ele>
        <time>2012-04-01T06:51:54Z</time>
      </trkpt>
      <trkpt lat="46.95466" lon="-0.59506">
        <ele>149.8</ele>
        <time>2012-04-01T06:51:57Z</time>
      </trkpt>
      <trkpt lat="46.95471" lon="-0.5951">
        <ele>149.8</ele>
        <time>2012-04-01T06:51:59Z</time>
      </trkpt>
      <trkpt lat="46.95477" lon="-0.59517">
        <ele>149.8</ele>
        <time>2012-04-01T06:52:01Z</time>
      </trkpt>
      <trkpt lat="46.95484" lon="-0.59524">
        <ele>149.6</ele>
        <time>2012-04-01T06:52:03Z</time>
      </trkpt>
      <trkpt lat="46.9549" lon="-0.59532">
        <ele>149.5</ele>
        <time>2012-04-01T06:52:05Z</time>
      </trkpt>
      <trkpt lat="46.95494" lon="-0.59537">
        <ele>149.5</ele>
        <time>2012-04-01T06:52:06Z</time>
      </trkpt>
      <trkpt lat="46.95498" lon="-0.59541">
        <ele>149.5</ele>
        <time>2012-04-01T06:52:07Z</time>
      </trkpt>
      <trkpt lat="46.95504" lon="-0.59551">
        <ele>149.5</ele>
        <time>2012-04-01T06:52:09Z</time>
      </trkpt>
      <trkpt lat="46.95505" lon="-0.59558">
        <ele>149.3</ele>
        <time>2012-04-01T06:52:10Z</time>
      </trkpt>
      <trkpt lat="46.95506" lon="-0.59565">
        <ele>149.3</ele>
        <time>2012-04-01T06:52:11Z</time>
      </trkpt>
      <trkpt lat="46.95507" lon="-0.59573">
        <ele>149.1</ele>
        <time>2012-04-01T06:52:12Z</time>
      </trkpt>
      <trkpt lat="46.95508" lon="-0.59581">
        <ele>149.1</ele>
        <time>2012-04-01T06:52:13Z</time>
      </trkpt>
      <trkpt lat="46.95509" lon="-0.5959">
        <ele>149.1</ele>
        <time>2012-04-01T06:52:14Z</time>
      </trkpt>
      <trkpt lat="46.9551" lon="-0.59598">
        <ele>149</ele>
        <time>2012-04-01T06:52:15Z</time>
      </trkpt>
      <trkpt lat="46.95511" lon="-0.59606">
        <ele>148.8</ele>
        <time>2012-04-01T06:52:16Z</time>
      </trkpt>
      <trkpt lat="46.95512" lon="-0.59615">
        <ele>148.8</ele>
        <time>2012-04-01T06:52:17Z</time>
      </trkpt>
      <trkpt lat="46.95513" lon="-0.59623">
        <ele>148.6</ele>
        <time>2012-04-01T06:52:18Z</time>
      </trkpt>
      <trkpt lat="46.95514" lon="-0.59632">
        <ele>148.5</ele>
        <time>2012-04-01T06:52:19Z</time>
      </trkpt>
      <trkpt lat="46.95516" lon="-0.5964">
        <ele>148.3</ele>
        <time>2012-04-01T06:52:20Z</time>
      </trkpt>
      <trkpt lat="46.95517" lon="-0.59647">
        <ele>148.1</ele>
        <time>2012-04-01T06:52:21Z</time>
      </trkpt>
      <trkpt lat="46.95518" lon="-0.59654">
        <ele>147.8</ele>
        <time>2012-04-01T06:52:22Z</time>
      </trkpt>
      <trkpt lat="46.95518" lon="-0.59661">
        <ele>147.6</ele>
        <time>2012-04-01T06:52:23Z</time>
      </trkpt>
      <trkpt lat="46.95519" lon="-0.59668">
        <ele>147.3</ele>
        <time>2012-04-01T06:52:24Z</time>
      </trkpt>
      <trkpt lat="46.9552" lon="-0.59675">
        <ele>147.1</ele>
        <time>2012-04-01T06:52:25Z</time>
      </trkpt>
      <trkpt lat="46.95521" lon="-0.59682">
        <ele>147.1</ele>
        <time>2012-04-01T06:52:26Z</time>
      </trkpt>
      <trkpt lat="46.95522" lon="-0.59698">
        <ele>146.8</ele>
        <time>2012-04-01T06:52:29Z</time>
      </trkpt>
      <trkpt lat="46.95522" lon="-0.59708">
        <ele>146.8</ele>
        <time>2012-04-01T06:52:31Z</time>
      </trkpt>
      <trkpt lat="46.95522" lon="-0.59721">
        <ele>146.6</ele>
        <time>2012-04-01T06:53:01Z</time>
      </trkpt>
      <trkpt lat="46.95522" lon="-0.59731">
        <ele>146.3</ele>
        <time>2012-04-01T06:53:03Z</time>
      </trkpt>
      <trkpt lat="46.95521" lon="-0.59741">
        <ele>146.3</ele>
        <time>2012-04-01T06:53:05Z</time>
      </trkpt>
      <trkpt lat="46.9552" lon="-0.59753">
        <ele>146.1</ele>
        <time>2012-04-01T06:53:07Z</time>
      </trkpt>
      <trkpt lat="46.95519" lon="-0.59764">
        <ele>146.1</ele>
        <time>2012-04-01T06:53:09Z</time>
      </trkpt>
      <trkpt lat="46.95517" lon="-0.59775">
        <ele>146</ele>
        <time>2012-04-01T06:53:11Z</time>
      </trkpt>
      <trkpt lat="46.95515" lon="-0.59786">
        <ele>145.8</ele>
        <time>2012-04-01T06:53:13Z</time>
      </trkpt>
      <trkpt lat="46.95514" lon="-0.59797">
        <ele>145.6</ele>
        <time>2012-04-01T06:53:15Z</time>
      </trkpt>
      <trkpt lat="46.95512" lon="-0.59808">
        <ele>145.6</ele>
        <time>2012-04-01T06:53:17Z</time>
      </trkpt>
      <trkpt lat="46.9551" lon="-0.5982">
        <ele>144.6</ele>
        <time>2012-04-01T06:53:19Z</time>
      </trkpt>
      <trkpt lat="46.95507" lon="-0.5983">
        <ele>144.1</ele>
        <time>2012-04-01T06:53:21Z</time>
      </trkpt>
      <trkpt lat="46.95503" lon="-0.59841">
        <ele>143.3</ele>
        <time>2012-04-01T06:53:23Z</time>
      </trkpt>
      <trkpt lat="46.95499" lon="-0.59851">
        <ele>142.8</ele>
        <time>2012-04-01T06:53:25Z</time>
      </trkpt>
      <trkpt lat="46.95496" lon="-0.5986">
        <ele>142.8</ele>
        <time>2012-04-01T06:53:27Z</time>
      </trkpt>
      <trkpt lat="46.95494" lon="-0.59865">
        <ele>142.3</ele>
        <time>2012-04-01T06:53:28Z</time>
      </trkpt>
      <trkpt lat="46.95489" lon="-0.5988">
        <ele>141.3</ele>
        <time>2012-04-01T06:53:31Z</time>
      </trkpt>
      <trkpt lat="46.95484" lon="-0.59891">
        <ele>140.8</ele>
        <time>2012-04-01T06:53:33Z</time>
      </trkpt>
      <trkpt lat="46.9548" lon="-0.59903">
        <ele>140.3</ele>
        <time>2012-04-01T06:53:35Z</time>
      </trkpt>
      <trkpt lat="46.95476" lon="-0.59915">
        <ele>140</ele>
        <time>2012-04-01T06:53:37Z</time>
      </trkpt>
      <trkpt lat="46.95472" lon="-0.59925">
        <ele>139.6</ele>
        <time>2012-04-01T06:53:39Z</time>
      </trkpt>
      <trkpt lat="46.95466" lon="-0.59936">
        <ele>139.3</ele>
        <time>2012-04-01T06:53:41Z</time>
      </trkpt>
      <trkpt lat="46.95464" lon="-0.59941">
        <ele>139.3</ele>
        <time>2012-04-01T06:53:42Z</time>
      </trkpt>
      <trkpt lat="46.95461" lon="-0.59947">
        <ele>139.1</ele>
        <time>2012-04-01T06:53:43Z</time>
      </trkpt>
      <trkpt lat="46.95458" lon="-0.59952">
        <ele>139</ele>
        <time>2012-04-01T06:53:44Z</time>
      </trkpt>
      <trkpt lat="46.95454" lon="-0.59963">
        <ele>138.8</ele>
        <time>2012-04-01T06:53:46Z</time>
      </trkpt>
      <trkpt lat="46.9545" lon="-0.59973">
        <ele>138.8</ele>
        <time>2012-04-01T06:53:48Z</time>
      </trkpt>
      <trkpt lat="46.95454" lon="-0.59983">
        <ele>138.8</ele>
        <time>2012-04-01T06:53:51Z</time>
      </trkpt>
      <trkpt lat="46.9546" lon="-0.5999">
        <ele>139.1</ele>
        <time>2012-04-01T06:53:53Z</time>
      </trkpt>
      <trkpt lat="46.95467" lon="-0.59996">
        <ele>139.3</ele>
        <time>2012-04-01T06:53:55Z</time>
      </trkpt>
      <trkpt lat="46.95475" lon="-0.60002">
        <ele>140</ele>
        <time>2012-04-01T06:53:57Z</time>
      </trkpt>
      <trkpt lat="46.95481" lon="-0.60005">
        <ele>140</ele>
        <time>2012-04-01T06:53:59Z</time>
      </trkpt>
      <trkpt lat="46.95488" lon="-0.60009">
        <ele>140</ele>
        <time>2012-04-01T06:54:01Z</time>
      </trkpt>
      <trkpt lat="46.95495" lon="-0.60013">
        <ele>139.8</ele>
        <time>2012-04-01T06:54:03Z</time>
      </trkpt>
      <trkpt lat="46.95501" lon="-0.60017">
        <ele>139.8</ele>
        <time>2012-04-01T06:54:05Z</time>
      </trkpt>
      <trkpt lat="46.95507" lon="-0.60021">
        <ele>139.8</ele>
        <time>2012-04-01T06:54:07Z</time>
      </trkpt>
      <trkpt lat="46.95514" lon="-0.60027">
        <ele>139.6</ele>
        <time>2012-04-01T06:54:10Z</time>
      </trkpt>
      <trkpt lat="46.95521" lon="-0.60034">
        <ele>139.6</ele>
        <time>2012-04-01T06:54:13Z</time>
      </trkpt>
      <trkpt lat="46.95527" lon="-0.6004">
        <ele>139.6</ele>
        <time>2012-04-01T06:54:16Z</time>
      </trkpt>
      <trkpt lat="46.95535" lon="-0.60045">
        <ele>139.6</ele>
        <time>2012-04-01T06:54:20Z</time>
      </trkpt>
      <trkpt lat="46.95543" lon="-0.60049">
        <ele>139.5</ele>
        <time>2012-04-01T06:54:37Z</time>
      </trkpt>
      <trkpt lat="46.95546" lon="-0.60054">
        <ele>139.6</ele>
        <time>2012-04-01T06:54:38Z</time>
      </trkpt>
      <trkpt lat="46.95555" lon="-0.60064">
        <ele>139.8</ele>
        <time>2012-04-01T06:54:41Z</time>
      </trkpt>
      <trkpt lat="46.9556" lon="-0.60069">
        <ele>139.8</ele>
        <time>2012-04-01T06:54:43Z</time>
      </trkpt>
      <trkpt lat="46.95567" lon="-0.60078">
        <ele>140.1</ele>
        <time>2012-04-01T06:54:46Z</time>
      </trkpt>
      <trkpt lat="46.95572" lon="-0.60084">
        <ele>140.1</ele>
        <time>2012-04-01T06:54:48Z</time>
      </trkpt>
      <trkpt lat="46.95577" lon="-0.6009">
        <ele>140.3</ele>
        <time>2012-04-01T06:54:50Z</time>
      </trkpt>
      <trkpt lat="46.95582" lon="-0.60096">
        <ele>140.3</ele>
        <time>2012-04-01T06:54:52Z</time>
      </trkpt>
      <trkpt lat="46.95588" lon="-0.60103">
        <ele>140.5</ele>
        <time>2012-04-01T06:54:54Z</time>
      </trkpt>
      <trkpt lat="46.95593" lon="-0.60109">
        <ele>140.6</ele>
        <time>2012-04-01T06:54:56Z</time>
      </trkpt>
      <trkpt lat="46.95598" lon="-0.60115">
        <ele>140.8</ele>
        <time>2012-04-01T06:54:58Z</time>
      </trkpt>
      <trkpt lat="46.95604" lon="-0.60121">
        <ele>141</ele>
        <time>2012-04-01T06:55:00Z</time>
      </trkpt>
      <trkpt lat="46.95609" lon="-0.60126">
        <ele>141.1</ele>
        <time>2012-04-01T06:55:02Z</time>
      </trkpt>
      <trkpt lat="46.95614" lon="-0.60132">
        <ele>141.3</ele>
        <time>2012-04-01T06:55:04Z</time>
      </trkpt>
      <trkpt lat="46.95619" lon="-0.60137">
        <ele>141.5</ele>
        <time>2012-04-01T06:55:06Z</time>
      </trkpt>
      <trkpt lat="46.95624" lon="-0.60143">
        <ele>141.6</ele>
        <time>2012-04-01T06:55:08Z</time>
      </trkpt>
      <trkpt lat="46.95629" lon="-0.6015">
        <ele>141.8</ele>
        <time>2012-04-01T06:55:10Z</time>
      </trkpt>
      <trkpt lat="46.95634" lon="-0.60155">
        <ele>142</ele>
        <time>2012-04-01T06:55:12Z</time>
      </trkpt>
      <trkpt lat="46.95638" lon="-0.60165">
        <ele>142.3</ele>
        <time>2012-04-01T06:55:15Z</time>
      </trkpt>
      <trkpt lat="46.95637" lon="-0.60176">
        <ele>142.6</ele>
        <time>2012-04-01T06:55:18Z</time>
      </trkpt>
      <trkpt lat="46.95636" lon="-0.60185">
        <ele>142.6</ele>
        <time>2012-04-01T06:55:20Z</time>
      </trkpt>
      <trkpt lat="46.95635" lon="-0.60194">
        <ele>142.8</ele>
        <time>2012-04-01T06:55:22Z</time>
      </trkpt>
      <trkpt lat="46.95632" lon="-0.60206">
        <ele>143.1</ele>
        <time>2012-04-01T06:55:25Z</time>
      </trkpt>
      <trkpt lat="46.95629" lon="-0.60217">
        <ele>143.3</ele>
        <time>2012-04-01T06:55:28Z</time>
      </trkpt>
      <trkpt lat="46.95626" lon="-0.60227">
        <ele>143.6</ele>
        <time>2012-04-01T06:55:31Z</time>
      </trkpt>
      <trkpt lat="46.95624" lon="-0.60238">
        <ele>143.8</ele>
        <time>2012-04-01T06:55:34Z</time>
      </trkpt>
      <trkpt lat="46.95621" lon="-0.6025">
        <ele>144.1</ele>
        <time>2012-04-01T06:55:37Z</time>
      </trkpt>
      <trkpt lat="46.95618" lon="-0.60261">
        <ele>144.3</ele>
        <time>2012-04-01T06:55:40Z</time>
      </trkpt>
      <trkpt lat="46.95617" lon="-0.60265">
        <ele>144.3</ele>
        <time>2012-04-01T06:55:41Z</time>
      </trkpt>
      <trkpt lat="46.95613" lon="-0.60278">
        <ele>144.6</ele>
        <time>2012-04-01T06:55:44Z</time>
      </trkpt>
      <trkpt lat="46.95611" lon="-0.60287">
        <ele>144.8</ele>
        <time>2012-04-01T06:55:46Z</time>
      </trkpt>
      <trkpt lat="46.95608" lon="-0.60295">
        <ele>144.8</ele>
        <time>2012-04-01T06:55:48Z</time>
      </trkpt>
      <trkpt lat="46.95606" lon="-0.60304">
        <ele>145</ele>
        <time>2012-04-01T06:55:50Z</time>
      </trkpt>
      <trkpt lat="46.95604" lon="-0.60313">
        <ele>145.1</ele>
        <time>2012-04-01T06:55:52Z</time>
      </trkpt>
      <trkpt lat="46.95601" lon="-0.60322">
        <ele>145.3</ele>
        <time>2012-04-01T06:55:54Z</time>
      </trkpt>
      <trkpt lat="46.95598" lon="-0.60332">
        <ele>145.3</ele>
        <time>2012-04-01T06:55:56Z</time>
      </trkpt>
      <trkpt lat="46.95595" lon="-0.60342">
        <ele>145.5</ele>
        <time>2012-04-01T06:55:58Z</time>
      </trkpt>
      <trkpt lat="46.95592" lon="-0.60351">
        <ele>145.6</ele>
        <time>2012-04-01T06:56:00Z</time>
      </trkpt>
      <trkpt lat="46.95589" lon="-0.60361">
        <ele>145.8</ele>
        <time>2012-04-01T06:56:02Z</time>
      </trkpt>
      <trkpt lat="46.95586" lon="-0.60371">
        <ele>146</ele>
        <time>2012-04-01T06:56:04Z</time>
      </trkpt>
      <trkpt lat="46.95582" lon="-0.60381">
        <ele>146.1</ele>
        <time>2012-04-01T06:56:06Z</time>
      </trkpt>
      <trkpt lat="46.95579" lon="-0.60391">
        <ele>146.1</ele>
        <time>2012-04-01T06:56:08Z</time>
      </trkpt>
      <trkpt lat="46.95577" lon="-0.60401">
        <ele>146.3</ele>
        <time>2012-04-01T06:56:10Z</time>
      </trkpt>
      <trkpt lat="46.95575" lon="-0.6041">
        <ele>146.5</ele>
        <time>2012-04-01T06:56:12Z</time>
      </trkpt>
      <trkpt lat="46.95573" lon="-0.6042">
        <ele>146.6</ele>
        <time>2012-04-01T06:56:14Z</time>
      </trkpt>
      <trkpt lat="46.95571" lon="-0.60429">
        <ele>146.8</ele>
        <time>2012-04-01T06:56:16Z</time>
      </trkpt>
      <trkpt lat="46.9557" lon="-0.6044">
        <ele>146.8</ele>
        <time>2012-04-01T06:56:18Z</time>
      </trkpt>
      <trkpt lat="46.95569" lon="-0.6045">
        <ele>147</ele>
        <time>2012-04-01T06:56:20Z</time>
      </trkpt>
      <trkpt lat="46.95568" lon="-0.60461">
        <ele>147.1</ele>
        <time>2012-04-01T06:56:22Z</time>
      </trkpt>
      <trkpt lat="46.95569" lon="-0.6047">
        <ele>147.1</ele>
        <time>2012-04-01T06:56:24Z</time>
      </trkpt>
      <trkpt lat="46.9557" lon="-0.60481">
        <ele>147.3</ele>
        <time>2012-04-01T06:56:26Z</time>
      </trkpt>
      <trkpt lat="46.95574" lon="-0.6049">
        <ele>148.1</ele>
        <time>2012-04-01T06:56:28Z</time>
      </trkpt>
      <trkpt lat="46.95579" lon="-0.60498">
        <ele>148.6</ele>
        <time>2012-04-01T06:56:30Z</time>
      </trkpt>
      <trkpt lat="46.95585" lon="-0.60506">
        <ele>148.6</ele>
        <time>2012-04-01T06:56:32Z</time>
      </trkpt>
      <trkpt lat="46.95591" lon="-0.60512">
        <ele>148.6</ele>
        <time>2012-04-01T06:56:34Z</time>
      </trkpt>
      <trkpt lat="46.95596" lon="-0.60519">
        <ele>148.8</ele>
        <time>2012-04-01T06:56:36Z</time>
      </trkpt>
      <trkpt lat="46.95602" lon="-0.60526">
        <ele>148.8</ele>
        <time>2012-04-01T06:56:38Z</time>
      </trkpt>
      <trkpt lat="46.95607" lon="-0.60533">
        <ele>148.8</ele>
        <time>2012-04-01T06:56:40Z</time>
      </trkpt>
      <trkpt lat="46.95613" lon="-0.60541">
        <ele>149</ele>
        <time>2012-04-01T06:56:42Z</time>
      </trkpt>
      <trkpt lat="46.95615" lon="-0.60544">
        <ele>149</ele>
        <time>2012-04-01T06:56:43Z</time>
      </trkpt>
      <trkpt lat="46.95623" lon="-0.60555">
        <ele>149.1</ele>
        <time>2012-04-01T06:56:46Z</time>
      </trkpt>
      <trkpt lat="46.95628" lon="-0.60562">
        <ele>149.1</ele>
        <time>2012-04-01T06:56:48Z</time>
      </trkpt>
      <trkpt lat="46.95633" lon="-0.60569">
        <ele>149.1</ele>
        <time>2012-04-01T06:56:50Z</time>
      </trkpt>
      <trkpt lat="46.95638" lon="-0.60577">
        <ele>149.1</ele>
        <time>2012-04-01T06:56:52Z</time>
      </trkpt>
      <trkpt lat="46.95643" lon="-0.60583">
        <ele>149.1</ele>
        <time>2012-04-01T06:56:54Z</time>
      </trkpt>
      <trkpt lat="46.95648" lon="-0.6059">
        <ele>149.3</ele>
        <time>2012-04-01T06:56:56Z</time>
      </trkpt>
      <trkpt lat="46.95653" lon="-0.60597">
        <ele>149.3</ele>
        <time>2012-04-01T06:56:58Z</time>
      </trkpt>
      <trkpt lat="46.95659" lon="-0.60604">
        <ele>149.3</ele>
        <time>2012-04-01T06:57:00Z</time>
      </trkpt>
      <trkpt lat="46.95662" lon="-0.60614">
        <ele>149.6</ele>
        <time>2012-04-01T06:57:02Z</time>
      </trkpt>
      <trkpt lat="46.95665" lon="-0.60625">
        <ele>150</ele>
        <time>2012-04-01T06:57:04Z</time>
      </trkpt>
      <trkpt lat="46.95667" lon="-0.60636">
        <ele>150.1</ele>
        <time>2012-04-01T06:57:06Z</time>
      </trkpt>
      <trkpt lat="46.9567" lon="-0.60648">
        <ele>150.3</ele>
        <time>2012-04-01T06:57:08Z</time>
      </trkpt>
      <trkpt lat="46.95673" lon="-0.60659">
        <ele>150.3</ele>
        <time>2012-04-01T06:57:10Z</time>
      </trkpt>
      <trkpt lat="46.95676" lon="-0.6067">
        <ele>150.3</ele>
        <time>2012-04-01T06:57:12Z</time>
      </trkpt>
      <trkpt lat="46.95679" lon="-0.60681">
        <ele>150.3</ele>
        <time>2012-04-01T06:57:14Z</time>
      </trkpt>
      <trkpt lat="46.95682" lon="-0.60693">
        <ele>150.3</ele>
        <time>2012-04-01T06:57:16Z</time>
      </trkpt>
      <trkpt lat="46.95685" lon="-0.60705">
        <ele>150.3</ele>
        <time>2012-04-01T06:57:18Z</time>
      </trkpt>
      <trkpt lat="46.95687" lon="-0.60712">
        <ele>150.3</ele>
        <time>2012-04-01T06:57:19Z</time>
      </trkpt>
      <trkpt lat="46.95688" lon="-0.60718">
        <ele>150.3</ele>
        <time>2012-04-01T06:57:20Z</time>
      </trkpt>
      <trkpt lat="46.9569" lon="-0.60725">
        <ele>150.5</ele>
        <time>2012-04-01T06:57:21Z</time>
      </trkpt>
      <trkpt lat="46.95691" lon="-0.60731">
        <ele>150.5</ele>
        <time>2012-04-01T06:57:22Z</time>
      </trkpt>
      <trkpt lat="46.95693" lon="-0.60737">
        <ele>150.6</ele>
        <time>2012-04-01T06:57:23Z</time>
      </trkpt>
      <trkpt lat="46.95694" lon="-0.60744">
        <ele>150.6</ele>
        <time>2012-04-01T06:57:24Z</time>
      </trkpt>
      <trkpt lat="46.95697" lon="-0.60756">
        <ele>150.6</ele>
        <time>2012-04-01T06:57:26Z</time>
      </trkpt>
      <trkpt lat="46.957" lon="-0.60767">
        <ele>150.8</ele>
        <time>2012-04-01T06:57:28Z</time>
      </trkpt>
      <trkpt lat="46.95702" lon="-0.60778">
        <ele>150.8</ele>
        <time>2012-04-01T06:57:30Z</time>
      </trkpt>
      <trkpt lat="46.95705" lon="-0.60789">
        <ele>150.8</ele>
        <time>2012-04-01T06:57:32Z</time>
      </trkpt>
      <trkpt lat="46.95707" lon="-0.60801">
        <ele>151.1</ele>
        <time>2012-04-01T06:57:34Z</time>
      </trkpt>
      <trkpt lat="46.95709" lon="-0.60812">
        <ele>151.1</ele>
        <time>2012-04-01T06:57:36Z</time>
      </trkpt>
      <trkpt lat="46.95711" lon="-0.60824">
        <ele>151.3</ele>
        <time>2012-04-01T06:57:38Z</time>
      </trkpt>
      <trkpt lat="46.95713" lon="-0.60836">
        <ele>151.5</ele>
        <time>2012-04-01T06:57:40Z</time>
      </trkpt>
      <trkpt lat="46.95714" lon="-0.60848">
        <ele>151.5</ele>
        <time>2012-04-01T06:57:42Z</time>
      </trkpt>
      <trkpt lat="46.95715" lon="-0.6086">
        <ele>151.5</ele>
        <time>2012-04-01T06:57:44Z</time>
      </trkpt>
      <trkpt lat="46.95716" lon="-0.60866">
        <ele>151.6</ele>
        <time>2012-04-01T06:57:45Z</time>
      </trkpt>
      <trkpt lat="46.95718" lon="-0.60884">
        <ele>151.6</ele>
        <time>2012-04-01T06:57:48Z</time>
      </trkpt>
      <trkpt lat="46.95719" lon="-0.60897">
        <ele>151.5</ele>
        <time>2012-04-01T06:57:50Z</time>
      </trkpt>
      <trkpt lat="46.95721" lon="-0.60909">
        <ele>151.5</ele>
        <time>2012-04-01T06:57:52Z</time>
      </trkpt>
      <trkpt lat="46.95722" lon="-0.60922">
        <ele>151.5</ele>
        <time>2012-04-01T06:57:54Z</time>
      </trkpt>
      <trkpt lat="46.95723" lon="-0.60935">
        <ele>151.5</ele>
        <time>2012-04-01T06:57:56Z</time>
      </trkpt>
      <trkpt lat="46.95724" lon="-0.60941">
        <ele>151.5</ele>
        <time>2012-04-01T06:57:57Z</time>
      </trkpt>
      <trkpt lat="46.95724" lon="-0.60948">
        <ele>151.6</ele>
        <time>2012-04-01T06:57:58Z</time>
      </trkpt>
      <trkpt lat="46.95725" lon="-0.60955">
        <ele>151.6</ele>
        <time>2012-04-01T06:57:59Z</time>
      </trkpt>
      <trkpt lat="46.95726" lon="-0.60968">
        <ele>151.6</ele>
        <time>2012-04-01T06:58:01Z</time>
      </trkpt>
      <trkpt lat="46.95727" lon="-0.6098">
        <ele>151.6</ele>
        <time>2012-04-01T06:58:03Z</time>
      </trkpt>
      <trkpt lat="46.95728" lon="-0.60992">
        <ele>151.8</ele>
        <time>2012-04-01T06:58:05Z</time>
      </trkpt>
      <trkpt lat="46.95729" lon="-0.61005">
        <ele>151.8</ele>
        <time>2012-04-01T06:58:07Z</time>
      </trkpt>
      <trkpt lat="46.95729" lon="-0.61017">
        <ele>151.8</ele>
        <time>2012-04-01T06:58:09Z</time>
      </trkpt>
      <trkpt lat="46.9573" lon="-0.6103">
        <ele>152</ele>
        <time>2012-04-01T06:58:11Z</time>
      </trkpt>
      <trkpt lat="46.9573" lon="-0.61042">
        <ele>152</ele>
        <time>2012-04-01T06:58:13Z</time>
      </trkpt>
      <trkpt lat="46.9573" lon="-0.61054">
        <ele>152</ele>
        <time>2012-04-01T06:58:15Z</time>
      </trkpt>
      <trkpt lat="46.9573" lon="-0.61066">
        <ele>152.1</ele>
        <time>2012-04-01T06:58:17Z</time>
      </trkpt>
      <trkpt lat="46.9573" lon="-0.61078">
        <ele>152.1</ele>
        <time>2012-04-01T06:58:19Z</time>
      </trkpt>
      <trkpt lat="46.95731" lon="-0.6109">
        <ele>152.3</ele>
        <time>2012-04-01T06:58:21Z</time>
      </trkpt>
      <trkpt lat="46.95731" lon="-0.61103">
        <ele>152.5</ele>
        <time>2012-04-01T06:58:23Z</time>
      </trkpt>
      <trkpt lat="46.95731" lon="-0.61115">
        <ele>152.6</ele>
        <time>2012-04-01T06:58:25Z</time>
      </trkpt>
      <trkpt lat="46.95731" lon="-0.61128">
        <ele>152.6</ele>
        <time>2012-04-01T06:58:27Z</time>
      </trkpt>
      <trkpt lat="46.95732" lon="-0.61141">
        <ele>152.6</ele>
        <time>2012-04-01T06:58:29Z</time>
      </trkpt>
      <trkpt lat="46.95733" lon="-0.61152">
        <ele>152.8</ele>
        <time>2012-04-01T06:58:31Z</time>
      </trkpt>
      <trkpt lat="46.95734" lon="-0.61163">
        <ele>152.8</ele>
        <time>2012-04-01T06:58:33Z</time>
      </trkpt>
      <trkpt lat="46.95734" lon="-0.61174">
        <ele>152.8</ele>
        <time>2012-04-01T06:58:35Z</time>
      </trkpt>
      <trkpt lat="46.95731" lon="-0.61184">
        <ele>152.8</ele>
        <time>2012-04-01T06:58:37Z</time>
      </trkpt>
      <trkpt lat="46.95725" lon="-0.6119">
        <ele>153</ele>
        <time>2012-04-01T06:58:39Z</time>
      </trkpt>
      <trkpt lat="46.95717" lon="-0.61194">
        <ele>153</ele>
        <time>2012-04-01T06:58:41Z</time>
      </trkpt>
      <trkpt lat="46.95712" lon="-0.61195">
        <ele>153</ele>
        <time>2012-04-01T06:58:42Z</time>
      </trkpt>
      <trkpt lat="46.95708" lon="-0.61195">
        <ele>153.1</ele>
        <time>2012-04-01T06:58:43Z</time>
      </trkpt>
      <trkpt lat="46.95699" lon="-0.61196">
        <ele>153.1</ele>
        <time>2012-04-01T06:58:45Z</time>
      </trkpt>
      <trkpt lat="46.95695" lon="-0.61197">
        <ele>153.1</ele>
        <time>2012-04-01T06:58:46Z</time>
      </trkpt>
      <trkpt lat="46.95687" lon="-0.61199">
        <ele>153.3</ele>
        <time>2012-04-01T06:58:48Z</time>
      </trkpt>
      <trkpt lat="46.95682" lon="-0.61201">
        <ele>153.3</ele>
        <time>2012-04-01T06:58:49Z</time>
      </trkpt>
      <trkpt lat="46.95677" lon="-0.61202">
        <ele>153.3</ele>
        <time>2012-04-01T06:58:50Z</time>
      </trkpt>
      <trkpt lat="46.95673" lon="-0.61202">
        <ele>153.3</ele>
        <time>2012-04-01T06:58:51Z</time>
      </trkpt>
      <trkpt lat="46.95668" lon="-0.61203">
        <ele>153.3</ele>
        <time>2012-04-01T06:58:52Z</time>
      </trkpt>
      <trkpt lat="46.95663" lon="-0.61203">
        <ele>153.3</ele>
        <time>2012-04-01T06:58:53Z</time>
      </trkpt>
      <trkpt lat="46.95658" lon="-0.61204">
        <ele>153.3</ele>
        <time>2012-04-01T06:58:54Z</time>
      </trkpt>
      <trkpt lat="46.95653" lon="-0.61204">
        <ele>153.3</ele>
        <time>2012-04-01T06:58:55Z</time>
      </trkpt>
      <trkpt lat="46.95648" lon="-0.61205">
        <ele>153.1</ele>
        <time>2012-04-01T06:58:56Z</time>
      </trkpt>
      <trkpt lat="46.95643" lon="-0.61205">
        <ele>153.1</ele>
        <time>2012-04-01T06:58:57Z</time>
      </trkpt>
      <trkpt lat="46.95638" lon="-0.61206">
        <ele>153.1</ele>
        <time>2012-04-01T06:58:58Z</time>
      </trkpt>
      <trkpt lat="46.95634" lon="-0.61206">
        <ele>153.1</ele>
        <time>2012-04-01T06:58:59Z</time>
      </trkpt>
      <trkpt lat="46.95629" lon="-0.61207">
        <ele>153.1</ele>
        <time>2012-04-01T06:59:00Z</time>
      </trkpt>
      <trkpt lat="46.95625" lon="-0.61208">
        <ele>153.1</ele>
        <time>2012-04-01T06:59:01Z</time>
      </trkpt>
      <trkpt lat="46.9562" lon="-0.6121">
        <ele>153.1</ele>
        <time>2012-04-01T06:59:02Z</time>
      </trkpt>
      <trkpt lat="46.95616" lon="-0.61214">
        <ele>153.1</ele>
        <time>2012-04-01T06:59:03Z</time>
      </trkpt>
      <trkpt lat="46.95611" lon="-0.61218">
        <ele>153.1</ele>
        <time>2012-04-01T06:59:04Z</time>
      </trkpt>
      <trkpt lat="46.95607" lon="-0.61224">
        <ele>153</ele>
        <time>2012-04-01T06:59:05Z</time>
      </trkpt>
      <trkpt lat="46.95603" lon="-0.61229">
        <ele>153</ele>
        <time>2012-04-01T06:59:06Z</time>
      </trkpt>
      <trkpt lat="46.95598" lon="-0.61235">
        <ele>153</ele>
        <time>2012-04-01T06:59:07Z</time>
      </trkpt>
      <trkpt lat="46.95593" lon="-0.61241">
        <ele>153</ele>
        <time>2012-04-01T06:59:08Z</time>
      </trkpt>
      <trkpt lat="46.95588" lon="-0.61246">
        <ele>153</ele>
        <time>2012-04-01T06:59:09Z</time>
      </trkpt>
      <trkpt lat="46.95582" lon="-0.6125">
        <ele>152.8</ele>
        <time>2012-04-01T06:59:10Z</time>
      </trkpt>
      <trkpt lat="46.95576" lon="-0.61255">
        <ele>152.8</ele>
        <time>2012-04-01T06:59:11Z</time>
      </trkpt>
      <trkpt lat="46.95571" lon="-0.61259">
        <ele>152.8</ele>
        <time>2012-04-01T06:59:12Z</time>
      </trkpt>
      <trkpt lat="46.95565" lon="-0.61262">
        <ele>152.6</ele>
        <time>2012-04-01T06:59:13Z</time>
      </trkpt>
      <trkpt lat="46.95559" lon="-0.61266">
        <ele>152.6</ele>
        <time>2012-04-01T06:59:14Z</time>
      </trkpt>
      <trkpt lat="46.95553" lon="-0.6127">
        <ele>152.6</ele>
        <time>2012-04-01T06:59:15Z</time>
      </trkpt>
      <trkpt lat="46.95547" lon="-0.61273">
        <ele>152.5</ele>
        <time>2012-04-01T06:59:16Z</time>
      </trkpt>
      <trkpt lat="46.95541" lon="-0.61277">
        <ele>152.3</ele>
        <time>2012-04-01T06:59:17Z</time>
      </trkpt>
      <trkpt lat="46.95535" lon="-0.6128">
        <ele>152.3</ele>
        <time>2012-04-01T06:59:18Z</time>
      </trkpt>
      <trkpt lat="46.95529" lon="-0.61283">
        <ele>152.1</ele>
        <time>2012-04-01T06:59:19Z</time>
      </trkpt>
      <trkpt lat="46.95522" lon="-0.61287">
        <ele>152</ele>
        <time>2012-04-01T06:59:20Z</time>
      </trkpt>
      <trkpt lat="46.95516" lon="-0.61291">
        <ele>151.8</ele>
        <time>2012-04-01T06:59:21Z</time>
      </trkpt>
      <trkpt lat="46.95509" lon="-0.61294">
        <ele>151.6</ele>
        <time>2012-04-01T06:59:22Z</time>
      </trkpt>
      <trkpt lat="46.95503" lon="-0.61298">
        <ele>151.6</ele>
        <time>2012-04-01T06:59:23Z</time>
      </trkpt>
      <trkpt lat="46.95497" lon="-0.61302">
        <ele>151.3</ele>
        <time>2012-04-01T06:59:24Z</time>
      </trkpt>
      <trkpt lat="46.95491" lon="-0.61305">
        <ele>151.1</ele>
        <time>2012-04-01T06:59:25Z</time>
      </trkpt>
      <trkpt lat="46.95485" lon="-0.61309">
        <ele>151.1</ele>
        <time>2012-04-01T06:59:26Z</time>
      </trkpt>
      <trkpt lat="46.9548" lon="-0.61312">
        <ele>151</ele>
        <time>2012-04-01T06:59:27Z</time>
      </trkpt>
      <trkpt lat="46.95475" lon="-0.61316">
        <ele>150.8</ele>
        <time>2012-04-01T06:59:28Z</time>
      </trkpt>
      <trkpt lat="46.9547" lon="-0.61319">
        <ele>150.6</ele>
        <time>2012-04-01T06:59:29Z</time>
      </trkpt>
      <trkpt lat="46.95465" lon="-0.61322">
        <ele>150.3</ele>
        <time>2012-04-01T06:59:30Z</time>
      </trkpt>
      <trkpt lat="46.95459" lon="-0.61324">
        <ele>150.1</ele>
        <time>2012-04-01T06:59:31Z</time>
      </trkpt>
      <trkpt lat="46.95454" lon="-0.61327">
        <ele>150</ele>
        <time>2012-04-01T06:59:32Z</time>
      </trkpt>
      <trkpt lat="46.95449" lon="-0.61329">
        <ele>149.8</ele>
        <time>2012-04-01T06:59:33Z</time>
      </trkpt>
      <trkpt lat="46.95443" lon="-0.61332">
        <ele>149.8</ele>
        <time>2012-04-01T06:59:34Z</time>
      </trkpt>
      <trkpt lat="46.95437" lon="-0.61334">
        <ele>149.6</ele>
        <time>2012-04-01T06:59:35Z</time>
      </trkpt>
      <trkpt lat="46.95431" lon="-0.61337">
        <ele>149.3</ele>
        <time>2012-04-01T06:59:36Z</time>
      </trkpt>
      <trkpt lat="46.95426" lon="-0.61339">
        <ele>149.1</ele>
        <time>2012-04-01T06:59:37Z</time>
      </trkpt>
      <trkpt lat="46.95421" lon="-0.61342">
        <ele>149.1</ele>
        <time>2012-04-01T06:59:38Z</time>
      </trkpt>
      <trkpt lat="46.95416" lon="-0.61345">
        <ele>148.8</ele>
        <time>2012-04-01T06:59:39Z</time>
      </trkpt>
      <trkpt lat="46.95411" lon="-0.61347">
        <ele>148.6</ele>
        <time>2012-04-01T06:59:40Z</time>
      </trkpt>
      <trkpt lat="46.95403" lon="-0.6135">
        <ele>148.1</ele>
        <time>2012-04-01T06:59:42Z</time>
      </trkpt>
      <trkpt lat="46.95397" lon="-0.61358">
        <ele>147.8</ele>
        <time>2012-04-01T06:59:44Z</time>
      </trkpt>
      <trkpt lat="46.95394" lon="-0.61365">
        <ele>147.6</ele>
        <time>2012-04-01T06:59:45Z</time>
      </trkpt>
      <trkpt lat="46.95392" lon="-0.61372">
        <ele>147.5</ele>
        <time>2012-04-01T06:59:46Z</time>
      </trkpt>
      <trkpt lat="46.9539" lon="-0.6138">
        <ele>147.3</ele>
        <time>2012-04-01T06:59:47Z</time>
      </trkpt>
      <trkpt lat="46.95388" lon="-0.61388">
        <ele>147.1</ele>
        <time>2012-04-01T06:59:48Z</time>
      </trkpt>
      <trkpt lat="46.95386" lon="-0.61396">
        <ele>147.1</ele>
        <time>2012-04-01T06:59:49Z</time>
      </trkpt>
      <trkpt lat="46.95384" lon="-0.61404">
        <ele>147</ele>
        <time>2012-04-01T06:59:50Z</time>
      </trkpt>
      <trkpt lat="46.95382" lon="-0.61412">
        <ele>146.8</ele>
        <time>2012-04-01T06:59:51Z</time>
      </trkpt>
      <trkpt lat="46.95381" lon="-0.6142">
        <ele>146.8</ele>
        <time>2012-04-01T06:59:52Z</time>
      </trkpt>
      <trkpt lat="46.95379" lon="-0.61428">
        <ele>146.6</ele>
        <time>2012-04-01T06:59:53Z</time>
      </trkpt>
      <trkpt lat="46.95378" lon="-0.61435">
        <ele>146.6</ele>
        <time>2012-04-01T06:59:54Z</time>
      </trkpt>
      <trkpt lat="46.95376" lon="-0.61443">
        <ele>146.6</ele>
        <time>2012-04-01T06:59:55Z</time>
      </trkpt>
      <trkpt lat="46.95375" lon="-0.6145">
        <ele>146.6</ele>
        <time>2012-04-01T06:59:56Z</time>
      </trkpt>
      <trkpt lat="46.95374" lon="-0.61457">
        <ele>146.6</ele>
        <time>2012-04-01T06:59:57Z</time>
      </trkpt>
      <trkpt lat="46.95373" lon="-0.61464">
        <ele>146.6</ele>
        <time>2012-04-01T06:59:58Z</time>
      </trkpt>
      <trkpt lat="46.95373" lon="-0.61471">
        <ele>146.6</ele>
        <time>2012-04-01T06:59:59Z</time>
      </trkpt>
      <trkpt lat="46.95372" lon="-0.61479">
        <ele>146.6</ele>
        <time>2012-04-01T07:00:00Z</time>
      </trkpt>
      <trkpt lat="46.95371" lon="-0.61486">
        <ele>146.6</ele>
        <time>2012-04-01T07:00:01Z</time>
      </trkpt>
      <trkpt lat="46.95371" lon="-0.61493">
        <ele>146.6</ele>
        <time>2012-04-01T07:00:02Z</time>
      </trkpt>
      <trkpt lat="46.95371" lon="-0.615">
        <ele>146.6</ele>
        <time>2012-04-01T07:00:03Z</time>
      </trkpt>
      <trkpt lat="46.95371" lon="-0.61507">
        <ele>146.6</ele>
        <time>2012-04-01T07:00:04Z</time>
      </trkpt>
      <trkpt lat="46.9537" lon="-0.61514">
        <ele>146.8</ele>
        <time>2012-04-01T07:00:05Z</time>
      </trkpt>
      <trkpt lat="46.9537" lon="-0.61521">
        <ele>146.8</ele>
        <time>2012-04-01T07:00:06Z</time>
      </trkpt>
      <trkpt lat="46.9537" lon="-0.61528">
        <ele>146.8</ele>
        <time>2012-04-01T07:00:07Z</time>
      </trkpt>
      <trkpt lat="46.9537" lon="-0.61535">
        <ele>146.8</ele>
        <time>2012-04-01T07:00:08Z</time>
      </trkpt>
      <trkpt lat="46.9537" lon="-0.61542">
        <ele>146.6</ele>
        <time>2012-04-01T07:00:09Z</time>
      </trkpt>
      <trkpt lat="46.9537" lon="-0.61549">
        <ele>146.6</ele>
        <time>2012-04-01T07:00:10Z</time>
      </trkpt>
      <trkpt lat="46.9537" lon="-0.61557">
        <ele>146.6</ele>
        <time>2012-04-01T07:00:11Z</time>
      </trkpt>
      <trkpt lat="46.9537" lon="-0.61564">
        <ele>146.6</ele>
        <time>2012-04-01T07:00:12Z</time>
      </trkpt>
      <trkpt lat="46.9537" lon="-0.61571">
        <ele>146.6</ele>
        <time>2012-04-01T07:00:13Z</time>
      </trkpt>
      <trkpt lat="46.95369" lon="-0.61578">
        <ele>146.5</ele>
        <time>2012-04-01T07:00:14Z</time>
      </trkpt>
      <trkpt lat="46.95369" lon="-0.61585">
        <ele>146.5</ele>
        <time>2012-04-01T07:00:15Z</time>
      </trkpt>
      <trkpt lat="46.95368" lon="-0.61598">
        <ele>146.5</ele>
        <time>2012-04-01T07:00:17Z</time>
      </trkpt>
      <trkpt lat="46.95367" lon="-0.61605">
        <ele>146.3</ele>
        <time>2012-04-01T07:00:18Z</time>
      </trkpt>
      <trkpt lat="46.95365" lon="-0.61612">
        <ele>146.3</ele>
        <time>2012-04-01T07:00:19Z</time>
      </trkpt>
      <trkpt lat="46.95363" lon="-0.6162">
        <ele>146.3</ele>
        <time>2012-04-01T07:00:20Z</time>
      </trkpt>
      <trkpt lat="46.95361" lon="-0.61627">
        <ele>146.3</ele>
        <time>2012-04-01T07:00:21Z</time>
      </trkpt>
      <trkpt lat="46.95359" lon="-0.61635">
        <ele>146.3</ele>
        <time>2012-04-01T07:00:22Z</time>
      </trkpt>
      <trkpt lat="46.95356" lon="-0.61643">
        <ele>146.1</ele>
        <time>2012-04-01T07:00:23Z</time>
      </trkpt>
      <trkpt lat="46.95353" lon="-0.61651">
        <ele>146.1</ele>
        <time>2012-04-01T07:00:24Z</time>
      </trkpt>
      <trkpt lat="46.9535" lon="-0.61659">
        <ele>146.1</ele>
        <time>2012-04-01T07:00:25Z</time>
      </trkpt>
      <trkpt lat="46.95347" lon="-0.61668">
        <ele>146</ele>
        <time>2012-04-01T07:00:26Z</time>
      </trkpt>
      <trkpt lat="46.95343" lon="-0.61676">
        <ele>145.8</ele>
        <time>2012-04-01T07:00:27Z</time>
      </trkpt>
      <trkpt lat="46.95338" lon="-0.61684">
        <ele>145.8</ele>
        <time>2012-04-01T07:00:28Z</time>
      </trkpt>
      <trkpt lat="46.95334" lon="-0.61692">
        <ele>145.8</ele>
        <time>2012-04-01T07:00:29Z</time>
      </trkpt>
      <trkpt lat="46.95329" lon="-0.617">
        <ele>145.8</ele>
        <time>2012-04-01T07:00:30Z</time>
      </trkpt>
      <trkpt lat="46.95324" lon="-0.61708">
        <ele>145.6</ele>
        <time>2012-04-01T07:00:31Z</time>
      </trkpt>
      <trkpt lat="46.95319" lon="-0.61715">
        <ele>145.6</ele>
        <time>2012-04-01T07:00:32Z</time>
      </trkpt>
      <trkpt lat="46.95313" lon="-0.61723">
        <ele>145.6</ele>
        <time>2012-04-01T07:00:33Z</time>
      </trkpt>
      <trkpt lat="46.95308" lon="-0.61731">
        <ele>145.5</ele>
        <time>2012-04-01T07:00:34Z</time>
      </trkpt>
      <trkpt lat="46.95302" lon="-0.61739">
        <ele>145.5</ele>
        <time>2012-04-01T07:00:35Z</time>
      </trkpt>
      <trkpt lat="46.95297" lon="-0.61747">
        <ele>145.5</ele>
        <time>2012-04-01T07:00:36Z</time>
      </trkpt>
      <trkpt lat="46.95291" lon="-0.61755">
        <ele>145.3</ele>
        <time>2012-04-01T07:00:37Z</time>
      </trkpt>
      <trkpt lat="46.95285" lon="-0.61763">
        <ele>145.3</ele>
        <time>2012-04-01T07:00:38Z</time>
      </trkpt>
      <trkpt lat="46.9528" lon="-0.61771">
        <ele>145.3</ele>
        <time>2012-04-01T07:00:39Z</time>
      </trkpt>
      <trkpt lat="46.95274" lon="-0.6178">
        <ele>145.3</ele>
        <time>2012-04-01T07:00:40Z</time>
      </trkpt>
      <trkpt lat="46.95269" lon="-0.61789">
        <ele>145.1</ele>
        <time>2012-04-01T07:00:41Z</time>
      </trkpt>
      <trkpt lat="46.95264" lon="-0.61798">
        <ele>145.1</ele>
        <time>2012-04-01T07:00:42Z</time>
      </trkpt>
      <trkpt lat="46.9526" lon="-0.61807">
        <ele>145</ele>
        <time>2012-04-01T07:00:43Z</time>
      </trkpt>
      <trkpt lat="46.95255" lon="-0.61817">
        <ele>144.8</ele>
        <time>2012-04-01T07:00:44Z</time>
      </trkpt>
      <trkpt lat="46.95252" lon="-0.61825">
        <ele>144.8</ele>
        <time>2012-04-01T07:00:45Z</time>
      </trkpt>
      <trkpt lat="46.95248" lon="-0.61834">
        <ele>144.6</ele>
        <time>2012-04-01T07:00:46Z</time>
      </trkpt>
      <trkpt lat="46.95245" lon="-0.61843">
        <ele>144.6</ele>
        <time>2012-04-01T07:00:47Z</time>
      </trkpt>
      <trkpt lat="46.95242" lon="-0.61851">
        <ele>144.5</ele>
        <time>2012-04-01T07:00:48Z</time>
      </trkpt>
      <trkpt lat="46.9524" lon="-0.6186">
        <ele>144.3</ele>
        <time>2012-04-01T07:00:49Z</time>
      </trkpt>
      <trkpt lat="46.95237" lon="-0.61868">
        <ele>144.3</ele>
        <time>2012-04-01T07:00:50Z</time>
      </trkpt>
      <trkpt lat="46.95234" lon="-0.61877">
        <ele>144.1</ele>
        <time>2012-04-01T07:00:51Z</time>
      </trkpt>
      <trkpt lat="46.95232" lon="-0.61884">
        <ele>144.1</ele>
        <time>2012-04-01T07:00:52Z</time>
      </trkpt>
      <trkpt lat="46.95229" lon="-0.61892">
        <ele>144</ele>
        <time>2012-04-01T07:00:53Z</time>
      </trkpt>
      <trkpt lat="46.95227" lon="-0.61899">
        <ele>143.8</ele>
        <time>2012-04-01T07:00:54Z</time>
      </trkpt>
      <trkpt lat="46.95225" lon="-0.61907">
        <ele>143.8</ele>
        <time>2012-04-01T07:00:55Z</time>
      </trkpt>
      <trkpt lat="46.95222" lon="-0.61914">
        <ele>143.6</ele>
        <time>2012-04-01T07:00:56Z</time>
      </trkpt>
      <trkpt lat="46.95219" lon="-0.61922">
        <ele>143.6</ele>
        <time>2012-04-01T07:00:57Z</time>
      </trkpt>
      <trkpt lat="46.95217" lon="-0.6193">
        <ele>143.5</ele>
        <time>2012-04-01T07:00:58Z</time>
      </trkpt>
      <trkpt lat="46.95214" lon="-0.61937">
        <ele>143.3</ele>
        <time>2012-04-01T07:00:59Z</time>
      </trkpt>
      <trkpt lat="46.95212" lon="-0.61945">
        <ele>143.3</ele>
        <time>2012-04-01T07:01:00Z</time>
      </trkpt>
      <trkpt lat="46.95209" lon="-0.61952">
        <ele>143.3</ele>
        <time>2012-04-01T07:01:01Z</time>
      </trkpt>
      <trkpt lat="46.95207" lon="-0.6196">
        <ele>143.3</ele>
        <time>2012-04-01T07:01:02Z</time>
      </trkpt>
      <trkpt lat="46.95205" lon="-0.61968">
        <ele>143.3</ele>
        <time>2012-04-01T07:01:03Z</time>
      </trkpt>
      <trkpt lat="46.95203" lon="-0.61976">
        <ele>143.1</ele>
        <time>2012-04-01T07:01:04Z</time>
      </trkpt>
      <trkpt lat="46.95201" lon="-0.61984">
        <ele>143.1</ele>
        <time>2012-04-01T07:01:05Z</time>
      </trkpt>
      <trkpt lat="46.952" lon="-0.61991">
        <ele>143.1</ele>
        <time>2012-04-01T07:01:06Z</time>
      </trkpt>
      <trkpt lat="46.95199" lon="-0.61998">
        <ele>143.1</ele>
        <time>2012-04-01T07:01:07Z</time>
      </trkpt>
      <trkpt lat="46.95197" lon="-0.62005">
        <ele>143.1</ele>
        <time>2012-04-01T07:01:08Z</time>
      </trkpt>
      <trkpt lat="46.95196" lon="-0.62013">
        <ele>143.1</ele>
        <time>2012-04-01T07:01:09Z</time>
      </trkpt>
      <trkpt lat="46.95195" lon="-0.6202">
        <ele>143.1</ele>
        <time>2012-04-01T07:01:10Z</time>
      </trkpt>
      <trkpt lat="46.95193" lon="-0.62027">
        <ele>143</ele>
        <time>2012-04-01T07:01:11Z</time>
      </trkpt>
      <trkpt lat="46.95192" lon="-0.62035">
        <ele>143</ele>
        <time>2012-04-01T07:01:12Z</time>
      </trkpt>
      <trkpt lat="46.95191" lon="-0.62042">
        <ele>143</ele>
        <time>2012-04-01T07:01:13Z</time>
      </trkpt>
      <trkpt lat="46.9519" lon="-0.6205">
        <ele>142.8</ele>
        <time>2012-04-01T07:01:14Z</time>
      </trkpt>
      <trkpt lat="46.95189" lon="-0.62057">
        <ele>142.8</ele>
        <time>2012-04-01T07:01:15Z</time>
      </trkpt>
      <trkpt lat="46.95187" lon="-0.62065">
        <ele>142.8</ele>
        <time>2012-04-01T07:01:16Z</time>
      </trkpt>
      <trkpt lat="46.95186" lon="-0.62073">
        <ele>142.8</ele>
        <time>2012-04-01T07:01:17Z</time>
      </trkpt>
      <trkpt lat="46.95185" lon="-0.6208">
        <ele>142.8</ele>
        <time>2012-04-01T07:01:18Z</time>
      </trkpt>
      <trkpt lat="46.95185" lon="-0.62088">
        <ele>142.6</ele>
        <time>2012-04-01T07:01:19Z</time>
      </trkpt>
      <trkpt lat="46.95184" lon="-0.62095">
        <ele>142.6</ele>
        <time>2012-04-01T07:01:20Z</time>
      </trkpt>
      <trkpt lat="46.95183" lon="-0.62103">
        <ele>142.6</ele>
        <time>2012-04-01T07:01:21Z</time>
      </trkpt>
      <trkpt lat="46.95183" lon="-0.6211">
        <ele>142.5</ele>
        <time>2012-04-01T07:01:22Z</time>
      </trkpt>
      <trkpt lat="46.95183" lon="-0.62118">
        <ele>142.5</ele>
        <time>2012-04-01T07:01:23Z</time>
      </trkpt>
      <trkpt lat="46.95183" lon="-0.62125">
        <ele>142.3</ele>
        <time>2012-04-01T07:01:24Z</time>
      </trkpt>
      <trkpt lat="46.95183" lon="-0.62133">
        <ele>142.3</ele>
        <time>2012-04-01T07:01:25Z</time>
      </trkpt>
      <trkpt lat="46.95183" lon="-0.6214">
        <ele>142.3</ele>
        <time>2012-04-01T07:01:26Z</time>
      </trkpt>
      <trkpt lat="46.95183" lon="-0.62147">
        <ele>142.3</ele>
        <time>2012-04-01T07:01:27Z</time>
      </trkpt>
      <trkpt lat="46.95183" lon="-0.62154">
        <ele>142.3</ele>
        <time>2012-04-01T07:01:28Z</time>
      </trkpt>
      <trkpt lat="46.95183" lon="-0.62161">
        <ele>142.3</ele>
        <time>2012-04-01T07:01:29Z</time>
      </trkpt>
      <trkpt lat="46.95183" lon="-0.62168">
        <ele>142.3</ele>
        <time>2012-04-01T07:01:30Z</time>
      </trkpt>
      <trkpt lat="46.95182" lon="-0.62175">
        <ele>142.3</ele>
        <time>2012-04-01T07:01:31Z</time>
      </trkpt>
      <trkpt lat="46.95182" lon="-0.62181">
        <ele>142.3</ele>
        <time>2012-04-01T07:01:32Z</time>
      </trkpt>
      <trkpt lat="46.95182" lon="-0.62188">
        <ele>142.3</ele>
        <time>2012-04-01T07:01:33Z</time>
      </trkpt>
      <trkpt lat="46.95181" lon="-0.62195">
        <ele>142.3</ele>
        <time>2012-04-01T07:01:34Z</time>
      </trkpt>
      <trkpt lat="46.9518" lon="-0.62208">
        <ele>142.3</ele>
        <time>2012-04-01T07:01:36Z</time>
      </trkpt>
      <trkpt lat="46.95177" lon="-0.6222">
        <ele>142.3</ele>
        <time>2012-04-01T07:01:38Z</time>
      </trkpt>
      <trkpt lat="46.95176" lon="-0.62227">
        <ele>142.3</ele>
        <time>2012-04-01T07:01:39Z</time>
      </trkpt>
      <trkpt lat="46.95174" lon="-0.62233">
        <ele>142.3</ele>
        <time>2012-04-01T07:01:40Z</time>
      </trkpt>
      <trkpt lat="46.95172" lon="-0.62239">
        <ele>142.3</ele>
        <time>2012-04-01T07:01:41Z</time>
      </trkpt>
      <trkpt lat="46.9517" lon="-0.62246">
        <ele>142.3</ele>
        <time>2012-04-01T07:01:42Z</time>
      </trkpt>
      <trkpt lat="46.95168" lon="-0.62252">
        <ele>142.3</ele>
        <time>2012-04-01T07:01:43Z</time>
      </trkpt>
      <trkpt lat="46.95165" lon="-0.62258">
        <ele>142.3</ele>
        <time>2012-04-01T07:01:44Z</time>
      </trkpt>
      <trkpt lat="46.95163" lon="-0.62264">
        <ele>142.1</ele>
        <time>2012-04-01T07:01:45Z</time>
      </trkpt>
      <trkpt lat="46.9516" lon="-0.62269">
        <ele>142.1</ele>
        <time>2012-04-01T07:01:46Z</time>
      </trkpt>
      <trkpt lat="46.95158" lon="-0.62275">
        <ele>142.1</ele>
        <time>2012-04-01T07:01:47Z</time>
      </trkpt>
      <trkpt lat="46.95156" lon="-0.62281">
        <ele>142.1</ele>
        <time>2012-04-01T07:01:48Z</time>
      </trkpt>
      <trkpt lat="46.95154" lon="-0.62287">
        <ele>142</ele>
        <time>2012-04-01T07:01:49Z</time>
      </trkpt>
      <trkpt lat="46.95152" lon="-0.62293">
        <ele>142</ele>
        <time>2012-04-01T07:01:50Z</time>
      </trkpt>
      <trkpt lat="46.9515" lon="-0.62299">
        <ele>142</ele>
        <time>2012-04-01T07:01:51Z</time>
      </trkpt>
      <trkpt lat="46.95145" lon="-0.6231">
        <ele>142</ele>
        <time>2012-04-01T07:01:53Z</time>
      </trkpt>
      <trkpt lat="46.95141" lon="-0.62322">
        <ele>142</ele>
        <time>2012-04-01T07:01:55Z</time>
      </trkpt>
      <trkpt lat="46.95139" lon="-0.62327">
        <ele>142</ele>
        <time>2012-04-01T07:01:56Z</time>
      </trkpt>
      <trkpt lat="46.95137" lon="-0.62333">
        <ele>141.8</ele>
        <time>2012-04-01T07:01:57Z</time>
      </trkpt>
      <trkpt lat="46.95134" lon="-0.6234">
        <ele>141.8</ele>
        <time>2012-04-01T07:01:58Z</time>
      </trkpt>
      <trkpt lat="46.95132" lon="-0.62346">
        <ele>141.8</ele>
        <time>2012-04-01T07:01:59Z</time>
      </trkpt>
      <trkpt lat="46.9513" lon="-0.62353">
        <ele>141.8</ele>
        <time>2012-04-01T07:02:00Z</time>
      </trkpt>
      <trkpt lat="46.95127" lon="-0.6236">
        <ele>141.8</ele>
        <time>2012-04-01T07:02:01Z</time>
      </trkpt>
      <trkpt lat="46.95124" lon="-0.62368">
        <ele>141.8</ele>
        <time>2012-04-01T07:02:02Z</time>
      </trkpt>
      <trkpt lat="46.95122" lon="-0.62375">
        <ele>141.8</ele>
        <time>2012-04-01T07:02:03Z</time>
      </trkpt>
      <trkpt lat="46.95119" lon="-0.62383">
        <ele>141.8</ele>
        <time>2012-04-01T07:02:04Z</time>
      </trkpt>
      <trkpt lat="46.95116" lon="-0.62391">
        <ele>141.8</ele>
        <time>2012-04-01T07:02:05Z</time>
      </trkpt>
      <trkpt lat="46.95112" lon="-0.62399">
        <ele>141.8</ele>
        <time>2012-04-01T07:02:06Z</time>
      </trkpt>
      <trkpt lat="46.95109" lon="-0.62408">
        <ele>142</ele>
        <time>2012-04-01T07:02:07Z</time>
      </trkpt>
      <trkpt lat="46.95104" lon="-0.62417">
        <ele>141.8</ele>
        <time>2012-04-01T07:02:08Z</time>
      </trkpt>
      <trkpt lat="46.95099" lon="-0.62426">
        <ele>141.8</ele>
        <time>2012-04-01T07:02:09Z</time>
      </trkpt>
      <trkpt lat="46.95093" lon="-0.62435">
        <ele>141.6</ele>
        <time>2012-04-01T07:02:10Z</time>
      </trkpt>
      <trkpt lat="46.95086" lon="-0.62444">
        <ele>141.6</ele>
        <time>2012-04-01T07:02:11Z</time>
      </trkpt>
      <trkpt lat="46.9508" lon="-0.62453">
        <ele>141.5</ele>
        <time>2012-04-01T07:02:12Z</time>
      </trkpt>
      <trkpt lat="46.95073" lon="-0.62461">
        <ele>141.3</ele>
        <time>2012-04-01T07:02:13Z</time>
      </trkpt>
      <trkpt lat="46.95068" lon="-0.62472">
        <ele>141.3</ele>
        <time>2012-04-01T07:02:14Z</time>
      </trkpt>
      <trkpt lat="46.95066" lon="-0.62485">
        <ele>141.1</ele>
        <time>2012-04-01T07:02:15Z</time>
      </trkpt>
      <trkpt lat="46.95066" lon="-0.62499">
        <ele>140.8</ele>
        <time>2012-04-01T07:02:16Z</time>
      </trkpt>
      <trkpt lat="46.95067" lon="-0.62513">
        <ele>140.6</ele>
        <time>2012-04-01T07:02:17Z</time>
      </trkpt>
      <trkpt lat="46.95071" lon="-0.62527">
        <ele>140.5</ele>
        <time>2012-04-01T07:02:18Z</time>
      </trkpt>
      <trkpt lat="46.95074" lon="-0.62541">
        <ele>140.3</ele>
        <time>2012-04-01T07:02:19Z</time>
      </trkpt>
      <trkpt lat="46.95078" lon="-0.62555">
        <ele>140.1</ele>
        <time>2012-04-01T07:02:20Z</time>
      </trkpt>
      <trkpt lat="46.95082" lon="-0.6257">
        <ele>139.8</ele>
        <time>2012-04-01T07:02:21Z</time>
      </trkpt>
      <trkpt lat="46.95083" lon="-0.62586">
        <ele>139.8</ele>
        <time>2012-04-01T07:02:22Z</time>
      </trkpt>
      <trkpt lat="46.95084" lon="-0.62602">
        <ele>139.6</ele>
        <time>2012-04-01T07:02:23Z</time>
      </trkpt>
      <trkpt lat="46.95082" lon="-0.62619">
        <ele>139.3</ele>
        <time>2012-04-01T07:02:24Z</time>
      </trkpt>
      <trkpt lat="46.9508" lon="-0.62637">
        <ele>139.3</ele>
        <time>2012-04-01T07:02:25Z</time>
      </trkpt>
      <trkpt lat="46.95077" lon="-0.62654">
        <ele>139.1</ele>
        <time>2012-04-01T07:02:26Z</time>
      </trkpt>
      <trkpt lat="46.95073" lon="-0.62672">
        <ele>139.1</ele>
        <time>2012-04-01T07:02:27Z</time>
      </trkpt>
      <trkpt lat="46.9507" lon="-0.62689">
        <ele>139</ele>
        <time>2012-04-01T07:02:28Z</time>
      </trkpt>
      <trkpt lat="46.95068" lon="-0.62708">
        <ele>138.8</ele>
        <time>2012-04-01T07:02:29Z</time>
      </trkpt>
      <trkpt lat="46.95066" lon="-0.62726">
        <ele>138.6</ele>
        <time>2012-04-01T07:02:30Z</time>
      </trkpt>
      <trkpt lat="46.95066" lon="-0.62744">
        <ele>138.5</ele>
        <time>2012-04-01T07:02:31Z</time>
      </trkpt>
      <trkpt lat="46.95066" lon="-0.62762">
        <ele>138.3</ele>
        <time>2012-04-01T07:02:32Z</time>
      </trkpt>
      <trkpt lat="46.95068" lon="-0.62779">
        <ele>138.1</ele>
        <time>2012-04-01T07:02:33Z</time>
      </trkpt>
      <trkpt lat="46.95071" lon="-0.62796">
        <ele>137.8</ele>
        <time>2012-04-01T07:02:34Z</time>
      </trkpt>
      <trkpt lat="46.95074" lon="-0.62811">
        <ele>137.6</ele>
        <time>2012-04-01T07:02:35Z</time>
      </trkpt>
      <trkpt lat="46.95078" lon="-0.62825">
        <ele>137.3</ele>
        <time>2012-04-01T07:02:36Z</time>
      </trkpt>
      <trkpt lat="46.95082" lon="-0.62838">
        <ele>137.1</ele>
        <time>2012-04-01T07:02:37Z</time>
      </trkpt>
      <trkpt lat="46.95086" lon="-0.6285">
        <ele>136.6</ele>
        <time>2012-04-01T07:02:38Z</time>
      </trkpt>
      <trkpt lat="46.9509" lon="-0.62861">
        <ele>136.3</ele>
        <time>2012-04-01T07:02:39Z</time>
      </trkpt>
      <trkpt lat="46.95094" lon="-0.62871">
        <ele>135.8</ele>
        <time>2012-04-01T07:02:40Z</time>
      </trkpt>
      <trkpt lat="46.95097" lon="-0.6288">
        <ele>135.3</ele>
        <time>2012-04-01T07:02:41Z</time>
      </trkpt>
      <trkpt lat="46.951" lon="-0.62888">
        <ele>135</ele>
        <time>2012-04-01T07:02:42Z</time>
      </trkpt>
      <trkpt lat="46.95103" lon="-0.62896">
        <ele>134.6</ele>
        <time>2012-04-01T07:02:43Z</time>
      </trkpt>
      <trkpt lat="46.95105" lon="-0.62904">
        <ele>134.1</ele>
        <time>2012-04-01T07:02:44Z</time>
      </trkpt>
      <trkpt lat="46.95107" lon="-0.62911">
        <ele>133.8</ele>
        <time>2012-04-01T07:02:45Z</time>
      </trkpt>
      <trkpt lat="46.95109" lon="-0.62918">
        <ele>133.5</ele>
        <time>2012-04-01T07:02:46Z</time>
      </trkpt>
      <trkpt lat="46.95111" lon="-0.62925">
        <ele>133.1</ele>
        <time>2012-04-01T07:02:47Z</time>
      </trkpt>
      <trkpt lat="46.95113" lon="-0.62932">
        <ele>132.8</ele>
        <time>2012-04-01T07:02:48Z</time>
      </trkpt>
      <trkpt lat="46.95115" lon="-0.62938">
        <ele>132.3</ele>
        <time>2012-04-01T07:02:49Z</time>
      </trkpt>
      <trkpt lat="46.95117" lon="-0.62945">
        <ele>132.1</ele>
        <time>2012-04-01T07:02:50Z</time>
      </trkpt>
      <trkpt lat="46.95119" lon="-0.62951">
        <ele>131.8</ele>
        <time>2012-04-01T07:02:51Z</time>
      </trkpt>
      <trkpt lat="46.95121" lon="-0.62957">
        <ele>131.6</ele>
        <time>2012-04-01T07:02:52Z</time>
      </trkpt>
      <trkpt lat="46.95123" lon="-0.62962">
        <ele>131.3</ele>
        <time>2012-04-01T07:02:53Z</time>
      </trkpt>
      <trkpt lat="46.95126" lon="-0.62968">
        <ele>131.1</ele>
        <time>2012-04-01T07:02:54Z</time>
      </trkpt>
      <trkpt lat="46.95129" lon="-0.62974">
        <ele>130.8</ele>
        <time>2012-04-01T07:02:55Z</time>
      </trkpt>
      <trkpt lat="46.95131" lon="-0.62979">
        <ele>130.8</ele>
        <time>2012-04-01T07:02:56Z</time>
      </trkpt>
      <trkpt lat="46.95137" lon="-0.6299">
        <ele>130.6</ele>
        <time>2012-04-01T07:02:58Z</time>
      </trkpt>
      <trkpt lat="46.95142" lon="-0.63">
        <ele>130.3</ele>
        <time>2012-04-01T07:03:00Z</time>
      </trkpt>
      <trkpt lat="46.95147" lon="-0.6301">
        <ele>130.1</ele>
        <time>2012-04-01T07:03:02Z</time>
      </trkpt>
      <trkpt lat="46.95153" lon="-0.6302">
        <ele>130.1</ele>
        <time>2012-04-01T07:03:04Z</time>
      </trkpt>
      <trkpt lat="46.95158" lon="-0.6303">
        <ele>129.8</ele>
        <time>2012-04-01T07:03:06Z</time>
      </trkpt>
      <trkpt lat="46.95164" lon="-0.63038">
        <ele>129.8</ele>
        <time>2012-04-01T07:03:08Z</time>
      </trkpt>
      <trkpt lat="46.95168" lon="-0.63042">
        <ele>129.6</ele>
        <time>2012-04-01T07:03:09Z</time>
      </trkpt>
      <trkpt lat="46.95173" lon="-0.63044">
        <ele>129.6</ele>
        <time>2012-04-01T07:03:10Z</time>
      </trkpt>
      <trkpt lat="46.95178" lon="-0.63045">
        <ele>129.5</ele>
        <time>2012-04-01T07:03:11Z</time>
      </trkpt>
      <trkpt lat="46.95183" lon="-0.63045">
        <ele>129.5</ele>
        <time>2012-04-01T07:03:12Z</time>
      </trkpt>
      <trkpt lat="46.95188" lon="-0.63043">
        <ele>129.3</ele>
        <time>2012-04-01T07:03:13Z</time>
      </trkpt>
      <trkpt lat="46.95192" lon="-0.63041">
        <ele>129.3</ele>
        <time>2012-04-01T07:03:14Z</time>
      </trkpt>
      <trkpt lat="46.95197" lon="-0.63038">
        <ele>129.3</ele>
        <time>2012-04-01T07:03:15Z</time>
      </trkpt>
      <trkpt lat="46.95201" lon="-0.63035">
        <ele>129.1</ele>
        <time>2012-04-01T07:03:16Z</time>
      </trkpt>
      <trkpt lat="46.95206" lon="-0.63032">
        <ele>129.1</ele>
        <time>2012-04-01T07:03:17Z</time>
      </trkpt>
      <trkpt lat="46.9521" lon="-0.63029">
        <ele>129.1</ele>
        <time>2012-04-01T07:03:18Z</time>
      </trkpt>
      <trkpt lat="46.95214" lon="-0.63026">
        <ele>129.1</ele>
        <time>2012-04-01T07:03:19Z</time>
      </trkpt>
      <trkpt lat="46.95218" lon="-0.63023">
        <ele>129.1</ele>
        <time>2012-04-01T07:03:20Z</time>
      </trkpt>
      <trkpt lat="46.95222" lon="-0.6302">
        <ele>129.1</ele>
        <time>2012-04-01T07:03:21Z</time>
      </trkpt>
      <trkpt lat="46.95227" lon="-0.63017">
        <ele>129</ele>
        <time>2012-04-01T07:03:22Z</time>
      </trkpt>
      <trkpt lat="46.95231" lon="-0.63013">
        <ele>129</ele>
        <time>2012-04-01T07:03:23Z</time>
      </trkpt>
      <trkpt lat="46.95236" lon="-0.63011">
        <ele>128.8</ele>
        <time>2012-04-01T07:03:24Z</time>
      </trkpt>
      <trkpt lat="46.9524" lon="-0.63008">
        <ele>128.8</ele>
        <time>2012-04-01T07:03:25Z</time>
      </trkpt>
      <trkpt lat="46.95245" lon="-0.63006">
        <ele>128.8</ele>
        <time>2012-04-01T07:03:26Z</time>
      </trkpt>
      <trkpt lat="46.9525" lon="-0.63004">
        <ele>128.6</ele>
        <time>2012-04-01T07:03:27Z</time>
      </trkpt>
      <trkpt lat="46.95254" lon="-0.63002">
        <ele>128.6</ele>
        <time>2012-04-01T07:03:28Z</time>
      </trkpt>
      <trkpt lat="46.95259" lon="-0.63001">
        <ele>128.6</ele>
        <time>2012-04-01T07:03:29Z</time>
      </trkpt>
      <trkpt lat="46.95264" lon="-0.62999">
        <ele>128.5</ele>
        <time>2012-04-01T07:03:30Z</time>
      </trkpt>
      <trkpt lat="46.95269" lon="-0.62998">
        <ele>128.5</ele>
        <time>2012-04-01T07:03:31Z</time>
      </trkpt>
      <trkpt lat="46.95274" lon="-0.62996">
        <ele>128.3</ele>
        <time>2012-04-01T07:03:32Z</time>
      </trkpt>
      <trkpt lat="46.95278" lon="-0.62995">
        <ele>128.3</ele>
        <time>2012-04-01T07:03:33Z</time>
      </trkpt>
      <trkpt lat="46.95283" lon="-0.62993">
        <ele>128.3</ele>
        <time>2012-04-01T07:03:34Z</time>
      </trkpt>
      <trkpt lat="46.95288" lon="-0.62992">
        <ele>128.3</ele>
        <time>2012-04-01T07:03:35Z</time>
      </trkpt>
      <trkpt lat="46.95297" lon="-0.62992">
        <ele>128.1</ele>
        <time>2012-04-01T07:03:37Z</time>
      </trkpt>
      <trkpt lat="46.95305" lon="-0.62994">
        <ele>128.1</ele>
        <time>2012-04-01T07:03:39Z</time>
      </trkpt>
      <trkpt lat="46.95313" lon="-0.62997">
        <ele>128</ele>
        <time>2012-04-01T07:03:41Z</time>
      </trkpt>
      <trkpt lat="46.9532" lon="-0.63004">
        <ele>128</ele>
        <time>2012-04-01T07:03:43Z</time>
      </trkpt>
      <trkpt lat="46.95325" lon="-0.63014">
        <ele>128</ele>
        <time>2012-04-01T07:03:45Z</time>
      </trkpt>
      <trkpt lat="46.95329" lon="-0.63024">
        <ele>128.1</ele>
        <time>2012-04-01T07:03:47Z</time>
      </trkpt>
      <trkpt lat="46.95333" lon="-0.63034">
        <ele>128.3</ele>
        <time>2012-04-01T07:03:49Z</time>
      </trkpt>
      <trkpt lat="46.95337" lon="-0.63043">
        <ele>128.6</ele>
        <time>2012-04-01T07:03:51Z</time>
      </trkpt>
      <trkpt lat="46.95339" lon="-0.63048">
        <ele>128.6</ele>
        <time>2012-04-01T07:03:52Z</time>
      </trkpt>
      <trkpt lat="46.95345" lon="-0.63062">
        <ele>128.6</ele>
        <time>2012-04-01T07:03:55Z</time>
      </trkpt>
      <trkpt lat="46.95349" lon="-0.63071">
        <ele>128.6</ele>
        <time>2012-04-01T07:03:57Z</time>
      </trkpt>
      <trkpt lat="46.95353" lon="-0.6308">
        <ele>128.6</ele>
        <time>2012-04-01T07:03:59Z</time>
      </trkpt>
      <trkpt lat="46.95358" lon="-0.63089">
        <ele>129</ele>
        <time>2012-04-01T07:04:01Z</time>
      </trkpt>
      <trkpt lat="46.95363" lon="-0.63097">
        <ele>129.3</ele>
        <time>2012-04-01T07:04:03Z</time>
      </trkpt>
      <trkpt lat="46.95368" lon="-0.63106">
        <ele>129.6</ele>
        <time>2012-04-01T07:04:05Z</time>
      </trkpt>
      <trkpt lat="46.95374" lon="-0.63115">
        <ele>129.8</ele>
        <time>2012-04-01T07:04:07Z</time>
      </trkpt>
      <trkpt lat="46.95379" lon="-0.63123">
        <ele>129.8</ele>
        <time>2012-04-01T07:04:09Z</time>
      </trkpt>
      <trkpt lat="46.95385" lon="-0.63131">
        <ele>130.1</ele>
        <time>2012-04-01T07:04:11Z</time>
      </trkpt>
      <trkpt lat="46.9539" lon="-0.63139">
        <ele>130.3</ele>
        <time>2012-04-01T07:04:13Z</time>
      </trkpt>
      <trkpt lat="46.95396" lon="-0.63147">
        <ele>130.6</ele>
        <time>2012-04-01T07:04:15Z</time>
      </trkpt>
      <trkpt lat="46.95401" lon="-0.63155">
        <ele>130.6</ele>
        <time>2012-04-01T07:04:17Z</time>
      </trkpt>
      <trkpt lat="46.95406" lon="-0.63162">
        <ele>130.6</ele>
        <time>2012-04-01T07:04:19Z</time>
      </trkpt>
      <trkpt lat="46.9541" lon="-0.63169">
        <ele>130.8</ele>
        <time>2012-04-01T07:04:21Z</time>
      </trkpt>
      <trkpt lat="46.95416" lon="-0.63179">
        <ele>130.8</ele>
        <time>2012-04-01T07:04:24Z</time>
      </trkpt>
      <trkpt lat="46.95423" lon="-0.63183">
        <ele>131</ele>
        <time>2012-04-01T07:04:27Z</time>
      </trkpt>
      <trkpt lat="46.95428" lon="-0.63185">
        <ele>131</ele>
        <time>2012-04-01T07:04:29Z</time>
      </trkpt>
      <trkpt lat="46.95433" lon="-0.63187">
        <ele>131.1</ele>
        <time>2012-04-01T07:04:30Z</time>
      </trkpt>
      <trkpt lat="46.95438" lon="-0.63189">
        <ele>131.1</ele>
        <time>2012-04-01T07:04:31Z</time>
      </trkpt>
      <trkpt lat="46.95444" lon="-0.63189">
        <ele>131.1</ele>
        <time>2012-04-01T07:04:32Z</time>
      </trkpt>
      <trkpt lat="46.95449" lon="-0.63186">
        <ele>131.1</ele>
        <time>2012-04-01T07:04:33Z</time>
      </trkpt>
      <trkpt lat="46.95455" lon="-0.63183">
        <ele>131.3</ele>
        <time>2012-04-01T07:04:34Z</time>
      </trkpt>
      <trkpt lat="46.9546" lon="-0.6318">
        <ele>131.3</ele>
        <time>2012-04-01T07:04:35Z</time>
      </trkpt>
      <trkpt lat="46.95464" lon="-0.63177">
        <ele>131.5</ele>
        <time>2012-04-01T07:04:36Z</time>
      </trkpt>
      <trkpt lat="46.95469" lon="-0.63173">
        <ele>131.6</ele>
        <time>2012-04-01T07:04:37Z</time>
      </trkpt>
      <trkpt lat="46.95473" lon="-0.63169">
        <ele>131.6</ele>
        <time>2012-04-01T07:04:38Z</time>
      </trkpt>
      <trkpt lat="46.95477" lon="-0.63164">
        <ele>131.6</ele>
        <time>2012-04-01T07:04:39Z</time>
      </trkpt>
      <trkpt lat="46.95481" lon="-0.63159">
        <ele>131.8</ele>
        <time>2012-04-01T07:04:40Z</time>
      </trkpt>
      <trkpt lat="46.95485" lon="-0.63156">
        <ele>131.8</ele>
        <time>2012-04-01T07:04:41Z</time>
      </trkpt>
      <trkpt lat="46.9549" lon="-0.63153">
        <ele>131.8</ele>
        <time>2012-04-01T07:04:42Z</time>
      </trkpt>
      <trkpt lat="46.95494" lon="-0.63151">
        <ele>131.8</ele>
        <time>2012-04-01T07:04:43Z</time>
      </trkpt>
      <trkpt lat="46.955" lon="-0.6315">
        <ele>131.8</ele>
        <time>2012-04-01T07:04:44Z</time>
      </trkpt>
      <trkpt lat="46.95505" lon="-0.63149">
        <ele>131.8</ele>
        <time>2012-04-01T07:04:45Z</time>
      </trkpt>
      <trkpt lat="46.95511" lon="-0.63149">
        <ele>131.6</ele>
        <time>2012-04-01T07:04:46Z</time>
      </trkpt>
      <trkpt lat="46.95517" lon="-0.63148">
        <ele>131.6</ele>
        <time>2012-04-01T07:04:47Z</time>
      </trkpt>
      <trkpt lat="46.95522" lon="-0.63149">
        <ele>131.3</ele>
        <time>2012-04-01T07:04:48Z</time>
      </trkpt>
      <trkpt lat="46.95529" lon="-0.63149">
        <ele>131.1</ele>
        <time>2012-04-01T07:04:50Z</time>
      </trkpt>
      <trkpt lat="46.95536" lon="-0.63151">
        <ele>131</ele>
        <time>2012-04-01T07:04:52Z</time>
      </trkpt>
      <trkpt lat="46.95539" lon="-0.63151">
        <ele>131</ele>
        <time>2012-04-01T07:04:53Z</time>
      </trkpt>
      <trkpt lat="46.95549" lon="-0.63152">
        <ele>130.8</ele>
        <time>2012-04-01T07:04:56Z</time>
      </trkpt>
      <trkpt lat="46.95556" lon="-0.63152">
        <ele>130.6</ele>
        <time>2012-04-01T07:04:59Z</time>
      </trkpt>
      <trkpt lat="46.95565" lon="-0.63153">
        <ele>130.5</ele>
        <time>2012-04-01T07:05:02Z</time>
      </trkpt>
      <trkpt lat="46.95573" lon="-0.63154">
        <ele>130.3</ele>
        <time>2012-04-01T07:05:05Z</time>
      </trkpt>
      <trkpt lat="46.95582" lon="-0.63156">
        <ele>130.1</ele>
        <time>2012-04-01T07:05:08Z</time>
      </trkpt>
      <trkpt lat="46.95588" lon="-0.63159">
        <ele>130.1</ele>
        <time>2012-04-01T07:05:10Z</time>
      </trkpt>
      <trkpt lat="46.95594" lon="-0.63162">
        <ele>130.1</ele>
        <time>2012-04-01T07:05:12Z</time>
      </trkpt>
      <trkpt lat="46.95601" lon="-0.63166">
        <ele>130.1</ele>
        <time>2012-04-01T07:05:14Z</time>
      </trkpt>
      <trkpt lat="46.95608" lon="-0.63169">
        <ele>130</ele>
        <time>2012-04-01T07:05:16Z</time>
      </trkpt>
      <trkpt lat="46.95615" lon="-0.63172">
        <ele>130</ele>
        <time>2012-04-01T07:05:18Z</time>
      </trkpt>
      <trkpt lat="46.95623" lon="-0.63176">
        <ele>129.8</ele>
        <time>2012-04-01T07:05:20Z</time>
      </trkpt>
      <trkpt lat="46.95631" lon="-0.63181">
        <ele>129.6</ele>
        <time>2012-04-01T07:05:22Z</time>
      </trkpt>
      <trkpt lat="46.95638" lon="-0.63185">
        <ele>129.5</ele>
        <time>2012-04-01T07:05:24Z</time>
      </trkpt>
      <trkpt lat="46.95646" lon="-0.63186">
        <ele>129.3</ele>
        <time>2012-04-01T07:05:26Z</time>
      </trkpt>
      <trkpt lat="46.95654" lon="-0.63186">
        <ele>129.3</ele>
        <time>2012-04-01T07:05:28Z</time>
      </trkpt>
      <trkpt lat="46.95661" lon="-0.63185">
        <ele>129.1</ele>
        <time>2012-04-01T07:05:30Z</time>
      </trkpt>
      <trkpt lat="46.95668" lon="-0.63181">
        <ele>129.1</ele>
        <time>2012-04-01T07:05:32Z</time>
      </trkpt>
      <trkpt lat="46.95675" lon="-0.63176">
        <ele>129</ele>
        <time>2012-04-01T07:05:34Z</time>
      </trkpt>
      <trkpt lat="46.95681" lon="-0.63169">
        <ele>128.8</ele>
        <time>2012-04-01T07:05:36Z</time>
      </trkpt>
      <trkpt lat="46.95686" lon="-0.63161">
        <ele>128.8</ele>
        <time>2012-04-01T07:05:38Z</time>
      </trkpt>
      <trkpt lat="46.95691" lon="-0.63152">
        <ele>128.8</ele>
        <time>2012-04-01T07:05:40Z</time>
      </trkpt>
      <trkpt lat="46.95695" lon="-0.63143">
        <ele>128.8</ele>
        <time>2012-04-01T07:05:42Z</time>
      </trkpt>
      <trkpt lat="46.957" lon="-0.63135">
        <ele>128.8</ele>
        <time>2012-04-01T07:05:44Z</time>
      </trkpt>
      <trkpt lat="46.95705" lon="-0.63126">
        <ele>128.8</ele>
        <time>2012-04-01T07:05:46Z</time>
      </trkpt>
      <trkpt lat="46.9571" lon="-0.63117">
        <ele>128.8</ele>
        <time>2012-04-01T07:05:48Z</time>
      </trkpt>
      <trkpt lat="46.95715" lon="-0.63109">
        <ele>128.8</ele>
        <time>2012-04-01T07:05:50Z</time>
      </trkpt>
      <trkpt lat="46.9572" lon="-0.63101">
        <ele>128.8</ele>
        <time>2012-04-01T07:05:52Z</time>
      </trkpt>
      <trkpt lat="46.95724" lon="-0.63093">
        <ele>128.8</ele>
        <time>2012-04-01T07:05:54Z</time>
      </trkpt>
      <trkpt lat="46.95726" lon="-0.6309">
        <ele>128.8</ele>
        <time>2012-04-01T07:05:55Z</time>
      </trkpt>
      <trkpt lat="46.95734" lon="-0.63079">
        <ele>129</ele>
        <time>2012-04-01T07:05:58Z</time>
      </trkpt>
      <trkpt lat="46.9574" lon="-0.6307">
        <ele>129</ele>
        <time>2012-04-01T07:06:01Z</time>
      </trkpt>
      <trkpt lat="46.95745" lon="-0.63064">
        <ele>128.8</ele>
        <time>2012-04-01T07:06:03Z</time>
      </trkpt>
      <trkpt lat="46.95749" lon="-0.63058">
        <ele>128.8</ele>
        <time>2012-04-01T07:06:05Z</time>
      </trkpt>
      <trkpt lat="46.95754" lon="-0.63052">
        <ele>128.8</ele>
        <time>2012-04-01T07:06:07Z</time>
      </trkpt>
      <trkpt lat="46.95759" lon="-0.63045">
        <ele>128.8</ele>
        <time>2012-04-01T07:06:09Z</time>
      </trkpt>
      <trkpt lat="46.95765" lon="-0.63038">
        <ele>128.8</ele>
        <time>2012-04-01T07:06:11Z</time>
      </trkpt>
      <trkpt lat="46.9577" lon="-0.6303">
        <ele>128.8</ele>
        <time>2012-04-01T07:06:13Z</time>
      </trkpt>
      <trkpt lat="46.95776" lon="-0.63021">
        <ele>128.8</ele>
        <time>2012-04-01T07:06:15Z</time>
      </trkpt>
      <trkpt lat="46.95783" lon="-0.63013">
        <ele>128.8</ele>
        <time>2012-04-01T07:06:17Z</time>
      </trkpt>
      <trkpt lat="46.95789" lon="-0.63006">
        <ele>128.8</ele>
        <time>2012-04-01T07:06:19Z</time>
      </trkpt>
      <trkpt lat="46.95796" lon="-0.62999">
        <ele>128.8</ele>
        <time>2012-04-01T07:06:21Z</time>
      </trkpt>
      <trkpt lat="46.95803" lon="-0.62993">
        <ele>129</ele>
        <time>2012-04-01T07:06:23Z</time>
      </trkpt>
      <trkpt lat="46.95809" lon="-0.62986">
        <ele>129</ele>
        <time>2012-04-01T07:06:25Z</time>
      </trkpt>
      <trkpt lat="46.95816" lon="-0.6298">
        <ele>129.1</ele>
        <time>2012-04-01T07:06:27Z</time>
      </trkpt>
      <trkpt lat="46.95823" lon="-0.62974">
        <ele>129.1</ele>
        <time>2012-04-01T07:06:29Z</time>
      </trkpt>
      <trkpt lat="46.95829" lon="-0.62968">
        <ele>129.1</ele>
        <time>2012-04-01T07:06:31Z</time>
      </trkpt>
      <trkpt lat="46.95836" lon="-0.62963">
        <ele>129.1</ele>
        <time>2012-04-01T07:06:33Z</time>
      </trkpt>
      <trkpt lat="46.95842" lon="-0.62958">
        <ele>129.1</ele>
        <time>2012-04-01T07:06:35Z</time>
      </trkpt>
      <trkpt lat="46.95849" lon="-0.62954">
        <ele>129.3</ele>
        <time>2012-04-01T07:06:37Z</time>
      </trkpt>
      <trkpt lat="46.95855" lon="-0.62949">
        <ele>129.3</ele>
        <time>2012-04-01T07:06:39Z</time>
      </trkpt>
      <trkpt lat="46.95861" lon="-0.62945">
        <ele>129.3</ele>
        <time>2012-04-01T07:06:41Z</time>
      </trkpt>
      <trkpt lat="46.95868" lon="-0.6294">
        <ele>129.5</ele>
        <time>2012-04-01T07:06:43Z</time>
      </trkpt>
      <trkpt lat="46.95874" lon="-0.62936">
        <ele>129.5</ele>
        <time>2012-04-01T07:06:45Z</time>
      </trkpt>
      <trkpt lat="46.95881" lon="-0.62933">
        <ele>129.5</ele>
        <time>2012-04-01T07:06:47Z</time>
      </trkpt>
      <trkpt lat="46.95887" lon="-0.62929">
        <ele>129.5</ele>
        <time>2012-04-01T07:06:49Z</time>
      </trkpt>
      <trkpt lat="46.95893" lon="-0.62924">
        <ele>129.5</ele>
        <time>2012-04-01T07:06:51Z</time>
      </trkpt>
      <trkpt lat="46.95899" lon="-0.6292">
        <ele>129.6</ele>
        <time>2012-04-01T07:06:53Z</time>
      </trkpt>
      <trkpt lat="46.95907" lon="-0.62913">
        <ele>129.6</ele>
        <time>2012-04-01T07:06:56Z</time>
      </trkpt>
      <trkpt lat="46.9591" lon="-0.6291">
        <ele>129.6</ele>
        <time>2012-04-01T07:06:57Z</time>
      </trkpt>
      <trkpt lat="46.9592" lon="-0.62903">
        <ele>129.5</ele>
        <time>2012-04-01T07:07:00Z</time>
      </trkpt>
      <trkpt lat="46.95927" lon="-0.62898">
        <ele>129.5</ele>
        <time>2012-04-01T07:07:02Z</time>
      </trkpt>
      <trkpt lat="46.95933" lon="-0.62893">
        <ele>129.5</ele>
        <time>2012-04-01T07:07:04Z</time>
      </trkpt>
      <trkpt lat="46.95938" lon="-0.62889">
        <ele>129.5</ele>
        <time>2012-04-01T07:07:06Z</time>
      </trkpt>
      <trkpt lat="46.95944" lon="-0.62884">
        <ele>129.5</ele>
        <time>2012-04-01T07:07:08Z</time>
      </trkpt>
      <trkpt lat="46.95949" lon="-0.62879">
        <ele>129.5</ele>
        <time>2012-04-01T07:07:10Z</time>
      </trkpt>
      <trkpt lat="46.95954" lon="-0.62874">
        <ele>129.3</ele>
        <time>2012-04-01T07:07:12Z</time>
      </trkpt>
      <trkpt lat="46.95959" lon="-0.62869">
        <ele>129.3</ele>
        <time>2012-04-01T07:07:14Z</time>
      </trkpt>
      <trkpt lat="46.95965" lon="-0.62864">
        <ele>129.3</ele>
        <time>2012-04-01T07:07:16Z</time>
      </trkpt>
      <trkpt lat="46.9597" lon="-0.62858">
        <ele>129.3</ele>
        <time>2012-04-01T07:07:18Z</time>
      </trkpt>
      <trkpt lat="46.95973" lon="-0.62848">
        <ele>129.3</ele>
        <time>2012-04-01T07:07:20Z</time>
      </trkpt>
      <trkpt lat="46.95977" lon="-0.62838">
        <ele>129.3</ele>
        <time>2012-04-01T07:07:22Z</time>
      </trkpt>
      <trkpt lat="46.95981" lon="-0.62828">
        <ele>129.3</ele>
        <time>2012-04-01T07:07:24Z</time>
      </trkpt>
      <trkpt lat="46.95984" lon="-0.62818">
        <ele>129.5</ele>
        <time>2012-04-01T07:07:26Z</time>
      </trkpt>
      <trkpt lat="46.95987" lon="-0.62808">
        <ele>129.5</ele>
        <time>2012-04-01T07:07:28Z</time>
      </trkpt>
      <trkpt lat="46.9599" lon="-0.62799">
        <ele>129.6</ele>
        <time>2012-04-01T07:07:30Z</time>
      </trkpt>
      <trkpt lat="46.95993" lon="-0.6279">
        <ele>129.6</ele>
        <time>2012-04-01T07:07:32Z</time>
      </trkpt>
      <trkpt lat="46.95996" lon="-0.6278">
        <ele>129.8</ele>
        <time>2012-04-01T07:07:34Z</time>
      </trkpt>
      <trkpt lat="46.95999" lon="-0.62771">
        <ele>129.8</ele>
        <time>2012-04-01T07:07:36Z</time>
      </trkpt>
      <trkpt lat="46.96003" lon="-0.62761">
        <ele>130</ele>
        <time>2012-04-01T07:07:38Z</time>
      </trkpt>
      <trkpt lat="46.96007" lon="-0.62752">
        <ele>130.1</ele>
        <time>2012-04-01T07:07:40Z</time>
      </trkpt>
      <trkpt lat="46.96011" lon="-0.62745">
        <ele>130.1</ele>
        <time>2012-04-01T07:07:42Z</time>
      </trkpt>
      <trkpt lat="46.96016" lon="-0.62737">
        <ele>130.3</ele>
        <time>2012-04-01T07:07:44Z</time>
      </trkpt>
      <trkpt lat="46.96022" lon="-0.6273">
        <ele>130.3</ele>
        <time>2012-04-01T07:07:46Z</time>
      </trkpt>
      <trkpt lat="46.96027" lon="-0.62723">
        <ele>130.5</ele>
        <time>2012-04-01T07:07:48Z</time>
      </trkpt>
      <trkpt lat="46.96032" lon="-0.62716">
        <ele>130.6</ele>
        <time>2012-04-01T07:07:50Z</time>
      </trkpt>
      <trkpt lat="46.96037" lon="-0.62709">
        <ele>130.6</ele>
        <time>2012-04-01T07:07:52Z</time>
      </trkpt>
      <trkpt lat="46.96041" lon="-0.62701">
        <ele>130.8</ele>
        <time>2012-04-01T07:07:54Z</time>
      </trkpt>
      <trkpt lat="46.96046" lon="-0.62694">
        <ele>130.8</ele>
        <time>2012-04-01T07:07:56Z</time>
      </trkpt>
      <trkpt lat="46.96051" lon="-0.62688">
        <ele>131</ele>
        <time>2012-04-01T07:07:58Z</time>
      </trkpt>
      <trkpt lat="46.96054" lon="-0.62684">
        <ele>131.1</ele>
        <time>2012-04-01T07:07:59Z</time>
      </trkpt>
      <trkpt lat="46.96062" lon="-0.62673">
        <ele>131.3</ele>
        <time>2012-04-01T07:08:02Z</time>
      </trkpt>
      <trkpt lat="46.96067" lon="-0.62666">
        <ele>131.3</ele>
        <time>2012-04-01T07:08:04Z</time>
      </trkpt>
      <trkpt lat="46.96072" lon="-0.62659">
        <ele>131.5</ele>
        <time>2012-04-01T07:08:06Z</time>
      </trkpt>
      <trkpt lat="46.96078" lon="-0.62652">
        <ele>131.6</ele>
        <time>2012-04-01T07:08:08Z</time>
      </trkpt>
      <trkpt lat="46.96083" lon="-0.62646">
        <ele>131.6</ele>
        <time>2012-04-01T07:08:10Z</time>
      </trkpt>
      <trkpt lat="46.96088" lon="-0.6264">
        <ele>131.8</ele>
        <time>2012-04-01T07:08:12Z</time>
      </trkpt>
      <trkpt lat="46.96093" lon="-0.62633">
        <ele>132</ele>
        <time>2012-04-01T07:08:14Z</time>
      </trkpt>
      <trkpt lat="46.96098" lon="-0.62626">
        <ele>132.1</ele>
        <time>2012-04-01T07:08:16Z</time>
      </trkpt>
      <trkpt lat="46.96103" lon="-0.62619">
        <ele>132.1</ele>
        <time>2012-04-01T07:08:18Z</time>
      </trkpt>
      <trkpt lat="46.96108" lon="-0.62612">
        <ele>132.3</ele>
        <time>2012-04-01T07:08:20Z</time>
      </trkpt>
      <trkpt lat="46.96113" lon="-0.62604">
        <ele>132.3</ele>
        <time>2012-04-01T07:08:22Z</time>
      </trkpt>
      <trkpt lat="46.96119" lon="-0.62597">
        <ele>132.3</ele>
        <time>2012-04-01T07:08:24Z</time>
      </trkpt>
      <trkpt lat="46.96125" lon="-0.6259">
        <ele>132.5</ele>
        <time>2012-04-01T07:08:26Z</time>
      </trkpt>
      <trkpt lat="46.96132" lon="-0.62582">
        <ele>132.6</ele>
        <time>2012-04-01T07:08:28Z</time>
      </trkpt>
      <trkpt lat="46.96138" lon="-0.62575">
        <ele>132.6</ele>
        <time>2012-04-01T07:08:30Z</time>
      </trkpt>
      <trkpt lat="46.96144" lon="-0.62569">
        <ele>132.8</ele>
        <time>2012-04-01T07:08:32Z</time>
      </trkpt>
      <trkpt lat="46.9615" lon="-0.62562">
        <ele>132.8</ele>
        <time>2012-04-01T07:08:34Z</time>
      </trkpt>
      <trkpt lat="46.96156" lon="-0.62556">
        <ele>133.1</ele>
        <time>2012-04-01T07:08:36Z</time>
      </trkpt>
      <trkpt lat="46.96163" lon="-0.62549">
        <ele>133.1</ele>
        <time>2012-04-01T07:08:38Z</time>
      </trkpt>
      <trkpt lat="46.96169" lon="-0.62543">
        <ele>133.3</ele>
        <time>2012-04-01T07:08:40Z</time>
      </trkpt>
      <trkpt lat="46.96175" lon="-0.62537">
        <ele>133.3</ele>
        <time>2012-04-01T07:08:42Z</time>
      </trkpt>
      <trkpt lat="46.96182" lon="-0.62531">
        <ele>134.1</ele>
        <time>2012-04-01T07:08:44Z</time>
      </trkpt>
      <trkpt lat="46.96188" lon="-0.62524">
        <ele>134.1</ele>
        <time>2012-04-01T07:08:46Z</time>
      </trkpt>
      <trkpt lat="46.96195" lon="-0.62518">
        <ele>134.3</ele>
        <time>2012-04-01T07:08:48Z</time>
      </trkpt>
      <trkpt lat="46.96201" lon="-0.62512">
        <ele>134.5</ele>
        <time>2012-04-01T07:08:50Z</time>
      </trkpt>
      <trkpt lat="46.96207" lon="-0.62506">
        <ele>134.6</ele>
        <time>2012-04-01T07:08:52Z</time>
      </trkpt>
      <trkpt lat="46.96213" lon="-0.625">
        <ele>134.6</ele>
        <time>2012-04-01T07:08:54Z</time>
      </trkpt>
      <trkpt lat="46.96219" lon="-0.62493">
        <ele>134.8</ele>
        <time>2012-04-01T07:08:56Z</time>
      </trkpt>
      <trkpt lat="46.96225" lon="-0.62486">
        <ele>134.8</ele>
        <time>2012-04-01T07:08:58Z</time>
      </trkpt>
      <trkpt lat="46.9623" lon="-0.62477">
        <ele>135.1</ele>
        <time>2012-04-01T07:09:01Z</time>
      </trkpt>
      <trkpt lat="46.96231" lon="-0.62474">
        <ele>135.1</ele>
        <time>2012-04-01T07:09:02Z</time>
      </trkpt>
      <trkpt lat="46.96243" lon="-0.62473">
        <ele>137.8</ele>
        <time>2012-04-01T07:11:39Z</time>
      </trkpt>
      <trkpt lat="46.96244" lon="-0.62475">
        <ele>137.8</ele>
        <time>2012-04-01T07:11:40Z</time>
      </trkpt>
      <trkpt lat="46.96252" lon="-0.62489">
        <ele>138.1</ele>
        <time>2012-04-01T07:11:46Z</time>
      </trkpt>
      <trkpt lat="46.96258" lon="-0.62496">
        <ele>138.3</ele>
        <time>2012-04-01T07:11:49Z</time>
      </trkpt>
      <trkpt lat="46.96264" lon="-0.62505">
        <ele>138.3</ele>
        <time>2012-04-01T07:11:52Z</time>
      </trkpt>
      <trkpt lat="46.96268" lon="-0.62511">
        <ele>138.5</ele>
        <time>2012-04-01T07:11:54Z</time>
      </trkpt>
      <trkpt lat="46.96273" lon="-0.62518">
        <ele>138.6</ele>
        <time>2012-04-01T07:11:56Z</time>
      </trkpt>
      <trkpt lat="46.96277" lon="-0.62525">
        <ele>138.6</ele>
        <time>2012-04-01T07:11:58Z</time>
      </trkpt>
      <trkpt lat="46.96281" lon="-0.62533">
        <ele>138.6</ele>
        <time>2012-04-01T07:12:00Z</time>
      </trkpt>
      <trkpt lat="46.96285" lon="-0.6254">
        <ele>138.8</ele>
        <time>2012-04-01T07:12:02Z</time>
      </trkpt>
      <trkpt lat="46.96289" lon="-0.62547">
        <ele>138.8</ele>
        <time>2012-04-01T07:12:04Z</time>
      </trkpt>
      <trkpt lat="46.96294" lon="-0.62555">
        <ele>139</ele>
        <time>2012-04-01T07:12:06Z</time>
      </trkpt>
      <trkpt lat="46.96298" lon="-0.62562">
        <ele>139</ele>
        <time>2012-04-01T07:12:08Z</time>
      </trkpt>
      <trkpt lat="46.96302" lon="-0.6257">
        <ele>139.1</ele>
        <time>2012-04-01T07:12:10Z</time>
      </trkpt>
      <trkpt lat="46.96306" lon="-0.62579">
        <ele>139.1</ele>
        <time>2012-04-01T07:12:12Z</time>
      </trkpt>
      <trkpt lat="46.9631" lon="-0.62587">
        <ele>139.3</ele>
        <time>2012-04-01T07:12:14Z</time>
      </trkpt>
      <trkpt lat="46.96315" lon="-0.62595">
        <ele>139.3</ele>
        <time>2012-04-01T07:12:16Z</time>
      </trkpt>
      <trkpt lat="46.96319" lon="-0.62603">
        <ele>139.3</ele>
        <time>2012-04-01T07:12:18Z</time>
      </trkpt>
      <trkpt lat="46.96323" lon="-0.62611">
        <ele>139.3</ele>
        <time>2012-04-01T07:12:20Z</time>
      </trkpt>
      <trkpt lat="46.96328" lon="-0.62618">
        <ele>139.5</ele>
        <time>2012-04-01T07:12:22Z</time>
      </trkpt>
      <trkpt lat="46.96332" lon="-0.62626">
        <ele>139.5</ele>
        <time>2012-04-01T07:12:24Z</time>
      </trkpt>
      <trkpt lat="46.96336" lon="-0.62633">
        <ele>139.6</ele>
        <time>2012-04-01T07:12:26Z</time>
      </trkpt>
      <trkpt lat="46.9634" lon="-0.62641">
        <ele>139.6</ele>
        <time>2012-04-01T07:12:28Z</time>
      </trkpt>
      <trkpt lat="46.96345" lon="-0.62649">
        <ele>139.6</ele>
        <time>2012-04-01T07:12:30Z</time>
      </trkpt>
      <trkpt lat="46.96349" lon="-0.62658">
        <ele>139.8</ele>
        <time>2012-04-01T07:12:32Z</time>
      </trkpt>
      <trkpt lat="46.96354" lon="-0.62666">
        <ele>139.8</ele>
        <time>2012-04-01T07:12:34Z</time>
      </trkpt>
      <trkpt lat="46.96358" lon="-0.62674">
        <ele>139.8</ele>
        <time>2012-04-01T07:12:36Z</time>
      </trkpt>
      <trkpt lat="46.96363" lon="-0.62683">
        <ele>139.8</ele>
        <time>2012-04-01T07:12:38Z</time>
      </trkpt>
      <trkpt lat="46.96367" lon="-0.62691">
        <ele>139.8</ele>
        <time>2012-04-01T07:12:40Z</time>
      </trkpt>
      <trkpt lat="46.9637" lon="-0.62695">
        <ele>140</ele>
        <time>2012-04-01T07:12:41Z</time>
      </trkpt>
      <trkpt lat="46.96377" lon="-0.62707">
        <ele>140</ele>
        <time>2012-04-01T07:12:44Z</time>
      </trkpt>
      <trkpt lat="46.96382" lon="-0.62715">
        <ele>140.1</ele>
        <time>2012-04-01T07:12:46Z</time>
      </trkpt>
      <trkpt lat="46.96387" lon="-0.62724">
        <ele>140.3</ele>
        <time>2012-04-01T07:12:48Z</time>
      </trkpt>
      <trkpt lat="46.96392" lon="-0.62734">
        <ele>140.6</ele>
        <time>2012-04-01T07:12:50Z</time>
      </trkpt>
      <trkpt lat="46.96396" lon="-0.62742">
        <ele>140.8</ele>
        <time>2012-04-01T07:12:52Z</time>
      </trkpt>
      <trkpt lat="46.96401" lon="-0.62751">
        <ele>140.8</ele>
        <time>2012-04-01T07:12:54Z</time>
      </trkpt>
      <trkpt lat="46.96405" lon="-0.62762">
        <ele>141</ele>
        <time>2012-04-01T07:12:56Z</time>
      </trkpt>
      <trkpt lat="46.9641" lon="-0.62772">
        <ele>140.8</ele>
        <time>2012-04-01T07:12:58Z</time>
      </trkpt>
      <trkpt lat="46.96414" lon="-0.62782">
        <ele>140.8</ele>
        <time>2012-04-01T07:13:00Z</time>
      </trkpt>
      <trkpt lat="46.96418" lon="-0.62793">
        <ele>141</ele>
        <time>2012-04-01T07:13:02Z</time>
      </trkpt>
      <trkpt lat="46.96423" lon="-0.62804">
        <ele>141</ele>
        <time>2012-04-01T07:13:04Z</time>
      </trkpt>
      <trkpt lat="46.96427" lon="-0.62815">
        <ele>141.1</ele>
        <time>2012-04-01T07:13:06Z</time>
      </trkpt>
      <trkpt lat="46.96432" lon="-0.62826">
        <ele>141.3</ele>
        <time>2012-04-01T07:13:08Z</time>
      </trkpt>
      <trkpt lat="46.96437" lon="-0.62837">
        <ele>141.5</ele>
        <time>2012-04-01T07:13:10Z</time>
      </trkpt>
      <trkpt lat="46.96441" lon="-0.62848">
        <ele>141.6</ele>
        <time>2012-04-01T07:13:12Z</time>
      </trkpt>
      <trkpt lat="46.96446" lon="-0.62859">
        <ele>141.6</ele>
        <time>2012-04-01T07:13:14Z</time>
      </trkpt>
      <trkpt lat="46.96449" lon="-0.62865">
        <ele>141.6</ele>
        <time>2012-04-01T07:13:15Z</time>
      </trkpt>
      <trkpt lat="46.96451" lon="-0.6287">
        <ele>141.6</ele>
        <time>2012-04-01T07:13:16Z</time>
      </trkpt>
      <trkpt lat="46.96454" lon="-0.62876">
        <ele>141.6</ele>
        <time>2012-04-01T07:13:17Z</time>
      </trkpt>
      <trkpt lat="46.96456" lon="-0.62881">
        <ele>141.6</ele>
        <time>2012-04-01T07:13:18Z</time>
      </trkpt>
      <trkpt lat="46.96459" lon="-0.62887">
        <ele>141.6</ele>
        <time>2012-04-01T07:13:19Z</time>
      </trkpt>
      <trkpt lat="46.96461" lon="-0.62892">
        <ele>141.6</ele>
        <time>2012-04-01T07:13:20Z</time>
      </trkpt>
      <trkpt lat="46.96464" lon="-0.62898">
        <ele>141.6</ele>
        <time>2012-04-01T07:13:21Z</time>
      </trkpt>
      <trkpt lat="46.96467" lon="-0.62903">
        <ele>141.6</ele>
        <time>2012-04-01T07:13:22Z</time>
      </trkpt>
      <trkpt lat="46.9647" lon="-0.62909">
        <ele>141.5</ele>
        <time>2012-04-01T07:13:23Z</time>
      </trkpt>
      <trkpt lat="46.96473" lon="-0.62915">
        <ele>141.5</ele>
        <time>2012-04-01T07:13:24Z</time>
      </trkpt>
      <trkpt lat="46.96476" lon="-0.6292">
        <ele>141.5</ele>
        <time>2012-04-01T07:13:25Z</time>
      </trkpt>
      <trkpt lat="46.96479" lon="-0.62926">
        <ele>141.5</ele>
        <time>2012-04-01T07:13:26Z</time>
      </trkpt>
      <trkpt lat="46.96482" lon="-0.62931">
        <ele>141.6</ele>
        <time>2012-04-01T07:13:27Z</time>
      </trkpt>
      <trkpt lat="46.96486" lon="-0.62937">
        <ele>141.6</ele>
        <time>2012-04-01T07:13:28Z</time>
      </trkpt>
      <trkpt lat="46.96489" lon="-0.62942">
        <ele>141.6</ele>
        <time>2012-04-01T07:13:29Z</time>
      </trkpt>
      <trkpt lat="46.96492" lon="-0.62948">
        <ele>141.6</ele>
        <time>2012-04-01T07:13:30Z</time>
      </trkpt>
      <trkpt lat="46.96496" lon="-0.62953">
        <ele>141.6</ele>
        <time>2012-04-01T07:13:31Z</time>
      </trkpt>
      <trkpt lat="46.96499" lon="-0.62958">
        <ele>141.6</ele>
        <time>2012-04-01T07:13:32Z</time>
      </trkpt>
      <trkpt lat="46.96502" lon="-0.62964">
        <ele>141.6</ele>
        <time>2012-04-01T07:13:33Z</time>
      </trkpt>
      <trkpt lat="46.96506" lon="-0.62969">
        <ele>141.8</ele>
        <time>2012-04-01T07:13:34Z</time>
      </trkpt>
      <trkpt lat="46.96509" lon="-0.62974">
        <ele>141.8</ele>
        <time>2012-04-01T07:13:35Z</time>
      </trkpt>
      <trkpt lat="46.96513" lon="-0.62979">
        <ele>141.8</ele>
        <time>2012-04-01T07:13:36Z</time>
      </trkpt>
      <trkpt lat="46.96516" lon="-0.62984">
        <ele>141.8</ele>
        <time>2012-04-01T07:13:37Z</time>
      </trkpt>
      <trkpt lat="46.96519" lon="-0.62989">
        <ele>141.8</ele>
        <time>2012-04-01T07:13:38Z</time>
      </trkpt>
      <trkpt lat="46.96523" lon="-0.62994">
        <ele>141.8</ele>
        <time>2012-04-01T07:13:39Z</time>
      </trkpt>
      <trkpt lat="46.96526" lon="-0.62999">
        <ele>141.8</ele>
        <time>2012-04-01T07:13:40Z</time>
      </trkpt>
      <trkpt lat="46.9653" lon="-0.63005">
        <ele>142</ele>
        <time>2012-04-01T07:13:41Z</time>
      </trkpt>
      <trkpt lat="46.96533" lon="-0.6301">
        <ele>142</ele>
        <time>2012-04-01T07:13:42Z</time>
      </trkpt>
      <trkpt lat="46.96537" lon="-0.63015">
        <ele>142.1</ele>
        <time>2012-04-01T07:13:43Z</time>
      </trkpt>
      <trkpt lat="46.9654" lon="-0.6302">
        <ele>142.1</ele>
        <time>2012-04-01T07:13:44Z</time>
      </trkpt>
      <trkpt lat="46.96544" lon="-0.63025">
        <ele>142.1</ele>
        <time>2012-04-01T07:13:45Z</time>
      </trkpt>
      <trkpt lat="46.96547" lon="-0.6303">
        <ele>142.3</ele>
        <time>2012-04-01T07:13:46Z</time>
      </trkpt>
      <trkpt lat="46.96551" lon="-0.63036">
        <ele>142.3</ele>
        <time>2012-04-01T07:13:47Z</time>
      </trkpt>
      <trkpt lat="46.96554" lon="-0.63041">
        <ele>142.3</ele>
        <time>2012-04-01T07:13:48Z</time>
      </trkpt>
      <trkpt lat="46.96557" lon="-0.63047">
        <ele>142.3</ele>
        <time>2012-04-01T07:13:49Z</time>
      </trkpt>
      <trkpt lat="46.9656" lon="-0.63052">
        <ele>142.3</ele>
        <time>2012-04-01T07:13:50Z</time>
      </trkpt>
      <trkpt lat="46.96561" lon="-0.63059">
        <ele>142.3</ele>
        <time>2012-04-01T07:13:51Z</time>
      </trkpt>
      <trkpt lat="46.96562" lon="-0.63065">
        <ele>142.5</ele>
        <time>2012-04-01T07:13:52Z</time>
      </trkpt>
      <trkpt lat="46.9656" lon="-0.63078">
        <ele>142.5</ele>
        <time>2012-04-01T07:13:54Z</time>
      </trkpt>
      <trkpt lat="46.96556" lon="-0.63087">
        <ele>142.6</ele>
        <time>2012-04-01T07:13:56Z</time>
      </trkpt>
      <trkpt lat="46.9655" lon="-0.63094">
        <ele>142.6</ele>
        <time>2012-04-01T07:13:58Z</time>
      </trkpt>
      <trkpt lat="46.96545" lon="-0.63101">
        <ele>142.6</ele>
        <time>2012-04-01T07:14:00Z</time>
      </trkpt>
      <trkpt lat="46.96539" lon="-0.63109">
        <ele>143</ele>
        <time>2012-04-01T07:14:02Z</time>
      </trkpt>
      <trkpt lat="46.96532" lon="-0.63117">
        <ele>143.3</ele>
        <time>2012-04-01T07:14:04Z</time>
      </trkpt>
      <trkpt lat="46.96529" lon="-0.63121">
        <ele>143.6</ele>
        <time>2012-04-01T07:14:05Z</time>
      </trkpt>
      <trkpt lat="46.96525" lon="-0.63126">
        <ele>143.6</ele>
        <time>2012-04-01T07:14:06Z</time>
      </trkpt>
      <trkpt lat="46.96521" lon="-0.6313">
        <ele>143.8</ele>
        <time>2012-04-01T07:14:07Z</time>
      </trkpt>
      <trkpt lat="46.96517" lon="-0.63134">
        <ele>144</ele>
        <time>2012-04-01T07:14:08Z</time>
      </trkpt>
      <trkpt lat="46.96514" lon="-0.63139">
        <ele>144.1</ele>
        <time>2012-04-01T07:14:09Z</time>
      </trkpt>
      <trkpt lat="46.9651" lon="-0.63143">
        <ele>144.1</ele>
        <time>2012-04-01T07:14:10Z</time>
      </trkpt>
      <trkpt lat="46.96506" lon="-0.63148">
        <ele>144.3</ele>
        <time>2012-04-01T07:14:11Z</time>
      </trkpt>
      <trkpt lat="46.96502" lon="-0.63152">
        <ele>144.3</ele>
        <time>2012-04-01T07:14:12Z</time>
      </trkpt>
      <trkpt lat="46.96498" lon="-0.63156">
        <ele>144.3</ele>
        <time>2012-04-01T07:14:13Z</time>
      </trkpt>
      <trkpt lat="46.96494" lon="-0.63161">
        <ele>144.5</ele>
        <time>2012-04-01T07:14:14Z</time>
      </trkpt>
      <trkpt lat="46.9649" lon="-0.63165">
        <ele>144.6</ele>
        <time>2012-04-01T07:14:15Z</time>
      </trkpt>
      <trkpt lat="46.96486" lon="-0.63169">
        <ele>144.6</ele>
        <time>2012-04-01T07:14:16Z</time>
      </trkpt>
      <trkpt lat="46.96482" lon="-0.63174">
        <ele>144.6</ele>
        <time>2012-04-01T07:14:17Z</time>
      </trkpt>
      <trkpt lat="46.96478" lon="-0.63178">
        <ele>144.6</ele>
        <time>2012-04-01T07:14:18Z</time>
      </trkpt>
      <trkpt lat="46.96474" lon="-0.63183">
        <ele>144.8</ele>
        <time>2012-04-01T07:14:19Z</time>
      </trkpt>
      <trkpt lat="46.9647" lon="-0.63187">
        <ele>144.8</ele>
        <time>2012-04-01T07:14:20Z</time>
      </trkpt>
      <trkpt lat="46.96466" lon="-0.63192">
        <ele>145</ele>
        <time>2012-04-01T07:14:21Z</time>
      </trkpt>
      <trkpt lat="46.96462" lon="-0.63196">
        <ele>145.1</ele>
        <time>2012-04-01T07:14:22Z</time>
      </trkpt>
      <trkpt lat="46.96458" lon="-0.632">
        <ele>145.1</ele>
        <time>2012-04-01T07:14:23Z</time>
      </trkpt>
      <trkpt lat="46.96454" lon="-0.63205">
        <ele>145.3</ele>
        <time>2012-04-01T07:14:24Z</time>
      </trkpt>
      <trkpt lat="46.9645" lon="-0.63209">
        <ele>145.5</ele>
        <time>2012-04-01T07:14:25Z</time>
      </trkpt>
      <trkpt lat="46.96446" lon="-0.63213">
        <ele>145.6</ele>
        <time>2012-04-01T07:14:26Z</time>
      </trkpt>
      <trkpt lat="46.96442" lon="-0.63218">
        <ele>145.6</ele>
        <time>2012-04-01T07:14:27Z</time>
      </trkpt>
      <trkpt lat="46.96438" lon="-0.63222">
        <ele>145.8</ele>
        <time>2012-04-01T07:14:28Z</time>
      </trkpt>
      <trkpt lat="46.96435" lon="-0.63226">
        <ele>146</ele>
        <time>2012-04-01T07:14:29Z</time>
      </trkpt>
      <trkpt lat="46.96431" lon="-0.6323">
        <ele>146.1</ele>
        <time>2012-04-01T07:14:30Z</time>
      </trkpt>
      <trkpt lat="46.96427" lon="-0.63234">
        <ele>146.1</ele>
        <time>2012-04-01T07:14:31Z</time>
      </trkpt>
      <trkpt lat="46.96423" lon="-0.63238">
        <ele>146.1</ele>
        <time>2012-04-01T07:14:32Z</time>
      </trkpt>
      <trkpt lat="46.96419" lon="-0.63242">
        <ele>146.3</ele>
        <time>2012-04-01T07:14:33Z</time>
      </trkpt>
      <trkpt lat="46.96415" lon="-0.63246">
        <ele>146.3</ele>
        <time>2012-04-01T07:14:34Z</time>
      </trkpt>
      <trkpt lat="46.96412" lon="-0.63251">
        <ele>146.3</ele>
        <time>2012-04-01T07:14:35Z</time>
      </trkpt>
      <trkpt lat="46.96408" lon="-0.63255">
        <ele>146.3</ele>
        <time>2012-04-01T07:14:36Z</time>
      </trkpt>
      <trkpt lat="46.96405" lon="-0.6326">
        <ele>146.3</ele>
        <time>2012-04-01T07:14:37Z</time>
      </trkpt>
      <trkpt lat="46.96401" lon="-0.63264">
        <ele>146.3</ele>
        <time>2012-04-01T07:14:38Z</time>
      </trkpt>
      <trkpt lat="46.96397" lon="-0.63268">
        <ele>146.5</ele>
        <time>2012-04-01T07:14:39Z</time>
      </trkpt>
      <trkpt lat="46.96393" lon="-0.63273">
        <ele>146.5</ele>
        <time>2012-04-01T07:14:40Z</time>
      </trkpt>
      <trkpt lat="46.96389" lon="-0.63277">
        <ele>146.6</ele>
        <time>2012-04-01T07:14:41Z</time>
      </trkpt>
      <trkpt lat="46.96386" lon="-0.63282">
        <ele>146.6</ele>
        <time>2012-04-01T07:14:42Z</time>
      </trkpt>
      <trkpt lat="46.96382" lon="-0.63286">
        <ele>146.6</ele>
        <time>2012-04-01T07:14:43Z</time>
      </trkpt>
      <trkpt lat="46.96378" lon="-0.6329">
        <ele>146.8</ele>
        <time>2012-04-01T07:14:44Z</time>
      </trkpt>
      <trkpt lat="46.96374" lon="-0.63295">
        <ele>146.8</ele>
        <time>2012-04-01T07:14:45Z</time>
      </trkpt>
      <trkpt lat="46.9637" lon="-0.63299">
        <ele>146.8</ele>
        <time>2012-04-01T07:14:46Z</time>
      </trkpt>
      <trkpt lat="46.96366" lon="-0.63303">
        <ele>146.8</ele>
        <time>2012-04-01T07:14:47Z</time>
      </trkpt>
      <trkpt lat="46.96362" lon="-0.63308">
        <ele>146.8</ele>
        <time>2012-04-01T07:14:48Z</time>
      </trkpt>
      <trkpt lat="46.96358" lon="-0.63312">
        <ele>146.8</ele>
        <time>2012-04-01T07:14:49Z</time>
      </trkpt>
      <trkpt lat="46.96354" lon="-0.63317">
        <ele>146.8</ele>
        <time>2012-04-01T07:14:50Z</time>
      </trkpt>
      <trkpt lat="46.9635" lon="-0.63321">
        <ele>146.6</ele>
        <time>2012-04-01T07:14:51Z</time>
      </trkpt>
      <trkpt lat="46.96346" lon="-0.63326">
        <ele>146.6</ele>
        <time>2012-04-01T07:14:52Z</time>
      </trkpt>
      <trkpt lat="46.96343" lon="-0.63329">
        <ele>146.6</ele>
        <time>2012-04-01T07:14:53Z</time>
      </trkpt>
      <trkpt lat="46.96339" lon="-0.63334">
        <ele>146.6</ele>
        <time>2012-04-01T07:14:54Z</time>
      </trkpt>
      <trkpt lat="46.96335" lon="-0.63338">
        <ele>146.6</ele>
        <time>2012-04-01T07:14:55Z</time>
      </trkpt>
      <trkpt lat="46.96331" lon="-0.63342">
        <ele>146.6</ele>
        <time>2012-04-01T07:14:56Z</time>
      </trkpt>
      <trkpt lat="46.96327" lon="-0.63346">
        <ele>146.6</ele>
        <time>2012-04-01T07:14:57Z</time>
      </trkpt>
      <trkpt lat="46.96322" lon="-0.63351">
        <ele>146.6</ele>
        <time>2012-04-01T07:14:58Z</time>
      </trkpt>
      <trkpt lat="46.96318" lon="-0.63355">
        <ele>146.6</ele>
        <time>2012-04-01T07:14:59Z</time>
      </trkpt>
      <trkpt lat="46.96314" lon="-0.63361">
        <ele>146.8</ele>
        <time>2012-04-01T07:15:00Z</time>
      </trkpt>
      <trkpt lat="46.9631" lon="-0.63366">
        <ele>146.8</ele>
        <time>2012-04-01T07:15:01Z</time>
      </trkpt>
      <trkpt lat="46.96306" lon="-0.63371">
        <ele>146.8</ele>
        <time>2012-04-01T07:15:02Z</time>
      </trkpt>
      <trkpt lat="46.96301" lon="-0.63376">
        <ele>146.8</ele>
        <time>2012-04-01T07:15:03Z</time>
      </trkpt>
      <trkpt lat="46.96296" lon="-0.63382">
        <ele>146.8</ele>
        <time>2012-04-01T07:15:04Z</time>
      </trkpt>
      <trkpt lat="46.96291" lon="-0.63388">
        <ele>146.6</ele>
        <time>2012-04-01T07:15:05Z</time>
      </trkpt>
      <trkpt lat="46.96286" lon="-0.63394">
        <ele>146.6</ele>
        <time>2012-04-01T07:15:06Z</time>
      </trkpt>
      <trkpt lat="46.9628" lon="-0.63401">
        <ele>146.5</ele>
        <time>2012-04-01T07:15:07Z</time>
      </trkpt>
      <trkpt lat="46.96275" lon="-0.63408">
        <ele>146.3</ele>
        <time>2012-04-01T07:15:08Z</time>
      </trkpt>
      <trkpt lat="46.9627" lon="-0.63416">
        <ele>146.3</ele>
        <time>2012-04-01T07:15:09Z</time>
      </trkpt>
      <trkpt lat="46.96267" lon="-0.63424">
        <ele>146.1</ele>
        <time>2012-04-01T07:15:10Z</time>
      </trkpt>
      <trkpt lat="46.96263" lon="-0.63433">
        <ele>146</ele>
        <time>2012-04-01T07:15:11Z</time>
      </trkpt>
      <trkpt lat="46.9626" lon="-0.63441">
        <ele>146</ele>
        <time>2012-04-01T07:15:12Z</time>
      </trkpt>
      <trkpt lat="46.96257" lon="-0.63449">
        <ele>145.8</ele>
        <time>2012-04-01T07:15:13Z</time>
      </trkpt>
      <trkpt lat="46.96254" lon="-0.63457">
        <ele>145.8</ele>
        <time>2012-04-01T07:15:14Z</time>
      </trkpt>
      <trkpt lat="46.96251" lon="-0.63464">
        <ele>145.8</ele>
        <time>2012-04-01T07:15:15Z</time>
      </trkpt>
      <trkpt lat="46.96249" lon="-0.6347">
        <ele>145.8</ele>
        <time>2012-04-01T07:15:16Z</time>
      </trkpt>
      <trkpt lat="46.96246" lon="-0.63477">
        <ele>145.8</ele>
        <time>2012-04-01T07:15:17Z</time>
      </trkpt>
      <trkpt lat="46.96243" lon="-0.63483">
        <ele>145.8</ele>
        <time>2012-04-01T07:15:18Z</time>
      </trkpt>
      <trkpt lat="46.96241" lon="-0.63489">
        <ele>145.8</ele>
        <time>2012-04-01T07:15:19Z</time>
      </trkpt>
      <trkpt lat="46.96238" lon="-0.63494">
        <ele>145.8</ele>
        <time>2012-04-01T07:15:20Z</time>
      </trkpt>
      <trkpt lat="46.96233" lon="-0.63505">
        <ele>145.8</ele>
        <time>2012-04-01T07:15:22Z</time>
      </trkpt>
      <trkpt lat="46.96229" lon="-0.63514">
        <ele>145.6</ele>
        <time>2012-04-01T07:15:24Z</time>
      </trkpt>
      <trkpt lat="46.96225" lon="-0.63523">
        <ele>145.6</ele>
        <time>2012-04-01T07:15:26Z</time>
      </trkpt>
      <trkpt lat="46.96221" lon="-0.63533">
        <ele>145.6</ele>
        <time>2012-04-01T07:15:28Z</time>
      </trkpt>
      <trkpt lat="46.96218" lon="-0.63538">
        <ele>145.6</ele>
        <time>2012-04-01T07:15:29Z</time>
      </trkpt>
      <trkpt lat="46.96216" lon="-0.63544">
        <ele>145.6</ele>
        <time>2012-04-01T07:15:30Z</time>
      </trkpt>
      <trkpt lat="46.96213" lon="-0.63551">
        <ele>145.6</ele>
        <time>2012-04-01T07:15:31Z</time>
      </trkpt>
      <trkpt lat="46.9621" lon="-0.63557">
        <ele>145.6</ele>
        <time>2012-04-01T07:15:32Z</time>
      </trkpt>
      <trkpt lat="46.96208" lon="-0.63564">
        <ele>145.6</ele>
        <time>2012-04-01T07:15:33Z</time>
      </trkpt>
      <trkpt lat="46.96205" lon="-0.6357">
        <ele>145.6</ele>
        <time>2012-04-01T07:15:34Z</time>
      </trkpt>
      <trkpt lat="46.96203" lon="-0.63577">
        <ele>145.5</ele>
        <time>2012-04-01T07:15:35Z</time>
      </trkpt>
      <trkpt lat="46.962" lon="-0.63583">
        <ele>145.5</ele>
        <time>2012-04-01T07:15:36Z</time>
      </trkpt>
      <trkpt lat="46.96197" lon="-0.6359">
        <ele>145.5</ele>
        <time>2012-04-01T07:15:37Z</time>
      </trkpt>
      <trkpt lat="46.96195" lon="-0.63596">
        <ele>145.5</ele>
        <time>2012-04-01T07:15:38Z</time>
      </trkpt>
      <trkpt lat="46.96192" lon="-0.63603">
        <ele>145.5</ele>
        <time>2012-04-01T07:15:39Z</time>
      </trkpt>
      <trkpt lat="46.96189" lon="-0.63609">
        <ele>145.5</ele>
        <time>2012-04-01T07:15:40Z</time>
      </trkpt>
      <trkpt lat="46.96187" lon="-0.63615">
        <ele>145.5</ele>
        <time>2012-04-01T07:15:41Z</time>
      </trkpt>
      <trkpt lat="46.96184" lon="-0.63622">
        <ele>145.5</ele>
        <time>2012-04-01T07:15:42Z</time>
      </trkpt>
      <trkpt lat="46.96182" lon="-0.63628">
        <ele>145.5</ele>
        <time>2012-04-01T07:15:43Z</time>
      </trkpt>
      <trkpt lat="46.96179" lon="-0.63634">
        <ele>145.3</ele>
        <time>2012-04-01T07:15:44Z</time>
      </trkpt>
      <trkpt lat="46.96177" lon="-0.6364">
        <ele>145.3</ele>
        <time>2012-04-01T07:15:45Z</time>
      </trkpt>
      <trkpt lat="46.96172" lon="-0.63651">
        <ele>145.3</ele>
        <time>2012-04-01T07:15:47Z</time>
      </trkpt>
      <trkpt lat="46.96168" lon="-0.63661">
        <ele>145.3</ele>
        <time>2012-04-01T07:15:49Z</time>
      </trkpt>
      <trkpt lat="46.96164" lon="-0.63672">
        <ele>145.3</ele>
        <time>2012-04-01T07:15:51Z</time>
      </trkpt>
      <trkpt lat="46.9616" lon="-0.63683">
        <ele>145.3</ele>
        <time>2012-04-01T07:15:53Z</time>
      </trkpt>
      <trkpt lat="46.96155" lon="-0.63694">
        <ele>145.3</ele>
        <time>2012-04-01T07:15:55Z</time>
      </trkpt>
      <trkpt lat="46.96151" lon="-0.63705">
        <ele>145.3</ele>
        <time>2012-04-01T07:15:57Z</time>
      </trkpt>
      <trkpt lat="46.96146" lon="-0.63715">
        <ele>145.3</ele>
        <time>2012-04-01T07:15:59Z</time>
      </trkpt>
      <trkpt lat="46.96142" lon="-0.63726">
        <ele>145.3</ele>
        <time>2012-04-01T07:16:01Z</time>
      </trkpt>
      <trkpt lat="46.96138" lon="-0.63737">
        <ele>145.3</ele>
        <time>2012-04-01T07:16:03Z</time>
      </trkpt>
      <trkpt lat="46.96134" lon="-0.63748">
        <ele>145.5</ele>
        <time>2012-04-01T07:16:05Z</time>
      </trkpt>
      <trkpt lat="46.96131" lon="-0.63759">
        <ele>145.5</ele>
        <time>2012-04-01T07:16:07Z</time>
      </trkpt>
      <trkpt lat="46.96128" lon="-0.6377">
        <ele>145.6</ele>
        <time>2012-04-01T07:16:09Z</time>
      </trkpt>
      <trkpt lat="46.96126" lon="-0.63782">
        <ele>145.6</ele>
        <time>2012-04-01T07:16:11Z</time>
      </trkpt>
      <trkpt lat="46.96125" lon="-0.63789">
        <ele>145.6</ele>
        <time>2012-04-01T07:16:12Z</time>
      </trkpt>
      <trkpt lat="46.96124" lon="-0.63796">
        <ele>145.6</ele>
        <time>2012-04-01T07:16:13Z</time>
      </trkpt>
      <trkpt lat="46.96123" lon="-0.63804">
        <ele>145.6</ele>
        <time>2012-04-01T07:16:14Z</time>
      </trkpt>
      <trkpt lat="46.96122" lon="-0.63813">
        <ele>145.5</ele>
        <time>2012-04-01T07:16:15Z</time>
      </trkpt>
      <trkpt lat="46.96121" lon="-0.63822">
        <ele>145.3</ele>
        <time>2012-04-01T07:16:16Z</time>
      </trkpt>
      <trkpt lat="46.9612" lon="-0.63832">
        <ele>145.3</ele>
        <time>2012-04-01T07:16:17Z</time>
      </trkpt>
      <trkpt lat="46.96117" lon="-0.63842">
        <ele>145.1</ele>
        <time>2012-04-01T07:16:18Z</time>
      </trkpt>
      <trkpt lat="46.96114" lon="-0.63852">
        <ele>145</ele>
        <time>2012-04-01T07:16:19Z</time>
      </trkpt>
      <trkpt lat="46.96109" lon="-0.63861">
        <ele>144.8</ele>
        <time>2012-04-01T07:16:20Z</time>
      </trkpt>
      <trkpt lat="46.96103" lon="-0.63869">
        <ele>144.8</ele>
        <time>2012-04-01T07:16:21Z</time>
      </trkpt>
      <trkpt lat="46.96098" lon="-0.63876">
        <ele>144.6</ele>
        <time>2012-04-01T07:16:22Z</time>
      </trkpt>
      <trkpt lat="46.96092" lon="-0.63883">
        <ele>144.6</ele>
        <time>2012-04-01T07:16:23Z</time>
      </trkpt>
      <trkpt lat="46.96088" lon="-0.63889">
        <ele>144.6</ele>
        <time>2012-04-01T07:16:24Z</time>
      </trkpt>
      <trkpt lat="46.96081" lon="-0.63897">
        <ele>144.5</ele>
        <time>2012-04-01T07:16:26Z</time>
      </trkpt>
      <trkpt lat="46.96081" lon="-0.6391">
        <ele>144.5</ele>
        <time>2012-04-01T07:16:29Z</time>
      </trkpt>
      <trkpt lat="46.96084" lon="-0.63921">
        <ele>144.5</ele>
        <time>2012-04-01T07:16:32Z</time>
      </trkpt>
      <trkpt lat="46.96086" lon="-0.63933">
        <ele>144.3</ele>
        <time>2012-04-01T07:16:35Z</time>
      </trkpt>
      <trkpt lat="46.96088" lon="-0.63944">
        <ele>144.3</ele>
        <time>2012-04-01T07:16:38Z</time>
      </trkpt>
      <trkpt lat="46.9609" lon="-0.63953">
        <ele>144.3</ele>
        <time>2012-04-01T07:16:40Z</time>
      </trkpt>
      <trkpt lat="46.96092" lon="-0.63965">
        <ele>144.3</ele>
        <time>2012-04-01T07:16:43Z</time>
      </trkpt>
      <trkpt lat="46.96091" lon="-0.63977">
        <ele>144.3</ele>
        <time>2012-04-01T07:16:46Z</time>
      </trkpt>
      <trkpt lat="46.9609" lon="-0.63981">
        <ele>144.3</ele>
        <time>2012-04-01T07:16:47Z</time>
      </trkpt>
      <trkpt lat="46.96083" lon="-0.63999">
        <ele>144.1</ele>
        <time>2012-04-01T07:16:52Z</time>
      </trkpt>
      <trkpt lat="46.96078" lon="-0.64009">
        <ele>144.1</ele>
        <time>2012-04-01T07:16:55Z</time>
      </trkpt>
      <trkpt lat="46.96074" lon="-0.6402">
        <ele>144.1</ele>
        <time>2012-04-01T07:16:59Z</time>
      </trkpt>
      <trkpt lat="46.96077" lon="-0.64029">
        <ele>144.1</ele>
        <time>2012-04-01T07:17:13Z</time>
      </trkpt>
      <trkpt lat="46.96082" lon="-0.64036">
        <ele>144.1</ele>
        <time>2012-04-01T07:17:16Z</time>
      </trkpt>
      <trkpt lat="46.96089" lon="-0.64044">
        <ele>144.1</ele>
        <time>2012-04-01T07:17:19Z</time>
      </trkpt>
      <trkpt lat="46.96095" lon="-0.64049">
        <ele>144.1</ele>
        <time>2012-04-01T07:17:21Z</time>
      </trkpt>
      <trkpt lat="46.961" lon="-0.64054">
        <ele>144.1</ele>
        <time>2012-04-01T07:17:23Z</time>
      </trkpt>
      <trkpt lat="46.96106" lon="-0.6406">
        <ele>144.1</ele>
        <time>2012-04-01T07:17:25Z</time>
      </trkpt>
      <trkpt lat="46.96112" lon="-0.64066">
        <ele>144.1</ele>
        <time>2012-04-01T07:17:27Z</time>
      </trkpt>
      <trkpt lat="46.96118" lon="-0.64071">
        <ele>144.1</ele>
        <time>2012-04-01T07:17:29Z</time>
      </trkpt>
      <trkpt lat="46.96123" lon="-0.64076">
        <ele>144.1</ele>
        <time>2012-04-01T07:17:31Z</time>
      </trkpt>
      <trkpt lat="46.96129" lon="-0.64081">
        <ele>144.1</ele>
        <time>2012-04-01T07:17:33Z</time>
      </trkpt>
      <trkpt lat="46.96134" lon="-0.64086">
        <ele>144.1</ele>
        <time>2012-04-01T07:17:35Z</time>
      </trkpt>
      <trkpt lat="46.96139" lon="-0.64092">
        <ele>144.1</ele>
        <time>2012-04-01T07:17:37Z</time>
      </trkpt>
      <trkpt lat="46.96145" lon="-0.64097">
        <ele>144.1</ele>
        <time>2012-04-01T07:17:39Z</time>
      </trkpt>
      <trkpt lat="46.9615" lon="-0.64102">
        <ele>144.1</ele>
        <time>2012-04-01T07:17:41Z</time>
      </trkpt>
      <trkpt lat="46.96155" lon="-0.64107">
        <ele>144.1</ele>
        <time>2012-04-01T07:17:43Z</time>
      </trkpt>
      <trkpt lat="46.9616" lon="-0.64113">
        <ele>144.1</ele>
        <time>2012-04-01T07:17:45Z</time>
      </trkpt>
      <trkpt lat="46.96165" lon="-0.64118">
        <ele>144.1</ele>
        <time>2012-04-01T07:17:47Z</time>
      </trkpt>
      <trkpt lat="46.96167" lon="-0.6412">
        <ele>144.1</ele>
        <time>2012-04-01T07:17:48Z</time>
      </trkpt>
      <trkpt lat="46.96179" lon="-0.64132">
        <ele>144.1</ele>
        <time>2012-04-01T07:17:53Z</time>
      </trkpt>
      <trkpt lat="46.96184" lon="-0.64137">
        <ele>144.1</ele>
        <time>2012-04-01T07:17:55Z</time>
      </trkpt>
      <trkpt lat="46.96189" lon="-0.64143">
        <ele>144.1</ele>
        <time>2012-04-01T07:17:57Z</time>
      </trkpt>
      <trkpt lat="46.96195" lon="-0.64149">
        <ele>144.1</ele>
        <time>2012-04-01T07:17:59Z</time>
      </trkpt>
      <trkpt lat="46.96201" lon="-0.64155">
        <ele>144.1</ele>
        <time>2012-04-01T07:18:01Z</time>
      </trkpt>
      <trkpt lat="46.96207" lon="-0.64161">
        <ele>144.1</ele>
        <time>2012-04-01T07:18:03Z</time>
      </trkpt>
      <trkpt lat="46.96214" lon="-0.64167">
        <ele>144.1</ele>
        <time>2012-04-01T07:18:05Z</time>
      </trkpt>
      <trkpt lat="46.9622" lon="-0.64172">
        <ele>144</ele>
        <time>2012-04-01T07:18:07Z</time>
      </trkpt>
      <trkpt lat="46.96227" lon="-0.64178">
        <ele>144</ele>
        <time>2012-04-01T07:18:09Z</time>
      </trkpt>
      <trkpt lat="46.96233" lon="-0.64184">
        <ele>144</ele>
        <time>2012-04-01T07:18:11Z</time>
      </trkpt>
      <trkpt lat="46.96239" lon="-0.64189">
        <ele>144</ele>
        <time>2012-04-01T07:18:13Z</time>
      </trkpt>
      <trkpt lat="46.96245" lon="-0.64194">
        <ele>143.8</ele>
        <time>2012-04-01T07:18:15Z</time>
      </trkpt>
      <trkpt lat="46.9625" lon="-0.64199">
        <ele>143.8</ele>
        <time>2012-04-01T07:18:17Z</time>
      </trkpt>
      <trkpt lat="46.96256" lon="-0.64205">
        <ele>143.8</ele>
        <time>2012-04-01T07:18:19Z</time>
      </trkpt>
      <trkpt lat="46.96261" lon="-0.64211">
        <ele>143.8</ele>
        <time>2012-04-01T07:18:21Z</time>
      </trkpt>
      <trkpt lat="46.96267" lon="-0.64217">
        <ele>143.8</ele>
        <time>2012-04-01T07:18:23Z</time>
      </trkpt>
      <trkpt lat="46.96272" lon="-0.64223">
        <ele>143.8</ele>
        <time>2012-04-01T07:18:25Z</time>
      </trkpt>
      <trkpt lat="46.96278" lon="-0.6423">
        <ele>143.8</ele>
        <time>2012-04-01T07:18:27Z</time>
      </trkpt>
      <trkpt lat="46.96284" lon="-0.64236">
        <ele>143.8</ele>
        <time>2012-04-01T07:18:29Z</time>
      </trkpt>
      <trkpt lat="46.9629" lon="-0.64242">
        <ele>143.8</ele>
        <time>2012-04-01T07:18:31Z</time>
      </trkpt>
      <trkpt lat="46.96296" lon="-0.64248">
        <ele>143.8</ele>
        <time>2012-04-01T07:18:33Z</time>
      </trkpt>
      <trkpt lat="46.96302" lon="-0.64253">
        <ele>143.8</ele>
        <time>2012-04-01T07:18:35Z</time>
      </trkpt>
      <trkpt lat="46.96309" lon="-0.64259">
        <ele>143.8</ele>
        <time>2012-04-01T07:18:37Z</time>
      </trkpt>
      <trkpt lat="46.96317" lon="-0.64261">
        <ele>143.8</ele>
        <time>2012-04-01T07:18:39Z</time>
      </trkpt>
      <trkpt lat="46.96325" lon="-0.64264">
        <ele>143.8</ele>
        <time>2012-04-01T07:18:41Z</time>
      </trkpt>
      <trkpt lat="46.96332" lon="-0.64266">
        <ele>143.8</ele>
        <time>2012-04-01T07:18:43Z</time>
      </trkpt>
      <trkpt lat="46.9634" lon="-0.64268">
        <ele>143.8</ele>
        <time>2012-04-01T07:18:45Z</time>
      </trkpt>
      <trkpt lat="46.96347" lon="-0.64271">
        <ele>143.8</ele>
        <time>2012-04-01T07:18:47Z</time>
      </trkpt>
      <trkpt lat="46.96354" lon="-0.64273">
        <ele>143.8</ele>
        <time>2012-04-01T07:18:49Z</time>
      </trkpt>
      <trkpt lat="46.96358" lon="-0.64275">
        <ele>143.8</ele>
        <time>2012-04-01T07:18:50Z</time>
      </trkpt>
      <trkpt lat="46.96368" lon="-0.64279">
        <ele>143.8</ele>
        <time>2012-04-01T07:18:53Z</time>
      </trkpt>
      <trkpt lat="46.96375" lon="-0.64282">
        <ele>143.8</ele>
        <time>2012-04-01T07:18:55Z</time>
      </trkpt>
      <trkpt lat="46.96383" lon="-0.64285">
        <ele>143.8</ele>
        <time>2012-04-01T07:18:57Z</time>
      </trkpt>
      <trkpt lat="46.96391" lon="-0.64288">
        <ele>143.8</ele>
        <time>2012-04-01T07:18:59Z</time>
      </trkpt>
      <trkpt lat="46.96398" lon="-0.64292">
        <ele>143.8</ele>
        <time>2012-04-01T07:19:01Z</time>
      </trkpt>
      <trkpt lat="46.96405" lon="-0.64295">
        <ele>144</ele>
        <time>2012-04-01T07:19:03Z</time>
      </trkpt>
      <trkpt lat="46.96413" lon="-0.64299">
        <ele>144</ele>
        <time>2012-04-01T07:19:05Z</time>
      </trkpt>
      <trkpt lat="46.9642" lon="-0.64303">
        <ele>144</ele>
        <time>2012-04-01T07:19:07Z</time>
      </trkpt>
      <trkpt lat="46.96427" lon="-0.64307">
        <ele>144</ele>
        <time>2012-04-01T07:19:09Z</time>
      </trkpt>
      <trkpt lat="46.96434" lon="-0.64311">
        <ele>144.1</ele>
        <time>2012-04-01T07:19:11Z</time>
      </trkpt>
      <trkpt lat="46.96441" lon="-0.64315">
        <ele>144.1</ele>
        <time>2012-04-01T07:19:13Z</time>
      </trkpt>
      <trkpt lat="46.96447" lon="-0.6432">
        <ele>144.1</ele>
        <time>2012-04-01T07:19:15Z</time>
      </trkpt>
      <trkpt lat="46.96454" lon="-0.64324">
        <ele>144.1</ele>
        <time>2012-04-01T07:19:17Z</time>
      </trkpt>
      <trkpt lat="46.9646" lon="-0.64328">
        <ele>144.3</ele>
        <time>2012-04-01T07:19:19Z</time>
      </trkpt>
      <trkpt lat="46.96466" lon="-0.64333">
        <ele>144.3</ele>
        <time>2012-04-01T07:19:21Z</time>
      </trkpt>
      <trkpt lat="46.96473" lon="-0.64337">
        <ele>144.3</ele>
        <time>2012-04-01T07:19:23Z</time>
      </trkpt>
      <trkpt lat="46.9648" lon="-0.64341">
        <ele>144.3</ele>
        <time>2012-04-01T07:19:25Z</time>
      </trkpt>
      <trkpt lat="46.96487" lon="-0.64346">
        <ele>144.5</ele>
        <time>2012-04-01T07:19:27Z</time>
      </trkpt>
      <trkpt lat="46.96494" lon="-0.6435">
        <ele>144.6</ele>
        <time>2012-04-01T07:19:29Z</time>
      </trkpt>
      <trkpt lat="46.96501" lon="-0.64354">
        <ele>144.8</ele>
        <time>2012-04-01T07:19:31Z</time>
      </trkpt>
      <trkpt lat="46.96508" lon="-0.64356">
        <ele>144.8</ele>
        <time>2012-04-01T07:19:33Z</time>
      </trkpt>
      <trkpt lat="46.96515" lon="-0.64357">
        <ele>144.8</ele>
        <time>2012-04-01T07:19:35Z</time>
      </trkpt>
      <trkpt lat="46.96522" lon="-0.64357">
        <ele>144.8</ele>
        <time>2012-04-01T07:19:37Z</time>
      </trkpt>
      <trkpt lat="46.9653" lon="-0.64357">
        <ele>144.8</ele>
        <time>2012-04-01T07:19:39Z</time>
      </trkpt>
      <trkpt lat="46.96537" lon="-0.64358">
        <ele>145</ele>
        <time>2012-04-01T07:19:41Z</time>
      </trkpt>
      <trkpt lat="46.96543" lon="-0.64356">
        <ele>145</ele>
        <time>2012-04-01T07:19:43Z</time>
      </trkpt>
      <trkpt lat="46.9655" lon="-0.64354">
        <ele>145.1</ele>
        <time>2012-04-01T07:19:45Z</time>
      </trkpt>
      <trkpt lat="46.96558" lon="-0.64354">
        <ele>145.1</ele>
        <time>2012-04-01T07:19:47Z</time>
      </trkpt>
      <trkpt lat="46.96565" lon="-0.64355">
        <ele>145.1</ele>
        <time>2012-04-01T07:19:49Z</time>
      </trkpt>
      <trkpt lat="46.96573" lon="-0.64357">
        <ele>145.1</ele>
        <time>2012-04-01T07:19:51Z</time>
      </trkpt>
      <trkpt lat="46.96577" lon="-0.64358">
        <ele>145.1</ele>
        <time>2012-04-01T07:19:52Z</time>
      </trkpt>
      <trkpt lat="46.96588" lon="-0.64362">
        <ele>145.3</ele>
        <time>2012-04-01T07:19:55Z</time>
      </trkpt>
      <trkpt lat="46.96595" lon="-0.64365">
        <ele>145.3</ele>
        <time>2012-04-01T07:19:57Z</time>
      </trkpt>
      <trkpt lat="46.96603" lon="-0.64368">
        <ele>145.6</ele>
        <time>2012-04-01T07:19:59Z</time>
      </trkpt>
      <trkpt lat="46.9661" lon="-0.64373">
        <ele>145.8</ele>
        <time>2012-04-01T07:20:01Z</time>
      </trkpt>
      <trkpt lat="46.96618" lon="-0.64379">
        <ele>146.1</ele>
        <time>2012-04-01T07:20:03Z</time>
      </trkpt>
      <trkpt lat="46.96624" lon="-0.64387">
        <ele>146.5</ele>
        <time>2012-04-01T07:20:05Z</time>
      </trkpt>
      <trkpt lat="46.9663" lon="-0.64397">
        <ele>146.6</ele>
        <time>2012-04-01T07:20:07Z</time>
      </trkpt>
      <trkpt lat="46.96634" lon="-0.64408">
        <ele>146.8</ele>
        <time>2012-04-01T07:20:09Z</time>
      </trkpt>
      <trkpt lat="46.96638" lon="-0.64419">
        <ele>147</ele>
        <time>2012-04-01T07:20:11Z</time>
      </trkpt>
      <trkpt lat="46.96641" lon="-0.64431">
        <ele>147</ele>
        <time>2012-04-01T07:20:13Z</time>
      </trkpt>
      <trkpt lat="46.96644" lon="-0.64442">
        <ele>147.1</ele>
        <time>2012-04-01T07:20:15Z</time>
      </trkpt>
      <trkpt lat="46.96647" lon="-0.64452">
        <ele>147.1</ele>
        <time>2012-04-01T07:20:17Z</time>
      </trkpt>
      <trkpt lat="46.96652" lon="-0.64462">
        <ele>147.3</ele>
        <time>2012-04-01T07:20:19Z</time>
      </trkpt>
      <trkpt lat="46.96656" lon="-0.64472">
        <ele>147.5</ele>
        <time>2012-04-01T07:20:21Z</time>
      </trkpt>
      <trkpt lat="46.96661" lon="-0.64482">
        <ele>147.6</ele>
        <time>2012-04-01T07:20:23Z</time>
      </trkpt>
      <trkpt lat="46.96666" lon="-0.64491">
        <ele>147.6</ele>
        <time>2012-04-01T07:20:25Z</time>
      </trkpt>
      <trkpt lat="46.96673" lon="-0.64497">
        <ele>147.8</ele>
        <time>2012-04-01T07:20:27Z</time>
      </trkpt>
      <trkpt lat="46.9668" lon="-0.64503">
        <ele>147.8</ele>
        <time>2012-04-01T07:20:29Z</time>
      </trkpt>
      <trkpt lat="46.96687" lon="-0.64506">
        <ele>147.8</ele>
        <time>2012-04-01T07:20:31Z</time>
      </trkpt>
      <trkpt lat="46.96694" lon="-0.64508">
        <ele>147.8</ele>
        <time>2012-04-01T07:20:33Z</time>
      </trkpt>
      <trkpt lat="46.96701" lon="-0.6451">
        <ele>148</ele>
        <time>2012-04-01T07:20:35Z</time>
      </trkpt>
      <trkpt lat="46.96709" lon="-0.64512">
        <ele>148.1</ele>
        <time>2012-04-01T07:20:37Z</time>
      </trkpt>
      <trkpt lat="46.96717" lon="-0.64515">
        <ele>148.3</ele>
        <time>2012-04-01T07:20:39Z</time>
      </trkpt>
      <trkpt lat="46.96725" lon="-0.64518">
        <ele>148.5</ele>
        <time>2012-04-01T07:20:41Z</time>
      </trkpt>
      <trkpt lat="46.96734" lon="-0.64523">
        <ele>148.6</ele>
        <time>2012-04-01T07:20:43Z</time>
      </trkpt>
      <trkpt lat="46.96738" lon="-0.64525">
        <ele>148.8</ele>
        <time>2012-04-01T07:20:44Z</time>
      </trkpt>
      <trkpt lat="46.96742" lon="-0.64527">
        <ele>148.8</ele>
        <time>2012-04-01T07:20:45Z</time>
      </trkpt>
      <trkpt lat="46.96747" lon="-0.64529">
        <ele>148.8</ele>
        <time>2012-04-01T07:20:46Z</time>
      </trkpt>
      <trkpt lat="46.96751" lon="-0.64532">
        <ele>148.8</ele>
        <time>2012-04-01T07:20:47Z</time>
      </trkpt>
      <trkpt lat="46.96756" lon="-0.64534">
        <ele>149</ele>
        <time>2012-04-01T07:20:48Z</time>
      </trkpt>
      <trkpt lat="46.9676" lon="-0.64536">
        <ele>149.1</ele>
        <time>2012-04-01T07:20:49Z</time>
      </trkpt>
      <trkpt lat="46.96765" lon="-0.64538">
        <ele>149.1</ele>
        <time>2012-04-01T07:20:50Z</time>
      </trkpt>
      <trkpt lat="46.96769" lon="-0.6454">
        <ele>149.1</ele>
        <time>2012-04-01T07:20:51Z</time>
      </trkpt>
      <trkpt lat="46.96777" lon="-0.64544">
        <ele>149.3</ele>
        <time>2012-04-01T07:20:53Z</time>
      </trkpt>
      <trkpt lat="46.96782" lon="-0.64546">
        <ele>149.3</ele>
        <time>2012-04-01T07:20:54Z</time>
      </trkpt>
      <trkpt lat="46.96794" lon="-0.64552">
        <ele>149.6</ele>
        <time>2012-04-01T07:20:57Z</time>
      </trkpt>
      <trkpt lat="46.96802" lon="-0.64556">
        <ele>149.6</ele>
        <time>2012-04-01T07:20:59Z</time>
      </trkpt>
      <trkpt lat="46.96809" lon="-0.6456">
        <ele>149.6</ele>
        <time>2012-04-01T07:21:01Z</time>
      </trkpt>
      <trkpt lat="46.96816" lon="-0.64565">
        <ele>149.6</ele>
        <time>2012-04-01T07:21:03Z</time>
      </trkpt>
      <trkpt lat="46.96823" lon="-0.64571">
        <ele>149.6</ele>
        <time>2012-04-01T07:21:05Z</time>
      </trkpt>
      <trkpt lat="46.9683" lon="-0.64579">
        <ele>150</ele>
        <time>2012-04-01T07:21:07Z</time>
      </trkpt>
      <trkpt lat="46.96837" lon="-0.64587">
        <ele>150.1</ele>
        <time>2012-04-01T07:21:09Z</time>
      </trkpt>
      <trkpt lat="46.96844" lon="-0.64595">
        <ele>150.3</ele>
        <time>2012-04-01T07:21:11Z</time>
      </trkpt>
      <trkpt lat="46.96852" lon="-0.64601">
        <ele>150.5</ele>
        <time>2012-04-01T07:21:13Z</time>
      </trkpt>
      <trkpt lat="46.96856" lon="-0.64603">
        <ele>150.5</ele>
        <time>2012-04-01T07:21:14Z</time>
      </trkpt>
      <trkpt lat="46.96864" lon="-0.64609">
        <ele>150.6</ele>
        <time>2012-04-01T07:21:16Z</time>
      </trkpt>
      <trkpt lat="46.96871" lon="-0.64615">
        <ele>150.6</ele>
        <time>2012-04-01T07:21:18Z</time>
      </trkpt>
      <trkpt lat="46.96877" lon="-0.64622">
        <ele>150.6</ele>
        <time>2012-04-01T07:21:20Z</time>
      </trkpt>
      <trkpt lat="46.96884" lon="-0.64628">
        <ele>150.6</ele>
        <time>2012-04-01T07:21:22Z</time>
      </trkpt>
      <trkpt lat="46.96893" lon="-0.64629">
        <ele>150.5</ele>
        <time>2012-04-01T07:21:25Z</time>
      </trkpt>
      <trkpt lat="46.96902" lon="-0.64629">
        <ele>150.3</ele>
        <time>2012-04-01T07:21:30Z</time>
      </trkpt>
      <trkpt lat="46.9691" lon="-0.64629">
        <ele>150.3</ele>
        <time>2012-04-01T07:21:37Z</time>
      </trkpt>
      <trkpt lat="46.96918" lon="-0.64629">
        <ele>150.3</ele>
        <time>2012-04-01T07:21:41Z</time>
      </trkpt>
      <trkpt lat="46.96925" lon="-0.64628">
        <ele>150.3</ele>
        <time>2012-04-01T07:21:44Z</time>
      </trkpt>
      <trkpt lat="46.96931" lon="-0.64627">
        <ele>150.1</ele>
        <time>2012-04-01T07:21:46Z</time>
      </trkpt>
      <trkpt lat="46.96938" lon="-0.64626">
        <ele>150.1</ele>
        <time>2012-04-01T07:21:48Z</time>
      </trkpt>
      <trkpt lat="46.96945" lon="-0.64625">
        <ele>150.1</ele>
        <time>2012-04-01T07:21:50Z</time>
      </trkpt>
      <trkpt lat="46.96952" lon="-0.64623">
        <ele>150.1</ele>
        <time>2012-04-01T07:21:52Z</time>
      </trkpt>
      <trkpt lat="46.9696" lon="-0.64621">
        <ele>150.1</ele>
        <time>2012-04-01T07:21:54Z</time>
      </trkpt>
      <trkpt lat="46.96963" lon="-0.64619">
        <ele>150.1</ele>
        <time>2012-04-01T07:21:55Z</time>
      </trkpt>
      <trkpt lat="46.96974" lon="-0.64615">
        <ele>150.1</ele>
        <time>2012-04-01T07:21:58Z</time>
      </trkpt>
      <trkpt lat="46.96981" lon="-0.64612">
        <ele>150.1</ele>
        <time>2012-04-01T07:22:00Z</time>
      </trkpt>
      <trkpt lat="46.96988" lon="-0.64609">
        <ele>150.1</ele>
        <time>2012-04-01T07:22:02Z</time>
      </trkpt>
      <trkpt lat="46.96995" lon="-0.64606">
        <ele>150.1</ele>
        <time>2012-04-01T07:22:04Z</time>
      </trkpt>
      <trkpt lat="46.97001" lon="-0.64602">
        <ele>150.1</ele>
        <time>2012-04-01T07:22:06Z</time>
      </trkpt>
      <trkpt lat="46.97007" lon="-0.64598">
        <ele>150.1</ele>
        <time>2012-04-01T07:22:08Z</time>
      </trkpt>
      <trkpt lat="46.97013" lon="-0.64595">
        <ele>150.1</ele>
        <time>2012-04-01T07:22:10Z</time>
      </trkpt>
      <trkpt lat="46.9702" lon="-0.646">
        <ele>150.1</ele>
        <time>2012-04-01T07:22:13Z</time>
      </trkpt>
      <trkpt lat="46.97023" lon="-0.64609">
        <ele>150.1</ele>
        <time>2012-04-01T07:22:15Z</time>
      </trkpt>
      <trkpt lat="46.97025" lon="-0.64619">
        <ele>150.3</ele>
        <time>2012-04-01T07:22:17Z</time>
      </trkpt>
      <trkpt lat="46.97027" lon="-0.6463">
        <ele>150.6</ele>
        <time>2012-04-01T07:22:19Z</time>
      </trkpt>
      <trkpt lat="46.97028" lon="-0.64642">
        <ele>150.8</ele>
        <time>2012-04-01T07:22:21Z</time>
      </trkpt>
      <trkpt lat="46.97029" lon="-0.64653">
        <ele>150.8</ele>
        <time>2012-04-01T07:22:23Z</time>
      </trkpt>
      <trkpt lat="46.9703" lon="-0.64665">
        <ele>151</ele>
        <time>2012-04-01T07:22:25Z</time>
      </trkpt>
      <trkpt lat="46.97031" lon="-0.64677">
        <ele>151</ele>
        <time>2012-04-01T07:22:27Z</time>
      </trkpt>
      <trkpt lat="46.97031" lon="-0.64689">
        <ele>151.1</ele>
        <time>2012-04-01T07:22:29Z</time>
      </trkpt>
      <trkpt lat="46.97032" lon="-0.64701">
        <ele>151.1</ele>
        <time>2012-04-01T07:22:31Z</time>
      </trkpt>
      <trkpt lat="46.97032" lon="-0.64713">
        <ele>151.1</ele>
        <time>2012-04-01T07:22:33Z</time>
      </trkpt>
      <trkpt lat="46.97032" lon="-0.64726">
        <ele>151.1</ele>
        <time>2012-04-01T07:22:35Z</time>
      </trkpt>
      <trkpt lat="46.97032" lon="-0.64738">
        <ele>151.1</ele>
        <time>2012-04-01T07:22:37Z</time>
      </trkpt>
      <trkpt lat="46.97032" lon="-0.64751">
        <ele>151.3</ele>
        <time>2012-04-01T07:22:39Z</time>
      </trkpt>
      <trkpt lat="46.97032" lon="-0.64758">
        <ele>151.3</ele>
        <time>2012-04-01T07:22:40Z</time>
      </trkpt>
      <trkpt lat="46.97032" lon="-0.64765">
        <ele>151.3</ele>
        <time>2012-04-01T07:22:41Z</time>
      </trkpt>
      <trkpt lat="46.97032" lon="-0.64771">
        <ele>151.3</ele>
        <time>2012-04-01T07:22:42Z</time>
      </trkpt>
      <trkpt lat="46.97032" lon="-0.64778">
        <ele>151.3</ele>
        <time>2012-04-01T07:22:43Z</time>
      </trkpt>
      <trkpt lat="46.97032" lon="-0.64785">
        <ele>151.5</ele>
        <time>2012-04-01T07:22:44Z</time>
      </trkpt>
      <trkpt lat="46.97033" lon="-0.64791">
        <ele>151.5</ele>
        <time>2012-04-01T07:22:45Z</time>
      </trkpt>
      <trkpt lat="46.97033" lon="-0.64798">
        <ele>151.6</ele>
        <time>2012-04-01T07:22:46Z</time>
      </trkpt>
      <trkpt lat="46.97034" lon="-0.64811">
        <ele>151.6</ele>
        <time>2012-04-01T07:22:48Z</time>
      </trkpt>
      <trkpt lat="46.97036" lon="-0.64824">
        <ele>151.6</ele>
        <time>2012-04-01T07:22:50Z</time>
      </trkpt>
      <trkpt lat="46.97037" lon="-0.6483">
        <ele>151.8</ele>
        <time>2012-04-01T07:22:51Z</time>
      </trkpt>
      <trkpt lat="46.97038" lon="-0.64837">
        <ele>151.8</ele>
        <time>2012-04-01T07:22:52Z</time>
      </trkpt>
      <trkpt lat="46.9704" lon="-0.6485">
        <ele>151.8</ele>
        <time>2012-04-01T07:22:54Z</time>
      </trkpt>
      <trkpt lat="46.97042" lon="-0.64862">
        <ele>152</ele>
        <time>2012-04-01T07:22:56Z</time>
      </trkpt>
      <trkpt lat="46.97043" lon="-0.64869">
        <ele>152</ele>
        <time>2012-04-01T07:22:57Z</time>
      </trkpt>
      <trkpt lat="46.97045" lon="-0.64887">
        <ele>152.1</ele>
        <time>2012-04-01T07:23:00Z</time>
      </trkpt>
      <trkpt lat="46.97046" lon="-0.649">
        <ele>152.1</ele>
        <time>2012-04-01T07:23:02Z</time>
      </trkpt>
      <trkpt lat="46.97048" lon="-0.64912">
        <ele>152.1</ele>
        <time>2012-04-01T07:23:04Z</time>
      </trkpt>
      <trkpt lat="46.97048" lon="-0.64924">
        <ele>152.1</ele>
        <time>2012-04-01T07:23:06Z</time>
      </trkpt>
      <trkpt lat="46.97049" lon="-0.64936">
        <ele>152.1</ele>
        <time>2012-04-01T07:23:08Z</time>
      </trkpt>
      <trkpt lat="46.9705" lon="-0.64948">
        <ele>152.3</ele>
        <time>2012-04-01T07:23:10Z</time>
      </trkpt>
      <trkpt lat="46.97051" lon="-0.6496">
        <ele>152.3</ele>
        <time>2012-04-01T07:23:12Z</time>
      </trkpt>
      <trkpt lat="46.97052" lon="-0.64971">
        <ele>152.3</ele>
        <time>2012-04-01T07:23:14Z</time>
      </trkpt>
      <trkpt lat="46.97053" lon="-0.64982">
        <ele>152.3</ele>
        <time>2012-04-01T07:23:16Z</time>
      </trkpt>
      <trkpt lat="46.97054" lon="-0.64993">
        <ele>152.3</ele>
        <time>2012-04-01T07:23:18Z</time>
      </trkpt>
      <trkpt lat="46.97055" lon="-0.65005">
        <ele>152.5</ele>
        <time>2012-04-01T07:23:20Z</time>
      </trkpt>
      <trkpt lat="46.97055" lon="-0.65016">
        <ele>152.5</ele>
        <time>2012-04-01T07:23:22Z</time>
      </trkpt>
      <trkpt lat="46.97055" lon="-0.65028">
        <ele>152.6</ele>
        <time>2012-04-01T07:23:24Z</time>
      </trkpt>
      <trkpt lat="46.97054" lon="-0.6504">
        <ele>152.6</ele>
        <time>2012-04-01T07:23:26Z</time>
      </trkpt>
      <trkpt lat="46.97052" lon="-0.65052">
        <ele>152.6</ele>
        <time>2012-04-01T07:23:28Z</time>
      </trkpt>
      <trkpt lat="46.9705" lon="-0.65063">
        <ele>152.6</ele>
        <time>2012-04-01T07:23:30Z</time>
      </trkpt>
      <trkpt lat="46.97048" lon="-0.65069">
        <ele>152.6</ele>
        <time>2012-04-01T07:23:31Z</time>
      </trkpt>
      <trkpt lat="46.97046" lon="-0.65076">
        <ele>152.8</ele>
        <time>2012-04-01T07:23:32Z</time>
      </trkpt>
      <trkpt lat="46.97044" lon="-0.65082">
        <ele>152.6</ele>
        <time>2012-04-01T07:23:33Z</time>
      </trkpt>
      <trkpt lat="46.97041" lon="-0.65089">
        <ele>152.6</ele>
        <time>2012-04-01T07:23:34Z</time>
      </trkpt>
      <trkpt lat="46.97039" lon="-0.65097">
        <ele>152.6</ele>
        <time>2012-04-01T07:23:35Z</time>
      </trkpt>
      <trkpt lat="46.97036" lon="-0.65104">
        <ele>152.5</ele>
        <time>2012-04-01T07:23:36Z</time>
      </trkpt>
      <trkpt lat="46.97034" lon="-0.65112">
        <ele>152.3</ele>
        <time>2012-04-01T07:23:37Z</time>
      </trkpt>
      <trkpt lat="46.97031" lon="-0.6512">
        <ele>152.3</ele>
        <time>2012-04-01T07:23:38Z</time>
      </trkpt>
      <trkpt lat="46.97028" lon="-0.65128">
        <ele>152.3</ele>
        <time>2012-04-01T07:23:39Z</time>
      </trkpt>
      <trkpt lat="46.97025" lon="-0.65137">
        <ele>152.3</ele>
        <time>2012-04-01T07:23:40Z</time>
      </trkpt>
      <trkpt lat="46.97023" lon="-0.65145">
        <ele>152.3</ele>
        <time>2012-04-01T07:23:41Z</time>
      </trkpt>
      <trkpt lat="46.9702" lon="-0.65153">
        <ele>152.3</ele>
        <time>2012-04-01T07:23:42Z</time>
      </trkpt>
      <trkpt lat="46.97017" lon="-0.65161">
        <ele>152.3</ele>
        <time>2012-04-01T07:23:43Z</time>
      </trkpt>
      <trkpt lat="46.97015" lon="-0.65169">
        <ele>152.3</ele>
        <time>2012-04-01T07:23:44Z</time>
      </trkpt>
      <trkpt lat="46.97012" lon="-0.65176">
        <ele>152.3</ele>
        <time>2012-04-01T07:23:45Z</time>
      </trkpt>
      <trkpt lat="46.9701" lon="-0.65183">
        <ele>152.3</ele>
        <time>2012-04-01T07:23:46Z</time>
      </trkpt>
      <trkpt lat="46.97008" lon="-0.6519">
        <ele>152.3</ele>
        <time>2012-04-01T07:23:47Z</time>
      </trkpt>
      <trkpt lat="46.97005" lon="-0.65197">
        <ele>152.3</ele>
        <time>2012-04-01T07:23:48Z</time>
      </trkpt>
      <trkpt lat="46.97003" lon="-0.65204">
        <ele>152.3</ele>
        <time>2012-04-01T07:23:49Z</time>
      </trkpt>
      <trkpt lat="46.97001" lon="-0.65211">
        <ele>152.3</ele>
        <time>2012-04-01T07:23:50Z</time>
      </trkpt>
      <trkpt lat="46.96998" lon="-0.65218">
        <ele>152.3</ele>
        <time>2012-04-01T07:23:51Z</time>
      </trkpt>
      <trkpt lat="46.96996" lon="-0.65224">
        <ele>152.3</ele>
        <time>2012-04-01T07:23:52Z</time>
      </trkpt>
      <trkpt lat="46.96994" lon="-0.65231">
        <ele>152.3</ele>
        <time>2012-04-01T07:23:53Z</time>
      </trkpt>
      <trkpt lat="46.96991" lon="-0.65237">
        <ele>152.3</ele>
        <time>2012-04-01T07:23:54Z</time>
      </trkpt>
      <trkpt lat="46.96989" lon="-0.65244">
        <ele>152.3</ele>
        <time>2012-04-01T07:23:55Z</time>
      </trkpt>
      <trkpt lat="46.96986" lon="-0.6525">
        <ele>152.3</ele>
        <time>2012-04-01T07:23:56Z</time>
      </trkpt>
      <trkpt lat="46.96983" lon="-0.65257">
        <ele>152.3</ele>
        <time>2012-04-01T07:23:57Z</time>
      </trkpt>
      <trkpt lat="46.96981" lon="-0.65263">
        <ele>152.3</ele>
        <time>2012-04-01T07:23:58Z</time>
      </trkpt>
      <trkpt lat="46.96978" lon="-0.6527">
        <ele>152.3</ele>
        <time>2012-04-01T07:23:59Z</time>
      </trkpt>
      <trkpt lat="46.96975" lon="-0.65277">
        <ele>152.3</ele>
        <time>2012-04-01T07:24:00Z</time>
      </trkpt>
      <trkpt lat="46.96972" lon="-0.65283">
        <ele>152.3</ele>
        <time>2012-04-01T07:24:01Z</time>
      </trkpt>
      <trkpt lat="46.9697" lon="-0.6529">
        <ele>152.3</ele>
        <time>2012-04-01T07:24:02Z</time>
      </trkpt>
      <trkpt lat="46.96967" lon="-0.65297">
        <ele>152.3</ele>
        <time>2012-04-01T07:24:03Z</time>
      </trkpt>
      <trkpt lat="46.96964" lon="-0.65303">
        <ele>152.5</ele>
        <time>2012-04-01T07:24:04Z</time>
      </trkpt>
      <trkpt lat="46.96962" lon="-0.6531">
        <ele>152.5</ele>
        <time>2012-04-01T07:24:05Z</time>
      </trkpt>
      <trkpt lat="46.96959" lon="-0.65316">
        <ele>152.6</ele>
        <time>2012-04-01T07:24:06Z</time>
      </trkpt>
      <trkpt lat="46.96956" lon="-0.65323">
        <ele>152.6</ele>
        <time>2012-04-01T07:24:07Z</time>
      </trkpt>
      <trkpt lat="46.96954" lon="-0.65329">
        <ele>152.6</ele>
        <time>2012-04-01T07:24:08Z</time>
      </trkpt>
      <trkpt lat="46.96951" lon="-0.65336">
        <ele>152.6</ele>
        <time>2012-04-01T07:24:09Z</time>
      </trkpt>
      <trkpt lat="46.96949" lon="-0.65342">
        <ele>152.8</ele>
        <time>2012-04-01T07:24:10Z</time>
      </trkpt>
      <trkpt lat="46.96946" lon="-0.65348">
        <ele>152.8</ele>
        <time>2012-04-01T07:24:11Z</time>
      </trkpt>
      <trkpt lat="46.96944" lon="-0.65354">
        <ele>152.8</ele>
        <time>2012-04-01T07:24:12Z</time>
      </trkpt>
      <trkpt lat="46.96941" lon="-0.6536">
        <ele>152.8</ele>
        <time>2012-04-01T07:24:13Z</time>
      </trkpt>
      <trkpt lat="46.96939" lon="-0.65366">
        <ele>152.8</ele>
        <time>2012-04-01T07:24:14Z</time>
      </trkpt>
      <trkpt lat="46.96936" lon="-0.65371">
        <ele>152.8</ele>
        <time>2012-04-01T07:24:15Z</time>
      </trkpt>
      <trkpt lat="46.96934" lon="-0.65377">
        <ele>152.8</ele>
        <time>2012-04-01T07:24:16Z</time>
      </trkpt>
      <trkpt lat="46.96932" lon="-0.65383">
        <ele>152.8</ele>
        <time>2012-04-01T07:24:17Z</time>
      </trkpt>
      <trkpt lat="46.96929" lon="-0.65389">
        <ele>152.8</ele>
        <time>2012-04-01T07:24:18Z</time>
      </trkpt>
      <trkpt lat="46.96927" lon="-0.65395">
        <ele>152.8</ele>
        <time>2012-04-01T07:24:19Z</time>
      </trkpt>
      <trkpt lat="46.96925" lon="-0.65402">
        <ele>152.8</ele>
        <time>2012-04-01T07:24:20Z</time>
      </trkpt>
      <trkpt lat="46.96924" lon="-0.65408">
        <ele>152.8</ele>
        <time>2012-04-01T07:24:21Z</time>
      </trkpt>
      <trkpt lat="46.96923" lon="-0.65415">
        <ele>152.8</ele>
        <time>2012-04-01T07:24:22Z</time>
      </trkpt>
      <trkpt lat="46.96923" lon="-0.65422">
        <ele>152.8</ele>
        <time>2012-04-01T07:24:23Z</time>
      </trkpt>
      <trkpt lat="46.96923" lon="-0.65429">
        <ele>153</ele>
        <time>2012-04-01T07:24:24Z</time>
      </trkpt>
      <trkpt lat="46.96924" lon="-0.65436">
        <ele>153</ele>
        <time>2012-04-01T07:24:25Z</time>
      </trkpt>
      <trkpt lat="46.96925" lon="-0.65443">
        <ele>153.1</ele>
        <time>2012-04-01T07:24:26Z</time>
      </trkpt>
      <trkpt lat="46.96927" lon="-0.6545">
        <ele>153.1</ele>
        <time>2012-04-01T07:24:27Z</time>
      </trkpt>
      <trkpt lat="46.96929" lon="-0.65456">
        <ele>153.3</ele>
        <time>2012-04-01T07:24:28Z</time>
      </trkpt>
      <trkpt lat="46.9693" lon="-0.65463">
        <ele>153.3</ele>
        <time>2012-04-01T07:24:29Z</time>
      </trkpt>
      <trkpt lat="46.96932" lon="-0.6547">
        <ele>153.3</ele>
        <time>2012-04-01T07:24:30Z</time>
      </trkpt>
      <trkpt lat="46.96934" lon="-0.65476">
        <ele>153.5</ele>
        <time>2012-04-01T07:24:31Z</time>
      </trkpt>
      <trkpt lat="46.96936" lon="-0.65483">
        <ele>153.5</ele>
        <time>2012-04-01T07:24:32Z</time>
      </trkpt>
      <trkpt lat="46.96939" lon="-0.6549">
        <ele>153.6</ele>
        <time>2012-04-01T07:24:33Z</time>
      </trkpt>
      <trkpt lat="46.96941" lon="-0.65496">
        <ele>153.6</ele>
        <time>2012-04-01T07:24:34Z</time>
      </trkpt>
      <trkpt lat="46.96943" lon="-0.65503">
        <ele>153.6</ele>
        <time>2012-04-01T07:24:35Z</time>
      </trkpt>
      <trkpt lat="46.96945" lon="-0.65509">
        <ele>153.8</ele>
        <time>2012-04-01T07:24:36Z</time>
      </trkpt>
      <trkpt lat="46.96947" lon="-0.65516">
        <ele>153.8</ele>
        <time>2012-04-01T07:24:37Z</time>
      </trkpt>
      <trkpt lat="46.9695" lon="-0.65522">
        <ele>154.1</ele>
        <time>2012-04-01T07:24:38Z</time>
      </trkpt>
      <trkpt lat="46.96952" lon="-0.65528">
        <ele>154.1</ele>
        <time>2012-04-01T07:24:39Z</time>
      </trkpt>
      <trkpt lat="46.96954" lon="-0.65534">
        <ele>154.3</ele>
        <time>2012-04-01T07:24:40Z</time>
      </trkpt>
      <trkpt lat="46.96957" lon="-0.6554">
        <ele>154.5</ele>
        <time>2012-04-01T07:24:41Z</time>
      </trkpt>
      <trkpt lat="46.96959" lon="-0.65547">
        <ele>154.6</ele>
        <time>2012-04-01T07:24:42Z</time>
      </trkpt>
      <trkpt lat="46.96962" lon="-0.65553">
        <ele>154.6</ele>
        <time>2012-04-01T07:24:43Z</time>
      </trkpt>
      <trkpt lat="46.96964" lon="-0.65559">
        <ele>154.6</ele>
        <time>2012-04-01T07:24:44Z</time>
      </trkpt>
      <trkpt lat="46.96966" lon="-0.65565">
        <ele>154.8</ele>
        <time>2012-04-01T07:24:45Z</time>
      </trkpt>
      <trkpt lat="46.96968" lon="-0.65571">
        <ele>154.8</ele>
        <time>2012-04-01T07:24:46Z</time>
      </trkpt>
      <trkpt lat="46.9697" lon="-0.65578">
        <ele>154.8</ele>
        <time>2012-04-01T07:24:47Z</time>
      </trkpt>
      <trkpt lat="46.96973" lon="-0.65584">
        <ele>154.8</ele>
        <time>2012-04-01T07:24:48Z</time>
      </trkpt>
      <trkpt lat="46.96975" lon="-0.65591">
        <ele>155</ele>
        <time>2012-04-01T07:24:49Z</time>
      </trkpt>
      <trkpt lat="46.96977" lon="-0.65598">
        <ele>155</ele>
        <time>2012-04-01T07:24:50Z</time>
      </trkpt>
      <trkpt lat="46.96979" lon="-0.65604">
        <ele>155.1</ele>
        <time>2012-04-01T07:24:51Z</time>
      </trkpt>
      <trkpt lat="46.96981" lon="-0.65611">
        <ele>155.1</ele>
        <time>2012-04-01T07:24:52Z</time>
      </trkpt>
      <trkpt lat="46.96983" lon="-0.65618">
        <ele>155.1</ele>
        <time>2012-04-01T07:24:53Z</time>
      </trkpt>
      <trkpt lat="46.96985" lon="-0.65624">
        <ele>155.1</ele>
        <time>2012-04-01T07:24:54Z</time>
      </trkpt>
      <trkpt lat="46.96987" lon="-0.65631">
        <ele>155.3</ele>
        <time>2012-04-01T07:24:55Z</time>
      </trkpt>
      <trkpt lat="46.9699" lon="-0.65638">
        <ele>155.3</ele>
        <time>2012-04-01T07:24:56Z</time>
      </trkpt>
      <trkpt lat="46.96992" lon="-0.65644">
        <ele>155.6</ele>
        <time>2012-04-01T07:24:57Z</time>
      </trkpt>
      <trkpt lat="46.96994" lon="-0.65651">
        <ele>155.6</ele>
        <time>2012-04-01T07:24:58Z</time>
      </trkpt>
      <trkpt lat="46.96996" lon="-0.65658">
        <ele>155.8</ele>
        <time>2012-04-01T07:24:59Z</time>
      </trkpt>
      <trkpt lat="46.96998" lon="-0.65664">
        <ele>155.8</ele>
        <time>2012-04-01T07:25:00Z</time>
      </trkpt>
      <trkpt lat="46.97" lon="-0.65671">
        <ele>155.8</ele>
        <time>2012-04-01T07:25:01Z</time>
      </trkpt>
      <trkpt lat="46.97003" lon="-0.65677">
        <ele>156</ele>
        <time>2012-04-01T07:25:02Z</time>
      </trkpt>
      <trkpt lat="46.97005" lon="-0.65684">
        <ele>156</ele>
        <time>2012-04-01T07:25:03Z</time>
      </trkpt>
      <trkpt lat="46.97007" lon="-0.6569">
        <ele>156</ele>
        <time>2012-04-01T07:25:04Z</time>
      </trkpt>
      <trkpt lat="46.97009" lon="-0.65697">
        <ele>156.1</ele>
        <time>2012-04-01T07:25:05Z</time>
      </trkpt>
      <trkpt lat="46.97011" lon="-0.65703">
        <ele>156.3</ele>
        <time>2012-04-01T07:25:06Z</time>
      </trkpt>
      <trkpt lat="46.97013" lon="-0.6571">
        <ele>156.5</ele>
        <time>2012-04-01T07:25:07Z</time>
      </trkpt>
      <trkpt lat="46.97015" lon="-0.65717">
        <ele>156.6</ele>
        <time>2012-04-01T07:25:08Z</time>
      </trkpt>
      <trkpt lat="46.97017" lon="-0.65723">
        <ele>156.8</ele>
        <time>2012-04-01T07:25:09Z</time>
      </trkpt>
      <trkpt lat="46.97019" lon="-0.65729">
        <ele>157.1</ele>
        <time>2012-04-01T07:25:10Z</time>
      </trkpt>
      <trkpt lat="46.97022" lon="-0.65742">
        <ele>157.6</ele>
        <time>2012-04-01T07:25:12Z</time>
      </trkpt>
      <trkpt lat="46.97021" lon="-0.65754">
        <ele>158.1</ele>
        <time>2012-04-01T07:25:14Z</time>
      </trkpt>
      <trkpt lat="46.9702" lon="-0.65763">
        <ele>158.1</ele>
        <time>2012-04-01T07:25:16Z</time>
      </trkpt>
      <trkpt lat="46.97018" lon="-0.65774">
        <ele>158.1</ele>
        <time>2012-04-01T07:25:19Z</time>
      </trkpt>
      <trkpt lat="46.97016" lon="-0.65786">
        <ele>158.3</ele>
        <time>2012-04-01T07:25:22Z</time>
      </trkpt>
      <trkpt lat="46.97014" lon="-0.65797">
        <ele>158.3</ele>
        <time>2012-04-01T07:25:25Z</time>
      </trkpt>
      <trkpt lat="46.97012" lon="-0.65807">
        <ele>158.3</ele>
        <time>2012-04-01T07:25:28Z</time>
      </trkpt>
      <trkpt lat="46.97011" lon="-0.65818">
        <ele>158.5</ele>
        <time>2012-04-01T07:25:31Z</time>
      </trkpt>
      <trkpt lat="46.97011" lon="-0.65829">
        <ele>158.6</ele>
        <time>2012-04-01T07:25:34Z</time>
      </trkpt>
      <trkpt lat="46.9701" lon="-0.65839">
        <ele>158.6</ele>
        <time>2012-04-01T07:25:37Z</time>
      </trkpt>
      <trkpt lat="46.97009" lon="-0.6585">
        <ele>158.8</ele>
        <time>2012-04-01T07:25:40Z</time>
      </trkpt>
      <trkpt lat="46.97007" lon="-0.6586">
        <ele>158.8</ele>
        <time>2012-04-01T07:25:43Z</time>
      </trkpt>
      <trkpt lat="46.97004" lon="-0.65873">
        <ele>159.1</ele>
        <time>2012-04-01T07:25:47Z</time>
      </trkpt>
      <trkpt lat="46.97003" lon="-0.65882">
        <ele>159.1</ele>
        <time>2012-04-01T07:25:50Z</time>
      </trkpt>
      <trkpt lat="46.97" lon="-0.65893">
        <ele>159.3</ele>
        <time>2012-04-01T07:25:53Z</time>
      </trkpt>
      <trkpt lat="46.96998" lon="-0.65902">
        <ele>159.3</ele>
        <time>2012-04-01T07:25:56Z</time>
      </trkpt>
      <trkpt lat="46.96996" lon="-0.65913">
        <ele>159.5</ele>
        <time>2012-04-01T07:25:59Z</time>
      </trkpt>
      <trkpt lat="46.96995" lon="-0.65917">
        <ele>159.6</ele>
        <time>2012-04-01T07:26:00Z</time>
      </trkpt>
      <trkpt lat="46.9699" lon="-0.65934">
        <ele>159.8</ele>
        <time>2012-04-01T07:26:05Z</time>
      </trkpt>
      <trkpt lat="46.96987" lon="-0.65943">
        <ele>160</ele>
        <time>2012-04-01T07:26:08Z</time>
      </trkpt>
      <trkpt lat="46.96984" lon="-0.65954">
        <ele>160.3</ele>
        <time>2012-04-01T07:26:11Z</time>
      </trkpt>
      <trkpt lat="46.9698" lon="-0.65965">
        <ele>160.6</ele>
        <time>2012-04-01T07:26:14Z</time>
      </trkpt>
      <trkpt lat="46.96977" lon="-0.65976">
        <ele>161</ele>
        <time>2012-04-01T07:26:17Z</time>
      </trkpt>
      <trkpt lat="46.96973" lon="-0.65986">
        <ele>161.3</ele>
        <time>2012-04-01T07:26:20Z</time>
      </trkpt>
      <trkpt lat="46.96969" lon="-0.65996">
        <ele>161.6</ele>
        <time>2012-04-01T07:26:23Z</time>
      </trkpt>
      <trkpt lat="46.96964" lon="-0.66004">
        <ele>162</ele>
        <time>2012-04-01T07:26:26Z</time>
      </trkpt>
      <trkpt lat="46.96961" lon="-0.66013">
        <ele>162.3</ele>
        <time>2012-04-01T07:26:29Z</time>
      </trkpt>
      <trkpt lat="46.96957" lon="-0.66023">
        <ele>162.6</ele>
        <time>2012-04-01T07:26:32Z</time>
      </trkpt>
      <trkpt lat="46.96953" lon="-0.66033">
        <ele>162.8</ele>
        <time>2012-04-01T07:26:36Z</time>
      </trkpt>
      <trkpt lat="46.96949" lon="-0.66042">
        <ele>163.1</ele>
        <time>2012-04-01T07:26:39Z</time>
      </trkpt>
      <trkpt lat="46.96944" lon="-0.66053">
        <ele>163.6</ele>
        <time>2012-04-01T07:26:43Z</time>
      </trkpt>
      <trkpt lat="46.9694" lon="-0.66062">
        <ele>163.8</ele>
        <time>2012-04-01T07:26:46Z</time>
      </trkpt>
      <trkpt lat="46.96936" lon="-0.66071">
        <ele>164</ele>
        <time>2012-04-01T07:26:49Z</time>
      </trkpt>
      <trkpt lat="46.96933" lon="-0.66081">
        <ele>164.3</ele>
        <time>2012-04-01T07:26:52Z</time>
      </trkpt>
      <trkpt lat="46.9693" lon="-0.6609">
        <ele>164.5</ele>
        <time>2012-04-01T07:26:55Z</time>
      </trkpt>
      <trkpt lat="46.96927" lon="-0.66099">
        <ele>164.6</ele>
        <time>2012-04-01T07:26:58Z</time>
      </trkpt>
      <trkpt lat="46.96924" lon="-0.6611">
        <ele>164.8</ele>
        <time>2012-04-01T07:27:01Z</time>
      </trkpt>
      <trkpt lat="46.96923" lon="-0.66114">
        <ele>164.8</ele>
        <time>2012-04-01T07:27:02Z</time>
      </trkpt>
      <trkpt lat="46.96919" lon="-0.66127">
        <ele>165.1</ele>
        <time>2012-04-01T07:27:05Z</time>
      </trkpt>
      <trkpt lat="46.96916" lon="-0.66135">
        <ele>165.3</ele>
        <time>2012-04-01T07:27:07Z</time>
      </trkpt>
      <trkpt lat="46.96912" lon="-0.66147">
        <ele>165.5</ele>
        <time>2012-04-01T07:27:10Z</time>
      </trkpt>
      <trkpt lat="46.96907" lon="-0.66158">
        <ele>165.6</ele>
        <time>2012-04-01T07:27:13Z</time>
      </trkpt>
      <trkpt lat="46.96905" lon="-0.66166">
        <ele>165.8</ele>
        <time>2012-04-01T07:27:15Z</time>
      </trkpt>
      <trkpt lat="46.96902" lon="-0.66174">
        <ele>165.8</ele>
        <time>2012-04-01T07:27:17Z</time>
      </trkpt>
      <trkpt lat="46.96898" lon="-0.66186">
        <ele>166.1</ele>
        <time>2012-04-01T07:27:20Z</time>
      </trkpt>
      <trkpt lat="46.96894" lon="-0.66197">
        <ele>166.1</ele>
        <time>2012-04-01T07:27:23Z</time>
      </trkpt>
      <trkpt lat="46.9689" lon="-0.66207">
        <ele>166.3</ele>
        <time>2012-04-01T07:27:26Z</time>
      </trkpt>
      <trkpt lat="46.96886" lon="-0.66215">
        <ele>166.3</ele>
        <time>2012-04-01T07:27:29Z</time>
      </trkpt>
      <trkpt lat="46.96882" lon="-0.66222">
        <ele>166.5</ele>
        <time>2012-04-01T07:27:31Z</time>
      </trkpt>
      <trkpt lat="46.96878" lon="-0.6623">
        <ele>166.5</ele>
        <time>2012-04-01T07:27:33Z</time>
      </trkpt>
      <trkpt lat="46.96872" lon="-0.66238">
        <ele>166.6</ele>
        <time>2012-04-01T07:27:36Z</time>
      </trkpt>
      <trkpt lat="46.96864" lon="-0.66244">
        <ele>166.6</ele>
        <time>2012-04-01T07:27:39Z</time>
      </trkpt>
      <trkpt lat="46.96855" lon="-0.66247">
        <ele>166.8</ele>
        <time>2012-04-01T07:27:42Z</time>
      </trkpt>
      <trkpt lat="46.96849" lon="-0.66251">
        <ele>167</ele>
        <time>2012-04-01T07:27:44Z</time>
      </trkpt>
      <trkpt lat="46.96843" lon="-0.66258">
        <ele>167.1</ele>
        <time>2012-04-01T07:27:47Z</time>
      </trkpt>
      <trkpt lat="46.96842" lon="-0.66268">
        <ele>167.3</ele>
        <time>2012-04-01T07:27:50Z</time>
      </trkpt>
      <trkpt lat="46.96843" lon="-0.66278">
        <ele>167.5</ele>
        <time>2012-04-01T07:27:53Z</time>
      </trkpt>
      <trkpt lat="46.96844" lon="-0.66289">
        <ele>167.6</ele>
        <time>2012-04-01T07:27:56Z</time>
      </trkpt>
      <trkpt lat="46.96847" lon="-0.66299">
        <ele>167.6</ele>
        <time>2012-04-01T07:27:59Z</time>
      </trkpt>
      <trkpt lat="46.96848" lon="-0.66309">
        <ele>167.5</ele>
        <time>2012-04-01T07:28:02Z</time>
      </trkpt>
      <trkpt lat="46.96848" lon="-0.66313">
        <ele>167.5</ele>
        <time>2012-04-01T07:28:03Z</time>
      </trkpt>
      <trkpt lat="46.96853" lon="-0.66331">
        <ele>167.3</ele>
        <time>2012-04-01T07:28:09Z</time>
      </trkpt>
      <trkpt lat="46.96859" lon="-0.6634">
        <ele>167.3</ele>
        <time>2012-04-01T07:28:13Z</time>
      </trkpt>
      <trkpt lat="46.96865" lon="-0.66348">
        <ele>167.3</ele>
        <time>2012-04-01T07:28:16Z</time>
      </trkpt>
      <trkpt lat="46.9687" lon="-0.66358">
        <ele>167.3</ele>
        <time>2012-04-01T07:28:19Z</time>
      </trkpt>
      <trkpt lat="46.96874" lon="-0.66369">
        <ele>167.3</ele>
        <time>2012-04-01T07:28:22Z</time>
      </trkpt>
      <trkpt lat="46.96877" lon="-0.66379">
        <ele>167.1</ele>
        <time>2012-04-01T07:28:25Z</time>
      </trkpt>
      <trkpt lat="46.96881" lon="-0.66387">
        <ele>167.1</ele>
        <time>2012-04-01T07:28:28Z</time>
      </trkpt>
      <trkpt lat="46.96886" lon="-0.66395">
        <ele>167.3</ele>
        <time>2012-04-01T07:28:31Z</time>
      </trkpt>
      <trkpt lat="46.96892" lon="-0.66403">
        <ele>167.3</ele>
        <time>2012-04-01T07:28:34Z</time>
      </trkpt>
      <trkpt lat="46.96898" lon="-0.66411">
        <ele>167.3</ele>
        <time>2012-04-01T07:28:37Z</time>
      </trkpt>
      <trkpt lat="46.96904" lon="-0.6642">
        <ele>167.3</ele>
        <time>2012-04-01T07:28:40Z</time>
      </trkpt>
      <trkpt lat="46.96909" lon="-0.66428">
        <ele>167.3</ele>
        <time>2012-04-01T07:28:43Z</time>
      </trkpt>
      <trkpt lat="46.96915" lon="-0.66436">
        <ele>167.3</ele>
        <time>2012-04-01T07:28:46Z</time>
      </trkpt>
      <trkpt lat="46.96921" lon="-0.66444">
        <ele>167.1</ele>
        <time>2012-04-01T07:28:50Z</time>
      </trkpt>
      <trkpt lat="46.9693" lon="-0.66443">
        <ele>167.1</ele>
        <time>2012-04-01T07:28:54Z</time>
      </trkpt>
      <trkpt lat="46.96938" lon="-0.6644">
        <ele>167.1</ele>
        <time>2012-04-01T07:28:57Z</time>
      </trkpt>
      <trkpt lat="46.96946" lon="-0.66437">
        <ele>167</ele>
        <time>2012-04-01T07:29:00Z</time>
      </trkpt>
      <trkpt lat="46.96953" lon="-0.66436">
        <ele>166.8</ele>
        <time>2012-04-01T07:29:03Z</time>
      </trkpt>
      <trkpt lat="46.96956" lon="-0.66436">
        <ele>166.8</ele>
        <time>2012-04-01T07:29:04Z</time>
      </trkpt>
      <trkpt lat="46.96969" lon="-0.66435">
        <ele>166.8</ele>
        <time>2012-04-01T07:29:09Z</time>
      </trkpt>
      <trkpt lat="46.96977" lon="-0.66437">
        <ele>166.6</ele>
        <time>2012-04-01T07:29:12Z</time>
      </trkpt>
      <trkpt lat="46.96984" lon="-0.66442">
        <ele>166.6</ele>
        <time>2012-04-01T07:29:15Z</time>
      </trkpt>
      <trkpt lat="46.96991" lon="-0.66448">
        <ele>166.6</ele>
        <time>2012-04-01T07:29:18Z</time>
      </trkpt>
      <trkpt lat="46.96996" lon="-0.66457">
        <ele>166.6</ele>
        <time>2012-04-01T07:29:42Z</time>
      </trkpt>
      <trkpt lat="46.97004" lon="-0.66462">
        <ele>167.1</ele>
        <time>2012-04-01T07:34:21Z</time>
      </trkpt>
      <trkpt lat="46.97006" lon="-0.66463">
        <ele>167.1</ele>
        <time>2012-04-01T07:34:22Z</time>
      </trkpt>
      <trkpt lat="46.97018" lon="-0.66476">
        <ele>166.8</ele>
        <time>2012-04-01T07:34:28Z</time>
      </trkpt>
      <trkpt lat="46.97024" lon="-0.66482">
        <ele>166.8</ele>
        <time>2012-04-01T07:34:30Z</time>
      </trkpt>
      <trkpt lat="46.97031" lon="-0.66488">
        <ele>166.3</ele>
        <time>2012-04-01T07:34:32Z</time>
      </trkpt>
      <trkpt lat="46.97038" lon="-0.66495">
        <ele>166</ele>
        <time>2012-04-01T07:34:34Z</time>
      </trkpt>
      <trkpt lat="46.97045" lon="-0.66502">
        <ele>165.8</ele>
        <time>2012-04-01T07:34:36Z</time>
      </trkpt>
      <trkpt lat="46.97049" lon="-0.66506">
        <ele>165.8</ele>
        <time>2012-04-01T07:34:37Z</time>
      </trkpt>
      <trkpt lat="46.97053" lon="-0.66509">
        <ele>165.8</ele>
        <time>2012-04-01T07:34:38Z</time>
      </trkpt>
      <trkpt lat="46.97057" lon="-0.66513">
        <ele>165.8</ele>
        <time>2012-04-01T07:34:39Z</time>
      </trkpt>
      <trkpt lat="46.97061" lon="-0.66517">
        <ele>165.6</ele>
        <time>2012-04-01T07:34:40Z</time>
      </trkpt>
      <trkpt lat="46.97065" lon="-0.66521">
        <ele>165.6</ele>
        <time>2012-04-01T07:34:41Z</time>
      </trkpt>
      <trkpt lat="46.97068" lon="-0.66525">
        <ele>165.6</ele>
        <time>2012-04-01T07:34:42Z</time>
      </trkpt>
      <trkpt lat="46.97072" lon="-0.66528">
        <ele>165.6</ele>
        <time>2012-04-01T07:34:43Z</time>
      </trkpt>
      <trkpt lat="46.97076" lon="-0.66532">
        <ele>165.5</ele>
        <time>2012-04-01T07:34:44Z</time>
      </trkpt>
      <trkpt lat="46.97081" lon="-0.66541">
        <ele>165.3</ele>
        <time>2012-04-01T07:34:46Z</time>
      </trkpt>
      <trkpt lat="46.97082" lon="-0.66552">
        <ele>165.1</ele>
        <time>2012-04-01T07:34:48Z</time>
      </trkpt>
      <trkpt lat="46.97081" lon="-0.66562">
        <ele>165.1</ele>
        <time>2012-04-01T07:34:50Z</time>
      </trkpt>
      <trkpt lat="46.97078" lon="-0.66573">
        <ele>165</ele>
        <time>2012-04-01T07:34:52Z</time>
      </trkpt>
      <trkpt lat="46.97075" lon="-0.66584">
        <ele>164.8</ele>
        <time>2012-04-01T07:34:54Z</time>
      </trkpt>
      <trkpt lat="46.97074" lon="-0.66591">
        <ele>164.6</ele>
        <time>2012-04-01T07:34:55Z</time>
      </trkpt>
      <trkpt lat="46.97073" lon="-0.66598">
        <ele>164.6</ele>
        <time>2012-04-01T07:34:56Z</time>
      </trkpt>
      <trkpt lat="46.97072" lon="-0.66605">
        <ele>164.5</ele>
        <time>2012-04-01T07:34:57Z</time>
      </trkpt>
      <trkpt lat="46.97072" lon="-0.66613">
        <ele>164.3</ele>
        <time>2012-04-01T07:34:58Z</time>
      </trkpt>
      <trkpt lat="46.97071" lon="-0.66621">
        <ele>164.3</ele>
        <time>2012-04-01T07:34:59Z</time>
      </trkpt>
      <trkpt lat="46.97072" lon="-0.6663">
        <ele>164.3</ele>
        <time>2012-04-01T07:35:00Z</time>
      </trkpt>
      <trkpt lat="46.97072" lon="-0.66638">
        <ele>164.1</ele>
        <time>2012-04-01T07:35:01Z</time>
      </trkpt>
      <trkpt lat="46.97072" lon="-0.66645">
        <ele>164.1</ele>
        <time>2012-04-01T07:35:02Z</time>
      </trkpt>
      <trkpt lat="46.97072" lon="-0.66653">
        <ele>164.1</ele>
        <time>2012-04-01T07:35:03Z</time>
      </trkpt>
      <trkpt lat="46.97073" lon="-0.66661">
        <ele>164.1</ele>
        <time>2012-04-01T07:35:04Z</time>
      </trkpt>
      <trkpt lat="46.97073" lon="-0.66668">
        <ele>164.1</ele>
        <time>2012-04-01T07:35:05Z</time>
      </trkpt>
      <trkpt lat="46.97073" lon="-0.66676">
        <ele>164.1</ele>
        <time>2012-04-01T07:35:06Z</time>
      </trkpt>
      <trkpt lat="46.97074" lon="-0.66684">
        <ele>164.1</ele>
        <time>2012-04-01T07:35:07Z</time>
      </trkpt>
      <trkpt lat="46.97074" lon="-0.66691">
        <ele>164</ele>
        <time>2012-04-01T07:35:08Z</time>
      </trkpt>
      <trkpt lat="46.97074" lon="-0.66699">
        <ele>163.8</ele>
        <time>2012-04-01T07:35:09Z</time>
      </trkpt>
      <trkpt lat="46.97074" lon="-0.66706">
        <ele>163.8</ele>
        <time>2012-04-01T07:35:10Z</time>
      </trkpt>
      <trkpt lat="46.97074" lon="-0.66713">
        <ele>163.8</ele>
        <time>2012-04-01T07:35:11Z</time>
      </trkpt>
      <trkpt lat="46.97074" lon="-0.66721">
        <ele>163.6</ele>
        <time>2012-04-01T07:35:12Z</time>
      </trkpt>
      <trkpt lat="46.97074" lon="-0.66728">
        <ele>163.6</ele>
        <time>2012-04-01T07:35:13Z</time>
      </trkpt>
      <trkpt lat="46.97075" lon="-0.66736">
        <ele>163.6</ele>
        <time>2012-04-01T07:35:14Z</time>
      </trkpt>
      <trkpt lat="46.97075" lon="-0.66743">
        <ele>163.6</ele>
        <time>2012-04-01T07:35:15Z</time>
      </trkpt>
      <trkpt lat="46.97075" lon="-0.66751">
        <ele>163.6</ele>
        <time>2012-04-01T07:35:16Z</time>
      </trkpt>
      <trkpt lat="46.97075" lon="-0.66759">
        <ele>163.6</ele>
        <time>2012-04-01T07:35:17Z</time>
      </trkpt>
      <trkpt lat="46.97074" lon="-0.66766">
        <ele>163.6</ele>
        <time>2012-04-01T07:35:18Z</time>
      </trkpt>
      <trkpt lat="46.97074" lon="-0.66773">
        <ele>163.6</ele>
        <time>2012-04-01T07:35:19Z</time>
      </trkpt>
      <trkpt lat="46.97074" lon="-0.6678">
        <ele>163.6</ele>
        <time>2012-04-01T07:35:20Z</time>
      </trkpt>
      <trkpt lat="46.97074" lon="-0.66788">
        <ele>163.6</ele>
        <time>2012-04-01T07:35:21Z</time>
      </trkpt>
      <trkpt lat="46.97074" lon="-0.66795">
        <ele>163.6</ele>
        <time>2012-04-01T07:35:22Z</time>
      </trkpt>
      <trkpt lat="46.97074" lon="-0.66802">
        <ele>163.6</ele>
        <time>2012-04-01T07:35:23Z</time>
      </trkpt>
      <trkpt lat="46.97074" lon="-0.66809">
        <ele>163.6</ele>
        <time>2012-04-01T07:35:24Z</time>
      </trkpt>
      <trkpt lat="46.97073" lon="-0.66817">
        <ele>163.6</ele>
        <time>2012-04-01T07:35:25Z</time>
      </trkpt>
      <trkpt lat="46.97073" lon="-0.66824">
        <ele>163.6</ele>
        <time>2012-04-01T07:35:26Z</time>
      </trkpt>
      <trkpt lat="46.97073" lon="-0.66836">
        <ele>163.8</ele>
        <time>2012-04-01T07:35:28Z</time>
      </trkpt>
      <trkpt lat="46.9707" lon="-0.66845">
        <ele>163.8</ele>
        <time>2012-04-01T07:35:30Z</time>
      </trkpt>
      <trkpt lat="46.9707" lon="-0.66856">
        <ele>163.8</ele>
        <time>2012-04-01T07:35:33Z</time>
      </trkpt>
      <trkpt lat="46.97071" lon="-0.66867">
        <ele>163.8</ele>
        <time>2012-04-01T07:35:36Z</time>
      </trkpt>
      <trkpt lat="46.97072" lon="-0.66876">
        <ele>163.8</ele>
        <time>2012-04-01T07:35:38Z</time>
      </trkpt>
      <trkpt lat="46.97072" lon="-0.66886">
        <ele>163.8</ele>
        <time>2012-04-01T07:35:40Z</time>
      </trkpt>
      <trkpt lat="46.97072" lon="-0.66897">
        <ele>164.1</ele>
        <time>2012-04-01T07:35:42Z</time>
      </trkpt>
      <trkpt lat="46.97073" lon="-0.6691">
        <ele>164.1</ele>
        <time>2012-04-01T07:35:44Z</time>
      </trkpt>
      <trkpt lat="46.97072" lon="-0.66917">
        <ele>164.1</ele>
        <time>2012-04-01T07:35:45Z</time>
      </trkpt>
      <trkpt lat="46.97072" lon="-0.66923">
        <ele>164.3</ele>
        <time>2012-04-01T07:35:46Z</time>
      </trkpt>
      <trkpt lat="46.97072" lon="-0.6693">
        <ele>164.3</ele>
        <time>2012-04-01T07:35:47Z</time>
      </trkpt>
      <trkpt lat="46.97072" lon="-0.66937">
        <ele>164.3</ele>
        <time>2012-04-01T07:35:48Z</time>
      </trkpt>
      <trkpt lat="46.97072" lon="-0.66943">
        <ele>164.5</ele>
        <time>2012-04-01T07:35:49Z</time>
      </trkpt>
      <trkpt lat="46.97072" lon="-0.6695">
        <ele>164.5</ele>
        <time>2012-04-01T07:35:50Z</time>
      </trkpt>
      <trkpt lat="46.97073" lon="-0.66957">
        <ele>164.6</ele>
        <time>2012-04-01T07:35:51Z</time>
      </trkpt>
      <trkpt lat="46.97073" lon="-0.66963">
        <ele>164.6</ele>
        <time>2012-04-01T07:35:52Z</time>
      </trkpt>
      <trkpt lat="46.97073" lon="-0.6697">
        <ele>164.6</ele>
        <time>2012-04-01T07:35:53Z</time>
      </trkpt>
      <trkpt lat="46.97074" lon="-0.66977">
        <ele>164.8</ele>
        <time>2012-04-01T07:35:54Z</time>
      </trkpt>
      <trkpt lat="46.97075" lon="-0.66989">
        <ele>164.8</ele>
        <time>2012-04-01T07:35:56Z</time>
      </trkpt>
      <trkpt lat="46.97076" lon="-0.67">
        <ele>164.8</ele>
        <time>2012-04-01T07:35:58Z</time>
      </trkpt>
      <trkpt lat="46.97078" lon="-0.67011">
        <ele>165</ele>
        <time>2012-04-01T07:36:00Z</time>
      </trkpt>
      <trkpt lat="46.97081" lon="-0.67022">
        <ele>165.1</ele>
        <time>2012-04-01T07:36:02Z</time>
      </trkpt>
      <trkpt lat="46.97083" lon="-0.67033">
        <ele>165.1</ele>
        <time>2012-04-01T07:36:04Z</time>
      </trkpt>
      <trkpt lat="46.97085" lon="-0.67045">
        <ele>165.1</ele>
        <time>2012-04-01T07:36:06Z</time>
      </trkpt>
      <trkpt lat="46.97087" lon="-0.67056">
        <ele>165.1</ele>
        <time>2012-04-01T07:36:08Z</time>
      </trkpt>
      <trkpt lat="46.97089" lon="-0.67068">
        <ele>165.1</ele>
        <time>2012-04-01T07:36:10Z</time>
      </trkpt>
      <trkpt lat="46.97092" lon="-0.67079">
        <ele>165.1</ele>
        <time>2012-04-01T07:36:12Z</time>
      </trkpt>
      <trkpt lat="46.97094" lon="-0.67091">
        <ele>165.1</ele>
        <time>2012-04-01T07:36:14Z</time>
      </trkpt>
      <trkpt lat="46.97096" lon="-0.67103">
        <ele>165.1</ele>
        <time>2012-04-01T07:36:16Z</time>
      </trkpt>
      <trkpt lat="46.97099" lon="-0.67114">
        <ele>165.1</ele>
        <time>2012-04-01T07:36:18Z</time>
      </trkpt>
      <trkpt lat="46.97101" lon="-0.67126">
        <ele>165</ele>
        <time>2012-04-01T07:36:20Z</time>
      </trkpt>
      <trkpt lat="46.97104" lon="-0.67137">
        <ele>164.8</ele>
        <time>2012-04-01T07:36:22Z</time>
      </trkpt>
      <trkpt lat="46.97107" lon="-0.67149">
        <ele>164.8</ele>
        <time>2012-04-01T07:36:24Z</time>
      </trkpt>
      <trkpt lat="46.97109" lon="-0.67154">
        <ele>164.8</ele>
        <time>2012-04-01T07:36:25Z</time>
      </trkpt>
      <trkpt lat="46.97113" lon="-0.6717">
        <ele>164.8</ele>
        <time>2012-04-01T07:36:28Z</time>
      </trkpt>
      <trkpt lat="46.97116" lon="-0.6718">
        <ele>164.6</ele>
        <time>2012-04-01T07:36:30Z</time>
      </trkpt>
      <trkpt lat="46.97119" lon="-0.6719">
        <ele>164.6</ele>
        <time>2012-04-01T07:36:32Z</time>
      </trkpt>
      <trkpt lat="46.97122" lon="-0.67201">
        <ele>164.8</ele>
        <time>2012-04-01T07:36:34Z</time>
      </trkpt>
      <trkpt lat="46.97125" lon="-0.67211">
        <ele>164.8</ele>
        <time>2012-04-01T07:36:36Z</time>
      </trkpt>
      <trkpt lat="46.97128" lon="-0.67221">
        <ele>165.1</ele>
        <time>2012-04-01T07:36:38Z</time>
      </trkpt>
      <trkpt lat="46.97131" lon="-0.67233">
        <ele>165.1</ele>
        <time>2012-04-01T07:36:40Z</time>
      </trkpt>
      <trkpt lat="46.97134" lon="-0.67244">
        <ele>165.1</ele>
        <time>2012-04-01T07:36:42Z</time>
      </trkpt>
      <trkpt lat="46.97137" lon="-0.67255">
        <ele>165.3</ele>
        <time>2012-04-01T07:36:44Z</time>
      </trkpt>
      <trkpt lat="46.97141" lon="-0.67265">
        <ele>165.3</ele>
        <time>2012-04-01T07:36:46Z</time>
      </trkpt>
      <trkpt lat="46.97144" lon="-0.67276">
        <ele>165.3</ele>
        <time>2012-04-01T07:36:48Z</time>
      </trkpt>
      <trkpt lat="46.97148" lon="-0.67286">
        <ele>165.3</ele>
        <time>2012-04-01T07:36:50Z</time>
      </trkpt>
      <trkpt lat="46.97152" lon="-0.67296">
        <ele>165.3</ele>
        <time>2012-04-01T07:36:52Z</time>
      </trkpt>
      <trkpt lat="46.97157" lon="-0.67307">
        <ele>165.3</ele>
        <time>2012-04-01T07:36:54Z</time>
      </trkpt>
      <trkpt lat="46.97161" lon="-0.67317">
        <ele>165.3</ele>
        <time>2012-04-01T07:36:56Z</time>
      </trkpt>
      <trkpt lat="46.97166" lon="-0.67327">
        <ele>165.1</ele>
        <time>2012-04-01T07:36:58Z</time>
      </trkpt>
      <trkpt lat="46.97171" lon="-0.67338">
        <ele>165</ele>
        <time>2012-04-01T07:37:00Z</time>
      </trkpt>
      <trkpt lat="46.97176" lon="-0.67348">
        <ele>164.8</ele>
        <time>2012-04-01T07:37:02Z</time>
      </trkpt>
      <trkpt lat="46.9718" lon="-0.67359">
        <ele>164.8</ele>
        <time>2012-04-01T07:37:04Z</time>
      </trkpt>
      <trkpt lat="46.97185" lon="-0.67369">
        <ele>164.6</ele>
        <time>2012-04-01T07:37:06Z</time>
      </trkpt>
      <trkpt lat="46.9719" lon="-0.6738">
        <ele>164.8</ele>
        <time>2012-04-01T07:37:08Z</time>
      </trkpt>
      <trkpt lat="46.97195" lon="-0.67391">
        <ele>165.1</ele>
        <time>2012-04-01T07:37:10Z</time>
      </trkpt>
      <trkpt lat="46.97197" lon="-0.67397">
        <ele>165.3</ele>
        <time>2012-04-01T07:37:11Z</time>
      </trkpt>
      <trkpt lat="46.972" lon="-0.67402">
        <ele>165.3</ele>
        <time>2012-04-01T07:37:12Z</time>
      </trkpt>
      <trkpt lat="46.97202" lon="-0.67408">
        <ele>165.5</ele>
        <time>2012-04-01T07:37:13Z</time>
      </trkpt>
      <trkpt lat="46.97205" lon="-0.67414">
        <ele>165.6</ele>
        <time>2012-04-01T07:37:14Z</time>
      </trkpt>
      <trkpt lat="46.97207" lon="-0.67419">
        <ele>165.6</ele>
        <time>2012-04-01T07:37:15Z</time>
      </trkpt>
      <trkpt lat="46.9721" lon="-0.67425">
        <ele>165.6</ele>
        <time>2012-04-01T07:37:16Z</time>
      </trkpt>
      <trkpt lat="46.97212" lon="-0.67431">
        <ele>165.8</ele>
        <time>2012-04-01T07:37:17Z</time>
      </trkpt>
      <trkpt lat="46.97215" lon="-0.67436">
        <ele>165.8</ele>
        <time>2012-04-01T07:37:18Z</time>
      </trkpt>
      <trkpt lat="46.97217" lon="-0.67442">
        <ele>165.8</ele>
        <time>2012-04-01T07:37:19Z</time>
      </trkpt>
      <trkpt lat="46.9722" lon="-0.67448">
        <ele>165.8</ele>
        <time>2012-04-01T07:37:20Z</time>
      </trkpt>
      <trkpt lat="46.97222" lon="-0.67453">
        <ele>165.8</ele>
        <time>2012-04-01T07:37:21Z</time>
      </trkpt>
      <trkpt lat="46.97225" lon="-0.67459">
        <ele>165.8</ele>
        <time>2012-04-01T07:37:22Z</time>
      </trkpt>
      <trkpt lat="46.97227" lon="-0.67464">
        <ele>165.8</ele>
        <time>2012-04-01T07:37:23Z</time>
      </trkpt>
      <trkpt lat="46.9723" lon="-0.6747">
        <ele>165.8</ele>
        <time>2012-04-01T07:37:24Z</time>
      </trkpt>
      <trkpt lat="46.97232" lon="-0.67475">
        <ele>165.8</ele>
        <time>2012-04-01T07:37:25Z</time>
      </trkpt>
      <trkpt lat="46.97235" lon="-0.67481">
        <ele>165.8</ele>
        <time>2012-04-01T07:37:26Z</time>
      </trkpt>
      <trkpt lat="46.97239" lon="-0.67492">
        <ele>166.1</ele>
        <time>2012-04-01T07:37:28Z</time>
      </trkpt>
      <trkpt lat="46.97244" lon="-0.67503">
        <ele>166.1</ele>
        <time>2012-04-01T07:37:30Z</time>
      </trkpt>
      <trkpt lat="46.97249" lon="-0.67514">
        <ele>166.3</ele>
        <time>2012-04-01T07:37:32Z</time>
      </trkpt>
      <trkpt lat="46.97252" lon="-0.67519">
        <ele>166.3</ele>
        <time>2012-04-01T07:37:33Z</time>
      </trkpt>
      <trkpt lat="46.97257" lon="-0.6753">
        <ele>166.3</ele>
        <time>2012-04-01T07:37:35Z</time>
      </trkpt>
      <trkpt lat="46.97261" lon="-0.67541">
        <ele>166.5</ele>
        <time>2012-04-01T07:37:37Z</time>
      </trkpt>
      <trkpt lat="46.97266" lon="-0.67552">
        <ele>166.5</ele>
        <time>2012-04-01T07:37:39Z</time>
      </trkpt>
      <trkpt lat="46.97271" lon="-0.67563">
        <ele>166.5</ele>
        <time>2012-04-01T07:37:41Z</time>
      </trkpt>
      <trkpt lat="46.97275" lon="-0.67574">
        <ele>166.3</ele>
        <time>2012-04-01T07:37:43Z</time>
      </trkpt>
      <trkpt lat="46.97278" lon="-0.6758">
        <ele>166.3</ele>
        <time>2012-04-01T07:37:44Z</time>
      </trkpt>
      <trkpt lat="46.9728" lon="-0.67586">
        <ele>166.1</ele>
        <time>2012-04-01T07:37:45Z</time>
      </trkpt>
      <trkpt lat="46.97282" lon="-0.67592">
        <ele>166.1</ele>
        <time>2012-04-01T07:37:46Z</time>
      </trkpt>
      <trkpt lat="46.97284" lon="-0.67598">
        <ele>166.1</ele>
        <time>2012-04-01T07:37:47Z</time>
      </trkpt>
      <trkpt lat="46.97286" lon="-0.67604">
        <ele>166</ele>
        <time>2012-04-01T07:37:48Z</time>
      </trkpt>
      <trkpt lat="46.97288" lon="-0.6761">
        <ele>165.8</ele>
        <time>2012-04-01T07:37:49Z</time>
      </trkpt>
      <trkpt lat="46.9729" lon="-0.67616">
        <ele>165.8</ele>
        <time>2012-04-01T07:37:50Z</time>
      </trkpt>
      <trkpt lat="46.97292" lon="-0.67622">
        <ele>165.8</ele>
        <time>2012-04-01T07:37:51Z</time>
      </trkpt>
      <trkpt lat="46.97294" lon="-0.67628">
        <ele>165.6</ele>
        <time>2012-04-01T07:37:52Z</time>
      </trkpt>
      <trkpt lat="46.97296" lon="-0.67634">
        <ele>165.6</ele>
        <time>2012-04-01T07:37:53Z</time>
      </trkpt>
      <trkpt lat="46.97297" lon="-0.6764">
        <ele>165.6</ele>
        <time>2012-04-01T07:37:54Z</time>
      </trkpt>
      <trkpt lat="46.97299" lon="-0.67646">
        <ele>165.6</ele>
        <time>2012-04-01T07:37:55Z</time>
      </trkpt>
      <trkpt lat="46.97301" lon="-0.67652">
        <ele>165.6</ele>
        <time>2012-04-01T07:37:56Z</time>
      </trkpt>
      <trkpt lat="46.97303" lon="-0.67659">
        <ele>165.6</ele>
        <time>2012-04-01T07:37:57Z</time>
      </trkpt>
      <trkpt lat="46.97305" lon="-0.67665">
        <ele>165.5</ele>
        <time>2012-04-01T07:37:58Z</time>
      </trkpt>
      <trkpt lat="46.97307" lon="-0.67671">
        <ele>165.5</ele>
        <time>2012-04-01T07:37:59Z</time>
      </trkpt>
      <trkpt lat="46.97309" lon="-0.67677">
        <ele>165.5</ele>
        <time>2012-04-01T07:38:00Z</time>
      </trkpt>
      <trkpt lat="46.97311" lon="-0.67683">
        <ele>165.5</ele>
        <time>2012-04-01T07:38:01Z</time>
      </trkpt>
      <trkpt lat="46.97313" lon="-0.67689">
        <ele>165.5</ele>
        <time>2012-04-01T07:38:02Z</time>
      </trkpt>
      <trkpt lat="46.97315" lon="-0.67695">
        <ele>165.5</ele>
        <time>2012-04-01T07:38:03Z</time>
      </trkpt>
      <trkpt lat="46.97317" lon="-0.67701">
        <ele>165.5</ele>
        <time>2012-04-01T07:38:04Z</time>
      </trkpt>
      <trkpt lat="46.97319" lon="-0.67708">
        <ele>165.3</ele>
        <time>2012-04-01T07:38:05Z</time>
      </trkpt>
      <trkpt lat="46.97322" lon="-0.67714">
        <ele>165.3</ele>
        <time>2012-04-01T07:38:06Z</time>
      </trkpt>
      <trkpt lat="46.97324" lon="-0.67721">
        <ele>165.1</ele>
        <time>2012-04-01T07:38:07Z</time>
      </trkpt>
      <trkpt lat="46.97327" lon="-0.67727">
        <ele>165.1</ele>
        <time>2012-04-01T07:38:08Z</time>
      </trkpt>
      <trkpt lat="46.97329" lon="-0.67734">
        <ele>165.1</ele>
        <time>2012-04-01T07:38:09Z</time>
      </trkpt>
      <trkpt lat="46.97332" lon="-0.6774">
        <ele>165.1</ele>
        <time>2012-04-01T07:38:10Z</time>
      </trkpt>
      <trkpt lat="46.97335" lon="-0.67747">
        <ele>165.1</ele>
        <time>2012-04-01T07:38:11Z</time>
      </trkpt>
      <trkpt lat="46.97338" lon="-0.67754">
        <ele>165.1</ele>
        <time>2012-04-01T07:38:12Z</time>
      </trkpt>
      <trkpt lat="46.9734" lon="-0.6776">
        <ele>165.1</ele>
        <time>2012-04-01T07:38:13Z</time>
      </trkpt>
      <trkpt lat="46.97343" lon="-0.67767">
        <ele>165.1</ele>
        <time>2012-04-01T07:38:14Z</time>
      </trkpt>
      <trkpt lat="46.97346" lon="-0.67774">
        <ele>165.1</ele>
        <time>2012-04-01T07:38:15Z</time>
      </trkpt>
      <trkpt lat="46.97349" lon="-0.6778">
        <ele>165.3</ele>
        <time>2012-04-01T07:38:16Z</time>
      </trkpt>
      <trkpt lat="46.97352" lon="-0.67787">
        <ele>165.5</ele>
        <time>2012-04-01T07:38:17Z</time>
      </trkpt>
      <trkpt lat="46.97354" lon="-0.67793">
        <ele>165.8</ele>
        <time>2012-04-01T07:38:18Z</time>
      </trkpt>
      <trkpt lat="46.97357" lon="-0.678">
        <ele>166</ele>
        <time>2012-04-01T07:38:19Z</time>
      </trkpt>
      <trkpt lat="46.9736" lon="-0.67807">
        <ele>166.1</ele>
        <time>2012-04-01T07:38:20Z</time>
      </trkpt>
      <trkpt lat="46.97362" lon="-0.67814">
        <ele>166.3</ele>
        <time>2012-04-01T07:38:21Z</time>
      </trkpt>
      <trkpt lat="46.97365" lon="-0.67821">
        <ele>166.5</ele>
        <time>2012-04-01T07:38:22Z</time>
      </trkpt>
      <trkpt lat="46.97367" lon="-0.67829">
        <ele>166.5</ele>
        <time>2012-04-01T07:38:23Z</time>
      </trkpt>
      <trkpt lat="46.97369" lon="-0.67836">
        <ele>166.6</ele>
        <time>2012-04-01T07:38:24Z</time>
      </trkpt>
      <trkpt lat="46.97372" lon="-0.67843">
        <ele>166.6</ele>
        <time>2012-04-01T07:38:25Z</time>
      </trkpt>
      <trkpt lat="46.97374" lon="-0.67851">
        <ele>166.6</ele>
        <time>2012-04-01T07:38:26Z</time>
      </trkpt>
      <trkpt lat="46.97376" lon="-0.67858">
        <ele>166.6</ele>
        <time>2012-04-01T07:38:27Z</time>
      </trkpt>
      <trkpt lat="46.97378" lon="-0.67866">
        <ele>166.6</ele>
        <time>2012-04-01T07:38:28Z</time>
      </trkpt>
      <trkpt lat="46.9738" lon="-0.67873">
        <ele>166.6</ele>
        <time>2012-04-01T07:38:29Z</time>
      </trkpt>
      <trkpt lat="46.97382" lon="-0.67881">
        <ele>166.5</ele>
        <time>2012-04-01T07:38:30Z</time>
      </trkpt>
      <trkpt lat="46.97384" lon="-0.67889">
        <ele>166.5</ele>
        <time>2012-04-01T07:38:31Z</time>
      </trkpt>
      <trkpt lat="46.97385" lon="-0.67896">
        <ele>166.5</ele>
        <time>2012-04-01T07:38:32Z</time>
      </trkpt>
      <trkpt lat="46.97387" lon="-0.67904">
        <ele>166.5</ele>
        <time>2012-04-01T07:38:33Z</time>
      </trkpt>
      <trkpt lat="46.97389" lon="-0.67911">
        <ele>166.3</ele>
        <time>2012-04-01T07:38:34Z</time>
      </trkpt>
      <trkpt lat="46.97391" lon="-0.67919">
        <ele>166.3</ele>
        <time>2012-04-01T07:38:35Z</time>
      </trkpt>
      <trkpt lat="46.97393" lon="-0.67926">
        <ele>166.1</ele>
        <time>2012-04-01T07:38:36Z</time>
      </trkpt>
      <trkpt lat="46.97395" lon="-0.67933">
        <ele>166.1</ele>
        <time>2012-04-01T07:38:37Z</time>
      </trkpt>
      <trkpt lat="46.97397" lon="-0.6794">
        <ele>166</ele>
        <time>2012-04-01T07:38:38Z</time>
      </trkpt>
      <trkpt lat="46.97399" lon="-0.67948">
        <ele>165.8</ele>
        <time>2012-04-01T07:38:39Z</time>
      </trkpt>
      <trkpt lat="46.97401" lon="-0.67955">
        <ele>165.8</ele>
        <time>2012-04-01T07:38:40Z</time>
      </trkpt>
      <trkpt lat="46.97403" lon="-0.67963">
        <ele>165.6</ele>
        <time>2012-04-01T07:38:41Z</time>
      </trkpt>
      <trkpt lat="46.97405" lon="-0.6797">
        <ele>165.5</ele>
        <time>2012-04-01T07:38:42Z</time>
      </trkpt>
      <trkpt lat="46.97406" lon="-0.67978">
        <ele>165.3</ele>
        <time>2012-04-01T07:38:43Z</time>
      </trkpt>
      <trkpt lat="46.97408" lon="-0.67986">
        <ele>165.1</ele>
        <time>2012-04-01T07:38:44Z</time>
      </trkpt>
      <trkpt lat="46.9741" lon="-0.67993">
        <ele>165</ele>
        <time>2012-04-01T07:38:45Z</time>
      </trkpt>
      <trkpt lat="46.97412" lon="-0.68001">
        <ele>164.8</ele>
        <time>2012-04-01T07:38:46Z</time>
      </trkpt>
      <trkpt lat="46.97413" lon="-0.68009">
        <ele>164.6</ele>
        <time>2012-04-01T07:38:47Z</time>
      </trkpt>
      <trkpt lat="46.97415" lon="-0.68016">
        <ele>164.6</ele>
        <time>2012-04-01T07:38:48Z</time>
      </trkpt>
      <trkpt lat="46.97417" lon="-0.68024">
        <ele>164.3</ele>
        <time>2012-04-01T07:38:49Z</time>
      </trkpt>
      <trkpt lat="46.97418" lon="-0.68031">
        <ele>164.3</ele>
        <time>2012-04-01T07:38:50Z</time>
      </trkpt>
      <trkpt lat="46.9742" lon="-0.68039">
        <ele>164.1</ele>
        <time>2012-04-01T07:38:51Z</time>
      </trkpt>
      <trkpt lat="46.97422" lon="-0.68046">
        <ele>164.1</ele>
        <time>2012-04-01T07:38:52Z</time>
      </trkpt>
      <trkpt lat="46.97424" lon="-0.68053">
        <ele>164</ele>
        <time>2012-04-01T07:38:53Z</time>
      </trkpt>
      <trkpt lat="46.97426" lon="-0.6806">
        <ele>164</ele>
        <time>2012-04-01T07:38:54Z</time>
      </trkpt>
      <trkpt lat="46.97428" lon="-0.68067">
        <ele>163.8</ele>
        <time>2012-04-01T07:38:55Z</time>
      </trkpt>
      <trkpt lat="46.97431" lon="-0.68074">
        <ele>163.8</ele>
        <time>2012-04-01T07:38:56Z</time>
      </trkpt>
      <trkpt lat="46.97433" lon="-0.68081">
        <ele>163.6</ele>
        <time>2012-04-01T07:38:57Z</time>
      </trkpt>
      <trkpt lat="46.97436" lon="-0.68087">
        <ele>163.6</ele>
        <time>2012-04-01T07:38:58Z</time>
      </trkpt>
      <trkpt lat="46.97438" lon="-0.68093">
        <ele>163.6</ele>
        <time>2012-04-01T07:38:59Z</time>
      </trkpt>
      <trkpt lat="46.97441" lon="-0.68099">
        <ele>163.6</ele>
        <time>2012-04-01T07:39:00Z</time>
      </trkpt>
      <trkpt lat="46.97444" lon="-0.68105">
        <ele>163.6</ele>
        <time>2012-04-01T07:39:01Z</time>
      </trkpt>
      <trkpt lat="46.97447" lon="-0.6811">
        <ele>163.6</ele>
        <time>2012-04-01T07:39:02Z</time>
      </trkpt>
      <trkpt lat="46.9745" lon="-0.68116">
        <ele>163.6</ele>
        <time>2012-04-01T07:39:03Z</time>
      </trkpt>
      <trkpt lat="46.97453" lon="-0.68121">
        <ele>163.5</ele>
        <time>2012-04-01T07:39:04Z</time>
      </trkpt>
      <trkpt lat="46.97455" lon="-0.68127">
        <ele>163.5</ele>
        <time>2012-04-01T07:39:05Z</time>
      </trkpt>
      <trkpt lat="46.97458" lon="-0.68133">
        <ele>163.6</ele>
        <time>2012-04-01T07:39:06Z</time>
      </trkpt>
      <trkpt lat="46.97463" lon="-0.68144">
        <ele>164.6</ele>
        <time>2012-04-01T07:39:08Z</time>
      </trkpt>
      <trkpt lat="46.97468" lon="-0.68154">
        <ele>165.3</ele>
        <time>2012-04-01T07:39:10Z</time>
      </trkpt>
      <trkpt lat="46.97473" lon="-0.68165">
        <ele>165.6</ele>
        <time>2012-04-01T07:39:12Z</time>
      </trkpt>
      <trkpt lat="46.97476" lon="-0.6817">
        <ele>165.6</ele>
        <time>2012-04-01T07:39:13Z</time>
      </trkpt>
      <trkpt lat="46.97479" lon="-0.68176">
        <ele>165.6</ele>
        <time>2012-04-01T07:39:14Z</time>
      </trkpt>
      <trkpt lat="46.97482" lon="-0.68181">
        <ele>165.6</ele>
        <time>2012-04-01T07:39:15Z</time>
      </trkpt>
      <trkpt lat="46.97484" lon="-0.68186">
        <ele>165.5</ele>
        <time>2012-04-01T07:39:16Z</time>
      </trkpt>
      <trkpt lat="46.97489" lon="-0.68197">
        <ele>165.8</ele>
        <time>2012-04-01T07:39:18Z</time>
      </trkpt>
      <trkpt lat="46.97494" lon="-0.68207">
        <ele>166.6</ele>
        <time>2012-04-01T07:39:20Z</time>
      </trkpt>
      <trkpt lat="46.97499" lon="-0.68218">
        <ele>166.8</ele>
        <time>2012-04-01T07:39:22Z</time>
      </trkpt>
      <trkpt lat="46.97502" lon="-0.68223">
        <ele>167</ele>
        <time>2012-04-01T07:39:23Z</time>
      </trkpt>
      <trkpt lat="46.97505" lon="-0.68229">
        <ele>167.3</ele>
        <time>2012-04-01T07:39:24Z</time>
      </trkpt>
      <trkpt lat="46.97508" lon="-0.68234">
        <ele>167.5</ele>
        <time>2012-04-01T07:39:25Z</time>
      </trkpt>
      <trkpt lat="46.97511" lon="-0.68239">
        <ele>167.6</ele>
        <time>2012-04-01T07:39:26Z</time>
      </trkpt>
      <trkpt lat="46.97514" lon="-0.68245">
        <ele>167.6</ele>
        <time>2012-04-01T07:39:27Z</time>
      </trkpt>
      <trkpt lat="46.97517" lon="-0.6825">
        <ele>167.6</ele>
        <time>2012-04-01T07:39:28Z</time>
      </trkpt>
      <trkpt lat="46.9752" lon="-0.68256">
        <ele>167.6</ele>
        <time>2012-04-01T07:39:29Z</time>
      </trkpt>
      <trkpt lat="46.97523" lon="-0.68261">
        <ele>167.8</ele>
        <time>2012-04-01T07:39:30Z</time>
      </trkpt>
      <trkpt lat="46.97525" lon="-0.68266">
        <ele>168.1</ele>
        <time>2012-04-01T07:39:31Z</time>
      </trkpt>
      <trkpt lat="46.97528" lon="-0.68272">
        <ele>168.3</ele>
        <time>2012-04-01T07:39:32Z</time>
      </trkpt>
      <trkpt lat="46.97531" lon="-0.68278">
        <ele>168.6</ele>
        <time>2012-04-01T07:39:33Z</time>
      </trkpt>
      <trkpt lat="46.97534" lon="-0.68284">
        <ele>168.8</ele>
        <time>2012-04-01T07:39:34Z</time>
      </trkpt>
      <trkpt lat="46.97537" lon="-0.6829">
        <ele>168.8</ele>
        <time>2012-04-01T07:39:35Z</time>
      </trkpt>
      <trkpt lat="46.97539" lon="-0.68296">
        <ele>169.1</ele>
        <time>2012-04-01T07:39:36Z</time>
      </trkpt>
      <trkpt lat="46.97542" lon="-0.68302">
        <ele>169.5</ele>
        <time>2012-04-01T07:39:37Z</time>
      </trkpt>
      <trkpt lat="46.97545" lon="-0.68308">
        <ele>169.6</ele>
        <time>2012-04-01T07:39:38Z</time>
      </trkpt>
      <trkpt lat="46.97547" lon="-0.68314">
        <ele>170</ele>
        <time>2012-04-01T07:39:39Z</time>
      </trkpt>
      <trkpt lat="46.9755" lon="-0.6832">
        <ele>170.1</ele>
        <time>2012-04-01T07:39:40Z</time>
      </trkpt>
      <trkpt lat="46.97553" lon="-0.68327">
        <ele>170.1</ele>
        <time>2012-04-01T07:39:41Z</time>
      </trkpt>
      <trkpt lat="46.97556" lon="-0.68333">
        <ele>170.1</ele>
        <time>2012-04-01T07:39:42Z</time>
      </trkpt>
      <trkpt lat="46.97558" lon="-0.68339">
        <ele>170.1</ele>
        <time>2012-04-01T07:39:43Z</time>
      </trkpt>
      <trkpt lat="46.97561" lon="-0.68345">
        <ele>169.8</ele>
        <time>2012-04-01T07:39:44Z</time>
      </trkpt>
      <trkpt lat="46.97564" lon="-0.68351">
        <ele>169.6</ele>
        <time>2012-04-01T07:39:45Z</time>
      </trkpt>
      <trkpt lat="46.97567" lon="-0.68357">
        <ele>169.5</ele>
        <time>2012-04-01T07:39:46Z</time>
      </trkpt>
      <trkpt lat="46.9757" lon="-0.68363">
        <ele>169.6</ele>
        <time>2012-04-01T07:39:47Z</time>
      </trkpt>
      <trkpt lat="46.97573" lon="-0.68368">
        <ele>169.6</ele>
        <time>2012-04-01T07:39:48Z</time>
      </trkpt>
      <trkpt lat="46.97576" lon="-0.68374">
        <ele>169.8</ele>
        <time>2012-04-01T07:39:49Z</time>
      </trkpt>
      <trkpt lat="46.9758" lon="-0.68379">
        <ele>170</ele>
        <time>2012-04-01T07:39:50Z</time>
      </trkpt>
      <trkpt lat="46.97583" lon="-0.68385">
        <ele>170.1</ele>
        <time>2012-04-01T07:39:51Z</time>
      </trkpt>
      <trkpt lat="46.97586" lon="-0.68391">
        <ele>170.3</ele>
        <time>2012-04-01T07:39:52Z</time>
      </trkpt>
      <trkpt lat="46.97589" lon="-0.68396">
        <ele>170.5</ele>
        <time>2012-04-01T07:39:53Z</time>
      </trkpt>
      <trkpt lat="46.97592" lon="-0.68402">
        <ele>170.6</ele>
        <time>2012-04-01T07:39:54Z</time>
      </trkpt>
      <trkpt lat="46.97595" lon="-0.68407">
        <ele>170.6</ele>
        <time>2012-04-01T07:39:55Z</time>
      </trkpt>
      <trkpt lat="46.97598" lon="-0.68413">
        <ele>170.8</ele>
        <time>2012-04-01T07:39:56Z</time>
      </trkpt>
      <trkpt lat="46.97601" lon="-0.68419">
        <ele>171.1</ele>
        <time>2012-04-01T07:39:57Z</time>
      </trkpt>
      <trkpt lat="46.97604" lon="-0.68425">
        <ele>171.3</ele>
        <time>2012-04-01T07:39:58Z</time>
      </trkpt>
      <trkpt lat="46.97607" lon="-0.68431">
        <ele>171.6</ele>
        <time>2012-04-01T07:39:59Z</time>
      </trkpt>
      <trkpt lat="46.9761" lon="-0.68438">
        <ele>172</ele>
        <time>2012-04-01T07:40:00Z</time>
      </trkpt>
      <trkpt lat="46.97613" lon="-0.68444">
        <ele>172.1</ele>
        <time>2012-04-01T07:40:01Z</time>
      </trkpt>
      <trkpt lat="46.97615" lon="-0.6845">
        <ele>172.3</ele>
        <time>2012-04-01T07:40:02Z</time>
      </trkpt>
      <trkpt lat="46.97617" lon="-0.68456">
        <ele>172.6</ele>
        <time>2012-04-01T07:40:03Z</time>
      </trkpt>
      <trkpt lat="46.97619" lon="-0.68462">
        <ele>172.8</ele>
        <time>2012-04-01T07:40:04Z</time>
      </trkpt>
      <trkpt lat="46.97621" lon="-0.68468">
        <ele>172.8</ele>
        <time>2012-04-01T07:40:05Z</time>
      </trkpt>
      <trkpt lat="46.97623" lon="-0.68474">
        <ele>173.1</ele>
        <time>2012-04-01T07:40:06Z</time>
      </trkpt>
      <trkpt lat="46.97625" lon="-0.68481">
        <ele>173.1</ele>
        <time>2012-04-01T07:40:07Z</time>
      </trkpt>
      <trkpt lat="46.97626" lon="-0.68487">
        <ele>173.3</ele>
        <time>2012-04-01T07:40:08Z</time>
      </trkpt>
      <trkpt lat="46.97628" lon="-0.68493">
        <ele>173.3</ele>
        <time>2012-04-01T07:40:09Z</time>
      </trkpt>
      <trkpt lat="46.9763" lon="-0.68499">
        <ele>173.5</ele>
        <time>2012-04-01T07:40:10Z</time>
      </trkpt>
      <trkpt lat="46.97632" lon="-0.68505">
        <ele>173.5</ele>
        <time>2012-04-01T07:40:11Z</time>
      </trkpt>
      <trkpt lat="46.97634" lon="-0.68512">
        <ele>173.6</ele>
        <time>2012-04-01T07:40:12Z</time>
      </trkpt>
      <trkpt lat="46.97636" lon="-0.68518">
        <ele>173.6</ele>
        <time>2012-04-01T07:40:13Z</time>
      </trkpt>
      <trkpt lat="46.97639" lon="-0.6853">
        <ele>173.6</ele>
        <time>2012-04-01T07:40:15Z</time>
      </trkpt>
      <trkpt lat="46.97642" lon="-0.68542">
        <ele>173.6</ele>
        <time>2012-04-01T07:40:17Z</time>
      </trkpt>
      <trkpt lat="46.97646" lon="-0.68554">
        <ele>173.6</ele>
        <time>2012-04-01T07:40:19Z</time>
      </trkpt>
      <trkpt lat="46.97649" lon="-0.68566">
        <ele>173.8</ele>
        <time>2012-04-01T07:40:21Z</time>
      </trkpt>
      <trkpt lat="46.97651" lon="-0.68572">
        <ele>173.8</ele>
        <time>2012-04-01T07:40:22Z</time>
      </trkpt>
      <trkpt lat="46.97653" lon="-0.68578">
        <ele>173.8</ele>
        <time>2012-04-01T07:40:23Z</time>
      </trkpt>
      <trkpt lat="46.97655" lon="-0.68585">
        <ele>173.8</ele>
        <time>2012-04-01T07:40:24Z</time>
      </trkpt>
      <trkpt lat="46.97656" lon="-0.68592">
        <ele>174</ele>
        <time>2012-04-01T07:40:25Z</time>
      </trkpt>
      <trkpt lat="46.97658" lon="-0.68599">
        <ele>174</ele>
        <time>2012-04-01T07:40:26Z</time>
      </trkpt>
      <trkpt lat="46.9766" lon="-0.68606">
        <ele>174.1</ele>
        <time>2012-04-01T07:40:27Z</time>
      </trkpt>
      <trkpt lat="46.97662" lon="-0.68613">
        <ele>174.1</ele>
        <time>2012-04-01T07:40:28Z</time>
      </trkpt>
      <trkpt lat="46.97664" lon="-0.6862">
        <ele>174.1</ele>
        <time>2012-04-01T07:40:29Z</time>
      </trkpt>
      <trkpt lat="46.97666" lon="-0.68627">
        <ele>174.1</ele>
        <time>2012-04-01T07:40:30Z</time>
      </trkpt>
      <trkpt lat="46.97668" lon="-0.68635">
        <ele>174.3</ele>
        <time>2012-04-01T07:40:31Z</time>
      </trkpt>
      <trkpt lat="46.9767" lon="-0.68643">
        <ele>174.3</ele>
        <time>2012-04-01T07:40:32Z</time>
      </trkpt>
      <trkpt lat="46.97673" lon="-0.68651">
        <ele>174.3</ele>
        <time>2012-04-01T07:40:33Z</time>
      </trkpt>
      <trkpt lat="46.97675" lon="-0.6866">
        <ele>174.3</ele>
        <time>2012-04-01T07:40:34Z</time>
      </trkpt>
      <trkpt lat="46.97677" lon="-0.68668">
        <ele>174.3</ele>
        <time>2012-04-01T07:40:35Z</time>
      </trkpt>
      <trkpt lat="46.9768" lon="-0.68677">
        <ele>174.1</ele>
        <time>2012-04-01T07:40:36Z</time>
      </trkpt>
      <trkpt lat="46.97682" lon="-0.68686">
        <ele>174.1</ele>
        <time>2012-04-01T07:40:37Z</time>
      </trkpt>
      <trkpt lat="46.97685" lon="-0.68695">
        <ele>174.1</ele>
        <time>2012-04-01T07:40:38Z</time>
      </trkpt>
      <trkpt lat="46.97687" lon="-0.68704">
        <ele>174.1</ele>
        <time>2012-04-01T07:40:39Z</time>
      </trkpt>
      <trkpt lat="46.9769" lon="-0.68713">
        <ele>174</ele>
        <time>2012-04-01T07:40:40Z</time>
      </trkpt>
      <trkpt lat="46.97692" lon="-0.68722">
        <ele>174</ele>
        <time>2012-04-01T07:40:41Z</time>
      </trkpt>
      <trkpt lat="46.97695" lon="-0.68731">
        <ele>174</ele>
        <time>2012-04-01T07:40:42Z</time>
      </trkpt>
      <trkpt lat="46.97697" lon="-0.68739">
        <ele>174</ele>
        <time>2012-04-01T07:40:43Z</time>
      </trkpt>
      <trkpt lat="46.977" lon="-0.68748">
        <ele>173.8</ele>
        <time>2012-04-01T07:40:44Z</time>
      </trkpt>
      <trkpt lat="46.97703" lon="-0.68757">
        <ele>173.8</ele>
        <time>2012-04-01T07:40:45Z</time>
      </trkpt>
      <trkpt lat="46.97705" lon="-0.68766">
        <ele>173.8</ele>
        <time>2012-04-01T07:40:46Z</time>
      </trkpt>
      <trkpt lat="46.97708" lon="-0.68774">
        <ele>173.8</ele>
        <time>2012-04-01T07:40:47Z</time>
      </trkpt>
      <trkpt lat="46.97711" lon="-0.68783">
        <ele>173.8</ele>
        <time>2012-04-01T07:40:48Z</time>
      </trkpt>
      <trkpt lat="46.97713" lon="-0.68792">
        <ele>173.6</ele>
        <time>2012-04-01T07:40:49Z</time>
      </trkpt>
      <trkpt lat="46.97716" lon="-0.68801">
        <ele>173.6</ele>
        <time>2012-04-01T07:40:50Z</time>
      </trkpt>
      <trkpt lat="46.97718" lon="-0.68809">
        <ele>173.6</ele>
        <time>2012-04-01T07:40:51Z</time>
      </trkpt>
      <trkpt lat="46.9772" lon="-0.68818">
        <ele>173.6</ele>
        <time>2012-04-01T07:40:52Z</time>
      </trkpt>
      <trkpt lat="46.97723" lon="-0.68826">
        <ele>173.6</ele>
        <time>2012-04-01T07:40:53Z</time>
      </trkpt>
      <trkpt lat="46.97725" lon="-0.68834">
        <ele>173.8</ele>
        <time>2012-04-01T07:40:54Z</time>
      </trkpt>
      <trkpt lat="46.97727" lon="-0.68842">
        <ele>173.8</ele>
        <time>2012-04-01T07:40:55Z</time>
      </trkpt>
      <trkpt lat="46.97729" lon="-0.68851">
        <ele>173.8</ele>
        <time>2012-04-01T07:40:56Z</time>
      </trkpt>
      <trkpt lat="46.9773" lon="-0.68859">
        <ele>173.8</ele>
        <time>2012-04-01T07:40:57Z</time>
      </trkpt>
      <trkpt lat="46.97732" lon="-0.68866">
        <ele>173.8</ele>
        <time>2012-04-01T07:40:58Z</time>
      </trkpt>
      <trkpt lat="46.97733" lon="-0.68874">
        <ele>173.6</ele>
        <time>2012-04-01T07:40:59Z</time>
      </trkpt>
      <trkpt lat="46.97735" lon="-0.68882">
        <ele>173.6</ele>
        <time>2012-04-01T07:41:00Z</time>
      </trkpt>
      <trkpt lat="46.97736" lon="-0.6889">
        <ele>173.6</ele>
        <time>2012-04-01T07:41:01Z</time>
      </trkpt>
      <trkpt lat="46.97737" lon="-0.68898">
        <ele>173.6</ele>
        <time>2012-04-01T07:41:02Z</time>
      </trkpt>
      <trkpt lat="46.97738" lon="-0.68906">
        <ele>173.5</ele>
        <time>2012-04-01T07:41:03Z</time>
      </trkpt>
      <trkpt lat="46.97739" lon="-0.68913">
        <ele>173.3</ele>
        <time>2012-04-01T07:41:04Z</time>
      </trkpt>
      <trkpt lat="46.97739" lon="-0.68921">
        <ele>173.3</ele>
        <time>2012-04-01T07:41:05Z</time>
      </trkpt>
      <trkpt lat="46.9774" lon="-0.68928">
        <ele>173.1</ele>
        <time>2012-04-01T07:41:06Z</time>
      </trkpt>
      <trkpt lat="46.9774" lon="-0.68935">
        <ele>173.1</ele>
        <time>2012-04-01T07:41:07Z</time>
      </trkpt>
      <trkpt lat="46.97741" lon="-0.68942">
        <ele>173.1</ele>
        <time>2012-04-01T07:41:08Z</time>
      </trkpt>
      <trkpt lat="46.97741" lon="-0.68949">
        <ele>173</ele>
        <time>2012-04-01T07:41:09Z</time>
      </trkpt>
      <trkpt lat="46.97741" lon="-0.68956">
        <ele>173</ele>
        <time>2012-04-01T07:41:10Z</time>
      </trkpt>
      <trkpt lat="46.97741" lon="-0.68963">
        <ele>173</ele>
        <time>2012-04-01T07:41:11Z</time>
      </trkpt>
      <trkpt lat="46.97742" lon="-0.6897">
        <ele>172.8</ele>
        <time>2012-04-01T07:41:12Z</time>
      </trkpt>
      <trkpt lat="46.97742" lon="-0.68983">
        <ele>172.8</ele>
        <time>2012-04-01T07:41:14Z</time>
      </trkpt>
      <trkpt lat="46.97742" lon="-0.68996">
        <ele>172.8</ele>
        <time>2012-04-01T07:41:16Z</time>
      </trkpt>
      <trkpt lat="46.97743" lon="-0.69008">
        <ele>172.8</ele>
        <time>2012-04-01T07:41:18Z</time>
      </trkpt>
      <trkpt lat="46.97743" lon="-0.6902">
        <ele>172.6</ele>
        <time>2012-04-01T07:41:20Z</time>
      </trkpt>
      <trkpt lat="46.97743" lon="-0.69032">
        <ele>172.6</ele>
        <time>2012-04-01T07:41:22Z</time>
      </trkpt>
      <trkpt lat="46.97743" lon="-0.69044">
        <ele>172.8</ele>
        <time>2012-04-01T07:41:24Z</time>
      </trkpt>
      <trkpt lat="46.97743" lon="-0.69055">
        <ele>172.8</ele>
        <time>2012-04-01T07:41:26Z</time>
      </trkpt>
      <trkpt lat="46.97743" lon="-0.69067">
        <ele>172.8</ele>
        <time>2012-04-01T07:41:28Z</time>
      </trkpt>
      <trkpt lat="46.97744" lon="-0.69078">
        <ele>173.1</ele>
        <time>2012-04-01T07:41:30Z</time>
      </trkpt>
      <trkpt lat="46.97744" lon="-0.69085">
        <ele>173.1</ele>
        <time>2012-04-01T07:41:31Z</time>
      </trkpt>
      <trkpt lat="46.97745" lon="-0.69103">
        <ele>173.3</ele>
        <time>2012-04-01T07:41:34Z</time>
      </trkpt>
      <trkpt lat="46.97745" lon="-0.69115">
        <ele>173.6</ele>
        <time>2012-04-01T07:41:36Z</time>
      </trkpt>
      <trkpt lat="46.97746" lon="-0.69127">
        <ele>173.8</ele>
        <time>2012-04-01T07:41:38Z</time>
      </trkpt>
      <trkpt lat="46.97746" lon="-0.69138">
        <ele>174</ele>
        <time>2012-04-01T07:41:40Z</time>
      </trkpt>
      <trkpt lat="46.97746" lon="-0.69149">
        <ele>174</ele>
        <time>2012-04-01T07:41:42Z</time>
      </trkpt>
      <trkpt lat="46.97747" lon="-0.69159">
        <ele>174</ele>
        <time>2012-04-01T07:41:44Z</time>
      </trkpt>
      <trkpt lat="46.97747" lon="-0.6917">
        <ele>174.1</ele>
        <time>2012-04-01T07:41:46Z</time>
      </trkpt>
      <trkpt lat="46.97746" lon="-0.69181">
        <ele>174.6</ele>
        <time>2012-04-01T07:41:48Z</time>
      </trkpt>
      <trkpt lat="46.97747" lon="-0.69193">
        <ele>175</ele>
        <time>2012-04-01T07:41:50Z</time>
      </trkpt>
      <trkpt lat="46.97747" lon="-0.69204">
        <ele>175.3</ele>
        <time>2012-04-01T07:41:52Z</time>
      </trkpt>
      <trkpt lat="46.97748" lon="-0.69216">
        <ele>175.6</ele>
        <time>2012-04-01T07:41:54Z</time>
      </trkpt>
      <trkpt lat="46.97749" lon="-0.69227">
        <ele>176</ele>
        <time>2012-04-01T07:41:56Z</time>
      </trkpt>
      <trkpt lat="46.9775" lon="-0.69238">
        <ele>176.1</ele>
        <time>2012-04-01T07:41:58Z</time>
      </trkpt>
      <trkpt lat="46.97751" lon="-0.69249">
        <ele>176.3</ele>
        <time>2012-04-01T07:42:00Z</time>
      </trkpt>
      <trkpt lat="46.97751" lon="-0.6926">
        <ele>176.5</ele>
        <time>2012-04-01T07:42:02Z</time>
      </trkpt>
      <trkpt lat="46.97752" lon="-0.69272">
        <ele>176.8</ele>
        <time>2012-04-01T07:42:04Z</time>
      </trkpt>
      <trkpt lat="46.97752" lon="-0.69283">
        <ele>177</ele>
        <time>2012-04-01T07:42:06Z</time>
      </trkpt>
      <trkpt lat="46.97753" lon="-0.69294">
        <ele>177.1</ele>
        <time>2012-04-01T07:42:08Z</time>
      </trkpt>
      <trkpt lat="46.97753" lon="-0.69306">
        <ele>177.3</ele>
        <time>2012-04-01T07:42:10Z</time>
      </trkpt>
      <trkpt lat="46.97753" lon="-0.69317">
        <ele>177.5</ele>
        <time>2012-04-01T07:42:12Z</time>
      </trkpt>
      <trkpt lat="46.97754" lon="-0.69328">
        <ele>177.6</ele>
        <time>2012-04-01T07:42:14Z</time>
      </trkpt>
      <trkpt lat="46.97754" lon="-0.69339">
        <ele>177.6</ele>
        <time>2012-04-01T07:42:16Z</time>
      </trkpt>
      <trkpt lat="46.97755" lon="-0.6935">
        <ele>177.6</ele>
        <time>2012-04-01T07:42:18Z</time>
      </trkpt>
      <trkpt lat="46.97755" lon="-0.69361">
        <ele>177.6</ele>
        <time>2012-04-01T07:42:20Z</time>
      </trkpt>
      <trkpt lat="46.97756" lon="-0.69372">
        <ele>177.6</ele>
        <time>2012-04-01T07:42:22Z</time>
      </trkpt>
      <trkpt lat="46.97756" lon="-0.69384">
        <ele>177.6</ele>
        <time>2012-04-01T07:42:24Z</time>
      </trkpt>
      <trkpt lat="46.97757" lon="-0.69396">
        <ele>177.6</ele>
        <time>2012-04-01T07:42:26Z</time>
      </trkpt>
      <trkpt lat="46.97758" lon="-0.69407">
        <ele>177.8</ele>
        <time>2012-04-01T07:42:28Z</time>
      </trkpt>
      <trkpt lat="46.97759" lon="-0.69419">
        <ele>178.1</ele>
        <time>2012-04-01T07:42:30Z</time>
      </trkpt>
      <trkpt lat="46.9776" lon="-0.69431">
        <ele>178.3</ele>
        <time>2012-04-01T07:42:32Z</time>
      </trkpt>
      <trkpt lat="46.9776" lon="-0.69437">
        <ele>178.6</ele>
        <time>2012-04-01T07:42:33Z</time>
      </trkpt>
      <trkpt lat="46.97761" lon="-0.69455">
        <ele>179.6</ele>
        <time>2012-04-01T07:42:36Z</time>
      </trkpt>
      <trkpt lat="46.97762" lon="-0.69468">
        <ele>180.1</ele>
        <time>2012-04-01T07:42:38Z</time>
      </trkpt>
      <trkpt lat="46.97763" lon="-0.69481">
        <ele>180.8</ele>
        <time>2012-04-01T07:42:40Z</time>
      </trkpt>
      <trkpt lat="46.97763" lon="-0.69494">
        <ele>181.6</ele>
        <time>2012-04-01T07:42:42Z</time>
      </trkpt>
      <trkpt lat="46.97764" lon="-0.69506">
        <ele>182.1</ele>
        <time>2012-04-01T07:42:44Z</time>
      </trkpt>
      <trkpt lat="46.97765" lon="-0.69519">
        <ele>182.6</ele>
        <time>2012-04-01T07:42:46Z</time>
      </trkpt>
      <trkpt lat="46.97766" lon="-0.69532">
        <ele>183</ele>
        <time>2012-04-01T07:42:48Z</time>
      </trkpt>
      <trkpt lat="46.97767" lon="-0.69545">
        <ele>183.3</ele>
        <time>2012-04-01T07:42:50Z</time>
      </trkpt>
      <trkpt lat="46.97768" lon="-0.69558">
        <ele>183.8</ele>
        <time>2012-04-01T07:42:52Z</time>
      </trkpt>
      <trkpt lat="46.97769" lon="-0.6957">
        <ele>184.1</ele>
        <time>2012-04-01T07:42:54Z</time>
      </trkpt>
      <trkpt lat="46.9777" lon="-0.69582">
        <ele>184.6</ele>
        <time>2012-04-01T07:42:56Z</time>
      </trkpt>
      <trkpt lat="46.97771" lon="-0.69595">
        <ele>185</ele>
        <time>2012-04-01T07:42:58Z</time>
      </trkpt>
      <trkpt lat="46.97773" lon="-0.69607">
        <ele>185.1</ele>
        <time>2012-04-01T07:43:00Z</time>
      </trkpt>
      <trkpt lat="46.97774" lon="-0.69613">
        <ele>185.1</ele>
        <time>2012-04-01T07:43:01Z</time>
      </trkpt>
      <trkpt lat="46.97776" lon="-0.69619">
        <ele>185.3</ele>
        <time>2012-04-01T07:43:02Z</time>
      </trkpt>
      <trkpt lat="46.97778" lon="-0.69626">
        <ele>185.3</ele>
        <time>2012-04-01T07:43:03Z</time>
      </trkpt>
      <trkpt lat="46.9778" lon="-0.69632">
        <ele>185.5</ele>
        <time>2012-04-01T07:43:04Z</time>
      </trkpt>
      <trkpt lat="46.97783" lon="-0.69638">
        <ele>185.6</ele>
        <time>2012-04-01T07:43:05Z</time>
      </trkpt>
      <trkpt lat="46.97786" lon="-0.69644">
        <ele>185.8</ele>
        <time>2012-04-01T07:43:06Z</time>
      </trkpt>
      <trkpt lat="46.97789" lon="-0.6965">
        <ele>186</ele>
        <time>2012-04-01T07:43:07Z</time>
      </trkpt>
      <trkpt lat="46.97792" lon="-0.69655">
        <ele>186.1</ele>
        <time>2012-04-01T07:43:08Z</time>
      </trkpt>
      <trkpt lat="46.97795" lon="-0.69661">
        <ele>186.3</ele>
        <time>2012-04-01T07:43:09Z</time>
      </trkpt>
      <trkpt lat="46.97798" lon="-0.69667">
        <ele>186.6</ele>
        <time>2012-04-01T07:43:10Z</time>
      </trkpt>
      <trkpt lat="46.97802" lon="-0.69672">
        <ele>186.8</ele>
        <time>2012-04-01T07:43:11Z</time>
      </trkpt>
      <trkpt lat="46.97805" lon="-0.69678">
        <ele>186.8</ele>
        <time>2012-04-01T07:43:12Z</time>
      </trkpt>
      <trkpt lat="46.97809" lon="-0.69684">
        <ele>187.1</ele>
        <time>2012-04-01T07:43:13Z</time>
      </trkpt>
      <trkpt lat="46.97812" lon="-0.69691">
        <ele>187.1</ele>
        <time>2012-04-01T07:43:14Z</time>
      </trkpt>
      <trkpt lat="46.97816" lon="-0.69697">
        <ele>187.3</ele>
        <time>2012-04-01T07:43:15Z</time>
      </trkpt>
      <trkpt lat="46.97819" lon="-0.69703">
        <ele>187.3</ele>
        <time>2012-04-01T07:43:16Z</time>
      </trkpt>
      <trkpt lat="46.97823" lon="-0.6971">
        <ele>187.5</ele>
        <time>2012-04-01T07:43:17Z</time>
      </trkpt>
      <trkpt lat="46.97826" lon="-0.69717">
        <ele>187.5</ele>
        <time>2012-04-01T07:43:18Z</time>
      </trkpt>
      <trkpt lat="46.9783" lon="-0.69724">
        <ele>187.6</ele>
        <time>2012-04-01T07:43:19Z</time>
      </trkpt>
      <trkpt lat="46.97833" lon="-0.69731">
        <ele>187.6</ele>
        <time>2012-04-01T07:43:20Z</time>
      </trkpt>
      <trkpt lat="46.97836" lon="-0.69738">
        <ele>187.6</ele>
        <time>2012-04-01T07:43:21Z</time>
      </trkpt>
      <trkpt lat="46.9784" lon="-0.69745">
        <ele>187.6</ele>
        <time>2012-04-01T07:43:22Z</time>
      </trkpt>
      <trkpt lat="46.97843" lon="-0.69753">
        <ele>187.6</ele>
        <time>2012-04-01T07:43:23Z</time>
      </trkpt>
      <trkpt lat="46.97846" lon="-0.6976">
        <ele>187.6</ele>
        <time>2012-04-01T07:43:24Z</time>
      </trkpt>
      <trkpt lat="46.9785" lon="-0.69767">
        <ele>187.6</ele>
        <time>2012-04-01T07:43:25Z</time>
      </trkpt>
      <trkpt lat="46.97853" lon="-0.69774">
        <ele>187.6</ele>
        <time>2012-04-01T07:43:26Z</time>
      </trkpt>
      <trkpt lat="46.97856" lon="-0.69781">
        <ele>187.6</ele>
        <time>2012-04-01T07:43:27Z</time>
      </trkpt>
      <trkpt lat="46.97859" lon="-0.69788">
        <ele>187.6</ele>
        <time>2012-04-01T07:43:28Z</time>
      </trkpt>
      <trkpt lat="46.97863" lon="-0.69795">
        <ele>187.6</ele>
        <time>2012-04-01T07:43:29Z</time>
      </trkpt>
      <trkpt lat="46.97866" lon="-0.69801">
        <ele>187.6</ele>
        <time>2012-04-01T07:43:30Z</time>
      </trkpt>
      <trkpt lat="46.9787" lon="-0.69808">
        <ele>187.5</ele>
        <time>2012-04-01T07:43:31Z</time>
      </trkpt>
      <trkpt lat="46.97874" lon="-0.69815">
        <ele>187.3</ele>
        <time>2012-04-01T07:43:32Z</time>
      </trkpt>
      <trkpt lat="46.97878" lon="-0.69821">
        <ele>187.3</ele>
        <time>2012-04-01T07:43:33Z</time>
      </trkpt>
      <trkpt lat="46.97882" lon="-0.69828">
        <ele>187.3</ele>
        <time>2012-04-01T07:43:34Z</time>
      </trkpt>
      <trkpt lat="46.97886" lon="-0.69834">
        <ele>187.1</ele>
        <time>2012-04-01T07:43:35Z</time>
      </trkpt>
      <trkpt lat="46.9789" lon="-0.6984">
        <ele>187.1</ele>
        <time>2012-04-01T07:43:36Z</time>
      </trkpt>
      <trkpt lat="46.97894" lon="-0.69847">
        <ele>187.1</ele>
        <time>2012-04-01T07:43:37Z</time>
      </trkpt>
      <trkpt lat="46.97898" lon="-0.69854">
        <ele>187.1</ele>
        <time>2012-04-01T07:43:38Z</time>
      </trkpt>
      <trkpt lat="46.97902" lon="-0.6986">
        <ele>187.1</ele>
        <time>2012-04-01T07:43:39Z</time>
      </trkpt>
      <trkpt lat="46.97906" lon="-0.69867">
        <ele>187.1</ele>
        <time>2012-04-01T07:43:40Z</time>
      </trkpt>
      <trkpt lat="46.9791" lon="-0.69874">
        <ele>187.3</ele>
        <time>2012-04-01T07:43:41Z</time>
      </trkpt>
      <trkpt lat="46.97914" lon="-0.69881">
        <ele>187.3</ele>
        <time>2012-04-01T07:43:42Z</time>
      </trkpt>
      <trkpt lat="46.97918" lon="-0.69889">
        <ele>187.3</ele>
        <time>2012-04-01T07:43:43Z</time>
      </trkpt>
      <trkpt lat="46.97922" lon="-0.69896">
        <ele>187.3</ele>
        <time>2012-04-01T07:43:44Z</time>
      </trkpt>
      <trkpt lat="46.97926" lon="-0.69904">
        <ele>187.3</ele>
        <time>2012-04-01T07:43:45Z</time>
      </trkpt>
      <trkpt lat="46.9793" lon="-0.69912">
        <ele>187.3</ele>
        <time>2012-04-01T07:43:46Z</time>
      </trkpt>
      <trkpt lat="46.97933" lon="-0.6992">
        <ele>187.3</ele>
        <time>2012-04-01T07:43:47Z</time>
      </trkpt>
      <trkpt lat="46.97937" lon="-0.69928">
        <ele>187.1</ele>
        <time>2012-04-01T07:43:48Z</time>
      </trkpt>
      <trkpt lat="46.97941" lon="-0.69936">
        <ele>187.1</ele>
        <time>2012-04-01T07:43:49Z</time>
      </trkpt>
      <trkpt lat="46.97945" lon="-0.69944">
        <ele>186.8</ele>
        <time>2012-04-01T07:43:50Z</time>
      </trkpt>
      <trkpt lat="46.97948" lon="-0.69953">
        <ele>186.8</ele>
        <time>2012-04-01T07:43:51Z</time>
      </trkpt>
      <trkpt lat="46.97952" lon="-0.69961">
        <ele>186.6</ele>
        <time>2012-04-01T07:43:52Z</time>
      </trkpt>
      <trkpt lat="46.97956" lon="-0.6997">
        <ele>186.6</ele>
        <time>2012-04-01T07:43:53Z</time>
      </trkpt>
      <trkpt lat="46.97959" lon="-0.69978">
        <ele>186.5</ele>
        <time>2012-04-01T07:43:54Z</time>
      </trkpt>
      <trkpt lat="46.97962" lon="-0.69987">
        <ele>186.3</ele>
        <time>2012-04-01T07:43:55Z</time>
      </trkpt>
      <trkpt lat="46.97965" lon="-0.69997">
        <ele>186.1</ele>
        <time>2012-04-01T07:43:56Z</time>
      </trkpt>
      <trkpt lat="46.97968" lon="-0.70006">
        <ele>186.1</ele>
        <time>2012-04-01T07:43:57Z</time>
      </trkpt>
      <trkpt lat="46.9797" lon="-0.70016">
        <ele>186.1</ele>
        <time>2012-04-01T07:43:58Z</time>
      </trkpt>
      <trkpt lat="46.97972" lon="-0.70025">
        <ele>186.1</ele>
        <time>2012-04-01T07:43:59Z</time>
      </trkpt>
      <trkpt lat="46.97973" lon="-0.70035">
        <ele>186.1</ele>
        <time>2012-04-01T07:44:00Z</time>
      </trkpt>
      <trkpt lat="46.97975" lon="-0.70045">
        <ele>186.1</ele>
        <time>2012-04-01T07:44:01Z</time>
      </trkpt>
      <trkpt lat="46.97976" lon="-0.70055">
        <ele>186.1</ele>
        <time>2012-04-01T07:44:02Z</time>
      </trkpt>
      <trkpt lat="46.97977" lon="-0.70065">
        <ele>186.3</ele>
        <time>2012-04-01T07:44:03Z</time>
      </trkpt>
      <trkpt lat="46.97978" lon="-0.70074">
        <ele>186.3</ele>
        <time>2012-04-01T07:44:04Z</time>
      </trkpt>
      <trkpt lat="46.9798" lon="-0.70084">
        <ele>186.3</ele>
        <time>2012-04-01T07:44:05Z</time>
      </trkpt>
      <trkpt lat="46.97981" lon="-0.70095">
        <ele>186.3</ele>
        <time>2012-04-01T07:44:06Z</time>
      </trkpt>
      <trkpt lat="46.97982" lon="-0.70105">
        <ele>186.3</ele>
        <time>2012-04-01T07:44:07Z</time>
      </trkpt>
      <trkpt lat="46.97983" lon="-0.70115">
        <ele>186.3</ele>
        <time>2012-04-01T07:44:08Z</time>
      </trkpt>
      <trkpt lat="46.97984" lon="-0.70126">
        <ele>186.5</ele>
        <time>2012-04-01T07:44:09Z</time>
      </trkpt>
      <trkpt lat="46.97985" lon="-0.70137">
        <ele>186.5</ele>
        <time>2012-04-01T07:44:10Z</time>
      </trkpt>
      <trkpt lat="46.97986" lon="-0.70147">
        <ele>186.6</ele>
        <time>2012-04-01T07:44:11Z</time>
      </trkpt>
      <trkpt lat="46.97987" lon="-0.70158">
        <ele>186.6</ele>
        <time>2012-04-01T07:44:12Z</time>
      </trkpt>
      <trkpt lat="46.97988" lon="-0.70169">
        <ele>186.6</ele>
        <time>2012-04-01T07:44:13Z</time>
      </trkpt>
      <trkpt lat="46.97989" lon="-0.7018">
        <ele>186.6</ele>
        <time>2012-04-01T07:44:14Z</time>
      </trkpt>
      <trkpt lat="46.9799" lon="-0.70192">
        <ele>186.6</ele>
        <time>2012-04-01T07:44:15Z</time>
      </trkpt>
      <trkpt lat="46.9799" lon="-0.70203">
        <ele>186.5</ele>
        <time>2012-04-01T07:44:16Z</time>
      </trkpt>
      <trkpt lat="46.97991" lon="-0.70215">
        <ele>186.3</ele>
        <time>2012-04-01T07:44:17Z</time>
      </trkpt>
      <trkpt lat="46.97991" lon="-0.70227">
        <ele>186.3</ele>
        <time>2012-04-01T07:44:18Z</time>
      </trkpt>
      <trkpt lat="46.97992" lon="-0.70239">
        <ele>186.1</ele>
        <time>2012-04-01T07:44:19Z</time>
      </trkpt>
      <trkpt lat="46.97992" lon="-0.70251">
        <ele>186.1</ele>
        <time>2012-04-01T07:44:20Z</time>
      </trkpt>
      <trkpt lat="46.97992" lon="-0.70263">
        <ele>186.1</ele>
        <time>2012-04-01T07:44:21Z</time>
      </trkpt>
      <trkpt lat="46.97992" lon="-0.70275">
        <ele>186.1</ele>
        <time>2012-04-01T07:44:22Z</time>
      </trkpt>
      <trkpt lat="46.97991" lon="-0.70288">
        <ele>186.1</ele>
        <time>2012-04-01T07:44:23Z</time>
      </trkpt>
      <trkpt lat="46.97991" lon="-0.703">
        <ele>186.1</ele>
        <time>2012-04-01T07:44:24Z</time>
      </trkpt>
      <trkpt lat="46.9799" lon="-0.70312">
        <ele>185.8</ele>
        <time>2012-04-01T07:44:25Z</time>
      </trkpt>
      <trkpt lat="46.9799" lon="-0.70325">
        <ele>185.8</ele>
        <time>2012-04-01T07:44:26Z</time>
      </trkpt>
      <trkpt lat="46.97989" lon="-0.70337">
        <ele>185.6</ele>
        <time>2012-04-01T07:44:27Z</time>
      </trkpt>
      <trkpt lat="46.97989" lon="-0.7035">
        <ele>185.5</ele>
        <time>2012-04-01T07:44:28Z</time>
      </trkpt>
      <trkpt lat="46.97988" lon="-0.70362">
        <ele>185.3</ele>
        <time>2012-04-01T07:44:29Z</time>
      </trkpt>
      <trkpt lat="46.97987" lon="-0.70375">
        <ele>185</ele>
        <time>2012-04-01T07:44:30Z</time>
      </trkpt>
      <trkpt lat="46.97987" lon="-0.70387">
        <ele>184.8</ele>
        <time>2012-04-01T07:44:31Z</time>
      </trkpt>
      <trkpt lat="46.97986" lon="-0.70399">
        <ele>184.5</ele>
        <time>2012-04-01T07:44:32Z</time>
      </trkpt>
      <trkpt lat="46.97986" lon="-0.70411">
        <ele>184.3</ele>
        <time>2012-04-01T07:44:33Z</time>
      </trkpt>
      <trkpt lat="46.97985" lon="-0.70423">
        <ele>184.1</ele>
        <time>2012-04-01T07:44:34Z</time>
      </trkpt>
      <trkpt lat="46.97985" lon="-0.70435">
        <ele>183.8</ele>
        <time>2012-04-01T07:44:35Z</time>
      </trkpt>
      <trkpt lat="46.97984" lon="-0.70445">
        <ele>183.6</ele>
        <time>2012-04-01T07:44:36Z</time>
      </trkpt>
      <trkpt lat="46.97983" lon="-0.70455">
        <ele>183.5</ele>
        <time>2012-04-01T07:44:37Z</time>
      </trkpt>
      <trkpt lat="46.97982" lon="-0.70465">
        <ele>183.3</ele>
        <time>2012-04-01T07:44:38Z</time>
      </trkpt>
      <trkpt lat="46.97981" lon="-0.70473">
        <ele>183.1</ele>
        <time>2012-04-01T07:44:39Z</time>
      </trkpt>
      <trkpt lat="46.97981" lon="-0.70482">
        <ele>182.8</ele>
        <time>2012-04-01T07:44:40Z</time>
      </trkpt>
      <trkpt lat="46.9798" lon="-0.70489">
        <ele>182.6</ele>
        <time>2012-04-01T07:44:41Z</time>
      </trkpt>
      <trkpt lat="46.9798" lon="-0.70501">
        <ele>182.3</ele>
        <time>2012-04-01T07:44:43Z</time>
      </trkpt>
      <trkpt lat="46.97975" lon="-0.70511">
        <ele>182.1</ele>
        <time>2012-04-01T07:44:46Z</time>
      </trkpt>
      <trkpt lat="46.97967" lon="-0.7051">
        <ele>181.8</ele>
        <time>2012-04-01T07:44:53Z</time>
      </trkpt>
      <trkpt lat="46.97961" lon="-0.70505">
        <ele>181.6</ele>
        <time>2012-04-01T07:45:05Z</time>
      </trkpt>
      <trkpt lat="46.97952" lon="-0.70505">
        <ele>180.8</ele>
        <time>2012-04-01T07:45:30Z</time>
      </trkpt>
      <trkpt lat="46.97945" lon="-0.70503">
        <ele>180.5</ele>
        <time>2012-04-01T07:45:33Z</time>
      </trkpt>
      <trkpt lat="46.97938" lon="-0.70502">
        <ele>180.1</ele>
        <time>2012-04-01T07:45:36Z</time>
      </trkpt>
      <trkpt lat="46.97935" lon="-0.70501">
        <ele>180.1</ele>
        <time>2012-04-01T07:45:37Z</time>
      </trkpt>
      <trkpt lat="46.97922" lon="-0.70498">
        <ele>179.6</ele>
        <time>2012-04-01T07:45:42Z</time>
      </trkpt>
      <trkpt lat="46.97917" lon="-0.70495">
        <ele>179.5</ele>
        <time>2012-04-01T07:45:44Z</time>
      </trkpt>
      <trkpt lat="46.97908" lon="-0.70492">
        <ele>179.3</ele>
        <time>2012-04-01T07:45:47Z</time>
      </trkpt>
      <trkpt lat="46.97902" lon="-0.7049">
        <ele>179.1</ele>
        <time>2012-04-01T07:45:49Z</time>
      </trkpt>
      <trkpt lat="46.97896" lon="-0.70488">
        <ele>179.1</ele>
        <time>2012-04-01T07:45:51Z</time>
      </trkpt>
      <trkpt lat="46.9789" lon="-0.70487">
        <ele>179</ele>
        <time>2012-04-01T07:45:53Z</time>
      </trkpt>
      <trkpt lat="46.97884" lon="-0.70486">
        <ele>178.8</ele>
        <time>2012-04-01T07:45:55Z</time>
      </trkpt>
      <trkpt lat="46.97877" lon="-0.70485">
        <ele>178.8</ele>
        <time>2012-04-01T07:45:57Z</time>
      </trkpt>
      <trkpt lat="46.97871" lon="-0.70484">
        <ele>178.8</ele>
        <time>2012-04-01T07:45:59Z</time>
      </trkpt>
      <trkpt lat="46.97864" lon="-0.70483">
        <ele>178.6</ele>
        <time>2012-04-01T07:46:01Z</time>
      </trkpt>
      <trkpt lat="46.97858" lon="-0.70481">
        <ele>178.6</ele>
        <time>2012-04-01T07:46:03Z</time>
      </trkpt>
      <trkpt lat="46.97849" lon="-0.70479">
        <ele>178.8</ele>
        <time>2012-04-01T07:46:06Z</time>
      </trkpt>
      <trkpt lat="46.97841" lon="-0.70476">
        <ele>178.8</ele>
        <time>2012-04-01T07:46:10Z</time>
      </trkpt>
      <trkpt lat="46.97833" lon="-0.70476">
        <ele>178.8</ele>
        <time>2012-04-01T07:46:16Z</time>
      </trkpt>
      <trkpt lat="46.97825" lon="-0.70476">
        <ele>178.8</ele>
        <time>2012-04-01T07:46:20Z</time>
      </trkpt>
      <trkpt lat="46.97818" lon="-0.70475">
        <ele>178.8</ele>
        <time>2012-04-01T07:46:23Z</time>
      </trkpt>
      <trkpt lat="46.97811" lon="-0.70474">
        <ele>178.8</ele>
        <time>2012-04-01T07:46:26Z</time>
      </trkpt>
      <trkpt lat="46.97804" lon="-0.70472">
        <ele>178.8</ele>
        <time>2012-04-01T07:46:29Z</time>
      </trkpt>
      <trkpt lat="46.97798" lon="-0.70469">
        <ele>179.1</ele>
        <time>2012-04-01T07:46:32Z</time>
      </trkpt>
      <trkpt lat="46.9779" lon="-0.70467">
        <ele>179.1</ele>
        <time>2012-04-01T07:46:35Z</time>
      </trkpt>
      <trkpt lat="46.97783" lon="-0.70465">
        <ele>179.1</ele>
        <time>2012-04-01T07:46:38Z</time>
      </trkpt>
      <trkpt lat="46.9778" lon="-0.70464">
        <ele>179.3</ele>
        <time>2012-04-01T07:46:39Z</time>
      </trkpt>
      <trkpt lat="46.97768" lon="-0.70461">
        <ele>179.5</ele>
        <time>2012-04-01T07:46:44Z</time>
      </trkpt>
      <trkpt lat="46.97761" lon="-0.70459">
        <ele>179.6</ele>
        <time>2012-04-01T07:46:47Z</time>
      </trkpt>
      <trkpt lat="46.97754" lon="-0.70457">
        <ele>179.6</ele>
        <time>2012-04-01T07:46:50Z</time>
      </trkpt>
      <trkpt lat="46.97747" lon="-0.70455">
        <ele>179.8</ele>
        <time>2012-04-01T07:46:53Z</time>
      </trkpt>
      <trkpt lat="46.97739" lon="-0.70454">
        <ele>179.8</ele>
        <time>2012-04-01T07:46:56Z</time>
      </trkpt>
      <trkpt lat="46.9773" lon="-0.70452">
        <ele>180.1</ele>
        <time>2012-04-01T07:46:59Z</time>
      </trkpt>
      <trkpt lat="46.97724" lon="-0.70451">
        <ele>180.1</ele>
        <time>2012-04-01T07:47:01Z</time>
      </trkpt>
      <trkpt lat="46.97718" lon="-0.70451">
        <ele>180.3</ele>
        <time>2012-04-01T07:47:03Z</time>
      </trkpt>
      <trkpt lat="46.97711" lon="-0.7045">
        <ele>180.3</ele>
        <time>2012-04-01T07:47:05Z</time>
      </trkpt>
      <trkpt lat="46.97704" lon="-0.70449">
        <ele>180.6</ele>
        <time>2012-04-01T07:47:07Z</time>
      </trkpt>
      <trkpt lat="46.97697" lon="-0.70447">
        <ele>180.6</ele>
        <time>2012-04-01T07:47:09Z</time>
      </trkpt>
      <trkpt lat="46.9769" lon="-0.70445">
        <ele>180.8</ele>
        <time>2012-04-01T07:47:11Z</time>
      </trkpt>
      <trkpt lat="46.97682" lon="-0.70443">
        <ele>181.8</ele>
        <time>2012-04-01T07:47:13Z</time>
      </trkpt>
      <trkpt lat="46.97674" lon="-0.70441">
        <ele>182.8</ele>
        <time>2012-04-01T07:47:15Z</time>
      </trkpt>
      <trkpt lat="46.97666" lon="-0.70439">
        <ele>183.6</ele>
        <time>2012-04-01T07:47:17Z</time>
      </trkpt>
      <trkpt lat="46.97659" lon="-0.70436">
        <ele>184</ele>
        <time>2012-04-01T07:47:19Z</time>
      </trkpt>
      <trkpt lat="46.97651" lon="-0.70434">
        <ele>184.1</ele>
        <time>2012-04-01T07:47:21Z</time>
      </trkpt>
      <trkpt lat="46.97643" lon="-0.70433">
        <ele>184.3</ele>
        <time>2012-04-01T07:47:23Z</time>
      </trkpt>
      <trkpt lat="46.97634" lon="-0.70431">
        <ele>184.3</ele>
        <time>2012-04-01T07:47:25Z</time>
      </trkpt>
      <trkpt lat="46.97626" lon="-0.70428">
        <ele>184.3</ele>
        <time>2012-04-01T07:47:27Z</time>
      </trkpt>
      <trkpt lat="46.97618" lon="-0.70426">
        <ele>184.1</ele>
        <time>2012-04-01T07:47:29Z</time>
      </trkpt>
      <trkpt lat="46.97611" lon="-0.70424">
        <ele>184.1</ele>
        <time>2012-04-01T07:47:31Z</time>
      </trkpt>
      <trkpt lat="46.97603" lon="-0.70422">
        <ele>184.1</ele>
        <time>2012-04-01T07:47:33Z</time>
      </trkpt>
      <trkpt lat="46.97595" lon="-0.7042">
        <ele>184.3</ele>
        <time>2012-04-01T07:47:35Z</time>
      </trkpt>
      <trkpt lat="46.97587" lon="-0.70418">
        <ele>184.3</ele>
        <time>2012-04-01T07:47:37Z</time>
      </trkpt>
      <trkpt lat="46.97578" lon="-0.70416">
        <ele>184.3</ele>
        <time>2012-04-01T07:47:39Z</time>
      </trkpt>
      <trkpt lat="46.97574" lon="-0.70415">
        <ele>184.3</ele>
        <time>2012-04-01T07:47:40Z</time>
      </trkpt>
      <trkpt lat="46.97563" lon="-0.70413">
        <ele>184.1</ele>
        <time>2012-04-01T07:47:43Z</time>
      </trkpt>
      <trkpt lat="46.97555" lon="-0.70412">
        <ele>184.1</ele>
        <time>2012-04-01T07:47:45Z</time>
      </trkpt>
      <trkpt lat="46.97547" lon="-0.70411">
        <ele>184.1</ele>
        <time>2012-04-01T07:47:47Z</time>
      </trkpt>
      <trkpt lat="46.97538" lon="-0.7041">
        <ele>184.3</ele>
        <time>2012-04-01T07:47:49Z</time>
      </trkpt>
      <trkpt lat="46.9753" lon="-0.70407">
        <ele>184.3</ele>
        <time>2012-04-01T07:47:51Z</time>
      </trkpt>
      <trkpt lat="46.97521" lon="-0.70405">
        <ele>184.3</ele>
        <time>2012-04-01T07:47:53Z</time>
      </trkpt>
      <trkpt lat="46.97513" lon="-0.70403">
        <ele>184.3</ele>
        <time>2012-04-01T07:47:55Z</time>
      </trkpt>
      <trkpt lat="46.97505" lon="-0.704">
        <ele>184.1</ele>
        <time>2012-04-01T07:47:57Z</time>
      </trkpt>
      <trkpt lat="46.97498" lon="-0.70398">
        <ele>184.1</ele>
        <time>2012-04-01T07:47:59Z</time>
      </trkpt>
      <trkpt lat="46.9749" lon="-0.70396">
        <ele>184.1</ele>
        <time>2012-04-01T07:48:01Z</time>
      </trkpt>
      <trkpt lat="46.97482" lon="-0.70394">
        <ele>183.6</ele>
        <time>2012-04-01T07:48:03Z</time>
      </trkpt>
      <trkpt lat="46.97474" lon="-0.70393">
        <ele>183.1</ele>
        <time>2012-04-01T07:48:05Z</time>
      </trkpt>
      <trkpt lat="46.97466" lon="-0.70391">
        <ele>183.1</ele>
        <time>2012-04-01T07:48:07Z</time>
      </trkpt>
      <trkpt lat="46.97459" lon="-0.7039">
        <ele>183.1</ele>
        <time>2012-04-01T07:48:09Z</time>
      </trkpt>
      <trkpt lat="46.97452" lon="-0.70389">
        <ele>183</ele>
        <time>2012-04-01T07:48:11Z</time>
      </trkpt>
      <trkpt lat="46.97444" lon="-0.70387">
        <ele>183</ele>
        <time>2012-04-01T07:48:13Z</time>
      </trkpt>
      <trkpt lat="46.97437" lon="-0.70386">
        <ele>182.8</ele>
        <time>2012-04-01T07:48:15Z</time>
      </trkpt>
      <trkpt lat="46.9743" lon="-0.70385">
        <ele>182.8</ele>
        <time>2012-04-01T07:48:17Z</time>
      </trkpt>
      <trkpt lat="46.97423" lon="-0.70383">
        <ele>182.6</ele>
        <time>2012-04-01T07:48:19Z</time>
      </trkpt>
      <trkpt lat="46.97417" lon="-0.70382">
        <ele>182.6</ele>
        <time>2012-04-01T07:48:21Z</time>
      </trkpt>
      <trkpt lat="46.97409" lon="-0.70381">
        <ele>182.6</ele>
        <time>2012-04-01T07:48:24Z</time>
      </trkpt>
      <trkpt lat="46.97404" lon="-0.70389">
        <ele>182.5</ele>
        <time>2012-04-01T07:48:27Z</time>
      </trkpt>
      <trkpt lat="46.97402" lon="-0.70401">
        <ele>182.1</ele>
        <time>2012-04-01T07:48:30Z</time>
      </trkpt>
      <trkpt lat="46.974" lon="-0.70412">
        <ele>182</ele>
        <time>2012-04-01T07:48:33Z</time>
      </trkpt>
      <trkpt lat="46.97397" lon="-0.70423">
        <ele>181.6</ele>
        <time>2012-04-01T07:48:37Z</time>
      </trkpt>
      <trkpt lat="46.97394" lon="-0.70433">
        <ele>181.5</ele>
        <time>2012-04-01T07:48:40Z</time>
      </trkpt>
      <trkpt lat="46.97394" lon="-0.70436">
        <ele>181.3</ele>
        <time>2012-04-01T07:48:41Z</time>
      </trkpt>
      <trkpt lat="46.97388" lon="-0.70454">
        <ele>181</ele>
        <time>2012-04-01T07:48:47Z</time>
      </trkpt>
      <trkpt lat="46.97386" lon="-0.70463">
        <ele>180.8</ele>
        <time>2012-04-01T07:48:50Z</time>
      </trkpt>
      <trkpt lat="46.97383" lon="-0.70473">
        <ele>180.6</ele>
        <time>2012-04-01T07:48:53Z</time>
      </trkpt>
      <trkpt lat="46.9738" lon="-0.70484">
        <ele>180.3</ele>
        <time>2012-04-01T07:48:56Z</time>
      </trkpt>
      <trkpt lat="46.97378" lon="-0.70494">
        <ele>180.3</ele>
        <time>2012-04-01T07:48:59Z</time>
      </trkpt>
      <trkpt lat="46.97375" lon="-0.70504">
        <ele>180.1</ele>
        <time>2012-04-01T07:49:02Z</time>
      </trkpt>
      <trkpt lat="46.97373" lon="-0.70514">
        <ele>180</ele>
        <time>2012-04-01T07:49:05Z</time>
      </trkpt>
      <trkpt lat="46.9737" lon="-0.70524">
        <ele>179.8</ele>
        <time>2012-04-01T07:49:08Z</time>
      </trkpt>
      <trkpt lat="46.97367" lon="-0.70535">
        <ele>179.8</ele>
        <time>2012-04-01T07:49:12Z</time>
      </trkpt>
      <trkpt lat="46.97364" lon="-0.70547">
        <ele>180.1</ele>
        <time>2012-04-01T07:51:08Z</time>
      </trkpt>
      <trkpt lat="46.97364" lon="-0.70548">
        <ele>180.1</ele>
        <time>2012-04-01T07:51:09Z</time>
      </trkpt>
      <trkpt lat="46.97358" lon="-0.70557">
        <ele>181.3</ele>
        <time>2012-04-01T07:52:49Z</time>
      </trkpt>
      <trkpt lat="46.97355" lon="-0.70577">
        <ele>182.1</ele>
        <time>2012-04-01T07:52:55Z</time>
      </trkpt>
      <trkpt lat="46.97352" lon="-0.70589">
        <ele>182.3</ele>
        <time>2012-04-01T07:52:58Z</time>
      </trkpt>
      <trkpt lat="46.9735" lon="-0.706">
        <ele>182.6</ele>
        <time>2012-04-01T07:53:01Z</time>
      </trkpt>
      <trkpt lat="46.97348" lon="-0.70609">
        <ele>182.8</ele>
        <time>2012-04-01T07:53:03Z</time>
      </trkpt>
      <trkpt lat="46.97346" lon="-0.70617">
        <ele>182.8</ele>
        <time>2012-04-01T07:53:05Z</time>
      </trkpt>
      <trkpt lat="46.97344" lon="-0.70627">
        <ele>183</ele>
        <time>2012-04-01T07:53:07Z</time>
      </trkpt>
      <trkpt lat="46.97341" lon="-0.70636">
        <ele>183.1</ele>
        <time>2012-04-01T07:53:09Z</time>
      </trkpt>
      <trkpt lat="46.97339" lon="-0.70646">
        <ele>183.1</ele>
        <time>2012-04-01T07:53:11Z</time>
      </trkpt>
      <trkpt lat="46.97337" lon="-0.70655">
        <ele>183.1</ele>
        <time>2012-04-01T07:53:13Z</time>
      </trkpt>
      <trkpt lat="46.97335" lon="-0.70665">
        <ele>183.1</ele>
        <time>2012-04-01T07:53:15Z</time>
      </trkpt>
      <trkpt lat="46.97333" lon="-0.70676">
        <ele>183.1</ele>
        <time>2012-04-01T07:53:17Z</time>
      </trkpt>
      <trkpt lat="46.97331" lon="-0.70686">
        <ele>183</ele>
        <time>2012-04-01T07:53:19Z</time>
      </trkpt>
      <trkpt lat="46.97328" lon="-0.70697">
        <ele>183</ele>
        <time>2012-04-01T07:53:21Z</time>
      </trkpt>
      <trkpt lat="46.97326" lon="-0.70707">
        <ele>182.8</ele>
        <time>2012-04-01T07:53:23Z</time>
      </trkpt>
      <trkpt lat="46.97323" lon="-0.70717">
        <ele>182.8</ele>
        <time>2012-04-01T07:53:25Z</time>
      </trkpt>
      <trkpt lat="46.97321" lon="-0.70728">
        <ele>182.8</ele>
        <time>2012-04-01T07:53:27Z</time>
      </trkpt>
      <trkpt lat="46.97319" lon="-0.70739">
        <ele>182.8</ele>
        <time>2012-04-01T07:53:29Z</time>
      </trkpt>
      <trkpt lat="46.97317" lon="-0.70749">
        <ele>182.6</ele>
        <time>2012-04-01T07:53:31Z</time>
      </trkpt>
      <trkpt lat="46.97315" lon="-0.7076">
        <ele>182.6</ele>
        <time>2012-04-01T07:53:33Z</time>
      </trkpt>
      <trkpt lat="46.97312" lon="-0.7077">
        <ele>182.6</ele>
        <time>2012-04-01T07:53:35Z</time>
      </trkpt>
      <trkpt lat="46.9731" lon="-0.7078">
        <ele>182.5</ele>
        <time>2012-04-01T07:53:37Z</time>
      </trkpt>
      <trkpt lat="46.97308" lon="-0.70791">
        <ele>182.5</ele>
        <time>2012-04-01T07:53:39Z</time>
      </trkpt>
      <trkpt lat="46.97306" lon="-0.70801">
        <ele>182.3</ele>
        <time>2012-04-01T07:53:41Z</time>
      </trkpt>
      <trkpt lat="46.97303" lon="-0.70811">
        <ele>182.3</ele>
        <time>2012-04-01T07:53:43Z</time>
      </trkpt>
      <trkpt lat="46.97301" lon="-0.70822">
        <ele>182.3</ele>
        <time>2012-04-01T07:53:45Z</time>
      </trkpt>
      <trkpt lat="46.97299" lon="-0.70833">
        <ele>182.1</ele>
        <time>2012-04-01T07:53:47Z</time>
      </trkpt>
      <trkpt lat="46.97297" lon="-0.70843">
        <ele>182.1</ele>
        <time>2012-04-01T07:53:49Z</time>
      </trkpt>
      <trkpt lat="46.97296" lon="-0.70847">
        <ele>182.1</ele>
        <time>2012-04-01T07:53:50Z</time>
      </trkpt>
      <trkpt lat="46.97295" lon="-0.70868">
        <ele>181.8</ele>
        <time>2012-04-01T07:54:01Z</time>
      </trkpt>
      <trkpt lat="46.97292" lon="-0.7088">
        <ele>181.8</ele>
        <time>2012-04-01T07:54:15Z</time>
      </trkpt>
      <trkpt lat="46.97291" lon="-0.70889">
        <ele>181.8</ele>
        <time>2012-04-01T07:54:20Z</time>
      </trkpt>
      <trkpt lat="46.97289" lon="-0.709">
        <ele>181.8</ele>
        <time>2012-04-01T07:54:23Z</time>
      </trkpt>
      <trkpt lat="46.97286" lon="-0.70909">
        <ele>181.8</ele>
        <time>2012-04-01T07:54:26Z</time>
      </trkpt>
      <trkpt lat="46.97284" lon="-0.7092">
        <ele>181.8</ele>
        <time>2012-04-01T07:54:29Z</time>
      </trkpt>
      <trkpt lat="46.97281" lon="-0.70932">
        <ele>181.8</ele>
        <time>2012-04-01T07:54:32Z</time>
      </trkpt>
      <trkpt lat="46.97278" lon="-0.70944">
        <ele>182</ele>
        <time>2012-04-01T07:54:35Z</time>
      </trkpt>
      <trkpt lat="46.97276" lon="-0.70953">
        <ele>182</ele>
        <time>2012-04-01T07:54:37Z</time>
      </trkpt>
      <trkpt lat="46.97274" lon="-0.70963">
        <ele>182</ele>
        <time>2012-04-01T07:54:39Z</time>
      </trkpt>
      <trkpt lat="46.97272" lon="-0.70973">
        <ele>182</ele>
        <time>2012-04-01T07:54:41Z</time>
      </trkpt>
      <trkpt lat="46.9727" lon="-0.70982">
        <ele>182</ele>
        <time>2012-04-01T07:54:43Z</time>
      </trkpt>
      <trkpt lat="46.97268" lon="-0.70991">
        <ele>182</ele>
        <time>2012-04-01T07:54:45Z</time>
      </trkpt>
      <trkpt lat="46.97266" lon="-0.71">
        <ele>182</ele>
        <time>2012-04-01T07:54:47Z</time>
      </trkpt>
      <trkpt lat="46.97263" lon="-0.71012">
        <ele>182</ele>
        <time>2012-04-01T07:54:50Z</time>
      </trkpt>
      <trkpt lat="46.97262" lon="-0.71016">
        <ele>182</ele>
        <time>2012-04-01T07:54:51Z</time>
      </trkpt>
      <trkpt lat="46.97258" lon="-0.71035">
        <ele>182</ele>
        <time>2012-04-01T07:55:06Z</time>
      </trkpt>
      <trkpt lat="46.97256" lon="-0.71046">
        <ele>182.3</ele>
        <time>2012-04-01T07:55:16Z</time>
      </trkpt>
      <trkpt lat="46.9725" lon="-0.71056">
        <ele>182.6</ele>
        <time>2012-04-01T07:55:33Z</time>
      </trkpt>
      <trkpt lat="46.97248" lon="-0.71068">
        <ele>182.8</ele>
        <time>2012-04-01T07:55:50Z</time>
      </trkpt>
      <trkpt lat="46.97246" lon="-0.71078">
        <ele>182.8</ele>
        <time>2012-04-01T07:55:55Z</time>
      </trkpt>
      <trkpt lat="46.97246" lon="-0.71081">
        <ele>182.8</ele>
        <time>2012-04-01T07:55:56Z</time>
      </trkpt>
      <trkpt lat="46.97241" lon="-0.71102">
        <ele>182.8</ele>
        <time>2012-04-01T07:56:03Z</time>
      </trkpt>
      <trkpt lat="46.97238" lon="-0.71113">
        <ele>182.8</ele>
        <time>2012-04-01T07:56:06Z</time>
      </trkpt>
      <trkpt lat="46.97236" lon="-0.71122">
        <ele>182.8</ele>
        <time>2012-04-01T07:56:08Z</time>
      </trkpt>
      <trkpt lat="46.97234" lon="-0.71131">
        <ele>182.8</ele>
        <time>2012-04-01T07:56:10Z</time>
      </trkpt>
      <trkpt lat="46.97231" lon="-0.7114">
        <ele>182.6</ele>
        <time>2012-04-01T07:56:12Z</time>
      </trkpt>
      <trkpt lat="46.97229" lon="-0.7115">
        <ele>182.6</ele>
        <time>2012-04-01T07:56:14Z</time>
      </trkpt>
      <trkpt lat="46.97228" lon="-0.71159">
        <ele>182.6</ele>
        <time>2012-04-01T07:56:16Z</time>
      </trkpt>
      <trkpt lat="46.97227" lon="-0.71168">
        <ele>182.6</ele>
        <time>2012-04-01T07:56:18Z</time>
      </trkpt>
      <trkpt lat="46.97224" lon="-0.7118">
        <ele>182.6</ele>
        <time>2012-04-01T07:56:21Z</time>
      </trkpt>
      <trkpt lat="46.97221" lon="-0.71192">
        <ele>182.5</ele>
        <time>2012-04-01T07:56:24Z</time>
      </trkpt>
      <trkpt lat="46.9722" lon="-0.71201">
        <ele>182.3</ele>
        <time>2012-04-01T07:56:26Z</time>
      </trkpt>
      <trkpt lat="46.97218" lon="-0.7121">
        <ele>182.3</ele>
        <time>2012-04-01T07:56:28Z</time>
      </trkpt>
      <trkpt lat="46.97216" lon="-0.71219">
        <ele>182.3</ele>
        <time>2012-04-01T07:56:30Z</time>
      </trkpt>
      <trkpt lat="46.97214" lon="-0.71227">
        <ele>182.3</ele>
        <time>2012-04-01T07:56:32Z</time>
      </trkpt>
      <trkpt lat="46.97212" lon="-0.7124">
        <ele>182.1</ele>
        <time>2012-04-01T07:56:35Z</time>
      </trkpt>
      <trkpt lat="46.97209" lon="-0.71251">
        <ele>182.1</ele>
        <time>2012-04-01T07:56:38Z</time>
      </trkpt>
      <trkpt lat="46.97207" lon="-0.71264">
        <ele>182</ele>
        <time>2012-04-01T07:56:45Z</time>
      </trkpt>
      <trkpt lat="46.97202" lon="-0.71275">
        <ele>182.6</ele>
        <time>2012-04-01T07:56:58Z</time>
      </trkpt>
      <trkpt lat="46.97202" lon="-0.71276">
        <ele>182.6</ele>
        <time>2012-04-01T07:56:59Z</time>
      </trkpt>
      <trkpt lat="46.97197" lon="-0.71298">
        <ele>183.3</ele>
        <time>2012-04-01T07:57:10Z</time>
      </trkpt>
      <trkpt lat="46.97195" lon="-0.71309">
        <ele>183.5</ele>
        <time>2012-04-01T07:57:15Z</time>
      </trkpt>
      <trkpt lat="46.97192" lon="-0.71321">
        <ele>183.6</ele>
        <time>2012-04-01T07:57:19Z</time>
      </trkpt>
      <trkpt lat="46.9719" lon="-0.71331">
        <ele>183.8</ele>
        <time>2012-04-01T07:57:22Z</time>
      </trkpt>
      <trkpt lat="46.97187" lon="-0.71342">
        <ele>184</ele>
        <time>2012-04-01T07:57:25Z</time>
      </trkpt>
      <trkpt lat="46.97184" lon="-0.71354">
        <ele>184.1</ele>
        <time>2012-04-01T07:57:28Z</time>
      </trkpt>
      <trkpt lat="46.97182" lon="-0.71363">
        <ele>184.1</ele>
        <time>2012-04-01T07:57:30Z</time>
      </trkpt>
      <trkpt lat="46.9718" lon="-0.71371">
        <ele>184.1</ele>
        <time>2012-04-01T07:57:32Z</time>
      </trkpt>
      <trkpt lat="46.97178" lon="-0.7138">
        <ele>184.3</ele>
        <time>2012-04-01T07:57:34Z</time>
      </trkpt>
      <trkpt lat="46.97176" lon="-0.7139">
        <ele>184.3</ele>
        <time>2012-04-01T07:57:36Z</time>
      </trkpt>
      <trkpt lat="46.97173" lon="-0.71399">
        <ele>184.3</ele>
        <time>2012-04-01T07:57:38Z</time>
      </trkpt>
      <trkpt lat="46.97171" lon="-0.7141">
        <ele>184.3</ele>
        <time>2012-04-01T07:57:40Z</time>
      </trkpt>
      <trkpt lat="46.97169" lon="-0.7142">
        <ele>184.5</ele>
        <time>2012-04-01T07:57:42Z</time>
      </trkpt>
      <trkpt lat="46.97166" lon="-0.71431">
        <ele>184.5</ele>
        <time>2012-04-01T07:57:44Z</time>
      </trkpt>
      <trkpt lat="46.97164" lon="-0.71442">
        <ele>184.5</ele>
        <time>2012-04-01T07:57:46Z</time>
      </trkpt>
      <trkpt lat="46.97162" lon="-0.71452">
        <ele>184.6</ele>
        <time>2012-04-01T07:57:48Z</time>
      </trkpt>
      <trkpt lat="46.9716" lon="-0.71462">
        <ele>184.6</ele>
        <time>2012-04-01T07:57:50Z</time>
      </trkpt>
      <trkpt lat="46.97157" lon="-0.71473">
        <ele>185</ele>
        <time>2012-04-01T07:57:52Z</time>
      </trkpt>
      <trkpt lat="46.97155" lon="-0.71485">
        <ele>185.1</ele>
        <time>2012-04-01T07:57:54Z</time>
      </trkpt>
      <trkpt lat="46.97153" lon="-0.71496">
        <ele>185.3</ele>
        <time>2012-04-01T07:57:56Z</time>
      </trkpt>
      <trkpt lat="46.9715" lon="-0.71507">
        <ele>185.5</ele>
        <time>2012-04-01T07:57:58Z</time>
      </trkpt>
      <trkpt lat="46.97147" lon="-0.71517">
        <ele>185.5</ele>
        <time>2012-04-01T07:58:00Z</time>
      </trkpt>
      <trkpt lat="46.97146" lon="-0.71522">
        <ele>185.5</ele>
        <time>2012-04-01T07:58:01Z</time>
      </trkpt>
      <trkpt lat="46.97143" lon="-0.71537">
        <ele>185.5</ele>
        <time>2012-04-01T07:58:04Z</time>
      </trkpt>
      <trkpt lat="46.9714" lon="-0.71548">
        <ele>185.6</ele>
        <time>2012-04-01T07:58:06Z</time>
      </trkpt>
      <trkpt lat="46.97138" lon="-0.71559">
        <ele>185.6</ele>
        <time>2012-04-01T07:58:08Z</time>
      </trkpt>
      <trkpt lat="46.97136" lon="-0.7157">
        <ele>185.8</ele>
        <time>2012-04-01T07:58:10Z</time>
      </trkpt>
      <trkpt lat="46.97133" lon="-0.71582">
        <ele>185.8</ele>
        <time>2012-04-01T07:58:12Z</time>
      </trkpt>
      <trkpt lat="46.97131" lon="-0.71594">
        <ele>186</ele>
        <time>2012-04-01T07:58:14Z</time>
      </trkpt>
      <trkpt lat="46.97128" lon="-0.71606">
        <ele>186</ele>
        <time>2012-04-01T07:58:16Z</time>
      </trkpt>
      <trkpt lat="46.97125" lon="-0.71618">
        <ele>186</ele>
        <time>2012-04-01T07:58:18Z</time>
      </trkpt>
      <trkpt lat="46.97124" lon="-0.71624">
        <ele>186</ele>
        <time>2012-04-01T07:58:19Z</time>
      </trkpt>
      <trkpt lat="46.97122" lon="-0.71631">
        <ele>186</ele>
        <time>2012-04-01T07:58:20Z</time>
      </trkpt>
      <trkpt lat="46.9712" lon="-0.71637">
        <ele>186</ele>
        <time>2012-04-01T07:58:21Z</time>
      </trkpt>
      <trkpt lat="46.97119" lon="-0.71644">
        <ele>185.8</ele>
        <time>2012-04-01T07:58:22Z</time>
      </trkpt>
      <trkpt lat="46.97117" lon="-0.7165">
        <ele>185.8</ele>
        <time>2012-04-01T07:58:23Z</time>
      </trkpt>
      <trkpt lat="46.97116" lon="-0.71657">
        <ele>185.8</ele>
        <time>2012-04-01T07:58:24Z</time>
      </trkpt>
      <trkpt lat="46.97114" lon="-0.71664">
        <ele>186</ele>
        <time>2012-04-01T07:58:25Z</time>
      </trkpt>
      <trkpt lat="46.97111" lon="-0.71675">
        <ele>186</ele>
        <time>2012-04-01T07:58:27Z</time>
      </trkpt>
      <trkpt lat="46.97104" lon="-0.7168">
        <ele>186.1</ele>
        <time>2012-04-01T07:58:29Z</time>
      </trkpt>
      <trkpt lat="46.97098" lon="-0.71677">
        <ele>186.1</ele>
        <time>2012-04-01T07:58:31Z</time>
      </trkpt>
      <trkpt lat="46.97092" lon="-0.71673">
        <ele>186.1</ele>
        <time>2012-04-01T07:58:33Z</time>
      </trkpt>
      <trkpt lat="46.97086" lon="-0.71669">
        <ele>186.1</ele>
        <time>2012-04-01T07:58:35Z</time>
      </trkpt>
      <trkpt lat="46.97079" lon="-0.71666">
        <ele>186.1</ele>
        <time>2012-04-01T07:58:37Z</time>
      </trkpt>
      <trkpt lat="46.97072" lon="-0.71662">
        <ele>186.1</ele>
        <time>2012-04-01T07:58:39Z</time>
      </trkpt>
      <trkpt lat="46.97065" lon="-0.71658">
        <ele>186.1</ele>
        <time>2012-04-01T07:58:41Z</time>
      </trkpt>
      <trkpt lat="46.97059" lon="-0.71653">
        <ele>186.1</ele>
        <time>2012-04-01T07:58:43Z</time>
      </trkpt>
      <trkpt lat="46.97053" lon="-0.71649">
        <ele>186.1</ele>
        <time>2012-04-01T07:58:45Z</time>
      </trkpt>
      <trkpt lat="46.97046" lon="-0.71644">
        <ele>186.1</ele>
        <time>2012-04-01T07:58:48Z</time>
      </trkpt>
      <trkpt lat="46.97038" lon="-0.71648">
        <ele>186.1</ele>
        <time>2012-04-01T07:58:54Z</time>
      </trkpt>
      <trkpt lat="46.97034" lon="-0.71658">
        <ele>186.1</ele>
        <time>2012-04-01T08:00:30Z</time>
      </trkpt>
      <trkpt lat="46.97033" lon="-0.71665">
        <ele>187.1</ele>
        <time>2012-04-01T08:00:31Z</time>
      </trkpt>
      <trkpt lat="46.97028" lon="-0.71677">
        <ele>187.6</ele>
        <time>2012-04-01T08:00:34Z</time>
      </trkpt>
      <trkpt lat="46.97025" lon="-0.71686">
        <ele>187.8</ele>
        <time>2012-04-01T08:00:36Z</time>
      </trkpt>
      <trkpt lat="46.97021" lon="-0.71696">
        <ele>189.5</ele>
        <time>2012-04-01T08:00:38Z</time>
      </trkpt>
      <trkpt lat="46.97017" lon="-0.71706">
        <ele>191.3</ele>
        <time>2012-04-01T08:00:40Z</time>
      </trkpt>
      <trkpt lat="46.97014" lon="-0.71716">
        <ele>192.5</ele>
        <time>2012-04-01T08:00:42Z</time>
      </trkpt>
      <trkpt lat="46.9701" lon="-0.71726">
        <ele>193.1</ele>
        <time>2012-04-01T08:00:44Z</time>
      </trkpt>
      <trkpt lat="46.97006" lon="-0.71736">
        <ele>193.3</ele>
        <time>2012-04-01T08:00:46Z</time>
      </trkpt>
      <trkpt lat="46.97002" lon="-0.71747">
        <ele>193.1</ele>
        <time>2012-04-01T08:00:48Z</time>
      </trkpt>
      <trkpt lat="46.96998" lon="-0.71757">
        <ele>193.1</ele>
        <time>2012-04-01T08:00:50Z</time>
      </trkpt>
      <trkpt lat="46.96995" lon="-0.71768">
        <ele>193</ele>
        <time>2012-04-01T08:00:53Z</time>
      </trkpt>
      <trkpt lat="46.96992" lon="-0.71777">
        <ele>192.8</ele>
        <time>2012-04-01T08:00:56Z</time>
      </trkpt>
      <trkpt lat="46.96989" lon="-0.71789">
        <ele>192.6</ele>
        <time>2012-04-01T08:01:00Z</time>
      </trkpt>
      <trkpt lat="46.96984" lon="-0.718">
        <ele>192.3</ele>
        <time>2012-04-01T08:01:07Z</time>
      </trkpt>
      <trkpt lat="46.9698" lon="-0.71809">
        <ele>191.8</ele>
        <time>2012-04-01T08:01:12Z</time>
      </trkpt>
      <trkpt lat="46.96977" lon="-0.71819">
        <ele>191.5</ele>
        <time>2012-04-01T08:01:15Z</time>
      </trkpt>
      <trkpt lat="46.96972" lon="-0.71829">
        <ele>191.1</ele>
        <time>2012-04-01T08:01:19Z</time>
      </trkpt>
      <trkpt lat="46.96967" lon="-0.71839">
        <ele>190.5</ele>
        <time>2012-04-01T08:01:27Z</time>
      </trkpt>
      <trkpt lat="46.96962" lon="-0.7185">
        <ele>189.8</ele>
        <time>2012-04-01T08:01:31Z</time>
      </trkpt>
      <trkpt lat="46.96962" lon="-0.71851">
        <ele>189.6</ele>
        <time>2012-04-01T08:01:32Z</time>
      </trkpt>
      <trkpt lat="46.96957" lon="-0.71863">
        <ele>188.3</ele>
        <time>2012-04-01T08:02:46Z</time>
      </trkpt>
      <trkpt lat="46.96952" lon="-0.71877">
        <ele>188</ele>
        <time>2012-04-01T08:02:58Z</time>
      </trkpt>
      <trkpt lat="46.96949" lon="-0.71887">
        <ele>187.6</ele>
        <time>2012-04-01T08:03:03Z</time>
      </trkpt>
      <trkpt lat="46.96945" lon="-0.71898">
        <ele>187.5</ele>
        <time>2012-04-01T08:03:50Z</time>
      </trkpt>
      <trkpt lat="46.96945" lon="-0.71899">
        <ele>187.6</ele>
        <time>2012-04-01T08:03:51Z</time>
      </trkpt>
      <trkpt lat="46.96938" lon="-0.71909">
        <ele>181.8</ele>
        <time>2012-04-01T08:18:16Z</time>
      </trkpt>
      <trkpt lat="46.96933" lon="-0.71926">
        <ele>181.6</ele>
        <time>2012-04-01T08:18:22Z</time>
      </trkpt>
      <trkpt lat="46.9693" lon="-0.71935">
        <ele>181.5</ele>
        <time>2012-04-01T08:18:25Z</time>
      </trkpt>
      <trkpt lat="46.96926" lon="-0.71945">
        <ele>181.5</ele>
        <time>2012-04-01T08:18:29Z</time>
      </trkpt>
      <trkpt lat="46.96925" lon="-0.71958">
        <ele>182.1</ele>
        <time>2012-04-01T08:19:01Z</time>
      </trkpt>
      <trkpt lat="46.9692" lon="-0.71969">
        <ele>182.6</ele>
        <time>2012-04-01T08:19:06Z</time>
      </trkpt>
      <trkpt lat="46.96915" lon="-0.71978">
        <ele>183.6</ele>
        <time>2012-04-01T08:19:50Z</time>
      </trkpt>
      <trkpt lat="46.96915" lon="-0.7198">
        <ele>183.6</ele>
        <time>2012-04-01T08:19:51Z</time>
      </trkpt>
      <trkpt lat="46.96908" lon="-0.71999">
        <ele>184</ele>
        <time>2012-04-01T08:19:57Z</time>
      </trkpt>
      <trkpt lat="46.96905" lon="-0.72006">
        <ele>184.1</ele>
        <time>2012-04-01T08:19:59Z</time>
      </trkpt>
      <trkpt lat="46.96902" lon="-0.72014">
        <ele>184.1</ele>
        <time>2012-04-01T08:20:01Z</time>
      </trkpt>
      <trkpt lat="46.96899" lon="-0.72022">
        <ele>184.3</ele>
        <time>2012-04-01T08:20:03Z</time>
      </trkpt>
      <trkpt lat="46.96896" lon="-0.7203">
        <ele>184.3</ele>
        <time>2012-04-01T08:20:05Z</time>
      </trkpt>
      <trkpt lat="46.96893" lon="-0.72038">
        <ele>184.3</ele>
        <time>2012-04-01T08:20:07Z</time>
      </trkpt>
      <trkpt lat="46.9689" lon="-0.72047">
        <ele>184.5</ele>
        <time>2012-04-01T08:20:09Z</time>
      </trkpt>
      <trkpt lat="46.96887" lon="-0.72055">
        <ele>184.5</ele>
        <time>2012-04-01T08:20:11Z</time>
      </trkpt>
      <trkpt lat="46.96883" lon="-0.72064">
        <ele>184.6</ele>
        <time>2012-04-01T08:20:13Z</time>
      </trkpt>
      <trkpt lat="46.9688" lon="-0.72072">
        <ele>184.6</ele>
        <time>2012-04-01T08:20:15Z</time>
      </trkpt>
      <trkpt lat="46.96877" lon="-0.72084">
        <ele>184.6</ele>
        <time>2012-04-01T08:20:18Z</time>
      </trkpt>
      <trkpt lat="46.96874" lon="-0.72094">
        <ele>184.6</ele>
        <time>2012-04-01T08:20:20Z</time>
      </trkpt>
      <trkpt lat="46.96872" lon="-0.72104">
        <ele>184.6</ele>
        <time>2012-04-01T08:20:22Z</time>
      </trkpt>
      <trkpt lat="46.96869" lon="-0.72115">
        <ele>184.8</ele>
        <time>2012-04-01T08:20:24Z</time>
      </trkpt>
      <trkpt lat="46.96868" lon="-0.72122">
        <ele>185</ele>
        <time>2012-04-01T08:20:25Z</time>
      </trkpt>
      <trkpt lat="46.96866" lon="-0.7213">
        <ele>185.1</ele>
        <time>2012-04-01T08:20:26Z</time>
      </trkpt>
      <trkpt lat="46.96864" lon="-0.72137">
        <ele>185.1</ele>
        <time>2012-04-01T08:20:27Z</time>
      </trkpt>
      <trkpt lat="46.96863" lon="-0.72144">
        <ele>185.1</ele>
        <time>2012-04-01T08:20:28Z</time>
      </trkpt>
      <trkpt lat="46.9686" lon="-0.72156">
        <ele>184.8</ele>
        <time>2012-04-01T08:20:30Z</time>
      </trkpt>
      <trkpt lat="46.96858" lon="-0.72165">
        <ele>184.8</ele>
        <time>2012-04-01T08:20:32Z</time>
      </trkpt>
      <trkpt lat="46.96856" lon="-0.72174">
        <ele>184.8</ele>
        <time>2012-04-01T08:20:34Z</time>
      </trkpt>
      <trkpt lat="46.96854" lon="-0.72182">
        <ele>184.8</ele>
        <time>2012-04-01T08:20:36Z</time>
      </trkpt>
      <trkpt lat="46.96852" lon="-0.72191">
        <ele>184.6</ele>
        <time>2012-04-01T08:20:38Z</time>
      </trkpt>
      <trkpt lat="46.9685" lon="-0.722">
        <ele>184.6</ele>
        <time>2012-04-01T08:20:40Z</time>
      </trkpt>
      <trkpt lat="46.96848" lon="-0.72209">
        <ele>184.6</ele>
        <time>2012-04-01T08:20:42Z</time>
      </trkpt>
      <trkpt lat="46.96846" lon="-0.72219">
        <ele>184.6</ele>
        <time>2012-04-01T08:20:44Z</time>
      </trkpt>
      <trkpt lat="46.96844" lon="-0.7223">
        <ele>184.5</ele>
        <time>2012-04-01T08:20:46Z</time>
      </trkpt>
      <trkpt lat="46.96842" lon="-0.72241">
        <ele>184.5</ele>
        <time>2012-04-01T08:20:48Z</time>
      </trkpt>
      <trkpt lat="46.96839" lon="-0.72252">
        <ele>183.6</ele>
        <time>2012-04-01T08:20:50Z</time>
      </trkpt>
      <trkpt lat="46.96837" lon="-0.72262">
        <ele>183.5</ele>
        <time>2012-04-01T08:20:52Z</time>
      </trkpt>
      <trkpt lat="46.96836" lon="-0.72268">
        <ele>183.5</ele>
        <time>2012-04-01T08:20:53Z</time>
      </trkpt>
      <trkpt lat="46.96832" lon="-0.72286">
        <ele>183.8</ele>
        <time>2012-04-01T08:20:56Z</time>
      </trkpt>
      <trkpt lat="46.9683" lon="-0.72292">
        <ele>184</ele>
        <time>2012-04-01T08:20:57Z</time>
      </trkpt>
      <trkpt lat="46.96827" lon="-0.72304">
        <ele>184.1</ele>
        <time>2012-04-01T08:20:59Z</time>
      </trkpt>
      <trkpt lat="46.96824" lon="-0.72315">
        <ele>184.1</ele>
        <time>2012-04-01T08:21:01Z</time>
      </trkpt>
      <trkpt lat="46.96822" lon="-0.72324">
        <ele>184.1</ele>
        <time>2012-04-01T08:21:03Z</time>
      </trkpt>
      <trkpt lat="46.96819" lon="-0.72337">
        <ele>184.1</ele>
        <time>2012-04-01T08:21:06Z</time>
      </trkpt>
      <trkpt lat="46.96817" lon="-0.72347">
        <ele>184.1</ele>
        <time>2012-04-01T08:21:09Z</time>
      </trkpt>
      <trkpt lat="46.96814" lon="-0.72359">
        <ele>184.3</ele>
        <time>2012-04-01T08:21:13Z</time>
      </trkpt>
      <trkpt lat="46.96811" lon="-0.7237">
        <ele>184.3</ele>
        <time>2012-04-01T08:21:17Z</time>
      </trkpt>
      <trkpt lat="46.9681" lon="-0.72381">
        <ele>184.5</ele>
        <time>2012-04-01T08:21:20Z</time>
      </trkpt>
      <trkpt lat="46.96808" lon="-0.72391">
        <ele>184.6</ele>
        <time>2012-04-01T08:21:22Z</time>
      </trkpt>
      <trkpt lat="46.96804" lon="-0.72402">
        <ele>184.8</ele>
        <time>2012-04-01T08:21:25Z</time>
      </trkpt>
      <trkpt lat="46.96801" lon="-0.72414">
        <ele>185</ele>
        <time>2012-04-01T08:21:29Z</time>
      </trkpt>
      <trkpt lat="46.96799" lon="-0.72423">
        <ele>185.1</ele>
        <time>2012-04-01T08:21:31Z</time>
      </trkpt>
      <trkpt lat="46.96797" lon="-0.72432">
        <ele>185.3</ele>
        <time>2012-04-01T08:21:33Z</time>
      </trkpt>
      <trkpt lat="46.96794" lon="-0.72441">
        <ele>185.3</ele>
        <time>2012-04-01T08:21:35Z</time>
      </trkpt>
      <trkpt lat="46.96792" lon="-0.72451">
        <ele>185.5</ele>
        <time>2012-04-01T08:21:37Z</time>
      </trkpt>
      <trkpt lat="46.9679" lon="-0.72459">
        <ele>185.6</ele>
        <time>2012-04-01T08:21:39Z</time>
      </trkpt>
      <trkpt lat="46.96788" lon="-0.72469">
        <ele>185.8</ele>
        <time>2012-04-01T08:21:41Z</time>
      </trkpt>
      <trkpt lat="46.96785" lon="-0.72479">
        <ele>185.8</ele>
        <time>2012-04-01T08:21:43Z</time>
      </trkpt>
      <trkpt lat="46.96783" lon="-0.72489">
        <ele>185.8</ele>
        <time>2012-04-01T08:21:45Z</time>
      </trkpt>
      <trkpt lat="46.9678" lon="-0.72499">
        <ele>186</ele>
        <time>2012-04-01T08:21:47Z</time>
      </trkpt>
      <trkpt lat="46.96778" lon="-0.7251">
        <ele>186</ele>
        <time>2012-04-01T08:21:49Z</time>
      </trkpt>
      <trkpt lat="46.96775" lon="-0.72522">
        <ele>185.6</ele>
        <time>2012-04-01T08:21:51Z</time>
      </trkpt>
      <trkpt lat="46.96773" lon="-0.72533">
        <ele>185.1</ele>
        <time>2012-04-01T08:21:53Z</time>
      </trkpt>
      <trkpt lat="46.96771" lon="-0.72539">
        <ele>184.8</ele>
        <time>2012-04-01T08:21:54Z</time>
      </trkpt>
      <trkpt lat="46.96768" lon="-0.72553">
        <ele>184.8</ele>
        <time>2012-04-01T08:21:57Z</time>
      </trkpt>
      <trkpt lat="46.96765" lon="-0.72562">
        <ele>184.6</ele>
        <time>2012-04-01T08:21:59Z</time>
      </trkpt>
      <trkpt lat="46.96763" lon="-0.72572">
        <ele>184.8</ele>
        <time>2012-04-01T08:22:01Z</time>
      </trkpt>
      <trkpt lat="46.9676" lon="-0.72581">
        <ele>184.8</ele>
        <time>2012-04-01T08:22:03Z</time>
      </trkpt>
      <trkpt lat="46.96758" lon="-0.72589">
        <ele>185</ele>
        <time>2012-04-01T08:22:05Z</time>
      </trkpt>
      <trkpt lat="46.96756" lon="-0.72599">
        <ele>185.1</ele>
        <time>2012-04-01T08:22:07Z</time>
      </trkpt>
      <trkpt lat="46.96753" lon="-0.7261">
        <ele>185.6</ele>
        <time>2012-04-01T08:22:09Z</time>
      </trkpt>
      <trkpt lat="46.96751" lon="-0.72616">
        <ele>186.1</ele>
        <time>2012-04-01T08:22:10Z</time>
      </trkpt>
      <trkpt lat="46.9675" lon="-0.72623">
        <ele>186.3</ele>
        <time>2012-04-01T08:22:11Z</time>
      </trkpt>
      <trkpt lat="46.96748" lon="-0.72629">
        <ele>186.6</ele>
        <time>2012-04-01T08:22:12Z</time>
      </trkpt>
      <trkpt lat="46.96747" lon="-0.72635">
        <ele>186.6</ele>
        <time>2012-04-01T08:22:13Z</time>
      </trkpt>
      <trkpt lat="46.96745" lon="-0.72642">
        <ele>186.8</ele>
        <time>2012-04-01T08:22:14Z</time>
      </trkpt>
      <trkpt lat="46.96744" lon="-0.72648">
        <ele>186.8</ele>
        <time>2012-04-01T08:22:15Z</time>
      </trkpt>
      <trkpt lat="46.96743" lon="-0.72655">
        <ele>186.8</ele>
        <time>2012-04-01T08:22:16Z</time>
      </trkpt>
      <trkpt lat="46.96741" lon="-0.72661">
        <ele>186.8</ele>
        <time>2012-04-01T08:22:17Z</time>
      </trkpt>
      <trkpt lat="46.9674" lon="-0.72667">
        <ele>186.8</ele>
        <time>2012-04-01T08:22:18Z</time>
      </trkpt>
      <trkpt lat="46.96738" lon="-0.72674">
        <ele>186.6</ele>
        <time>2012-04-01T08:22:19Z</time>
      </trkpt>
      <trkpt lat="46.96737" lon="-0.7268">
        <ele>186.5</ele>
        <time>2012-04-01T08:22:20Z</time>
      </trkpt>
      <trkpt lat="46.96735" lon="-0.72687">
        <ele>186.3</ele>
        <time>2012-04-01T08:22:21Z</time>
      </trkpt>
      <trkpt lat="46.96733" lon="-0.72693">
        <ele>186.1</ele>
        <time>2012-04-01T08:22:22Z</time>
      </trkpt>
      <trkpt lat="46.96732" lon="-0.72699">
        <ele>186.1</ele>
        <time>2012-04-01T08:22:23Z</time>
      </trkpt>
      <trkpt lat="46.9673" lon="-0.72706">
        <ele>185.8</ele>
        <time>2012-04-01T08:22:24Z</time>
      </trkpt>
      <trkpt lat="46.96728" lon="-0.72712">
        <ele>185.8</ele>
        <time>2012-04-01T08:22:25Z</time>
      </trkpt>
      <trkpt lat="46.96725" lon="-0.72724">
        <ele>185.5</ele>
        <time>2012-04-01T08:22:27Z</time>
      </trkpt>
      <trkpt lat="46.96722" lon="-0.72736">
        <ele>185.3</ele>
        <time>2012-04-01T08:22:29Z</time>
      </trkpt>
      <trkpt lat="46.96719" lon="-0.72747">
        <ele>185.1</ele>
        <time>2012-04-01T08:22:31Z</time>
      </trkpt>
      <trkpt lat="46.96716" lon="-0.72758">
        <ele>185.1</ele>
        <time>2012-04-01T08:22:33Z</time>
      </trkpt>
      <trkpt lat="46.96714" lon="-0.72765">
        <ele>185</ele>
        <time>2012-04-01T08:22:34Z</time>
      </trkpt>
      <trkpt lat="46.96712" lon="-0.72771">
        <ele>184.8</ele>
        <time>2012-04-01T08:22:35Z</time>
      </trkpt>
      <trkpt lat="46.96709" lon="-0.72778">
        <ele>184.8</ele>
        <time>2012-04-01T08:22:36Z</time>
      </trkpt>
      <trkpt lat="46.96707" lon="-0.72784">
        <ele>184.6</ele>
        <time>2012-04-01T08:22:37Z</time>
      </trkpt>
      <trkpt lat="46.96704" lon="-0.72791">
        <ele>184.6</ele>
        <time>2012-04-01T08:22:38Z</time>
      </trkpt>
      <trkpt lat="46.96702" lon="-0.72798">
        <ele>184.5</ele>
        <time>2012-04-01T08:22:39Z</time>
      </trkpt>
      <trkpt lat="46.96699" lon="-0.72805">
        <ele>184.5</ele>
        <time>2012-04-01T08:22:40Z</time>
      </trkpt>
      <trkpt lat="46.96696" lon="-0.72813">
        <ele>184.5</ele>
        <time>2012-04-01T08:22:41Z</time>
      </trkpt>
      <trkpt lat="46.96693" lon="-0.7282">
        <ele>184.5</ele>
        <time>2012-04-01T08:22:42Z</time>
      </trkpt>
      <trkpt lat="46.9669" lon="-0.72828">
        <ele>184.5</ele>
        <time>2012-04-01T08:22:43Z</time>
      </trkpt>
      <trkpt lat="46.96687" lon="-0.72835">
        <ele>184.6</ele>
        <time>2012-04-01T08:22:44Z</time>
      </trkpt>
      <trkpt lat="46.96684" lon="-0.72843">
        <ele>184.6</ele>
        <time>2012-04-01T08:22:45Z</time>
      </trkpt>
      <trkpt lat="46.96681" lon="-0.7285">
        <ele>184.6</ele>
        <time>2012-04-01T08:22:46Z</time>
      </trkpt>
      <trkpt lat="46.96678" lon="-0.72858">
        <ele>184.6</ele>
        <time>2012-04-01T08:22:47Z</time>
      </trkpt>
      <trkpt lat="46.96676" lon="-0.72866">
        <ele>184.6</ele>
        <time>2012-04-01T08:22:48Z</time>
      </trkpt>
      <trkpt lat="46.96673" lon="-0.72873">
        <ele>184.6</ele>
        <time>2012-04-01T08:22:49Z</time>
      </trkpt>
      <trkpt lat="46.9667" lon="-0.72881">
        <ele>184.5</ele>
        <time>2012-04-01T08:22:50Z</time>
      </trkpt>
      <trkpt lat="46.96667" lon="-0.72889">
        <ele>184.5</ele>
        <time>2012-04-01T08:22:51Z</time>
      </trkpt>
      <trkpt lat="46.96664" lon="-0.72896">
        <ele>184.3</ele>
        <time>2012-04-01T08:22:52Z</time>
      </trkpt>
      <trkpt lat="46.96661" lon="-0.72904">
        <ele>184.3</ele>
        <time>2012-04-01T08:22:53Z</time>
      </trkpt>
      <trkpt lat="46.96658" lon="-0.72911">
        <ele>184.3</ele>
        <time>2012-04-01T08:22:54Z</time>
      </trkpt>
      <trkpt lat="46.96655" lon="-0.72918">
        <ele>184.3</ele>
        <time>2012-04-01T08:22:55Z</time>
      </trkpt>
      <trkpt lat="46.96653" lon="-0.72926">
        <ele>184.3</ele>
        <time>2012-04-01T08:22:56Z</time>
      </trkpt>
      <trkpt lat="46.9665" lon="-0.72934">
        <ele>184.3</ele>
        <time>2012-04-01T08:22:57Z</time>
      </trkpt>
      <trkpt lat="46.96647" lon="-0.72941">
        <ele>184.3</ele>
        <time>2012-04-01T08:22:58Z</time>
      </trkpt>
      <trkpt lat="46.96642" lon="-0.72948">
        <ele>184.3</ele>
        <time>2012-04-01T08:22:59Z</time>
      </trkpt>
      <trkpt lat="46.96638" lon="-0.72955">
        <ele>184.3</ele>
        <time>2012-04-01T08:23:00Z</time>
      </trkpt>
      <trkpt lat="46.96633" lon="-0.72961">
        <ele>184.5</ele>
        <time>2012-04-01T08:23:01Z</time>
      </trkpt>
      <trkpt lat="46.96628" lon="-0.72967">
        <ele>184.5</ele>
        <time>2012-04-01T08:23:02Z</time>
      </trkpt>
      <trkpt lat="46.96623" lon="-0.72973">
        <ele>184.6</ele>
        <time>2012-04-01T08:23:03Z</time>
      </trkpt>
      <trkpt lat="46.96617" lon="-0.72978">
        <ele>184.6</ele>
        <time>2012-04-01T08:23:04Z</time>
      </trkpt>
      <trkpt lat="46.96612" lon="-0.72983">
        <ele>184.6</ele>
        <time>2012-04-01T08:23:05Z</time>
      </trkpt>
      <trkpt lat="46.96606" lon="-0.72988">
        <ele>184.8</ele>
        <time>2012-04-01T08:23:06Z</time>
      </trkpt>
      <trkpt lat="46.966" lon="-0.72992">
        <ele>184.8</ele>
        <time>2012-04-01T08:23:07Z</time>
      </trkpt>
      <trkpt lat="46.96595" lon="-0.72997">
        <ele>185</ele>
        <time>2012-04-01T08:23:08Z</time>
      </trkpt>
      <trkpt lat="46.96589" lon="-0.73001">
        <ele>185.1</ele>
        <time>2012-04-01T08:23:09Z</time>
      </trkpt>
      <trkpt lat="46.96584" lon="-0.73006">
        <ele>185.1</ele>
        <time>2012-04-01T08:23:10Z</time>
      </trkpt>
      <trkpt lat="46.96578" lon="-0.73011">
        <ele>185.3</ele>
        <time>2012-04-01T08:23:11Z</time>
      </trkpt>
      <trkpt lat="46.96573" lon="-0.73015">
        <ele>185.5</ele>
        <time>2012-04-01T08:23:12Z</time>
      </trkpt>
      <trkpt lat="46.96568" lon="-0.7302">
        <ele>185.6</ele>
        <time>2012-04-01T08:23:13Z</time>
      </trkpt>
      <trkpt lat="46.96562" lon="-0.73025">
        <ele>185.6</ele>
        <time>2012-04-01T08:23:14Z</time>
      </trkpt>
      <trkpt lat="46.96557" lon="-0.7303">
        <ele>185.8</ele>
        <time>2012-04-01T08:23:15Z</time>
      </trkpt>
      <trkpt lat="46.96551" lon="-0.73035">
        <ele>185.8</ele>
        <time>2012-04-01T08:23:16Z</time>
      </trkpt>
      <trkpt lat="46.96546" lon="-0.73039">
        <ele>186</ele>
        <time>2012-04-01T08:23:17Z</time>
      </trkpt>
      <trkpt lat="46.96541" lon="-0.73044">
        <ele>186.1</ele>
        <time>2012-04-01T08:23:18Z</time>
      </trkpt>
      <trkpt lat="46.96536" lon="-0.73048">
        <ele>186.1</ele>
        <time>2012-04-01T08:23:19Z</time>
      </trkpt>
      <trkpt lat="46.96531" lon="-0.73053">
        <ele>186.1</ele>
        <time>2012-04-01T08:23:20Z</time>
      </trkpt>
      <trkpt lat="46.96526" lon="-0.73057">
        <ele>186.3</ele>
        <time>2012-04-01T08:23:21Z</time>
      </trkpt>
      <trkpt lat="46.96521" lon="-0.73061">
        <ele>186.3</ele>
        <time>2012-04-01T08:23:22Z</time>
      </trkpt>
      <trkpt lat="46.96516" lon="-0.73065">
        <ele>186.3</ele>
        <time>2012-04-01T08:23:23Z</time>
      </trkpt>
      <trkpt lat="46.96511" lon="-0.73069">
        <ele>186.3</ele>
        <time>2012-04-01T08:23:24Z</time>
      </trkpt>
      <trkpt lat="46.96507" lon="-0.73073">
        <ele>186.5</ele>
        <time>2012-04-01T08:23:25Z</time>
      </trkpt>
      <trkpt lat="46.96502" lon="-0.73077">
        <ele>186.5</ele>
        <time>2012-04-01T08:23:26Z</time>
      </trkpt>
      <trkpt lat="46.96498" lon="-0.73081">
        <ele>186.6</ele>
        <time>2012-04-01T08:23:27Z</time>
      </trkpt>
      <trkpt lat="46.96494" lon="-0.73085">
        <ele>186.6</ele>
        <time>2012-04-01T08:23:28Z</time>
      </trkpt>
      <trkpt lat="46.9649" lon="-0.73089">
        <ele>186.6</ele>
        <time>2012-04-01T08:23:29Z</time>
      </trkpt>
      <trkpt lat="46.96486" lon="-0.73095">
        <ele>186.6</ele>
        <time>2012-04-01T08:23:30Z</time>
      </trkpt>
      <trkpt lat="46.96483" lon="-0.73102">
        <ele>186.6</ele>
        <time>2012-04-01T08:23:31Z</time>
      </trkpt>
      <trkpt lat="46.96482" lon="-0.7311">
        <ele>186.6</ele>
        <time>2012-04-01T08:23:32Z</time>
      </trkpt>
      <trkpt lat="46.96482" lon="-0.73118">
        <ele>186.8</ele>
        <time>2012-04-01T08:23:33Z</time>
      </trkpt>
      <trkpt lat="46.96483" lon="-0.73127">
        <ele>186.6</ele>
        <time>2012-04-01T08:23:34Z</time>
      </trkpt>
      <trkpt lat="46.96485" lon="-0.73135">
        <ele>186.6</ele>
        <time>2012-04-01T08:23:35Z</time>
      </trkpt>
      <trkpt lat="46.96487" lon="-0.73143">
        <ele>186.6</ele>
        <time>2012-04-01T08:23:36Z</time>
      </trkpt>
      <trkpt lat="46.9649" lon="-0.73152">
        <ele>186.5</ele>
        <time>2012-04-01T08:23:37Z</time>
      </trkpt>
      <trkpt lat="46.96492" lon="-0.73161">
        <ele>186.3</ele>
        <time>2012-04-01T08:23:38Z</time>
      </trkpt>
      <trkpt lat="46.96494" lon="-0.73169">
        <ele>186.1</ele>
        <time>2012-04-01T08:23:39Z</time>
      </trkpt>
      <trkpt lat="46.96497" lon="-0.73178">
        <ele>186.1</ele>
        <time>2012-04-01T08:23:40Z</time>
      </trkpt>
      <trkpt lat="46.96499" lon="-0.73187">
        <ele>186.1</ele>
        <time>2012-04-01T08:23:41Z</time>
      </trkpt>
      <trkpt lat="46.96501" lon="-0.73195">
        <ele>186.1</ele>
        <time>2012-04-01T08:23:42Z</time>
      </trkpt>
      <trkpt lat="46.96503" lon="-0.73204">
        <ele>186.1</ele>
        <time>2012-04-01T08:23:43Z</time>
      </trkpt>
      <trkpt lat="46.96506" lon="-0.73212">
        <ele>186</ele>
        <time>2012-04-01T08:23:44Z</time>
      </trkpt>
      <trkpt lat="46.96508" lon="-0.73221">
        <ele>186</ele>
        <time>2012-04-01T08:23:45Z</time>
      </trkpt>
      <trkpt lat="46.9651" lon="-0.73229">
        <ele>186</ele>
        <time>2012-04-01T08:23:46Z</time>
      </trkpt>
      <trkpt lat="46.96513" lon="-0.73238">
        <ele>186</ele>
        <time>2012-04-01T08:23:47Z</time>
      </trkpt>
      <trkpt lat="46.96515" lon="-0.73246">
        <ele>186</ele>
        <time>2012-04-01T08:23:48Z</time>
      </trkpt>
      <trkpt lat="46.96517" lon="-0.73255">
        <ele>186</ele>
        <time>2012-04-01T08:23:49Z</time>
      </trkpt>
      <trkpt lat="46.96519" lon="-0.73263">
        <ele>186</ele>
        <time>2012-04-01T08:23:50Z</time>
      </trkpt>
      <trkpt lat="46.96521" lon="-0.73271">
        <ele>186</ele>
        <time>2012-04-01T08:23:51Z</time>
      </trkpt>
      <trkpt lat="46.96524" lon="-0.7328">
        <ele>186</ele>
        <time>2012-04-01T08:23:52Z</time>
      </trkpt>
      <trkpt lat="46.96526" lon="-0.73288">
        <ele>186</ele>
        <time>2012-04-01T08:23:53Z</time>
      </trkpt>
      <trkpt lat="46.96528" lon="-0.73297">
        <ele>186</ele>
        <time>2012-04-01T08:23:54Z</time>
      </trkpt>
      <trkpt lat="46.9653" lon="-0.73305">
        <ele>186</ele>
        <time>2012-04-01T08:23:55Z</time>
      </trkpt>
      <trkpt lat="46.96533" lon="-0.73314">
        <ele>185.8</ele>
        <time>2012-04-01T08:23:56Z</time>
      </trkpt>
      <trkpt lat="46.96535" lon="-0.73322">
        <ele>185.8</ele>
        <time>2012-04-01T08:23:57Z</time>
      </trkpt>
      <trkpt lat="46.96537" lon="-0.73331">
        <ele>185.8</ele>
        <time>2012-04-01T08:23:58Z</time>
      </trkpt>
      <trkpt lat="46.96539" lon="-0.7334">
        <ele>185.8</ele>
        <time>2012-04-01T08:23:59Z</time>
      </trkpt>
      <trkpt lat="46.96542" lon="-0.73348">
        <ele>185.8</ele>
        <time>2012-04-01T08:24:00Z</time>
      </trkpt>
      <trkpt lat="46.96544" lon="-0.73357">
        <ele>185.8</ele>
        <time>2012-04-01T08:24:01Z</time>
      </trkpt>
      <trkpt lat="46.96546" lon="-0.73366">
        <ele>185.8</ele>
        <time>2012-04-01T08:24:02Z</time>
      </trkpt>
      <trkpt lat="46.96549" lon="-0.73375">
        <ele>185.8</ele>
        <time>2012-04-01T08:24:03Z</time>
      </trkpt>
      <trkpt lat="46.96551" lon="-0.73384">
        <ele>185.8</ele>
        <time>2012-04-01T08:24:04Z</time>
      </trkpt>
      <trkpt lat="46.96553" lon="-0.73393">
        <ele>185.8</ele>
        <time>2012-04-01T08:24:05Z</time>
      </trkpt>
      <trkpt lat="46.96556" lon="-0.73403">
        <ele>185.8</ele>
        <time>2012-04-01T08:24:06Z</time>
      </trkpt>
      <trkpt lat="46.96558" lon="-0.73412">
        <ele>185.8</ele>
        <time>2012-04-01T08:24:07Z</time>
      </trkpt>
      <trkpt lat="46.96561" lon="-0.73421">
        <ele>185.8</ele>
        <time>2012-04-01T08:24:08Z</time>
      </trkpt>
      <trkpt lat="46.96563" lon="-0.7343">
        <ele>185.8</ele>
        <time>2012-04-01T08:24:09Z</time>
      </trkpt>
      <trkpt lat="46.96565" lon="-0.73439">
        <ele>185.8</ele>
        <time>2012-04-01T08:24:10Z</time>
      </trkpt>
      <trkpt lat="46.96568" lon="-0.73449">
        <ele>185.6</ele>
        <time>2012-04-01T08:24:11Z</time>
      </trkpt>
      <trkpt lat="46.9657" lon="-0.73458">
        <ele>185.6</ele>
        <time>2012-04-01T08:24:12Z</time>
      </trkpt>
      <trkpt lat="46.96572" lon="-0.73468">
        <ele>185.6</ele>
        <time>2012-04-01T08:24:13Z</time>
      </trkpt>
      <trkpt lat="46.96575" lon="-0.73477">
        <ele>185.6</ele>
        <time>2012-04-01T08:24:14Z</time>
      </trkpt>
      <trkpt lat="46.96577" lon="-0.73487">
        <ele>185.5</ele>
        <time>2012-04-01T08:24:15Z</time>
      </trkpt>
      <trkpt lat="46.96579" lon="-0.73497">
        <ele>185.3</ele>
        <time>2012-04-01T08:24:16Z</time>
      </trkpt>
      <trkpt lat="46.96581" lon="-0.73506">
        <ele>185.3</ele>
        <time>2012-04-01T08:24:17Z</time>
      </trkpt>
      <trkpt lat="46.96584" lon="-0.73516">
        <ele>185.3</ele>
        <time>2012-04-01T08:24:18Z</time>
      </trkpt>
      <trkpt lat="46.96586" lon="-0.73525">
        <ele>185.1</ele>
        <time>2012-04-01T08:24:19Z</time>
      </trkpt>
      <trkpt lat="46.96589" lon="-0.73535">
        <ele>185.1</ele>
        <time>2012-04-01T08:24:20Z</time>
      </trkpt>
      <trkpt lat="46.96592" lon="-0.73545">
        <ele>185.1</ele>
        <time>2012-04-01T08:24:21Z</time>
      </trkpt>
      <trkpt lat="46.96594" lon="-0.73554">
        <ele>185.3</ele>
        <time>2012-04-01T08:24:22Z</time>
      </trkpt>
      <trkpt lat="46.96596" lon="-0.73564">
        <ele>185.3</ele>
        <time>2012-04-01T08:24:23Z</time>
      </trkpt>
      <trkpt lat="46.96599" lon="-0.73573">
        <ele>185.3</ele>
        <time>2012-04-01T08:24:24Z</time>
      </trkpt>
      <trkpt lat="46.96601" lon="-0.73583">
        <ele>185.3</ele>
        <time>2012-04-01T08:24:25Z</time>
      </trkpt>
      <trkpt lat="46.96603" lon="-0.73593">
        <ele>185.3</ele>
        <time>2012-04-01T08:24:26Z</time>
      </trkpt>
      <trkpt lat="46.96605" lon="-0.73603">
        <ele>185.3</ele>
        <time>2012-04-01T08:24:27Z</time>
      </trkpt>
      <trkpt lat="46.96608" lon="-0.73613">
        <ele>185.3</ele>
        <time>2012-04-01T08:24:28Z</time>
      </trkpt>
      <trkpt lat="46.9661" lon="-0.73623">
        <ele>185.3</ele>
        <time>2012-04-01T08:24:29Z</time>
      </trkpt>
      <trkpt lat="46.96612" lon="-0.73633">
        <ele>185.1</ele>
        <time>2012-04-01T08:24:30Z</time>
      </trkpt>
      <trkpt lat="46.96614" lon="-0.73643">
        <ele>185.1</ele>
        <time>2012-04-01T08:24:31Z</time>
      </trkpt>
      <trkpt lat="46.96617" lon="-0.73653">
        <ele>185.1</ele>
        <time>2012-04-01T08:24:32Z</time>
      </trkpt>
      <trkpt lat="46.96619" lon="-0.73663">
        <ele>185.1</ele>
        <time>2012-04-01T08:24:33Z</time>
      </trkpt>
      <trkpt lat="46.96621" lon="-0.73673">
        <ele>185.1</ele>
        <time>2012-04-01T08:24:34Z</time>
      </trkpt>
      <trkpt lat="46.96624" lon="-0.73683">
        <ele>185.1</ele>
        <time>2012-04-01T08:24:35Z</time>
      </trkpt>
      <trkpt lat="46.96626" lon="-0.73693">
        <ele>185.1</ele>
        <time>2012-04-01T08:24:36Z</time>
      </trkpt>
      <trkpt lat="46.96628" lon="-0.73704">
        <ele>185.1</ele>
        <time>2012-04-01T08:24:37Z</time>
      </trkpt>
      <trkpt lat="46.96631" lon="-0.73714">
        <ele>185.1</ele>
        <time>2012-04-01T08:24:38Z</time>
      </trkpt>
      <trkpt lat="46.96633" lon="-0.73724">
        <ele>185.1</ele>
        <time>2012-04-01T08:24:39Z</time>
      </trkpt>
      <trkpt lat="46.96635" lon="-0.73735">
        <ele>185.1</ele>
        <time>2012-04-01T08:24:40Z</time>
      </trkpt>
      <trkpt lat="46.96638" lon="-0.73745">
        <ele>185.1</ele>
        <time>2012-04-01T08:24:41Z</time>
      </trkpt>
      <trkpt lat="46.9664" lon="-0.73756">
        <ele>185.1</ele>
        <time>2012-04-01T08:24:42Z</time>
      </trkpt>
      <trkpt lat="46.96642" lon="-0.73766">
        <ele>185.1</ele>
        <time>2012-04-01T08:24:43Z</time>
      </trkpt>
      <trkpt lat="46.96644" lon="-0.73777">
        <ele>185.1</ele>
        <time>2012-04-01T08:24:44Z</time>
      </trkpt>
      <trkpt lat="46.96646" lon="-0.73787">
        <ele>185</ele>
        <time>2012-04-01T08:24:45Z</time>
      </trkpt>
      <trkpt lat="46.96648" lon="-0.73797">
        <ele>185</ele>
        <time>2012-04-01T08:24:46Z</time>
      </trkpt>
      <trkpt lat="46.9665" lon="-0.73807">
        <ele>185</ele>
        <time>2012-04-01T08:24:47Z</time>
      </trkpt>
      <trkpt lat="46.96652" lon="-0.73817">
        <ele>184.8</ele>
        <time>2012-04-01T08:24:48Z</time>
      </trkpt>
      <trkpt lat="46.96654" lon="-0.73826">
        <ele>184.8</ele>
        <time>2012-04-01T08:24:49Z</time>
      </trkpt>
      <trkpt lat="46.96656" lon="-0.73835">
        <ele>184.8</ele>
        <time>2012-04-01T08:24:50Z</time>
      </trkpt>
      <trkpt lat="46.96658" lon="-0.73843">
        <ele>184.8</ele>
        <time>2012-04-01T08:24:51Z</time>
      </trkpt>
      <trkpt lat="46.96659" lon="-0.73851">
        <ele>184.8</ele>
        <time>2012-04-01T08:24:52Z</time>
      </trkpt>
      <trkpt lat="46.96661" lon="-0.73859">
        <ele>184.6</ele>
        <time>2012-04-01T08:24:53Z</time>
      </trkpt>
      <trkpt lat="46.96663" lon="-0.73866">
        <ele>184.6</ele>
        <time>2012-04-01T08:24:54Z</time>
      </trkpt>
      <trkpt lat="46.96664" lon="-0.73874">
        <ele>184.6</ele>
        <time>2012-04-01T08:24:55Z</time>
      </trkpt>
      <trkpt lat="46.96666" lon="-0.73881">
        <ele>184.6</ele>
        <time>2012-04-01T08:24:56Z</time>
      </trkpt>
      <trkpt lat="46.96667" lon="-0.73887">
        <ele>184.6</ele>
        <time>2012-04-01T08:24:57Z</time>
      </trkpt>
      <trkpt lat="46.9667" lon="-0.73901">
        <ele>184.5</ele>
        <time>2012-04-01T08:27:28Z</time>
      </trkpt>
      <trkpt lat="46.96673" lon="-0.73906">
        <ele>184.1</ele>
        <time>2012-04-01T08:27:29Z</time>
      </trkpt>
      <trkpt lat="46.9668" lon="-0.7392">
        <ele>184.3</ele>
        <time>2012-04-01T08:27:35Z</time>
      </trkpt>
      <trkpt lat="46.96682" lon="-0.73931">
        <ele>184.5</ele>
        <time>2012-04-01T08:27:40Z</time>
      </trkpt>
      <trkpt lat="46.96685" lon="-0.73942">
        <ele>184.5</ele>
        <time>2012-04-01T08:27:45Z</time>
      </trkpt>
      <trkpt lat="46.96689" lon="-0.73953">
        <ele>184.5</ele>
        <time>2012-04-01T08:27:49Z</time>
      </trkpt>
      <trkpt lat="46.96693" lon="-0.73963">
        <ele>184.5</ele>
        <time>2012-04-01T08:27:53Z</time>
      </trkpt>
      <trkpt lat="46.96697" lon="-0.73972">
        <ele>184.3</ele>
        <time>2012-04-01T08:27:56Z</time>
      </trkpt>
      <trkpt lat="46.967" lon="-0.7398">
        <ele>184.3</ele>
        <time>2012-04-01T08:27:58Z</time>
      </trkpt>
      <trkpt lat="46.96703" lon="-0.73988">
        <ele>184.3</ele>
        <time>2012-04-01T08:28:00Z</time>
      </trkpt>
      <trkpt lat="46.96706" lon="-0.73997">
        <ele>184.3</ele>
        <time>2012-04-01T08:28:02Z</time>
      </trkpt>
      <trkpt lat="46.9671" lon="-0.74006">
        <ele>184.3</ele>
        <time>2012-04-01T08:28:04Z</time>
      </trkpt>
      <trkpt lat="46.96714" lon="-0.74016">
        <ele>184.1</ele>
        <time>2012-04-01T08:28:06Z</time>
      </trkpt>
      <trkpt lat="46.96717" lon="-0.74027">
        <ele>184</ele>
        <time>2012-04-01T08:28:08Z</time>
      </trkpt>
      <trkpt lat="46.9672" lon="-0.74032">
        <ele>184</ele>
        <time>2012-04-01T08:28:09Z</time>
      </trkpt>
      <trkpt lat="46.96722" lon="-0.74038">
        <ele>183.8</ele>
        <time>2012-04-01T08:28:10Z</time>
      </trkpt>
      <trkpt lat="46.96724" lon="-0.74044">
        <ele>183.8</ele>
        <time>2012-04-01T08:28:11Z</time>
      </trkpt>
      <trkpt lat="46.96727" lon="-0.7405">
        <ele>183.8</ele>
        <time>2012-04-01T08:28:12Z</time>
      </trkpt>
      <trkpt lat="46.96729" lon="-0.74057">
        <ele>183.8</ele>
        <time>2012-04-01T08:28:13Z</time>
      </trkpt>
      <trkpt lat="46.96731" lon="-0.74064">
        <ele>183.8</ele>
        <time>2012-04-01T08:28:14Z</time>
      </trkpt>
      <trkpt lat="46.96734" lon="-0.74071">
        <ele>183.8</ele>
        <time>2012-04-01T08:28:15Z</time>
      </trkpt>
      <trkpt lat="46.96736" lon="-0.74078">
        <ele>183.8</ele>
        <time>2012-04-01T08:28:16Z</time>
      </trkpt>
      <trkpt lat="46.96738" lon="-0.74085">
        <ele>183.8</ele>
        <time>2012-04-01T08:28:17Z</time>
      </trkpt>
      <trkpt lat="46.96741" lon="-0.74092">
        <ele>183.8</ele>
        <time>2012-04-01T08:28:18Z</time>
      </trkpt>
      <trkpt lat="46.96743" lon="-0.741">
        <ele>183.8</ele>
        <time>2012-04-01T08:28:19Z</time>
      </trkpt>
      <trkpt lat="46.96744" lon="-0.74107">
        <ele>183.8</ele>
        <time>2012-04-01T08:28:20Z</time>
      </trkpt>
      <trkpt lat="46.96746" lon="-0.74115">
        <ele>183.8</ele>
        <time>2012-04-01T08:28:21Z</time>
      </trkpt>
      <trkpt lat="46.96748" lon="-0.74123">
        <ele>183.8</ele>
        <time>2012-04-01T08:28:22Z</time>
      </trkpt>
      <trkpt lat="46.96749" lon="-0.74131">
        <ele>183.8</ele>
        <time>2012-04-01T08:28:23Z</time>
      </trkpt>
      <trkpt lat="46.9675" lon="-0.74139">
        <ele>183.8</ele>
        <time>2012-04-01T08:28:24Z</time>
      </trkpt>
      <trkpt lat="46.96752" lon="-0.74148">
        <ele>183.8</ele>
        <time>2012-04-01T08:28:25Z</time>
      </trkpt>
      <trkpt lat="46.96753" lon="-0.74156">
        <ele>183.8</ele>
        <time>2012-04-01T08:28:26Z</time>
      </trkpt>
      <trkpt lat="46.96754" lon="-0.74164">
        <ele>183.8</ele>
        <time>2012-04-01T08:28:27Z</time>
      </trkpt>
      <trkpt lat="46.96755" lon="-0.74172">
        <ele>183.8</ele>
        <time>2012-04-01T08:28:28Z</time>
      </trkpt>
      <trkpt lat="46.96757" lon="-0.7418">
        <ele>183.6</ele>
        <time>2012-04-01T08:28:29Z</time>
      </trkpt>
      <trkpt lat="46.96758" lon="-0.74188">
        <ele>183.6</ele>
        <time>2012-04-01T08:28:30Z</time>
      </trkpt>
      <trkpt lat="46.96759" lon="-0.74196">
        <ele>183.6</ele>
        <time>2012-04-01T08:28:31Z</time>
      </trkpt>
      <trkpt lat="46.9676" lon="-0.74204">
        <ele>183.5</ele>
        <time>2012-04-01T08:28:32Z</time>
      </trkpt>
      <trkpt lat="46.96762" lon="-0.74211">
        <ele>183.5</ele>
        <time>2012-04-01T08:28:33Z</time>
      </trkpt>
      <trkpt lat="46.96763" lon="-0.74219">
        <ele>183.3</ele>
        <time>2012-04-01T08:28:34Z</time>
      </trkpt>
      <trkpt lat="46.96764" lon="-0.74226">
        <ele>183.3</ele>
        <time>2012-04-01T08:28:35Z</time>
      </trkpt>
      <trkpt lat="46.96765" lon="-0.74234">
        <ele>183.3</ele>
        <time>2012-04-01T08:28:36Z</time>
      </trkpt>
      <trkpt lat="46.96767" lon="-0.74241">
        <ele>183.1</ele>
        <time>2012-04-01T08:28:37Z</time>
      </trkpt>
      <trkpt lat="46.96768" lon="-0.74248">
        <ele>183.1</ele>
        <time>2012-04-01T08:28:38Z</time>
      </trkpt>
      <trkpt lat="46.96769" lon="-0.74256">
        <ele>183.1</ele>
        <time>2012-04-01T08:28:39Z</time>
      </trkpt>
      <trkpt lat="46.9677" lon="-0.74263">
        <ele>183.1</ele>
        <time>2012-04-01T08:28:40Z</time>
      </trkpt>
      <trkpt lat="46.96772" lon="-0.74271">
        <ele>183.1</ele>
        <time>2012-04-01T08:28:41Z</time>
      </trkpt>
      <trkpt lat="46.96773" lon="-0.74278">
        <ele>183.1</ele>
        <time>2012-04-01T08:28:42Z</time>
      </trkpt>
      <trkpt lat="46.96775" lon="-0.74285">
        <ele>183</ele>
        <time>2012-04-01T08:28:43Z</time>
      </trkpt>
      <trkpt lat="46.96776" lon="-0.74293">
        <ele>183</ele>
        <time>2012-04-01T08:28:44Z</time>
      </trkpt>
      <trkpt lat="46.96778" lon="-0.74301">
        <ele>182.8</ele>
        <time>2012-04-01T08:28:45Z</time>
      </trkpt>
      <trkpt lat="46.96779" lon="-0.74309">
        <ele>182.8</ele>
        <time>2012-04-01T08:28:46Z</time>
      </trkpt>
      <trkpt lat="46.9678" lon="-0.74317">
        <ele>182.8</ele>
        <time>2012-04-01T08:28:47Z</time>
      </trkpt>
      <trkpt lat="46.9678" lon="-0.74324">
        <ele>182.8</ele>
        <time>2012-04-01T08:28:48Z</time>
      </trkpt>
      <trkpt lat="46.96781" lon="-0.74336">
        <ele>182.6</ele>
        <time>2012-04-01T08:28:50Z</time>
      </trkpt>
      <trkpt lat="46.96782" lon="-0.74346">
        <ele>182.6</ele>
        <time>2012-04-01T08:28:52Z</time>
      </trkpt>
      <trkpt lat="46.96788" lon="-0.74352">
        <ele>182.6</ele>
        <time>2012-04-01T08:28:54Z</time>
      </trkpt>
      <trkpt lat="46.96791" lon="-0.74356">
        <ele>182.3</ele>
        <time>2012-04-01T08:28:55Z</time>
      </trkpt>
      <trkpt lat="46.96795" lon="-0.7436">
        <ele>182.1</ele>
        <time>2012-04-01T08:28:56Z</time>
      </trkpt>
      <trkpt lat="46.968" lon="-0.74364">
        <ele>182</ele>
        <time>2012-04-01T08:28:57Z</time>
      </trkpt>
      <trkpt lat="46.96805" lon="-0.74368">
        <ele>181.8</ele>
        <time>2012-04-01T08:28:58Z</time>
      </trkpt>
      <trkpt lat="46.96811" lon="-0.74372">
        <ele>181.8</ele>
        <time>2012-04-01T08:28:59Z</time>
      </trkpt>
      <trkpt lat="46.96816" lon="-0.74375">
        <ele>181.8</ele>
        <time>2012-04-01T08:29:00Z</time>
      </trkpt>
      <trkpt lat="46.96822" lon="-0.74379">
        <ele>181.6</ele>
        <time>2012-04-01T08:29:01Z</time>
      </trkpt>
      <trkpt lat="46.96828" lon="-0.74382">
        <ele>181.6</ele>
        <time>2012-04-01T08:29:02Z</time>
      </trkpt>
      <trkpt lat="46.96834" lon="-0.74385">
        <ele>181.6</ele>
        <time>2012-04-01T08:29:03Z</time>
      </trkpt>
      <trkpt lat="46.9684" lon="-0.74388">
        <ele>181.6</ele>
        <time>2012-04-01T08:29:04Z</time>
      </trkpt>
      <trkpt lat="46.96845" lon="-0.7439">
        <ele>181.6</ele>
        <time>2012-04-01T08:29:05Z</time>
      </trkpt>
      <trkpt lat="46.96851" lon="-0.74392">
        <ele>181.6</ele>
        <time>2012-04-01T08:29:06Z</time>
      </trkpt>
      <trkpt lat="46.96856" lon="-0.74394">
        <ele>181.3</ele>
        <time>2012-04-01T08:29:07Z</time>
      </trkpt>
      <trkpt lat="46.96862" lon="-0.74396">
        <ele>181.1</ele>
        <time>2012-04-01T08:29:08Z</time>
      </trkpt>
      <trkpt lat="46.96867" lon="-0.74398">
        <ele>181.1</ele>
        <time>2012-04-01T08:29:09Z</time>
      </trkpt>
      <trkpt lat="46.96873" lon="-0.744">
        <ele>180.8</ele>
        <time>2012-04-01T08:29:10Z</time>
      </trkpt>
      <trkpt lat="46.96878" lon="-0.74402">
        <ele>180.8</ele>
        <time>2012-04-01T08:29:11Z</time>
      </trkpt>
      <trkpt lat="46.96883" lon="-0.74404">
        <ele>180.6</ele>
        <time>2012-04-01T08:29:12Z</time>
      </trkpt>
      <trkpt lat="46.96888" lon="-0.74407">
        <ele>180.5</ele>
        <time>2012-04-01T08:29:13Z</time>
      </trkpt>
      <trkpt lat="46.96894" lon="-0.74409">
        <ele>180.3</ele>
        <time>2012-04-01T08:29:14Z</time>
      </trkpt>
      <trkpt lat="46.96899" lon="-0.74411">
        <ele>180.1</ele>
        <time>2012-04-01T08:29:15Z</time>
      </trkpt>
      <trkpt lat="46.96904" lon="-0.74413">
        <ele>180.1</ele>
        <time>2012-04-01T08:29:16Z</time>
      </trkpt>
      <trkpt lat="46.96909" lon="-0.74415">
        <ele>180</ele>
        <time>2012-04-01T08:29:17Z</time>
      </trkpt>
      <trkpt lat="46.96915" lon="-0.74417">
        <ele>179.8</ele>
        <time>2012-04-01T08:29:18Z</time>
      </trkpt>
      <trkpt lat="46.9692" lon="-0.74419">
        <ele>179.8</ele>
        <time>2012-04-01T08:29:19Z</time>
      </trkpt>
      <trkpt lat="46.96925" lon="-0.74422">
        <ele>179.6</ele>
        <time>2012-04-01T08:29:20Z</time>
      </trkpt>
      <trkpt lat="46.9693" lon="-0.74425">
        <ele>179.6</ele>
        <time>2012-04-01T08:29:21Z</time>
      </trkpt>
      <trkpt lat="46.96935" lon="-0.74428">
        <ele>179.5</ele>
        <time>2012-04-01T08:29:22Z</time>
      </trkpt>
      <trkpt lat="46.9694" lon="-0.74431">
        <ele>179.3</ele>
        <time>2012-04-01T08:29:23Z</time>
      </trkpt>
      <trkpt lat="46.96945" lon="-0.74434">
        <ele>179.3</ele>
        <time>2012-04-01T08:29:24Z</time>
      </trkpt>
      <trkpt lat="46.9695" lon="-0.74436">
        <ele>179.1</ele>
        <time>2012-04-01T08:29:25Z</time>
      </trkpt>
      <trkpt lat="46.96955" lon="-0.74438">
        <ele>179</ele>
        <time>2012-04-01T08:29:26Z</time>
      </trkpt>
      <trkpt lat="46.9696" lon="-0.7444">
        <ele>178.8</ele>
        <time>2012-04-01T08:29:27Z</time>
      </trkpt>
      <trkpt lat="46.96965" lon="-0.74442">
        <ele>178.6</ele>
        <time>2012-04-01T08:29:28Z</time>
      </trkpt>
      <trkpt lat="46.96969" lon="-0.74443">
        <ele>178.5</ele>
        <time>2012-04-01T08:29:29Z</time>
      </trkpt>
      <trkpt lat="46.96974" lon="-0.74445">
        <ele>178.3</ele>
        <time>2012-04-01T08:29:30Z</time>
      </trkpt>
      <trkpt lat="46.96979" lon="-0.74447">
        <ele>178.3</ele>
        <time>2012-04-01T08:29:31Z</time>
      </trkpt>
      <trkpt lat="46.96983" lon="-0.74449">
        <ele>178.1</ele>
        <time>2012-04-01T08:29:32Z</time>
      </trkpt>
      <trkpt lat="46.96988" lon="-0.7445">
        <ele>177.8</ele>
        <time>2012-04-01T08:29:33Z</time>
      </trkpt>
      <trkpt lat="46.96993" lon="-0.74452">
        <ele>177.6</ele>
        <time>2012-04-01T08:29:34Z</time>
      </trkpt>
      <trkpt lat="46.97001" lon="-0.74456">
        <ele>177.1</ele>
        <time>2012-04-01T08:29:36Z</time>
      </trkpt>
      <trkpt lat="46.97005" lon="-0.74457">
        <ele>177</ele>
        <time>2012-04-01T08:29:37Z</time>
      </trkpt>
      <trkpt lat="46.9701" lon="-0.74459">
        <ele>176.8</ele>
        <time>2012-04-01T08:29:38Z</time>
      </trkpt>
      <trkpt lat="46.97014" lon="-0.74461">
        <ele>176.5</ele>
        <time>2012-04-01T08:29:39Z</time>
      </trkpt>
      <trkpt lat="46.97019" lon="-0.74463">
        <ele>176.3</ele>
        <time>2012-04-01T08:29:40Z</time>
      </trkpt>
      <trkpt lat="46.97024" lon="-0.74465">
        <ele>176.1</ele>
        <time>2012-04-01T08:29:41Z</time>
      </trkpt>
      <trkpt lat="46.97028" lon="-0.74468">
        <ele>176.1</ele>
        <time>2012-04-01T08:29:42Z</time>
      </trkpt>
      <trkpt lat="46.97033" lon="-0.7447">
        <ele>176</ele>
        <time>2012-04-01T08:29:43Z</time>
      </trkpt>
      <trkpt lat="46.97038" lon="-0.74472">
        <ele>175.8</ele>
        <time>2012-04-01T08:29:44Z</time>
      </trkpt>
      <trkpt lat="46.97042" lon="-0.74473">
        <ele>175.8</ele>
        <time>2012-04-01T08:29:45Z</time>
      </trkpt>
      <trkpt lat="46.97047" lon="-0.74475">
        <ele>175.6</ele>
        <time>2012-04-01T08:29:46Z</time>
      </trkpt>
      <trkpt lat="46.97052" lon="-0.74477">
        <ele>175.6</ele>
        <time>2012-04-01T08:29:47Z</time>
      </trkpt>
      <trkpt lat="46.97056" lon="-0.74479">
        <ele>175.6</ele>
        <time>2012-04-01T08:29:48Z</time>
      </trkpt>
      <trkpt lat="46.97061" lon="-0.7448">
        <ele>175.5</ele>
        <time>2012-04-01T08:29:49Z</time>
      </trkpt>
      <trkpt lat="46.97065" lon="-0.74482">
        <ele>175.5</ele>
        <time>2012-04-01T08:29:50Z</time>
      </trkpt>
      <trkpt lat="46.9707" lon="-0.74484">
        <ele>175.5</ele>
        <time>2012-04-01T08:29:51Z</time>
      </trkpt>
      <trkpt lat="46.97074" lon="-0.74486">
        <ele>175.5</ele>
        <time>2012-04-01T08:29:52Z</time>
      </trkpt>
      <trkpt lat="46.97083" lon="-0.74489">
        <ele>175.6</ele>
        <time>2012-04-01T08:29:54Z</time>
      </trkpt>
      <trkpt lat="46.97087" lon="-0.74491">
        <ele>175.6</ele>
        <time>2012-04-01T08:29:55Z</time>
      </trkpt>
      <trkpt lat="46.97092" lon="-0.74493">
        <ele>175.6</ele>
        <time>2012-04-01T08:29:56Z</time>
      </trkpt>
      <trkpt lat="46.97096" lon="-0.74494">
        <ele>175.6</ele>
        <time>2012-04-01T08:29:57Z</time>
      </trkpt>
      <trkpt lat="46.97105" lon="-0.74498">
        <ele>175.8</ele>
        <time>2012-04-01T08:29:59Z</time>
      </trkpt>
      <trkpt lat="46.97113" lon="-0.74501">
        <ele>175.8</ele>
        <time>2012-04-01T08:30:01Z</time>
      </trkpt>
      <trkpt lat="46.97121" lon="-0.74504">
        <ele>175.8</ele>
        <time>2012-04-01T08:30:03Z</time>
      </trkpt>
      <trkpt lat="46.97129" lon="-0.74507">
        <ele>175.8</ele>
        <time>2012-04-01T08:30:05Z</time>
      </trkpt>
      <trkpt lat="46.97136" lon="-0.7451">
        <ele>175.8</ele>
        <time>2012-04-01T08:30:07Z</time>
      </trkpt>
      <trkpt lat="46.97143" lon="-0.74513">
        <ele>175.8</ele>
        <time>2012-04-01T08:30:09Z</time>
      </trkpt>
      <trkpt lat="46.97151" lon="-0.74516">
        <ele>175.6</ele>
        <time>2012-04-01T08:30:12Z</time>
      </trkpt>
      <trkpt lat="46.97156" lon="-0.74525">
        <ele>175.5</ele>
        <time>2012-04-01T08:30:31Z</time>
      </trkpt>
      <trkpt lat="46.97158" lon="-0.74527">
        <ele>175.5</ele>
        <time>2012-04-01T08:30:32Z</time>
      </trkpt>
      <trkpt lat="46.97172" lon="-0.74534">
        <ele>175.3</ele>
        <time>2012-04-01T08:30:39Z</time>
      </trkpt>
      <trkpt lat="46.97178" lon="-0.74537">
        <ele>175.1</ele>
        <time>2012-04-01T08:30:41Z</time>
      </trkpt>
      <trkpt lat="46.97184" lon="-0.7454">
        <ele>175.1</ele>
        <time>2012-04-01T08:30:43Z</time>
      </trkpt>
      <trkpt lat="46.97191" lon="-0.74543">
        <ele>174.6</ele>
        <time>2012-04-01T08:30:45Z</time>
      </trkpt>
      <trkpt lat="46.97198" lon="-0.74546">
        <ele>174.5</ele>
        <time>2012-04-01T08:30:47Z</time>
      </trkpt>
      <trkpt lat="46.97205" lon="-0.7455">
        <ele>174.3</ele>
        <time>2012-04-01T08:30:49Z</time>
      </trkpt>
      <trkpt lat="46.97212" lon="-0.74553">
        <ele>174.3</ele>
        <time>2012-04-01T08:30:51Z</time>
      </trkpt>
      <trkpt lat="46.9722" lon="-0.74557">
        <ele>174.1</ele>
        <time>2012-04-01T08:30:53Z</time>
      </trkpt>
      <trkpt lat="46.97227" lon="-0.74561">
        <ele>174.1</ele>
        <time>2012-04-01T08:30:55Z</time>
      </trkpt>
      <trkpt lat="46.97234" lon="-0.74564">
        <ele>174.1</ele>
        <time>2012-04-01T08:30:57Z</time>
      </trkpt>
      <trkpt lat="46.9724" lon="-0.74568">
        <ele>174</ele>
        <time>2012-04-01T08:30:59Z</time>
      </trkpt>
      <trkpt lat="46.97247" lon="-0.74566">
        <ele>173.8</ele>
        <time>2012-04-01T08:31:03Z</time>
      </trkpt>
      <trkpt lat="46.97254" lon="-0.74559">
        <ele>173.8</ele>
        <time>2012-04-01T08:31:07Z</time>
      </trkpt>
      <trkpt lat="46.9726" lon="-0.7456">
        <ele>173.8</ele>
        <time>2012-04-01T08:31:09Z</time>
      </trkpt>
      <trkpt lat="46.97266" lon="-0.74563">
        <ele>173.8</ele>
        <time>2012-04-01T08:31:11Z</time>
      </trkpt>
      <trkpt lat="46.97273" lon="-0.74566">
        <ele>173.8</ele>
        <time>2012-04-01T08:31:13Z</time>
      </trkpt>
      <trkpt lat="46.97281" lon="-0.74568">
        <ele>173.8</ele>
        <time>2012-04-01T08:31:15Z</time>
      </trkpt>
      <trkpt lat="46.97288" lon="-0.74571">
        <ele>173.8</ele>
        <time>2012-04-01T08:31:17Z</time>
      </trkpt>
      <trkpt lat="46.97295" lon="-0.74574">
        <ele>173.8</ele>
        <time>2012-04-01T08:31:19Z</time>
      </trkpt>
      <trkpt lat="46.97303" lon="-0.74577">
        <ele>173.8</ele>
        <time>2012-04-01T08:31:21Z</time>
      </trkpt>
      <trkpt lat="46.97311" lon="-0.74581">
        <ele>174</ele>
        <time>2012-04-01T08:31:23Z</time>
      </trkpt>
      <trkpt lat="46.97315" lon="-0.74584">
        <ele>174</ele>
        <time>2012-04-01T08:31:24Z</time>
      </trkpt>
      <trkpt lat="46.9732" lon="-0.74587">
        <ele>174.1</ele>
        <time>2012-04-01T08:31:25Z</time>
      </trkpt>
      <trkpt lat="46.97325" lon="-0.7459">
        <ele>174.1</ele>
        <time>2012-04-01T08:31:26Z</time>
      </trkpt>
      <trkpt lat="46.9733" lon="-0.74593">
        <ele>174.1</ele>
        <time>2012-04-01T08:31:27Z</time>
      </trkpt>
      <trkpt lat="46.97336" lon="-0.74597">
        <ele>174</ele>
        <time>2012-04-01T08:31:28Z</time>
      </trkpt>
      <trkpt lat="46.97342" lon="-0.74601">
        <ele>174</ele>
        <time>2012-04-01T08:31:29Z</time>
      </trkpt>
      <trkpt lat="46.97348" lon="-0.74605">
        <ele>173.8</ele>
        <time>2012-04-01T08:31:30Z</time>
      </trkpt>
      <trkpt lat="46.97354" lon="-0.74609">
        <ele>173.8</ele>
        <time>2012-04-01T08:31:31Z</time>
      </trkpt>
      <trkpt lat="46.9736" lon="-0.74614">
        <ele>173.8</ele>
        <time>2012-04-01T08:31:32Z</time>
      </trkpt>
      <trkpt lat="46.97367" lon="-0.74618">
        <ele>173.6</ele>
        <time>2012-04-01T08:31:33Z</time>
      </trkpt>
      <trkpt lat="46.97373" lon="-0.74623">
        <ele>173.6</ele>
        <time>2012-04-01T08:31:34Z</time>
      </trkpt>
      <trkpt lat="46.9738" lon="-0.74629">
        <ele>173.6</ele>
        <time>2012-04-01T08:31:35Z</time>
      </trkpt>
      <trkpt lat="46.97387" lon="-0.74635">
        <ele>173.5</ele>
        <time>2012-04-01T08:31:36Z</time>
      </trkpt>
      <trkpt lat="46.97394" lon="-0.74641">
        <ele>173.3</ele>
        <time>2012-04-01T08:31:37Z</time>
      </trkpt>
      <trkpt lat="46.97401" lon="-0.74648">
        <ele>173</ele>
        <time>2012-04-01T08:31:38Z</time>
      </trkpt>
      <trkpt lat="46.97408" lon="-0.74655">
        <ele>172.8</ele>
        <time>2012-04-01T08:31:39Z</time>
      </trkpt>
      <trkpt lat="46.97416" lon="-0.74661">
        <ele>172.6</ele>
        <time>2012-04-01T08:31:40Z</time>
      </trkpt>
      <trkpt lat="46.97424" lon="-0.74669">
        <ele>172.5</ele>
        <time>2012-04-01T08:31:41Z</time>
      </trkpt>
      <trkpt lat="46.97432" lon="-0.74676">
        <ele>172.3</ele>
        <time>2012-04-01T08:31:42Z</time>
      </trkpt>
      <trkpt lat="46.97441" lon="-0.74684">
        <ele>172.1</ele>
        <time>2012-04-01T08:31:43Z</time>
      </trkpt>
      <trkpt lat="46.97449" lon="-0.74691">
        <ele>171.8</ele>
        <time>2012-04-01T08:31:44Z</time>
      </trkpt>
      <trkpt lat="46.97458" lon="-0.74698">
        <ele>171.5</ele>
        <time>2012-04-01T08:31:45Z</time>
      </trkpt>
      <trkpt lat="46.97467" lon="-0.74705">
        <ele>171.3</ele>
        <time>2012-04-01T08:31:46Z</time>
      </trkpt>
      <trkpt lat="46.97476" lon="-0.74712">
        <ele>171.1</ele>
        <time>2012-04-01T08:31:47Z</time>
      </trkpt>
      <trkpt lat="46.97484" lon="-0.74719">
        <ele>170.8</ele>
        <time>2012-04-01T08:31:48Z</time>
      </trkpt>
      <trkpt lat="46.97492" lon="-0.74726">
        <ele>170.6</ele>
        <time>2012-04-01T08:31:49Z</time>
      </trkpt>
      <trkpt lat="46.97499" lon="-0.74733">
        <ele>170.6</ele>
        <time>2012-04-01T08:31:50Z</time>
      </trkpt>
      <trkpt lat="46.97506" lon="-0.74739">
        <ele>170.5</ele>
        <time>2012-04-01T08:31:51Z</time>
      </trkpt>
      <trkpt lat="46.97512" lon="-0.74745">
        <ele>170.3</ele>
        <time>2012-04-01T08:31:52Z</time>
      </trkpt>
      <trkpt lat="46.97517" lon="-0.7475">
        <ele>170.3</ele>
        <time>2012-04-01T08:31:53Z</time>
      </trkpt>
      <trkpt lat="46.97523" lon="-0.74756">
        <ele>170.3</ele>
        <time>2012-04-01T08:31:54Z</time>
      </trkpt>
      <trkpt lat="46.97528" lon="-0.7476">
        <ele>170.1</ele>
        <time>2012-04-01T08:31:55Z</time>
      </trkpt>
      <trkpt lat="46.97533" lon="-0.74765">
        <ele>170.1</ele>
        <time>2012-04-01T08:31:56Z</time>
      </trkpt>
      <trkpt lat="46.97538" lon="-0.74769">
        <ele>170.1</ele>
        <time>2012-04-01T08:31:57Z</time>
      </trkpt>
      <trkpt lat="46.97543" lon="-0.74773">
        <ele>170</ele>
        <time>2012-04-01T08:31:58Z</time>
      </trkpt>
      <trkpt lat="46.97548" lon="-0.74778">
        <ele>169.8</ele>
        <time>2012-04-01T08:31:59Z</time>
      </trkpt>
      <trkpt lat="46.97553" lon="-0.74782">
        <ele>169.8</ele>
        <time>2012-04-01T08:32:00Z</time>
      </trkpt>
      <trkpt lat="46.97558" lon="-0.74786">
        <ele>169.8</ele>
        <time>2012-04-01T08:32:01Z</time>
      </trkpt>
      <trkpt lat="46.97562" lon="-0.74791">
        <ele>169.8</ele>
        <time>2012-04-01T08:32:02Z</time>
      </trkpt>
      <trkpt lat="46.97567" lon="-0.74795">
        <ele>169.8</ele>
        <time>2012-04-01T08:32:03Z</time>
      </trkpt>
      <trkpt lat="46.97572" lon="-0.748">
        <ele>169.8</ele>
        <time>2012-04-01T08:32:04Z</time>
      </trkpt>
      <trkpt lat="46.97576" lon="-0.74805">
        <ele>169.8</ele>
        <time>2012-04-01T08:32:05Z</time>
      </trkpt>
      <trkpt lat="46.97581" lon="-0.7481">
        <ele>169.8</ele>
        <time>2012-04-01T08:32:06Z</time>
      </trkpt>
      <trkpt lat="46.97585" lon="-0.74815">
        <ele>169.8</ele>
        <time>2012-04-01T08:32:07Z</time>
      </trkpt>
      <trkpt lat="46.9759" lon="-0.7482">
        <ele>169.6</ele>
        <time>2012-04-01T08:32:08Z</time>
      </trkpt>
      <trkpt lat="46.97595" lon="-0.74825">
        <ele>169.6</ele>
        <time>2012-04-01T08:32:09Z</time>
      </trkpt>
      <trkpt lat="46.976" lon="-0.7483">
        <ele>169.6</ele>
        <time>2012-04-01T08:32:10Z</time>
      </trkpt>
      <trkpt lat="46.97605" lon="-0.74835">
        <ele>169.5</ele>
        <time>2012-04-01T08:32:11Z</time>
      </trkpt>
      <trkpt lat="46.97609" lon="-0.74841">
        <ele>169.5</ele>
        <time>2012-04-01T08:32:12Z</time>
      </trkpt>
      <trkpt lat="46.97614" lon="-0.74846">
        <ele>169.5</ele>
        <time>2012-04-01T08:32:13Z</time>
      </trkpt>
      <trkpt lat="46.9762" lon="-0.74851">
        <ele>169.5</ele>
        <time>2012-04-01T08:32:14Z</time>
      </trkpt>
      <trkpt lat="46.97626" lon="-0.74854">
        <ele>169.5</ele>
        <time>2012-04-01T08:32:15Z</time>
      </trkpt>
      <trkpt lat="46.97632" lon="-0.74856">
        <ele>169.3</ele>
        <time>2012-04-01T08:32:16Z</time>
      </trkpt>
      <trkpt lat="46.97638" lon="-0.74858">
        <ele>169.3</ele>
        <time>2012-04-01T08:32:17Z</time>
      </trkpt>
      <trkpt lat="46.97644" lon="-0.74859">
        <ele>169.3</ele>
        <time>2012-04-01T08:32:18Z</time>
      </trkpt>
      <trkpt lat="46.97649" lon="-0.74862">
        <ele>169.3</ele>
        <time>2012-04-01T08:32:19Z</time>
      </trkpt>
      <trkpt lat="46.97654" lon="-0.74866">
        <ele>169.1</ele>
        <time>2012-04-01T08:32:20Z</time>
      </trkpt>
      <trkpt lat="46.97658" lon="-0.74872">
        <ele>169.1</ele>
        <time>2012-04-01T08:32:21Z</time>
      </trkpt>
      <trkpt lat="46.97661" lon="-0.74878">
        <ele>169</ele>
        <time>2012-04-01T08:32:22Z</time>
      </trkpt>
      <trkpt lat="46.97663" lon="-0.74884">
        <ele>169</ele>
        <time>2012-04-01T08:32:23Z</time>
      </trkpt>
      <trkpt lat="46.97665" lon="-0.74891">
        <ele>168.8</ele>
        <time>2012-04-01T08:32:24Z</time>
      </trkpt>
      <trkpt lat="46.97668" lon="-0.74898">
        <ele>168.8</ele>
        <time>2012-04-01T08:32:25Z</time>
      </trkpt>
      <trkpt lat="46.97672" lon="-0.74905">
        <ele>168.8</ele>
        <time>2012-04-01T08:32:26Z</time>
      </trkpt>
      <trkpt lat="46.97675" lon="-0.7491">
        <ele>168.8</ele>
        <time>2012-04-01T08:32:27Z</time>
      </trkpt>
      <trkpt lat="46.97679" lon="-0.74916">
        <ele>168.8</ele>
        <time>2012-04-01T08:32:28Z</time>
      </trkpt>
      <trkpt lat="46.97684" lon="-0.74922">
        <ele>168.6</ele>
        <time>2012-04-01T08:32:29Z</time>
      </trkpt>
      <trkpt lat="46.97688" lon="-0.74928">
        <ele>168.6</ele>
        <time>2012-04-01T08:32:30Z</time>
      </trkpt>
      <trkpt lat="46.97693" lon="-0.74934">
        <ele>168.6</ele>
        <time>2012-04-01T08:32:31Z</time>
      </trkpt>
      <trkpt lat="46.97699" lon="-0.7494">
        <ele>168.3</ele>
        <time>2012-04-01T08:32:32Z</time>
      </trkpt>
      <trkpt lat="46.97704" lon="-0.74946">
        <ele>168.3</ele>
        <time>2012-04-01T08:32:33Z</time>
      </trkpt>
      <trkpt lat="46.9771" lon="-0.74952">
        <ele>168.1</ele>
        <time>2012-04-01T08:32:34Z</time>
      </trkpt>
      <trkpt lat="46.97716" lon="-0.74959">
        <ele>168.1</ele>
        <time>2012-04-01T08:32:35Z</time>
      </trkpt>
      <trkpt lat="46.97722" lon="-0.74965">
        <ele>167.8</ele>
        <time>2012-04-01T08:32:36Z</time>
      </trkpt>
      <trkpt lat="46.97728" lon="-0.74972">
        <ele>167.6</ele>
        <time>2012-04-01T08:32:37Z</time>
      </trkpt>
      <trkpt lat="46.97734" lon="-0.74979">
        <ele>167.6</ele>
        <time>2012-04-01T08:32:38Z</time>
      </trkpt>
      <trkpt lat="46.97741" lon="-0.74986">
        <ele>167.6</ele>
        <time>2012-04-01T08:32:39Z</time>
      </trkpt>
      <trkpt lat="46.97747" lon="-0.74993">
        <ele>167.5</ele>
        <time>2012-04-01T08:32:40Z</time>
      </trkpt>
      <trkpt lat="46.97754" lon="-0.74999">
        <ele>167.3</ele>
        <time>2012-04-01T08:32:41Z</time>
      </trkpt>
      <trkpt lat="46.97761" lon="-0.75005">
        <ele>167.1</ele>
        <time>2012-04-01T08:32:42Z</time>
      </trkpt>
      <trkpt lat="46.97768" lon="-0.75011">
        <ele>166.8</ele>
        <time>2012-04-01T08:32:43Z</time>
      </trkpt>
      <trkpt lat="46.97774" lon="-0.75017">
        <ele>166.6</ele>
        <time>2012-04-01T08:32:44Z</time>
      </trkpt>
      <trkpt lat="46.9778" lon="-0.75024">
        <ele>166.3</ele>
        <time>2012-04-01T08:32:45Z</time>
      </trkpt>
      <trkpt lat="46.97786" lon="-0.7503">
        <ele>166.1</ele>
        <time>2012-04-01T08:32:46Z</time>
      </trkpt>
      <trkpt lat="46.97791" lon="-0.75036">
        <ele>165.6</ele>
        <time>2012-04-01T08:32:47Z</time>
      </trkpt>
      <trkpt lat="46.97797" lon="-0.75043">
        <ele>165</ele>
        <time>2012-04-01T08:32:48Z</time>
      </trkpt>
      <trkpt lat="46.97802" lon="-0.75049">
        <ele>164.5</ele>
        <time>2012-04-01T08:32:49Z</time>
      </trkpt>
      <trkpt lat="46.97808" lon="-0.75056">
        <ele>164.1</ele>
        <time>2012-04-01T08:32:50Z</time>
      </trkpt>
      <trkpt lat="46.97813" lon="-0.75062">
        <ele>163.8</ele>
        <time>2012-04-01T08:32:51Z</time>
      </trkpt>
      <trkpt lat="46.97818" lon="-0.75068">
        <ele>163.5</ele>
        <time>2012-04-01T08:32:52Z</time>
      </trkpt>
      <trkpt lat="46.97823" lon="-0.75074">
        <ele>163.3</ele>
        <time>2012-04-01T08:32:53Z</time>
      </trkpt>
      <trkpt lat="46.97827" lon="-0.75079">
        <ele>163.1</ele>
        <time>2012-04-01T08:32:54Z</time>
      </trkpt>
      <trkpt lat="46.97832" lon="-0.75085">
        <ele>163</ele>
        <time>2012-04-01T08:32:55Z</time>
      </trkpt>
      <trkpt lat="46.97837" lon="-0.7509">
        <ele>162.8</ele>
        <time>2012-04-01T08:32:56Z</time>
      </trkpt>
      <trkpt lat="46.97841" lon="-0.75095">
        <ele>162.6</ele>
        <time>2012-04-01T08:32:57Z</time>
      </trkpt>
      <trkpt lat="46.97846" lon="-0.751">
        <ele>162.5</ele>
        <time>2012-04-01T08:32:58Z</time>
      </trkpt>
      <trkpt lat="46.9785" lon="-0.75106">
        <ele>162.3</ele>
        <time>2012-04-01T08:32:59Z</time>
      </trkpt>
      <trkpt lat="46.97855" lon="-0.75111">
        <ele>162.1</ele>
        <time>2012-04-01T08:33:00Z</time>
      </trkpt>
      <trkpt lat="46.97859" lon="-0.75115">
        <ele>162.1</ele>
        <time>2012-04-01T08:33:01Z</time>
      </trkpt>
      <trkpt lat="46.97864" lon="-0.7512">
        <ele>162</ele>
        <time>2012-04-01T08:33:02Z</time>
      </trkpt>
      <trkpt lat="46.97868" lon="-0.75125">
        <ele>162</ele>
        <time>2012-04-01T08:33:03Z</time>
      </trkpt>
      <trkpt lat="46.97873" lon="-0.7513">
        <ele>161.8</ele>
        <time>2012-04-01T08:33:04Z</time>
      </trkpt>
      <trkpt lat="46.97878" lon="-0.75135">
        <ele>161.8</ele>
        <time>2012-04-01T08:33:05Z</time>
      </trkpt>
      <trkpt lat="46.97882" lon="-0.75141">
        <ele>161.8</ele>
        <time>2012-04-01T08:33:06Z</time>
      </trkpt>
      <trkpt lat="46.97887" lon="-0.75146">
        <ele>161.8</ele>
        <time>2012-04-01T08:33:07Z</time>
      </trkpt>
      <trkpt lat="46.97892" lon="-0.7515">
        <ele>161.6</ele>
        <time>2012-04-01T08:33:08Z</time>
      </trkpt>
      <trkpt lat="46.97896" lon="-0.75155">
        <ele>161.6</ele>
        <time>2012-04-01T08:33:09Z</time>
      </trkpt>
      <trkpt lat="46.97901" lon="-0.7516">
        <ele>161.5</ele>
        <time>2012-04-01T08:33:10Z</time>
      </trkpt>
      <trkpt lat="46.97905" lon="-0.75164">
        <ele>161.3</ele>
        <time>2012-04-01T08:33:11Z</time>
      </trkpt>
      <trkpt lat="46.97909" lon="-0.75168">
        <ele>161.1</ele>
        <time>2012-04-01T08:33:12Z</time>
      </trkpt>
      <trkpt lat="46.97914" lon="-0.75172">
        <ele>161</ele>
        <time>2012-04-01T08:33:13Z</time>
      </trkpt>
      <trkpt lat="46.97919" lon="-0.75176">
        <ele>160.8</ele>
        <time>2012-04-01T08:33:14Z</time>
      </trkpt>
      <trkpt lat="46.97924" lon="-0.7518">
        <ele>160.6</ele>
        <time>2012-04-01T08:33:15Z</time>
      </trkpt>
      <trkpt lat="46.97928" lon="-0.75185">
        <ele>160.3</ele>
        <time>2012-04-01T08:33:16Z</time>
      </trkpt>
      <trkpt lat="46.97933" lon="-0.75189">
        <ele>160.3</ele>
        <time>2012-04-01T08:33:17Z</time>
      </trkpt>
      <trkpt lat="46.97939" lon="-0.75193">
        <ele>160.1</ele>
        <time>2012-04-01T08:33:18Z</time>
      </trkpt>
      <trkpt lat="46.97944" lon="-0.75197">
        <ele>160.1</ele>
        <time>2012-04-01T08:33:19Z</time>
      </trkpt>
      <trkpt lat="46.97949" lon="-0.75201">
        <ele>160.1</ele>
        <time>2012-04-01T08:33:20Z</time>
      </trkpt>
      <trkpt lat="46.97953" lon="-0.75204">
        <ele>160.3</ele>
        <time>2012-04-01T08:33:21Z</time>
      </trkpt>
      <trkpt lat="46.97961" lon="-0.75209">
        <ele>160.3</ele>
        <time>2012-04-01T08:33:23Z</time>
      </trkpt>
      <trkpt lat="46.97965" lon="-0.75216">
        <ele>160.3</ele>
        <time>2012-04-01T08:33:25Z</time>
      </trkpt>
      <trkpt lat="46.9797" lon="-0.75223">
        <ele>160.1</ele>
        <time>2012-04-01T08:33:27Z</time>
      </trkpt>
      <trkpt lat="46.97976" lon="-0.75228">
        <ele>160.1</ele>
        <time>2012-04-01T08:33:29Z</time>
      </trkpt>
      <trkpt lat="46.97984" lon="-0.75229">
        <ele>159.8</ele>
        <time>2012-04-01T08:33:31Z</time>
      </trkpt>
      <trkpt lat="46.9799" lon="-0.75233">
        <ele>159.6</ele>
        <time>2012-04-01T08:33:33Z</time>
      </trkpt>
      <trkpt lat="46.97998" lon="-0.75237">
        <ele>157.6</ele>
        <time>2012-04-01T08:33:35Z</time>
      </trkpt>
      <trkpt lat="46.98001" lon="-0.75238">
        <ele>157.5</ele>
        <time>2012-04-01T08:33:36Z</time>
      </trkpt>
      <trkpt lat="46.98014" lon="-0.75243">
        <ele>155.6</ele>
        <time>2012-04-01T08:33:40Z</time>
      </trkpt>
      <trkpt lat="46.98019" lon="-0.75245">
        <ele>154.3</ele>
        <time>2012-04-01T08:33:41Z</time>
      </trkpt>
      <trkpt lat="46.98024" lon="-0.75247">
        <ele>153.1</ele>
        <time>2012-04-01T08:33:42Z</time>
      </trkpt>
      <trkpt lat="46.9803" lon="-0.7525">
        <ele>152.1</ele>
        <time>2012-04-01T08:33:43Z</time>
      </trkpt>
      <trkpt lat="46.98036" lon="-0.75253">
        <ele>151.1</ele>
        <time>2012-04-01T08:33:44Z</time>
      </trkpt>
      <trkpt lat="46.98044" lon="-0.75257">
        <ele>150.1</ele>
        <time>2012-04-01T08:33:46Z</time>
      </trkpt>
      <trkpt lat="46.9805" lon="-0.75261">
        <ele>150</ele>
        <time>2012-04-01T08:33:50Z</time>
      </trkpt>
      <trkpt lat="46.98057" lon="-0.75265">
        <ele>149.8</ele>
        <time>2012-04-01T08:33:53Z</time>
      </trkpt>
      <trkpt lat="46.98065" lon="-0.75269">
        <ele>149.6</ele>
        <time>2012-04-01T08:33:55Z</time>
      </trkpt>
      <trkpt lat="46.98073" lon="-0.75271">
        <ele>149.6</ele>
        <time>2012-04-01T08:33:57Z</time>
      </trkpt>
      <trkpt lat="46.98082" lon="-0.75275">
        <ele>149.6</ele>
        <time>2012-04-01T08:34:00Z</time>
      </trkpt>
      <trkpt lat="46.9809" lon="-0.75279">
        <ele>149.6</ele>
        <time>2012-04-01T08:34:03Z</time>
      </trkpt>
      <trkpt lat="46.98096" lon="-0.75282">
        <ele>149.6</ele>
        <time>2012-04-01T08:34:05Z</time>
      </trkpt>
      <trkpt lat="46.98103" lon="-0.75285">
        <ele>149.6</ele>
        <time>2012-04-01T08:34:07Z</time>
      </trkpt>
      <trkpt lat="46.98109" lon="-0.75287">
        <ele>149.8</ele>
        <time>2012-04-01T08:34:09Z</time>
      </trkpt>
      <trkpt lat="46.98117" lon="-0.75291">
        <ele>149.8</ele>
        <time>2012-04-01T08:34:12Z</time>
      </trkpt>
      <trkpt lat="46.98124" lon="-0.75294">
        <ele>150</ele>
        <time>2012-04-01T08:34:14Z</time>
      </trkpt>
      <trkpt lat="46.98131" lon="-0.75296">
        <ele>150.1</ele>
        <time>2012-04-01T08:34:16Z</time>
      </trkpt>
      <trkpt lat="46.9814" lon="-0.75297">
        <ele>150.1</ele>
        <time>2012-04-01T08:34:18Z</time>
      </trkpt>
      <trkpt lat="46.98148" lon="-0.75298">
        <ele>150.3</ele>
        <time>2012-04-01T08:34:20Z</time>
      </trkpt>
      <trkpt lat="46.98152" lon="-0.753">
        <ele>151</ele>
        <time>2012-04-01T08:34:21Z</time>
      </trkpt>
      <trkpt lat="46.98157" lon="-0.75301">
        <ele>151.3</ele>
        <time>2012-04-01T08:34:22Z</time>
      </trkpt>
      <trkpt lat="46.98165" lon="-0.75305">
        <ele>151.5</ele>
        <time>2012-04-01T08:34:24Z</time>
      </trkpt>
      <trkpt lat="46.98173" lon="-0.75307">
        <ele>151.8</ele>
        <time>2012-04-01T08:34:26Z</time>
      </trkpt>
      <trkpt lat="46.98182" lon="-0.7531">
        <ele>152.1</ele>
        <time>2012-04-01T08:34:28Z</time>
      </trkpt>
      <trkpt lat="46.9819" lon="-0.75312">
        <ele>152.1</ele>
        <time>2012-04-01T08:34:30Z</time>
      </trkpt>
      <trkpt lat="46.98198" lon="-0.75313">
        <ele>152.1</ele>
        <time>2012-04-01T08:34:32Z</time>
      </trkpt>
      <trkpt lat="46.98206" lon="-0.75314">
        <ele>152.1</ele>
        <time>2012-04-01T08:34:34Z</time>
      </trkpt>
      <trkpt lat="46.98214" lon="-0.75317">
        <ele>152.1</ele>
        <time>2012-04-01T08:34:36Z</time>
      </trkpt>
      <trkpt lat="46.98217" lon="-0.75318">
        <ele>152.1</ele>
        <time>2012-04-01T08:34:37Z</time>
      </trkpt>
      <trkpt lat="46.98229" lon="-0.7532">
        <ele>152.3</ele>
        <time>2012-04-01T08:34:40Z</time>
      </trkpt>
      <trkpt lat="46.98237" lon="-0.75321">
        <ele>152.5</ele>
        <time>2012-04-01T08:34:42Z</time>
      </trkpt>
      <trkpt lat="46.98245" lon="-0.75323">
        <ele>152.6</ele>
        <time>2012-04-01T08:34:44Z</time>
      </trkpt>
      <trkpt lat="46.98252" lon="-0.75324">
        <ele>153</ele>
        <time>2012-04-01T08:34:46Z</time>
      </trkpt>
      <trkpt lat="46.98259" lon="-0.75327">
        <ele>153.3</ele>
        <time>2012-04-01T08:34:57Z</time>
      </trkpt>
      <trkpt lat="46.98262" lon="-0.75328">
        <ele>153.8</ele>
        <time>2012-04-01T08:35:00Z</time>
      </trkpt>
      <trkpt lat="46.98268" lon="-0.75329">
        <ele>154.1</ele>
        <time>2012-04-01T08:35:24Z</time>
      </trkpt>
      <trkpt lat="46.98275" lon="-0.75326">
        <ele>154.6</ele>
        <time>2012-04-01T08:35:26Z</time>
      </trkpt>
      <trkpt lat="46.98283" lon="-0.75326">
        <ele>154.8</ele>
        <time>2012-04-01T08:35:29Z</time>
      </trkpt>
      <trkpt lat="46.98289" lon="-0.75326">
        <ele>155</ele>
        <time>2012-04-01T08:35:31Z</time>
      </trkpt>
      <trkpt lat="46.98295" lon="-0.75327">
        <ele>155.1</ele>
        <time>2012-04-01T08:35:33Z</time>
      </trkpt>
      <trkpt lat="46.98303" lon="-0.75328">
        <ele>155.8</ele>
        <time>2012-04-01T08:35:35Z</time>
      </trkpt>
      <trkpt lat="46.98311" lon="-0.75329">
        <ele>156.8</ele>
        <time>2012-04-01T08:35:37Z</time>
      </trkpt>
      <trkpt lat="46.98316" lon="-0.7533">
        <ele>157.1</ele>
        <time>2012-04-01T08:35:38Z</time>
      </trkpt>
      <trkpt lat="46.9832" lon="-0.75331">
        <ele>157.3</ele>
        <time>2012-04-01T08:35:39Z</time>
      </trkpt>
      <trkpt lat="46.98325" lon="-0.75332">
        <ele>157.6</ele>
        <time>2012-04-01T08:35:40Z</time>
      </trkpt>
      <trkpt lat="46.9833" lon="-0.75334">
        <ele>157.8</ele>
        <time>2012-04-01T08:35:41Z</time>
      </trkpt>
      <trkpt lat="46.98335" lon="-0.75335">
        <ele>157.8</ele>
        <time>2012-04-01T08:35:42Z</time>
      </trkpt>
      <trkpt lat="46.9834" lon="-0.75337">
        <ele>157.8</ele>
        <time>2012-04-01T08:35:43Z</time>
      </trkpt>
      <trkpt lat="46.98345" lon="-0.75339">
        <ele>158</ele>
        <time>2012-04-01T08:35:44Z</time>
      </trkpt>
      <trkpt lat="46.9835" lon="-0.75341">
        <ele>158</ele>
        <time>2012-04-01T08:35:45Z</time>
      </trkpt>
      <trkpt lat="46.98355" lon="-0.75343">
        <ele>158</ele>
        <time>2012-04-01T08:35:46Z</time>
      </trkpt>
      <trkpt lat="46.9836" lon="-0.75345">
        <ele>158</ele>
        <time>2012-04-01T08:35:47Z</time>
      </trkpt>
      <trkpt lat="46.98366" lon="-0.75347">
        <ele>157.8</ele>
        <time>2012-04-01T08:35:48Z</time>
      </trkpt>
      <trkpt lat="46.98371" lon="-0.75349">
        <ele>157.8</ele>
        <time>2012-04-01T08:35:49Z</time>
      </trkpt>
      <trkpt lat="46.98376" lon="-0.75352">
        <ele>157.8</ele>
        <time>2012-04-01T08:35:50Z</time>
      </trkpt>
      <trkpt lat="46.98382" lon="-0.75354">
        <ele>157.8</ele>
        <time>2012-04-01T08:35:51Z</time>
      </trkpt>
      <trkpt lat="46.98387" lon="-0.75357">
        <ele>157.8</ele>
        <time>2012-04-01T08:35:52Z</time>
      </trkpt>
      <trkpt lat="46.98393" lon="-0.75359">
        <ele>157.6</ele>
        <time>2012-04-01T08:35:53Z</time>
      </trkpt>
      <trkpt lat="46.98399" lon="-0.75362">
        <ele>157.6</ele>
        <time>2012-04-01T08:35:54Z</time>
      </trkpt>
      <trkpt lat="46.98404" lon="-0.75364">
        <ele>157.6</ele>
        <time>2012-04-01T08:35:55Z</time>
      </trkpt>
      <trkpt lat="46.9841" lon="-0.75367">
        <ele>157.5</ele>
        <time>2012-04-01T08:35:56Z</time>
      </trkpt>
      <trkpt lat="46.98415" lon="-0.7537">
        <ele>157.3</ele>
        <time>2012-04-01T08:35:57Z</time>
      </trkpt>
      <trkpt lat="46.9842" lon="-0.75372">
        <ele>157.1</ele>
        <time>2012-04-01T08:35:58Z</time>
      </trkpt>
      <trkpt lat="46.98426" lon="-0.75375">
        <ele>157.1</ele>
        <time>2012-04-01T08:35:59Z</time>
      </trkpt>
      <trkpt lat="46.98431" lon="-0.75378">
        <ele>156.8</ele>
        <time>2012-04-01T08:36:00Z</time>
      </trkpt>
      <trkpt lat="46.98436" lon="-0.75381">
        <ele>156.6</ele>
        <time>2012-04-01T08:36:01Z</time>
      </trkpt>
      <trkpt lat="46.98441" lon="-0.75384">
        <ele>156.5</ele>
        <time>2012-04-01T08:36:02Z</time>
      </trkpt>
      <trkpt lat="46.98447" lon="-0.75387">
        <ele>156.3</ele>
        <time>2012-04-01T08:36:03Z</time>
      </trkpt>
      <trkpt lat="46.98452" lon="-0.75391">
        <ele>156.1</ele>
        <time>2012-04-01T08:36:04Z</time>
      </trkpt>
      <trkpt lat="46.98457" lon="-0.75394">
        <ele>156.1</ele>
        <time>2012-04-01T08:36:05Z</time>
      </trkpt>
      <trkpt lat="46.98462" lon="-0.75397">
        <ele>155.8</ele>
        <time>2012-04-01T08:36:06Z</time>
      </trkpt>
      <trkpt lat="46.98468" lon="-0.754">
        <ele>155.8</ele>
        <time>2012-04-01T08:36:07Z</time>
      </trkpt>
      <trkpt lat="46.98473" lon="-0.75404">
        <ele>155.6</ele>
        <time>2012-04-01T08:36:08Z</time>
      </trkpt>
      <trkpt lat="46.98479" lon="-0.75407">
        <ele>155.5</ele>
        <time>2012-04-01T08:36:09Z</time>
      </trkpt>
      <trkpt lat="46.98484" lon="-0.7541">
        <ele>155.3</ele>
        <time>2012-04-01T08:36:10Z</time>
      </trkpt>
      <trkpt lat="46.98489" lon="-0.75413">
        <ele>155.1</ele>
        <time>2012-04-01T08:36:11Z</time>
      </trkpt>
      <trkpt lat="46.98495" lon="-0.75416">
        <ele>155.1</ele>
        <time>2012-04-01T08:36:12Z</time>
      </trkpt>
      <trkpt lat="46.985" lon="-0.75419">
        <ele>155</ele>
        <time>2012-04-01T08:36:13Z</time>
      </trkpt>
      <trkpt lat="46.98506" lon="-0.75421">
        <ele>154.8</ele>
        <time>2012-04-01T08:36:14Z</time>
      </trkpt>
      <trkpt lat="46.98511" lon="-0.75424">
        <ele>154.8</ele>
        <time>2012-04-01T08:36:15Z</time>
      </trkpt>
      <trkpt lat="46.98517" lon="-0.75427">
        <ele>154.6</ele>
        <time>2012-04-01T08:36:16Z</time>
      </trkpt>
      <trkpt lat="46.98523" lon="-0.7543">
        <ele>154.6</ele>
        <time>2012-04-01T08:36:17Z</time>
      </trkpt>
      <trkpt lat="46.98528" lon="-0.75433">
        <ele>154.6</ele>
        <time>2012-04-01T08:36:18Z</time>
      </trkpt>
      <trkpt lat="46.98534" lon="-0.75436">
        <ele>154.5</ele>
        <time>2012-04-01T08:36:19Z</time>
      </trkpt>
      <trkpt lat="46.9854" lon="-0.75438">
        <ele>154.3</ele>
        <time>2012-04-01T08:36:20Z</time>
      </trkpt>
      <trkpt lat="46.98545" lon="-0.75441">
        <ele>154.3</ele>
        <time>2012-04-01T08:36:21Z</time>
      </trkpt>
      <trkpt lat="46.98551" lon="-0.75443">
        <ele>154.1</ele>
        <time>2012-04-01T08:36:22Z</time>
      </trkpt>
      <trkpt lat="46.98557" lon="-0.75446">
        <ele>154.1</ele>
        <time>2012-04-01T08:36:23Z</time>
      </trkpt>
      <trkpt lat="46.98562" lon="-0.75449">
        <ele>154.1</ele>
        <time>2012-04-01T08:36:24Z</time>
      </trkpt>
      <trkpt lat="46.98568" lon="-0.75453">
        <ele>154</ele>
        <time>2012-04-01T08:36:25Z</time>
      </trkpt>
      <trkpt lat="46.98573" lon="-0.75456">
        <ele>153.8</ele>
        <time>2012-04-01T08:36:26Z</time>
      </trkpt>
      <trkpt lat="46.98579" lon="-0.75459">
        <ele>153.8</ele>
        <time>2012-04-01T08:36:27Z</time>
      </trkpt>
      <trkpt lat="46.98584" lon="-0.75462">
        <ele>153.6</ele>
        <time>2012-04-01T08:36:28Z</time>
      </trkpt>
      <trkpt lat="46.98589" lon="-0.75465">
        <ele>153.6</ele>
        <time>2012-04-01T08:36:29Z</time>
      </trkpt>
      <trkpt lat="46.98594" lon="-0.75468">
        <ele>153.5</ele>
        <time>2012-04-01T08:36:30Z</time>
      </trkpt>
      <trkpt lat="46.98599" lon="-0.75472">
        <ele>153.3</ele>
        <time>2012-04-01T08:36:31Z</time>
      </trkpt>
      <trkpt lat="46.98604" lon="-0.75475">
        <ele>153.3</ele>
        <time>2012-04-01T08:36:32Z</time>
      </trkpt>
      <trkpt lat="46.98609" lon="-0.75478">
        <ele>153.1</ele>
        <time>2012-04-01T08:36:33Z</time>
      </trkpt>
      <trkpt lat="46.98614" lon="-0.75481">
        <ele>153.1</ele>
        <time>2012-04-01T08:36:34Z</time>
      </trkpt>
      <trkpt lat="46.9862" lon="-0.75483">
        <ele>153.1</ele>
        <time>2012-04-01T08:36:35Z</time>
      </trkpt>
      <trkpt lat="46.98625" lon="-0.75484">
        <ele>153</ele>
        <time>2012-04-01T08:36:36Z</time>
      </trkpt>
      <trkpt lat="46.9863" lon="-0.75485">
        <ele>153</ele>
        <time>2012-04-01T08:36:37Z</time>
      </trkpt>
      <trkpt lat="46.98636" lon="-0.75485">
        <ele>152.8</ele>
        <time>2012-04-01T08:36:38Z</time>
      </trkpt>
      <trkpt lat="46.98641" lon="-0.75484">
        <ele>152.8</ele>
        <time>2012-04-01T08:36:39Z</time>
      </trkpt>
      <trkpt lat="46.98646" lon="-0.75483">
        <ele>152.8</ele>
        <time>2012-04-01T08:36:40Z</time>
      </trkpt>
      <trkpt lat="46.98653" lon="-0.75484">
        <ele>152.8</ele>
        <time>2012-04-01T08:36:42Z</time>
      </trkpt>
      <trkpt lat="46.9866" lon="-0.7549">
        <ele>152.8</ele>
        <time>2012-04-01T08:36:45Z</time>
      </trkpt>
      <trkpt lat="46.98661" lon="-0.755">
        <ele>152.8</ele>
        <time>2012-04-01T08:36:47Z</time>
      </trkpt>
      <trkpt lat="46.9866" lon="-0.7551">
        <ele>152.6</ele>
        <time>2012-04-01T08:36:49Z</time>
      </trkpt>
      <trkpt lat="46.9866" lon="-0.75521">
        <ele>152.6</ele>
        <time>2012-04-01T08:36:51Z</time>
      </trkpt>
      <trkpt lat="46.98658" lon="-0.75531">
        <ele>152.3</ele>
        <time>2012-04-01T08:36:53Z</time>
      </trkpt>
      <trkpt lat="46.98657" lon="-0.75544">
        <ele>152</ele>
        <time>2012-04-01T08:36:55Z</time>
      </trkpt>
      <trkpt lat="46.98656" lon="-0.75556">
        <ele>151.8</ele>
        <time>2012-04-01T08:36:57Z</time>
      </trkpt>
      <trkpt lat="46.98656" lon="-0.75563">
        <ele>151.8</ele>
        <time>2012-04-01T08:36:58Z</time>
      </trkpt>
      <trkpt lat="46.98655" lon="-0.7557">
        <ele>151.8</ele>
        <time>2012-04-01T08:36:59Z</time>
      </trkpt>
      <trkpt lat="46.98654" lon="-0.75582">
        <ele>151.8</ele>
        <time>2012-04-01T08:37:01Z</time>
      </trkpt>
      <trkpt lat="46.98653" lon="-0.75595">
        <ele>151.8</ele>
        <time>2012-04-01T08:37:03Z</time>
      </trkpt>
      <trkpt lat="46.98652" lon="-0.75607">
        <ele>151.8</ele>
        <time>2012-04-01T08:37:05Z</time>
      </trkpt>
      <trkpt lat="46.98652" lon="-0.75619">
        <ele>151.8</ele>
        <time>2012-04-01T08:37:07Z</time>
      </trkpt>
      <trkpt lat="46.98651" lon="-0.75632">
        <ele>152</ele>
        <time>2012-04-01T08:37:09Z</time>
      </trkpt>
      <trkpt lat="46.9865" lon="-0.75644">
        <ele>152</ele>
        <time>2012-04-01T08:37:11Z</time>
      </trkpt>
      <trkpt lat="46.9865" lon="-0.75656">
        <ele>152.1</ele>
        <time>2012-04-01T08:37:13Z</time>
      </trkpt>
      <trkpt lat="46.9865" lon="-0.75669">
        <ele>152.1</ele>
        <time>2012-04-01T08:37:15Z</time>
      </trkpt>
      <trkpt lat="46.9865" lon="-0.75681">
        <ele>152.1</ele>
        <time>2012-04-01T08:37:17Z</time>
      </trkpt>
      <trkpt lat="46.9865" lon="-0.75694">
        <ele>152.3</ele>
        <time>2012-04-01T08:37:19Z</time>
      </trkpt>
      <trkpt lat="46.98651" lon="-0.75707">
        <ele>152.3</ele>
        <time>2012-04-01T08:37:21Z</time>
      </trkpt>
      <trkpt lat="46.98651" lon="-0.75714">
        <ele>152.5</ele>
        <time>2012-04-01T08:37:22Z</time>
      </trkpt>
      <trkpt lat="46.98651" lon="-0.7572">
        <ele>152.5</ele>
        <time>2012-04-01T08:37:23Z</time>
      </trkpt>
      <trkpt lat="46.9865" lon="-0.75727">
        <ele>152.5</ele>
        <time>2012-04-01T08:37:24Z</time>
      </trkpt>
      <trkpt lat="46.9865" lon="-0.75734">
        <ele>152.5</ele>
        <time>2012-04-01T08:37:25Z</time>
      </trkpt>
      <trkpt lat="46.9865" lon="-0.75741">
        <ele>152.6</ele>
        <time>2012-04-01T08:37:26Z</time>
      </trkpt>
      <trkpt lat="46.98649" lon="-0.75748">
        <ele>152.6</ele>
        <time>2012-04-01T08:37:27Z</time>
      </trkpt>
      <trkpt lat="46.98649" lon="-0.75755">
        <ele>152.6</ele>
        <time>2012-04-01T08:37:28Z</time>
      </trkpt>
      <trkpt lat="46.98648" lon="-0.75762">
        <ele>152.6</ele>
        <time>2012-04-01T08:37:29Z</time>
      </trkpt>
      <trkpt lat="46.98647" lon="-0.7577">
        <ele>152.6</ele>
        <time>2012-04-01T08:37:30Z</time>
      </trkpt>
      <trkpt lat="46.98646" lon="-0.75777">
        <ele>152.6</ele>
        <time>2012-04-01T08:37:31Z</time>
      </trkpt>
      <trkpt lat="46.98645" lon="-0.75785">
        <ele>152.8</ele>
        <time>2012-04-01T08:37:32Z</time>
      </trkpt>
      <trkpt lat="46.98644" lon="-0.75794">
        <ele>152.8</ele>
        <time>2012-04-01T08:37:33Z</time>
      </trkpt>
      <trkpt lat="46.98642" lon="-0.75802">
        <ele>152.8</ele>
        <time>2012-04-01T08:37:34Z</time>
      </trkpt>
      <trkpt lat="46.9864" lon="-0.75811">
        <ele>152.8</ele>
        <time>2012-04-01T08:37:35Z</time>
      </trkpt>
      <trkpt lat="46.98638" lon="-0.7582">
        <ele>152.8</ele>
        <time>2012-04-01T08:37:36Z</time>
      </trkpt>
      <trkpt lat="46.98636" lon="-0.7583">
        <ele>153</ele>
        <time>2012-04-01T08:37:37Z</time>
      </trkpt>
      <trkpt lat="46.98634" lon="-0.7584">
        <ele>153</ele>
        <time>2012-04-01T08:37:38Z</time>
      </trkpt>
      <trkpt lat="46.98631" lon="-0.7585">
        <ele>153.1</ele>
        <time>2012-04-01T08:37:39Z</time>
      </trkpt>
      <trkpt lat="46.98628" lon="-0.7586">
        <ele>153.1</ele>
        <time>2012-04-01T08:37:40Z</time>
      </trkpt>
      <trkpt lat="46.98626" lon="-0.7587">
        <ele>153.1</ele>
        <time>2012-04-01T08:37:41Z</time>
      </trkpt>
      <trkpt lat="46.98623" lon="-0.75881">
        <ele>153.1</ele>
        <time>2012-04-01T08:37:42Z</time>
      </trkpt>
      <trkpt lat="46.9862" lon="-0.75892">
        <ele>153.1</ele>
        <time>2012-04-01T08:37:43Z</time>
      </trkpt>
      <trkpt lat="46.98617" lon="-0.75902">
        <ele>153.1</ele>
        <time>2012-04-01T08:37:44Z</time>
      </trkpt>
      <trkpt lat="46.98613" lon="-0.75913">
        <ele>153.1</ele>
        <time>2012-04-01T08:37:45Z</time>
      </trkpt>
      <trkpt lat="46.9861" lon="-0.75925">
        <ele>153.1</ele>
        <time>2012-04-01T08:37:46Z</time>
      </trkpt>
      <trkpt lat="46.98606" lon="-0.75936">
        <ele>153.1</ele>
        <time>2012-04-01T08:37:47Z</time>
      </trkpt>
      <trkpt lat="46.98602" lon="-0.75947">
        <ele>153.3</ele>
        <time>2012-04-01T08:37:48Z</time>
      </trkpt>
      <trkpt lat="46.98598" lon="-0.75958">
        <ele>153.3</ele>
        <time>2012-04-01T08:37:49Z</time>
      </trkpt>
      <trkpt lat="46.98594" lon="-0.75969">
        <ele>153.3</ele>
        <time>2012-04-01T08:37:50Z</time>
      </trkpt>
      <trkpt lat="46.9859" lon="-0.7598">
        <ele>153.3</ele>
        <time>2012-04-01T08:37:51Z</time>
      </trkpt>
      <trkpt lat="46.98586" lon="-0.75991">
        <ele>153.3</ele>
        <time>2012-04-01T08:37:52Z</time>
      </trkpt>
      <trkpt lat="46.98583" lon="-0.76003">
        <ele>153.3</ele>
        <time>2012-04-01T08:37:53Z</time>
      </trkpt>
      <trkpt lat="46.98579" lon="-0.76014">
        <ele>153.1</ele>
        <time>2012-04-01T08:37:54Z</time>
      </trkpt>
      <trkpt lat="46.98575" lon="-0.76025">
        <ele>153.1</ele>
        <time>2012-04-01T08:37:55Z</time>
      </trkpt>
      <trkpt lat="46.98571" lon="-0.76036">
        <ele>153.1</ele>
        <time>2012-04-01T08:37:56Z</time>
      </trkpt>
      <trkpt lat="46.98566" lon="-0.76046">
        <ele>153.1</ele>
        <time>2012-04-01T08:37:57Z</time>
      </trkpt>
      <trkpt lat="46.98562" lon="-0.76056">
        <ele>153.1</ele>
        <time>2012-04-01T08:37:58Z</time>
      </trkpt>
      <trkpt lat="46.98558" lon="-0.76067">
        <ele>153</ele>
        <time>2012-04-01T08:37:59Z</time>
      </trkpt>
      <trkpt lat="46.98553" lon="-0.76077">
        <ele>153</ele>
        <time>2012-04-01T08:38:00Z</time>
      </trkpt>
      <trkpt lat="46.98548" lon="-0.76087">
        <ele>152.8</ele>
        <time>2012-04-01T08:38:01Z</time>
      </trkpt>
      <trkpt lat="46.98544" lon="-0.76097">
        <ele>152.8</ele>
        <time>2012-04-01T08:38:02Z</time>
      </trkpt>
      <trkpt lat="46.98539" lon="-0.76106">
        <ele>152.8</ele>
        <time>2012-04-01T08:38:03Z</time>
      </trkpt>
      <trkpt lat="46.98535" lon="-0.76116">
        <ele>152.6</ele>
        <time>2012-04-01T08:38:04Z</time>
      </trkpt>
      <trkpt lat="46.98531" lon="-0.76124">
        <ele>152.5</ele>
        <time>2012-04-01T08:38:05Z</time>
      </trkpt>
      <trkpt lat="46.98527" lon="-0.76132">
        <ele>152.3</ele>
        <time>2012-04-01T08:38:06Z</time>
      </trkpt>
      <trkpt lat="46.98523" lon="-0.76139">
        <ele>152.3</ele>
        <time>2012-04-01T08:38:07Z</time>
      </trkpt>
      <trkpt lat="46.98524" lon="-0.76151">
        <ele>152</ele>
        <time>2012-04-01T08:38:09Z</time>
      </trkpt>
      <trkpt lat="46.98531" lon="-0.76159">
        <ele>151.6</ele>
        <time>2012-04-01T08:38:11Z</time>
      </trkpt>
      <trkpt lat="46.98536" lon="-0.76163">
        <ele>151.3</ele>
        <time>2012-04-01T08:38:12Z</time>
      </trkpt>
      <trkpt lat="46.98541" lon="-0.76166">
        <ele>151.3</ele>
        <time>2012-04-01T08:38:13Z</time>
      </trkpt>
      <trkpt lat="46.98547" lon="-0.7617">
        <ele>151.1</ele>
        <time>2012-04-01T08:38:14Z</time>
      </trkpt>
      <trkpt lat="46.98552" lon="-0.76173">
        <ele>151.1</ele>
        <time>2012-04-01T08:38:15Z</time>
      </trkpt>
      <trkpt lat="46.98558" lon="-0.76176">
        <ele>151</ele>
        <time>2012-04-01T08:38:16Z</time>
      </trkpt>
      <trkpt lat="46.98564" lon="-0.76178">
        <ele>151</ele>
        <time>2012-04-01T08:38:17Z</time>
      </trkpt>
      <trkpt lat="46.9857" lon="-0.76181">
        <ele>150.8</ele>
        <time>2012-04-01T08:38:18Z</time>
      </trkpt>
      <trkpt lat="46.98576" lon="-0.76184">
        <ele>150.8</ele>
        <time>2012-04-01T08:38:19Z</time>
      </trkpt>
      <trkpt lat="46.98582" lon="-0.76187">
        <ele>150.8</ele>
        <time>2012-04-01T08:38:20Z</time>
      </trkpt>
      <trkpt lat="46.98588" lon="-0.7619">
        <ele>150.6</ele>
        <time>2012-04-01T08:38:21Z</time>
      </trkpt>
      <trkpt lat="46.98593" lon="-0.76196">
        <ele>150.6</ele>
        <time>2012-04-01T08:38:22Z</time>
      </trkpt>
      <trkpt lat="46.98599" lon="-0.76201">
        <ele>150.5</ele>
        <time>2012-04-01T08:38:23Z</time>
      </trkpt>
      <trkpt lat="46.98604" lon="-0.76207">
        <ele>150.3</ele>
        <time>2012-04-01T08:38:24Z</time>
      </trkpt>
      <trkpt lat="46.9861" lon="-0.76211">
        <ele>150.3</ele>
        <time>2012-04-01T08:38:25Z</time>
      </trkpt>
      <trkpt lat="46.98616" lon="-0.76214">
        <ele>150.1</ele>
        <time>2012-04-01T08:38:26Z</time>
      </trkpt>
      <trkpt lat="46.98622" lon="-0.76216">
        <ele>150</ele>
        <time>2012-04-01T08:38:27Z</time>
      </trkpt>
      <trkpt lat="46.98628" lon="-0.76219">
        <ele>149.8</ele>
        <time>2012-04-01T08:38:28Z</time>
      </trkpt>
      <trkpt lat="46.98633" lon="-0.7622">
        <ele>149.6</ele>
        <time>2012-04-01T08:38:29Z</time>
      </trkpt>
      <trkpt lat="46.98639" lon="-0.76222">
        <ele>149.3</ele>
        <time>2012-04-01T08:38:30Z</time>
      </trkpt>
      <trkpt lat="46.98644" lon="-0.76224">
        <ele>149.3</ele>
        <time>2012-04-01T08:38:31Z</time>
      </trkpt>
      <trkpt lat="46.9865" lon="-0.76225">
        <ele>149.1</ele>
        <time>2012-04-01T08:38:32Z</time>
      </trkpt>
      <trkpt lat="46.98655" lon="-0.76227">
        <ele>149</ele>
        <time>2012-04-01T08:38:33Z</time>
      </trkpt>
      <trkpt lat="46.9866" lon="-0.76229">
        <ele>148.8</ele>
        <time>2012-04-01T08:38:34Z</time>
      </trkpt>
      <trkpt lat="46.98665" lon="-0.7623">
        <ele>148.8</ele>
        <time>2012-04-01T08:38:35Z</time>
      </trkpt>
      <trkpt lat="46.9867" lon="-0.76232">
        <ele>148.8</ele>
        <time>2012-04-01T08:38:36Z</time>
      </trkpt>
      <trkpt lat="46.98675" lon="-0.76234">
        <ele>148.6</ele>
        <time>2012-04-01T08:38:37Z</time>
      </trkpt>
      <trkpt lat="46.98679" lon="-0.76237">
        <ele>148.6</ele>
        <time>2012-04-01T08:38:38Z</time>
      </trkpt>
      <trkpt lat="46.98684" lon="-0.7624">
        <ele>148.6</ele>
        <time>2012-04-01T08:38:39Z</time>
      </trkpt>
      <trkpt lat="46.98688" lon="-0.76242">
        <ele>148.6</ele>
        <time>2012-04-01T08:38:40Z</time>
      </trkpt>
      <trkpt lat="46.98693" lon="-0.76245">
        <ele>148.5</ele>
        <time>2012-04-01T08:38:41Z</time>
      </trkpt>
      <trkpt lat="46.98698" lon="-0.76248">
        <ele>148.5</ele>
        <time>2012-04-01T08:38:42Z</time>
      </trkpt>
      <trkpt lat="46.98703" lon="-0.76251">
        <ele>148.3</ele>
        <time>2012-04-01T08:38:43Z</time>
      </trkpt>
      <trkpt lat="46.98708" lon="-0.76254">
        <ele>148.3</ele>
        <time>2012-04-01T08:38:44Z</time>
      </trkpt>
      <trkpt lat="46.98713" lon="-0.76256">
        <ele>148.3</ele>
        <time>2012-04-01T08:38:45Z</time>
      </trkpt>
      <trkpt lat="46.98718" lon="-0.76258">
        <ele>148.1</ele>
        <time>2012-04-01T08:38:46Z</time>
      </trkpt>
      <trkpt lat="46.98724" lon="-0.76259">
        <ele>148.1</ele>
        <time>2012-04-01T08:38:47Z</time>
      </trkpt>
      <trkpt lat="46.9873" lon="-0.76258">
        <ele>148.1</ele>
        <time>2012-04-01T08:38:48Z</time>
      </trkpt>
      <trkpt lat="46.98735" lon="-0.76257">
        <ele>148.1</ele>
        <time>2012-04-01T08:38:49Z</time>
      </trkpt>
      <trkpt lat="46.98741" lon="-0.76256">
        <ele>148</ele>
        <time>2012-04-01T08:38:50Z</time>
      </trkpt>
      <trkpt lat="46.98747" lon="-0.76255">
        <ele>147.8</ele>
        <time>2012-04-01T08:38:51Z</time>
      </trkpt>
      <trkpt lat="46.98752" lon="-0.76254">
        <ele>147.8</ele>
        <time>2012-04-01T08:38:52Z</time>
      </trkpt>
      <trkpt lat="46.98757" lon="-0.76253">
        <ele>147.8</ele>
        <time>2012-04-01T08:38:53Z</time>
      </trkpt>
      <trkpt lat="46.98762" lon="-0.76252">
        <ele>147.6</ele>
        <time>2012-04-01T08:38:54Z</time>
      </trkpt>
      <trkpt lat="46.98767" lon="-0.76251">
        <ele>147.6</ele>
        <time>2012-04-01T08:38:55Z</time>
      </trkpt>
      <trkpt lat="46.98773" lon="-0.7625">
        <ele>147.3</ele>
        <time>2012-04-01T08:38:56Z</time>
      </trkpt>
      <trkpt lat="46.98779" lon="-0.76249">
        <ele>147.1</ele>
        <time>2012-04-01T08:38:57Z</time>
      </trkpt>
      <trkpt lat="46.98785" lon="-0.76248">
        <ele>146.8</ele>
        <time>2012-04-01T08:38:58Z</time>
      </trkpt>
      <trkpt lat="46.98792" lon="-0.76246">
        <ele>146.6</ele>
        <time>2012-04-01T08:38:59Z</time>
      </trkpt>
      <trkpt lat="46.98799" lon="-0.76244">
        <ele>146.1</ele>
        <time>2012-04-01T08:39:00Z</time>
      </trkpt>
      <trkpt lat="46.98806" lon="-0.76241">
        <ele>145.8</ele>
        <time>2012-04-01T08:39:01Z</time>
      </trkpt>
      <trkpt lat="46.98813" lon="-0.76238">
        <ele>145.3</ele>
        <time>2012-04-01T08:39:02Z</time>
      </trkpt>
      <trkpt lat="46.98821" lon="-0.76234">
        <ele>144.8</ele>
        <time>2012-04-01T08:39:03Z</time>
      </trkpt>
      <trkpt lat="46.98829" lon="-0.76229">
        <ele>144.3</ele>
        <time>2012-04-01T08:39:04Z</time>
      </trkpt>
      <trkpt lat="46.98838" lon="-0.76221">
        <ele>144.1</ele>
        <time>2012-04-01T08:39:05Z</time>
      </trkpt>
      <trkpt lat="46.98846" lon="-0.76212">
        <ele>143.6</ele>
        <time>2012-04-01T08:39:06Z</time>
      </trkpt>
      <trkpt lat="46.98854" lon="-0.76204">
        <ele>143.1</ele>
        <time>2012-04-01T08:39:07Z</time>
      </trkpt>
      <trkpt lat="46.98862" lon="-0.76195">
        <ele>142.6</ele>
        <time>2012-04-01T08:39:08Z</time>
      </trkpt>
      <trkpt lat="46.98869" lon="-0.76187">
        <ele>141.8</ele>
        <time>2012-04-01T08:39:09Z</time>
      </trkpt>
      <trkpt lat="46.98875" lon="-0.7618">
        <ele>141.3</ele>
        <time>2012-04-01T08:39:10Z</time>
      </trkpt>
      <trkpt lat="46.9888" lon="-0.76175">
        <ele>140.6</ele>
        <time>2012-04-01T08:39:11Z</time>
      </trkpt>
      <trkpt lat="46.98887" lon="-0.76169">
        <ele>140.1</ele>
        <time>2012-04-01T08:39:13Z</time>
      </trkpt>
      <trkpt lat="46.98894" lon="-0.76162">
        <ele>139.8</ele>
        <time>2012-04-01T08:39:17Z</time>
      </trkpt>
      <trkpt lat="46.98895" lon="-0.76149">
        <ele>139.5</ele>
        <time>2012-04-01T08:39:21Z</time>
      </trkpt>
      <trkpt lat="46.98894" lon="-0.76138">
        <ele>139.3</ele>
        <time>2012-04-01T08:39:24Z</time>
      </trkpt>
      <trkpt lat="46.98896" lon="-0.76126">
        <ele>139</ele>
        <time>2012-04-01T08:39:27Z</time>
      </trkpt>
      <trkpt lat="46.98897" lon="-0.76116">
        <ele>138.6</ele>
        <time>2012-04-01T08:39:30Z</time>
      </trkpt>
      <trkpt lat="46.989" lon="-0.76105">
        <ele>138.1</ele>
        <time>2012-04-01T08:39:34Z</time>
      </trkpt>
      <trkpt lat="46.98903" lon="-0.76095">
        <ele>137.6</ele>
        <time>2012-04-01T08:39:38Z</time>
      </trkpt>
      <trkpt lat="46.98906" lon="-0.76085">
        <ele>137.3</ele>
        <time>2012-04-01T08:39:42Z</time>
      </trkpt>
      <trkpt lat="46.98906" lon="-0.76082">
        <ele>137.3</ele>
        <time>2012-04-01T08:39:43Z</time>
      </trkpt>
      <trkpt lat="46.98912" lon="-0.76065">
        <ele>136.8</ele>
        <time>2012-04-01T08:39:50Z</time>
      </trkpt>
      <trkpt lat="46.98916" lon="-0.76055">
        <ele>136.8</ele>
        <time>2012-04-01T08:39:54Z</time>
      </trkpt>
      <trkpt lat="46.98919" lon="-0.76045">
        <ele>136.8</ele>
        <time>2012-04-01T08:39:58Z</time>
      </trkpt>
      <trkpt lat="46.98924" lon="-0.76035">
        <ele>137.1</ele>
        <time>2012-04-01T08:40:03Z</time>
      </trkpt>
      <trkpt lat="46.98929" lon="-0.76025">
        <ele>137.1</ele>
        <time>2012-04-01T08:40:08Z</time>
      </trkpt>
      <trkpt lat="46.98934" lon="-0.76015">
        <ele>137.3</ele>
        <time>2012-04-01T08:40:13Z</time>
      </trkpt>
      <trkpt lat="46.98937" lon="-0.76005">
        <ele>137.5</ele>
        <time>2012-04-01T08:40:17Z</time>
      </trkpt>
      <trkpt lat="46.98942" lon="-0.75995">
        <ele>137.6</ele>
        <time>2012-04-01T08:40:21Z</time>
      </trkpt>
      <trkpt lat="46.98946" lon="-0.75983">
        <ele>137.8</ele>
        <time>2012-04-01T08:40:25Z</time>
      </trkpt>
      <trkpt lat="46.98949" lon="-0.75973">
        <ele>137.8</ele>
        <time>2012-04-01T08:40:29Z</time>
      </trkpt>
      <trkpt lat="46.98953" lon="-0.75963">
        <ele>138.1</ele>
        <time>2012-04-01T08:40:33Z</time>
      </trkpt>
      <trkpt lat="46.98956" lon="-0.75952">
        <ele>138.3</ele>
        <time>2012-04-01T08:40:37Z</time>
      </trkpt>
      <trkpt lat="46.9896" lon="-0.75943">
        <ele>138.5</ele>
        <time>2012-04-01T08:40:41Z</time>
      </trkpt>
      <trkpt lat="46.98965" lon="-0.75934">
        <ele>138.8</ele>
        <time>2012-04-01T08:40:45Z</time>
      </trkpt>
      <trkpt lat="46.98966" lon="-0.75931">
        <ele>138.8</ele>
        <time>2012-04-01T08:40:46Z</time>
      </trkpt>
      <trkpt lat="46.98974" lon="-0.75916">
        <ele>139.5</ele>
        <time>2012-04-01T08:40:53Z</time>
      </trkpt>
      <trkpt lat="46.98979" lon="-0.75906">
        <ele>139.8</ele>
        <time>2012-04-01T08:40:57Z</time>
      </trkpt>
      <trkpt lat="46.98984" lon="-0.75898">
        <ele>140.3</ele>
        <time>2012-04-01T08:41:01Z</time>
      </trkpt>
      <trkpt lat="46.98991" lon="-0.75891">
        <ele>140.8</ele>
        <time>2012-04-01T08:41:06Z</time>
      </trkpt>
      <trkpt lat="46.98997" lon="-0.75886">
        <ele>141.3</ele>
        <time>2012-04-01T08:41:10Z</time>
      </trkpt>
      <trkpt lat="46.99004" lon="-0.75881">
        <ele>141.8</ele>
        <time>2012-04-01T08:41:14Z</time>
      </trkpt>
      <trkpt lat="46.9901" lon="-0.75873">
        <ele>142.1</ele>
        <time>2012-04-01T08:41:18Z</time>
      </trkpt>
      <trkpt lat="46.99016" lon="-0.75867">
        <ele>142.6</ele>
        <time>2012-04-01T08:41:21Z</time>
      </trkpt>
      <trkpt lat="46.99022" lon="-0.7586">
        <ele>142.8</ele>
        <time>2012-04-01T08:41:24Z</time>
      </trkpt>
      <trkpt lat="46.99028" lon="-0.75853">
        <ele>143.3</ele>
        <time>2012-04-01T08:41:27Z</time>
      </trkpt>
      <trkpt lat="46.99034" lon="-0.75847">
        <ele>143.6</ele>
        <time>2012-04-01T08:41:30Z</time>
      </trkpt>
      <trkpt lat="46.9904" lon="-0.7584">
        <ele>144.1</ele>
        <time>2012-04-01T08:41:33Z</time>
      </trkpt>
      <trkpt lat="46.99047" lon="-0.75832">
        <ele>144.3</ele>
        <time>2012-04-01T08:41:36Z</time>
      </trkpt>
      <trkpt lat="46.99053" lon="-0.75823">
        <ele>144.8</ele>
        <time>2012-04-01T08:41:39Z</time>
      </trkpt>
      <trkpt lat="46.99058" lon="-0.75817">
        <ele>145</ele>
        <time>2012-04-01T08:41:41Z</time>
      </trkpt>
      <trkpt lat="46.99062" lon="-0.7581">
        <ele>145.1</ele>
        <time>2012-04-01T08:41:43Z</time>
      </trkpt>
      <trkpt lat="46.99067" lon="-0.75804">
        <ele>145.5</ele>
        <time>2012-04-01T08:41:45Z</time>
      </trkpt>
      <trkpt lat="46.99071" lon="-0.75797">
        <ele>145.6</ele>
        <time>2012-04-01T08:41:47Z</time>
      </trkpt>
      <trkpt lat="46.99074" lon="-0.75794">
        <ele>145.8</ele>
        <time>2012-04-01T08:41:48Z</time>
      </trkpt>
      <trkpt lat="46.99082" lon="-0.75783">
        <ele>146.1</ele>
        <time>2012-04-01T08:41:51Z</time>
      </trkpt>
      <trkpt lat="46.99088" lon="-0.75776">
        <ele>146.3</ele>
        <time>2012-04-01T08:41:53Z</time>
      </trkpt>
      <trkpt lat="46.99095" lon="-0.7577">
        <ele>147.1</ele>
        <time>2012-04-01T08:41:55Z</time>
      </trkpt>
      <trkpt lat="46.99101" lon="-0.75763">
        <ele>148.5</ele>
        <time>2012-04-01T08:41:57Z</time>
      </trkpt>
      <trkpt lat="46.99107" lon="-0.75756">
        <ele>149.3</ele>
        <time>2012-04-01T08:41:59Z</time>
      </trkpt>
      <trkpt lat="46.99114" lon="-0.7575">
        <ele>149.8</ele>
        <time>2012-04-01T08:42:01Z</time>
      </trkpt>
      <trkpt lat="46.99121" lon="-0.75744">
        <ele>150.1</ele>
        <time>2012-04-01T08:42:03Z</time>
      </trkpt>
      <trkpt lat="46.99128" lon="-0.75738">
        <ele>150.3</ele>
        <time>2012-04-01T08:42:05Z</time>
      </trkpt>
      <trkpt lat="46.99135" lon="-0.75732">
        <ele>150.3</ele>
        <time>2012-04-01T08:42:07Z</time>
      </trkpt>
      <trkpt lat="46.99142" lon="-0.75725">
        <ele>150.1</ele>
        <time>2012-04-01T08:42:09Z</time>
      </trkpt>
      <trkpt lat="46.99149" lon="-0.75718">
        <ele>150.1</ele>
        <time>2012-04-01T08:42:11Z</time>
      </trkpt>
      <trkpt lat="46.99156" lon="-0.75711">
        <ele>150</ele>
        <time>2012-04-01T08:42:13Z</time>
      </trkpt>
      <trkpt lat="46.99164" lon="-0.75705">
        <ele>149.6</ele>
        <time>2012-04-01T08:42:15Z</time>
      </trkpt>
      <trkpt lat="46.99168" lon="-0.75702">
        <ele>149.6</ele>
        <time>2012-04-01T08:42:16Z</time>
      </trkpt>
      <trkpt lat="46.99172" lon="-0.75699">
        <ele>149.6</ele>
        <time>2012-04-01T08:42:17Z</time>
      </trkpt>
      <trkpt lat="46.99176" lon="-0.75696">
        <ele>149.6</ele>
        <time>2012-04-01T08:42:18Z</time>
      </trkpt>
      <trkpt lat="46.9918" lon="-0.75693">
        <ele>149.5</ele>
        <time>2012-04-01T08:42:19Z</time>
      </trkpt>
      <trkpt lat="46.99185" lon="-0.7569">
        <ele>149.5</ele>
        <time>2012-04-01T08:42:20Z</time>
      </trkpt>
      <trkpt lat="46.99189" lon="-0.75688">
        <ele>149.5</ele>
        <time>2012-04-01T08:42:21Z</time>
      </trkpt>
      <trkpt lat="46.99193" lon="-0.75685">
        <ele>149.5</ele>
        <time>2012-04-01T08:42:22Z</time>
      </trkpt>
      <trkpt lat="46.99197" lon="-0.75681">
        <ele>149.5</ele>
        <time>2012-04-01T08:42:23Z</time>
      </trkpt>
      <trkpt lat="46.99205" lon="-0.75676">
        <ele>149.3</ele>
        <time>2012-04-01T08:42:25Z</time>
      </trkpt>
      <trkpt lat="46.99212" lon="-0.75672">
        <ele>149.3</ele>
        <time>2012-04-01T08:42:27Z</time>
      </trkpt>
      <trkpt lat="46.99219" lon="-0.75667">
        <ele>149.3</ele>
        <time>2012-04-01T08:42:33Z</time>
      </trkpt>
      <trkpt lat="46.99224" lon="-0.75666">
        <ele>149.3</ele>
        <time>2012-04-01T08:43:49Z</time>
      </trkpt>
      <trkpt lat="46.99229" lon="-0.75663">
        <ele>149.5</ele>
        <time>2012-04-01T08:43:50Z</time>
      </trkpt>
      <trkpt lat="46.99239" lon="-0.7566">
        <ele>149.5</ele>
        <time>2012-04-01T08:43:55Z</time>
      </trkpt>
      <trkpt lat="46.99247" lon="-0.75658">
        <ele>149.6</ele>
        <time>2012-04-01T08:43:58Z</time>
      </trkpt>
      <trkpt lat="46.99253" lon="-0.75654">
        <ele>149.6</ele>
        <time>2012-04-01T08:44:00Z</time>
      </trkpt>
      <trkpt lat="46.9926" lon="-0.75651">
        <ele>149.6</ele>
        <time>2012-04-01T08:44:02Z</time>
      </trkpt>
      <trkpt lat="46.99266" lon="-0.75647">
        <ele>149.6</ele>
        <time>2012-04-01T08:44:04Z</time>
      </trkpt>
      <trkpt lat="46.99273" lon="-0.75642">
        <ele>149.6</ele>
        <time>2012-04-01T08:44:06Z</time>
      </trkpt>
      <trkpt lat="46.9928" lon="-0.75637">
        <ele>149.6</ele>
        <time>2012-04-01T08:44:08Z</time>
      </trkpt>
      <trkpt lat="46.99288" lon="-0.7563">
        <ele>149.3</ele>
        <time>2012-04-01T08:44:10Z</time>
      </trkpt>
      <trkpt lat="46.99292" lon="-0.75626">
        <ele>149.1</ele>
        <time>2012-04-01T08:44:11Z</time>
      </trkpt>
      <trkpt lat="46.99295" lon="-0.75621">
        <ele>149.1</ele>
        <time>2012-04-01T08:44:12Z</time>
      </trkpt>
      <trkpt lat="46.99298" lon="-0.75616">
        <ele>149</ele>
        <time>2012-04-01T08:44:13Z</time>
      </trkpt>
      <trkpt lat="46.993" lon="-0.75609">
        <ele>149</ele>
        <time>2012-04-01T08:44:14Z</time>
      </trkpt>
      <trkpt lat="46.99302" lon="-0.75603">
        <ele>148.8</ele>
        <time>2012-04-01T08:44:15Z</time>
      </trkpt>
      <trkpt lat="46.99304" lon="-0.75596">
        <ele>148.8</ele>
        <time>2012-04-01T08:44:16Z</time>
      </trkpt>
      <trkpt lat="46.99305" lon="-0.75583">
        <ele>148.8</ele>
        <time>2012-04-01T08:44:18Z</time>
      </trkpt>
      <trkpt lat="46.99306" lon="-0.75572">
        <ele>148.8</ele>
        <time>2012-04-01T08:44:20Z</time>
      </trkpt>
      <trkpt lat="46.99307" lon="-0.75563">
        <ele>148.8</ele>
        <time>2012-04-01T08:44:22Z</time>
      </trkpt>
      <trkpt lat="46.99307" lon="-0.75553">
        <ele>148.8</ele>
        <time>2012-04-01T08:44:24Z</time>
      </trkpt>
      <trkpt lat="46.99306" lon="-0.75544">
        <ele>148.8</ele>
        <time>2012-04-01T08:44:26Z</time>
      </trkpt>
      <trkpt lat="46.99303" lon="-0.75535">
        <ele>148.8</ele>
        <time>2012-04-01T08:44:28Z</time>
      </trkpt>
      <trkpt lat="46.99301" lon="-0.75526">
        <ele>148.8</ele>
        <time>2012-04-01T08:44:30Z</time>
      </trkpt>
      <trkpt lat="46.993" lon="-0.75514">
        <ele>148.8</ele>
        <time>2012-04-01T08:44:33Z</time>
      </trkpt>
      <trkpt lat="46.99298" lon="-0.75502">
        <ele>148.8</ele>
        <time>2012-04-01T08:44:36Z</time>
      </trkpt>
      <trkpt lat="46.99297" lon="-0.7549">
        <ele>149</ele>
        <time>2012-04-01T08:44:38Z</time>
      </trkpt>
      <trkpt lat="46.99296" lon="-0.75483">
        <ele>149.1</ele>
        <time>2012-04-01T08:44:39Z</time>
      </trkpt>
      <trkpt lat="46.99295" lon="-0.75476">
        <ele>149.1</ele>
        <time>2012-04-01T08:44:40Z</time>
      </trkpt>
      <trkpt lat="46.99294" lon="-0.75469">
        <ele>149.1</ele>
        <time>2012-04-01T08:44:41Z</time>
      </trkpt>
      <trkpt lat="46.99293" lon="-0.75462">
        <ele>149.1</ele>
        <time>2012-04-01T08:44:42Z</time>
      </trkpt>
      <trkpt lat="46.99292" lon="-0.75454">
        <ele>149.1</ele>
        <time>2012-04-01T08:44:43Z</time>
      </trkpt>
      <trkpt lat="46.99292" lon="-0.75447">
        <ele>149.1</ele>
        <time>2012-04-01T08:44:44Z</time>
      </trkpt>
      <trkpt lat="46.99291" lon="-0.75439">
        <ele>149.1</ele>
        <time>2012-04-01T08:44:45Z</time>
      </trkpt>
      <trkpt lat="46.99291" lon="-0.7543">
        <ele>149.1</ele>
        <time>2012-04-01T08:44:46Z</time>
      </trkpt>
      <trkpt lat="46.99291" lon="-0.75422">
        <ele>149</ele>
        <time>2012-04-01T08:44:47Z</time>
      </trkpt>
      <trkpt lat="46.99292" lon="-0.75414">
        <ele>148.8</ele>
        <time>2012-04-01T08:44:48Z</time>
      </trkpt>
      <trkpt lat="46.99294" lon="-0.75406">
        <ele>148.8</ele>
        <time>2012-04-01T08:44:49Z</time>
      </trkpt>
      <trkpt lat="46.99295" lon="-0.75398">
        <ele>148.6</ele>
        <time>2012-04-01T08:44:50Z</time>
      </trkpt>
      <trkpt lat="46.99296" lon="-0.75391">
        <ele>148.6</ele>
        <time>2012-04-01T08:44:51Z</time>
      </trkpt>
      <trkpt lat="46.99298" lon="-0.75384">
        <ele>148.6</ele>
        <time>2012-04-01T08:44:52Z</time>
      </trkpt>
      <trkpt lat="46.99298" lon="-0.75377">
        <ele>148.6</ele>
        <time>2012-04-01T08:44:53Z</time>
      </trkpt>
      <trkpt lat="46.99299" lon="-0.7537">
        <ele>148.6</ele>
        <time>2012-04-01T08:44:54Z</time>
      </trkpt>
      <trkpt lat="46.99299" lon="-0.75363">
        <ele>148.6</ele>
        <time>2012-04-01T08:44:55Z</time>
      </trkpt>
      <trkpt lat="46.99299" lon="-0.75356">
        <ele>148.6</ele>
        <time>2012-04-01T08:44:56Z</time>
      </trkpt>
      <trkpt lat="46.99299" lon="-0.75349">
        <ele>148.6</ele>
        <time>2012-04-01T08:44:57Z</time>
      </trkpt>
      <trkpt lat="46.99298" lon="-0.75336">
        <ele>148.8</ele>
        <time>2012-04-01T08:44:59Z</time>
      </trkpt>
      <trkpt lat="46.99296" lon="-0.75324">
        <ele>148.8</ele>
        <time>2012-04-01T08:45:01Z</time>
      </trkpt>
      <trkpt lat="46.99295" lon="-0.75312">
        <ele>149.1</ele>
        <time>2012-04-01T08:45:03Z</time>
      </trkpt>
      <trkpt lat="46.99294" lon="-0.753">
        <ele>149.1</ele>
        <time>2012-04-01T08:45:05Z</time>
      </trkpt>
      <trkpt lat="46.99292" lon="-0.75288">
        <ele>149.3</ele>
        <time>2012-04-01T08:45:07Z</time>
      </trkpt>
      <trkpt lat="46.99291" lon="-0.75276">
        <ele>149.5</ele>
        <time>2012-04-01T08:45:09Z</time>
      </trkpt>
      <trkpt lat="46.9929" lon="-0.75265">
        <ele>149.6</ele>
        <time>2012-04-01T08:45:11Z</time>
      </trkpt>
      <trkpt lat="46.99288" lon="-0.75253">
        <ele>149.8</ele>
        <time>2012-04-01T08:45:13Z</time>
      </trkpt>
      <trkpt lat="46.99287" lon="-0.75243">
        <ele>149.8</ele>
        <time>2012-04-01T08:45:15Z</time>
      </trkpt>
      <trkpt lat="46.99286" lon="-0.75232">
        <ele>149.8</ele>
        <time>2012-04-01T08:45:17Z</time>
      </trkpt>
      <trkpt lat="46.99285" lon="-0.75221">
        <ele>149.8</ele>
        <time>2012-04-01T08:45:19Z</time>
      </trkpt>
      <trkpt lat="46.99284" lon="-0.7521">
        <ele>150.3</ele>
        <time>2012-04-01T08:45:21Z</time>
      </trkpt>
      <trkpt lat="46.99283" lon="-0.75199">
        <ele>150.3</ele>
        <time>2012-04-01T08:45:23Z</time>
      </trkpt>
      <trkpt lat="46.99282" lon="-0.75188">
        <ele>150.3</ele>
        <time>2012-04-01T08:45:25Z</time>
      </trkpt>
      <trkpt lat="46.99281" lon="-0.75178">
        <ele>150.5</ele>
        <time>2012-04-01T08:45:27Z</time>
      </trkpt>
      <trkpt lat="46.99281" lon="-0.75167">
        <ele>150.5</ele>
        <time>2012-04-01T08:45:29Z</time>
      </trkpt>
      <trkpt lat="46.9928" lon="-0.75156">
        <ele>150.5</ele>
        <time>2012-04-01T08:45:31Z</time>
      </trkpt>
      <trkpt lat="46.9928" lon="-0.75145">
        <ele>150.5</ele>
        <time>2012-04-01T08:45:33Z</time>
      </trkpt>
      <trkpt lat="46.99279" lon="-0.75134">
        <ele>150.6</ele>
        <time>2012-04-01T08:45:35Z</time>
      </trkpt>
      <trkpt lat="46.99279" lon="-0.75123">
        <ele>151.1</ele>
        <time>2012-04-01T08:45:37Z</time>
      </trkpt>
      <trkpt lat="46.99279" lon="-0.7511">
        <ele>151.6</ele>
        <time>2012-04-01T08:45:39Z</time>
      </trkpt>
      <trkpt lat="46.99279" lon="-0.75098">
        <ele>152.3</ele>
        <time>2012-04-01T08:45:41Z</time>
      </trkpt>
      <trkpt lat="46.99278" lon="-0.75085">
        <ele>153.1</ele>
        <time>2012-04-01T08:45:43Z</time>
      </trkpt>
      <trkpt lat="46.99277" lon="-0.75072">
        <ele>153.8</ele>
        <time>2012-04-01T08:45:45Z</time>
      </trkpt>
      <trkpt lat="46.99275" lon="-0.7506">
        <ele>154.3</ele>
        <time>2012-04-01T08:45:47Z</time>
      </trkpt>
      <trkpt lat="46.99271" lon="-0.75048">
        <ele>154.8</ele>
        <time>2012-04-01T08:45:49Z</time>
      </trkpt>
      <trkpt lat="46.99269" lon="-0.75042">
        <ele>155.1</ele>
        <time>2012-04-01T08:45:50Z</time>
      </trkpt>
      <trkpt lat="46.99264" lon="-0.75032">
        <ele>155.5</ele>
        <time>2012-04-01T08:45:52Z</time>
      </trkpt>
      <trkpt lat="46.99261" lon="-0.75027">
        <ele>155.6</ele>
        <time>2012-04-01T08:45:53Z</time>
      </trkpt>
      <trkpt lat="46.99254" lon="-0.75012">
        <ele>156.1</ele>
        <time>2012-04-01T08:45:56Z</time>
      </trkpt>
      <trkpt lat="46.99249" lon="-0.75002">
        <ele>156.3</ele>
        <time>2012-04-01T08:45:58Z</time>
      </trkpt>
      <trkpt lat="46.99244" lon="-0.74991">
        <ele>156.6</ele>
        <time>2012-04-01T08:46:00Z</time>
      </trkpt>
      <trkpt lat="46.99239" lon="-0.7498">
        <ele>157</ele>
        <time>2012-04-01T08:46:02Z</time>
      </trkpt>
      <trkpt lat="46.99237" lon="-0.74975">
        <ele>157.1</ele>
        <time>2012-04-01T08:46:03Z</time>
      </trkpt>
      <trkpt lat="46.99234" lon="-0.74969">
        <ele>157.1</ele>
        <time>2012-04-01T08:46:04Z</time>
      </trkpt>
      <trkpt lat="46.99232" lon="-0.74963">
        <ele>157.3</ele>
        <time>2012-04-01T08:46:05Z</time>
      </trkpt>
      <trkpt lat="46.99229" lon="-0.74958">
        <ele>157.3</ele>
        <time>2012-04-01T08:46:06Z</time>
      </trkpt>
      <trkpt lat="46.99226" lon="-0.74952">
        <ele>157.5</ele>
        <time>2012-04-01T08:46:07Z</time>
      </trkpt>
      <trkpt lat="46.99224" lon="-0.74945">
        <ele>157.6</ele>
        <time>2012-04-01T08:46:08Z</time>
      </trkpt>
      <trkpt lat="46.99221" lon="-0.74939">
        <ele>157.6</ele>
        <time>2012-04-01T08:46:09Z</time>
      </trkpt>
      <trkpt lat="46.99218" lon="-0.74932">
        <ele>157.6</ele>
        <time>2012-04-01T08:46:10Z</time>
      </trkpt>
      <trkpt lat="46.99215" lon="-0.74926">
        <ele>157.6</ele>
        <time>2012-04-01T08:46:11Z</time>
      </trkpt>
      <trkpt lat="46.99213" lon="-0.74919">
        <ele>157.6</ele>
        <time>2012-04-01T08:46:12Z</time>
      </trkpt>
      <trkpt lat="46.99211" lon="-0.74913">
        <ele>157.6</ele>
        <time>2012-04-01T08:46:13Z</time>
      </trkpt>
      <trkpt lat="46.99208" lon="-0.74906">
        <ele>157.6</ele>
        <time>2012-04-01T08:46:14Z</time>
      </trkpt>
      <trkpt lat="46.99206" lon="-0.749">
        <ele>157.6</ele>
        <time>2012-04-01T08:46:15Z</time>
      </trkpt>
      <trkpt lat="46.99204" lon="-0.74894">
        <ele>157.6</ele>
        <time>2012-04-01T08:46:16Z</time>
      </trkpt>
      <trkpt lat="46.99201" lon="-0.74887">
        <ele>157.6</ele>
        <time>2012-04-01T08:46:17Z</time>
      </trkpt>
      <trkpt lat="46.99198" lon="-0.74881">
        <ele>157.6</ele>
        <time>2012-04-01T08:46:18Z</time>
      </trkpt>
      <trkpt lat="46.99196" lon="-0.74874">
        <ele>157.6</ele>
        <time>2012-04-01T08:46:19Z</time>
      </trkpt>
      <trkpt lat="46.99193" lon="-0.74867">
        <ele>157.6</ele>
        <time>2012-04-01T08:46:20Z</time>
      </trkpt>
      <trkpt lat="46.9919" lon="-0.7486">
        <ele>157.6</ele>
        <time>2012-04-01T08:46:21Z</time>
      </trkpt>
      <trkpt lat="46.99187" lon="-0.74853">
        <ele>157.6</ele>
        <time>2012-04-01T08:46:22Z</time>
      </trkpt>
      <trkpt lat="46.99185" lon="-0.74846">
        <ele>157.6</ele>
        <time>2012-04-01T08:46:23Z</time>
      </trkpt>
      <trkpt lat="46.99182" lon="-0.74839">
        <ele>157.6</ele>
        <time>2012-04-01T08:46:24Z</time>
      </trkpt>
      <trkpt lat="46.99179" lon="-0.74832">
        <ele>157.6</ele>
        <time>2012-04-01T08:46:25Z</time>
      </trkpt>
      <trkpt lat="46.99176" lon="-0.74825">
        <ele>157.5</ele>
        <time>2012-04-01T08:46:26Z</time>
      </trkpt>
      <trkpt lat="46.99173" lon="-0.74818">
        <ele>157.5</ele>
        <time>2012-04-01T08:46:27Z</time>
      </trkpt>
      <trkpt lat="46.9917" lon="-0.7481">
        <ele>157.3</ele>
        <time>2012-04-01T08:46:28Z</time>
      </trkpt>
      <trkpt lat="46.99167" lon="-0.74803">
        <ele>157.3</ele>
        <time>2012-04-01T08:46:29Z</time>
      </trkpt>
      <trkpt lat="46.99163" lon="-0.74796">
        <ele>157.3</ele>
        <time>2012-04-01T08:46:30Z</time>
      </trkpt>
      <trkpt lat="46.9916" lon="-0.74789">
        <ele>157.3</ele>
        <time>2012-04-01T08:46:31Z</time>
      </trkpt>
      <trkpt lat="46.99156" lon="-0.74781">
        <ele>157.3</ele>
        <time>2012-04-01T08:46:32Z</time>
      </trkpt>
      <trkpt lat="46.99153" lon="-0.74774">
        <ele>157.3</ele>
        <time>2012-04-01T08:46:33Z</time>
      </trkpt>
      <trkpt lat="46.9915" lon="-0.74767">
        <ele>157.3</ele>
        <time>2012-04-01T08:46:34Z</time>
      </trkpt>
      <trkpt lat="46.99146" lon="-0.7476">
        <ele>157.3</ele>
        <time>2012-04-01T08:46:35Z</time>
      </trkpt>
      <trkpt lat="46.99142" lon="-0.74753">
        <ele>157.3</ele>
        <time>2012-04-01T08:46:36Z</time>
      </trkpt>
      <trkpt lat="46.99138" lon="-0.74746">
        <ele>157.1</ele>
        <time>2012-04-01T08:46:37Z</time>
      </trkpt>
      <trkpt lat="46.99134" lon="-0.74738">
        <ele>157.1</ele>
        <time>2012-04-01T08:46:38Z</time>
      </trkpt>
      <trkpt lat="46.99129" lon="-0.74731">
        <ele>157.1</ele>
        <time>2012-04-01T08:46:39Z</time>
      </trkpt>
      <trkpt lat="46.99124" lon="-0.74723">
        <ele>156.8</ele>
        <time>2012-04-01T08:46:40Z</time>
      </trkpt>
      <trkpt lat="46.99119" lon="-0.74715">
        <ele>156.8</ele>
        <time>2012-04-01T08:46:41Z</time>
      </trkpt>
      <trkpt lat="46.99113" lon="-0.74707">
        <ele>156.6</ele>
        <time>2012-04-01T08:46:42Z</time>
      </trkpt>
      <trkpt lat="46.99108" lon="-0.74698">
        <ele>156.3</ele>
        <time>2012-04-01T08:46:43Z</time>
      </trkpt>
      <trkpt lat="46.99102" lon="-0.7469">
        <ele>156.1</ele>
        <time>2012-04-01T08:46:44Z</time>
      </trkpt>
      <trkpt lat="46.99096" lon="-0.74681">
        <ele>156</ele>
        <time>2012-04-01T08:46:45Z</time>
      </trkpt>
      <trkpt lat="46.9909" lon="-0.74672">
        <ele>155.8</ele>
        <time>2012-04-01T08:46:46Z</time>
      </trkpt>
      <trkpt lat="46.99083" lon="-0.74663">
        <ele>155.6</ele>
        <time>2012-04-01T08:46:47Z</time>
      </trkpt>
      <trkpt lat="46.99076" lon="-0.74654">
        <ele>155.5</ele>
        <time>2012-04-01T08:46:48Z</time>
      </trkpt>
      <trkpt lat="46.99069" lon="-0.74645">
        <ele>155.3</ele>
        <time>2012-04-01T08:46:49Z</time>
      </trkpt>
      <trkpt lat="46.99061" lon="-0.74637">
        <ele>155.1</ele>
        <time>2012-04-01T08:46:50Z</time>
      </trkpt>
      <trkpt lat="46.99053" lon="-0.74629">
        <ele>155.1</ele>
        <time>2012-04-01T08:46:51Z</time>
      </trkpt>
      <trkpt lat="46.99045" lon="-0.7462">
        <ele>154.8</ele>
        <time>2012-04-01T08:46:52Z</time>
      </trkpt>
      <trkpt lat="46.99037" lon="-0.74611">
        <ele>154.8</ele>
        <time>2012-04-01T08:46:53Z</time>
      </trkpt>
      <trkpt lat="46.9903" lon="-0.74601">
        <ele>154.6</ele>
        <time>2012-04-01T08:46:54Z</time>
      </trkpt>
      <trkpt lat="46.99025" lon="-0.7459">
        <ele>154.6</ele>
        <time>2012-04-01T08:46:55Z</time>
      </trkpt>
      <trkpt lat="46.9902" lon="-0.74579">
        <ele>154.5</ele>
        <time>2012-04-01T08:46:56Z</time>
      </trkpt>
      <trkpt lat="46.99017" lon="-0.74569">
        <ele>154.3</ele>
        <time>2012-04-01T08:46:57Z</time>
      </trkpt>
      <trkpt lat="46.99013" lon="-0.74558">
        <ele>154.1</ele>
        <time>2012-04-01T08:46:58Z</time>
      </trkpt>
      <trkpt lat="46.99011" lon="-0.74549">
        <ele>154.1</ele>
        <time>2012-04-01T08:46:59Z</time>
      </trkpt>
      <trkpt lat="46.99008" lon="-0.7454">
        <ele>153.8</ele>
        <time>2012-04-01T08:47:00Z</time>
      </trkpt>
      <trkpt lat="46.99006" lon="-0.74531">
        <ele>153.6</ele>
        <time>2012-04-01T08:47:01Z</time>
      </trkpt>
      <trkpt lat="46.99004" lon="-0.74523">
        <ele>153.5</ele>
        <time>2012-04-01T08:47:02Z</time>
      </trkpt>
      <trkpt lat="46.99002" lon="-0.74516">
        <ele>153.3</ele>
        <time>2012-04-01T08:47:03Z</time>
      </trkpt>
      <trkpt lat="46.99001" lon="-0.74508">
        <ele>153.1</ele>
        <time>2012-04-01T08:47:04Z</time>
      </trkpt>
      <trkpt lat="46.99002" lon="-0.74501">
        <ele>153</ele>
        <time>2012-04-01T08:47:05Z</time>
      </trkpt>
      <trkpt lat="46.99003" lon="-0.74495">
        <ele>152.8</ele>
        <time>2012-04-01T08:47:06Z</time>
      </trkpt>
      <trkpt lat="46.99006" lon="-0.74489">
        <ele>152.5</ele>
        <time>2012-04-01T08:47:07Z</time>
      </trkpt>
      <trkpt lat="46.99008" lon="-0.74483">
        <ele>152.3</ele>
        <time>2012-04-01T08:47:08Z</time>
      </trkpt>
      <trkpt lat="46.99011" lon="-0.74477">
        <ele>152.1</ele>
        <time>2012-04-01T08:47:09Z</time>
      </trkpt>
      <trkpt lat="46.99013" lon="-0.74471">
        <ele>152.1</ele>
        <time>2012-04-01T08:47:10Z</time>
      </trkpt>
      <trkpt lat="46.99014" lon="-0.74464">
        <ele>152</ele>
        <time>2012-04-01T08:47:11Z</time>
      </trkpt>
      <trkpt lat="46.99014" lon="-0.74457">
        <ele>152</ele>
        <time>2012-04-01T08:47:12Z</time>
      </trkpt>
      <trkpt lat="46.99014" lon="-0.7445">
        <ele>152</ele>
        <time>2012-04-01T08:47:13Z</time>
      </trkpt>
      <trkpt lat="46.99014" lon="-0.74444">
        <ele>152</ele>
        <time>2012-04-01T08:47:14Z</time>
      </trkpt>
      <trkpt lat="46.99014" lon="-0.7443">
        <ele>152</ele>
        <time>2012-04-01T08:47:16Z</time>
      </trkpt>
      <trkpt lat="46.99014" lon="-0.74418">
        <ele>151.8</ele>
        <time>2012-04-01T08:47:18Z</time>
      </trkpt>
      <trkpt lat="46.99014" lon="-0.74406">
        <ele>152</ele>
        <time>2012-04-01T08:47:20Z</time>
      </trkpt>
      <trkpt lat="46.99014" lon="-0.74395">
        <ele>152</ele>
        <time>2012-04-01T08:47:22Z</time>
      </trkpt>
      <trkpt lat="46.99014" lon="-0.74383">
        <ele>152</ele>
        <time>2012-04-01T08:47:24Z</time>
      </trkpt>
      <trkpt lat="46.99015" lon="-0.74376">
        <ele>152</ele>
        <time>2012-04-01T08:47:25Z</time>
      </trkpt>
      <trkpt lat="46.99015" lon="-0.7437">
        <ele>151.8</ele>
        <time>2012-04-01T08:47:26Z</time>
      </trkpt>
      <trkpt lat="46.99015" lon="-0.74362">
        <ele>151.8</ele>
        <time>2012-04-01T08:47:27Z</time>
      </trkpt>
      <trkpt lat="46.99015" lon="-0.74355">
        <ele>151.8</ele>
        <time>2012-04-01T08:47:28Z</time>
      </trkpt>
      <trkpt lat="46.99014" lon="-0.74347">
        <ele>151.8</ele>
        <time>2012-04-01T08:47:29Z</time>
      </trkpt>
      <trkpt lat="46.99011" lon="-0.7434">
        <ele>151.6</ele>
        <time>2012-04-01T08:47:30Z</time>
      </trkpt>
      <trkpt lat="46.99007" lon="-0.74335">
        <ele>151.6</ele>
        <time>2012-04-01T08:47:31Z</time>
      </trkpt>
      <trkpt lat="46.99002" lon="-0.74332">
        <ele>151.5</ele>
        <time>2012-04-01T08:47:32Z</time>
      </trkpt>
      <trkpt lat="46.98997" lon="-0.7433">
        <ele>151.3</ele>
        <time>2012-04-01T08:47:33Z</time>
      </trkpt>
      <trkpt lat="46.98992" lon="-0.74328">
        <ele>151.3</ele>
        <time>2012-04-01T08:47:34Z</time>
      </trkpt>
      <trkpt lat="46.98987" lon="-0.74327">
        <ele>151.1</ele>
        <time>2012-04-01T08:47:35Z</time>
      </trkpt>
      <trkpt lat="46.98982" lon="-0.74323">
        <ele>151.1</ele>
        <time>2012-04-01T08:47:36Z</time>
      </trkpt>
      <trkpt lat="46.98978" lon="-0.74319">
        <ele>151</ele>
        <time>2012-04-01T08:47:37Z</time>
      </trkpt>
      <trkpt lat="46.98974" lon="-0.74314">
        <ele>151</ele>
        <time>2012-04-01T08:47:38Z</time>
      </trkpt>
      <trkpt lat="46.98971" lon="-0.74308">
        <ele>151</ele>
        <time>2012-04-01T08:47:39Z</time>
      </trkpt>
      <trkpt lat="46.98968" lon="-0.74301">
        <ele>151</ele>
        <time>2012-04-01T08:47:40Z</time>
      </trkpt>
      <trkpt lat="46.98965" lon="-0.74295">
        <ele>151</ele>
        <time>2012-04-01T08:47:41Z</time>
      </trkpt>
      <trkpt lat="46.98963" lon="-0.74288">
        <ele>151</ele>
        <time>2012-04-01T08:47:42Z</time>
      </trkpt>
      <trkpt lat="46.9896" lon="-0.74281">
        <ele>151.1</ele>
        <time>2012-04-01T08:47:43Z</time>
      </trkpt>
      <trkpt lat="46.98957" lon="-0.74274">
        <ele>151.1</ele>
        <time>2012-04-01T08:47:44Z</time>
      </trkpt>
      <trkpt lat="46.98955" lon="-0.74267">
        <ele>151.1</ele>
        <time>2012-04-01T08:47:45Z</time>
      </trkpt>
      <trkpt lat="46.98952" lon="-0.7426">
        <ele>151.3</ele>
        <time>2012-04-01T08:47:46Z</time>
      </trkpt>
      <trkpt lat="46.9895" lon="-0.74254">
        <ele>151.3</ele>
        <time>2012-04-01T08:47:47Z</time>
      </trkpt>
      <trkpt lat="46.98948" lon="-0.74247">
        <ele>151.3</ele>
        <time>2012-04-01T08:47:48Z</time>
      </trkpt>
      <trkpt lat="46.98945" lon="-0.7424">
        <ele>151.5</ele>
        <time>2012-04-01T08:47:49Z</time>
      </trkpt>
      <trkpt lat="46.98943" lon="-0.74233">
        <ele>151.6</ele>
        <time>2012-04-01T08:47:50Z</time>
      </trkpt>
      <trkpt lat="46.9894" lon="-0.74227">
        <ele>151.6</ele>
        <time>2012-04-01T08:47:51Z</time>
      </trkpt>
      <trkpt lat="46.98938" lon="-0.7422">
        <ele>151.8</ele>
        <time>2012-04-01T08:47:52Z</time>
      </trkpt>
      <trkpt lat="46.98936" lon="-0.74213">
        <ele>151.8</ele>
        <time>2012-04-01T08:47:53Z</time>
      </trkpt>
      <trkpt lat="46.98933" lon="-0.74207">
        <ele>151.8</ele>
        <time>2012-04-01T08:47:54Z</time>
      </trkpt>
      <trkpt lat="46.9893" lon="-0.74201">
        <ele>151.8</ele>
        <time>2012-04-01T08:47:55Z</time>
      </trkpt>
      <trkpt lat="46.98928" lon="-0.74195">
        <ele>151.8</ele>
        <time>2012-04-01T08:47:56Z</time>
      </trkpt>
      <trkpt lat="46.98925" lon="-0.74189">
        <ele>152</ele>
        <time>2012-04-01T08:47:57Z</time>
      </trkpt>
      <trkpt lat="46.98921" lon="-0.74183">
        <ele>152.1</ele>
        <time>2012-04-01T08:47:58Z</time>
      </trkpt>
      <trkpt lat="46.98918" lon="-0.74177">
        <ele>152.1</ele>
        <time>2012-04-01T08:47:59Z</time>
      </trkpt>
      <trkpt lat="46.98915" lon="-0.74171">
        <ele>152.3</ele>
        <time>2012-04-01T08:48:00Z</time>
      </trkpt>
      <trkpt lat="46.98911" lon="-0.74166">
        <ele>152.3</ele>
        <time>2012-04-01T08:48:01Z</time>
      </trkpt>
      <trkpt lat="46.98907" lon="-0.74161">
        <ele>152.3</ele>
        <time>2012-04-01T08:48:02Z</time>
      </trkpt>
      <trkpt lat="46.98902" lon="-0.74156">
        <ele>152.5</ele>
        <time>2012-04-01T08:48:03Z</time>
      </trkpt>
      <trkpt lat="46.98898" lon="-0.74152">
        <ele>152.6</ele>
        <time>2012-04-01T08:48:04Z</time>
      </trkpt>
      <trkpt lat="46.98893" lon="-0.74149">
        <ele>152.8</ele>
        <time>2012-04-01T08:48:05Z</time>
      </trkpt>
      <trkpt lat="46.98888" lon="-0.74147">
        <ele>152.8</ele>
        <time>2012-04-01T08:48:06Z</time>
      </trkpt>
      <trkpt lat="46.98883" lon="-0.74144">
        <ele>152.8</ele>
        <time>2012-04-01T08:48:07Z</time>
      </trkpt>
      <trkpt lat="46.98878" lon="-0.74142">
        <ele>152.8</ele>
        <time>2012-04-01T08:48:08Z</time>
      </trkpt>
      <trkpt lat="46.98873" lon="-0.7414">
        <ele>152.8</ele>
        <time>2012-04-01T08:48:09Z</time>
      </trkpt>
      <trkpt lat="46.98868" lon="-0.74139">
        <ele>152.8</ele>
        <time>2012-04-01T08:48:10Z</time>
      </trkpt>
      <trkpt lat="46.98863" lon="-0.74138">
        <ele>152.8</ele>
        <time>2012-04-01T08:48:11Z</time>
      </trkpt>
      <trkpt lat="46.98858" lon="-0.74138">
        <ele>152.8</ele>
        <time>2012-04-01T08:48:12Z</time>
      </trkpt>
      <trkpt lat="46.98853" lon="-0.74137">
        <ele>152.8</ele>
        <time>2012-04-01T08:48:13Z</time>
      </trkpt>
      <trkpt lat="46.98848" lon="-0.74136">
        <ele>152.8</ele>
        <time>2012-04-01T08:48:14Z</time>
      </trkpt>
      <trkpt lat="46.98843" lon="-0.74136">
        <ele>152.8</ele>
        <time>2012-04-01T08:48:15Z</time>
      </trkpt>
      <trkpt lat="46.98838" lon="-0.74136">
        <ele>153</ele>
        <time>2012-04-01T08:48:16Z</time>
      </trkpt>
      <trkpt lat="46.98833" lon="-0.74136">
        <ele>153</ele>
        <time>2012-04-01T08:48:17Z</time>
      </trkpt>
      <trkpt lat="46.98828" lon="-0.74136">
        <ele>153.1</ele>
        <time>2012-04-01T08:48:18Z</time>
      </trkpt>
      <trkpt lat="46.98824" lon="-0.74137">
        <ele>153.1</ele>
        <time>2012-04-01T08:48:19Z</time>
      </trkpt>
      <trkpt lat="46.98819" lon="-0.74137">
        <ele>153.1</ele>
        <time>2012-04-01T08:48:20Z</time>
      </trkpt>
      <trkpt lat="46.98814" lon="-0.74138">
        <ele>153.1</ele>
        <time>2012-04-01T08:48:21Z</time>
      </trkpt>
      <trkpt lat="46.98809" lon="-0.74139">
        <ele>153.1</ele>
        <time>2012-04-01T08:48:22Z</time>
      </trkpt>
      <trkpt lat="46.98805" lon="-0.74139">
        <ele>153.1</ele>
        <time>2012-04-01T08:48:23Z</time>
      </trkpt>
      <trkpt lat="46.988" lon="-0.7414">
        <ele>153.1</ele>
        <time>2012-04-01T08:48:24Z</time>
      </trkpt>
      <trkpt lat="46.98795" lon="-0.74141">
        <ele>153.1</ele>
        <time>2012-04-01T08:48:25Z</time>
      </trkpt>
      <trkpt lat="46.9879" lon="-0.74141">
        <ele>153.1</ele>
        <time>2012-04-01T08:48:26Z</time>
      </trkpt>
      <trkpt lat="46.98785" lon="-0.74142">
        <ele>153.3</ele>
        <time>2012-04-01T08:48:27Z</time>
      </trkpt>
      <trkpt lat="46.98781" lon="-0.74143">
        <ele>153.3</ele>
        <time>2012-04-01T08:48:28Z</time>
      </trkpt>
      <trkpt lat="46.98776" lon="-0.74143">
        <ele>153.3</ele>
        <time>2012-04-01T08:48:29Z</time>
      </trkpt>
      <trkpt lat="46.98771" lon="-0.74143">
        <ele>153.5</ele>
        <time>2012-04-01T08:48:30Z</time>
      </trkpt>
      <trkpt lat="46.98766" lon="-0.74143">
        <ele>153.6</ele>
        <time>2012-04-01T08:48:31Z</time>
      </trkpt>
      <trkpt lat="46.98761" lon="-0.74142">
        <ele>153.6</ele>
        <time>2012-04-01T08:48:32Z</time>
      </trkpt>
      <trkpt lat="46.98756" lon="-0.74142">
        <ele>153.8</ele>
        <time>2012-04-01T08:48:33Z</time>
      </trkpt>
      <trkpt lat="46.98751" lon="-0.74141">
        <ele>154</ele>
        <time>2012-04-01T08:48:34Z</time>
      </trkpt>
      <trkpt lat="46.98746" lon="-0.7414">
        <ele>154.1</ele>
        <time>2012-04-01T08:48:35Z</time>
      </trkpt>
      <trkpt lat="46.98741" lon="-0.74139">
        <ele>154.1</ele>
        <time>2012-04-01T08:48:36Z</time>
      </trkpt>
      <trkpt lat="46.98736" lon="-0.74137">
        <ele>154.3</ele>
        <time>2012-04-01T08:48:37Z</time>
      </trkpt>
      <trkpt lat="46.98731" lon="-0.74136">
        <ele>154.5</ele>
        <time>2012-04-01T08:48:38Z</time>
      </trkpt>
      <trkpt lat="46.98726" lon="-0.74135">
        <ele>154.6</ele>
        <time>2012-04-01T08:48:39Z</time>
      </trkpt>
      <trkpt lat="46.98721" lon="-0.74134">
        <ele>154.6</ele>
        <time>2012-04-01T08:48:40Z</time>
      </trkpt>
      <trkpt lat="46.98716" lon="-0.74133">
        <ele>154.8</ele>
        <time>2012-04-01T08:48:41Z</time>
      </trkpt>
      <trkpt lat="46.98711" lon="-0.74132">
        <ele>154.8</ele>
        <time>2012-04-01T08:48:42Z</time>
      </trkpt>
      <trkpt lat="46.98706" lon="-0.74131">
        <ele>155</ele>
        <time>2012-04-01T08:48:43Z</time>
      </trkpt>
      <trkpt lat="46.98701" lon="-0.74131">
        <ele>155.1</ele>
        <time>2012-04-01T08:48:44Z</time>
      </trkpt>
      <trkpt lat="46.98696" lon="-0.7413">
        <ele>155.1</ele>
        <time>2012-04-01T08:48:45Z</time>
      </trkpt>
      <trkpt lat="46.98692" lon="-0.7413">
        <ele>155.3</ele>
        <time>2012-04-01T08:48:46Z</time>
      </trkpt>
      <trkpt lat="46.98687" lon="-0.74129">
        <ele>155.3</ele>
        <time>2012-04-01T08:48:47Z</time>
      </trkpt>
      <trkpt lat="46.98682" lon="-0.74128">
        <ele>155.5</ele>
        <time>2012-04-01T08:48:48Z</time>
      </trkpt>
      <trkpt lat="46.98678" lon="-0.74127">
        <ele>155.6</ele>
        <time>2012-04-01T08:48:49Z</time>
      </trkpt>
      <trkpt lat="46.98673" lon="-0.74125">
        <ele>155.6</ele>
        <time>2012-04-01T08:48:50Z</time>
      </trkpt>
      <trkpt lat="46.98668" lon="-0.74124">
        <ele>155.8</ele>
        <time>2012-04-01T08:48:51Z</time>
      </trkpt>
      <trkpt lat="46.98664" lon="-0.74123">
        <ele>155.8</ele>
        <time>2012-04-01T08:48:52Z</time>
      </trkpt>
      <trkpt lat="46.98659" lon="-0.74122">
        <ele>155.8</ele>
        <time>2012-04-01T08:48:53Z</time>
      </trkpt>
      <trkpt lat="46.98654" lon="-0.74122">
        <ele>156</ele>
        <time>2012-04-01T08:48:54Z</time>
      </trkpt>
      <trkpt lat="46.9865" lon="-0.74122">
        <ele>156</ele>
        <time>2012-04-01T08:48:55Z</time>
      </trkpt>
      <trkpt lat="46.98645" lon="-0.74122">
        <ele>156.1</ele>
        <time>2012-04-01T08:48:56Z</time>
      </trkpt>
      <trkpt lat="46.9864" lon="-0.74123">
        <ele>156.1</ele>
        <time>2012-04-01T08:48:57Z</time>
      </trkpt>
      <trkpt lat="46.98635" lon="-0.74124">
        <ele>156.1</ele>
        <time>2012-04-01T08:48:58Z</time>
      </trkpt>
      <trkpt lat="46.98627" lon="-0.74125">
        <ele>156.3</ele>
        <time>2012-04-01T08:49:00Z</time>
      </trkpt>
      <trkpt lat="46.98618" lon="-0.74126">
        <ele>156.3</ele>
        <time>2012-04-01T08:49:02Z</time>
      </trkpt>
      <trkpt lat="46.9861" lon="-0.74128">
        <ele>156.5</ele>
        <time>2012-04-01T08:49:04Z</time>
      </trkpt>
      <trkpt lat="46.98601" lon="-0.74129">
        <ele>156.6</ele>
        <time>2012-04-01T08:49:06Z</time>
      </trkpt>
      <trkpt lat="46.98596" lon="-0.74129">
        <ele>156.6</ele>
        <time>2012-04-01T08:49:07Z</time>
      </trkpt>
      <trkpt lat="46.98592" lon="-0.74129">
        <ele>156.6</ele>
        <time>2012-04-01T08:49:08Z</time>
      </trkpt>
      <trkpt lat="46.98583" lon="-0.74129">
        <ele>156.6</ele>
        <time>2012-04-01T08:49:10Z</time>
      </trkpt>
      <trkpt lat="46.98574" lon="-0.74128">
        <ele>156.8</ele>
        <time>2012-04-01T08:49:12Z</time>
      </trkpt>
      <trkpt lat="46.98566" lon="-0.74125">
        <ele>157.1</ele>
        <time>2012-04-01T08:49:14Z</time>
      </trkpt>
      <trkpt lat="46.98557" lon="-0.74122">
        <ele>157.3</ele>
        <time>2012-04-01T08:49:16Z</time>
      </trkpt>
      <trkpt lat="46.98549" lon="-0.74119">
        <ele>157.6</ele>
        <time>2012-04-01T08:49:18Z</time>
      </trkpt>
      <trkpt lat="46.98541" lon="-0.74116">
        <ele>158.1</ele>
        <time>2012-04-01T08:49:20Z</time>
      </trkpt>
      <trkpt lat="46.98533" lon="-0.74113">
        <ele>158.3</ele>
        <time>2012-04-01T08:49:22Z</time>
      </trkpt>
      <trkpt lat="46.98525" lon="-0.7411">
        <ele>158.8</ele>
        <time>2012-04-01T08:49:24Z</time>
      </trkpt>
      <trkpt lat="46.98518" lon="-0.74107">
        <ele>159.3</ele>
        <time>2012-04-01T08:49:26Z</time>
      </trkpt>
      <trkpt lat="46.9851" lon="-0.74105">
        <ele>159.8</ele>
        <time>2012-04-01T08:49:28Z</time>
      </trkpt>
      <trkpt lat="46.98503" lon="-0.74102">
        <ele>159.8</ele>
        <time>2012-04-01T08:49:30Z</time>
      </trkpt>
      <trkpt lat="46.98496" lon="-0.74099">
        <ele>159.8</ele>
        <time>2012-04-01T08:49:32Z</time>
      </trkpt>
      <trkpt lat="46.98489" lon="-0.74097">
        <ele>160</ele>
        <time>2012-04-01T08:49:34Z</time>
      </trkpt>
      <trkpt lat="46.98482" lon="-0.74095">
        <ele>160.1</ele>
        <time>2012-04-01T08:49:36Z</time>
      </trkpt>
      <trkpt lat="46.98476" lon="-0.74093">
        <ele>160.1</ele>
        <time>2012-04-01T08:49:38Z</time>
      </trkpt>
      <trkpt lat="46.98469" lon="-0.7409">
        <ele>160.3</ele>
        <time>2012-04-01T08:49:40Z</time>
      </trkpt>
      <trkpt lat="46.98462" lon="-0.74088">
        <ele>160.5</ele>
        <time>2012-04-01T08:49:42Z</time>
      </trkpt>
      <trkpt lat="46.98455" lon="-0.74086">
        <ele>160.6</ele>
        <time>2012-04-01T08:49:44Z</time>
      </trkpt>
      <trkpt lat="46.98448" lon="-0.74083">
        <ele>160.8</ele>
        <time>2012-04-01T08:49:46Z</time>
      </trkpt>
      <trkpt lat="46.98441" lon="-0.74081">
        <ele>160.8</ele>
        <time>2012-04-01T08:49:48Z</time>
      </trkpt>
      <trkpt lat="46.98434" lon="-0.74079">
        <ele>161.1</ele>
        <time>2012-04-01T08:49:50Z</time>
      </trkpt>
      <trkpt lat="46.98427" lon="-0.74077">
        <ele>161.1</ele>
        <time>2012-04-01T08:49:52Z</time>
      </trkpt>
      <trkpt lat="46.9842" lon="-0.74075">
        <ele>162</ele>
        <time>2012-04-01T08:49:54Z</time>
      </trkpt>
      <trkpt lat="46.98412" lon="-0.74073">
        <ele>163.1</ele>
        <time>2012-04-01T08:49:56Z</time>
      </trkpt>
      <trkpt lat="46.98408" lon="-0.74072">
        <ele>163.5</ele>
        <time>2012-04-01T08:49:57Z</time>
      </trkpt>
      <trkpt lat="46.98395" lon="-0.74068">
        <ele>164.5</ele>
        <time>2012-04-01T08:50:00Z</time>
      </trkpt>
      <trkpt lat="46.98391" lon="-0.74067">
        <ele>164.6</ele>
        <time>2012-04-01T08:50:01Z</time>
      </trkpt>
      <trkpt lat="46.98386" lon="-0.74065">
        <ele>164.8</ele>
        <time>2012-04-01T08:50:02Z</time>
      </trkpt>
      <trkpt lat="46.98381" lon="-0.74064">
        <ele>165</ele>
        <time>2012-04-01T08:50:03Z</time>
      </trkpt>
      <trkpt lat="46.98377" lon="-0.74062">
        <ele>165.1</ele>
        <time>2012-04-01T08:50:04Z</time>
      </trkpt>
      <trkpt lat="46.98372" lon="-0.74061">
        <ele>165.1</ele>
        <time>2012-04-01T08:50:05Z</time>
      </trkpt>
      <trkpt lat="46.98367" lon="-0.7406">
        <ele>165.3</ele>
        <time>2012-04-01T08:50:06Z</time>
      </trkpt>
      <trkpt lat="46.98363" lon="-0.74059">
        <ele>165.3</ele>
        <time>2012-04-01T08:50:07Z</time>
      </trkpt>
      <trkpt lat="46.98358" lon="-0.74058">
        <ele>165.6</ele>
        <time>2012-04-01T08:50:08Z</time>
      </trkpt>
      <trkpt lat="46.98353" lon="-0.74056">
        <ele>165.6</ele>
        <time>2012-04-01T08:50:09Z</time>
      </trkpt>
      <trkpt lat="46.98347" lon="-0.74055">
        <ele>165.8</ele>
        <time>2012-04-01T08:50:10Z</time>
      </trkpt>
      <trkpt lat="46.98342" lon="-0.74054">
        <ele>165.8</ele>
        <time>2012-04-01T08:50:11Z</time>
      </trkpt>
      <trkpt lat="46.98337" lon="-0.74053">
        <ele>166.1</ele>
        <time>2012-04-01T08:50:12Z</time>
      </trkpt>
      <trkpt lat="46.98331" lon="-0.74052">
        <ele>166.1</ele>
        <time>2012-04-01T08:50:13Z</time>
      </trkpt>
      <trkpt lat="46.98326" lon="-0.74052">
        <ele>166.3</ele>
        <time>2012-04-01T08:50:14Z</time>
      </trkpt>
      <trkpt lat="46.98322" lon="-0.74052">
        <ele>166.3</ele>
        <time>2012-04-01T08:50:15Z</time>
      </trkpt>
      <trkpt lat="46.98313" lon="-0.74051">
        <ele>166.6</ele>
        <time>2012-04-01T08:50:17Z</time>
      </trkpt>
      <trkpt lat="46.98306" lon="-0.74044">
        <ele>166.8</ele>
        <time>2012-04-01T08:50:19Z</time>
      </trkpt>
      <trkpt lat="46.98303" lon="-0.74039">
        <ele>166.8</ele>
        <time>2012-04-01T08:50:20Z</time>
      </trkpt>
      <trkpt lat="46.98299" lon="-0.74034">
        <ele>166.8</ele>
        <time>2012-04-01T08:50:21Z</time>
      </trkpt>
      <trkpt lat="46.98295" lon="-0.74029">
        <ele>167</ele>
        <time>2012-04-01T08:50:22Z</time>
      </trkpt>
      <trkpt lat="46.98292" lon="-0.74024">
        <ele>167.1</ele>
        <time>2012-04-01T08:50:23Z</time>
      </trkpt>
      <trkpt lat="46.98288" lon="-0.74019">
        <ele>167.1</ele>
        <time>2012-04-01T08:50:24Z</time>
      </trkpt>
      <trkpt lat="46.98284" lon="-0.74014">
        <ele>167.3</ele>
        <time>2012-04-01T08:50:25Z</time>
      </trkpt>
      <trkpt lat="46.9828" lon="-0.74008">
        <ele>167.3</ele>
        <time>2012-04-01T08:50:26Z</time>
      </trkpt>
      <trkpt lat="46.98276" lon="-0.74003">
        <ele>167.5</ele>
        <time>2012-04-01T08:50:27Z</time>
      </trkpt>
      <trkpt lat="46.98272" lon="-0.73998">
        <ele>167.6</ele>
        <time>2012-04-01T08:50:28Z</time>
      </trkpt>
      <trkpt lat="46.98268" lon="-0.73992">
        <ele>167.6</ele>
        <time>2012-04-01T08:50:29Z</time>
      </trkpt>
      <trkpt lat="46.98265" lon="-0.73987">
        <ele>167.8</ele>
        <time>2012-04-01T08:50:30Z</time>
      </trkpt>
      <trkpt lat="46.98261" lon="-0.73981">
        <ele>167.8</ele>
        <time>2012-04-01T08:50:31Z</time>
      </trkpt>
      <trkpt lat="46.98257" lon="-0.73976">
        <ele>167.8</ele>
        <time>2012-04-01T08:50:32Z</time>
      </trkpt>
      <trkpt lat="46.98253" lon="-0.7397">
        <ele>168</ele>
        <time>2012-04-01T08:50:33Z</time>
      </trkpt>
      <trkpt lat="46.98249" lon="-0.73965">
        <ele>168</ele>
        <time>2012-04-01T08:50:34Z</time>
      </trkpt>
      <trkpt lat="46.98246" lon="-0.7396">
        <ele>168.1</ele>
        <time>2012-04-01T08:50:35Z</time>
      </trkpt>
      <trkpt lat="46.98243" lon="-0.73955">
        <ele>168.1</ele>
        <time>2012-04-01T08:50:36Z</time>
      </trkpt>
      <trkpt lat="46.98236" lon="-0.73945">
        <ele>168.3</ele>
        <time>2012-04-01T08:50:38Z</time>
      </trkpt>
      <trkpt lat="46.98233" lon="-0.73941">
        <ele>168.3</ele>
        <time>2012-04-01T08:50:39Z</time>
      </trkpt>
      <trkpt lat="46.9823" lon="-0.73936">
        <ele>168.3</ele>
        <time>2012-04-01T08:50:40Z</time>
      </trkpt>
      <trkpt lat="46.98227" lon="-0.73931">
        <ele>168.3</ele>
        <time>2012-04-01T08:50:41Z</time>
      </trkpt>
      <trkpt lat="46.98223" lon="-0.73927">
        <ele>168.3</ele>
        <time>2012-04-01T08:50:42Z</time>
      </trkpt>
      <trkpt lat="46.9822" lon="-0.73923">
        <ele>168.3</ele>
        <time>2012-04-01T08:50:43Z</time>
      </trkpt>
      <trkpt lat="46.98212" lon="-0.73916">
        <ele>168.5</ele>
        <time>2012-04-01T08:50:45Z</time>
      </trkpt>
      <trkpt lat="46.98205" lon="-0.7391">
        <ele>168.6</ele>
        <time>2012-04-01T08:50:47Z</time>
      </trkpt>
      <trkpt lat="46.98202" lon="-0.73899">
        <ele>168.6</ele>
        <time>2012-04-01T08:50:49Z</time>
      </trkpt>
      <trkpt lat="46.98202" lon="-0.73888">
        <ele>168.6</ele>
        <time>2012-04-01T08:50:51Z</time>
      </trkpt>
      <trkpt lat="46.98204" lon="-0.73877">
        <ele>168.6</ele>
        <time>2012-04-01T08:50:53Z</time>
      </trkpt>
      <trkpt lat="46.98205" lon="-0.73866">
        <ele>168.6</ele>
        <time>2012-04-01T08:50:55Z</time>
      </trkpt>
      <trkpt lat="46.98206" lon="-0.73854">
        <ele>168.6</ele>
        <time>2012-04-01T08:50:57Z</time>
      </trkpt>
      <trkpt lat="46.98207" lon="-0.73848">
        <ele>168.6</ele>
        <time>2012-04-01T08:50:58Z</time>
      </trkpt>
      <trkpt lat="46.98209" lon="-0.7383">
        <ele>168.6</ele>
        <time>2012-04-01T08:51:01Z</time>
      </trkpt>
      <trkpt lat="46.98211" lon="-0.73817">
        <ele>168.6</ele>
        <time>2012-04-01T08:51:03Z</time>
      </trkpt>
      <trkpt lat="46.98213" lon="-0.73806">
        <ele>168.5</ele>
        <time>2012-04-01T08:51:05Z</time>
      </trkpt>
      <trkpt lat="46.98214" lon="-0.73794">
        <ele>168.5</ele>
        <time>2012-04-01T08:51:07Z</time>
      </trkpt>
      <trkpt lat="46.98216" lon="-0.73783">
        <ele>168.5</ele>
        <time>2012-04-01T08:51:09Z</time>
      </trkpt>
      <trkpt lat="46.98218" lon="-0.73773">
        <ele>168.5</ele>
        <time>2012-04-01T08:51:11Z</time>
      </trkpt>
      <trkpt lat="46.98219" lon="-0.73763">
        <ele>168.5</ele>
        <time>2012-04-01T08:51:13Z</time>
      </trkpt>
      <trkpt lat="46.98221" lon="-0.73751">
        <ele>168.6</ele>
        <time>2012-04-01T08:51:15Z</time>
      </trkpt>
      <trkpt lat="46.98222" lon="-0.73739">
        <ele>168.6</ele>
        <time>2012-04-01T08:51:17Z</time>
      </trkpt>
      <trkpt lat="46.98223" lon="-0.73726">
        <ele>168.6</ele>
        <time>2012-04-01T08:51:19Z</time>
      </trkpt>
      <trkpt lat="46.98225" lon="-0.73714">
        <ele>168.8</ele>
        <time>2012-04-01T08:51:21Z</time>
      </trkpt>
      <trkpt lat="46.98226" lon="-0.73704">
        <ele>168.8</ele>
        <time>2012-04-01T08:51:23Z</time>
      </trkpt>
      <trkpt lat="46.98227" lon="-0.73691">
        <ele>168.8</ele>
        <time>2012-04-01T08:51:26Z</time>
      </trkpt>
      <trkpt lat="46.98228" lon="-0.73679">
        <ele>169</ele>
        <time>2012-04-01T08:51:29Z</time>
      </trkpt>
      <trkpt lat="46.98229" lon="-0.7367">
        <ele>169</ele>
        <time>2012-04-01T08:51:31Z</time>
      </trkpt>
      <trkpt lat="46.98229" lon="-0.73661">
        <ele>169.1</ele>
        <time>2012-04-01T08:51:33Z</time>
      </trkpt>
      <trkpt lat="46.9823" lon="-0.73651">
        <ele>169.1</ele>
        <time>2012-04-01T08:51:35Z</time>
      </trkpt>
      <trkpt lat="46.98231" lon="-0.73642">
        <ele>169.3</ele>
        <time>2012-04-01T08:51:37Z</time>
      </trkpt>
      <trkpt lat="46.98231" lon="-0.73632">
        <ele>169.3</ele>
        <time>2012-04-01T08:51:39Z</time>
      </trkpt>
      <trkpt lat="46.98233" lon="-0.73623">
        <ele>169.5</ele>
        <time>2012-04-01T08:51:41Z</time>
      </trkpt>
      <trkpt lat="46.98234" lon="-0.73613">
        <ele>169.6</ele>
        <time>2012-04-01T08:51:43Z</time>
      </trkpt>
      <trkpt lat="46.98235" lon="-0.73604">
        <ele>169.8</ele>
        <time>2012-04-01T08:51:45Z</time>
      </trkpt>
      <trkpt lat="46.98236" lon="-0.73594">
        <ele>169.8</ele>
        <time>2012-04-01T08:51:47Z</time>
      </trkpt>
      <trkpt lat="46.98237" lon="-0.73583">
        <ele>170.1</ele>
        <time>2012-04-01T08:51:49Z</time>
      </trkpt>
      <trkpt lat="46.98238" lon="-0.73572">
        <ele>170.8</ele>
        <time>2012-04-01T08:51:51Z</time>
      </trkpt>
      <trkpt lat="46.98239" lon="-0.73561">
        <ele>171</ele>
        <time>2012-04-01T08:51:53Z</time>
      </trkpt>
      <trkpt lat="46.9824" lon="-0.73552">
        <ele>171.1</ele>
        <time>2012-04-01T08:51:55Z</time>
      </trkpt>
      <trkpt lat="46.98241" lon="-0.73539">
        <ele>171.3</ele>
        <time>2012-04-01T08:51:58Z</time>
      </trkpt>
      <trkpt lat="46.98242" lon="-0.73536">
        <ele>171.3</ele>
        <time>2012-04-01T08:51:59Z</time>
      </trkpt>
      <trkpt lat="46.98243" lon="-0.73517">
        <ele>171.6</ele>
        <time>2012-04-01T08:52:03Z</time>
      </trkpt>
      <trkpt lat="46.98244" lon="-0.73508">
        <ele>171.8</ele>
        <time>2012-04-01T08:52:05Z</time>
      </trkpt>
      <trkpt lat="46.98244" lon="-0.73498">
        <ele>171.8</ele>
        <time>2012-04-01T08:52:07Z</time>
      </trkpt>
      <trkpt lat="46.98244" lon="-0.73488">
        <ele>172</ele>
        <time>2012-04-01T08:52:09Z</time>
      </trkpt>
      <trkpt lat="46.98245" lon="-0.73479">
        <ele>172.1</ele>
        <time>2012-04-01T08:52:11Z</time>
      </trkpt>
      <trkpt lat="46.98245" lon="-0.73469">
        <ele>172.3</ele>
        <time>2012-04-01T08:52:13Z</time>
      </trkpt>
      <trkpt lat="46.98246" lon="-0.7346">
        <ele>172.3</ele>
        <time>2012-04-01T08:52:15Z</time>
      </trkpt>
      <trkpt lat="46.98246" lon="-0.73451">
        <ele>172.6</ele>
        <time>2012-04-01T08:52:17Z</time>
      </trkpt>
      <trkpt lat="46.98246" lon="-0.73442">
        <ele>172.6</ele>
        <time>2012-04-01T08:52:19Z</time>
      </trkpt>
      <trkpt lat="46.98246" lon="-0.73433">
        <ele>172.8</ele>
        <time>2012-04-01T08:52:21Z</time>
      </trkpt>
      <trkpt lat="46.98245" lon="-0.73424">
        <ele>173.1</ele>
        <time>2012-04-01T08:52:23Z</time>
      </trkpt>
      <trkpt lat="46.98244" lon="-0.73414">
        <ele>173.1</ele>
        <time>2012-04-01T08:52:25Z</time>
      </trkpt>
      <trkpt lat="46.98243" lon="-0.73405">
        <ele>173.3</ele>
        <time>2012-04-01T08:52:27Z</time>
      </trkpt>
      <trkpt lat="46.98241" lon="-0.73396">
        <ele>173.6</ele>
        <time>2012-04-01T08:52:29Z</time>
      </trkpt>
      <trkpt lat="46.9824" lon="-0.73386">
        <ele>173.6</ele>
        <time>2012-04-01T08:52:31Z</time>
      </trkpt>
      <trkpt lat="46.98238" lon="-0.73376">
        <ele>173.8</ele>
        <time>2012-04-01T08:52:33Z</time>
      </trkpt>
      <trkpt lat="46.98237" lon="-0.73366">
        <ele>174</ele>
        <time>2012-04-01T08:52:35Z</time>
      </trkpt>
      <trkpt lat="46.98235" lon="-0.73356">
        <ele>174.1</ele>
        <time>2012-04-01T08:52:37Z</time>
      </trkpt>
      <trkpt lat="46.98234" lon="-0.73347">
        <ele>174.3</ele>
        <time>2012-04-01T08:52:39Z</time>
      </trkpt>
      <trkpt lat="46.98232" lon="-0.73336">
        <ele>174.5</ele>
        <time>2012-04-01T08:52:41Z</time>
      </trkpt>
      <trkpt lat="46.9823" lon="-0.73326">
        <ele>174.6</ele>
        <time>2012-04-01T08:52:43Z</time>
      </trkpt>
      <trkpt lat="46.98228" lon="-0.73315">
        <ele>174.8</ele>
        <time>2012-04-01T08:52:45Z</time>
      </trkpt>
      <trkpt lat="46.98226" lon="-0.73304">
        <ele>175</ele>
        <time>2012-04-01T08:52:47Z</time>
      </trkpt>
      <trkpt lat="46.98223" lon="-0.73294">
        <ele>175.8</ele>
        <time>2012-04-01T08:52:49Z</time>
      </trkpt>
      <trkpt lat="46.98219" lon="-0.73284">
        <ele>177</ele>
        <time>2012-04-01T08:52:51Z</time>
      </trkpt>
      <trkpt lat="46.98214" lon="-0.73274">
        <ele>177.8</ele>
        <time>2012-04-01T08:52:53Z</time>
      </trkpt>
      <trkpt lat="46.9821" lon="-0.73263">
        <ele>178.3</ele>
        <time>2012-04-01T08:52:55Z</time>
      </trkpt>
      <trkpt lat="46.98206" lon="-0.73253">
        <ele>178.6</ele>
        <time>2012-04-01T08:52:57Z</time>
      </trkpt>
      <trkpt lat="46.98201" lon="-0.73243">
        <ele>178.8</ele>
        <time>2012-04-01T08:52:59Z</time>
      </trkpt>
      <trkpt lat="46.98199" lon="-0.73238">
        <ele>179</ele>
        <time>2012-04-01T08:53:00Z</time>
      </trkpt>
      <trkpt lat="46.98194" lon="-0.73227">
        <ele>179.3</ele>
        <time>2012-04-01T08:53:02Z</time>
      </trkpt>
      <trkpt lat="46.98191" lon="-0.73221">
        <ele>179.3</ele>
        <time>2012-04-01T08:53:03Z</time>
      </trkpt>
      <trkpt lat="46.98189" lon="-0.73215">
        <ele>179.5</ele>
        <time>2012-04-01T08:53:04Z</time>
      </trkpt>
      <trkpt lat="46.98186" lon="-0.7321">
        <ele>179.6</ele>
        <time>2012-04-01T08:53:05Z</time>
      </trkpt>
      <trkpt lat="46.98184" lon="-0.73204">
        <ele>179.8</ele>
        <time>2012-04-01T08:53:06Z</time>
      </trkpt>
      <trkpt lat="46.98181" lon="-0.73198">
        <ele>180.1</ele>
        <time>2012-04-01T08:53:07Z</time>
      </trkpt>
      <trkpt lat="46.98178" lon="-0.73192">
        <ele>180.3</ele>
        <time>2012-04-01T08:53:08Z</time>
      </trkpt>
      <trkpt lat="46.98175" lon="-0.73186">
        <ele>180.5</ele>
        <time>2012-04-01T08:53:09Z</time>
      </trkpt>
      <trkpt lat="46.98172" lon="-0.7318">
        <ele>180.6</ele>
        <time>2012-04-01T08:53:10Z</time>
      </trkpt>
      <trkpt lat="46.98169" lon="-0.73174">
        <ele>180.8</ele>
        <time>2012-04-01T08:53:11Z</time>
      </trkpt>
      <trkpt lat="46.98167" lon="-0.73167">
        <ele>181</ele>
        <time>2012-04-01T08:53:12Z</time>
      </trkpt>
      <trkpt lat="46.98164" lon="-0.73161">
        <ele>181.1</ele>
        <time>2012-04-01T08:53:13Z</time>
      </trkpt>
      <trkpt lat="46.98161" lon="-0.73155">
        <ele>181.1</ele>
        <time>2012-04-01T08:53:14Z</time>
      </trkpt>
      <trkpt lat="46.98159" lon="-0.73149">
        <ele>181.3</ele>
        <time>2012-04-01T08:53:15Z</time>
      </trkpt>
      <trkpt lat="46.98156" lon="-0.73143">
        <ele>181.3</ele>
        <time>2012-04-01T08:53:16Z</time>
      </trkpt>
      <trkpt lat="46.98154" lon="-0.73137">
        <ele>181.5</ele>
        <time>2012-04-01T08:53:17Z</time>
      </trkpt>
      <trkpt lat="46.98151" lon="-0.73131">
        <ele>181.5</ele>
        <time>2012-04-01T08:53:18Z</time>
      </trkpt>
      <trkpt lat="46.98148" lon="-0.73125">
        <ele>181.5</ele>
        <time>2012-04-01T08:53:19Z</time>
      </trkpt>
      <trkpt lat="46.98145" lon="-0.73118">
        <ele>181.3</ele>
        <time>2012-04-01T08:53:20Z</time>
      </trkpt>
      <trkpt lat="46.98142" lon="-0.73112">
        <ele>181.3</ele>
        <time>2012-04-01T08:53:21Z</time>
      </trkpt>
      <trkpt lat="46.98139" lon="-0.73106">
        <ele>181.3</ele>
        <time>2012-04-01T08:53:22Z</time>
      </trkpt>
      <trkpt lat="46.98136" lon="-0.731">
        <ele>181.1</ele>
        <time>2012-04-01T08:53:23Z</time>
      </trkpt>
      <trkpt lat="46.98134" lon="-0.73094">
        <ele>181.1</ele>
        <time>2012-04-01T08:53:24Z</time>
      </trkpt>
      <trkpt lat="46.98131" lon="-0.73088">
        <ele>181</ele>
        <time>2012-04-01T08:53:25Z</time>
      </trkpt>
      <trkpt lat="46.98129" lon="-0.73082">
        <ele>180.8</ele>
        <time>2012-04-01T08:53:26Z</time>
      </trkpt>
      <trkpt lat="46.98126" lon="-0.73076">
        <ele>180.8</ele>
        <time>2012-04-01T08:53:27Z</time>
      </trkpt>
      <trkpt lat="46.98123" lon="-0.73069">
        <ele>180.8</ele>
        <time>2012-04-01T08:53:28Z</time>
      </trkpt>
      <trkpt lat="46.9812" lon="-0.73062">
        <ele>180.6</ele>
        <time>2012-04-01T08:53:29Z</time>
      </trkpt>
      <trkpt lat="46.98118" lon="-0.73056">
        <ele>180.6</ele>
        <time>2012-04-01T08:53:30Z</time>
      </trkpt>
      <trkpt lat="46.98115" lon="-0.73049">
        <ele>180.6</ele>
        <time>2012-04-01T08:53:31Z</time>
      </trkpt>
      <trkpt lat="46.98112" lon="-0.73042">
        <ele>180.5</ele>
        <time>2012-04-01T08:53:32Z</time>
      </trkpt>
      <trkpt lat="46.9811" lon="-0.73035">
        <ele>180.3</ele>
        <time>2012-04-01T08:53:33Z</time>
      </trkpt>
      <trkpt lat="46.98107" lon="-0.73028">
        <ele>180.3</ele>
        <time>2012-04-01T08:53:34Z</time>
      </trkpt>
      <trkpt lat="46.98105" lon="-0.73021">
        <ele>180.1</ele>
        <time>2012-04-01T08:53:35Z</time>
      </trkpt>
      <trkpt lat="46.98102" lon="-0.73014">
        <ele>180.1</ele>
        <time>2012-04-01T08:53:36Z</time>
      </trkpt>
      <trkpt lat="46.98099" lon="-0.73007">
        <ele>180</ele>
        <time>2012-04-01T08:53:37Z</time>
      </trkpt>
      <trkpt lat="46.98097" lon="-0.73">
        <ele>179.8</ele>
        <time>2012-04-01T08:53:38Z</time>
      </trkpt>
      <trkpt lat="46.98095" lon="-0.72994">
        <ele>179.8</ele>
        <time>2012-04-01T08:53:39Z</time>
      </trkpt>
      <trkpt lat="46.98093" lon="-0.72987">
        <ele>179.8</ele>
        <time>2012-04-01T08:53:40Z</time>
      </trkpt>
      <trkpt lat="46.9809" lon="-0.72981">
        <ele>179.8</ele>
        <time>2012-04-01T08:53:41Z</time>
      </trkpt>
      <trkpt lat="46.98088" lon="-0.72974">
        <ele>179.8</ele>
        <time>2012-04-01T08:53:42Z</time>
      </trkpt>
      <trkpt lat="46.98086" lon="-0.72968">
        <ele>179.8</ele>
        <time>2012-04-01T08:53:43Z</time>
      </trkpt>
      <trkpt lat="46.98083" lon="-0.72962">
        <ele>179.8</ele>
        <time>2012-04-01T08:53:44Z</time>
      </trkpt>
      <trkpt lat="46.98081" lon="-0.72956">
        <ele>179.8</ele>
        <time>2012-04-01T08:53:45Z</time>
      </trkpt>
      <trkpt lat="46.98078" lon="-0.7295">
        <ele>179.8</ele>
        <time>2012-04-01T08:53:46Z</time>
      </trkpt>
      <trkpt lat="46.98075" lon="-0.72944">
        <ele>179.8</ele>
        <time>2012-04-01T08:53:47Z</time>
      </trkpt>
      <trkpt lat="46.98072" lon="-0.72938">
        <ele>179.8</ele>
        <time>2012-04-01T08:53:48Z</time>
      </trkpt>
      <trkpt lat="46.9807" lon="-0.72932">
        <ele>179.8</ele>
        <time>2012-04-01T08:53:49Z</time>
      </trkpt>
      <trkpt lat="46.98067" lon="-0.72926">
        <ele>179.8</ele>
        <time>2012-04-01T08:53:50Z</time>
      </trkpt>
      <trkpt lat="46.98064" lon="-0.72921">
        <ele>179.8</ele>
        <time>2012-04-01T08:53:51Z</time>
      </trkpt>
      <trkpt lat="46.98061" lon="-0.72915">
        <ele>179.6</ele>
        <time>2012-04-01T08:53:52Z</time>
      </trkpt>
      <trkpt lat="46.98058" lon="-0.72909">
        <ele>179.6</ele>
        <time>2012-04-01T08:53:53Z</time>
      </trkpt>
      <trkpt lat="46.98055" lon="-0.72904">
        <ele>179.6</ele>
        <time>2012-04-01T08:53:54Z</time>
      </trkpt>
      <trkpt lat="46.98052" lon="-0.72899">
        <ele>179.6</ele>
        <time>2012-04-01T08:53:55Z</time>
      </trkpt>
      <trkpt lat="46.98049" lon="-0.72894">
        <ele>179.5</ele>
        <time>2012-04-01T08:53:56Z</time>
      </trkpt>
      <trkpt lat="46.98046" lon="-0.72889">
        <ele>179.3</ele>
        <time>2012-04-01T08:53:57Z</time>
      </trkpt>
      <trkpt lat="46.98041" lon="-0.72879">
        <ele>179.3</ele>
        <time>2012-04-01T08:53:59Z</time>
      </trkpt>
      <trkpt lat="46.98036" lon="-0.7287">
        <ele>179.3</ele>
        <time>2012-04-01T08:54:01Z</time>
      </trkpt>
      <trkpt lat="46.98034" lon="-0.72866">
        <ele>179.3</ele>
        <time>2012-04-01T08:54:02Z</time>
      </trkpt>
      <trkpt lat="46.98028" lon="-0.72851">
        <ele>179.3</ele>
        <time>2012-04-01T08:54:06Z</time>
      </trkpt>
      <trkpt lat="46.98025" lon="-0.72839">
        <ele>179.3</ele>
        <time>2012-04-01T08:54:30Z</time>
      </trkpt>
      <trkpt lat="46.98021" lon="-0.7283">
        <ele>179.6</ele>
        <time>2012-04-01T08:54:33Z</time>
      </trkpt>
      <trkpt lat="46.98018" lon="-0.72821">
        <ele>179.6</ele>
        <time>2012-04-01T08:54:36Z</time>
      </trkpt>
      <trkpt lat="46.98014" lon="-0.72809">
        <ele>179.8</ele>
        <time>2012-04-01T08:54:39Z</time>
      </trkpt>
      <trkpt lat="46.98011" lon="-0.72802">
        <ele>180</ele>
        <time>2012-04-01T08:54:41Z</time>
      </trkpt>
      <trkpt lat="46.98008" lon="-0.72793">
        <ele>180</ele>
        <time>2012-04-01T08:54:43Z</time>
      </trkpt>
      <trkpt lat="46.98005" lon="-0.72785">
        <ele>180.1</ele>
        <time>2012-04-01T08:54:45Z</time>
      </trkpt>
      <trkpt lat="46.98002" lon="-0.72776">
        <ele>180.1</ele>
        <time>2012-04-01T08:54:47Z</time>
      </trkpt>
      <trkpt lat="46.97999" lon="-0.72766">
        <ele>180.1</ele>
        <time>2012-04-01T08:54:49Z</time>
      </trkpt>
      <trkpt lat="46.97996" lon="-0.72756">
        <ele>180.1</ele>
        <time>2012-04-01T08:54:51Z</time>
      </trkpt>
      <trkpt lat="46.97993" lon="-0.72746">
        <ele>180.1</ele>
        <time>2012-04-01T08:54:53Z</time>
      </trkpt>
      <trkpt lat="46.9799" lon="-0.72737">
        <ele>180.1</ele>
        <time>2012-04-01T08:54:55Z</time>
      </trkpt>
      <trkpt lat="46.97987" lon="-0.72727">
        <ele>180.1</ele>
        <time>2012-04-01T08:54:57Z</time>
      </trkpt>
      <trkpt lat="46.97984" lon="-0.72718">
        <ele>180.1</ele>
        <time>2012-04-01T08:54:59Z</time>
      </trkpt>
      <trkpt lat="46.97981" lon="-0.72709">
        <ele>180.3</ele>
        <time>2012-04-01T08:55:01Z</time>
      </trkpt>
      <trkpt lat="46.97978" lon="-0.72702">
        <ele>180.3</ele>
        <time>2012-04-01T08:55:08Z</time>
      </trkpt>
      <trkpt lat="46.97977" lon="-0.72695">
        <ele>180.3</ele>
        <time>2012-04-01T08:55:09Z</time>
      </trkpt>
      <trkpt lat="46.9797" lon="-0.72681">
        <ele>180.6</ele>
        <time>2012-04-01T08:55:23Z</time>
      </trkpt>
      <trkpt lat="46.97966" lon="-0.72671">
        <ele>180.6</ele>
        <time>2012-04-01T08:55:28Z</time>
      </trkpt>
      <trkpt lat="46.97964" lon="-0.72662">
        <ele>180.6</ele>
        <time>2012-04-01T08:55:31Z</time>
      </trkpt>
      <trkpt lat="46.9796" lon="-0.72652">
        <ele>180.6</ele>
        <time>2012-04-01T08:55:34Z</time>
      </trkpt>
      <trkpt lat="46.97956" lon="-0.72641">
        <ele>180.6</ele>
        <time>2012-04-01T08:55:37Z</time>
      </trkpt>
      <trkpt lat="46.97954" lon="-0.72633">
        <ele>180.6</ele>
        <time>2012-04-01T08:55:39Z</time>
      </trkpt>
      <trkpt lat="46.97951" lon="-0.72624">
        <ele>180.6</ele>
        <time>2012-04-01T08:55:41Z</time>
      </trkpt>
      <trkpt lat="46.97949" lon="-0.72616">
        <ele>180.6</ele>
        <time>2012-04-01T08:55:43Z</time>
      </trkpt>
      <trkpt lat="46.97946" lon="-0.72607">
        <ele>180.6</ele>
        <time>2012-04-01T08:55:45Z</time>
      </trkpt>
      <trkpt lat="46.97942" lon="-0.72596">
        <ele>180.6</ele>
        <time>2012-04-01T08:55:48Z</time>
      </trkpt>
      <trkpt lat="46.97939" lon="-0.72587">
        <ele>180.6</ele>
        <time>2012-04-01T08:55:58Z</time>
      </trkpt>
      <trkpt lat="46.97935" lon="-0.72581">
        <ele>180.6</ele>
        <time>2012-04-01T08:56:02Z</time>
      </trkpt>
      <trkpt lat="46.97933" lon="-0.7257">
        <ele>180.8</ele>
        <time>2012-04-01T08:56:12Z</time>
      </trkpt>
      <trkpt lat="46.97933" lon="-0.72567">
        <ele>180.8</ele>
        <time>2012-04-01T08:56:13Z</time>
      </trkpt>
      <trkpt lat="46.97947" lon="-0.72557">
        <ele>181.1</ele>
        <time>2012-04-01T08:56:21Z</time>
      </trkpt>
      <trkpt lat="46.97952" lon="-0.72554">
        <ele>181.1</ele>
        <time>2012-04-01T08:56:23Z</time>
      </trkpt>
      <trkpt lat="46.97959" lon="-0.7255">
        <ele>181.1</ele>
        <time>2012-04-01T08:56:25Z</time>
      </trkpt>
      <trkpt lat="46.97966" lon="-0.72546">
        <ele>181.3</ele>
        <time>2012-04-01T08:56:27Z</time>
      </trkpt>
      <trkpt lat="46.97973" lon="-0.72541">
        <ele>181.5</ele>
        <time>2012-04-01T08:56:29Z</time>
      </trkpt>
      <trkpt lat="46.9798" lon="-0.72536">
        <ele>181.6</ele>
        <time>2012-04-01T08:56:31Z</time>
      </trkpt>
      <trkpt lat="46.97988" lon="-0.72532">
        <ele>181.6</ele>
        <time>2012-04-01T08:56:33Z</time>
      </trkpt>
      <trkpt lat="46.97992" lon="-0.72529">
        <ele>181.6</ele>
        <time>2012-04-01T08:56:34Z</time>
      </trkpt>
      <trkpt lat="46.97996" lon="-0.72527">
        <ele>181.6</ele>
        <time>2012-04-01T08:56:35Z</time>
      </trkpt>
      <trkpt lat="46.98001" lon="-0.72524">
        <ele>181.6</ele>
        <time>2012-04-01T08:56:36Z</time>
      </trkpt>
      <trkpt lat="46.98005" lon="-0.72522">
        <ele>181.6</ele>
        <time>2012-04-01T08:56:37Z</time>
      </trkpt>
      <trkpt lat="46.9801" lon="-0.72521">
        <ele>181.6</ele>
        <time>2012-04-01T08:56:38Z</time>
      </trkpt>
      <trkpt lat="46.98015" lon="-0.72521">
        <ele>181.6</ele>
        <time>2012-04-01T08:56:39Z</time>
      </trkpt>
      <trkpt lat="46.9802" lon="-0.72521">
        <ele>181.5</ele>
        <time>2012-04-01T08:56:40Z</time>
      </trkpt>
      <trkpt lat="46.98025" lon="-0.72523">
        <ele>181.5</ele>
        <time>2012-04-01T08:56:41Z</time>
      </trkpt>
      <trkpt lat="46.9803" lon="-0.72525">
        <ele>181.3</ele>
        <time>2012-04-01T08:56:42Z</time>
      </trkpt>
      <trkpt lat="46.98035" lon="-0.72528">
        <ele>181.3</ele>
        <time>2012-04-01T08:56:43Z</time>
      </trkpt>
      <trkpt lat="46.9804" lon="-0.72531">
        <ele>181.3</ele>
        <time>2012-04-01T08:56:44Z</time>
      </trkpt>
      <trkpt lat="46.98045" lon="-0.72534">
        <ele>181.3</ele>
        <time>2012-04-01T08:56:45Z</time>
      </trkpt>
      <trkpt lat="46.9805" lon="-0.72537">
        <ele>181.1</ele>
        <time>2012-04-01T08:56:46Z</time>
      </trkpt>
      <trkpt lat="46.98055" lon="-0.72541">
        <ele>181.1</ele>
        <time>2012-04-01T08:56:47Z</time>
      </trkpt>
      <trkpt lat="46.98059" lon="-0.72545">
        <ele>181</ele>
        <time>2012-04-01T08:56:48Z</time>
      </trkpt>
      <trkpt lat="46.98064" lon="-0.72549">
        <ele>180.8</ele>
        <time>2012-04-01T08:56:49Z</time>
      </trkpt>
      <trkpt lat="46.98069" lon="-0.72553">
        <ele>180.8</ele>
        <time>2012-04-01T08:56:50Z</time>
      </trkpt>
      <trkpt lat="46.98074" lon="-0.72557">
        <ele>180.6</ele>
        <time>2012-04-01T08:56:51Z</time>
      </trkpt>
      <trkpt lat="46.98079" lon="-0.72561">
        <ele>180.6</ele>
        <time>2012-04-01T08:56:52Z</time>
      </trkpt>
      <trkpt lat="46.98083" lon="-0.72565">
        <ele>180.6</ele>
        <time>2012-04-01T08:56:53Z</time>
      </trkpt>
      <trkpt lat="46.98088" lon="-0.7257">
        <ele>180.6</ele>
        <time>2012-04-01T08:56:54Z</time>
      </trkpt>
      <trkpt lat="46.98093" lon="-0.72574">
        <ele>180.6</ele>
        <time>2012-04-01T08:56:55Z</time>
      </trkpt>
      <trkpt lat="46.98097" lon="-0.72579">
        <ele>180.5</ele>
        <time>2012-04-01T08:56:56Z</time>
      </trkpt>
      <trkpt lat="46.98101" lon="-0.72583">
        <ele>180.5</ele>
        <time>2012-04-01T08:56:57Z</time>
      </trkpt>
      <trkpt lat="46.98106" lon="-0.72588">
        <ele>180.3</ele>
        <time>2012-04-01T08:56:58Z</time>
      </trkpt>
      <trkpt lat="46.9811" lon="-0.72592">
        <ele>180.3</ele>
        <time>2012-04-01T08:56:59Z</time>
      </trkpt>
      <trkpt lat="46.98114" lon="-0.72597">
        <ele>180.3</ele>
        <time>2012-04-01T08:57:00Z</time>
      </trkpt>
      <trkpt lat="46.98119" lon="-0.72601">
        <ele>180.3</ele>
        <time>2012-04-01T08:57:01Z</time>
      </trkpt>
      <trkpt lat="46.98123" lon="-0.72605">
        <ele>180.3</ele>
        <time>2012-04-01T08:57:02Z</time>
      </trkpt>
      <trkpt lat="46.98128" lon="-0.72609">
        <ele>180.1</ele>
        <time>2012-04-01T08:57:03Z</time>
      </trkpt>
      <trkpt lat="46.98132" lon="-0.72612">
        <ele>180.1</ele>
        <time>2012-04-01T08:57:04Z</time>
      </trkpt>
      <trkpt lat="46.98137" lon="-0.72615">
        <ele>180.1</ele>
        <time>2012-04-01T08:57:05Z</time>
      </trkpt>
      <trkpt lat="46.98141" lon="-0.72617">
        <ele>180.1</ele>
        <time>2012-04-01T08:57:06Z</time>
      </trkpt>
      <trkpt lat="46.9815" lon="-0.72621">
        <ele>180.1</ele>
        <time>2012-04-01T08:57:08Z</time>
      </trkpt>
      <trkpt lat="46.98157" lon="-0.72624">
        <ele>180.1</ele>
        <time>2012-04-01T08:57:10Z</time>
      </trkpt>
      <trkpt lat="46.98164" lon="-0.7262">
        <ele>180.1</ele>
        <time>2012-04-01T08:57:31Z</time>
      </trkpt>
      <trkpt lat="46.98166" lon="-0.72618">
        <ele>180.3</ele>
        <time>2012-04-01T08:57:32Z</time>
      </trkpt>
      <trkpt lat="46.98169" lon="-0.72604">
        <ele>180.5</ele>
        <time>2012-04-01T08:57:36Z</time>
      </trkpt>
      <trkpt lat="46.98171" lon="-0.72595">
        <ele>180.6</ele>
        <time>2012-04-01T08:57:38Z</time>
      </trkpt>
      <trkpt lat="46.98173" lon="-0.72585">
        <ele>180.6</ele>
        <time>2012-04-01T08:57:40Z</time>
      </trkpt>
      <trkpt lat="46.98175" lon="-0.72575">
        <ele>180.6</ele>
        <time>2012-04-01T08:57:42Z</time>
      </trkpt>
      <trkpt lat="46.98177" lon="-0.72564">
        <ele>180.8</ele>
        <time>2012-04-01T08:57:44Z</time>
      </trkpt>
      <trkpt lat="46.9818" lon="-0.72553">
        <ele>181.1</ele>
        <time>2012-04-01T08:57:46Z</time>
      </trkpt>
      <trkpt lat="46.98183" lon="-0.72541">
        <ele>181.3</ele>
        <time>2012-04-01T08:57:48Z</time>
      </trkpt>
      <trkpt lat="46.98184" lon="-0.72528">
        <ele>181.6</ele>
        <time>2012-04-01T08:57:50Z</time>
      </trkpt>
      <trkpt lat="46.98184" lon="-0.72522">
        <ele>181.6</ele>
        <time>2012-04-01T08:57:51Z</time>
      </trkpt>
      <trkpt lat="46.98184" lon="-0.72515">
        <ele>181.6</ele>
        <time>2012-04-01T08:57:52Z</time>
      </trkpt>
      <trkpt lat="46.98183" lon="-0.72508">
        <ele>181.6</ele>
        <time>2012-04-01T08:57:53Z</time>
      </trkpt>
      <trkpt lat="46.98182" lon="-0.72502">
        <ele>181.6</ele>
        <time>2012-04-01T08:57:54Z</time>
      </trkpt>
      <trkpt lat="46.98181" lon="-0.72495">
        <ele>181.6</ele>
        <time>2012-04-01T08:57:55Z</time>
      </trkpt>
      <trkpt lat="46.9818" lon="-0.72489">
        <ele>181.6</ele>
        <time>2012-04-01T08:57:56Z</time>
      </trkpt>
      <trkpt lat="46.98179" lon="-0.72482">
        <ele>181.6</ele>
        <time>2012-04-01T08:57:57Z</time>
      </trkpt>
      <trkpt lat="46.98179" lon="-0.72476">
        <ele>181.5</ele>
        <time>2012-04-01T08:57:58Z</time>
      </trkpt>
      <trkpt lat="46.98178" lon="-0.72463">
        <ele>181.3</ele>
        <time>2012-04-01T08:58:00Z</time>
      </trkpt>
      <trkpt lat="46.9818" lon="-0.72451">
        <ele>181.3</ele>
        <time>2012-04-01T08:58:02Z</time>
      </trkpt>
      <trkpt lat="46.98184" lon="-0.72444">
        <ele>181.3</ele>
        <time>2012-04-01T08:58:04Z</time>
      </trkpt>
      <trkpt lat="46.98191" lon="-0.7244">
        <ele>181.1</ele>
        <time>2012-04-01T08:58:06Z</time>
      </trkpt>
      <trkpt lat="46.98197" lon="-0.72435">
        <ele>181.1</ele>
        <time>2012-04-01T08:58:08Z</time>
      </trkpt>
      <trkpt lat="46.98203" lon="-0.7243">
        <ele>181.1</ele>
        <time>2012-04-01T08:58:10Z</time>
      </trkpt>
      <trkpt lat="46.9821" lon="-0.72429">
        <ele>181</ele>
        <time>2012-04-01T08:58:12Z</time>
      </trkpt>
      <trkpt lat="46.98216" lon="-0.72428">
        <ele>181</ele>
        <time>2012-04-01T08:58:14Z</time>
      </trkpt>
      <trkpt lat="46.98225" lon="-0.72426">
        <ele>180.8</ele>
        <time>2012-04-01T08:58:17Z</time>
      </trkpt>
      <trkpt lat="46.98231" lon="-0.72424">
        <ele>180.8</ele>
        <time>2012-04-01T08:58:19Z</time>
      </trkpt>
      <trkpt lat="46.98237" lon="-0.72421">
        <ele>180.6</ele>
        <time>2012-04-01T08:58:21Z</time>
      </trkpt>
      <trkpt lat="46.98243" lon="-0.72417">
        <ele>180.6</ele>
        <time>2012-04-01T08:58:23Z</time>
      </trkpt>
      <trkpt lat="46.9825" lon="-0.72414">
        <ele>180.5</ele>
        <time>2012-04-01T08:58:25Z</time>
      </trkpt>
      <trkpt lat="46.98257" lon="-0.72411">
        <ele>180.5</ele>
        <time>2012-04-01T08:58:27Z</time>
      </trkpt>
      <trkpt lat="46.98263" lon="-0.72409">
        <ele>180.3</ele>
        <time>2012-04-01T08:58:29Z</time>
      </trkpt>
      <trkpt lat="46.98271" lon="-0.72407">
        <ele>180.3</ele>
        <time>2012-04-01T08:58:31Z</time>
      </trkpt>
      <trkpt lat="46.98278" lon="-0.72405">
        <ele>180.1</ele>
        <time>2012-04-01T08:58:33Z</time>
      </trkpt>
      <trkpt lat="46.98281" lon="-0.72404">
        <ele>180.1</ele>
        <time>2012-04-01T08:58:34Z</time>
      </trkpt>
      <trkpt lat="46.98291" lon="-0.72399">
        <ele>180</ele>
        <time>2012-04-01T08:58:37Z</time>
      </trkpt>
      <trkpt lat="46.98297" lon="-0.72396">
        <ele>179.8</ele>
        <time>2012-04-01T08:58:39Z</time>
      </trkpt>
      <trkpt lat="46.98303" lon="-0.72393">
        <ele>179.8</ele>
        <time>2012-04-01T08:58:41Z</time>
      </trkpt>
      <trkpt lat="46.98309" lon="-0.7239">
        <ele>179.8</ele>
        <time>2012-04-01T08:58:43Z</time>
      </trkpt>
      <trkpt lat="46.98315" lon="-0.72387">
        <ele>179.6</ele>
        <time>2012-04-01T08:58:45Z</time>
      </trkpt>
      <trkpt lat="46.98321" lon="-0.72384">
        <ele>179.6</ele>
        <time>2012-04-01T08:58:47Z</time>
      </trkpt>
      <trkpt lat="46.98327" lon="-0.72382">
        <ele>179.5</ele>
        <time>2012-04-01T08:58:49Z</time>
      </trkpt>
      <trkpt lat="46.98334" lon="-0.7238">
        <ele>179.3</ele>
        <time>2012-04-01T08:58:51Z</time>
      </trkpt>
      <trkpt lat="46.9834" lon="-0.72378">
        <ele>179.3</ele>
        <time>2012-04-01T08:58:53Z</time>
      </trkpt>
      <trkpt lat="46.98348" lon="-0.72374">
        <ele>179.1</ele>
        <time>2012-04-01T08:58:56Z</time>
      </trkpt>
      <trkpt lat="46.98351" lon="-0.72372">
        <ele>179.1</ele>
        <time>2012-04-01T08:59:09Z</time>
      </trkpt>
      <trkpt lat="46.98356" lon="-0.72369">
        <ele>178.8</ele>
        <time>2012-04-01T08:59:14Z</time>
      </trkpt>
      <trkpt lat="46.98361" lon="-0.72366">
        <ele>178.8</ele>
        <time>2012-04-01T08:59:23Z</time>
      </trkpt>
      <trkpt lat="46.98366" lon="-0.72356">
        <ele>178.8</ele>
        <time>2012-04-01T08:59:49Z</time>
      </trkpt>
      <trkpt lat="46.98366" lon="-0.72353">
        <ele>178.8</ele>
        <time>2012-04-01T08:59:50Z</time>
      </trkpt>
      <trkpt lat="46.98365" lon="-0.72334">
        <ele>178.8</ele>
        <time>2012-04-01T08:59:55Z</time>
      </trkpt>
      <trkpt lat="46.98364" lon="-0.72323">
        <ele>178.8</ele>
        <time>2012-04-01T08:59:57Z</time>
      </trkpt>
      <trkpt lat="46.98363" lon="-0.72312">
        <ele>179.1</ele>
        <time>2012-04-01T08:59:59Z</time>
      </trkpt>
      <trkpt lat="46.98363" lon="-0.723">
        <ele>179.6</ele>
        <time>2012-04-01T09:00:01Z</time>
      </trkpt>
      <trkpt lat="46.98361" lon="-0.72287">
        <ele>179.8</ele>
        <time>2012-04-01T09:00:03Z</time>
      </trkpt>
      <trkpt lat="46.98358" lon="-0.72275">
        <ele>179.8</ele>
        <time>2012-04-01T09:00:05Z</time>
      </trkpt>
      <trkpt lat="46.98353" lon="-0.72264">
        <ele>179.8</ele>
        <time>2012-04-01T09:00:07Z</time>
      </trkpt>
      <trkpt lat="46.98348" lon="-0.72253">
        <ele>179.8</ele>
        <time>2012-04-01T09:00:09Z</time>
      </trkpt>
      <trkpt lat="46.98346" lon="-0.72247">
        <ele>179.8</ele>
        <time>2012-04-01T09:00:10Z</time>
      </trkpt>
      <trkpt lat="46.98344" lon="-0.72241">
        <ele>179.6</ele>
        <time>2012-04-01T09:00:11Z</time>
      </trkpt>
      <trkpt lat="46.98341" lon="-0.72235">
        <ele>179.6</ele>
        <time>2012-04-01T09:00:12Z</time>
      </trkpt>
      <trkpt lat="46.98339" lon="-0.72229">
        <ele>179.5</ele>
        <time>2012-04-01T09:00:13Z</time>
      </trkpt>
      <trkpt lat="46.98337" lon="-0.72223">
        <ele>179.3</ele>
        <time>2012-04-01T09:00:14Z</time>
      </trkpt>
      <trkpt lat="46.98334" lon="-0.72211">
        <ele>178.8</ele>
        <time>2012-04-01T09:00:16Z</time>
      </trkpt>
      <trkpt lat="46.98332" lon="-0.72205">
        <ele>178.6</ele>
        <time>2012-04-01T09:00:17Z</time>
      </trkpt>
      <trkpt lat="46.9833" lon="-0.72199">
        <ele>178.3</ele>
        <time>2012-04-01T09:00:18Z</time>
      </trkpt>
      <trkpt lat="46.98327" lon="-0.72193">
        <ele>178.1</ele>
        <time>2012-04-01T09:00:19Z</time>
      </trkpt>
      <trkpt lat="46.98324" lon="-0.72187">
        <ele>177.8</ele>
        <time>2012-04-01T09:00:20Z</time>
      </trkpt>
      <trkpt lat="46.9832" lon="-0.72181">
        <ele>177.6</ele>
        <time>2012-04-01T09:00:21Z</time>
      </trkpt>
      <trkpt lat="46.98317" lon="-0.72174">
        <ele>177.3</ele>
        <time>2012-04-01T09:00:22Z</time>
      </trkpt>
      <trkpt lat="46.98315" lon="-0.72166">
        <ele>177.1</ele>
        <time>2012-04-01T09:00:23Z</time>
      </trkpt>
      <trkpt lat="46.98312" lon="-0.72158">
        <ele>176.8</ele>
        <time>2012-04-01T09:00:24Z</time>
      </trkpt>
      <trkpt lat="46.9831" lon="-0.7215">
        <ele>176.6</ele>
        <time>2012-04-01T09:00:25Z</time>
      </trkpt>
      <trkpt lat="46.98308" lon="-0.72142">
        <ele>176.3</ele>
        <time>2012-04-01T09:00:26Z</time>
      </trkpt>
      <trkpt lat="46.98306" lon="-0.72134">
        <ele>176.1</ele>
        <time>2012-04-01T09:00:27Z</time>
      </trkpt>
      <trkpt lat="46.98304" lon="-0.72125">
        <ele>175.8</ele>
        <time>2012-04-01T09:00:28Z</time>
      </trkpt>
      <trkpt lat="46.98302" lon="-0.72117">
        <ele>175.6</ele>
        <time>2012-04-01T09:00:29Z</time>
      </trkpt>
      <trkpt lat="46.983" lon="-0.72109">
        <ele>175.3</ele>
        <time>2012-04-01T09:00:30Z</time>
      </trkpt>
      <trkpt lat="46.98298" lon="-0.72102">
        <ele>175.1</ele>
        <time>2012-04-01T09:00:31Z</time>
      </trkpt>
      <trkpt lat="46.98297" lon="-0.72094">
        <ele>174.8</ele>
        <time>2012-04-01T09:00:32Z</time>
      </trkpt>
      <trkpt lat="46.98295" lon="-0.72087">
        <ele>174.6</ele>
        <time>2012-04-01T09:00:33Z</time>
      </trkpt>
      <trkpt lat="46.98293" lon="-0.7208">
        <ele>174.5</ele>
        <time>2012-04-01T09:00:34Z</time>
      </trkpt>
      <trkpt lat="46.98291" lon="-0.72073">
        <ele>174.3</ele>
        <time>2012-04-01T09:00:35Z</time>
      </trkpt>
      <trkpt lat="46.98289" lon="-0.72066">
        <ele>174.1</ele>
        <time>2012-04-01T09:00:36Z</time>
      </trkpt>
      <trkpt lat="46.98287" lon="-0.72058">
        <ele>174.1</ele>
        <time>2012-04-01T09:00:37Z</time>
      </trkpt>
      <trkpt lat="46.98286" lon="-0.72051">
        <ele>174</ele>
        <time>2012-04-01T09:00:38Z</time>
      </trkpt>
      <trkpt lat="46.98284" lon="-0.72043">
        <ele>173.8</ele>
        <time>2012-04-01T09:00:39Z</time>
      </trkpt>
      <trkpt lat="46.98282" lon="-0.72035">
        <ele>173.6</ele>
        <time>2012-04-01T09:00:40Z</time>
      </trkpt>
      <trkpt lat="46.9828" lon="-0.72028">
        <ele>173.6</ele>
        <time>2012-04-01T09:00:41Z</time>
      </trkpt>
      <trkpt lat="46.98278" lon="-0.7202">
        <ele>173.3</ele>
        <time>2012-04-01T09:00:42Z</time>
      </trkpt>
      <trkpt lat="46.98276" lon="-0.72012">
        <ele>173.3</ele>
        <time>2012-04-01T09:00:43Z</time>
      </trkpt>
      <trkpt lat="46.98274" lon="-0.72005">
        <ele>173.1</ele>
        <time>2012-04-01T09:00:44Z</time>
      </trkpt>
      <trkpt lat="46.98272" lon="-0.71997">
        <ele>173</ele>
        <time>2012-04-01T09:00:45Z</time>
      </trkpt>
      <trkpt lat="46.9827" lon="-0.71989">
        <ele>172.8</ele>
        <time>2012-04-01T09:00:46Z</time>
      </trkpt>
      <trkpt lat="46.98268" lon="-0.71981">
        <ele>172.6</ele>
        <time>2012-04-01T09:00:47Z</time>
      </trkpt>
      <trkpt lat="46.98266" lon="-0.71973">
        <ele>172.6</ele>
        <time>2012-04-01T09:00:48Z</time>
      </trkpt>
      <trkpt lat="46.98264" lon="-0.71965">
        <ele>172.5</ele>
        <time>2012-04-01T09:00:49Z</time>
      </trkpt>
      <trkpt lat="46.98262" lon="-0.71958">
        <ele>172.5</ele>
        <time>2012-04-01T09:00:50Z</time>
      </trkpt>
      <trkpt lat="46.9826" lon="-0.7195">
        <ele>172.3</ele>
        <time>2012-04-01T09:00:51Z</time>
      </trkpt>
      <trkpt lat="46.98259" lon="-0.71943">
        <ele>172.3</ele>
        <time>2012-04-01T09:00:52Z</time>
      </trkpt>
      <trkpt lat="46.98259" lon="-0.71936">
        <ele>172.1</ele>
        <time>2012-04-01T09:00:53Z</time>
      </trkpt>
      <trkpt lat="46.9826" lon="-0.71923">
        <ele>171.8</ele>
        <time>2012-04-01T09:00:55Z</time>
      </trkpt>
      <trkpt lat="46.98261" lon="-0.71917">
        <ele>171.6</ele>
        <time>2012-04-01T09:00:56Z</time>
      </trkpt>
      <trkpt lat="46.98262" lon="-0.7191">
        <ele>171.5</ele>
        <time>2012-04-01T09:00:57Z</time>
      </trkpt>
      <trkpt lat="46.98264" lon="-0.71903">
        <ele>171.3</ele>
        <time>2012-04-01T09:00:58Z</time>
      </trkpt>
      <trkpt lat="46.98267" lon="-0.71891">
        <ele>171.1</ele>
        <time>2012-04-01T09:01:00Z</time>
      </trkpt>
      <trkpt lat="46.98271" lon="-0.71882">
        <ele>170.8</ele>
        <time>2012-04-01T09:01:02Z</time>
      </trkpt>
      <trkpt lat="46.98278" lon="-0.71876">
        <ele>170.6</ele>
        <time>2012-04-01T09:01:04Z</time>
      </trkpt>
      <trkpt lat="46.98282" lon="-0.71874">
        <ele>170.6</ele>
        <time>2012-04-01T09:01:05Z</time>
      </trkpt>
      <trkpt lat="46.98287" lon="-0.71871">
        <ele>170.5</ele>
        <time>2012-04-01T09:01:06Z</time>
      </trkpt>
      <trkpt lat="46.98291" lon="-0.7187">
        <ele>170.5</ele>
        <time>2012-04-01T09:01:07Z</time>
      </trkpt>
      <trkpt lat="46.98295" lon="-0.71868">
        <ele>170.5</ele>
        <time>2012-04-01T09:01:08Z</time>
      </trkpt>
      <trkpt lat="46.983" lon="-0.71866">
        <ele>170.6</ele>
        <time>2012-04-01T09:01:09Z</time>
      </trkpt>
      <trkpt lat="46.98304" lon="-0.71864">
        <ele>170.6</ele>
        <time>2012-04-01T09:01:10Z</time>
      </trkpt>
      <trkpt lat="46.98309" lon="-0.71862">
        <ele>170.6</ele>
        <time>2012-04-01T09:01:11Z</time>
      </trkpt>
      <trkpt lat="46.98314" lon="-0.7186">
        <ele>170.6</ele>
        <time>2012-04-01T09:01:12Z</time>
      </trkpt>
      <trkpt lat="46.98319" lon="-0.71858">
        <ele>170.8</ele>
        <time>2012-04-01T09:01:13Z</time>
      </trkpt>
      <trkpt lat="46.98324" lon="-0.71856">
        <ele>170.8</ele>
        <time>2012-04-01T09:01:14Z</time>
      </trkpt>
      <trkpt lat="46.98329" lon="-0.71854">
        <ele>170.8</ele>
        <time>2012-04-01T09:01:15Z</time>
      </trkpt>
      <trkpt lat="46.98335" lon="-0.71851">
        <ele>171</ele>
        <time>2012-04-01T09:01:16Z</time>
      </trkpt>
      <trkpt lat="46.98341" lon="-0.71849">
        <ele>171</ele>
        <time>2012-04-01T09:01:17Z</time>
      </trkpt>
      <trkpt lat="46.98346" lon="-0.71847">
        <ele>171</ele>
        <time>2012-04-01T09:01:18Z</time>
      </trkpt>
      <trkpt lat="46.98352" lon="-0.71845">
        <ele>171</ele>
        <time>2012-04-01T09:01:19Z</time>
      </trkpt>
      <trkpt lat="46.98358" lon="-0.71843">
        <ele>171</ele>
        <time>2012-04-01T09:01:20Z</time>
      </trkpt>
      <trkpt lat="46.98363" lon="-0.71842">
        <ele>171</ele>
        <time>2012-04-01T09:01:21Z</time>
      </trkpt>
      <trkpt lat="46.98369" lon="-0.71841">
        <ele>171.1</ele>
        <time>2012-04-01T09:01:22Z</time>
      </trkpt>
      <trkpt lat="46.98375" lon="-0.71839">
        <ele>171</ele>
        <time>2012-04-01T09:01:23Z</time>
      </trkpt>
      <trkpt lat="46.9838" lon="-0.71838">
        <ele>171</ele>
        <time>2012-04-01T09:01:24Z</time>
      </trkpt>
      <trkpt lat="46.98385" lon="-0.71837">
        <ele>171</ele>
        <time>2012-04-01T09:01:25Z</time>
      </trkpt>
      <trkpt lat="46.98391" lon="-0.71836">
        <ele>171</ele>
        <time>2012-04-01T09:01:26Z</time>
      </trkpt>
      <trkpt lat="46.98396" lon="-0.71835">
        <ele>171</ele>
        <time>2012-04-01T09:01:27Z</time>
      </trkpt>
      <trkpt lat="46.98401" lon="-0.71834">
        <ele>171</ele>
        <time>2012-04-01T09:01:28Z</time>
      </trkpt>
      <trkpt lat="46.98407" lon="-0.71833">
        <ele>171</ele>
        <time>2012-04-01T09:01:29Z</time>
      </trkpt>
      <trkpt lat="46.98412" lon="-0.71832">
        <ele>171</ele>
        <time>2012-04-01T09:01:30Z</time>
      </trkpt>
      <trkpt lat="46.98417" lon="-0.71831">
        <ele>170.8</ele>
        <time>2012-04-01T09:01:31Z</time>
      </trkpt>
      <trkpt lat="46.98422" lon="-0.7183">
        <ele>170.8</ele>
        <time>2012-04-01T09:01:32Z</time>
      </trkpt>
      <trkpt lat="46.98427" lon="-0.71829">
        <ele>170.8</ele>
        <time>2012-04-01T09:01:33Z</time>
      </trkpt>
      <trkpt lat="46.98431" lon="-0.71828">
        <ele>170.8</ele>
        <time>2012-04-01T09:01:34Z</time>
      </trkpt>
      <trkpt lat="46.98437" lon="-0.71827">
        <ele>170.8</ele>
        <time>2012-04-01T09:01:35Z</time>
      </trkpt>
      <trkpt lat="46.98442" lon="-0.71826">
        <ele>170.6</ele>
        <time>2012-04-01T09:01:36Z</time>
      </trkpt>
      <trkpt lat="46.98447" lon="-0.71825">
        <ele>170.6</ele>
        <time>2012-04-01T09:01:37Z</time>
      </trkpt>
      <trkpt lat="46.98452" lon="-0.71825">
        <ele>170.6</ele>
        <time>2012-04-01T09:01:38Z</time>
      </trkpt>
      <trkpt lat="46.98457" lon="-0.71825">
        <ele>170.6</ele>
        <time>2012-04-01T09:01:39Z</time>
      </trkpt>
      <trkpt lat="46.98462" lon="-0.71825">
        <ele>170.5</ele>
        <time>2012-04-01T09:01:40Z</time>
      </trkpt>
      <trkpt lat="46.98471" lon="-0.71825">
        <ele>170.3</ele>
        <time>2012-04-01T09:01:42Z</time>
      </trkpt>
      <trkpt lat="46.98477" lon="-0.71818">
        <ele>170.1</ele>
        <time>2012-04-01T09:01:44Z</time>
      </trkpt>
      <trkpt lat="46.98477" lon="-0.71807">
        <ele>170.1</ele>
        <time>2012-04-01T09:01:46Z</time>
      </trkpt>
      <trkpt lat="46.98475" lon="-0.71794">
        <ele>170</ele>
        <time>2012-04-01T09:01:48Z</time>
      </trkpt>
      <trkpt lat="46.98473" lon="-0.71788">
        <ele>169.8</ele>
        <time>2012-04-01T09:01:49Z</time>
      </trkpt>
      <trkpt lat="46.98471" lon="-0.71781">
        <ele>169.8</ele>
        <time>2012-04-01T09:01:50Z</time>
      </trkpt>
      <trkpt lat="46.9847" lon="-0.71773">
        <ele>169.8</ele>
        <time>2012-04-01T09:01:51Z</time>
      </trkpt>
      <trkpt lat="46.98468" lon="-0.71766">
        <ele>169.6</ele>
        <time>2012-04-01T09:01:52Z</time>
      </trkpt>
      <trkpt lat="46.98466" lon="-0.71758">
        <ele>169.6</ele>
        <time>2012-04-01T09:01:53Z</time>
      </trkpt>
      <trkpt lat="46.98465" lon="-0.7175">
        <ele>169.6</ele>
        <time>2012-04-01T09:01:54Z</time>
      </trkpt>
      <trkpt lat="46.98463" lon="-0.71742">
        <ele>169.6</ele>
        <time>2012-04-01T09:01:55Z</time>
      </trkpt>
      <trkpt lat="46.98461" lon="-0.71734">
        <ele>169.5</ele>
        <time>2012-04-01T09:01:56Z</time>
      </trkpt>
      <trkpt lat="46.9846" lon="-0.71726">
        <ele>169.3</ele>
        <time>2012-04-01T09:01:57Z</time>
      </trkpt>
      <trkpt lat="46.98458" lon="-0.71718">
        <ele>169.3</ele>
        <time>2012-04-01T09:01:58Z</time>
      </trkpt>
      <trkpt lat="46.98456" lon="-0.7171">
        <ele>169.3</ele>
        <time>2012-04-01T09:01:59Z</time>
      </trkpt>
      <trkpt lat="46.98455" lon="-0.71702">
        <ele>169.1</ele>
        <time>2012-04-01T09:02:00Z</time>
      </trkpt>
      <trkpt lat="46.98453" lon="-0.71694">
        <ele>169.1</ele>
        <time>2012-04-01T09:02:01Z</time>
      </trkpt>
      <trkpt lat="46.98451" lon="-0.71686">
        <ele>169.1</ele>
        <time>2012-04-01T09:02:02Z</time>
      </trkpt>
      <trkpt lat="46.9845" lon="-0.71679">
        <ele>169.1</ele>
        <time>2012-04-01T09:02:03Z</time>
      </trkpt>
      <trkpt lat="46.98448" lon="-0.71671">
        <ele>169.1</ele>
        <time>2012-04-01T09:02:04Z</time>
      </trkpt>
      <trkpt lat="46.98447" lon="-0.71664">
        <ele>169</ele>
        <time>2012-04-01T09:02:05Z</time>
      </trkpt>
      <trkpt lat="46.98445" lon="-0.71657">
        <ele>169</ele>
        <time>2012-04-01T09:02:06Z</time>
      </trkpt>
      <trkpt lat="46.98444" lon="-0.7165">
        <ele>168.8</ele>
        <time>2012-04-01T09:02:07Z</time>
      </trkpt>
      <trkpt lat="46.98442" lon="-0.71643">
        <ele>168.8</ele>
        <time>2012-04-01T09:02:08Z</time>
      </trkpt>
      <trkpt lat="46.98441" lon="-0.71636">
        <ele>168.8</ele>
        <time>2012-04-01T09:02:09Z</time>
      </trkpt>
      <trkpt lat="46.98439" lon="-0.71629">
        <ele>168.8</ele>
        <time>2012-04-01T09:02:10Z</time>
      </trkpt>
      <trkpt lat="46.98437" lon="-0.71622">
        <ele>168.6</ele>
        <time>2012-04-01T09:02:11Z</time>
      </trkpt>
      <trkpt lat="46.98433" lon="-0.71617">
        <ele>168.6</ele>
        <time>2012-04-01T09:02:12Z</time>
      </trkpt>
      <trkpt lat="46.98429" lon="-0.71612">
        <ele>168.6</ele>
        <time>2012-04-01T09:02:13Z</time>
      </trkpt>
      <trkpt lat="46.98425" lon="-0.71609">
        <ele>168.5</ele>
        <time>2012-04-01T09:02:14Z</time>
      </trkpt>
      <trkpt lat="46.9842" lon="-0.71605">
        <ele>168.3</ele>
        <time>2012-04-01T09:02:15Z</time>
      </trkpt>
      <trkpt lat="46.98415" lon="-0.71603">
        <ele>168.3</ele>
        <time>2012-04-01T09:02:16Z</time>
      </trkpt>
      <trkpt lat="46.98409" lon="-0.716">
        <ele>168.3</ele>
        <time>2012-04-01T09:02:17Z</time>
      </trkpt>
      <trkpt lat="46.98404" lon="-0.71597">
        <ele>168.3</ele>
        <time>2012-04-01T09:02:18Z</time>
      </trkpt>
      <trkpt lat="46.98398" lon="-0.71594">
        <ele>168.3</ele>
        <time>2012-04-01T09:02:19Z</time>
      </trkpt>
      <trkpt lat="46.98393" lon="-0.7159">
        <ele>168.3</ele>
        <time>2012-04-01T09:02:20Z</time>
      </trkpt>
      <trkpt lat="46.98388" lon="-0.71586">
        <ele>168.3</ele>
        <time>2012-04-01T09:02:21Z</time>
      </trkpt>
      <trkpt lat="46.98384" lon="-0.71582">
        <ele>168.3</ele>
        <time>2012-04-01T09:02:22Z</time>
      </trkpt>
      <trkpt lat="46.98379" lon="-0.71577">
        <ele>168.3</ele>
        <time>2012-04-01T09:02:23Z</time>
      </trkpt>
      <trkpt lat="46.98375" lon="-0.71571">
        <ele>168.3</ele>
        <time>2012-04-01T09:02:24Z</time>
      </trkpt>
      <trkpt lat="46.98371" lon="-0.71566">
        <ele>168.3</ele>
        <time>2012-04-01T09:02:25Z</time>
      </trkpt>
      <trkpt lat="46.98367" lon="-0.7156">
        <ele>168.3</ele>
        <time>2012-04-01T09:02:26Z</time>
      </trkpt>
      <trkpt lat="46.98364" lon="-0.71554">
        <ele>168.3</ele>
        <time>2012-04-01T09:02:27Z</time>
      </trkpt>
      <trkpt lat="46.98361" lon="-0.71548">
        <ele>168.3</ele>
        <time>2012-04-01T09:02:28Z</time>
      </trkpt>
      <trkpt lat="46.98357" lon="-0.71542">
        <ele>168.3</ele>
        <time>2012-04-01T09:02:29Z</time>
      </trkpt>
      <trkpt lat="46.98354" lon="-0.71536">
        <ele>168.3</ele>
        <time>2012-04-01T09:02:30Z</time>
      </trkpt>
      <trkpt lat="46.9835" lon="-0.7153">
        <ele>168.3</ele>
        <time>2012-04-01T09:02:31Z</time>
      </trkpt>
      <trkpt lat="46.98347" lon="-0.71524">
        <ele>168.3</ele>
        <time>2012-04-01T09:02:32Z</time>
      </trkpt>
      <trkpt lat="46.98344" lon="-0.71519">
        <ele>168.3</ele>
        <time>2012-04-01T09:02:33Z</time>
      </trkpt>
      <trkpt lat="46.9834" lon="-0.71513">
        <ele>168.3</ele>
        <time>2012-04-01T09:02:34Z</time>
      </trkpt>
      <trkpt lat="46.98336" lon="-0.71507">
        <ele>168.3</ele>
        <time>2012-04-01T09:02:35Z</time>
      </trkpt>
      <trkpt lat="46.98333" lon="-0.71502">
        <ele>168.3</ele>
        <time>2012-04-01T09:02:36Z</time>
      </trkpt>
      <trkpt lat="46.98329" lon="-0.71497">
        <ele>168.3</ele>
        <time>2012-04-01T09:02:37Z</time>
      </trkpt>
      <trkpt lat="46.98325" lon="-0.71491">
        <ele>168.1</ele>
        <time>2012-04-01T09:02:38Z</time>
      </trkpt>
      <trkpt lat="46.98321" lon="-0.71486">
        <ele>168.1</ele>
        <time>2012-04-01T09:02:39Z</time>
      </trkpt>
      <trkpt lat="46.98318" lon="-0.71481">
        <ele>168.1</ele>
        <time>2012-04-01T09:02:40Z</time>
      </trkpt>
      <trkpt lat="46.98314" lon="-0.71475">
        <ele>168.1</ele>
        <time>2012-04-01T09:02:41Z</time>
      </trkpt>
      <trkpt lat="46.9831" lon="-0.7147">
        <ele>168</ele>
        <time>2012-04-01T09:02:42Z</time>
      </trkpt>
      <trkpt lat="46.98307" lon="-0.71465">
        <ele>168.1</ele>
        <time>2012-04-01T09:02:43Z</time>
      </trkpt>
      <trkpt lat="46.98303" lon="-0.7146">
        <ele>168.1</ele>
        <time>2012-04-01T09:02:44Z</time>
      </trkpt>
      <trkpt lat="46.983" lon="-0.71455">
        <ele>168.1</ele>
        <time>2012-04-01T09:02:45Z</time>
      </trkpt>
      <trkpt lat="46.98296" lon="-0.7145">
        <ele>168.3</ele>
        <time>2012-04-01T09:02:46Z</time>
      </trkpt>
      <trkpt lat="46.98292" lon="-0.71444">
        <ele>168.3</ele>
        <time>2012-04-01T09:02:47Z</time>
      </trkpt>
      <trkpt lat="46.98289" lon="-0.71439">
        <ele>168.5</ele>
        <time>2012-04-01T09:02:48Z</time>
      </trkpt>
      <trkpt lat="46.98285" lon="-0.71434">
        <ele>168.6</ele>
        <time>2012-04-01T09:02:49Z</time>
      </trkpt>
      <trkpt lat="46.98281" lon="-0.71429">
        <ele>168.6</ele>
        <time>2012-04-01T09:02:50Z</time>
      </trkpt>
      <trkpt lat="46.98278" lon="-0.71423">
        <ele>168.6</ele>
        <time>2012-04-01T09:02:51Z</time>
      </trkpt>
      <trkpt lat="46.98274" lon="-0.71418">
        <ele>168.8</ele>
        <time>2012-04-01T09:02:52Z</time>
      </trkpt>
      <trkpt lat="46.98271" lon="-0.71412">
        <ele>168.8</ele>
        <time>2012-04-01T09:02:53Z</time>
      </trkpt>
      <trkpt lat="46.98268" lon="-0.71407">
        <ele>168.8</ele>
        <time>2012-04-01T09:02:54Z</time>
      </trkpt>
      <trkpt lat="46.98265" lon="-0.71403">
        <ele>168.8</ele>
        <time>2012-04-01T09:02:55Z</time>
      </trkpt>
      <trkpt lat="46.98261" lon="-0.71399">
        <ele>169</ele>
        <time>2012-04-01T09:02:56Z</time>
      </trkpt>
      <trkpt lat="46.98257" lon="-0.71395">
        <ele>169</ele>
        <time>2012-04-01T09:02:57Z</time>
      </trkpt>
      <trkpt lat="46.98249" lon="-0.71389">
        <ele>169.1</ele>
        <time>2012-04-01T09:02:59Z</time>
      </trkpt>
      <trkpt lat="46.98242" lon="-0.71383">
        <ele>169.1</ele>
        <time>2012-04-01T09:03:01Z</time>
      </trkpt>
      <trkpt lat="46.98236" lon="-0.71378">
        <ele>169.1</ele>
        <time>2012-04-01T09:03:03Z</time>
      </trkpt>
      <trkpt lat="46.9823" lon="-0.71374">
        <ele>169.1</ele>
        <time>2012-04-01T09:03:05Z</time>
      </trkpt>
      <trkpt lat="46.98224" lon="-0.71369">
        <ele>169.1</ele>
        <time>2012-04-01T09:03:07Z</time>
      </trkpt>
      <trkpt lat="46.98218" lon="-0.71365">
        <ele>169.1</ele>
        <time>2012-04-01T09:03:09Z</time>
      </trkpt>
      <trkpt lat="46.98211" lon="-0.7136">
        <ele>169.3</ele>
        <time>2012-04-01T09:03:11Z</time>
      </trkpt>
      <trkpt lat="46.98204" lon="-0.71355">
        <ele>169.3</ele>
        <time>2012-04-01T09:03:13Z</time>
      </trkpt>
      <trkpt lat="46.98197" lon="-0.7135">
        <ele>169.3</ele>
        <time>2012-04-01T09:03:15Z</time>
      </trkpt>
      <trkpt lat="46.9819" lon="-0.71345">
        <ele>170</ele>
        <time>2012-04-01T09:03:17Z</time>
      </trkpt>
      <trkpt lat="46.98183" lon="-0.71339">
        <ele>170.8</ele>
        <time>2012-04-01T09:03:19Z</time>
      </trkpt>
      <trkpt lat="46.98176" lon="-0.71334">
        <ele>171.3</ele>
        <time>2012-04-01T09:03:21Z</time>
      </trkpt>
      <trkpt lat="46.98169" lon="-0.71328">
        <ele>171.8</ele>
        <time>2012-04-01T09:03:23Z</time>
      </trkpt>
      <trkpt lat="46.98162" lon="-0.71322">
        <ele>172.3</ele>
        <time>2012-04-01T09:03:25Z</time>
      </trkpt>
      <trkpt lat="46.98155" lon="-0.71315">
        <ele>172.5</ele>
        <time>2012-04-01T09:03:27Z</time>
      </trkpt>
      <trkpt lat="46.98148" lon="-0.71308">
        <ele>172.6</ele>
        <time>2012-04-01T09:03:29Z</time>
      </trkpt>
      <trkpt lat="46.98142" lon="-0.71301">
        <ele>172.8</ele>
        <time>2012-04-01T09:03:31Z</time>
      </trkpt>
      <trkpt lat="46.98135" lon="-0.71293">
        <ele>173.1</ele>
        <time>2012-04-01T09:03:33Z</time>
      </trkpt>
      <trkpt lat="46.98129" lon="-0.71286">
        <ele>173.3</ele>
        <time>2012-04-01T09:03:35Z</time>
      </trkpt>
      <trkpt lat="46.98122" lon="-0.71279">
        <ele>173.6</ele>
        <time>2012-04-01T09:03:37Z</time>
      </trkpt>
      <trkpt lat="46.98116" lon="-0.71271">
        <ele>173.8</ele>
        <time>2012-04-01T09:03:39Z</time>
      </trkpt>
      <trkpt lat="46.98109" lon="-0.71263">
        <ele>173.8</ele>
        <time>2012-04-01T09:03:41Z</time>
      </trkpt>
      <trkpt lat="46.98103" lon="-0.71255">
        <ele>173.8</ele>
        <time>2012-04-01T09:03:43Z</time>
      </trkpt>
      <trkpt lat="46.98096" lon="-0.71247">
        <ele>173.8</ele>
        <time>2012-04-01T09:03:45Z</time>
      </trkpt>
      <trkpt lat="46.98093" lon="-0.71242">
        <ele>173.8</ele>
        <time>2012-04-01T09:03:46Z</time>
      </trkpt>
      <trkpt lat="46.9809" lon="-0.71238">
        <ele>173.8</ele>
        <time>2012-04-01T09:03:47Z</time>
      </trkpt>
      <trkpt lat="46.98087" lon="-0.71233">
        <ele>173.8</ele>
        <time>2012-04-01T09:03:48Z</time>
      </trkpt>
      <trkpt lat="46.98084" lon="-0.71228">
        <ele>173.8</ele>
        <time>2012-04-01T09:03:49Z</time>
      </trkpt>
      <trkpt lat="46.98081" lon="-0.71223">
        <ele>173.8</ele>
        <time>2012-04-01T09:03:50Z</time>
      </trkpt>
      <trkpt lat="46.98078" lon="-0.71218">
        <ele>173.8</ele>
        <time>2012-04-01T09:03:51Z</time>
      </trkpt>
      <trkpt lat="46.98074" lon="-0.71213">
        <ele>173.8</ele>
        <time>2012-04-01T09:03:52Z</time>
      </trkpt>
      <trkpt lat="46.98072" lon="-0.71208">
        <ele>173.8</ele>
        <time>2012-04-01T09:03:53Z</time>
      </trkpt>
      <trkpt lat="46.98069" lon="-0.71203">
        <ele>173.6</ele>
        <time>2012-04-01T09:03:54Z</time>
      </trkpt>
      <trkpt lat="46.9806" lon="-0.71188">
        <ele>173.5</ele>
        <time>2012-04-01T09:03:57Z</time>
      </trkpt>
      <trkpt lat="46.98057" lon="-0.71183">
        <ele>173.3</ele>
        <time>2012-04-01T09:03:58Z</time>
      </trkpt>
      <trkpt lat="46.98054" lon="-0.71179">
        <ele>173.3</ele>
        <time>2012-04-01T09:03:59Z</time>
      </trkpt>
      <trkpt lat="46.98047" lon="-0.71169">
        <ele>173.1</ele>
        <time>2012-04-01T09:04:01Z</time>
      </trkpt>
      <trkpt lat="46.98042" lon="-0.71162">
        <ele>173.1</ele>
        <time>2012-04-01T09:04:03Z</time>
      </trkpt>
      <trkpt lat="46.98035" lon="-0.71154">
        <ele>173.1</ele>
        <time>2012-04-01T09:04:05Z</time>
      </trkpt>
      <trkpt lat="46.98032" lon="-0.7115">
        <ele>173.1</ele>
        <time>2012-04-01T09:04:06Z</time>
      </trkpt>
      <trkpt lat="46.98028" lon="-0.71146">
        <ele>173.1</ele>
        <time>2012-04-01T09:04:07Z</time>
      </trkpt>
      <trkpt lat="46.98024" lon="-0.71143">
        <ele>173.1</ele>
        <time>2012-04-01T09:04:08Z</time>
      </trkpt>
      <trkpt lat="46.9802" lon="-0.71139">
        <ele>173.1</ele>
        <time>2012-04-01T09:04:09Z</time>
      </trkpt>
      <trkpt lat="46.98016" lon="-0.71136">
        <ele>173.1</ele>
        <time>2012-04-01T09:04:10Z</time>
      </trkpt>
      <trkpt lat="46.98012" lon="-0.71132">
        <ele>173</ele>
        <time>2012-04-01T09:04:11Z</time>
      </trkpt>
      <trkpt lat="46.98004" lon="-0.71127">
        <ele>173</ele>
        <time>2012-04-01T09:04:13Z</time>
      </trkpt>
      <trkpt lat="46.97996" lon="-0.71123">
        <ele>172.8</ele>
        <time>2012-04-01T09:04:15Z</time>
      </trkpt>
      <trkpt lat="46.97987" lon="-0.71119">
        <ele>172.8</ele>
        <time>2012-04-01T09:04:17Z</time>
      </trkpt>
      <trkpt lat="46.97983" lon="-0.71118">
        <ele>172.8</ele>
        <time>2012-04-01T09:04:18Z</time>
      </trkpt>
      <trkpt lat="46.97978" lon="-0.71116">
        <ele>172.8</ele>
        <time>2012-04-01T09:04:19Z</time>
      </trkpt>
      <trkpt lat="46.97973" lon="-0.71115">
        <ele>172.8</ele>
        <time>2012-04-01T09:04:20Z</time>
      </trkpt>
      <trkpt lat="46.97968" lon="-0.71113">
        <ele>173</ele>
        <time>2012-04-01T09:04:21Z</time>
      </trkpt>
      <trkpt lat="46.97962" lon="-0.71112">
        <ele>173.1</ele>
        <time>2012-04-01T09:04:22Z</time>
      </trkpt>
      <trkpt lat="46.97957" lon="-0.71111">
        <ele>173.3</ele>
        <time>2012-04-01T09:04:23Z</time>
      </trkpt>
      <trkpt lat="46.97953" lon="-0.7111">
        <ele>173.6</ele>
        <time>2012-04-01T09:04:24Z</time>
      </trkpt>
      <trkpt lat="46.97948" lon="-0.71109">
        <ele>173.6</ele>
        <time>2012-04-01T09:04:25Z</time>
      </trkpt>
      <trkpt lat="46.97943" lon="-0.71108">
        <ele>173.8</ele>
        <time>2012-04-01T09:04:26Z</time>
      </trkpt>
      <trkpt lat="46.97939" lon="-0.71106">
        <ele>174</ele>
        <time>2012-04-01T09:04:27Z</time>
      </trkpt>
      <trkpt lat="46.97934" lon="-0.71105">
        <ele>174.1</ele>
        <time>2012-04-01T09:04:28Z</time>
      </trkpt>
      <trkpt lat="46.97925" lon="-0.71103">
        <ele>174.3</ele>
        <time>2012-04-01T09:04:30Z</time>
      </trkpt>
      <trkpt lat="46.97917" lon="-0.71101">
        <ele>174.6</ele>
        <time>2012-04-01T09:04:32Z</time>
      </trkpt>
      <trkpt lat="46.97908" lon="-0.711">
        <ele>174.8</ele>
        <time>2012-04-01T09:04:34Z</time>
      </trkpt>
      <trkpt lat="46.979" lon="-0.711">
        <ele>174.8</ele>
        <time>2012-04-01T09:04:36Z</time>
      </trkpt>
      <trkpt lat="46.97892" lon="-0.711">
        <ele>174.8</ele>
        <time>2012-04-01T09:04:38Z</time>
      </trkpt>
      <trkpt lat="46.97885" lon="-0.71101">
        <ele>174.8</ele>
        <time>2012-04-01T09:04:40Z</time>
      </trkpt>
      <trkpt lat="46.97878" lon="-0.71103">
        <ele>175</ele>
        <time>2012-04-01T09:04:42Z</time>
      </trkpt>
      <trkpt lat="46.97871" lon="-0.71104">
        <ele>175.1</ele>
        <time>2012-04-01T09:04:44Z</time>
      </trkpt>
      <trkpt lat="46.97864" lon="-0.71106">
        <ele>175.1</ele>
        <time>2012-04-01T09:04:46Z</time>
      </trkpt>
      <trkpt lat="46.97856" lon="-0.71107">
        <ele>175.1</ele>
        <time>2012-04-01T09:04:48Z</time>
      </trkpt>
      <trkpt lat="46.97849" lon="-0.71107">
        <ele>175.3</ele>
        <time>2012-04-01T09:04:50Z</time>
      </trkpt>
      <trkpt lat="46.97842" lon="-0.71104">
        <ele>175.3</ele>
        <time>2012-04-01T09:04:52Z</time>
      </trkpt>
      <trkpt lat="46.97835" lon="-0.71099">
        <ele>175.6</ele>
        <time>2012-04-01T09:04:54Z</time>
      </trkpt>
      <trkpt lat="46.97832" lon="-0.71096">
        <ele>175.6</ele>
        <time>2012-04-01T09:04:55Z</time>
      </trkpt>
      <trkpt lat="46.97824" lon="-0.71085">
        <ele>175.8</ele>
        <time>2012-04-01T09:04:58Z</time>
      </trkpt>
      <trkpt lat="46.97818" lon="-0.71078">
        <ele>176</ele>
        <time>2012-04-01T09:05:00Z</time>
      </trkpt>
      <trkpt lat="46.97813" lon="-0.71069">
        <ele>176.6</ele>
        <time>2012-04-01T09:05:02Z</time>
      </trkpt>
      <trkpt lat="46.97808" lon="-0.7106">
        <ele>177.6</ele>
        <time>2012-04-01T09:05:04Z</time>
      </trkpt>
      <trkpt lat="46.97802" lon="-0.7105">
        <ele>178.3</ele>
        <time>2012-04-01T09:05:06Z</time>
      </trkpt>
      <trkpt lat="46.97797" lon="-0.71041">
        <ele>178.6</ele>
        <time>2012-04-01T09:05:08Z</time>
      </trkpt>
      <trkpt lat="46.97791" lon="-0.71031">
        <ele>179</ele>
        <time>2012-04-01T09:05:10Z</time>
      </trkpt>
      <trkpt lat="46.97784" lon="-0.71024">
        <ele>179.1</ele>
        <time>2012-04-01T09:05:12Z</time>
      </trkpt>
      <trkpt lat="46.97776" lon="-0.71019">
        <ele>179.3</ele>
        <time>2012-04-01T09:05:14Z</time>
      </trkpt>
      <trkpt lat="46.97772" lon="-0.71017">
        <ele>179.3</ele>
        <time>2012-04-01T09:05:15Z</time>
      </trkpt>
      <trkpt lat="46.97768" lon="-0.71015">
        <ele>179.3</ele>
        <time>2012-04-01T09:05:16Z</time>
      </trkpt>
      <trkpt lat="46.97763" lon="-0.71014">
        <ele>179.3</ele>
        <time>2012-04-01T09:05:17Z</time>
      </trkpt>
      <trkpt lat="46.97758" lon="-0.71013">
        <ele>179.3</ele>
        <time>2012-04-01T09:05:18Z</time>
      </trkpt>
      <trkpt lat="46.97753" lon="-0.71012">
        <ele>179.5</ele>
        <time>2012-04-01T09:05:19Z</time>
      </trkpt>
      <trkpt lat="46.97748" lon="-0.71011">
        <ele>179.5</ele>
        <time>2012-04-01T09:05:20Z</time>
      </trkpt>
      <trkpt lat="46.97743" lon="-0.7101">
        <ele>179.6</ele>
        <time>2012-04-01T09:05:21Z</time>
      </trkpt>
      <trkpt lat="46.97739" lon="-0.7101">
        <ele>179.8</ele>
        <time>2012-04-01T09:05:22Z</time>
      </trkpt>
      <trkpt lat="46.97734" lon="-0.71009">
        <ele>179.8</ele>
        <time>2012-04-01T09:05:23Z</time>
      </trkpt>
      <trkpt lat="46.97729" lon="-0.71008">
        <ele>180</ele>
        <time>2012-04-01T09:05:24Z</time>
      </trkpt>
      <trkpt lat="46.97724" lon="-0.71008">
        <ele>180</ele>
        <time>2012-04-01T09:05:25Z</time>
      </trkpt>
      <trkpt lat="46.97719" lon="-0.71007">
        <ele>180.1</ele>
        <time>2012-04-01T09:05:26Z</time>
      </trkpt>
      <trkpt lat="46.97715" lon="-0.71007">
        <ele>180.1</ele>
        <time>2012-04-01T09:05:27Z</time>
      </trkpt>
      <trkpt lat="46.97706" lon="-0.71006">
        <ele>180.3</ele>
        <time>2012-04-01T09:05:29Z</time>
      </trkpt>
      <trkpt lat="46.97697" lon="-0.71005">
        <ele>180.6</ele>
        <time>2012-04-01T09:05:31Z</time>
      </trkpt>
      <trkpt lat="46.97693" lon="-0.71004">
        <ele>180.6</ele>
        <time>2012-04-01T09:05:32Z</time>
      </trkpt>
      <trkpt lat="46.97688" lon="-0.71002">
        <ele>180.8</ele>
        <time>2012-04-01T09:05:33Z</time>
      </trkpt>
      <trkpt lat="46.9768" lon="-0.70997">
        <ele>181</ele>
        <time>2012-04-01T09:05:35Z</time>
      </trkpt>
      <trkpt lat="46.97676" lon="-0.70994">
        <ele>181.1</ele>
        <time>2012-04-01T09:05:36Z</time>
      </trkpt>
      <trkpt lat="46.97671" lon="-0.7099">
        <ele>181.1</ele>
        <time>2012-04-01T09:05:37Z</time>
      </trkpt>
      <trkpt lat="46.97667" lon="-0.70987">
        <ele>181.3</ele>
        <time>2012-04-01T09:05:38Z</time>
      </trkpt>
      <trkpt lat="46.97663" lon="-0.70983">
        <ele>181.3</ele>
        <time>2012-04-01T09:05:39Z</time>
      </trkpt>
      <trkpt lat="46.97658" lon="-0.70979">
        <ele>181.3</ele>
        <time>2012-04-01T09:05:40Z</time>
      </trkpt>
      <trkpt lat="46.97654" lon="-0.70976">
        <ele>181.5</ele>
        <time>2012-04-01T09:05:41Z</time>
      </trkpt>
      <trkpt lat="46.97649" lon="-0.70972">
        <ele>181.5</ele>
        <time>2012-04-01T09:05:42Z</time>
      </trkpt>
      <trkpt lat="46.97645" lon="-0.70968">
        <ele>181.6</ele>
        <time>2012-04-01T09:05:43Z</time>
      </trkpt>
      <trkpt lat="46.9764" lon="-0.70965">
        <ele>181.8</ele>
        <time>2012-04-01T09:05:44Z</time>
      </trkpt>
      <trkpt lat="46.97636" lon="-0.70961">
        <ele>181.8</ele>
        <time>2012-04-01T09:05:45Z</time>
      </trkpt>
      <trkpt lat="46.97631" lon="-0.70957">
        <ele>182</ele>
        <time>2012-04-01T09:05:46Z</time>
      </trkpt>
      <trkpt lat="46.97627" lon="-0.70954">
        <ele>182.1</ele>
        <time>2012-04-01T09:05:47Z</time>
      </trkpt>
      <trkpt lat="46.97623" lon="-0.7095">
        <ele>182.3</ele>
        <time>2012-04-01T09:05:48Z</time>
      </trkpt>
      <trkpt lat="46.97618" lon="-0.70947">
        <ele>182.3</ele>
        <time>2012-04-01T09:05:49Z</time>
      </trkpt>
      <trkpt lat="46.97614" lon="-0.70943">
        <ele>182.5</ele>
        <time>2012-04-01T09:05:50Z</time>
      </trkpt>
      <trkpt lat="46.9761" lon="-0.70939">
        <ele>182.6</ele>
        <time>2012-04-01T09:05:51Z</time>
      </trkpt>
      <trkpt lat="46.97606" lon="-0.70935">
        <ele>182.8</ele>
        <time>2012-04-01T09:05:52Z</time>
      </trkpt>
      <trkpt lat="46.97602" lon="-0.70931">
        <ele>182.8</ele>
        <time>2012-04-01T09:05:53Z</time>
      </trkpt>
      <trkpt lat="46.97598" lon="-0.70927">
        <ele>183.1</ele>
        <time>2012-04-01T09:05:54Z</time>
      </trkpt>
      <trkpt lat="46.97594" lon="-0.70922">
        <ele>183.1</ele>
        <time>2012-04-01T09:05:55Z</time>
      </trkpt>
      <trkpt lat="46.97591" lon="-0.70916">
        <ele>183.3</ele>
        <time>2012-04-01T09:05:56Z</time>
      </trkpt>
      <trkpt lat="46.97587" lon="-0.70911">
        <ele>183.3</ele>
        <time>2012-04-01T09:05:57Z</time>
      </trkpt>
      <trkpt lat="46.97584" lon="-0.70905">
        <ele>183.5</ele>
        <time>2012-04-01T09:05:58Z</time>
      </trkpt>
      <trkpt lat="46.9758" lon="-0.709">
        <ele>183.6</ele>
        <time>2012-04-01T09:05:59Z</time>
      </trkpt>
      <trkpt lat="46.97577" lon="-0.70895">
        <ele>183.6</ele>
        <time>2012-04-01T09:06:00Z</time>
      </trkpt>
      <trkpt lat="46.97573" lon="-0.70889">
        <ele>183.8</ele>
        <time>2012-04-01T09:06:01Z</time>
      </trkpt>
      <trkpt lat="46.9757" lon="-0.70884">
        <ele>183.8</ele>
        <time>2012-04-01T09:06:02Z</time>
      </trkpt>
      <trkpt lat="46.97566" lon="-0.70878">
        <ele>183.8</ele>
        <time>2012-04-01T09:06:03Z</time>
      </trkpt>
      <trkpt lat="46.97563" lon="-0.70873">
        <ele>183.8</ele>
        <time>2012-04-01T09:06:04Z</time>
      </trkpt>
      <trkpt lat="46.9756" lon="-0.70867">
        <ele>184</ele>
        <time>2012-04-01T09:06:05Z</time>
      </trkpt>
      <trkpt lat="46.97556" lon="-0.70861">
        <ele>184</ele>
        <time>2012-04-01T09:06:06Z</time>
      </trkpt>
      <trkpt lat="46.97553" lon="-0.70856">
        <ele>184.1</ele>
        <time>2012-04-01T09:06:07Z</time>
      </trkpt>
      <trkpt lat="46.97549" lon="-0.7085">
        <ele>184.1</ele>
        <time>2012-04-01T09:06:08Z</time>
      </trkpt>
      <trkpt lat="46.97546" lon="-0.70844">
        <ele>184.1</ele>
        <time>2012-04-01T09:06:09Z</time>
      </trkpt>
      <trkpt lat="46.97543" lon="-0.70838">
        <ele>184.1</ele>
        <time>2012-04-01T09:06:10Z</time>
      </trkpt>
      <trkpt lat="46.9754" lon="-0.70833">
        <ele>184.3</ele>
        <time>2012-04-01T09:06:11Z</time>
      </trkpt>
      <trkpt lat="46.97536" lon="-0.70827">
        <ele>184.3</ele>
        <time>2012-04-01T09:06:12Z</time>
      </trkpt>
      <trkpt lat="46.97533" lon="-0.70822">
        <ele>184.3</ele>
        <time>2012-04-01T09:06:13Z</time>
      </trkpt>
      <trkpt lat="46.97529" lon="-0.70816">
        <ele>184.3</ele>
        <time>2012-04-01T09:06:14Z</time>
      </trkpt>
      <trkpt lat="46.97526" lon="-0.7081">
        <ele>184.3</ele>
        <time>2012-04-01T09:06:15Z</time>
      </trkpt>
      <trkpt lat="46.97522" lon="-0.70805">
        <ele>184.3</ele>
        <time>2012-04-01T09:06:16Z</time>
      </trkpt>
      <trkpt lat="46.97519" lon="-0.70799">
        <ele>184.3</ele>
        <time>2012-04-01T09:06:17Z</time>
      </trkpt>
      <trkpt lat="46.97515" lon="-0.70793">
        <ele>184.3</ele>
        <time>2012-04-01T09:06:18Z</time>
      </trkpt>
      <trkpt lat="46.97511" lon="-0.70787">
        <ele>184.3</ele>
        <time>2012-04-01T09:06:19Z</time>
      </trkpt>
      <trkpt lat="46.97507" lon="-0.70781">
        <ele>184.3</ele>
        <time>2012-04-01T09:06:20Z</time>
      </trkpt>
      <trkpt lat="46.97503" lon="-0.70776">
        <ele>184.3</ele>
        <time>2012-04-01T09:06:21Z</time>
      </trkpt>
      <trkpt lat="46.97499" lon="-0.7077">
        <ele>184.3</ele>
        <time>2012-04-01T09:06:22Z</time>
      </trkpt>
      <trkpt lat="46.97495" lon="-0.70765">
        <ele>184.3</ele>
        <time>2012-04-01T09:06:23Z</time>
      </trkpt>
      <trkpt lat="46.97492" lon="-0.70759">
        <ele>184.3</ele>
        <time>2012-04-01T09:06:24Z</time>
      </trkpt>
      <trkpt lat="46.97488" lon="-0.70752">
        <ele>184.3</ele>
        <time>2012-04-01T09:06:25Z</time>
      </trkpt>
      <trkpt lat="46.97484" lon="-0.70746">
        <ele>184.3</ele>
        <time>2012-04-01T09:06:26Z</time>
      </trkpt>
      <trkpt lat="46.9748" lon="-0.7074">
        <ele>184.3</ele>
        <time>2012-04-01T09:06:27Z</time>
      </trkpt>
      <trkpt lat="46.97476" lon="-0.70733">
        <ele>184.3</ele>
        <time>2012-04-01T09:06:28Z</time>
      </trkpt>
      <trkpt lat="46.97472" lon="-0.70727">
        <ele>184.3</ele>
        <time>2012-04-01T09:06:29Z</time>
      </trkpt>
      <trkpt lat="46.97469" lon="-0.70721">
        <ele>184.3</ele>
        <time>2012-04-01T09:06:30Z</time>
      </trkpt>
      <trkpt lat="46.97464" lon="-0.70714">
        <ele>184.3</ele>
        <time>2012-04-01T09:06:31Z</time>
      </trkpt>
      <trkpt lat="46.9746" lon="-0.70708">
        <ele>184.3</ele>
        <time>2012-04-01T09:06:32Z</time>
      </trkpt>
      <trkpt lat="46.97456" lon="-0.70701">
        <ele>184.3</ele>
        <time>2012-04-01T09:06:33Z</time>
      </trkpt>
      <trkpt lat="46.97452" lon="-0.70695">
        <ele>184.3</ele>
        <time>2012-04-01T09:06:34Z</time>
      </trkpt>
      <trkpt lat="46.97448" lon="-0.70688">
        <ele>184.3</ele>
        <time>2012-04-01T09:06:35Z</time>
      </trkpt>
      <trkpt lat="46.97444" lon="-0.70682">
        <ele>184.3</ele>
        <time>2012-04-01T09:06:36Z</time>
      </trkpt>
      <trkpt lat="46.9744" lon="-0.70675">
        <ele>184.3</ele>
        <time>2012-04-01T09:06:37Z</time>
      </trkpt>
      <trkpt lat="46.97437" lon="-0.70669">
        <ele>184.3</ele>
        <time>2012-04-01T09:06:38Z</time>
      </trkpt>
      <trkpt lat="46.97433" lon="-0.70663">
        <ele>184.3</ele>
        <time>2012-04-01T09:06:39Z</time>
      </trkpt>
      <trkpt lat="46.97429" lon="-0.70657">
        <ele>184.3</ele>
        <time>2012-04-01T09:06:40Z</time>
      </trkpt>
      <trkpt lat="46.97425" lon="-0.7065">
        <ele>184.3</ele>
        <time>2012-04-01T09:06:41Z</time>
      </trkpt>
      <trkpt lat="46.97421" lon="-0.70644">
        <ele>184.1</ele>
        <time>2012-04-01T09:06:42Z</time>
      </trkpt>
      <trkpt lat="46.97417" lon="-0.70638">
        <ele>184.1</ele>
        <time>2012-04-01T09:06:43Z</time>
      </trkpt>
      <trkpt lat="46.97413" lon="-0.70631">
        <ele>184.1</ele>
        <time>2012-04-01T09:06:44Z</time>
      </trkpt>
      <trkpt lat="46.9741" lon="-0.70625">
        <ele>184.1</ele>
        <time>2012-04-01T09:06:45Z</time>
      </trkpt>
      <trkpt lat="46.97406" lon="-0.70619">
        <ele>184.1</ele>
        <time>2012-04-01T09:06:46Z</time>
      </trkpt>
      <trkpt lat="46.97403" lon="-0.70613">
        <ele>184.1</ele>
        <time>2012-04-01T09:06:47Z</time>
      </trkpt>
      <trkpt lat="46.97399" lon="-0.70607">
        <ele>184.1</ele>
        <time>2012-04-01T09:06:48Z</time>
      </trkpt>
      <trkpt lat="46.97395" lon="-0.70601">
        <ele>184.1</ele>
        <time>2012-04-01T09:06:49Z</time>
      </trkpt>
      <trkpt lat="46.97391" lon="-0.70596">
        <ele>184.1</ele>
        <time>2012-04-01T09:06:50Z</time>
      </trkpt>
      <trkpt lat="46.97387" lon="-0.7059">
        <ele>184.1</ele>
        <time>2012-04-01T09:06:51Z</time>
      </trkpt>
      <trkpt lat="46.97384" lon="-0.70584">
        <ele>184</ele>
        <time>2012-04-01T09:06:52Z</time>
      </trkpt>
      <trkpt lat="46.9738" lon="-0.70578">
        <ele>184</ele>
        <time>2012-04-01T09:06:53Z</time>
      </trkpt>
      <trkpt lat="46.97377" lon="-0.70573">
        <ele>184</ele>
        <time>2012-04-01T09:06:54Z</time>
      </trkpt>
      <trkpt lat="46.97373" lon="-0.70567">
        <ele>183.8</ele>
        <time>2012-04-01T09:06:55Z</time>
      </trkpt>
      <trkpt lat="46.9737" lon="-0.70562">
        <ele>183.8</ele>
        <time>2012-04-01T09:06:56Z</time>
      </trkpt>
      <trkpt lat="46.97367" lon="-0.70557">
        <ele>183.8</ele>
        <time>2012-04-01T09:06:57Z</time>
      </trkpt>
      <trkpt lat="46.97361" lon="-0.70547">
        <ele>183.6</ele>
        <time>2012-04-01T09:06:59Z</time>
      </trkpt>
      <trkpt lat="46.97356" lon="-0.70538">
        <ele>183.6</ele>
        <time>2012-04-01T09:07:01Z</time>
      </trkpt>
      <trkpt lat="46.97352" lon="-0.7053">
        <ele>183.6</ele>
        <time>2012-04-01T09:07:03Z</time>
      </trkpt>
      <trkpt lat="46.97349" lon="-0.70522">
        <ele>183.6</ele>
        <time>2012-04-01T09:07:05Z</time>
      </trkpt>
      <trkpt lat="46.97344" lon="-0.70514">
        <ele>183.6</ele>
        <time>2012-04-01T09:07:07Z</time>
      </trkpt>
      <trkpt lat="46.9734" lon="-0.70504">
        <ele>183.6</ele>
        <time>2012-04-01T09:07:09Z</time>
      </trkpt>
      <trkpt lat="46.97336" lon="-0.70494">
        <ele>183.6</ele>
        <time>2012-04-01T09:07:11Z</time>
      </trkpt>
      <trkpt lat="46.97331" lon="-0.70484">
        <ele>183.6</ele>
        <time>2012-04-01T09:07:13Z</time>
      </trkpt>
      <trkpt lat="46.97326" lon="-0.70474">
        <ele>183.6</ele>
        <time>2012-04-01T09:07:15Z</time>
      </trkpt>
      <trkpt lat="46.97321" lon="-0.70464">
        <ele>183.6</ele>
        <time>2012-04-01T09:07:17Z</time>
      </trkpt>
      <trkpt lat="46.97316" lon="-0.70455">
        <ele>183.6</ele>
        <time>2012-04-01T09:07:19Z</time>
      </trkpt>
      <trkpt lat="46.97311" lon="-0.70445">
        <ele>183.6</ele>
        <time>2012-04-01T09:07:21Z</time>
      </trkpt>
      <trkpt lat="46.97306" lon="-0.70435">
        <ele>183.6</ele>
        <time>2012-04-01T09:07:23Z</time>
      </trkpt>
      <trkpt lat="46.97301" lon="-0.70425">
        <ele>183.6</ele>
        <time>2012-04-01T09:07:25Z</time>
      </trkpt>
      <trkpt lat="46.97295" lon="-0.70415">
        <ele>183.8</ele>
        <time>2012-04-01T09:07:27Z</time>
      </trkpt>
      <trkpt lat="46.9729" lon="-0.70405">
        <ele>183.8</ele>
        <time>2012-04-01T09:07:29Z</time>
      </trkpt>
      <trkpt lat="46.97285" lon="-0.70395">
        <ele>183.8</ele>
        <time>2012-04-01T09:07:31Z</time>
      </trkpt>
      <trkpt lat="46.9728" lon="-0.70385">
        <ele>184</ele>
        <time>2012-04-01T09:07:33Z</time>
      </trkpt>
      <trkpt lat="46.97274" lon="-0.70374">
        <ele>184</ele>
        <time>2012-04-01T09:07:35Z</time>
      </trkpt>
      <trkpt lat="46.97272" lon="-0.70369">
        <ele>183.8</ele>
        <time>2012-04-01T09:07:36Z</time>
      </trkpt>
      <trkpt lat="46.97266" lon="-0.70359">
        <ele>184</ele>
        <time>2012-04-01T09:07:38Z</time>
      </trkpt>
      <trkpt lat="46.97261" lon="-0.70348">
        <ele>184</ele>
        <time>2012-04-01T09:07:40Z</time>
      </trkpt>
      <trkpt lat="46.97256" lon="-0.70338">
        <ele>184</ele>
        <time>2012-04-01T09:07:42Z</time>
      </trkpt>
      <trkpt lat="46.97253" lon="-0.70332">
        <ele>184</ele>
        <time>2012-04-01T09:07:43Z</time>
      </trkpt>
      <trkpt lat="46.97251" lon="-0.70327">
        <ele>184</ele>
        <time>2012-04-01T09:07:44Z</time>
      </trkpt>
      <trkpt lat="46.97248" lon="-0.70322">
        <ele>184</ele>
        <time>2012-04-01T09:07:45Z</time>
      </trkpt>
      <trkpt lat="46.97245" lon="-0.70316">
        <ele>183.8</ele>
        <time>2012-04-01T09:07:46Z</time>
      </trkpt>
      <trkpt lat="46.97242" lon="-0.70311">
        <ele>183.8</ele>
        <time>2012-04-01T09:07:47Z</time>
      </trkpt>
      <trkpt lat="46.9724" lon="-0.70305">
        <ele>183.8</ele>
        <time>2012-04-01T09:07:48Z</time>
      </trkpt>
      <trkpt lat="46.97237" lon="-0.703">
        <ele>183.6</ele>
        <time>2012-04-01T09:07:49Z</time>
      </trkpt>
      <trkpt lat="46.97234" lon="-0.70294">
        <ele>183.6</ele>
        <time>2012-04-01T09:07:50Z</time>
      </trkpt>
      <trkpt lat="46.97231" lon="-0.70288">
        <ele>183.6</ele>
        <time>2012-04-01T09:07:51Z</time>
      </trkpt>
      <trkpt lat="46.97228" lon="-0.70282">
        <ele>183.8</ele>
        <time>2012-04-01T09:07:52Z</time>
      </trkpt>
      <trkpt lat="46.97225" lon="-0.70276">
        <ele>183.8</ele>
        <time>2012-04-01T09:07:53Z</time>
      </trkpt>
      <trkpt lat="46.97222" lon="-0.7027">
        <ele>183.8</ele>
        <time>2012-04-01T09:07:54Z</time>
      </trkpt>
      <trkpt lat="46.9722" lon="-0.70264">
        <ele>183.8</ele>
        <time>2012-04-01T09:07:55Z</time>
      </trkpt>
      <trkpt lat="46.97217" lon="-0.70258">
        <ele>184</ele>
        <time>2012-04-01T09:07:56Z</time>
      </trkpt>
      <trkpt lat="46.97214" lon="-0.70252">
        <ele>184</ele>
        <time>2012-04-01T09:07:57Z</time>
      </trkpt>
      <trkpt lat="46.97211" lon="-0.70246">
        <ele>184</ele>
        <time>2012-04-01T09:07:58Z</time>
      </trkpt>
      <trkpt lat="46.97208" lon="-0.70239">
        <ele>183.8</ele>
        <time>2012-04-01T09:07:59Z</time>
      </trkpt>
      <trkpt lat="46.97204" lon="-0.70233">
        <ele>183.8</ele>
        <time>2012-04-01T09:08:00Z</time>
      </trkpt>
      <trkpt lat="46.97201" lon="-0.70226">
        <ele>183.8</ele>
        <time>2012-04-01T09:08:01Z</time>
      </trkpt>
      <trkpt lat="46.97198" lon="-0.7022">
        <ele>183.6</ele>
        <time>2012-04-01T09:08:02Z</time>
      </trkpt>
      <trkpt lat="46.97194" lon="-0.70213">
        <ele>183.6</ele>
        <time>2012-04-01T09:08:03Z</time>
      </trkpt>
      <trkpt lat="46.97191" lon="-0.70206">
        <ele>183.6</ele>
        <time>2012-04-01T09:08:04Z</time>
      </trkpt>
      <trkpt lat="46.97187" lon="-0.702">
        <ele>183.6</ele>
        <time>2012-04-01T09:08:05Z</time>
      </trkpt>
      <trkpt lat="46.97184" lon="-0.70193">
        <ele>183.6</ele>
        <time>2012-04-01T09:08:06Z</time>
      </trkpt>
      <trkpt lat="46.97181" lon="-0.70186">
        <ele>183.6</ele>
        <time>2012-04-01T09:08:07Z</time>
      </trkpt>
      <trkpt lat="46.97177" lon="-0.70179">
        <ele>183.8</ele>
        <time>2012-04-01T09:08:08Z</time>
      </trkpt>
      <trkpt lat="46.97174" lon="-0.70173">
        <ele>183.8</ele>
        <time>2012-04-01T09:08:09Z</time>
      </trkpt>
      <trkpt lat="46.97171" lon="-0.70166">
        <ele>183.8</ele>
        <time>2012-04-01T09:08:10Z</time>
      </trkpt>
      <trkpt lat="46.97168" lon="-0.70159">
        <ele>183.8</ele>
        <time>2012-04-01T09:08:11Z</time>
      </trkpt>
      <trkpt lat="46.97164" lon="-0.70153">
        <ele>183.8</ele>
        <time>2012-04-01T09:08:12Z</time>
      </trkpt>
      <trkpt lat="46.97161" lon="-0.70146">
        <ele>183.8</ele>
        <time>2012-04-01T09:08:13Z</time>
      </trkpt>
      <trkpt lat="46.97158" lon="-0.7014">
        <ele>183.6</ele>
        <time>2012-04-01T09:08:14Z</time>
      </trkpt>
      <trkpt lat="46.97155" lon="-0.70133">
        <ele>183.6</ele>
        <time>2012-04-01T09:08:15Z</time>
      </trkpt>
      <trkpt lat="46.97151" lon="-0.70126">
        <ele>183.6</ele>
        <time>2012-04-01T09:08:16Z</time>
      </trkpt>
      <trkpt lat="46.97148" lon="-0.70119">
        <ele>183.5</ele>
        <time>2012-04-01T09:08:17Z</time>
      </trkpt>
      <trkpt lat="46.97145" lon="-0.70112">
        <ele>183.5</ele>
        <time>2012-04-01T09:08:18Z</time>
      </trkpt>
      <trkpt lat="46.97142" lon="-0.70106">
        <ele>183.5</ele>
        <time>2012-04-01T09:08:19Z</time>
      </trkpt>
      <trkpt lat="46.9714" lon="-0.70099">
        <ele>183.3</ele>
        <time>2012-04-01T09:08:20Z</time>
      </trkpt>
      <trkpt lat="46.97137" lon="-0.70092">
        <ele>183.5</ele>
        <time>2012-04-01T09:08:21Z</time>
      </trkpt>
      <trkpt lat="46.97134" lon="-0.70086">
        <ele>183.5</ele>
        <time>2012-04-01T09:08:22Z</time>
      </trkpt>
      <trkpt lat="46.97131" lon="-0.70079">
        <ele>183.5</ele>
        <time>2012-04-01T09:08:23Z</time>
      </trkpt>
      <trkpt lat="46.97129" lon="-0.70073">
        <ele>183.5</ele>
        <time>2012-04-01T09:08:24Z</time>
      </trkpt>
      <trkpt lat="46.97126" lon="-0.70067">
        <ele>183.5</ele>
        <time>2012-04-01T09:08:25Z</time>
      </trkpt>
      <trkpt lat="46.97122" lon="-0.70061">
        <ele>183.6</ele>
        <time>2012-04-01T09:08:26Z</time>
      </trkpt>
      <trkpt lat="46.97119" lon="-0.70055">
        <ele>183.5</ele>
        <time>2012-04-01T09:08:27Z</time>
      </trkpt>
      <trkpt lat="46.97115" lon="-0.70049">
        <ele>183.5</ele>
        <time>2012-04-01T09:08:28Z</time>
      </trkpt>
      <trkpt lat="46.97112" lon="-0.70044">
        <ele>183.5</ele>
        <time>2012-04-01T09:08:29Z</time>
      </trkpt>
      <trkpt lat="46.97108" lon="-0.70038">
        <ele>183.5</ele>
        <time>2012-04-01T09:08:30Z</time>
      </trkpt>
      <trkpt lat="46.97103" lon="-0.70033">
        <ele>183.5</ele>
        <time>2012-04-01T09:08:31Z</time>
      </trkpt>
      <trkpt lat="46.97099" lon="-0.70028">
        <ele>183.5</ele>
        <time>2012-04-01T09:08:32Z</time>
      </trkpt>
      <trkpt lat="46.97095" lon="-0.70022">
        <ele>183.5</ele>
        <time>2012-04-01T09:08:33Z</time>
      </trkpt>
      <trkpt lat="46.9709" lon="-0.70017">
        <ele>183.5</ele>
        <time>2012-04-01T09:08:34Z</time>
      </trkpt>
      <trkpt lat="46.97086" lon="-0.70013">
        <ele>183.6</ele>
        <time>2012-04-01T09:08:35Z</time>
      </trkpt>
      <trkpt lat="46.97081" lon="-0.70008">
        <ele>183.6</ele>
        <time>2012-04-01T09:08:36Z</time>
      </trkpt>
      <trkpt lat="46.97076" lon="-0.70004">
        <ele>183.6</ele>
        <time>2012-04-01T09:08:37Z</time>
      </trkpt>
      <trkpt lat="46.97071" lon="-0.7">
        <ele>183.6</ele>
        <time>2012-04-01T09:08:38Z</time>
      </trkpt>
      <trkpt lat="46.97067" lon="-0.69996">
        <ele>183.8</ele>
        <time>2012-04-01T09:08:39Z</time>
      </trkpt>
      <trkpt lat="46.97062" lon="-0.69992">
        <ele>183.8</ele>
        <time>2012-04-01T09:08:40Z</time>
      </trkpt>
      <trkpt lat="46.97057" lon="-0.69988">
        <ele>183.8</ele>
        <time>2012-04-01T09:08:41Z</time>
      </trkpt>
      <trkpt lat="46.97052" lon="-0.69985">
        <ele>184</ele>
        <time>2012-04-01T09:08:42Z</time>
      </trkpt>
      <trkpt lat="46.97047" lon="-0.69981">
        <ele>184.1</ele>
        <time>2012-04-01T09:08:43Z</time>
      </trkpt>
      <trkpt lat="46.97043" lon="-0.69978">
        <ele>184.1</ele>
        <time>2012-04-01T09:08:44Z</time>
      </trkpt>
      <trkpt lat="46.97038" lon="-0.69975">
        <ele>184.1</ele>
        <time>2012-04-01T09:08:45Z</time>
      </trkpt>
      <trkpt lat="46.97033" lon="-0.69971">
        <ele>184.1</ele>
        <time>2012-04-01T09:08:46Z</time>
      </trkpt>
      <trkpt lat="46.97028" lon="-0.69968">
        <ele>184.1</ele>
        <time>2012-04-01T09:08:47Z</time>
      </trkpt>
      <trkpt lat="46.97023" lon="-0.69964">
        <ele>184.1</ele>
        <time>2012-04-01T09:08:48Z</time>
      </trkpt>
      <trkpt lat="46.97019" lon="-0.6996">
        <ele>184.1</ele>
        <time>2012-04-01T09:08:49Z</time>
      </trkpt>
      <trkpt lat="46.97014" lon="-0.69956">
        <ele>184.1</ele>
        <time>2012-04-01T09:08:50Z</time>
      </trkpt>
      <trkpt lat="46.97009" lon="-0.69953">
        <ele>184.1</ele>
        <time>2012-04-01T09:08:51Z</time>
      </trkpt>
      <trkpt lat="46.97005" lon="-0.69949">
        <ele>184.1</ele>
        <time>2012-04-01T09:08:52Z</time>
      </trkpt>
      <trkpt lat="46.97" lon="-0.69945">
        <ele>184.1</ele>
        <time>2012-04-01T09:08:53Z</time>
      </trkpt>
      <trkpt lat="46.96995" lon="-0.6994">
        <ele>184.1</ele>
        <time>2012-04-01T09:08:54Z</time>
      </trkpt>
      <trkpt lat="46.96991" lon="-0.69936">
        <ele>184</ele>
        <time>2012-04-01T09:08:55Z</time>
      </trkpt>
      <trkpt lat="46.96986" lon="-0.69932">
        <ele>183.8</ele>
        <time>2012-04-01T09:08:56Z</time>
      </trkpt>
      <trkpt lat="46.96982" lon="-0.69928">
        <ele>183.8</ele>
        <time>2012-04-01T09:08:57Z</time>
      </trkpt>
      <trkpt lat="46.96977" lon="-0.69923">
        <ele>183.8</ele>
        <time>2012-04-01T09:08:58Z</time>
      </trkpt>
      <trkpt lat="46.96973" lon="-0.69918">
        <ele>183.8</ele>
        <time>2012-04-01T09:08:59Z</time>
      </trkpt>
      <trkpt lat="46.96968" lon="-0.69914">
        <ele>183.8</ele>
        <time>2012-04-01T09:09:00Z</time>
      </trkpt>
      <trkpt lat="46.96963" lon="-0.69909">
        <ele>183.8</ele>
        <time>2012-04-01T09:09:01Z</time>
      </trkpt>
      <trkpt lat="46.96959" lon="-0.69904">
        <ele>183.8</ele>
        <time>2012-04-01T09:09:02Z</time>
      </trkpt>
      <trkpt lat="46.96954" lon="-0.69899">
        <ele>183.8</ele>
        <time>2012-04-01T09:09:03Z</time>
      </trkpt>
      <trkpt lat="46.96949" lon="-0.69894">
        <ele>183.8</ele>
        <time>2012-04-01T09:09:04Z</time>
      </trkpt>
      <trkpt lat="46.96944" lon="-0.69889">
        <ele>183.8</ele>
        <time>2012-04-01T09:09:05Z</time>
      </trkpt>
      <trkpt lat="46.96939" lon="-0.69884">
        <ele>183.8</ele>
        <time>2012-04-01T09:09:06Z</time>
      </trkpt>
      <trkpt lat="46.96935" lon="-0.69879">
        <ele>183.8</ele>
        <time>2012-04-01T09:09:07Z</time>
      </trkpt>
      <trkpt lat="46.9693" lon="-0.69875">
        <ele>183.8</ele>
        <time>2012-04-01T09:09:08Z</time>
      </trkpt>
      <trkpt lat="46.96926" lon="-0.6987">
        <ele>183.8</ele>
        <time>2012-04-01T09:09:09Z</time>
      </trkpt>
      <trkpt lat="46.96921" lon="-0.69865">
        <ele>183.8</ele>
        <time>2012-04-01T09:09:10Z</time>
      </trkpt>
      <trkpt lat="46.96916" lon="-0.69861">
        <ele>183.8</ele>
        <time>2012-04-01T09:09:11Z</time>
      </trkpt>
      <trkpt lat="46.96912" lon="-0.69856">
        <ele>183.8</ele>
        <time>2012-04-01T09:09:12Z</time>
      </trkpt>
      <trkpt lat="46.96907" lon="-0.69851">
        <ele>183.6</ele>
        <time>2012-04-01T09:09:13Z</time>
      </trkpt>
      <trkpt lat="46.96903" lon="-0.69846">
        <ele>183.6</ele>
        <time>2012-04-01T09:09:14Z</time>
      </trkpt>
      <trkpt lat="46.96898" lon="-0.69842">
        <ele>183.5</ele>
        <time>2012-04-01T09:09:15Z</time>
      </trkpt>
      <trkpt lat="46.96894" lon="-0.69838">
        <ele>183.3</ele>
        <time>2012-04-01T09:09:16Z</time>
      </trkpt>
      <trkpt lat="46.9689" lon="-0.69833">
        <ele>183.3</ele>
        <time>2012-04-01T09:09:17Z</time>
      </trkpt>
      <trkpt lat="46.96886" lon="-0.69829">
        <ele>183.1</ele>
        <time>2012-04-01T09:09:18Z</time>
      </trkpt>
      <trkpt lat="46.96879" lon="-0.69821">
        <ele>183</ele>
        <time>2012-04-01T09:09:20Z</time>
      </trkpt>
      <trkpt lat="46.96873" lon="-0.69814">
        <ele>182.8</ele>
        <time>2012-04-01T09:09:22Z</time>
      </trkpt>
      <trkpt lat="46.96868" lon="-0.69805">
        <ele>182.8</ele>
        <time>2012-04-01T09:09:24Z</time>
      </trkpt>
      <trkpt lat="46.96864" lon="-0.69796">
        <ele>182.8</ele>
        <time>2012-04-01T09:09:26Z</time>
      </trkpt>
      <trkpt lat="46.9686" lon="-0.69788">
        <ele>182.8</ele>
        <time>2012-04-01T09:09:28Z</time>
      </trkpt>
      <trkpt lat="46.96856" lon="-0.69781">
        <ele>182.8</ele>
        <time>2012-04-01T09:09:30Z</time>
      </trkpt>
      <trkpt lat="46.96851" lon="-0.69771">
        <ele>182.8</ele>
        <time>2012-04-01T09:09:33Z</time>
      </trkpt>
      <trkpt lat="46.96847" lon="-0.69765">
        <ele>182.8</ele>
        <time>2012-04-01T09:09:35Z</time>
      </trkpt>
      <trkpt lat="46.96842" lon="-0.69756">
        <ele>182.8</ele>
        <time>2012-04-01T09:09:37Z</time>
      </trkpt>
      <trkpt lat="46.96838" lon="-0.69747">
        <ele>182.8</ele>
        <time>2012-04-01T09:09:39Z</time>
      </trkpt>
      <trkpt lat="46.96834" lon="-0.69738">
        <ele>182.8</ele>
        <time>2012-04-01T09:09:41Z</time>
      </trkpt>
      <trkpt lat="46.9683" lon="-0.69729">
        <ele>182.8</ele>
        <time>2012-04-01T09:09:43Z</time>
      </trkpt>
      <trkpt lat="46.96825" lon="-0.69721">
        <ele>182.8</ele>
        <time>2012-04-01T09:09:45Z</time>
      </trkpt>
      <trkpt lat="46.96821" lon="-0.69712">
        <ele>182.8</ele>
        <time>2012-04-01T09:09:47Z</time>
      </trkpt>
      <trkpt lat="46.96816" lon="-0.69703">
        <ele>183</ele>
        <time>2012-04-01T09:09:49Z</time>
      </trkpt>
      <trkpt lat="46.96812" lon="-0.69694">
        <ele>183.1</ele>
        <time>2012-04-01T09:09:51Z</time>
      </trkpt>
      <trkpt lat="46.96807" lon="-0.69685">
        <ele>183.5</ele>
        <time>2012-04-01T09:09:53Z</time>
      </trkpt>
      <trkpt lat="46.96802" lon="-0.69676">
        <ele>183.6</ele>
        <time>2012-04-01T09:09:55Z</time>
      </trkpt>
      <trkpt lat="46.96796" lon="-0.69667">
        <ele>183.8</ele>
        <time>2012-04-01T09:09:57Z</time>
      </trkpt>
      <trkpt lat="46.9679" lon="-0.69658">
        <ele>183.8</ele>
        <time>2012-04-01T09:09:59Z</time>
      </trkpt>
      <trkpt lat="46.96787" lon="-0.69653">
        <ele>183.8</ele>
        <time>2012-04-01T09:10:00Z</time>
      </trkpt>
      <trkpt lat="46.96781" lon="-0.69644">
        <ele>184</ele>
        <time>2012-04-01T09:10:02Z</time>
      </trkpt>
      <trkpt lat="46.96778" lon="-0.69639">
        <ele>184</ele>
        <time>2012-04-01T09:10:03Z</time>
      </trkpt>
      <trkpt lat="46.96774" lon="-0.69634">
        <ele>184.1</ele>
        <time>2012-04-01T09:10:04Z</time>
      </trkpt>
      <trkpt lat="46.96771" lon="-0.69629">
        <ele>184.1</ele>
        <time>2012-04-01T09:10:05Z</time>
      </trkpt>
      <trkpt lat="46.96768" lon="-0.69624">
        <ele>184.1</ele>
        <time>2012-04-01T09:10:06Z</time>
      </trkpt>
      <trkpt lat="46.96764" lon="-0.69619">
        <ele>184.1</ele>
        <time>2012-04-01T09:10:07Z</time>
      </trkpt>
      <trkpt lat="46.9676" lon="-0.69614">
        <ele>184.1</ele>
        <time>2012-04-01T09:10:08Z</time>
      </trkpt>
      <trkpt lat="46.96757" lon="-0.69609">
        <ele>184.1</ele>
        <time>2012-04-01T09:10:09Z</time>
      </trkpt>
      <trkpt lat="46.96753" lon="-0.69604">
        <ele>184.1</ele>
        <time>2012-04-01T09:10:10Z</time>
      </trkpt>
      <trkpt lat="46.9675" lon="-0.69599">
        <ele>184.1</ele>
        <time>2012-04-01T09:10:11Z</time>
      </trkpt>
      <trkpt lat="46.96746" lon="-0.69594">
        <ele>184.1</ele>
        <time>2012-04-01T09:10:12Z</time>
      </trkpt>
      <trkpt lat="46.96742" lon="-0.69589">
        <ele>184.1</ele>
        <time>2012-04-01T09:10:13Z</time>
      </trkpt>
      <trkpt lat="46.96739" lon="-0.69584">
        <ele>184.1</ele>
        <time>2012-04-01T09:10:14Z</time>
      </trkpt>
      <trkpt lat="46.96735" lon="-0.69579">
        <ele>184.1</ele>
        <time>2012-04-01T09:10:15Z</time>
      </trkpt>
      <trkpt lat="46.96731" lon="-0.69574">
        <ele>184.1</ele>
        <time>2012-04-01T09:10:16Z</time>
      </trkpt>
      <trkpt lat="46.96727" lon="-0.69569">
        <ele>184.1</ele>
        <time>2012-04-01T09:10:17Z</time>
      </trkpt>
      <trkpt lat="46.96723" lon="-0.69564">
        <ele>184.1</ele>
        <time>2012-04-01T09:10:18Z</time>
      </trkpt>
      <trkpt lat="46.9672" lon="-0.6956">
        <ele>184.1</ele>
        <time>2012-04-01T09:10:19Z</time>
      </trkpt>
      <trkpt lat="46.96716" lon="-0.69555">
        <ele>184.1</ele>
        <time>2012-04-01T09:10:20Z</time>
      </trkpt>
      <trkpt lat="46.96713" lon="-0.69551">
        <ele>184.1</ele>
        <time>2012-04-01T09:10:21Z</time>
      </trkpt>
      <trkpt lat="46.96709" lon="-0.69546">
        <ele>184.1</ele>
        <time>2012-04-01T09:10:22Z</time>
      </trkpt>
      <trkpt lat="46.96702" lon="-0.69538">
        <ele>184.1</ele>
        <time>2012-04-01T09:10:24Z</time>
      </trkpt>
      <trkpt lat="46.96699" lon="-0.69534">
        <ele>184.1</ele>
        <time>2012-04-01T09:10:25Z</time>
      </trkpt>
      <trkpt lat="46.96695" lon="-0.69529">
        <ele>184.1</ele>
        <time>2012-04-01T09:10:26Z</time>
      </trkpt>
      <trkpt lat="46.96692" lon="-0.69525">
        <ele>184.1</ele>
        <time>2012-04-01T09:10:27Z</time>
      </trkpt>
      <trkpt lat="46.96688" lon="-0.6952">
        <ele>184.1</ele>
        <time>2012-04-01T09:10:28Z</time>
      </trkpt>
      <trkpt lat="46.96684" lon="-0.69515">
        <ele>184.1</ele>
        <time>2012-04-01T09:10:29Z</time>
      </trkpt>
      <trkpt lat="46.96679" lon="-0.69511">
        <ele>184</ele>
        <time>2012-04-01T09:10:30Z</time>
      </trkpt>
      <trkpt lat="46.96675" lon="-0.69506">
        <ele>184</ele>
        <time>2012-04-01T09:10:31Z</time>
      </trkpt>
      <trkpt lat="46.96671" lon="-0.69502">
        <ele>183.8</ele>
        <time>2012-04-01T09:10:32Z</time>
      </trkpt>
      <trkpt lat="46.96667" lon="-0.69497">
        <ele>183.8</ele>
        <time>2012-04-01T09:10:33Z</time>
      </trkpt>
      <trkpt lat="46.96663" lon="-0.69493">
        <ele>183.8</ele>
        <time>2012-04-01T09:10:34Z</time>
      </trkpt>
      <trkpt lat="46.96659" lon="-0.69488">
        <ele>183.6</ele>
        <time>2012-04-01T09:10:35Z</time>
      </trkpt>
      <trkpt lat="46.96655" lon="-0.69483">
        <ele>183.6</ele>
        <time>2012-04-01T09:10:36Z</time>
      </trkpt>
      <trkpt lat="46.96651" lon="-0.69479">
        <ele>183.6</ele>
        <time>2012-04-01T09:10:37Z</time>
      </trkpt>
      <trkpt lat="46.96648" lon="-0.69474">
        <ele>183.6</ele>
        <time>2012-04-01T09:10:38Z</time>
      </trkpt>
      <trkpt lat="46.96644" lon="-0.69469">
        <ele>183.5</ele>
        <time>2012-04-01T09:10:39Z</time>
      </trkpt>
      <trkpt lat="46.9664" lon="-0.69465">
        <ele>183.5</ele>
        <time>2012-04-01T09:10:40Z</time>
      </trkpt>
      <trkpt lat="46.96637" lon="-0.6946">
        <ele>183.5</ele>
        <time>2012-04-01T09:10:41Z</time>
      </trkpt>
      <trkpt lat="46.96634" lon="-0.69455">
        <ele>183.5</ele>
        <time>2012-04-01T09:10:42Z</time>
      </trkpt>
      <trkpt lat="46.9663" lon="-0.6945">
        <ele>183.5</ele>
        <time>2012-04-01T09:10:43Z</time>
      </trkpt>
      <trkpt lat="46.96627" lon="-0.69446">
        <ele>183.3</ele>
        <time>2012-04-01T09:10:44Z</time>
      </trkpt>
      <trkpt lat="46.96624" lon="-0.69441">
        <ele>183.3</ele>
        <time>2012-04-01T09:10:45Z</time>
      </trkpt>
      <trkpt lat="46.9662" lon="-0.69435">
        <ele>183.3</ele>
        <time>2012-04-01T09:10:46Z</time>
      </trkpt>
      <trkpt lat="46.96617" lon="-0.6943">
        <ele>183.3</ele>
        <time>2012-04-01T09:10:47Z</time>
      </trkpt>
      <trkpt lat="46.96613" lon="-0.69424">
        <ele>183.3</ele>
        <time>2012-04-01T09:10:48Z</time>
      </trkpt>
      <trkpt lat="46.9661" lon="-0.69418">
        <ele>183.3</ele>
        <time>2012-04-01T09:10:49Z</time>
      </trkpt>
      <trkpt lat="46.96605" lon="-0.69412">
        <ele>183.3</ele>
        <time>2012-04-01T09:10:50Z</time>
      </trkpt>
      <trkpt lat="46.96601" lon="-0.69405">
        <ele>183.1</ele>
        <time>2012-04-01T09:10:51Z</time>
      </trkpt>
      <trkpt lat="46.96597" lon="-0.69398">
        <ele>183.1</ele>
        <time>2012-04-01T09:10:52Z</time>
      </trkpt>
      <trkpt lat="46.96593" lon="-0.69392">
        <ele>183</ele>
        <time>2012-04-01T09:10:53Z</time>
      </trkpt>
      <trkpt lat="46.96588" lon="-0.69385">
        <ele>183</ele>
        <time>2012-04-01T09:10:54Z</time>
      </trkpt>
      <trkpt lat="46.96584" lon="-0.69378">
        <ele>183</ele>
        <time>2012-04-01T09:10:55Z</time>
      </trkpt>
      <trkpt lat="46.96579" lon="-0.69372">
        <ele>182.8</ele>
        <time>2012-04-01T09:10:56Z</time>
      </trkpt>
      <trkpt lat="46.96575" lon="-0.69365">
        <ele>182.8</ele>
        <time>2012-04-01T09:10:57Z</time>
      </trkpt>
      <trkpt lat="46.9657" lon="-0.69359">
        <ele>182.8</ele>
        <time>2012-04-01T09:10:58Z</time>
      </trkpt>
      <trkpt lat="46.96565" lon="-0.69352">
        <ele>182.8</ele>
        <time>2012-04-01T09:10:59Z</time>
      </trkpt>
      <trkpt lat="46.9656" lon="-0.69346">
        <ele>182.6</ele>
        <time>2012-04-01T09:11:00Z</time>
      </trkpt>
      <trkpt lat="46.96555" lon="-0.69339">
        <ele>182.6</ele>
        <time>2012-04-01T09:11:01Z</time>
      </trkpt>
      <trkpt lat="46.9655" lon="-0.69333">
        <ele>182.6</ele>
        <time>2012-04-01T09:11:02Z</time>
      </trkpt>
      <trkpt lat="46.96545" lon="-0.69327">
        <ele>182.5</ele>
        <time>2012-04-01T09:11:03Z</time>
      </trkpt>
      <trkpt lat="46.96539" lon="-0.69321">
        <ele>182.3</ele>
        <time>2012-04-01T09:11:04Z</time>
      </trkpt>
      <trkpt lat="46.96534" lon="-0.69315">
        <ele>182.3</ele>
        <time>2012-04-01T09:11:05Z</time>
      </trkpt>
      <trkpt lat="46.96528" lon="-0.69309">
        <ele>182.1</ele>
        <time>2012-04-01T09:11:06Z</time>
      </trkpt>
      <trkpt lat="46.96523" lon="-0.69303">
        <ele>182.1</ele>
        <time>2012-04-01T09:11:07Z</time>
      </trkpt>
      <trkpt lat="46.96517" lon="-0.69297">
        <ele>182</ele>
        <time>2012-04-01T09:11:08Z</time>
      </trkpt>
      <trkpt lat="46.96512" lon="-0.69292">
        <ele>181.8</ele>
        <time>2012-04-01T09:11:09Z</time>
      </trkpt>
      <trkpt lat="46.96506" lon="-0.69286">
        <ele>181.6</ele>
        <time>2012-04-01T09:11:10Z</time>
      </trkpt>
      <trkpt lat="46.96501" lon="-0.6928">
        <ele>181.6</ele>
        <time>2012-04-01T09:11:11Z</time>
      </trkpt>
      <trkpt lat="46.96495" lon="-0.69275">
        <ele>181.5</ele>
        <time>2012-04-01T09:11:12Z</time>
      </trkpt>
      <trkpt lat="46.9649" lon="-0.6927">
        <ele>181.3</ele>
        <time>2012-04-01T09:11:13Z</time>
      </trkpt>
      <trkpt lat="46.96485" lon="-0.69264">
        <ele>181.1</ele>
        <time>2012-04-01T09:11:14Z</time>
      </trkpt>
      <trkpt lat="46.96479" lon="-0.69258">
        <ele>180.8</ele>
        <time>2012-04-01T09:11:15Z</time>
      </trkpt>
      <trkpt lat="46.96474" lon="-0.69252">
        <ele>180.6</ele>
        <time>2012-04-01T09:11:16Z</time>
      </trkpt>
      <trkpt lat="46.96469" lon="-0.69246">
        <ele>180.3</ele>
        <time>2012-04-01T09:11:17Z</time>
      </trkpt>
      <trkpt lat="46.96464" lon="-0.69241">
        <ele>180.1</ele>
        <time>2012-04-01T09:11:18Z</time>
      </trkpt>
      <trkpt lat="46.96459" lon="-0.69235">
        <ele>179.8</ele>
        <time>2012-04-01T09:11:19Z</time>
      </trkpt>
      <trkpt lat="46.96454" lon="-0.6923">
        <ele>179.6</ele>
        <time>2012-04-01T09:11:20Z</time>
      </trkpt>
      <trkpt lat="46.9645" lon="-0.69224">
        <ele>179.3</ele>
        <time>2012-04-01T09:11:21Z</time>
      </trkpt>
      <trkpt lat="46.96445" lon="-0.69219">
        <ele>179</ele>
        <time>2012-04-01T09:11:22Z</time>
      </trkpt>
      <trkpt lat="46.9644" lon="-0.69214">
        <ele>178.8</ele>
        <time>2012-04-01T09:11:23Z</time>
      </trkpt>
      <trkpt lat="46.96435" lon="-0.69209">
        <ele>178.5</ele>
        <time>2012-04-01T09:11:24Z</time>
      </trkpt>
      <trkpt lat="46.9643" lon="-0.69206">
        <ele>178.3</ele>
        <time>2012-04-01T09:11:25Z</time>
      </trkpt>
      <trkpt lat="46.96424" lon="-0.69203">
        <ele>178</ele>
        <time>2012-04-01T09:11:26Z</time>
      </trkpt>
      <trkpt lat="46.96418" lon="-0.69202">
        <ele>177.8</ele>
        <time>2012-04-01T09:11:27Z</time>
      </trkpt>
      <trkpt lat="46.96412" lon="-0.692">
        <ele>177.6</ele>
        <time>2012-04-01T09:11:28Z</time>
      </trkpt>
      <trkpt lat="46.96406" lon="-0.69201">
        <ele>177.3</ele>
        <time>2012-04-01T09:11:29Z</time>
      </trkpt>
      <trkpt lat="46.964" lon="-0.69202">
        <ele>177.1</ele>
        <time>2012-04-01T09:11:30Z</time>
      </trkpt>
      <trkpt lat="46.96395" lon="-0.69204">
        <ele>177</ele>
        <time>2012-04-01T09:11:31Z</time>
      </trkpt>
      <trkpt lat="46.96389" lon="-0.69205">
        <ele>176.8</ele>
        <time>2012-04-01T09:11:32Z</time>
      </trkpt>
      <trkpt lat="46.96384" lon="-0.69207">
        <ele>176.6</ele>
        <time>2012-04-01T09:11:33Z</time>
      </trkpt>
      <trkpt lat="46.96378" lon="-0.69208">
        <ele>176.3</ele>
        <time>2012-04-01T09:11:34Z</time>
      </trkpt>
      <trkpt lat="46.96373" lon="-0.6921">
        <ele>176.3</ele>
        <time>2012-04-01T09:11:35Z</time>
      </trkpt>
      <trkpt lat="46.96368" lon="-0.69211">
        <ele>176.1</ele>
        <time>2012-04-01T09:11:36Z</time>
      </trkpt>
      <trkpt lat="46.96362" lon="-0.69212">
        <ele>176</ele>
        <time>2012-04-01T09:11:37Z</time>
      </trkpt>
      <trkpt lat="46.96357" lon="-0.69213">
        <ele>175.8</ele>
        <time>2012-04-01T09:11:38Z</time>
      </trkpt>
      <trkpt lat="46.96351" lon="-0.69213">
        <ele>175.8</ele>
        <time>2012-04-01T09:11:39Z</time>
      </trkpt>
      <trkpt lat="46.96345" lon="-0.69214">
        <ele>175.6</ele>
        <time>2012-04-01T09:11:40Z</time>
      </trkpt>
      <trkpt lat="46.9634" lon="-0.69213">
        <ele>175.6</ele>
        <time>2012-04-01T09:11:41Z</time>
      </trkpt>
      <trkpt lat="46.96334" lon="-0.69213">
        <ele>175.3</ele>
        <time>2012-04-01T09:11:42Z</time>
      </trkpt>
      <trkpt lat="46.96328" lon="-0.69211">
        <ele>175.3</ele>
        <time>2012-04-01T09:11:43Z</time>
      </trkpt>
      <trkpt lat="46.96323" lon="-0.6921">
        <ele>175</ele>
        <time>2012-04-01T09:11:44Z</time>
      </trkpt>
      <trkpt lat="46.96317" lon="-0.69209">
        <ele>174.8</ele>
        <time>2012-04-01T09:11:45Z</time>
      </trkpt>
      <trkpt lat="46.96311" lon="-0.69207">
        <ele>174.6</ele>
        <time>2012-04-01T09:11:46Z</time>
      </trkpt>
      <trkpt lat="46.96305" lon="-0.69205">
        <ele>174.6</ele>
        <time>2012-04-01T09:11:47Z</time>
      </trkpt>
      <trkpt lat="46.96299" lon="-0.69203">
        <ele>174.5</ele>
        <time>2012-04-01T09:11:48Z</time>
      </trkpt>
      <trkpt lat="46.96292" lon="-0.69201">
        <ele>174.3</ele>
        <time>2012-04-01T09:11:49Z</time>
      </trkpt>
      <trkpt lat="46.96285" lon="-0.69199">
        <ele>174</ele>
        <time>2012-04-01T09:11:50Z</time>
      </trkpt>
      <trkpt lat="46.96279" lon="-0.69196">
        <ele>173.8</ele>
        <time>2012-04-01T09:11:51Z</time>
      </trkpt>
      <trkpt lat="46.96272" lon="-0.69193">
        <ele>173.5</ele>
        <time>2012-04-01T09:11:52Z</time>
      </trkpt>
      <trkpt lat="46.96266" lon="-0.6919">
        <ele>173.1</ele>
        <time>2012-04-01T09:11:53Z</time>
      </trkpt>
      <trkpt lat="46.9626" lon="-0.69187">
        <ele>172.8</ele>
        <time>2012-04-01T09:11:54Z</time>
      </trkpt>
      <trkpt lat="46.96254" lon="-0.69184">
        <ele>172.6</ele>
        <time>2012-04-01T09:11:55Z</time>
      </trkpt>
      <trkpt lat="46.96248" lon="-0.6918">
        <ele>172.3</ele>
        <time>2012-04-01T09:11:56Z</time>
      </trkpt>
      <trkpt lat="46.96243" lon="-0.69177">
        <ele>172</ele>
        <time>2012-04-01T09:11:57Z</time>
      </trkpt>
      <trkpt lat="46.96237" lon="-0.69173">
        <ele>171.6</ele>
        <time>2012-04-01T09:11:58Z</time>
      </trkpt>
      <trkpt lat="46.96232" lon="-0.69169">
        <ele>171.3</ele>
        <time>2012-04-01T09:11:59Z</time>
      </trkpt>
      <trkpt lat="46.96227" lon="-0.69165">
        <ele>171</ele>
        <time>2012-04-01T09:12:00Z</time>
      </trkpt>
      <trkpt lat="46.96221" lon="-0.69161">
        <ele>170.6</ele>
        <time>2012-04-01T09:12:01Z</time>
      </trkpt>
      <trkpt lat="46.96216" lon="-0.69158">
        <ele>170.3</ele>
        <time>2012-04-01T09:12:02Z</time>
      </trkpt>
      <trkpt lat="46.96211" lon="-0.69155">
        <ele>170.1</ele>
        <time>2012-04-01T09:12:03Z</time>
      </trkpt>
      <trkpt lat="46.96206" lon="-0.69152">
        <ele>169.8</ele>
        <time>2012-04-01T09:12:04Z</time>
      </trkpt>
      <trkpt lat="46.962" lon="-0.69149">
        <ele>169.5</ele>
        <time>2012-04-01T09:12:05Z</time>
      </trkpt>
      <trkpt lat="46.96194" lon="-0.69146">
        <ele>169.1</ele>
        <time>2012-04-01T09:12:06Z</time>
      </trkpt>
      <trkpt lat="46.96188" lon="-0.69144">
        <ele>168.8</ele>
        <time>2012-04-01T09:12:07Z</time>
      </trkpt>
      <trkpt lat="46.96181" lon="-0.69141">
        <ele>168.5</ele>
        <time>2012-04-01T09:12:08Z</time>
      </trkpt>
      <trkpt lat="46.96175" lon="-0.69139">
        <ele>168</ele>
        <time>2012-04-01T09:12:09Z</time>
      </trkpt>
      <trkpt lat="46.96168" lon="-0.69136">
        <ele>167.6</ele>
        <time>2012-04-01T09:12:10Z</time>
      </trkpt>
      <trkpt lat="46.96162" lon="-0.69134">
        <ele>167.3</ele>
        <time>2012-04-01T09:12:11Z</time>
      </trkpt>
      <trkpt lat="46.96155" lon="-0.69132">
        <ele>167</ele>
        <time>2012-04-01T09:12:12Z</time>
      </trkpt>
      <trkpt lat="46.96149" lon="-0.69129">
        <ele>166.8</ele>
        <time>2012-04-01T09:12:13Z</time>
      </trkpt>
      <trkpt lat="46.96143" lon="-0.69127">
        <ele>166.6</ele>
        <time>2012-04-01T09:12:14Z</time>
      </trkpt>
      <trkpt lat="46.96137" lon="-0.69125">
        <ele>166.3</ele>
        <time>2012-04-01T09:12:15Z</time>
      </trkpt>
      <trkpt lat="46.96132" lon="-0.69123">
        <ele>166.1</ele>
        <time>2012-04-01T09:12:16Z</time>
      </trkpt>
      <trkpt lat="46.96126" lon="-0.69121">
        <ele>166.1</ele>
        <time>2012-04-01T09:12:17Z</time>
      </trkpt>
      <trkpt lat="46.96121" lon="-0.69119">
        <ele>166</ele>
        <time>2012-04-01T09:12:18Z</time>
      </trkpt>
      <trkpt lat="46.96116" lon="-0.69117">
        <ele>165.8</ele>
        <time>2012-04-01T09:12:19Z</time>
      </trkpt>
      <trkpt lat="46.9611" lon="-0.69116">
        <ele>165.8</ele>
        <time>2012-04-01T09:12:20Z</time>
      </trkpt>
      <trkpt lat="46.96105" lon="-0.69114">
        <ele>165.6</ele>
        <time>2012-04-01T09:12:21Z</time>
      </trkpt>
      <trkpt lat="46.96099" lon="-0.69112">
        <ele>165.6</ele>
        <time>2012-04-01T09:12:22Z</time>
      </trkpt>
      <trkpt lat="46.96093" lon="-0.6911">
        <ele>165.5</ele>
        <time>2012-04-01T09:12:23Z</time>
      </trkpt>
      <trkpt lat="46.96087" lon="-0.69108">
        <ele>165.5</ele>
        <time>2012-04-01T09:12:24Z</time>
      </trkpt>
      <trkpt lat="46.96081" lon="-0.69105">
        <ele>165.5</ele>
        <time>2012-04-01T09:12:25Z</time>
      </trkpt>
      <trkpt lat="46.96076" lon="-0.69102">
        <ele>165.6</ele>
        <time>2012-04-01T09:12:26Z</time>
      </trkpt>
      <trkpt lat="46.9607" lon="-0.69099">
        <ele>165.6</ele>
        <time>2012-04-01T09:12:27Z</time>
      </trkpt>
      <trkpt lat="46.96064" lon="-0.69095">
        <ele>165.8</ele>
        <time>2012-04-01T09:12:28Z</time>
      </trkpt>
      <trkpt lat="46.96059" lon="-0.69091">
        <ele>165.8</ele>
        <time>2012-04-01T09:12:29Z</time>
      </trkpt>
      <trkpt lat="46.96053" lon="-0.69086">
        <ele>166</ele>
        <time>2012-04-01T09:12:30Z</time>
      </trkpt>
      <trkpt lat="46.96047" lon="-0.69081">
        <ele>166.1</ele>
        <time>2012-04-01T09:12:31Z</time>
      </trkpt>
      <trkpt lat="46.96042" lon="-0.69075">
        <ele>166.3</ele>
        <time>2012-04-01T09:12:32Z</time>
      </trkpt>
      <trkpt lat="46.96038" lon="-0.6907">
        <ele>166.3</ele>
        <time>2012-04-01T09:12:33Z</time>
      </trkpt>
      <trkpt lat="46.96033" lon="-0.69064">
        <ele>166.5</ele>
        <time>2012-04-01T09:12:34Z</time>
      </trkpt>
      <trkpt lat="46.96029" lon="-0.69058">
        <ele>166.6</ele>
        <time>2012-04-01T09:12:35Z</time>
      </trkpt>
      <trkpt lat="46.96024" lon="-0.69052">
        <ele>166.6</ele>
        <time>2012-04-01T09:12:36Z</time>
      </trkpt>
      <trkpt lat="46.9602" lon="-0.69046">
        <ele>166.8</ele>
        <time>2012-04-01T09:12:37Z</time>
      </trkpt>
      <trkpt lat="46.96016" lon="-0.6904">
        <ele>166.8</ele>
        <time>2012-04-01T09:12:38Z</time>
      </trkpt>
      <trkpt lat="46.96012" lon="-0.69034">
        <ele>166.8</ele>
        <time>2012-04-01T09:12:39Z</time>
      </trkpt>
      <trkpt lat="46.96007" lon="-0.69029">
        <ele>166.8</ele>
        <time>2012-04-01T09:12:40Z</time>
      </trkpt>
      <trkpt lat="46.96003" lon="-0.69023">
        <ele>166.8</ele>
        <time>2012-04-01T09:12:41Z</time>
      </trkpt>
      <trkpt lat="46.95998" lon="-0.69019">
        <ele>166.6</ele>
        <time>2012-04-01T09:12:42Z</time>
      </trkpt>
      <trkpt lat="46.95993" lon="-0.69014">
        <ele>166.6</ele>
        <time>2012-04-01T09:12:43Z</time>
      </trkpt>
      <trkpt lat="46.95988" lon="-0.69009">
        <ele>166.6</ele>
        <time>2012-04-01T09:12:44Z</time>
      </trkpt>
      <trkpt lat="46.95983" lon="-0.69005">
        <ele>166.6</ele>
        <time>2012-04-01T09:12:45Z</time>
      </trkpt>
      <trkpt lat="46.95978" lon="-0.69">
        <ele>166.6</ele>
        <time>2012-04-01T09:12:46Z</time>
      </trkpt>
      <trkpt lat="46.95973" lon="-0.68995">
        <ele>166.6</ele>
        <time>2012-04-01T09:12:47Z</time>
      </trkpt>
      <trkpt lat="46.95969" lon="-0.6899">
        <ele>166.8</ele>
        <time>2012-04-01T09:12:48Z</time>
      </trkpt>
      <trkpt lat="46.95964" lon="-0.68984">
        <ele>166.8</ele>
        <time>2012-04-01T09:12:49Z</time>
      </trkpt>
      <trkpt lat="46.95959" lon="-0.68979">
        <ele>166.8</ele>
        <time>2012-04-01T09:12:50Z</time>
      </trkpt>
      <trkpt lat="46.95955" lon="-0.68974">
        <ele>167</ele>
        <time>2012-04-01T09:12:51Z</time>
      </trkpt>
      <trkpt lat="46.95951" lon="-0.68968">
        <ele>167.1</ele>
        <time>2012-04-01T09:12:52Z</time>
      </trkpt>
      <trkpt lat="46.95946" lon="-0.68963">
        <ele>167.1</ele>
        <time>2012-04-01T09:12:53Z</time>
      </trkpt>
      <trkpt lat="46.95942" lon="-0.68958">
        <ele>167.1</ele>
        <time>2012-04-01T09:12:54Z</time>
      </trkpt>
      <trkpt lat="46.95939" lon="-0.68953">
        <ele>167.3</ele>
        <time>2012-04-01T09:12:55Z</time>
      </trkpt>
      <trkpt lat="46.95935" lon="-0.68948">
        <ele>167.3</ele>
        <time>2012-04-01T09:12:56Z</time>
      </trkpt>
      <trkpt lat="46.95931" lon="-0.68943">
        <ele>167.3</ele>
        <time>2012-04-01T09:12:57Z</time>
      </trkpt>
      <trkpt lat="46.95927" lon="-0.68938">
        <ele>167.5</ele>
        <time>2012-04-01T09:12:58Z</time>
      </trkpt>
      <trkpt lat="46.95924" lon="-0.68933">
        <ele>167.5</ele>
        <time>2012-04-01T09:12:59Z</time>
      </trkpt>
      <trkpt lat="46.9592" lon="-0.68928">
        <ele>167.5</ele>
        <time>2012-04-01T09:13:00Z</time>
      </trkpt>
      <trkpt lat="46.95916" lon="-0.68924">
        <ele>167.6</ele>
        <time>2012-04-01T09:13:01Z</time>
      </trkpt>
      <trkpt lat="46.95913" lon="-0.68918">
        <ele>167.6</ele>
        <time>2012-04-01T09:13:02Z</time>
      </trkpt>
      <trkpt lat="46.95909" lon="-0.68912">
        <ele>167.6</ele>
        <time>2012-04-01T09:13:03Z</time>
      </trkpt>
      <trkpt lat="46.95906" lon="-0.68906">
        <ele>167.8</ele>
        <time>2012-04-01T09:13:04Z</time>
      </trkpt>
      <trkpt lat="46.95903" lon="-0.68899">
        <ele>167.8</ele>
        <time>2012-04-01T09:13:05Z</time>
      </trkpt>
      <trkpt lat="46.959" lon="-0.68891">
        <ele>167.8</ele>
        <time>2012-04-01T09:13:06Z</time>
      </trkpt>
      <trkpt lat="46.95898" lon="-0.68884">
        <ele>167.8</ele>
        <time>2012-04-01T09:13:07Z</time>
      </trkpt>
      <trkpt lat="46.95897" lon="-0.68876">
        <ele>167.8</ele>
        <time>2012-04-01T09:13:08Z</time>
      </trkpt>
      <trkpt lat="46.95895" lon="-0.68868">
        <ele>167.8</ele>
        <time>2012-04-01T09:13:09Z</time>
      </trkpt>
      <trkpt lat="46.95894" lon="-0.6886">
        <ele>167.8</ele>
        <time>2012-04-01T09:13:10Z</time>
      </trkpt>
      <trkpt lat="46.95892" lon="-0.68851">
        <ele>167.8</ele>
        <time>2012-04-01T09:13:11Z</time>
      </trkpt>
      <trkpt lat="46.95891" lon="-0.68842">
        <ele>167.6</ele>
        <time>2012-04-01T09:13:12Z</time>
      </trkpt>
      <trkpt lat="46.95889" lon="-0.68833">
        <ele>167.6</ele>
        <time>2012-04-01T09:13:13Z</time>
      </trkpt>
      <trkpt lat="46.95885" lon="-0.68825">
        <ele>167.5</ele>
        <time>2012-04-01T09:13:14Z</time>
      </trkpt>
      <trkpt lat="46.95881" lon="-0.68817">
        <ele>167.3</ele>
        <time>2012-04-01T09:13:15Z</time>
      </trkpt>
      <trkpt lat="46.95876" lon="-0.68809">
        <ele>167.1</ele>
        <time>2012-04-01T09:13:16Z</time>
      </trkpt>
      <trkpt lat="46.95871" lon="-0.68802">
        <ele>167.1</ele>
        <time>2012-04-01T09:13:17Z</time>
      </trkpt>
      <trkpt lat="46.95865" lon="-0.68795">
        <ele>167</ele>
        <time>2012-04-01T09:13:18Z</time>
      </trkpt>
      <trkpt lat="46.95859" lon="-0.68791">
        <ele>166.8</ele>
        <time>2012-04-01T09:13:19Z</time>
      </trkpt>
      <trkpt lat="46.95853" lon="-0.68786">
        <ele>166.8</ele>
        <time>2012-04-01T09:13:20Z</time>
      </trkpt>
      <trkpt lat="46.95847" lon="-0.68784">
        <ele>166.8</ele>
        <time>2012-04-01T09:13:21Z</time>
      </trkpt>
      <trkpt lat="46.9584" lon="-0.68782">
        <ele>166.8</ele>
        <time>2012-04-01T09:13:22Z</time>
      </trkpt>
      <trkpt lat="46.95834" lon="-0.68783">
        <ele>166.8</ele>
        <time>2012-04-01T09:13:23Z</time>
      </trkpt>
      <trkpt lat="46.95829" lon="-0.68785">
        <ele>166.6</ele>
        <time>2012-04-01T09:13:24Z</time>
      </trkpt>
      <trkpt lat="46.95823" lon="-0.68786">
        <ele>166.6</ele>
        <time>2012-04-01T09:13:25Z</time>
      </trkpt>
      <trkpt lat="46.95818" lon="-0.68788">
        <ele>166.6</ele>
        <time>2012-04-01T09:13:26Z</time>
      </trkpt>
      <trkpt lat="46.95813" lon="-0.68789">
        <ele>166.6</ele>
        <time>2012-04-01T09:13:27Z</time>
      </trkpt>
      <trkpt lat="46.95808" lon="-0.68791">
        <ele>166.6</ele>
        <time>2012-04-01T09:13:28Z</time>
      </trkpt>
      <trkpt lat="46.95804" lon="-0.68792">
        <ele>166.6</ele>
        <time>2012-04-01T09:13:29Z</time>
      </trkpt>
      <trkpt lat="46.95799" lon="-0.68793">
        <ele>166.6</ele>
        <time>2012-04-01T09:13:30Z</time>
      </trkpt>
      <trkpt lat="46.95791" lon="-0.68795">
        <ele>166.8</ele>
        <time>2012-04-01T09:13:32Z</time>
      </trkpt>
      <trkpt lat="46.95782" lon="-0.68796">
        <ele>166.8</ele>
        <time>2012-04-01T09:13:34Z</time>
      </trkpt>
      <trkpt lat="46.95773" lon="-0.68797">
        <ele>167</ele>
        <time>2012-04-01T09:13:36Z</time>
      </trkpt>
      <trkpt lat="46.95765" lon="-0.68798">
        <ele>167.1</ele>
        <time>2012-04-01T09:13:38Z</time>
      </trkpt>
      <trkpt lat="46.95757" lon="-0.68799">
        <ele>167.3</ele>
        <time>2012-04-01T09:13:40Z</time>
      </trkpt>
      <trkpt lat="46.9575" lon="-0.68799">
        <ele>167.3</ele>
        <time>2012-04-01T09:13:42Z</time>
      </trkpt>
      <trkpt lat="46.95743" lon="-0.68799">
        <ele>167.3</ele>
        <time>2012-04-01T09:13:44Z</time>
      </trkpt>
      <trkpt lat="46.95737" lon="-0.68798">
        <ele>167.3</ele>
        <time>2012-04-01T09:13:46Z</time>
      </trkpt>
      <trkpt lat="46.95731" lon="-0.68797">
        <ele>167.3</ele>
        <time>2012-04-01T09:13:48Z</time>
      </trkpt>
      <trkpt lat="46.95722" lon="-0.68795">
        <ele>167.3</ele>
        <time>2012-04-01T09:13:51Z</time>
      </trkpt>
      <trkpt lat="46.95714" lon="-0.68792">
        <ele>167.5</ele>
        <time>2012-04-01T09:13:54Z</time>
      </trkpt>
      <trkpt lat="46.95705" lon="-0.68787">
        <ele>167.6</ele>
        <time>2012-04-01T09:13:57Z</time>
      </trkpt>
      <trkpt lat="46.957" lon="-0.68784">
        <ele>167.6</ele>
        <time>2012-04-01T09:13:59Z</time>
      </trkpt>
      <trkpt lat="46.95694" lon="-0.68781">
        <ele>167.6</ele>
        <time>2012-04-01T09:14:01Z</time>
      </trkpt>
      <trkpt lat="46.95688" lon="-0.68778">
        <ele>167.8</ele>
        <time>2012-04-01T09:14:03Z</time>
      </trkpt>
      <trkpt lat="46.95685" lon="-0.68777">
        <ele>167.8</ele>
        <time>2012-04-01T09:14:04Z</time>
      </trkpt>
      <trkpt lat="46.95674" lon="-0.68775">
        <ele>168.1</ele>
        <time>2012-04-01T09:14:07Z</time>
      </trkpt>
      <trkpt lat="46.95666" lon="-0.68773">
        <ele>169.6</ele>
        <time>2012-04-01T09:14:09Z</time>
      </trkpt>
      <trkpt lat="46.95662" lon="-0.68772">
        <ele>170.3</ele>
        <time>2012-04-01T09:14:10Z</time>
      </trkpt>
      <trkpt lat="46.95657" lon="-0.68772">
        <ele>170.8</ele>
        <time>2012-04-01T09:14:11Z</time>
      </trkpt>
      <trkpt lat="46.95652" lon="-0.68771">
        <ele>171.3</ele>
        <time>2012-04-01T09:14:12Z</time>
      </trkpt>
      <trkpt lat="46.95647" lon="-0.6877">
        <ele>171.8</ele>
        <time>2012-04-01T09:14:13Z</time>
      </trkpt>
      <trkpt lat="46.95642" lon="-0.68769">
        <ele>172.1</ele>
        <time>2012-04-01T09:14:14Z</time>
      </trkpt>
      <trkpt lat="46.95637" lon="-0.68768">
        <ele>172.3</ele>
        <time>2012-04-01T09:14:15Z</time>
      </trkpt>
      <trkpt lat="46.95631" lon="-0.68767">
        <ele>172.6</ele>
        <time>2012-04-01T09:14:16Z</time>
      </trkpt>
      <trkpt lat="46.95626" lon="-0.68765">
        <ele>173</ele>
        <time>2012-04-01T09:14:17Z</time>
      </trkpt>
      <trkpt lat="46.95621" lon="-0.68764">
        <ele>173.1</ele>
        <time>2012-04-01T09:14:18Z</time>
      </trkpt>
      <trkpt lat="46.95616" lon="-0.68763">
        <ele>173.3</ele>
        <time>2012-04-01T09:14:19Z</time>
      </trkpt>
      <trkpt lat="46.95611" lon="-0.68762">
        <ele>173.5</ele>
        <time>2012-04-01T09:14:20Z</time>
      </trkpt>
      <trkpt lat="46.95606" lon="-0.68761">
        <ele>173.6</ele>
        <time>2012-04-01T09:14:21Z</time>
      </trkpt>
      <trkpt lat="46.956" lon="-0.6876">
        <ele>173.8</ele>
        <time>2012-04-01T09:14:22Z</time>
      </trkpt>
      <trkpt lat="46.95595" lon="-0.68759">
        <ele>173.8</ele>
        <time>2012-04-01T09:14:23Z</time>
      </trkpt>
      <trkpt lat="46.95589" lon="-0.68758">
        <ele>173.8</ele>
        <time>2012-04-01T09:14:24Z</time>
      </trkpt>
      <trkpt lat="46.95583" lon="-0.68757">
        <ele>174</ele>
        <time>2012-04-01T09:14:25Z</time>
      </trkpt>
      <trkpt lat="46.95577" lon="-0.68756">
        <ele>174</ele>
        <time>2012-04-01T09:14:26Z</time>
      </trkpt>
      <trkpt lat="46.95571" lon="-0.68755">
        <ele>174</ele>
        <time>2012-04-01T09:14:27Z</time>
      </trkpt>
      <trkpt lat="46.95565" lon="-0.68754">
        <ele>174</ele>
        <time>2012-04-01T09:14:28Z</time>
      </trkpt>
      <trkpt lat="46.9556" lon="-0.68753">
        <ele>174</ele>
        <time>2012-04-01T09:14:29Z</time>
      </trkpt>
      <trkpt lat="46.95554" lon="-0.68751">
        <ele>174</ele>
        <time>2012-04-01T09:14:30Z</time>
      </trkpt>
      <trkpt lat="46.95548" lon="-0.6875">
        <ele>174.1</ele>
        <time>2012-04-01T09:14:31Z</time>
      </trkpt>
      <trkpt lat="46.95542" lon="-0.68748">
        <ele>174</ele>
        <time>2012-04-01T09:14:32Z</time>
      </trkpt>
      <trkpt lat="46.95535" lon="-0.68747">
        <ele>174</ele>
        <time>2012-04-01T09:14:33Z</time>
      </trkpt>
      <trkpt lat="46.95529" lon="-0.68746">
        <ele>174</ele>
        <time>2012-04-01T09:14:34Z</time>
      </trkpt>
      <trkpt lat="46.95523" lon="-0.68745">
        <ele>174</ele>
        <time>2012-04-01T09:14:35Z</time>
      </trkpt>
      <trkpt lat="46.95517" lon="-0.68744">
        <ele>174.1</ele>
        <time>2012-04-01T09:14:36Z</time>
      </trkpt>
      <trkpt lat="46.9551" lon="-0.68744">
        <ele>174</ele>
        <time>2012-04-01T09:14:37Z</time>
      </trkpt>
      <trkpt lat="46.95504" lon="-0.68743">
        <ele>174</ele>
        <time>2012-04-01T09:14:38Z</time>
      </trkpt>
      <trkpt lat="46.95498" lon="-0.68742">
        <ele>174</ele>
        <time>2012-04-01T09:14:39Z</time>
      </trkpt>
      <trkpt lat="46.95492" lon="-0.68741">
        <ele>174</ele>
        <time>2012-04-01T09:14:40Z</time>
      </trkpt>
      <trkpt lat="46.95485" lon="-0.6874">
        <ele>173.8</ele>
        <time>2012-04-01T09:14:41Z</time>
      </trkpt>
      <trkpt lat="46.95479" lon="-0.68739">
        <ele>173.6</ele>
        <time>2012-04-01T09:14:42Z</time>
      </trkpt>
      <trkpt lat="46.95473" lon="-0.68738">
        <ele>173.6</ele>
        <time>2012-04-01T09:14:43Z</time>
      </trkpt>
      <trkpt lat="46.95466" lon="-0.68737">
        <ele>173.3</ele>
        <time>2012-04-01T09:14:44Z</time>
      </trkpt>
      <trkpt lat="46.9546" lon="-0.68736">
        <ele>173.3</ele>
        <time>2012-04-01T09:14:45Z</time>
      </trkpt>
      <trkpt lat="46.95454" lon="-0.68735">
        <ele>173.1</ele>
        <time>2012-04-01T09:14:46Z</time>
      </trkpt>
      <trkpt lat="46.95447" lon="-0.68733">
        <ele>173.1</ele>
        <time>2012-04-01T09:14:47Z</time>
      </trkpt>
      <trkpt lat="46.95441" lon="-0.68732">
        <ele>173.1</ele>
        <time>2012-04-01T09:14:48Z</time>
      </trkpt>
      <trkpt lat="46.95434" lon="-0.68731">
        <ele>173.1</ele>
        <time>2012-04-01T09:14:49Z</time>
      </trkpt>
      <trkpt lat="46.95428" lon="-0.6873">
        <ele>173.1</ele>
        <time>2012-04-01T09:14:50Z</time>
      </trkpt>
      <trkpt lat="46.95422" lon="-0.68729">
        <ele>173.1</ele>
        <time>2012-04-01T09:14:51Z</time>
      </trkpt>
      <trkpt lat="46.95416" lon="-0.68728">
        <ele>173.1</ele>
        <time>2012-04-01T09:14:52Z</time>
      </trkpt>
      <trkpt lat="46.9541" lon="-0.68727">
        <ele>173.1</ele>
        <time>2012-04-01T09:14:53Z</time>
      </trkpt>
      <trkpt lat="46.95405" lon="-0.68726">
        <ele>173.3</ele>
        <time>2012-04-01T09:14:54Z</time>
      </trkpt>
      <trkpt lat="46.95399" lon="-0.68725">
        <ele>173.3</ele>
        <time>2012-04-01T09:14:55Z</time>
      </trkpt>
      <trkpt lat="46.95393" lon="-0.68724">
        <ele>173.3</ele>
        <time>2012-04-01T09:14:56Z</time>
      </trkpt>
      <trkpt lat="46.95387" lon="-0.68723">
        <ele>173.1</ele>
        <time>2012-04-01T09:14:57Z</time>
      </trkpt>
      <trkpt lat="46.95381" lon="-0.68721">
        <ele>172.8</ele>
        <time>2012-04-01T09:14:58Z</time>
      </trkpt>
      <trkpt lat="46.95374" lon="-0.6872">
        <ele>172.8</ele>
        <time>2012-04-01T09:14:59Z</time>
      </trkpt>
      <trkpt lat="46.95368" lon="-0.68721">
        <ele>172.6</ele>
        <time>2012-04-01T09:15:00Z</time>
      </trkpt>
      <trkpt lat="46.95361" lon="-0.68722">
        <ele>172.5</ele>
        <time>2012-04-01T09:15:01Z</time>
      </trkpt>
      <trkpt lat="46.95354" lon="-0.68726">
        <ele>172.5</ele>
        <time>2012-04-01T09:15:02Z</time>
      </trkpt>
      <trkpt lat="46.95347" lon="-0.68729">
        <ele>172.3</ele>
        <time>2012-04-01T09:15:03Z</time>
      </trkpt>
      <trkpt lat="46.95341" lon="-0.68733">
        <ele>172.3</ele>
        <time>2012-04-01T09:15:04Z</time>
      </trkpt>
      <trkpt lat="46.95335" lon="-0.68736">
        <ele>172.3</ele>
        <time>2012-04-01T09:15:05Z</time>
      </trkpt>
      <trkpt lat="46.95329" lon="-0.68739">
        <ele>172.3</ele>
        <time>2012-04-01T09:15:06Z</time>
      </trkpt>
      <trkpt lat="46.95323" lon="-0.68742">
        <ele>172.3</ele>
        <time>2012-04-01T09:15:07Z</time>
      </trkpt>
      <trkpt lat="46.95317" lon="-0.68745">
        <ele>172.3</ele>
        <time>2012-04-01T09:15:08Z</time>
      </trkpt>
      <trkpt lat="46.95312" lon="-0.68749">
        <ele>172.3</ele>
        <time>2012-04-01T09:15:09Z</time>
      </trkpt>
      <trkpt lat="46.95307" lon="-0.68752">
        <ele>172.3</ele>
        <time>2012-04-01T09:15:10Z</time>
      </trkpt>
      <trkpt lat="46.95301" lon="-0.68755">
        <ele>172.3</ele>
        <time>2012-04-01T09:15:11Z</time>
      </trkpt>
      <trkpt lat="46.95296" lon="-0.68758">
        <ele>172.3</ele>
        <time>2012-04-01T09:15:12Z</time>
      </trkpt>
      <trkpt lat="46.95291" lon="-0.68761">
        <ele>172.3</ele>
        <time>2012-04-01T09:15:13Z</time>
      </trkpt>
      <trkpt lat="46.95286" lon="-0.68765">
        <ele>172.5</ele>
        <time>2012-04-01T09:15:14Z</time>
      </trkpt>
      <trkpt lat="46.95281" lon="-0.68768">
        <ele>172.5</ele>
        <time>2012-04-01T09:15:15Z</time>
      </trkpt>
      <trkpt lat="46.95276" lon="-0.68771">
        <ele>172.6</ele>
        <time>2012-04-01T09:15:16Z</time>
      </trkpt>
      <trkpt lat="46.95271" lon="-0.68774">
        <ele>172.6</ele>
        <time>2012-04-01T09:15:17Z</time>
      </trkpt>
      <trkpt lat="46.95266" lon="-0.68774">
        <ele>172.8</ele>
        <time>2012-04-01T09:15:18Z</time>
      </trkpt>
      <trkpt lat="46.9526" lon="-0.68773">
        <ele>172.8</ele>
        <time>2012-04-01T09:15:19Z</time>
      </trkpt>
      <trkpt lat="46.95256" lon="-0.68772">
        <ele>173</ele>
        <time>2012-04-01T09:15:20Z</time>
      </trkpt>
      <trkpt lat="46.95251" lon="-0.6877">
        <ele>173.1</ele>
        <time>2012-04-01T09:15:21Z</time>
      </trkpt>
      <trkpt lat="46.95247" lon="-0.68768">
        <ele>173.1</ele>
        <time>2012-04-01T09:15:22Z</time>
      </trkpt>
      <trkpt lat="46.95242" lon="-0.68765">
        <ele>173.1</ele>
        <time>2012-04-01T09:15:23Z</time>
      </trkpt>
      <trkpt lat="46.95238" lon="-0.68762">
        <ele>172.8</ele>
        <time>2012-04-01T09:15:24Z</time>
      </trkpt>
      <trkpt lat="46.95233" lon="-0.68759">
        <ele>172.6</ele>
        <time>2012-04-01T09:15:25Z</time>
      </trkpt>
      <trkpt lat="46.95229" lon="-0.68756">
        <ele>172.5</ele>
        <time>2012-04-01T09:15:26Z</time>
      </trkpt>
      <trkpt lat="46.95224" lon="-0.68753">
        <ele>172.3</ele>
        <time>2012-04-01T09:15:27Z</time>
      </trkpt>
      <trkpt lat="46.95218" lon="-0.68749">
        <ele>172.1</ele>
        <time>2012-04-01T09:15:28Z</time>
      </trkpt>
      <trkpt lat="46.95213" lon="-0.68745">
        <ele>171.8</ele>
        <time>2012-04-01T09:15:29Z</time>
      </trkpt>
      <trkpt lat="46.95208" lon="-0.68741">
        <ele>171.8</ele>
        <time>2012-04-01T09:15:30Z</time>
      </trkpt>
      <trkpt lat="46.95202" lon="-0.68736">
        <ele>171.6</ele>
        <time>2012-04-01T09:15:31Z</time>
      </trkpt>
      <trkpt lat="46.95196" lon="-0.68731">
        <ele>171.6</ele>
        <time>2012-04-01T09:15:32Z</time>
      </trkpt>
      <trkpt lat="46.95191" lon="-0.68726">
        <ele>171.6</ele>
        <time>2012-04-01T09:15:33Z</time>
      </trkpt>
      <trkpt lat="46.95185" lon="-0.68721">
        <ele>171.8</ele>
        <time>2012-04-01T09:15:34Z</time>
      </trkpt>
      <trkpt lat="46.9518" lon="-0.68716">
        <ele>171.8</ele>
        <time>2012-04-01T09:15:35Z</time>
      </trkpt>
      <trkpt lat="46.95174" lon="-0.68711">
        <ele>172</ele>
        <time>2012-04-01T09:15:36Z</time>
      </trkpt>
      <trkpt lat="46.95168" lon="-0.68707">
        <ele>172.1</ele>
        <time>2012-04-01T09:15:37Z</time>
      </trkpt>
      <trkpt lat="46.95163" lon="-0.68702">
        <ele>172.1</ele>
        <time>2012-04-01T09:15:38Z</time>
      </trkpt>
      <trkpt lat="46.95157" lon="-0.68697">
        <ele>172.1</ele>
        <time>2012-04-01T09:15:39Z</time>
      </trkpt>
      <trkpt lat="46.95151" lon="-0.68693">
        <ele>172.1</ele>
        <time>2012-04-01T09:15:40Z</time>
      </trkpt>
      <trkpt lat="46.95146" lon="-0.68688">
        <ele>172.1</ele>
        <time>2012-04-01T09:15:41Z</time>
      </trkpt>
      <trkpt lat="46.95141" lon="-0.68684">
        <ele>172.1</ele>
        <time>2012-04-01T09:15:42Z</time>
      </trkpt>
      <trkpt lat="46.95136" lon="-0.6868">
        <ele>172.1</ele>
        <time>2012-04-01T09:15:43Z</time>
      </trkpt>
      <trkpt lat="46.9513" lon="-0.68675">
        <ele>172.1</ele>
        <time>2012-04-01T09:15:44Z</time>
      </trkpt>
      <trkpt lat="46.95124" lon="-0.68671">
        <ele>171.8</ele>
        <time>2012-04-01T09:15:45Z</time>
      </trkpt>
      <trkpt lat="46.95119" lon="-0.68667">
        <ele>171.8</ele>
        <time>2012-04-01T09:15:46Z</time>
      </trkpt>
      <trkpt lat="46.95112" lon="-0.68662">
        <ele>171.8</ele>
        <time>2012-04-01T09:15:47Z</time>
      </trkpt>
      <trkpt lat="46.95106" lon="-0.68658">
        <ele>171.8</ele>
        <time>2012-04-01T09:15:48Z</time>
      </trkpt>
      <trkpt lat="46.951" lon="-0.68653">
        <ele>171.8</ele>
        <time>2012-04-01T09:15:49Z</time>
      </trkpt>
      <trkpt lat="46.95094" lon="-0.68647">
        <ele>171.8</ele>
        <time>2012-04-01T09:15:50Z</time>
      </trkpt>
      <trkpt lat="46.95088" lon="-0.68642">
        <ele>171.8</ele>
        <time>2012-04-01T09:15:51Z</time>
      </trkpt>
      <trkpt lat="46.95082" lon="-0.68637">
        <ele>171.8</ele>
        <time>2012-04-01T09:15:52Z</time>
      </trkpt>
      <trkpt lat="46.95077" lon="-0.68632">
        <ele>171.8</ele>
        <time>2012-04-01T09:15:53Z</time>
      </trkpt>
      <trkpt lat="46.95072" lon="-0.68628">
        <ele>171.8</ele>
        <time>2012-04-01T09:15:54Z</time>
      </trkpt>
      <trkpt lat="46.95068" lon="-0.68624">
        <ele>171.8</ele>
        <time>2012-04-01T09:15:55Z</time>
      </trkpt>
      <trkpt lat="46.9506" lon="-0.68618">
        <ele>171.8</ele>
        <time>2012-04-01T09:15:57Z</time>
      </trkpt>
      <trkpt lat="46.95051" lon="-0.68608">
        <ele>171.8</ele>
        <time>2012-04-01T09:15:58Z</time>
      </trkpt>
      <trkpt lat="46.95045" lon="-0.68604">
        <ele>172.8</ele>
        <time>2012-04-01T09:16:00Z</time>
      </trkpt>
      <trkpt lat="46.95039" lon="-0.68599">
        <ele>173</ele>
        <time>2012-04-01T09:16:02Z</time>
      </trkpt>
      <trkpt lat="46.95032" lon="-0.68593">
        <ele>173</ele>
        <time>2012-04-01T09:16:05Z</time>
      </trkpt>
      <trkpt lat="46.9503" lon="-0.6859">
        <ele>173.1</ele>
        <time>2012-04-01T09:16:06Z</time>
      </trkpt>
      <trkpt lat="46.95019" lon="-0.68578">
        <ele>173.1</ele>
        <time>2012-04-01T09:16:11Z</time>
      </trkpt>
      <trkpt lat="46.95013" lon="-0.68575">
        <ele>173.1</ele>
        <time>2012-04-01T09:16:13Z</time>
      </trkpt>
      <trkpt lat="46.95004" lon="-0.68573">
        <ele>173.3</ele>
        <time>2012-04-01T09:16:16Z</time>
      </trkpt>
      <trkpt lat="46.94996" lon="-0.68575">
        <ele>173.3</ele>
        <time>2012-04-01T09:16:19Z</time>
      </trkpt>
      <trkpt lat="46.9499" lon="-0.68578">
        <ele>173.3</ele>
        <time>2012-04-01T09:16:21Z</time>
      </trkpt>
      <trkpt lat="46.94981" lon="-0.68582">
        <ele>173.5</ele>
        <time>2012-04-01T09:16:24Z</time>
      </trkpt>
      <trkpt lat="46.94973" lon="-0.68586">
        <ele>173.5</ele>
        <time>2012-04-01T09:16:27Z</time>
      </trkpt>
      <trkpt lat="46.94967" lon="-0.68589">
        <ele>173.6</ele>
        <time>2012-04-01T09:16:29Z</time>
      </trkpt>
      <trkpt lat="46.94962" lon="-0.68593">
        <ele>173.6</ele>
        <time>2012-04-01T09:16:31Z</time>
      </trkpt>
      <trkpt lat="46.94954" lon="-0.68599">
        <ele>173.6</ele>
        <time>2012-04-01T09:16:34Z</time>
      </trkpt>
      <trkpt lat="46.94946" lon="-0.68606">
        <ele>173.8</ele>
        <time>2012-04-01T09:16:37Z</time>
      </trkpt>
      <trkpt lat="46.94941" lon="-0.68611">
        <ele>173.8</ele>
        <time>2012-04-01T09:16:39Z</time>
      </trkpt>
      <trkpt lat="46.94936" lon="-0.68615">
        <ele>174</ele>
        <time>2012-04-01T09:16:41Z</time>
      </trkpt>
      <trkpt lat="46.9493" lon="-0.6862">
        <ele>174.1</ele>
        <time>2012-04-01T09:16:43Z</time>
      </trkpt>
      <trkpt lat="46.94925" lon="-0.68624">
        <ele>174.1</ele>
        <time>2012-04-01T09:16:45Z</time>
      </trkpt>
      <trkpt lat="46.94919" lon="-0.68628">
        <ele>174.3</ele>
        <time>2012-04-01T09:16:47Z</time>
      </trkpt>
      <trkpt lat="46.94913" lon="-0.68631">
        <ele>174.3</ele>
        <time>2012-04-01T09:16:49Z</time>
      </trkpt>
      <trkpt lat="46.94908" lon="-0.68634">
        <ele>174.5</ele>
        <time>2012-04-01T09:16:51Z</time>
      </trkpt>
      <trkpt lat="46.94901" lon="-0.68637">
        <ele>174.6</ele>
        <time>2012-04-01T09:16:53Z</time>
      </trkpt>
      <trkpt lat="46.94895" lon="-0.6864">
        <ele>174.6</ele>
        <time>2012-04-01T09:16:55Z</time>
      </trkpt>
      <trkpt lat="46.94889" lon="-0.68644">
        <ele>174.8</ele>
        <time>2012-04-01T09:16:57Z</time>
      </trkpt>
      <trkpt lat="46.94882" lon="-0.68646">
        <ele>174.8</ele>
        <time>2012-04-01T09:16:59Z</time>
      </trkpt>
      <trkpt lat="46.94874" lon="-0.68649">
        <ele>175.8</ele>
        <time>2012-04-01T09:17:01Z</time>
      </trkpt>
      <trkpt lat="46.94867" lon="-0.68653">
        <ele>176.5</ele>
        <time>2012-04-01T09:17:03Z</time>
      </trkpt>
      <trkpt lat="46.94859" lon="-0.68656">
        <ele>176.8</ele>
        <time>2012-04-01T09:17:05Z</time>
      </trkpt>
      <trkpt lat="46.94852" lon="-0.68659">
        <ele>176.8</ele>
        <time>2012-04-01T09:17:07Z</time>
      </trkpt>
      <trkpt lat="46.94849" lon="-0.68661">
        <ele>177.1</ele>
        <time>2012-04-01T09:17:08Z</time>
      </trkpt>
      <trkpt lat="46.94838" lon="-0.68665">
        <ele>177.1</ele>
        <time>2012-04-01T09:17:11Z</time>
      </trkpt>
      <trkpt lat="46.94831" lon="-0.68668">
        <ele>177.3</ele>
        <time>2012-04-01T09:17:13Z</time>
      </trkpt>
      <trkpt lat="46.94823" lon="-0.68671">
        <ele>177.8</ele>
        <time>2012-04-01T09:17:15Z</time>
      </trkpt>
      <trkpt lat="46.94816" lon="-0.68674">
        <ele>178.1</ele>
        <time>2012-04-01T09:17:17Z</time>
      </trkpt>
      <trkpt lat="46.94807" lon="-0.68677">
        <ele>178.3</ele>
        <time>2012-04-01T09:17:19Z</time>
      </trkpt>
      <trkpt lat="46.94799" lon="-0.6868">
        <ele>178.8</ele>
        <time>2012-04-01T09:17:21Z</time>
      </trkpt>
      <trkpt lat="46.94791" lon="-0.68684">
        <ele>179.1</ele>
        <time>2012-04-01T09:17:23Z</time>
      </trkpt>
      <trkpt lat="46.94782" lon="-0.68687">
        <ele>179.3</ele>
        <time>2012-04-01T09:17:25Z</time>
      </trkpt>
      <trkpt lat="46.94774" lon="-0.68691">
        <ele>179.8</ele>
        <time>2012-04-01T09:17:27Z</time>
      </trkpt>
      <trkpt lat="46.9477" lon="-0.68693">
        <ele>179.8</ele>
        <time>2012-04-01T09:17:28Z</time>
      </trkpt>
      <trkpt lat="46.94765" lon="-0.68695">
        <ele>180.1</ele>
        <time>2012-04-01T09:17:29Z</time>
      </trkpt>
      <trkpt lat="46.94761" lon="-0.68697">
        <ele>180.3</ele>
        <time>2012-04-01T09:17:30Z</time>
      </trkpt>
      <trkpt lat="46.94756" lon="-0.68698">
        <ele>180.3</ele>
        <time>2012-04-01T09:17:31Z</time>
      </trkpt>
      <trkpt lat="46.94752" lon="-0.687">
        <ele>180.5</ele>
        <time>2012-04-01T09:17:32Z</time>
      </trkpt>
      <trkpt lat="46.94747" lon="-0.68702">
        <ele>180.5</ele>
        <time>2012-04-01T09:17:33Z</time>
      </trkpt>
      <trkpt lat="46.94742" lon="-0.68703">
        <ele>180.6</ele>
        <time>2012-04-01T09:17:34Z</time>
      </trkpt>
      <trkpt lat="46.94738" lon="-0.68705">
        <ele>180.6</ele>
        <time>2012-04-01T09:17:35Z</time>
      </trkpt>
      <trkpt lat="46.94733" lon="-0.68707">
        <ele>180.6</ele>
        <time>2012-04-01T09:17:36Z</time>
      </trkpt>
      <trkpt lat="46.94728" lon="-0.68709">
        <ele>180.6</ele>
        <time>2012-04-01T09:17:37Z</time>
      </trkpt>
      <trkpt lat="46.94723" lon="-0.6871">
        <ele>180.8</ele>
        <time>2012-04-01T09:17:38Z</time>
      </trkpt>
      <trkpt lat="46.94718" lon="-0.68712">
        <ele>180.8</ele>
        <time>2012-04-01T09:17:39Z</time>
      </trkpt>
      <trkpt lat="46.94714" lon="-0.68714">
        <ele>180.8</ele>
        <time>2012-04-01T09:17:40Z</time>
      </trkpt>
      <trkpt lat="46.94709" lon="-0.68716">
        <ele>180.8</ele>
        <time>2012-04-01T09:17:41Z</time>
      </trkpt>
      <trkpt lat="46.94704" lon="-0.68718">
        <ele>180.8</ele>
        <time>2012-04-01T09:17:42Z</time>
      </trkpt>
      <trkpt lat="46.94699" lon="-0.68719">
        <ele>181</ele>
        <time>2012-04-01T09:17:43Z</time>
      </trkpt>
      <trkpt lat="46.94694" lon="-0.68721">
        <ele>180.8</ele>
        <time>2012-04-01T09:17:44Z</time>
      </trkpt>
      <trkpt lat="46.94688" lon="-0.68724">
        <ele>180.8</ele>
        <time>2012-04-01T09:17:45Z</time>
      </trkpt>
      <trkpt lat="46.94683" lon="-0.68726">
        <ele>180.8</ele>
        <time>2012-04-01T09:17:46Z</time>
      </trkpt>
      <trkpt lat="46.94678" lon="-0.68728">
        <ele>180.8</ele>
        <time>2012-04-01T09:17:47Z</time>
      </trkpt>
      <trkpt lat="46.94672" lon="-0.6873">
        <ele>180.8</ele>
        <time>2012-04-01T09:17:48Z</time>
      </trkpt>
      <trkpt lat="46.94667" lon="-0.68733">
        <ele>180.8</ele>
        <time>2012-04-01T09:17:49Z</time>
      </trkpt>
      <trkpt lat="46.94661" lon="-0.68735">
        <ele>180.8</ele>
        <time>2012-04-01T09:17:50Z</time>
      </trkpt>
      <trkpt lat="46.94656" lon="-0.68737">
        <ele>180.8</ele>
        <time>2012-04-01T09:17:51Z</time>
      </trkpt>
      <trkpt lat="46.94651" lon="-0.68739">
        <ele>181</ele>
        <time>2012-04-01T09:17:52Z</time>
      </trkpt>
      <trkpt lat="46.94645" lon="-0.68741">
        <ele>180.8</ele>
        <time>2012-04-01T09:17:53Z</time>
      </trkpt>
      <trkpt lat="46.9464" lon="-0.68743">
        <ele>180.8</ele>
        <time>2012-04-01T09:17:54Z</time>
      </trkpt>
      <trkpt lat="46.94634" lon="-0.68745">
        <ele>180.8</ele>
        <time>2012-04-01T09:17:55Z</time>
      </trkpt>
      <trkpt lat="46.94628" lon="-0.68748">
        <ele>180.8</ele>
        <time>2012-04-01T09:17:56Z</time>
      </trkpt>
      <trkpt lat="46.94623" lon="-0.6875">
        <ele>181</ele>
        <time>2012-04-01T09:17:57Z</time>
      </trkpt>
      <trkpt lat="46.94617" lon="-0.68752">
        <ele>180.8</ele>
        <time>2012-04-01T09:17:58Z</time>
      </trkpt>
      <trkpt lat="46.94612" lon="-0.68754">
        <ele>180.8</ele>
        <time>2012-04-01T09:17:59Z</time>
      </trkpt>
      <trkpt lat="46.94607" lon="-0.68756">
        <ele>180.8</ele>
        <time>2012-04-01T09:18:00Z</time>
      </trkpt>
      <trkpt lat="46.94601" lon="-0.68758">
        <ele>180.8</ele>
        <time>2012-04-01T09:18:01Z</time>
      </trkpt>
      <trkpt lat="46.94596" lon="-0.68761">
        <ele>180.8</ele>
        <time>2012-04-01T09:18:02Z</time>
      </trkpt>
      <trkpt lat="46.94591" lon="-0.68763">
        <ele>180.8</ele>
        <time>2012-04-01T09:18:03Z</time>
      </trkpt>
      <trkpt lat="46.94586" lon="-0.68765">
        <ele>180.8</ele>
        <time>2012-04-01T09:18:04Z</time>
      </trkpt>
      <trkpt lat="46.94581" lon="-0.68767">
        <ele>180.8</ele>
        <time>2012-04-01T09:18:05Z</time>
      </trkpt>
      <trkpt lat="46.94575" lon="-0.68769">
        <ele>180.8</ele>
        <time>2012-04-01T09:18:06Z</time>
      </trkpt>
      <trkpt lat="46.9457" lon="-0.68771">
        <ele>180.8</ele>
        <time>2012-04-01T09:18:07Z</time>
      </trkpt>
      <trkpt lat="46.94566" lon="-0.68773">
        <ele>180.8</ele>
        <time>2012-04-01T09:18:08Z</time>
      </trkpt>
      <trkpt lat="46.94561" lon="-0.68775">
        <ele>180.8</ele>
        <time>2012-04-01T09:18:09Z</time>
      </trkpt>
      <trkpt lat="46.94556" lon="-0.68777">
        <ele>180.8</ele>
        <time>2012-04-01T09:18:10Z</time>
      </trkpt>
      <trkpt lat="46.94551" lon="-0.68779">
        <ele>180.8</ele>
        <time>2012-04-01T09:18:11Z</time>
      </trkpt>
      <trkpt lat="46.94546" lon="-0.68781">
        <ele>180.8</ele>
        <time>2012-04-01T09:18:12Z</time>
      </trkpt>
      <trkpt lat="46.94541" lon="-0.68783">
        <ele>180.8</ele>
        <time>2012-04-01T09:18:13Z</time>
      </trkpt>
      <trkpt lat="46.94536" lon="-0.68786">
        <ele>180.8</ele>
        <time>2012-04-01T09:18:14Z</time>
      </trkpt>
      <trkpt lat="46.94531" lon="-0.68788">
        <ele>180.6</ele>
        <time>2012-04-01T09:18:15Z</time>
      </trkpt>
      <trkpt lat="46.94526" lon="-0.6879">
        <ele>180.6</ele>
        <time>2012-04-01T09:18:16Z</time>
      </trkpt>
      <trkpt lat="46.9452" lon="-0.68792">
        <ele>180.6</ele>
        <time>2012-04-01T09:18:17Z</time>
      </trkpt>
      <trkpt lat="46.94515" lon="-0.68794">
        <ele>180.6</ele>
        <time>2012-04-01T09:18:18Z</time>
      </trkpt>
      <trkpt lat="46.9451" lon="-0.68796">
        <ele>180.6</ele>
        <time>2012-04-01T09:18:19Z</time>
      </trkpt>
      <trkpt lat="46.94505" lon="-0.68797">
        <ele>180.6</ele>
        <time>2012-04-01T09:18:20Z</time>
      </trkpt>
      <trkpt lat="46.945" lon="-0.68799">
        <ele>180.6</ele>
        <time>2012-04-01T09:18:21Z</time>
      </trkpt>
      <trkpt lat="46.94496" lon="-0.68801">
        <ele>180.6</ele>
        <time>2012-04-01T09:18:22Z</time>
      </trkpt>
      <trkpt lat="46.94491" lon="-0.68803">
        <ele>180.6</ele>
        <time>2012-04-01T09:18:23Z</time>
      </trkpt>
      <trkpt lat="46.94486" lon="-0.68805">
        <ele>180.6</ele>
        <time>2012-04-01T09:18:24Z</time>
      </trkpt>
      <trkpt lat="46.94481" lon="-0.68807">
        <ele>180.8</ele>
        <time>2012-04-01T09:18:25Z</time>
      </trkpt>
      <trkpt lat="46.94476" lon="-0.68809">
        <ele>180.8</ele>
        <time>2012-04-01T09:18:26Z</time>
      </trkpt>
      <trkpt lat="46.94472" lon="-0.68811">
        <ele>180.8</ele>
        <time>2012-04-01T09:18:27Z</time>
      </trkpt>
      <trkpt lat="46.94467" lon="-0.68812">
        <ele>180.8</ele>
        <time>2012-04-01T09:18:28Z</time>
      </trkpt>
      <trkpt lat="46.94462" lon="-0.68814">
        <ele>180.8</ele>
        <time>2012-04-01T09:18:29Z</time>
      </trkpt>
      <trkpt lat="46.94458" lon="-0.68816">
        <ele>180.8</ele>
        <time>2012-04-01T09:18:30Z</time>
      </trkpt>
      <trkpt lat="46.94453" lon="-0.68819">
        <ele>181</ele>
        <time>2012-04-01T09:18:31Z</time>
      </trkpt>
      <trkpt lat="46.94448" lon="-0.6882">
        <ele>181</ele>
        <time>2012-04-01T09:18:32Z</time>
      </trkpt>
      <trkpt lat="46.94442" lon="-0.68822">
        <ele>181</ele>
        <time>2012-04-01T09:18:33Z</time>
      </trkpt>
      <trkpt lat="46.94437" lon="-0.68825">
        <ele>181.1</ele>
        <time>2012-04-01T09:18:34Z</time>
      </trkpt>
      <trkpt lat="46.94432" lon="-0.68827">
        <ele>181.1</ele>
        <time>2012-04-01T09:18:35Z</time>
      </trkpt>
      <trkpt lat="46.94426" lon="-0.68829">
        <ele>181.1</ele>
        <time>2012-04-01T09:18:36Z</time>
      </trkpt>
      <trkpt lat="46.94421" lon="-0.68831">
        <ele>181.1</ele>
        <time>2012-04-01T09:18:37Z</time>
      </trkpt>
      <trkpt lat="46.94415" lon="-0.68833">
        <ele>181.3</ele>
        <time>2012-04-01T09:18:38Z</time>
      </trkpt>
      <trkpt lat="46.9441" lon="-0.68835">
        <ele>181.3</ele>
        <time>2012-04-01T09:18:39Z</time>
      </trkpt>
      <trkpt lat="46.94404" lon="-0.68837">
        <ele>181.3</ele>
        <time>2012-04-01T09:18:40Z</time>
      </trkpt>
      <trkpt lat="46.94398" lon="-0.68839">
        <ele>181.3</ele>
        <time>2012-04-01T09:18:41Z</time>
      </trkpt>
      <trkpt lat="46.94392" lon="-0.68841">
        <ele>181.3</ele>
        <time>2012-04-01T09:18:42Z</time>
      </trkpt>
      <trkpt lat="46.94387" lon="-0.68844">
        <ele>181.3</ele>
        <time>2012-04-01T09:18:43Z</time>
      </trkpt>
      <trkpt lat="46.94381" lon="-0.68846">
        <ele>181.3</ele>
        <time>2012-04-01T09:18:44Z</time>
      </trkpt>
      <trkpt lat="46.94375" lon="-0.68849">
        <ele>181.3</ele>
        <time>2012-04-01T09:18:45Z</time>
      </trkpt>
      <trkpt lat="46.9437" lon="-0.68851">
        <ele>181.3</ele>
        <time>2012-04-01T09:18:46Z</time>
      </trkpt>
      <trkpt lat="46.94365" lon="-0.68854">
        <ele>181.3</ele>
        <time>2012-04-01T09:18:47Z</time>
      </trkpt>
      <trkpt lat="46.9436" lon="-0.68856">
        <ele>181.1</ele>
        <time>2012-04-01T09:18:48Z</time>
      </trkpt>
      <trkpt lat="46.94355" lon="-0.68859">
        <ele>181.1</ele>
        <time>2012-04-01T09:18:49Z</time>
      </trkpt>
      <trkpt lat="46.94349" lon="-0.68861">
        <ele>181.1</ele>
        <time>2012-04-01T09:18:50Z</time>
      </trkpt>
      <trkpt lat="46.94344" lon="-0.68863">
        <ele>181.1</ele>
        <time>2012-04-01T09:18:51Z</time>
      </trkpt>
      <trkpt lat="46.94339" lon="-0.68866">
        <ele>181.1</ele>
        <time>2012-04-01T09:18:52Z</time>
      </trkpt>
      <trkpt lat="46.94334" lon="-0.68869">
        <ele>181.1</ele>
        <time>2012-04-01T09:18:53Z</time>
      </trkpt>
      <trkpt lat="46.9433" lon="-0.68872">
        <ele>181.1</ele>
        <time>2012-04-01T09:18:54Z</time>
      </trkpt>
      <trkpt lat="46.94325" lon="-0.68875">
        <ele>181.1</ele>
        <time>2012-04-01T09:18:55Z</time>
      </trkpt>
      <trkpt lat="46.9432" lon="-0.68879">
        <ele>181</ele>
        <time>2012-04-01T09:18:56Z</time>
      </trkpt>
      <trkpt lat="46.94316" lon="-0.68883">
        <ele>180.8</ele>
        <time>2012-04-01T09:18:57Z</time>
      </trkpt>
      <trkpt lat="46.94311" lon="-0.68886">
        <ele>180.8</ele>
        <time>2012-04-01T09:18:58Z</time>
      </trkpt>
      <trkpt lat="46.94307" lon="-0.6889">
        <ele>180.6</ele>
        <time>2012-04-01T09:18:59Z</time>
      </trkpt>
      <trkpt lat="46.94302" lon="-0.68894">
        <ele>180.6</ele>
        <time>2012-04-01T09:19:00Z</time>
      </trkpt>
      <trkpt lat="46.94298" lon="-0.68898">
        <ele>180.8</ele>
        <time>2012-04-01T09:19:01Z</time>
      </trkpt>
      <trkpt lat="46.94294" lon="-0.68902">
        <ele>180.8</ele>
        <time>2012-04-01T09:19:02Z</time>
      </trkpt>
      <trkpt lat="46.9429" lon="-0.68906">
        <ele>180.8</ele>
        <time>2012-04-01T09:19:03Z</time>
      </trkpt>
      <trkpt lat="46.94286" lon="-0.6891">
        <ele>180.6</ele>
        <time>2012-04-01T09:19:04Z</time>
      </trkpt>
      <trkpt lat="46.94282" lon="-0.68914">
        <ele>180.6</ele>
        <time>2012-04-01T09:19:05Z</time>
      </trkpt>
      <trkpt lat="46.94277" lon="-0.68918">
        <ele>180.6</ele>
        <time>2012-04-01T09:19:06Z</time>
      </trkpt>
      <trkpt lat="46.94273" lon="-0.68922">
        <ele>180.6</ele>
        <time>2012-04-01T09:19:07Z</time>
      </trkpt>
      <trkpt lat="46.94269" lon="-0.68927">
        <ele>180.6</ele>
        <time>2012-04-01T09:19:08Z</time>
      </trkpt>
      <trkpt lat="46.94265" lon="-0.68931">
        <ele>180.6</ele>
        <time>2012-04-01T09:19:09Z</time>
      </trkpt>
      <trkpt lat="46.9426" lon="-0.68935">
        <ele>180.6</ele>
        <time>2012-04-01T09:19:10Z</time>
      </trkpt>
      <trkpt lat="46.94256" lon="-0.68938">
        <ele>180.6</ele>
        <time>2012-04-01T09:19:11Z</time>
      </trkpt>
      <trkpt lat="46.94252" lon="-0.6894">
        <ele>180.6</ele>
        <time>2012-04-01T09:19:12Z</time>
      </trkpt>
      <trkpt lat="46.94243" lon="-0.68944">
        <ele>180.6</ele>
        <time>2012-04-01T09:19:14Z</time>
      </trkpt>
      <trkpt lat="46.94235" lon="-0.68946">
        <ele>180.6</ele>
        <time>2012-04-01T09:19:16Z</time>
      </trkpt>
      <trkpt lat="46.94228" lon="-0.68948">
        <ele>180.6</ele>
        <time>2012-04-01T09:19:18Z</time>
      </trkpt>
      <trkpt lat="46.94222" lon="-0.6895">
        <ele>180.6</ele>
        <time>2012-04-01T09:19:20Z</time>
      </trkpt>
      <trkpt lat="46.94215" lon="-0.68951">
        <ele>180.6</ele>
        <time>2012-04-01T09:19:22Z</time>
      </trkpt>
      <trkpt lat="46.94207" lon="-0.68954">
        <ele>180.3</ele>
        <time>2012-04-01T09:19:24Z</time>
      </trkpt>
      <trkpt lat="46.94199" lon="-0.68955">
        <ele>180</ele>
        <time>2012-04-01T09:19:26Z</time>
      </trkpt>
      <trkpt lat="46.94191" lon="-0.68957">
        <ele>179.6</ele>
        <time>2012-04-01T09:19:28Z</time>
      </trkpt>
      <trkpt lat="46.94183" lon="-0.68958">
        <ele>179.3</ele>
        <time>2012-04-01T09:19:30Z</time>
      </trkpt>
      <trkpt lat="46.94174" lon="-0.6896">
        <ele>179.3</ele>
        <time>2012-04-01T09:19:33Z</time>
      </trkpt>
      <trkpt lat="46.94168" lon="-0.68951">
        <ele>179.1</ele>
        <time>2012-04-01T09:20:05Z</time>
      </trkpt>
      <trkpt lat="46.94171" lon="-0.6894">
        <ele>179.1</ele>
        <time>2012-04-01T09:20:10Z</time>
      </trkpt>
      <trkpt lat="46.94172" lon="-0.68938">
        <ele>179.1</ele>
        <time>2012-04-01T09:20:11Z</time>
      </trkpt>
      <trkpt lat="46.9418" lon="-0.68918">
        <ele>178.6</ele>
        <time>2012-04-01T09:21:03Z</time>
      </trkpt>
      <trkpt lat="46.94184" lon="-0.6891">
        <ele>178.3</ele>
        <time>2012-04-01T09:21:06Z</time>
      </trkpt>
      <trkpt lat="46.94188" lon="-0.68903">
        <ele>178.3</ele>
        <time>2012-04-01T09:21:08Z</time>
      </trkpt>
      <trkpt lat="46.94192" lon="-0.68894">
        <ele>178.1</ele>
        <time>2012-04-01T09:21:10Z</time>
      </trkpt>
      <trkpt lat="46.94196" lon="-0.68885">
        <ele>177.5</ele>
        <time>2012-04-01T09:21:12Z</time>
      </trkpt>
      <trkpt lat="46.94198" lon="-0.6888">
        <ele>177.3</ele>
        <time>2012-04-01T09:21:13Z</time>
      </trkpt>
      <trkpt lat="46.94206" lon="-0.68866">
        <ele>177</ele>
        <time>2012-04-01T09:21:16Z</time>
      </trkpt>
      <trkpt lat="46.94213" lon="-0.68858">
        <ele>177</ele>
        <time>2012-04-01T09:21:18Z</time>
      </trkpt>
      <trkpt lat="46.94219" lon="-0.68849">
        <ele>177</ele>
        <time>2012-04-01T09:21:20Z</time>
      </trkpt>
      <trkpt lat="46.94226" lon="-0.68841">
        <ele>177</ele>
        <time>2012-04-01T09:21:22Z</time>
      </trkpt>
      <trkpt lat="46.94232" lon="-0.68833">
        <ele>176.8</ele>
        <time>2012-04-01T09:21:24Z</time>
      </trkpt>
      <trkpt lat="46.94238" lon="-0.68826">
        <ele>176.8</ele>
        <time>2012-04-01T09:21:26Z</time>
      </trkpt>
      <trkpt lat="46.94244" lon="-0.68818">
        <ele>176.8</ele>
        <time>2012-04-01T09:21:28Z</time>
      </trkpt>
      <trkpt lat="46.94251" lon="-0.68811">
        <ele>176.8</ele>
        <time>2012-04-01T09:21:30Z</time>
      </trkpt>
      <trkpt lat="46.94254" lon="-0.68801">
        <ele>176.6</ele>
        <time>2012-04-01T09:21:32Z</time>
      </trkpt>
      <trkpt lat="46.94253" lon="-0.68791">
        <ele>176.8</ele>
        <time>2012-04-01T09:21:34Z</time>
      </trkpt>
      <trkpt lat="46.94249" lon="-0.68781">
        <ele>176.8</ele>
        <time>2012-04-01T09:21:36Z</time>
      </trkpt>
      <trkpt lat="46.94244" lon="-0.68773">
        <ele>176.8</ele>
        <time>2012-04-01T09:21:38Z</time>
      </trkpt>
      <trkpt lat="46.94238" lon="-0.68767">
        <ele>177</ele>
        <time>2012-04-01T09:21:40Z</time>
      </trkpt>
      <trkpt lat="46.9423" lon="-0.68761">
        <ele>177.1</ele>
        <time>2012-04-01T09:21:42Z</time>
      </trkpt>
      <trkpt lat="46.94226" lon="-0.68759">
        <ele>177.1</ele>
        <time>2012-04-01T09:21:43Z</time>
      </trkpt>
      <trkpt lat="46.94217" lon="-0.68754">
        <ele>177.1</ele>
        <time>2012-04-01T09:21:45Z</time>
      </trkpt>
      <trkpt lat="46.9421" lon="-0.68748">
        <ele>177</ele>
        <time>2012-04-01T09:21:47Z</time>
      </trkpt>
      <trkpt lat="46.94208" lon="-0.68736">
        <ele>177</ele>
        <time>2012-04-01T09:21:49Z</time>
      </trkpt>
      <trkpt lat="46.94208" lon="-0.68724">
        <ele>176.8</ele>
        <time>2012-04-01T09:21:51Z</time>
      </trkpt>
      <trkpt lat="46.9421" lon="-0.68712">
        <ele>176.8</ele>
        <time>2012-04-01T09:21:53Z</time>
      </trkpt>
      <trkpt lat="46.94212" lon="-0.687">
        <ele>176.8</ele>
        <time>2012-04-01T09:21:55Z</time>
      </trkpt>
      <trkpt lat="46.9421" lon="-0.68691">
        <ele>176.8</ele>
        <time>2012-04-01T09:21:57Z</time>
      </trkpt>
      <trkpt lat="46.94205" lon="-0.68682">
        <ele>176.6</ele>
        <time>2012-04-01T09:21:59Z</time>
      </trkpt>
      <trkpt lat="46.94202" lon="-0.68677">
        <ele>176.5</ele>
        <time>2012-04-01T09:22:00Z</time>
      </trkpt>
      <trkpt lat="46.94199" lon="-0.68672">
        <ele>176.3</ele>
        <time>2012-04-01T09:22:01Z</time>
      </trkpt>
      <trkpt lat="46.94193" lon="-0.68662">
        <ele>176.1</ele>
        <time>2012-04-01T09:22:03Z</time>
      </trkpt>
      <trkpt lat="46.94189" lon="-0.68659">
        <ele>176</ele>
        <time>2012-04-01T09:22:04Z</time>
      </trkpt>
      <trkpt lat="46.94185" lon="-0.68656">
        <ele>175.8</ele>
        <time>2012-04-01T09:22:05Z</time>
      </trkpt>
      <trkpt lat="46.9418" lon="-0.68654">
        <ele>175.6</ele>
        <time>2012-04-01T09:22:06Z</time>
      </trkpt>
      <trkpt lat="46.94175" lon="-0.68652">
        <ele>175.5</ele>
        <time>2012-04-01T09:22:07Z</time>
      </trkpt>
      <trkpt lat="46.9417" lon="-0.6865">
        <ele>175.3</ele>
        <time>2012-04-01T09:22:08Z</time>
      </trkpt>
      <trkpt lat="46.94165" lon="-0.68647">
        <ele>175.3</ele>
        <time>2012-04-01T09:22:09Z</time>
      </trkpt>
      <trkpt lat="46.94157" lon="-0.68643">
        <ele>175.3</ele>
        <time>2012-04-01T09:22:11Z</time>
      </trkpt>
      <trkpt lat="46.94153" lon="-0.68635">
        <ele>175.3</ele>
        <time>2012-04-01T09:22:14Z</time>
      </trkpt>
      <trkpt lat="46.94154" lon="-0.6863">
        <ele>175.3</ele>
        <time>2012-04-01T09:22:15Z</time>
      </trkpt>
      <trkpt lat="46.94156" lon="-0.68613">
        <ele>174.8</ele>
        <time>2012-04-01T09:22:18Z</time>
      </trkpt>
      <trkpt lat="46.94158" lon="-0.68601">
        <ele>174.8</ele>
        <time>2012-04-01T09:22:20Z</time>
      </trkpt>
      <trkpt lat="46.94157" lon="-0.68589">
        <ele>174.6</ele>
        <time>2012-04-01T09:22:22Z</time>
      </trkpt>
      <trkpt lat="46.94151" lon="-0.68583">
        <ele>174.5</ele>
        <time>2012-04-01T09:22:24Z</time>
      </trkpt>
      <trkpt lat="46.94144" lon="-0.68579">
        <ele>174.3</ele>
        <time>2012-04-01T09:22:26Z</time>
      </trkpt>
      <trkpt lat="46.94136" lon="-0.68575">
        <ele>174.3</ele>
        <time>2012-04-01T09:22:28Z</time>
      </trkpt>
      <trkpt lat="46.94128" lon="-0.68568">
        <ele>174.1</ele>
        <time>2012-04-01T09:22:30Z</time>
      </trkpt>
      <trkpt lat="46.94122" lon="-0.68562">
        <ele>174</ele>
        <time>2012-04-01T09:22:32Z</time>
      </trkpt>
      <trkpt lat="46.94115" lon="-0.68559">
        <ele>173.8</ele>
        <time>2012-04-01T09:22:35Z</time>
      </trkpt>
      <trkpt lat="46.94108" lon="-0.68556">
        <ele>173.8</ele>
        <time>2012-04-01T09:22:37Z</time>
      </trkpt>
      <trkpt lat="46.94101" lon="-0.68553">
        <ele>173.8</ele>
        <time>2012-04-01T09:22:39Z</time>
      </trkpt>
      <trkpt lat="46.94097" lon="-0.68544">
        <ele>173.6</ele>
        <time>2012-04-01T09:22:41Z</time>
      </trkpt>
      <trkpt lat="46.94095" lon="-0.68533">
        <ele>173.5</ele>
        <time>2012-04-01T09:22:43Z</time>
      </trkpt>
      <trkpt lat="46.94094" lon="-0.68521">
        <ele>173.3</ele>
        <time>2012-04-01T09:22:45Z</time>
      </trkpt>
      <trkpt lat="46.94092" lon="-0.68509">
        <ele>173.1</ele>
        <time>2012-04-01T09:22:47Z</time>
      </trkpt>
      <trkpt lat="46.9409" lon="-0.68498">
        <ele>173.1</ele>
        <time>2012-04-01T09:22:49Z</time>
      </trkpt>
      <trkpt lat="46.94087" lon="-0.68486">
        <ele>173</ele>
        <time>2012-04-01T09:22:53Z</time>
      </trkpt>
      <trkpt lat="46.94085" lon="-0.68477">
        <ele>173</ele>
        <time>2012-04-01T09:22:56Z</time>
      </trkpt>
      <trkpt lat="46.94085" lon="-0.68468">
        <ele>173</ele>
        <time>2012-04-01T09:22:58Z</time>
      </trkpt>
      <trkpt lat="46.94085" lon="-0.68457">
        <ele>172.6</ele>
        <time>2012-04-01T09:23:00Z</time>
      </trkpt>
      <trkpt lat="46.94085" lon="-0.68444">
        <ele>172.3</ele>
        <time>2012-04-01T09:23:02Z</time>
      </trkpt>
      <trkpt lat="46.94085" lon="-0.68437">
        <ele>172.1</ele>
        <time>2012-04-01T09:23:03Z</time>
      </trkpt>
      <trkpt lat="46.94086" lon="-0.6843">
        <ele>172.1</ele>
        <time>2012-04-01T09:23:04Z</time>
      </trkpt>
      <trkpt lat="46.94086" lon="-0.68423">
        <ele>172</ele>
        <time>2012-04-01T09:23:05Z</time>
      </trkpt>
      <trkpt lat="46.94086" lon="-0.68415">
        <ele>171.8</ele>
        <time>2012-04-01T09:23:06Z</time>
      </trkpt>
      <trkpt lat="46.94086" lon="-0.68407">
        <ele>171.8</ele>
        <time>2012-04-01T09:23:07Z</time>
      </trkpt>
      <trkpt lat="46.94086" lon="-0.68399">
        <ele>171.8</ele>
        <time>2012-04-01T09:23:08Z</time>
      </trkpt>
      <trkpt lat="46.94086" lon="-0.68391">
        <ele>171.6</ele>
        <time>2012-04-01T09:23:09Z</time>
      </trkpt>
      <trkpt lat="46.94087" lon="-0.68383">
        <ele>171.6</ele>
        <time>2012-04-01T09:23:10Z</time>
      </trkpt>
      <trkpt lat="46.94087" lon="-0.68374">
        <ele>171.6</ele>
        <time>2012-04-01T09:23:11Z</time>
      </trkpt>
      <trkpt lat="46.94087" lon="-0.68366">
        <ele>171.6</ele>
        <time>2012-04-01T09:23:12Z</time>
      </trkpt>
      <trkpt lat="46.94087" lon="-0.68357">
        <ele>171.6</ele>
        <time>2012-04-01T09:23:13Z</time>
      </trkpt>
      <trkpt lat="46.94087" lon="-0.68348">
        <ele>171.5</ele>
        <time>2012-04-01T09:23:14Z</time>
      </trkpt>
      <trkpt lat="46.94087" lon="-0.68339">
        <ele>171.3</ele>
        <time>2012-04-01T09:23:15Z</time>
      </trkpt>
      <trkpt lat="46.94087" lon="-0.6833">
        <ele>171.3</ele>
        <time>2012-04-01T09:23:16Z</time>
      </trkpt>
      <trkpt lat="46.94087" lon="-0.68321">
        <ele>171.1</ele>
        <time>2012-04-01T09:23:17Z</time>
      </trkpt>
      <trkpt lat="46.94087" lon="-0.68313">
        <ele>171.1</ele>
        <time>2012-04-01T09:23:18Z</time>
      </trkpt>
      <trkpt lat="46.94087" lon="-0.68304">
        <ele>171</ele>
        <time>2012-04-01T09:23:19Z</time>
      </trkpt>
      <trkpt lat="46.94087" lon="-0.68296">
        <ele>170.8</ele>
        <time>2012-04-01T09:23:20Z</time>
      </trkpt>
      <trkpt lat="46.94086" lon="-0.68287">
        <ele>170.8</ele>
        <time>2012-04-01T09:23:21Z</time>
      </trkpt>
      <trkpt lat="46.94086" lon="-0.68278">
        <ele>170.6</ele>
        <time>2012-04-01T09:23:22Z</time>
      </trkpt>
      <trkpt lat="46.94085" lon="-0.6827">
        <ele>170.6</ele>
        <time>2012-04-01T09:23:23Z</time>
      </trkpt>
      <trkpt lat="46.94085" lon="-0.68261">
        <ele>170.5</ele>
        <time>2012-04-01T09:23:24Z</time>
      </trkpt>
      <trkpt lat="46.94085" lon="-0.68253">
        <ele>170.3</ele>
        <time>2012-04-01T09:23:25Z</time>
      </trkpt>
      <trkpt lat="46.94085" lon="-0.68244">
        <ele>170.1</ele>
        <time>2012-04-01T09:23:26Z</time>
      </trkpt>
      <trkpt lat="46.94084" lon="-0.68236">
        <ele>170</ele>
        <time>2012-04-01T09:23:27Z</time>
      </trkpt>
      <trkpt lat="46.94084" lon="-0.68227">
        <ele>169.8</ele>
        <time>2012-04-01T09:23:28Z</time>
      </trkpt>
      <trkpt lat="46.94084" lon="-0.68218">
        <ele>169.6</ele>
        <time>2012-04-01T09:23:29Z</time>
      </trkpt>
      <trkpt lat="46.94084" lon="-0.6821">
        <ele>169.5</ele>
        <time>2012-04-01T09:23:30Z</time>
      </trkpt>
      <trkpt lat="46.94084" lon="-0.68201">
        <ele>169.3</ele>
        <time>2012-04-01T09:23:31Z</time>
      </trkpt>
      <trkpt lat="46.94084" lon="-0.68193">
        <ele>169.1</ele>
        <time>2012-04-01T09:23:32Z</time>
      </trkpt>
      <trkpt lat="46.94084" lon="-0.68185">
        <ele>169.1</ele>
        <time>2012-04-01T09:23:33Z</time>
      </trkpt>
      <trkpt lat="46.94083" lon="-0.68178">
        <ele>169</ele>
        <time>2012-04-01T09:23:34Z</time>
      </trkpt>
      <trkpt lat="46.94082" lon="-0.6817">
        <ele>168.8</ele>
        <time>2012-04-01T09:23:35Z</time>
      </trkpt>
      <trkpt lat="46.94081" lon="-0.68163">
        <ele>168.6</ele>
        <time>2012-04-01T09:23:36Z</time>
      </trkpt>
      <trkpt lat="46.94082" lon="-0.68154">
        <ele>168.3</ele>
        <time>2012-04-01T09:23:37Z</time>
      </trkpt>
      <trkpt lat="46.94083" lon="-0.68146">
        <ele>168.1</ele>
        <time>2012-04-01T09:23:38Z</time>
      </trkpt>
      <trkpt lat="46.94085" lon="-0.68137">
        <ele>168</ele>
        <time>2012-04-01T09:23:39Z</time>
      </trkpt>
      <trkpt lat="46.94088" lon="-0.68128">
        <ele>167.8</ele>
        <time>2012-04-01T09:23:40Z</time>
      </trkpt>
      <trkpt lat="46.9409" lon="-0.68118">
        <ele>167.6</ele>
        <time>2012-04-01T09:23:41Z</time>
      </trkpt>
      <trkpt lat="46.94093" lon="-0.68109">
        <ele>167.6</ele>
        <time>2012-04-01T09:23:42Z</time>
      </trkpt>
      <trkpt lat="46.94095" lon="-0.681">
        <ele>167.5</ele>
        <time>2012-04-01T09:23:43Z</time>
      </trkpt>
      <trkpt lat="46.94097" lon="-0.68091">
        <ele>167.3</ele>
        <time>2012-04-01T09:23:44Z</time>
      </trkpt>
      <trkpt lat="46.94099" lon="-0.68081">
        <ele>167.1</ele>
        <time>2012-04-01T09:23:45Z</time>
      </trkpt>
      <trkpt lat="46.94101" lon="-0.68072">
        <ele>167.1</ele>
        <time>2012-04-01T09:23:46Z</time>
      </trkpt>
      <trkpt lat="46.94102" lon="-0.68063">
        <ele>166.8</ele>
        <time>2012-04-01T09:23:47Z</time>
      </trkpt>
      <trkpt lat="46.94104" lon="-0.68054">
        <ele>166.8</ele>
        <time>2012-04-01T09:23:48Z</time>
      </trkpt>
      <trkpt lat="46.94105" lon="-0.68045">
        <ele>166.8</ele>
        <time>2012-04-01T09:23:49Z</time>
      </trkpt>
      <trkpt lat="46.94107" lon="-0.68036">
        <ele>166.6</ele>
        <time>2012-04-01T09:23:50Z</time>
      </trkpt>
      <trkpt lat="46.94108" lon="-0.68027">
        <ele>166.6</ele>
        <time>2012-04-01T09:23:51Z</time>
      </trkpt>
      <trkpt lat="46.9411" lon="-0.68018">
        <ele>166.6</ele>
        <time>2012-04-01T09:23:52Z</time>
      </trkpt>
      <trkpt lat="46.94111" lon="-0.68008">
        <ele>166.6</ele>
        <time>2012-04-01T09:23:53Z</time>
      </trkpt>
      <trkpt lat="46.94113" lon="-0.67999">
        <ele>166.6</ele>
        <time>2012-04-01T09:23:54Z</time>
      </trkpt>
      <trkpt lat="46.94114" lon="-0.67989">
        <ele>166.6</ele>
        <time>2012-04-01T09:23:55Z</time>
      </trkpt>
      <trkpt lat="46.94115" lon="-0.6798">
        <ele>166.6</ele>
        <time>2012-04-01T09:23:56Z</time>
      </trkpt>
      <trkpt lat="46.94117" lon="-0.6797">
        <ele>166.6</ele>
        <time>2012-04-01T09:23:57Z</time>
      </trkpt>
      <trkpt lat="46.94118" lon="-0.6796">
        <ele>166.6</ele>
        <time>2012-04-01T09:23:58Z</time>
      </trkpt>
      <trkpt lat="46.94119" lon="-0.6795">
        <ele>166.6</ele>
        <time>2012-04-01T09:23:59Z</time>
      </trkpt>
      <trkpt lat="46.9412" lon="-0.6794">
        <ele>166.6</ele>
        <time>2012-04-01T09:24:00Z</time>
      </trkpt>
      <trkpt lat="46.94122" lon="-0.67931">
        <ele>166.5</ele>
        <time>2012-04-01T09:24:01Z</time>
      </trkpt>
      <trkpt lat="46.94123" lon="-0.67921">
        <ele>166.5</ele>
        <time>2012-04-01T09:24:02Z</time>
      </trkpt>
      <trkpt lat="46.94123" lon="-0.67912">
        <ele>166.5</ele>
        <time>2012-04-01T09:24:03Z</time>
      </trkpt>
      <trkpt lat="46.94124" lon="-0.67902">
        <ele>166.3</ele>
        <time>2012-04-01T09:24:04Z</time>
      </trkpt>
      <trkpt lat="46.94125" lon="-0.67892">
        <ele>166.3</ele>
        <time>2012-04-01T09:24:05Z</time>
      </trkpt>
      <trkpt lat="46.94126" lon="-0.67883">
        <ele>166.3</ele>
        <time>2012-04-01T09:24:06Z</time>
      </trkpt>
      <trkpt lat="46.94126" lon="-0.67873">
        <ele>166.3</ele>
        <time>2012-04-01T09:24:07Z</time>
      </trkpt>
      <trkpt lat="46.94127" lon="-0.67863">
        <ele>166.3</ele>
        <time>2012-04-01T09:24:08Z</time>
      </trkpt>
      <trkpt lat="46.94128" lon="-0.67854">
        <ele>166.3</ele>
        <time>2012-04-01T09:24:09Z</time>
      </trkpt>
      <trkpt lat="46.94129" lon="-0.67844">
        <ele>166.3</ele>
        <time>2012-04-01T09:24:10Z</time>
      </trkpt>
      <trkpt lat="46.9413" lon="-0.67835">
        <ele>166.3</ele>
        <time>2012-04-01T09:24:11Z</time>
      </trkpt>
      <trkpt lat="46.94131" lon="-0.67826">
        <ele>166.3</ele>
        <time>2012-04-01T09:24:12Z</time>
      </trkpt>
      <trkpt lat="46.94132" lon="-0.67816">
        <ele>166.3</ele>
        <time>2012-04-01T09:24:13Z</time>
      </trkpt>
      <trkpt lat="46.94133" lon="-0.67807">
        <ele>166.1</ele>
        <time>2012-04-01T09:24:14Z</time>
      </trkpt>
      <trkpt lat="46.94134" lon="-0.67798">
        <ele>166.1</ele>
        <time>2012-04-01T09:24:15Z</time>
      </trkpt>
      <trkpt lat="46.94135" lon="-0.67788">
        <ele>166.1</ele>
        <time>2012-04-01T09:24:16Z</time>
      </trkpt>
      <trkpt lat="46.94136" lon="-0.67779">
        <ele>166.1</ele>
        <time>2012-04-01T09:24:17Z</time>
      </trkpt>
      <trkpt lat="46.94137" lon="-0.67769">
        <ele>166.1</ele>
        <time>2012-04-01T09:24:18Z</time>
      </trkpt>
      <trkpt lat="46.94138" lon="-0.6776">
        <ele>166.1</ele>
        <time>2012-04-01T09:24:19Z</time>
      </trkpt>
      <trkpt lat="46.9414" lon="-0.6775">
        <ele>166</ele>
        <time>2012-04-01T09:24:20Z</time>
      </trkpt>
      <trkpt lat="46.94141" lon="-0.67741">
        <ele>165.8</ele>
        <time>2012-04-01T09:24:21Z</time>
      </trkpt>
      <trkpt lat="46.94142" lon="-0.67731">
        <ele>165.8</ele>
        <time>2012-04-01T09:24:22Z</time>
      </trkpt>
      <trkpt lat="46.94143" lon="-0.67722">
        <ele>165.8</ele>
        <time>2012-04-01T09:24:23Z</time>
      </trkpt>
      <trkpt lat="46.94145" lon="-0.67712">
        <ele>165.8</ele>
        <time>2012-04-01T09:24:24Z</time>
      </trkpt>
      <trkpt lat="46.94146" lon="-0.67703">
        <ele>165.6</ele>
        <time>2012-04-01T09:24:25Z</time>
      </trkpt>
      <trkpt lat="46.94147" lon="-0.67693">
        <ele>165.6</ele>
        <time>2012-04-01T09:24:26Z</time>
      </trkpt>
      <trkpt lat="46.94148" lon="-0.67683">
        <ele>165.6</ele>
        <time>2012-04-01T09:24:27Z</time>
      </trkpt>
      <trkpt lat="46.94148" lon="-0.67673">
        <ele>165.6</ele>
        <time>2012-04-01T09:24:28Z</time>
      </trkpt>
      <trkpt lat="46.94149" lon="-0.67662">
        <ele>165.6</ele>
        <time>2012-04-01T09:24:29Z</time>
      </trkpt>
      <trkpt lat="46.9415" lon="-0.67651">
        <ele>165.5</ele>
        <time>2012-04-01T09:24:30Z</time>
      </trkpt>
      <trkpt lat="46.94151" lon="-0.67639">
        <ele>165.3</ele>
        <time>2012-04-01T09:24:31Z</time>
      </trkpt>
      <trkpt lat="46.94152" lon="-0.67627">
        <ele>165.1</ele>
        <time>2012-04-01T09:24:32Z</time>
      </trkpt>
      <trkpt lat="46.94154" lon="-0.67614">
        <ele>164.8</ele>
        <time>2012-04-01T09:24:33Z</time>
      </trkpt>
      <trkpt lat="46.94157" lon="-0.67601">
        <ele>164.6</ele>
        <time>2012-04-01T09:24:34Z</time>
      </trkpt>
      <trkpt lat="46.9416" lon="-0.67589">
        <ele>164.6</ele>
        <time>2012-04-01T09:24:35Z</time>
      </trkpt>
      <trkpt lat="46.94164" lon="-0.67576">
        <ele>164.3</ele>
        <time>2012-04-01T09:24:36Z</time>
      </trkpt>
      <trkpt lat="46.94168" lon="-0.67563">
        <ele>164.1</ele>
        <time>2012-04-01T09:24:37Z</time>
      </trkpt>
      <trkpt lat="46.94171" lon="-0.6755">
        <ele>164.1</ele>
        <time>2012-04-01T09:24:38Z</time>
      </trkpt>
      <trkpt lat="46.94175" lon="-0.67536">
        <ele>163.8</ele>
        <time>2012-04-01T09:24:39Z</time>
      </trkpt>
      <trkpt lat="46.94179" lon="-0.67523">
        <ele>163.6</ele>
        <time>2012-04-01T09:24:40Z</time>
      </trkpt>
      <trkpt lat="46.94182" lon="-0.6751">
        <ele>163.3</ele>
        <time>2012-04-01T09:24:41Z</time>
      </trkpt>
      <trkpt lat="46.94185" lon="-0.67497">
        <ele>163.1</ele>
        <time>2012-04-01T09:24:42Z</time>
      </trkpt>
      <trkpt lat="46.94188" lon="-0.67484">
        <ele>163</ele>
        <time>2012-04-01T09:24:43Z</time>
      </trkpt>
      <trkpt lat="46.94189" lon="-0.67471">
        <ele>162.8</ele>
        <time>2012-04-01T09:24:44Z</time>
      </trkpt>
      <trkpt lat="46.94191" lon="-0.67459">
        <ele>162.8</ele>
        <time>2012-04-01T09:24:45Z</time>
      </trkpt>
      <trkpt lat="46.94191" lon="-0.67447">
        <ele>162.6</ele>
        <time>2012-04-01T09:24:46Z</time>
      </trkpt>
      <trkpt lat="46.94192" lon="-0.67436">
        <ele>162.6</ele>
        <time>2012-04-01T09:24:47Z</time>
      </trkpt>
      <trkpt lat="46.94192" lon="-0.67425">
        <ele>162.6</ele>
        <time>2012-04-01T09:24:48Z</time>
      </trkpt>
      <trkpt lat="46.94192" lon="-0.67415">
        <ele>162.5</ele>
        <time>2012-04-01T09:24:49Z</time>
      </trkpt>
      <trkpt lat="46.94193" lon="-0.67405">
        <ele>162.3</ele>
        <time>2012-04-01T09:24:50Z</time>
      </trkpt>
      <trkpt lat="46.94193" lon="-0.67395">
        <ele>162.3</ele>
        <time>2012-04-01T09:24:51Z</time>
      </trkpt>
      <trkpt lat="46.94193" lon="-0.67385">
        <ele>162.1</ele>
        <time>2012-04-01T09:24:52Z</time>
      </trkpt>
      <trkpt lat="46.94194" lon="-0.67376">
        <ele>162</ele>
        <time>2012-04-01T09:24:53Z</time>
      </trkpt>
      <trkpt lat="46.94195" lon="-0.67366">
        <ele>161.8</ele>
        <time>2012-04-01T09:24:54Z</time>
      </trkpt>
      <trkpt lat="46.94196" lon="-0.67357">
        <ele>161.6</ele>
        <time>2012-04-01T09:24:55Z</time>
      </trkpt>
      <trkpt lat="46.94197" lon="-0.67348">
        <ele>161.5</ele>
        <time>2012-04-01T09:24:56Z</time>
      </trkpt>
      <trkpt lat="46.94199" lon="-0.67339">
        <ele>161.3</ele>
        <time>2012-04-01T09:24:57Z</time>
      </trkpt>
      <trkpt lat="46.94202" lon="-0.6733">
        <ele>161.3</ele>
        <time>2012-04-01T09:24:58Z</time>
      </trkpt>
      <trkpt lat="46.94205" lon="-0.67322">
        <ele>161.1</ele>
        <time>2012-04-01T09:24:59Z</time>
      </trkpt>
      <trkpt lat="46.94208" lon="-0.67315">
        <ele>161.1</ele>
        <time>2012-04-01T09:25:00Z</time>
      </trkpt>
      <trkpt lat="46.94211" lon="-0.67307">
        <ele>161</ele>
        <time>2012-04-01T09:25:01Z</time>
      </trkpt>
      <trkpt lat="46.94214" lon="-0.673">
        <ele>160.8</ele>
        <time>2012-04-01T09:25:02Z</time>
      </trkpt>
      <trkpt lat="46.94217" lon="-0.67293">
        <ele>160.8</ele>
        <time>2012-04-01T09:25:03Z</time>
      </trkpt>
      <trkpt lat="46.94221" lon="-0.67286">
        <ele>160.6</ele>
        <time>2012-04-01T09:25:04Z</time>
      </trkpt>
      <trkpt lat="46.94224" lon="-0.67279">
        <ele>160.5</ele>
        <time>2012-04-01T09:25:05Z</time>
      </trkpt>
      <trkpt lat="46.94226" lon="-0.67271">
        <ele>160.3</ele>
        <time>2012-04-01T09:25:06Z</time>
      </trkpt>
      <trkpt lat="46.94229" lon="-0.67263">
        <ele>160.1</ele>
        <time>2012-04-01T09:25:07Z</time>
      </trkpt>
      <trkpt lat="46.94232" lon="-0.67256">
        <ele>160.1</ele>
        <time>2012-04-01T09:25:08Z</time>
      </trkpt>
      <trkpt lat="46.94235" lon="-0.67248">
        <ele>159.8</ele>
        <time>2012-04-01T09:25:09Z</time>
      </trkpt>
      <trkpt lat="46.94238" lon="-0.6724">
        <ele>159.8</ele>
        <time>2012-04-01T09:25:10Z</time>
      </trkpt>
      <trkpt lat="46.94241" lon="-0.67234">
        <ele>159.6</ele>
        <time>2012-04-01T09:25:11Z</time>
      </trkpt>
      <trkpt lat="46.94245" lon="-0.67222">
        <ele>159.1</ele>
        <time>2012-04-01T09:25:13Z</time>
      </trkpt>
      <trkpt lat="46.94244" lon="-0.67212">
        <ele>159</ele>
        <time>2012-04-01T09:25:15Z</time>
      </trkpt>
      <trkpt lat="46.9424" lon="-0.67206">
        <ele>159</ele>
        <time>2012-04-01T09:25:17Z</time>
      </trkpt>
      <trkpt lat="46.94237" lon="-0.67204">
        <ele>158.8</ele>
        <time>2012-04-01T09:25:18Z</time>
      </trkpt>
      <trkpt lat="46.94224" lon="-0.67196">
        <ele>158.8</ele>
        <time>2012-04-01T09:25:23Z</time>
      </trkpt>
      <trkpt lat="46.94217" lon="-0.67192">
        <ele>158.6</ele>
        <time>2012-04-01T09:25:26Z</time>
      </trkpt>
      <trkpt lat="46.9421" lon="-0.6719">
        <ele>158.3</ele>
        <time>2012-04-01T09:25:28Z</time>
      </trkpt>
      <trkpt lat="46.94205" lon="-0.67189">
        <ele>157.8</ele>
        <time>2012-04-01T09:25:29Z</time>
      </trkpt>
      <trkpt lat="46.94197" lon="-0.67188">
        <ele>157</ele>
        <time>2012-04-01T09:25:31Z</time>
      </trkpt>
      <trkpt lat="46.9419" lon="-0.67187">
        <ele>156.8</ele>
        <time>2012-04-01T09:25:33Z</time>
      </trkpt>
      <trkpt lat="46.94185" lon="-0.67184">
        <ele>156.6</ele>
        <time>2012-04-01T09:25:35Z</time>
      </trkpt>
      <trkpt lat="46.94181" lon="-0.67175">
        <ele>155.8</ele>
        <time>2012-04-01T09:25:37Z</time>
      </trkpt>
      <trkpt lat="46.94181" lon="-0.67167">
        <ele>155.1</ele>
        <time>2012-04-01T09:25:38Z</time>
      </trkpt>
      <trkpt lat="46.94182" lon="-0.67158">
        <ele>154.3</ele>
        <time>2012-04-01T09:25:39Z</time>
      </trkpt>
      <trkpt lat="46.94183" lon="-0.67149">
        <ele>153.8</ele>
        <time>2012-04-01T09:25:40Z</time>
      </trkpt>
      <trkpt lat="46.94185" lon="-0.67138">
        <ele>153.3</ele>
        <time>2012-04-01T09:25:41Z</time>
      </trkpt>
      <trkpt lat="46.94186" lon="-0.67127">
        <ele>152.8</ele>
        <time>2012-04-01T09:25:42Z</time>
      </trkpt>
      <trkpt lat="46.94188" lon="-0.67115">
        <ele>152.3</ele>
        <time>2012-04-01T09:25:43Z</time>
      </trkpt>
      <trkpt lat="46.9419" lon="-0.67104">
        <ele>152</ele>
        <time>2012-04-01T09:25:44Z</time>
      </trkpt>
      <trkpt lat="46.94193" lon="-0.67094">
        <ele>151.6</ele>
        <time>2012-04-01T09:25:45Z</time>
      </trkpt>
      <trkpt lat="46.94196" lon="-0.67085">
        <ele>151.1</ele>
        <time>2012-04-01T09:25:46Z</time>
      </trkpt>
      <trkpt lat="46.94198" lon="-0.67077">
        <ele>150.8</ele>
        <time>2012-04-01T09:25:47Z</time>
      </trkpt>
      <trkpt lat="46.94201" lon="-0.6707">
        <ele>150.5</ele>
        <time>2012-04-01T09:25:48Z</time>
      </trkpt>
      <trkpt lat="46.94203" lon="-0.67062">
        <ele>150.1</ele>
        <time>2012-04-01T09:25:49Z</time>
      </trkpt>
      <trkpt lat="46.94204" lon="-0.67055">
        <ele>149.8</ele>
        <time>2012-04-01T09:25:50Z</time>
      </trkpt>
      <trkpt lat="46.94205" lon="-0.67047">
        <ele>149.6</ele>
        <time>2012-04-01T09:25:51Z</time>
      </trkpt>
      <trkpt lat="46.94206" lon="-0.6704">
        <ele>149.3</ele>
        <time>2012-04-01T09:25:52Z</time>
      </trkpt>
      <trkpt lat="46.94207" lon="-0.67032">
        <ele>149</ele>
        <time>2012-04-01T09:25:53Z</time>
      </trkpt>
      <trkpt lat="46.94208" lon="-0.67024">
        <ele>148.6</ele>
        <time>2012-04-01T09:25:54Z</time>
      </trkpt>
      <trkpt lat="46.94209" lon="-0.67016">
        <ele>148.3</ele>
        <time>2012-04-01T09:25:55Z</time>
      </trkpt>
      <trkpt lat="46.94209" lon="-0.67007">
        <ele>148.1</ele>
        <time>2012-04-01T09:25:56Z</time>
      </trkpt>
      <trkpt lat="46.9421" lon="-0.66998">
        <ele>147.6</ele>
        <time>2012-04-01T09:25:57Z</time>
      </trkpt>
      <trkpt lat="46.94211" lon="-0.6699">
        <ele>147.3</ele>
        <time>2012-04-01T09:25:58Z</time>
      </trkpt>
      <trkpt lat="46.94213" lon="-0.66982">
        <ele>147.1</ele>
        <time>2012-04-01T09:25:59Z</time>
      </trkpt>
      <trkpt lat="46.94215" lon="-0.66975">
        <ele>146.6</ele>
        <time>2012-04-01T09:26:00Z</time>
      </trkpt>
      <trkpt lat="46.94217" lon="-0.6697">
        <ele>146.3</ele>
        <time>2012-04-01T09:26:01Z</time>
      </trkpt>
      <trkpt lat="46.94221" lon="-0.66965">
        <ele>146.1</ele>
        <time>2012-04-01T09:26:02Z</time>
      </trkpt>
      <trkpt lat="46.94224" lon="-0.6696">
        <ele>145.8</ele>
        <time>2012-04-01T09:26:03Z</time>
      </trkpt>
      <trkpt lat="46.94226" lon="-0.66953">
        <ele>145.6</ele>
        <time>2012-04-01T09:26:04Z</time>
      </trkpt>
      <trkpt lat="46.94227" lon="-0.66945">
        <ele>145.3</ele>
        <time>2012-04-01T09:26:05Z</time>
      </trkpt>
      <trkpt lat="46.94227" lon="-0.66936">
        <ele>145.1</ele>
        <time>2012-04-01T09:26:06Z</time>
      </trkpt>
      <trkpt lat="46.94228" lon="-0.66929">
        <ele>144.8</ele>
        <time>2012-04-01T09:26:07Z</time>
      </trkpt>
      <trkpt lat="46.94229" lon="-0.66917">
        <ele>144.5</ele>
        <time>2012-04-01T09:26:09Z</time>
      </trkpt>
      <trkpt lat="46.94231" lon="-0.66905">
        <ele>144.3</ele>
        <time>2012-04-01T09:26:14Z</time>
      </trkpt>
      <trkpt lat="46.94233" lon="-0.66892">
        <ele>144</ele>
        <time>2012-04-01T09:26:20Z</time>
      </trkpt>
      <trkpt lat="46.94232" lon="-0.6689">
        <ele>143.8</ele>
        <time>2012-04-01T09:26:21Z</time>
      </trkpt>
      <trkpt lat="46.94221" lon="-0.66877">
        <ele>143.6</ele>
        <time>2012-04-01T09:26:28Z</time>
      </trkpt>
      <trkpt lat="46.94213" lon="-0.66874">
        <ele>143.3</ele>
        <time>2012-04-01T09:26:32Z</time>
      </trkpt>
      <trkpt lat="46.94206" lon="-0.66869">
        <ele>143.1</ele>
        <time>2012-04-01T09:26:35Z</time>
      </trkpt>
      <trkpt lat="46.94199" lon="-0.66864">
        <ele>142.8</ele>
        <time>2012-04-01T09:26:38Z</time>
      </trkpt>
      <trkpt lat="46.94194" lon="-0.66857">
        <ele>142.8</ele>
        <time>2012-04-01T09:26:41Z</time>
      </trkpt>
      <trkpt lat="46.94188" lon="-0.66849">
        <ele>142.6</ele>
        <time>2012-04-01T09:26:44Z</time>
      </trkpt>
      <trkpt lat="46.94183" lon="-0.66843">
        <ele>142.5</ele>
        <time>2012-04-01T09:26:46Z</time>
      </trkpt>
      <trkpt lat="46.94177" lon="-0.66834">
        <ele>142.3</ele>
        <time>2012-04-01T09:26:49Z</time>
      </trkpt>
      <trkpt lat="46.94171" lon="-0.66825">
        <ele>142.3</ele>
        <time>2012-04-01T09:26:52Z</time>
      </trkpt>
      <trkpt lat="46.94166" lon="-0.66818">
        <ele>142.1</ele>
        <time>2012-04-01T09:26:54Z</time>
      </trkpt>
      <trkpt lat="46.9416" lon="-0.6681">
        <ele>142.1</ele>
        <time>2012-04-01T09:26:56Z</time>
      </trkpt>
      <trkpt lat="46.94154" lon="-0.66801">
        <ele>141.8</ele>
        <time>2012-04-01T09:26:58Z</time>
      </trkpt>
      <trkpt lat="46.94149" lon="-0.66793">
        <ele>141.6</ele>
        <time>2012-04-01T09:27:00Z</time>
      </trkpt>
      <trkpt lat="46.94144" lon="-0.66784">
        <ele>141.6</ele>
        <time>2012-04-01T09:27:02Z</time>
      </trkpt>
      <trkpt lat="46.94138" lon="-0.66775">
        <ele>141.1</ele>
        <time>2012-04-01T09:27:04Z</time>
      </trkpt>
      <trkpt lat="46.94133" lon="-0.66766">
        <ele>140.8</ele>
        <time>2012-04-01T09:27:06Z</time>
      </trkpt>
      <trkpt lat="46.94127" lon="-0.66758">
        <ele>140.6</ele>
        <time>2012-04-01T09:27:08Z</time>
      </trkpt>
      <trkpt lat="46.94121" lon="-0.66751">
        <ele>140.6</ele>
        <time>2012-04-01T09:27:10Z</time>
      </trkpt>
      <trkpt lat="46.94115" lon="-0.66745">
        <ele>140.6</ele>
        <time>2012-04-01T09:27:12Z</time>
      </trkpt>
      <trkpt lat="46.94109" lon="-0.6674">
        <ele>140.3</ele>
        <time>2012-04-01T09:27:16Z</time>
      </trkpt>
      <trkpt lat="46.94105" lon="-0.66735">
        <ele>140.3</ele>
        <time>2012-04-01T09:27:22Z</time>
      </trkpt>
      <trkpt lat="46.94101" lon="-0.6673">
        <ele>140.1</ele>
        <time>2012-04-01T09:27:23Z</time>
      </trkpt>
      <trkpt lat="46.94096" lon="-0.66714">
        <ele>139.3</ele>
        <time>2012-04-01T09:27:35Z</time>
      </trkpt>
      <trkpt lat="46.94091" lon="-0.66703">
        <ele>139.3</ele>
        <time>2012-04-01T09:27:39Z</time>
      </trkpt>
      <trkpt lat="46.94088" lon="-0.66692">
        <ele>139.3</ele>
        <time>2012-04-01T09:27:43Z</time>
      </trkpt>
      <trkpt lat="46.94087" lon="-0.66681">
        <ele>139.3</ele>
        <time>2012-04-01T09:27:46Z</time>
      </trkpt>
      <trkpt lat="46.94081" lon="-0.66673">
        <ele>139.3</ele>
        <time>2012-04-01T09:27:51Z</time>
      </trkpt>
      <trkpt lat="46.94073" lon="-0.66671">
        <ele>139.5</ele>
        <time>2012-04-01T09:27:55Z</time>
      </trkpt>
      <trkpt lat="46.94066" lon="-0.66665">
        <ele>139.6</ele>
        <time>2012-04-01T09:27:59Z</time>
      </trkpt>
      <trkpt lat="46.94059" lon="-0.66658">
        <ele>139.8</ele>
        <time>2012-04-01T09:28:03Z</time>
      </trkpt>
      <trkpt lat="46.94053" lon="-0.66651">
        <ele>140</ele>
        <time>2012-04-01T09:28:06Z</time>
      </trkpt>
      <trkpt lat="46.94047" lon="-0.66644">
        <ele>140.1</ele>
        <time>2012-04-01T09:28:09Z</time>
      </trkpt>
      <trkpt lat="46.9404" lon="-0.66638">
        <ele>140.5</ele>
        <time>2012-04-01T09:28:14Z</time>
      </trkpt>
      <trkpt lat="46.94033" lon="-0.66632">
        <ele>141</ele>
        <time>2012-04-01T09:28:20Z</time>
      </trkpt>
      <trkpt lat="46.94026" lon="-0.66626">
        <ele>141.3</ele>
        <time>2012-04-01T09:28:24Z</time>
      </trkpt>
      <trkpt lat="46.94024" lon="-0.66625">
        <ele>141.5</ele>
        <time>2012-04-01T09:28:25Z</time>
      </trkpt>
      <trkpt lat="46.94011" lon="-0.66613">
        <ele>142.3</ele>
        <time>2012-04-01T09:28:33Z</time>
      </trkpt>
      <trkpt lat="46.94004" lon="-0.66605">
        <ele>142.6</ele>
        <time>2012-04-01T09:28:37Z</time>
      </trkpt>
      <trkpt lat="46.93997" lon="-0.66597">
        <ele>143.1</ele>
        <time>2012-04-01T09:28:41Z</time>
      </trkpt>
      <trkpt lat="46.9399" lon="-0.66589">
        <ele>143.6</ele>
        <time>2012-04-01T09:28:45Z</time>
      </trkpt>
      <trkpt lat="46.93984" lon="-0.66582">
        <ele>144</ele>
        <time>2012-04-01T09:28:49Z</time>
      </trkpt>
      <trkpt lat="46.93978" lon="-0.66575">
        <ele>144.3</ele>
        <time>2012-04-01T09:28:53Z</time>
      </trkpt>
      <trkpt lat="46.93971" lon="-0.6657">
        <ele>144.6</ele>
        <time>2012-04-01T09:28:56Z</time>
      </trkpt>
      <trkpt lat="46.93965" lon="-0.66564">
        <ele>145</ele>
        <time>2012-04-01T09:28:59Z</time>
      </trkpt>
      <trkpt lat="46.93959" lon="-0.66557">
        <ele>145.3</ele>
        <time>2012-04-01T09:29:02Z</time>
      </trkpt>
      <trkpt lat="46.93953" lon="-0.66549">
        <ele>145.6</ele>
        <time>2012-04-01T09:29:05Z</time>
      </trkpt>
      <trkpt lat="46.93947" lon="-0.6654">
        <ele>145.8</ele>
        <time>2012-04-01T09:29:08Z</time>
      </trkpt>
      <trkpt lat="46.93941" lon="-0.6653">
        <ele>146.1</ele>
        <time>2012-04-01T09:29:11Z</time>
      </trkpt>
      <trkpt lat="46.93937" lon="-0.66521">
        <ele>146.5</ele>
        <time>2012-04-01T09:29:14Z</time>
      </trkpt>
      <trkpt lat="46.93933" lon="-0.66511">
        <ele>146.6</ele>
        <time>2012-04-01T09:29:17Z</time>
      </trkpt>
      <trkpt lat="46.93929" lon="-0.66502">
        <ele>147</ele>
        <time>2012-04-01T09:29:20Z</time>
      </trkpt>
      <trkpt lat="46.93923" lon="-0.66493">
        <ele>147.1</ele>
        <time>2012-04-01T09:29:23Z</time>
      </trkpt>
      <trkpt lat="46.93918" lon="-0.66486">
        <ele>147.3</ele>
        <time>2012-04-01T09:29:26Z</time>
      </trkpt>
      <trkpt lat="46.93916" lon="-0.66484">
        <ele>147.5</ele>
        <time>2012-04-01T09:29:27Z</time>
      </trkpt>
      <trkpt lat="46.93915" lon="-0.66464">
        <ele>147.8</ele>
        <time>2012-04-01T09:29:32Z</time>
      </trkpt>
      <trkpt lat="46.93915" lon="-0.66454">
        <ele>148</ele>
        <time>2012-04-01T09:29:34Z</time>
      </trkpt>
      <trkpt lat="46.93916" lon="-0.66444">
        <ele>148.1</ele>
        <time>2012-04-01T09:29:36Z</time>
      </trkpt>
      <trkpt lat="46.93917" lon="-0.66433">
        <ele>148.3</ele>
        <time>2012-04-01T09:29:38Z</time>
      </trkpt>
      <trkpt lat="46.93918" lon="-0.66421">
        <ele>148.6</ele>
        <time>2012-04-01T09:29:40Z</time>
      </trkpt>
      <trkpt lat="46.93918" lon="-0.66409">
        <ele>150.3</ele>
        <time>2012-04-01T09:29:42Z</time>
      </trkpt>
      <trkpt lat="46.93918" lon="-0.66397">
        <ele>151.5</ele>
        <time>2012-04-01T09:29:44Z</time>
      </trkpt>
      <trkpt lat="46.93919" lon="-0.66384">
        <ele>152.3</ele>
        <time>2012-04-01T09:29:46Z</time>
      </trkpt>
      <trkpt lat="46.9392" lon="-0.66372">
        <ele>152.8</ele>
        <time>2012-04-01T09:29:48Z</time>
      </trkpt>
      <trkpt lat="46.93921" lon="-0.66361">
        <ele>153.1</ele>
        <time>2012-04-01T09:29:50Z</time>
      </trkpt>
      <trkpt lat="46.93922" lon="-0.66349">
        <ele>153.3</ele>
        <time>2012-04-01T09:29:52Z</time>
      </trkpt>
      <trkpt lat="46.93924" lon="-0.66336">
        <ele>153.6</ele>
        <time>2012-04-01T09:29:54Z</time>
      </trkpt>
      <trkpt lat="46.93925" lon="-0.6633">
        <ele>153.6</ele>
        <time>2012-04-01T09:29:55Z</time>
      </trkpt>
      <trkpt lat="46.93926" lon="-0.66323">
        <ele>153.8</ele>
        <time>2012-04-01T09:29:56Z</time>
      </trkpt>
      <trkpt lat="46.93926" lon="-0.66316">
        <ele>153.8</ele>
        <time>2012-04-01T09:29:57Z</time>
      </trkpt>
      <trkpt lat="46.93927" lon="-0.66309">
        <ele>153.8</ele>
        <time>2012-04-01T09:29:58Z</time>
      </trkpt>
      <trkpt lat="46.93928" lon="-0.66302">
        <ele>153.8</ele>
        <time>2012-04-01T09:29:59Z</time>
      </trkpt>
      <trkpt lat="46.93929" lon="-0.66295">
        <ele>153.8</ele>
        <time>2012-04-01T09:30:00Z</time>
      </trkpt>
      <trkpt lat="46.9393" lon="-0.66288">
        <ele>153.8</ele>
        <time>2012-04-01T09:30:01Z</time>
      </trkpt>
      <trkpt lat="46.93931" lon="-0.6628">
        <ele>153.8</ele>
        <time>2012-04-01T09:30:02Z</time>
      </trkpt>
      <trkpt lat="46.93932" lon="-0.66273">
        <ele>153.8</ele>
        <time>2012-04-01T09:30:03Z</time>
      </trkpt>
      <trkpt lat="46.93933" lon="-0.66264">
        <ele>153.8</ele>
        <time>2012-04-01T09:30:04Z</time>
      </trkpt>
      <trkpt lat="46.93934" lon="-0.66256">
        <ele>153.8</ele>
        <time>2012-04-01T09:30:05Z</time>
      </trkpt>
      <trkpt lat="46.93935" lon="-0.66248">
        <ele>153.8</ele>
        <time>2012-04-01T09:30:06Z</time>
      </trkpt>
      <trkpt lat="46.93936" lon="-0.66239">
        <ele>153.8</ele>
        <time>2012-04-01T09:30:07Z</time>
      </trkpt>
      <trkpt lat="46.93938" lon="-0.6623">
        <ele>153.8</ele>
        <time>2012-04-01T09:30:08Z</time>
      </trkpt>
      <trkpt lat="46.93939" lon="-0.66221">
        <ele>153.8</ele>
        <time>2012-04-01T09:30:09Z</time>
      </trkpt>
      <trkpt lat="46.9394" lon="-0.66212">
        <ele>153.6</ele>
        <time>2012-04-01T09:30:10Z</time>
      </trkpt>
      <trkpt lat="46.93941" lon="-0.66203">
        <ele>153.6</ele>
        <time>2012-04-01T09:30:11Z</time>
      </trkpt>
      <trkpt lat="46.93942" lon="-0.66195">
        <ele>153.6</ele>
        <time>2012-04-01T09:30:12Z</time>
      </trkpt>
      <trkpt lat="46.93943" lon="-0.66186">
        <ele>153.6</ele>
        <time>2012-04-01T09:30:13Z</time>
      </trkpt>
      <trkpt lat="46.93945" lon="-0.66178">
        <ele>153.6</ele>
        <time>2012-04-01T09:30:14Z</time>
      </trkpt>
      <trkpt lat="46.93946" lon="-0.66169">
        <ele>153.5</ele>
        <time>2012-04-01T09:30:15Z</time>
      </trkpt>
      <trkpt lat="46.93947" lon="-0.6616">
        <ele>153.5</ele>
        <time>2012-04-01T09:30:16Z</time>
      </trkpt>
      <trkpt lat="46.93949" lon="-0.66152">
        <ele>153.3</ele>
        <time>2012-04-01T09:30:17Z</time>
      </trkpt>
      <trkpt lat="46.9395" lon="-0.66143">
        <ele>153.3</ele>
        <time>2012-04-01T09:30:18Z</time>
      </trkpt>
      <trkpt lat="46.93951" lon="-0.66135">
        <ele>153.3</ele>
        <time>2012-04-01T09:30:19Z</time>
      </trkpt>
      <trkpt lat="46.93952" lon="-0.66126">
        <ele>153.3</ele>
        <time>2012-04-01T09:30:20Z</time>
      </trkpt>
      <trkpt lat="46.93953" lon="-0.66118">
        <ele>153.1</ele>
        <time>2012-04-01T09:30:21Z</time>
      </trkpt>
      <trkpt lat="46.93954" lon="-0.6611">
        <ele>153.1</ele>
        <time>2012-04-01T09:30:22Z</time>
      </trkpt>
      <trkpt lat="46.93955" lon="-0.66103">
        <ele>153.1</ele>
        <time>2012-04-01T09:30:23Z</time>
      </trkpt>
      <trkpt lat="46.93957" lon="-0.66091">
        <ele>153.1</ele>
        <time>2012-04-01T09:30:25Z</time>
      </trkpt>
      <trkpt lat="46.93954" lon="-0.66081">
        <ele>153</ele>
        <time>2012-04-01T09:30:28Z</time>
      </trkpt>
      <trkpt lat="46.93952" lon="-0.6608">
        <ele>153</ele>
        <time>2012-04-01T09:30:29Z</time>
      </trkpt>
      <trkpt lat="46.93939" lon="-0.66082">
        <ele>152.3</ele>
        <time>2012-04-01T09:30:33Z</time>
      </trkpt>
      <trkpt lat="46.93931" lon="-0.66086">
        <ele>152</ele>
        <time>2012-04-01T09:30:35Z</time>
      </trkpt>
      <trkpt lat="46.93923" lon="-0.6609">
        <ele>151.6</ele>
        <time>2012-04-01T09:30:37Z</time>
      </trkpt>
      <trkpt lat="46.93914" lon="-0.66094">
        <ele>151.3</ele>
        <time>2012-04-01T09:30:39Z</time>
      </trkpt>
      <trkpt lat="46.93906" lon="-0.66098">
        <ele>151.1</ele>
        <time>2012-04-01T09:30:41Z</time>
      </trkpt>
      <trkpt lat="46.93898" lon="-0.66102">
        <ele>151</ele>
        <time>2012-04-01T09:30:43Z</time>
      </trkpt>
      <trkpt lat="46.9389" lon="-0.66105">
        <ele>150.8</ele>
        <time>2012-04-01T09:30:45Z</time>
      </trkpt>
      <trkpt lat="46.93883" lon="-0.66109">
        <ele>150.8</ele>
        <time>2012-04-01T09:30:47Z</time>
      </trkpt>
      <trkpt lat="46.93876" lon="-0.66113">
        <ele>150.8</ele>
        <time>2012-04-01T09:30:49Z</time>
      </trkpt>
      <trkpt lat="46.9387" lon="-0.66116">
        <ele>150.6</ele>
        <time>2012-04-01T09:30:51Z</time>
      </trkpt>
      <trkpt lat="46.93863" lon="-0.66119">
        <ele>150.6</ele>
        <time>2012-04-01T09:30:53Z</time>
      </trkpt>
      <trkpt lat="46.93857" lon="-0.66123">
        <ele>150.6</ele>
        <time>2012-04-01T09:30:55Z</time>
      </trkpt>
      <trkpt lat="46.93852" lon="-0.66126">
        <ele>150.6</ele>
        <time>2012-04-01T09:30:57Z</time>
      </trkpt>
      <trkpt lat="46.93846" lon="-0.66129">
        <ele>150.6</ele>
        <time>2012-04-01T09:30:59Z</time>
      </trkpt>
      <trkpt lat="46.9384" lon="-0.66132">
        <ele>150.6</ele>
        <time>2012-04-01T09:31:01Z</time>
      </trkpt>
      <trkpt lat="46.93834" lon="-0.66135">
        <ele>150.6</ele>
        <time>2012-04-01T09:31:03Z</time>
      </trkpt>
      <trkpt lat="46.93828" lon="-0.66138">
        <ele>150.6</ele>
        <time>2012-04-01T09:31:05Z</time>
      </trkpt>
      <trkpt lat="46.93822" lon="-0.66141">
        <ele>150.6</ele>
        <time>2012-04-01T09:31:07Z</time>
      </trkpt>
      <trkpt lat="46.93816" lon="-0.66144">
        <ele>150.6</ele>
        <time>2012-04-01T09:31:09Z</time>
      </trkpt>
      <trkpt lat="46.93808" lon="-0.66148">
        <ele>150.6</ele>
        <time>2012-04-01T09:31:12Z</time>
      </trkpt>
      <trkpt lat="46.938" lon="-0.66153">
        <ele>150.6</ele>
        <time>2012-04-01T09:31:15Z</time>
      </trkpt>
      <trkpt lat="46.93794" lon="-0.66156">
        <ele>150.6</ele>
        <time>2012-04-01T09:31:17Z</time>
      </trkpt>
      <trkpt lat="46.93788" lon="-0.66159">
        <ele>150.8</ele>
        <time>2012-04-01T09:31:19Z</time>
      </trkpt>
      <trkpt lat="46.93782" lon="-0.66162">
        <ele>150.8</ele>
        <time>2012-04-01T09:31:21Z</time>
      </trkpt>
      <trkpt lat="46.93776" lon="-0.66165">
        <ele>150.8</ele>
        <time>2012-04-01T09:31:23Z</time>
      </trkpt>
      <trkpt lat="46.93769" lon="-0.66168">
        <ele>150.8</ele>
        <time>2012-04-01T09:31:25Z</time>
      </trkpt>
      <trkpt lat="46.93763" lon="-0.66171">
        <ele>150.8</ele>
        <time>2012-04-01T09:31:27Z</time>
      </trkpt>
      <trkpt lat="46.93756" lon="-0.66173">
        <ele>150.8</ele>
        <time>2012-04-01T09:31:29Z</time>
      </trkpt>
      <trkpt lat="46.93753" lon="-0.66171">
        <ele>150.8</ele>
        <time>2012-04-01T09:31:30Z</time>
      </trkpt>
      <trkpt lat="46.9375" lon="-0.66153">
        <ele>150.8</ele>
        <time>2012-04-01T09:31:34Z</time>
      </trkpt>
      <trkpt lat="46.93749" lon="-0.66141">
        <ele>151.1</ele>
        <time>2012-04-01T09:31:36Z</time>
      </trkpt>
      <trkpt lat="46.93747" lon="-0.66129">
        <ele>151.3</ele>
        <time>2012-04-01T09:31:38Z</time>
      </trkpt>
      <trkpt lat="46.93746" lon="-0.66117">
        <ele>151.5</ele>
        <time>2012-04-01T09:31:40Z</time>
      </trkpt>
      <trkpt lat="46.93744" lon="-0.66106">
        <ele>151.6</ele>
        <time>2012-04-01T09:31:42Z</time>
      </trkpt>
      <trkpt lat="46.93743" lon="-0.66094">
        <ele>151.8</ele>
        <time>2012-04-01T09:31:44Z</time>
      </trkpt>
      <trkpt lat="46.93741" lon="-0.66082">
        <ele>151.8</ele>
        <time>2012-04-01T09:31:46Z</time>
      </trkpt>
      <trkpt lat="46.93739" lon="-0.6607">
        <ele>151.8</ele>
        <time>2012-04-01T09:31:48Z</time>
      </trkpt>
      <trkpt lat="46.93737" lon="-0.66058">
        <ele>151.5</ele>
        <time>2012-04-01T09:31:50Z</time>
      </trkpt>
      <trkpt lat="46.93736" lon="-0.66045">
        <ele>151.6</ele>
        <time>2012-04-01T09:31:52Z</time>
      </trkpt>
      <trkpt lat="46.93735" lon="-0.66032">
        <ele>151.6</ele>
        <time>2012-04-01T09:31:54Z</time>
      </trkpt>
      <trkpt lat="46.93734" lon="-0.66026">
        <ele>151.6</ele>
        <time>2012-04-01T09:31:55Z</time>
      </trkpt>
      <trkpt lat="46.93734" lon="-0.66019">
        <ele>151.5</ele>
        <time>2012-04-01T09:31:56Z</time>
      </trkpt>
      <trkpt lat="46.93733" lon="-0.66012">
        <ele>151.3</ele>
        <time>2012-04-01T09:31:57Z</time>
      </trkpt>
      <trkpt lat="46.93733" lon="-0.66005">
        <ele>151.3</ele>
        <time>2012-04-01T09:31:58Z</time>
      </trkpt>
      <trkpt lat="46.93732" lon="-0.65998">
        <ele>151.1</ele>
        <time>2012-04-01T09:31:59Z</time>
      </trkpt>
      <trkpt lat="46.93731" lon="-0.6599">
        <ele>151</ele>
        <time>2012-04-01T09:32:00Z</time>
      </trkpt>
      <trkpt lat="46.9373" lon="-0.65983">
        <ele>150.8</ele>
        <time>2012-04-01T09:32:01Z</time>
      </trkpt>
      <trkpt lat="46.9373" lon="-0.65976">
        <ele>150.6</ele>
        <time>2012-04-01T09:32:02Z</time>
      </trkpt>
      <trkpt lat="46.93729" lon="-0.65968">
        <ele>150.6</ele>
        <time>2012-04-01T09:32:03Z</time>
      </trkpt>
      <trkpt lat="46.93729" lon="-0.6596">
        <ele>150.3</ele>
        <time>2012-04-01T09:32:04Z</time>
      </trkpt>
      <trkpt lat="46.93728" lon="-0.65952">
        <ele>150.1</ele>
        <time>2012-04-01T09:32:05Z</time>
      </trkpt>
      <trkpt lat="46.93727" lon="-0.65944">
        <ele>150</ele>
        <time>2012-04-01T09:32:06Z</time>
      </trkpt>
      <trkpt lat="46.93727" lon="-0.65936">
        <ele>149.8</ele>
        <time>2012-04-01T09:32:07Z</time>
      </trkpt>
      <trkpt lat="46.93726" lon="-0.65928">
        <ele>149.8</ele>
        <time>2012-04-01T09:32:08Z</time>
      </trkpt>
      <trkpt lat="46.93726" lon="-0.65921">
        <ele>149.8</ele>
        <time>2012-04-01T09:32:09Z</time>
      </trkpt>
      <trkpt lat="46.93725" lon="-0.65914">
        <ele>150</ele>
        <time>2012-04-01T09:32:10Z</time>
      </trkpt>
      <trkpt lat="46.93725" lon="-0.65906">
        <ele>150.1</ele>
        <time>2012-04-01T09:32:11Z</time>
      </trkpt>
      <trkpt lat="46.93722" lon="-0.65894">
        <ele>150.1</ele>
        <time>2012-04-01T09:32:13Z</time>
      </trkpt>
      <trkpt lat="46.9372" lon="-0.65888">
        <ele>150.1</ele>
        <time>2012-04-01T09:32:14Z</time>
      </trkpt>
      <trkpt lat="46.93714" lon="-0.65878">
        <ele>150.3</ele>
        <time>2012-04-01T09:32:16Z</time>
      </trkpt>
      <trkpt lat="46.93709" lon="-0.65869">
        <ele>150.3</ele>
        <time>2012-04-01T09:32:18Z</time>
      </trkpt>
      <trkpt lat="46.93705" lon="-0.65861">
        <ele>150.5</ele>
        <time>2012-04-01T09:32:20Z</time>
      </trkpt>
      <trkpt lat="46.93702" lon="-0.65852">
        <ele>150.6</ele>
        <time>2012-04-01T09:32:22Z</time>
      </trkpt>
      <trkpt lat="46.93698" lon="-0.65843">
        <ele>150.6</ele>
        <time>2012-04-01T09:32:24Z</time>
      </trkpt>
      <trkpt lat="46.93695" lon="-0.65835">
        <ele>150.8</ele>
        <time>2012-04-01T09:32:26Z</time>
      </trkpt>
      <trkpt lat="46.93691" lon="-0.65827">
        <ele>150.8</ele>
        <time>2012-04-01T09:32:28Z</time>
      </trkpt>
      <trkpt lat="46.93688" lon="-0.65819">
        <ele>151</ele>
        <time>2012-04-01T09:32:30Z</time>
      </trkpt>
      <trkpt lat="46.93686" lon="-0.65815">
        <ele>151.1</ele>
        <time>2012-04-01T09:32:31Z</time>
      </trkpt>
      <trkpt lat="46.93679" lon="-0.65802">
        <ele>151.3</ele>
        <time>2012-04-01T09:32:34Z</time>
      </trkpt>
      <trkpt lat="46.93675" lon="-0.65793">
        <ele>151.3</ele>
        <time>2012-04-01T09:32:36Z</time>
      </trkpt>
      <trkpt lat="46.9367" lon="-0.65785">
        <ele>151.5</ele>
        <time>2012-04-01T09:32:38Z</time>
      </trkpt>
      <trkpt lat="46.93666" lon="-0.65776">
        <ele>151.6</ele>
        <time>2012-04-01T09:32:40Z</time>
      </trkpt>
      <trkpt lat="46.93661" lon="-0.65767">
        <ele>151.6</ele>
        <time>2012-04-01T09:32:42Z</time>
      </trkpt>
      <trkpt lat="46.93656" lon="-0.65759">
        <ele>151.6</ele>
        <time>2012-04-01T09:32:44Z</time>
      </trkpt>
      <trkpt lat="46.93651" lon="-0.65751">
        <ele>151.8</ele>
        <time>2012-04-01T09:32:46Z</time>
      </trkpt>
      <trkpt lat="46.93647" lon="-0.65743">
        <ele>152</ele>
        <time>2012-04-01T09:32:48Z</time>
      </trkpt>
      <trkpt lat="46.93642" lon="-0.65736">
        <ele>152.1</ele>
        <time>2012-04-01T09:32:50Z</time>
      </trkpt>
      <trkpt lat="46.93638" lon="-0.65728">
        <ele>152.5</ele>
        <time>2012-04-01T09:32:52Z</time>
      </trkpt>
      <trkpt lat="46.93634" lon="-0.65721">
        <ele>152.6</ele>
        <time>2012-04-01T09:32:54Z</time>
      </trkpt>
      <trkpt lat="46.9363" lon="-0.65714">
        <ele>152.8</ele>
        <time>2012-04-01T09:32:56Z</time>
      </trkpt>
      <trkpt lat="46.93626" lon="-0.65706">
        <ele>153.1</ele>
        <time>2012-04-01T09:32:58Z</time>
      </trkpt>
      <trkpt lat="46.93622" lon="-0.65698">
        <ele>153.3</ele>
        <time>2012-04-01T09:33:00Z</time>
      </trkpt>
      <trkpt lat="46.93617" lon="-0.65689">
        <ele>153.5</ele>
        <time>2012-04-01T09:33:02Z</time>
      </trkpt>
      <trkpt lat="46.93612" lon="-0.65679">
        <ele>153.6</ele>
        <time>2012-04-01T09:33:04Z</time>
      </trkpt>
      <trkpt lat="46.93607" lon="-0.6567">
        <ele>154.8</ele>
        <time>2012-04-01T09:33:06Z</time>
      </trkpt>
      <trkpt lat="46.93603" lon="-0.6566">
        <ele>156.3</ele>
        <time>2012-04-01T09:33:08Z</time>
      </trkpt>
      <trkpt lat="46.93598" lon="-0.65649">
        <ele>157</ele>
        <time>2012-04-01T09:33:10Z</time>
      </trkpt>
      <trkpt lat="46.93593" lon="-0.65638">
        <ele>157.1</ele>
        <time>2012-04-01T09:33:12Z</time>
      </trkpt>
      <trkpt lat="46.93591" lon="-0.65632">
        <ele>157.1</ele>
        <time>2012-04-01T09:33:13Z</time>
      </trkpt>
      <trkpt lat="46.93589" lon="-0.65626">
        <ele>157</ele>
        <time>2012-04-01T09:33:14Z</time>
      </trkpt>
      <trkpt lat="46.93587" lon="-0.6562">
        <ele>157</ele>
        <time>2012-04-01T09:33:15Z</time>
      </trkpt>
      <trkpt lat="46.93585" lon="-0.65614">
        <ele>156.8</ele>
        <time>2012-04-01T09:33:16Z</time>
      </trkpt>
      <trkpt lat="46.93583" lon="-0.65608">
        <ele>156.8</ele>
        <time>2012-04-01T09:33:17Z</time>
      </trkpt>
      <trkpt lat="46.93581" lon="-0.65601">
        <ele>156.5</ele>
        <time>2012-04-01T09:33:18Z</time>
      </trkpt>
      <trkpt lat="46.93578" lon="-0.65595">
        <ele>156.3</ele>
        <time>2012-04-01T09:33:19Z</time>
      </trkpt>
      <trkpt lat="46.93576" lon="-0.65588">
        <ele>156.1</ele>
        <time>2012-04-01T09:33:20Z</time>
      </trkpt>
      <trkpt lat="46.93574" lon="-0.65582">
        <ele>156.1</ele>
        <time>2012-04-01T09:33:21Z</time>
      </trkpt>
      <trkpt lat="46.93572" lon="-0.65575">
        <ele>156.1</ele>
        <time>2012-04-01T09:33:22Z</time>
      </trkpt>
      <trkpt lat="46.93569" lon="-0.65568">
        <ele>156.3</ele>
        <time>2012-04-01T09:33:23Z</time>
      </trkpt>
      <trkpt lat="46.93567" lon="-0.6556">
        <ele>156.6</ele>
        <time>2012-04-01T09:33:24Z</time>
      </trkpt>
      <trkpt lat="46.93565" lon="-0.65552">
        <ele>156.8</ele>
        <time>2012-04-01T09:33:25Z</time>
      </trkpt>
      <trkpt lat="46.93563" lon="-0.65545">
        <ele>157.1</ele>
        <time>2012-04-01T09:33:26Z</time>
      </trkpt>
      <trkpt lat="46.93561" lon="-0.65537">
        <ele>157.1</ele>
        <time>2012-04-01T09:33:27Z</time>
      </trkpt>
      <trkpt lat="46.93558" lon="-0.65525">
        <ele>157</ele>
        <time>2012-04-01T09:33:29Z</time>
      </trkpt>
      <trkpt lat="46.93553" lon="-0.65514">
        <ele>156.6</ele>
        <time>2012-04-01T09:33:31Z</time>
      </trkpt>
      <trkpt lat="46.93551" lon="-0.65508">
        <ele>156.6</ele>
        <time>2012-04-01T09:33:32Z</time>
      </trkpt>
      <trkpt lat="46.93548" lon="-0.65502">
        <ele>156.5</ele>
        <time>2012-04-01T09:33:33Z</time>
      </trkpt>
      <trkpt lat="46.93545" lon="-0.65496">
        <ele>156.6</ele>
        <time>2012-04-01T09:33:34Z</time>
      </trkpt>
      <trkpt lat="46.93542" lon="-0.65491">
        <ele>156.8</ele>
        <time>2012-04-01T09:33:35Z</time>
      </trkpt>
      <trkpt lat="46.93539" lon="-0.65485">
        <ele>156.5</ele>
        <time>2012-04-01T09:33:36Z</time>
      </trkpt>
      <trkpt lat="46.93536" lon="-0.6548">
        <ele>156.1</ele>
        <time>2012-04-01T09:33:37Z</time>
      </trkpt>
      <trkpt lat="46.93531" lon="-0.6547">
        <ele>155.6</ele>
        <time>2012-04-01T09:33:39Z</time>
      </trkpt>
      <trkpt lat="46.93525" lon="-0.65463">
        <ele>155.5</ele>
        <time>2012-04-01T09:33:41Z</time>
      </trkpt>
      <trkpt lat="46.93519" lon="-0.65456">
        <ele>155.3</ele>
        <time>2012-04-01T09:33:43Z</time>
      </trkpt>
      <trkpt lat="46.93512" lon="-0.65452">
        <ele>155.3</ele>
        <time>2012-04-01T09:33:45Z</time>
      </trkpt>
      <trkpt lat="46.93505" lon="-0.65447">
        <ele>155.5</ele>
        <time>2012-04-01T09:33:47Z</time>
      </trkpt>
      <trkpt lat="46.93497" lon="-0.65442">
        <ele>155.6</ele>
        <time>2012-04-01T09:33:49Z</time>
      </trkpt>
      <trkpt lat="46.93492" lon="-0.65432">
        <ele>155.6</ele>
        <time>2012-04-01T09:33:51Z</time>
      </trkpt>
      <trkpt lat="46.93488" lon="-0.65421">
        <ele>156.3</ele>
        <time>2012-04-01T09:33:53Z</time>
      </trkpt>
      <trkpt lat="46.93486" lon="-0.6541">
        <ele>157.1</ele>
        <time>2012-04-01T09:33:55Z</time>
      </trkpt>
      <trkpt lat="46.93486" lon="-0.65399">
        <ele>157.1</ele>
        <time>2012-04-01T09:33:57Z</time>
      </trkpt>
      <trkpt lat="46.93485" lon="-0.65389">
        <ele>157.3</ele>
        <time>2012-04-01T09:33:59Z</time>
      </trkpt>
      <trkpt lat="46.93481" lon="-0.65379">
        <ele>157.3</ele>
        <time>2012-04-01T09:34:01Z</time>
      </trkpt>
      <trkpt lat="46.93477" lon="-0.65369">
        <ele>157.5</ele>
        <time>2012-04-01T09:34:03Z</time>
      </trkpt>
      <trkpt lat="46.93473" lon="-0.65359">
        <ele>157.6</ele>
        <time>2012-04-01T09:34:05Z</time>
      </trkpt>
      <trkpt lat="46.93469" lon="-0.6535">
        <ele>157.6</ele>
        <time>2012-04-01T09:34:07Z</time>
      </trkpt>
      <trkpt lat="46.93465" lon="-0.65341">
        <ele>157.6</ele>
        <time>2012-04-01T09:34:09Z</time>
      </trkpt>
      <trkpt lat="46.93461" lon="-0.65332">
        <ele>157.8</ele>
        <time>2012-04-01T09:34:11Z</time>
      </trkpt>
      <trkpt lat="46.93457" lon="-0.65323">
        <ele>157.8</ele>
        <time>2012-04-01T09:34:13Z</time>
      </trkpt>
      <trkpt lat="46.93453" lon="-0.65313">
        <ele>157.8</ele>
        <time>2012-04-01T09:34:15Z</time>
      </trkpt>
      <trkpt lat="46.93449" lon="-0.65304">
        <ele>158</ele>
        <time>2012-04-01T09:34:17Z</time>
      </trkpt>
      <trkpt lat="46.93446" lon="-0.65295">
        <ele>158</ele>
        <time>2012-04-01T09:34:19Z</time>
      </trkpt>
      <trkpt lat="46.93442" lon="-0.65286">
        <ele>158</ele>
        <time>2012-04-01T09:34:21Z</time>
      </trkpt>
      <trkpt lat="46.93438" lon="-0.65278">
        <ele>158</ele>
        <time>2012-04-01T09:34:23Z</time>
      </trkpt>
      <trkpt lat="46.93433" lon="-0.65267">
        <ele>158</ele>
        <time>2012-04-01T09:34:26Z</time>
      </trkpt>
      <trkpt lat="46.93429" lon="-0.65255">
        <ele>157.8</ele>
        <time>2012-04-01T09:34:29Z</time>
      </trkpt>
      <trkpt lat="46.93425" lon="-0.65245">
        <ele>157.8</ele>
        <time>2012-04-01T09:34:32Z</time>
      </trkpt>
      <trkpt lat="46.93423" lon="-0.65241">
        <ele>157.8</ele>
        <time>2012-04-01T09:34:33Z</time>
      </trkpt>
      <trkpt lat="46.93423" lon="-0.65224">
        <ele>158.1</ele>
        <time>2012-04-01T09:34:37Z</time>
      </trkpt>
      <trkpt lat="46.93423" lon="-0.65214">
        <ele>158.1</ele>
        <time>2012-04-01T09:34:39Z</time>
      </trkpt>
      <trkpt lat="46.93423" lon="-0.65204">
        <ele>158.1</ele>
        <time>2012-04-01T09:34:41Z</time>
      </trkpt>
      <trkpt lat="46.93424" lon="-0.65194">
        <ele>158.1</ele>
        <time>2012-04-01T09:34:43Z</time>
      </trkpt>
      <trkpt lat="46.93424" lon="-0.65185">
        <ele>158.3</ele>
        <time>2012-04-01T09:34:45Z</time>
      </trkpt>
      <trkpt lat="46.93426" lon="-0.65176">
        <ele>158.3</ele>
        <time>2012-04-01T09:34:47Z</time>
      </trkpt>
      <trkpt lat="46.93428" lon="-0.65166">
        <ele>158.3</ele>
        <time>2012-04-01T09:34:49Z</time>
      </trkpt>
      <trkpt lat="46.93429" lon="-0.65154">
        <ele>158.5</ele>
        <time>2012-04-01T09:34:51Z</time>
      </trkpt>
      <trkpt lat="46.93431" lon="-0.65142">
        <ele>159.6</ele>
        <time>2012-04-01T09:34:53Z</time>
      </trkpt>
      <trkpt lat="46.93432" lon="-0.65136">
        <ele>160</ele>
        <time>2012-04-01T09:34:54Z</time>
      </trkpt>
      <trkpt lat="46.93433" lon="-0.65129">
        <ele>160.5</ele>
        <time>2012-04-01T09:34:55Z</time>
      </trkpt>
      <trkpt lat="46.93434" lon="-0.65122">
        <ele>160.8</ele>
        <time>2012-04-01T09:34:56Z</time>
      </trkpt>
      <trkpt lat="46.93435" lon="-0.65115">
        <ele>161.1</ele>
        <time>2012-04-01T09:34:57Z</time>
      </trkpt>
      <trkpt lat="46.93436" lon="-0.65108">
        <ele>161.3</ele>
        <time>2012-04-01T09:34:58Z</time>
      </trkpt>
      <trkpt lat="46.93437" lon="-0.65101">
        <ele>161.5</ele>
        <time>2012-04-01T09:34:59Z</time>
      </trkpt>
      <trkpt lat="46.93439" lon="-0.65094">
        <ele>161.6</ele>
        <time>2012-04-01T09:35:00Z</time>
      </trkpt>
      <trkpt lat="46.9344" lon="-0.65086">
        <ele>161.8</ele>
        <time>2012-04-01T09:35:01Z</time>
      </trkpt>
      <trkpt lat="46.93442" lon="-0.65079">
        <ele>162</ele>
        <time>2012-04-01T09:35:02Z</time>
      </trkpt>
      <trkpt lat="46.93444" lon="-0.65072">
        <ele>162.1</ele>
        <time>2012-04-01T09:35:03Z</time>
      </trkpt>
      <trkpt lat="46.93446" lon="-0.65066">
        <ele>162.1</ele>
        <time>2012-04-01T09:35:04Z</time>
      </trkpt>
      <trkpt lat="46.93448" lon="-0.65059">
        <ele>162.3</ele>
        <time>2012-04-01T09:35:05Z</time>
      </trkpt>
      <trkpt lat="46.9345" lon="-0.65052">
        <ele>162.3</ele>
        <time>2012-04-01T09:35:06Z</time>
      </trkpt>
      <trkpt lat="46.93452" lon="-0.65045">
        <ele>162.3</ele>
        <time>2012-04-01T09:35:07Z</time>
      </trkpt>
      <trkpt lat="46.93455" lon="-0.65039">
        <ele>162.3</ele>
        <time>2012-04-01T09:35:08Z</time>
      </trkpt>
      <trkpt lat="46.93458" lon="-0.65032">
        <ele>162.3</ele>
        <time>2012-04-01T09:35:09Z</time>
      </trkpt>
      <trkpt lat="46.93461" lon="-0.65025">
        <ele>162.3</ele>
        <time>2012-04-01T09:35:10Z</time>
      </trkpt>
      <trkpt lat="46.93464" lon="-0.65019">
        <ele>162.3</ele>
        <time>2012-04-01T09:35:11Z</time>
      </trkpt>
      <trkpt lat="46.93468" lon="-0.65012">
        <ele>162.3</ele>
        <time>2012-04-01T09:35:12Z</time>
      </trkpt>
      <trkpt lat="46.93471" lon="-0.65006">
        <ele>162.3</ele>
        <time>2012-04-01T09:35:13Z</time>
      </trkpt>
      <trkpt lat="46.93474" lon="-0.65">
        <ele>162.1</ele>
        <time>2012-04-01T09:35:14Z</time>
      </trkpt>
      <trkpt lat="46.93478" lon="-0.64994">
        <ele>162.1</ele>
        <time>2012-04-01T09:35:15Z</time>
      </trkpt>
      <trkpt lat="46.93481" lon="-0.64988">
        <ele>162.1</ele>
        <time>2012-04-01T09:35:16Z</time>
      </trkpt>
      <trkpt lat="46.93484" lon="-0.64983">
        <ele>162</ele>
        <time>2012-04-01T09:35:17Z</time>
      </trkpt>
      <trkpt lat="46.93487" lon="-0.64977">
        <ele>162</ele>
        <time>2012-04-01T09:35:18Z</time>
      </trkpt>
      <trkpt lat="46.93491" lon="-0.6497">
        <ele>162</ele>
        <time>2012-04-01T09:35:19Z</time>
      </trkpt>
      <trkpt lat="46.93495" lon="-0.64964">
        <ele>161.8</ele>
        <time>2012-04-01T09:35:20Z</time>
      </trkpt>
      <trkpt lat="46.93498" lon="-0.64958">
        <ele>161.8</ele>
        <time>2012-04-01T09:35:21Z</time>
      </trkpt>
      <trkpt lat="46.93502" lon="-0.64951">
        <ele>162</ele>
        <time>2012-04-01T09:35:22Z</time>
      </trkpt>
      <trkpt lat="46.93506" lon="-0.64945">
        <ele>162</ele>
        <time>2012-04-01T09:35:23Z</time>
      </trkpt>
      <trkpt lat="46.93509" lon="-0.64938">
        <ele>162</ele>
        <time>2012-04-01T09:35:24Z</time>
      </trkpt>
      <trkpt lat="46.93513" lon="-0.64932">
        <ele>162</ele>
        <time>2012-04-01T09:35:25Z</time>
      </trkpt>
      <trkpt lat="46.93516" lon="-0.64926">
        <ele>162</ele>
        <time>2012-04-01T09:35:26Z</time>
      </trkpt>
      <trkpt lat="46.9352" lon="-0.64919">
        <ele>162</ele>
        <time>2012-04-01T09:35:27Z</time>
      </trkpt>
      <trkpt lat="46.93523" lon="-0.64912">
        <ele>161.8</ele>
        <time>2012-04-01T09:35:28Z</time>
      </trkpt>
      <trkpt lat="46.93526" lon="-0.64905">
        <ele>161.8</ele>
        <time>2012-04-01T09:35:29Z</time>
      </trkpt>
      <trkpt lat="46.9353" lon="-0.64898">
        <ele>161.8</ele>
        <time>2012-04-01T09:35:30Z</time>
      </trkpt>
      <trkpt lat="46.93533" lon="-0.6489">
        <ele>161.6</ele>
        <time>2012-04-01T09:35:31Z</time>
      </trkpt>
      <trkpt lat="46.93536" lon="-0.64882">
        <ele>161.6</ele>
        <time>2012-04-01T09:35:32Z</time>
      </trkpt>
      <trkpt lat="46.9354" lon="-0.64875">
        <ele>161.5</ele>
        <time>2012-04-01T09:35:33Z</time>
      </trkpt>
      <trkpt lat="46.93543" lon="-0.64866">
        <ele>161.3</ele>
        <time>2012-04-01T09:35:34Z</time>
      </trkpt>
      <trkpt lat="46.93546" lon="-0.64858">
        <ele>161.3</ele>
        <time>2012-04-01T09:35:35Z</time>
      </trkpt>
      <trkpt lat="46.93549" lon="-0.64849">
        <ele>161.1</ele>
        <time>2012-04-01T09:35:36Z</time>
      </trkpt>
      <trkpt lat="46.93553" lon="-0.6484">
        <ele>161.1</ele>
        <time>2012-04-01T09:35:37Z</time>
      </trkpt>
      <trkpt lat="46.93556" lon="-0.64832">
        <ele>161.1</ele>
        <time>2012-04-01T09:35:38Z</time>
      </trkpt>
      <trkpt lat="46.93559" lon="-0.64823">
        <ele>161</ele>
        <time>2012-04-01T09:35:39Z</time>
      </trkpt>
      <trkpt lat="46.93562" lon="-0.64815">
        <ele>161</ele>
        <time>2012-04-01T09:35:40Z</time>
      </trkpt>
      <trkpt lat="46.93565" lon="-0.64806">
        <ele>160.8</ele>
        <time>2012-04-01T09:35:41Z</time>
      </trkpt>
      <trkpt lat="46.93568" lon="-0.64798">
        <ele>160.8</ele>
        <time>2012-04-01T09:35:42Z</time>
      </trkpt>
      <trkpt lat="46.93571" lon="-0.64789">
        <ele>160.8</ele>
        <time>2012-04-01T09:35:43Z</time>
      </trkpt>
      <trkpt lat="46.93574" lon="-0.64781">
        <ele>160.6</ele>
        <time>2012-04-01T09:35:44Z</time>
      </trkpt>
      <trkpt lat="46.93577" lon="-0.64772">
        <ele>160.6</ele>
        <time>2012-04-01T09:35:45Z</time>
      </trkpt>
      <trkpt lat="46.93581" lon="-0.64764">
        <ele>160.5</ele>
        <time>2012-04-01T09:35:46Z</time>
      </trkpt>
      <trkpt lat="46.93584" lon="-0.64755">
        <ele>160.3</ele>
        <time>2012-04-01T09:35:47Z</time>
      </trkpt>
      <trkpt lat="46.93587" lon="-0.64746">
        <ele>160.3</ele>
        <time>2012-04-01T09:35:48Z</time>
      </trkpt>
      <trkpt lat="46.93591" lon="-0.64737">
        <ele>160.3</ele>
        <time>2012-04-01T09:35:49Z</time>
      </trkpt>
      <trkpt lat="46.93594" lon="-0.64728">
        <ele>160.1</ele>
        <time>2012-04-01T09:35:50Z</time>
      </trkpt>
      <trkpt lat="46.93597" lon="-0.6472">
        <ele>160.1</ele>
        <time>2012-04-01T09:35:51Z</time>
      </trkpt>
      <trkpt lat="46.936" lon="-0.64711">
        <ele>160</ele>
        <time>2012-04-01T09:35:52Z</time>
      </trkpt>
      <trkpt lat="46.93603" lon="-0.64702">
        <ele>159.8</ele>
        <time>2012-04-01T09:35:53Z</time>
      </trkpt>
      <trkpt lat="46.93607" lon="-0.64693">
        <ele>159.8</ele>
        <time>2012-04-01T09:35:54Z</time>
      </trkpt>
      <trkpt lat="46.9361" lon="-0.64685">
        <ele>159.6</ele>
        <time>2012-04-01T09:35:55Z</time>
      </trkpt>
      <trkpt lat="46.93613" lon="-0.64676">
        <ele>159.6</ele>
        <time>2012-04-01T09:35:56Z</time>
      </trkpt>
      <trkpt lat="46.93616" lon="-0.64668">
        <ele>159.6</ele>
        <time>2012-04-01T09:35:57Z</time>
      </trkpt>
      <trkpt lat="46.9362" lon="-0.64659">
        <ele>159.6</ele>
        <time>2012-04-01T09:35:58Z</time>
      </trkpt>
      <trkpt lat="46.93623" lon="-0.64652">
        <ele>159.5</ele>
        <time>2012-04-01T09:35:59Z</time>
      </trkpt>
      <trkpt lat="46.93626" lon="-0.64644">
        <ele>159.5</ele>
        <time>2012-04-01T09:36:00Z</time>
      </trkpt>
      <trkpt lat="46.9363" lon="-0.64637">
        <ele>159.3</ele>
        <time>2012-04-01T09:36:01Z</time>
      </trkpt>
      <trkpt lat="46.93633" lon="-0.6463">
        <ele>159.3</ele>
        <time>2012-04-01T09:36:02Z</time>
      </trkpt>
      <trkpt lat="46.93636" lon="-0.64623">
        <ele>159.3</ele>
        <time>2012-04-01T09:36:03Z</time>
      </trkpt>
      <trkpt lat="46.9364" lon="-0.64616">
        <ele>159.3</ele>
        <time>2012-04-01T09:36:04Z</time>
      </trkpt>
      <trkpt lat="46.93644" lon="-0.64609">
        <ele>159.1</ele>
        <time>2012-04-01T09:36:05Z</time>
      </trkpt>
      <trkpt lat="46.93647" lon="-0.64602">
        <ele>159.1</ele>
        <time>2012-04-01T09:36:06Z</time>
      </trkpt>
      <trkpt lat="46.93651" lon="-0.64594">
        <ele>159</ele>
        <time>2012-04-01T09:36:07Z</time>
      </trkpt>
      <trkpt lat="46.93654" lon="-0.64587">
        <ele>159</ele>
        <time>2012-04-01T09:36:08Z</time>
      </trkpt>
      <trkpt lat="46.93658" lon="-0.6458">
        <ele>158.8</ele>
        <time>2012-04-01T09:36:09Z</time>
      </trkpt>
      <trkpt lat="46.93661" lon="-0.64573">
        <ele>158.8</ele>
        <time>2012-04-01T09:36:10Z</time>
      </trkpt>
      <trkpt lat="46.93663" lon="-0.64566">
        <ele>158.6</ele>
        <time>2012-04-01T09:36:11Z</time>
      </trkpt>
      <trkpt lat="46.93666" lon="-0.64559">
        <ele>158.6</ele>
        <time>2012-04-01T09:36:12Z</time>
      </trkpt>
      <trkpt lat="46.93668" lon="-0.64551">
        <ele>158.6</ele>
        <time>2012-04-01T09:36:13Z</time>
      </trkpt>
      <trkpt lat="46.93671" lon="-0.64544">
        <ele>158.6</ele>
        <time>2012-04-01T09:36:14Z</time>
      </trkpt>
      <trkpt lat="46.93673" lon="-0.64536">
        <ele>158.5</ele>
        <time>2012-04-01T09:36:15Z</time>
      </trkpt>
      <trkpt lat="46.93676" lon="-0.64529">
        <ele>158.3</ele>
        <time>2012-04-01T09:36:16Z</time>
      </trkpt>
      <trkpt lat="46.93678" lon="-0.64521">
        <ele>158.3</ele>
        <time>2012-04-01T09:36:17Z</time>
      </trkpt>
      <trkpt lat="46.9368" lon="-0.64513">
        <ele>158.3</ele>
        <time>2012-04-01T09:36:18Z</time>
      </trkpt>
      <trkpt lat="46.93683" lon="-0.64505">
        <ele>158.1</ele>
        <time>2012-04-01T09:36:19Z</time>
      </trkpt>
      <trkpt lat="46.93685" lon="-0.64498">
        <ele>158.1</ele>
        <time>2012-04-01T09:36:20Z</time>
      </trkpt>
      <trkpt lat="46.93688" lon="-0.6449">
        <ele>158</ele>
        <time>2012-04-01T09:36:21Z</time>
      </trkpt>
      <trkpt lat="46.9369" lon="-0.64483">
        <ele>158</ele>
        <time>2012-04-01T09:36:22Z</time>
      </trkpt>
      <trkpt lat="46.93693" lon="-0.64476">
        <ele>158</ele>
        <time>2012-04-01T09:36:23Z</time>
      </trkpt>
      <trkpt lat="46.93696" lon="-0.64469">
        <ele>158</ele>
        <time>2012-04-01T09:36:24Z</time>
      </trkpt>
      <trkpt lat="46.93698" lon="-0.64462">
        <ele>158</ele>
        <time>2012-04-01T09:36:25Z</time>
      </trkpt>
      <trkpt lat="46.937" lon="-0.64455">
        <ele>157.8</ele>
        <time>2012-04-01T09:36:26Z</time>
      </trkpt>
      <trkpt lat="46.93703" lon="-0.64448">
        <ele>157.8</ele>
        <time>2012-04-01T09:36:27Z</time>
      </trkpt>
      <trkpt lat="46.93706" lon="-0.6444">
        <ele>157.8</ele>
        <time>2012-04-01T09:36:28Z</time>
      </trkpt>
      <trkpt lat="46.93708" lon="-0.64433">
        <ele>157.8</ele>
        <time>2012-04-01T09:36:29Z</time>
      </trkpt>
      <trkpt lat="46.93711" lon="-0.64425">
        <ele>157.8</ele>
        <time>2012-04-01T09:36:30Z</time>
      </trkpt>
      <trkpt lat="46.93713" lon="-0.64417">
        <ele>157.8</ele>
        <time>2012-04-01T09:36:31Z</time>
      </trkpt>
      <trkpt lat="46.93716" lon="-0.64409">
        <ele>157.6</ele>
        <time>2012-04-01T09:36:32Z</time>
      </trkpt>
      <trkpt lat="46.93718" lon="-0.64401">
        <ele>157.6</ele>
        <time>2012-04-01T09:36:33Z</time>
      </trkpt>
      <trkpt lat="46.93719" lon="-0.64393">
        <ele>157.6</ele>
        <time>2012-04-01T09:36:34Z</time>
      </trkpt>
      <trkpt lat="46.93721" lon="-0.64385">
        <ele>157.3</ele>
        <time>2012-04-01T09:36:35Z</time>
      </trkpt>
      <trkpt lat="46.93723" lon="-0.64376">
        <ele>157.3</ele>
        <time>2012-04-01T09:36:36Z</time>
      </trkpt>
      <trkpt lat="46.93724" lon="-0.64367">
        <ele>157.1</ele>
        <time>2012-04-01T09:36:37Z</time>
      </trkpt>
      <trkpt lat="46.93725" lon="-0.64359">
        <ele>157</ele>
        <time>2012-04-01T09:36:38Z</time>
      </trkpt>
      <trkpt lat="46.93727" lon="-0.6435">
        <ele>156.8</ele>
        <time>2012-04-01T09:36:39Z</time>
      </trkpt>
      <trkpt lat="46.93728" lon="-0.64341">
        <ele>156.6</ele>
        <time>2012-04-01T09:36:40Z</time>
      </trkpt>
      <trkpt lat="46.9373" lon="-0.64332">
        <ele>156.6</ele>
        <time>2012-04-01T09:36:41Z</time>
      </trkpt>
      <trkpt lat="46.93731" lon="-0.64323">
        <ele>156.6</ele>
        <time>2012-04-01T09:36:42Z</time>
      </trkpt>
      <trkpt lat="46.93732" lon="-0.64315">
        <ele>156.6</ele>
        <time>2012-04-01T09:36:43Z</time>
      </trkpt>
      <trkpt lat="46.93734" lon="-0.64306">
        <ele>156.5</ele>
        <time>2012-04-01T09:36:44Z</time>
      </trkpt>
      <trkpt lat="46.93735" lon="-0.64298">
        <ele>156.5</ele>
        <time>2012-04-01T09:36:45Z</time>
      </trkpt>
      <trkpt lat="46.93736" lon="-0.6429">
        <ele>156.5</ele>
        <time>2012-04-01T09:36:46Z</time>
      </trkpt>
      <trkpt lat="46.93737" lon="-0.64281">
        <ele>156.3</ele>
        <time>2012-04-01T09:36:47Z</time>
      </trkpt>
      <trkpt lat="46.93738" lon="-0.64273">
        <ele>156.3</ele>
        <time>2012-04-01T09:36:48Z</time>
      </trkpt>
      <trkpt lat="46.9374" lon="-0.64265">
        <ele>156.3</ele>
        <time>2012-04-01T09:36:49Z</time>
      </trkpt>
      <trkpt lat="46.93741" lon="-0.64257">
        <ele>156.3</ele>
        <time>2012-04-01T09:36:50Z</time>
      </trkpt>
      <trkpt lat="46.93743" lon="-0.64249">
        <ele>156.3</ele>
        <time>2012-04-01T09:36:51Z</time>
      </trkpt>
      <trkpt lat="46.93744" lon="-0.64241">
        <ele>156.3</ele>
        <time>2012-04-01T09:36:52Z</time>
      </trkpt>
      <trkpt lat="46.93745" lon="-0.64233">
        <ele>156.1</ele>
        <time>2012-04-01T09:36:53Z</time>
      </trkpt>
      <trkpt lat="46.93747" lon="-0.64225">
        <ele>156.1</ele>
        <time>2012-04-01T09:36:54Z</time>
      </trkpt>
      <trkpt lat="46.93748" lon="-0.64218">
        <ele>156.1</ele>
        <time>2012-04-01T09:36:55Z</time>
      </trkpt>
      <trkpt lat="46.93749" lon="-0.6421">
        <ele>156.1</ele>
        <time>2012-04-01T09:36:56Z</time>
      </trkpt>
      <trkpt lat="46.93751" lon="-0.64202">
        <ele>156.3</ele>
        <time>2012-04-01T09:36:57Z</time>
      </trkpt>
      <trkpt lat="46.93752" lon="-0.64195">
        <ele>156.3</ele>
        <time>2012-04-01T09:36:58Z</time>
      </trkpt>
      <trkpt lat="46.93754" lon="-0.64187">
        <ele>156.3</ele>
        <time>2012-04-01T09:36:59Z</time>
      </trkpt>
      <trkpt lat="46.93756" lon="-0.64179">
        <ele>156.3</ele>
        <time>2012-04-01T09:37:00Z</time>
      </trkpt>
      <trkpt lat="46.93758" lon="-0.64171">
        <ele>156.3</ele>
        <time>2012-04-01T09:37:01Z</time>
      </trkpt>
      <trkpt lat="46.9376" lon="-0.64163">
        <ele>156.3</ele>
        <time>2012-04-01T09:37:02Z</time>
      </trkpt>
      <trkpt lat="46.93762" lon="-0.64155">
        <ele>156.1</ele>
        <time>2012-04-01T09:37:03Z</time>
      </trkpt>
      <trkpt lat="46.93765" lon="-0.64146">
        <ele>156.1</ele>
        <time>2012-04-01T09:37:04Z</time>
      </trkpt>
      <trkpt lat="46.93767" lon="-0.64138">
        <ele>156</ele>
        <time>2012-04-01T09:37:05Z</time>
      </trkpt>
      <trkpt lat="46.93769" lon="-0.64131">
        <ele>156</ele>
        <time>2012-04-01T09:37:06Z</time>
      </trkpt>
      <trkpt lat="46.93772" lon="-0.64124">
        <ele>155.8</ele>
        <time>2012-04-01T09:37:07Z</time>
      </trkpt>
      <trkpt lat="46.93775" lon="-0.64117">
        <ele>155.8</ele>
        <time>2012-04-01T09:37:08Z</time>
      </trkpt>
      <trkpt lat="46.93778" lon="-0.6411">
        <ele>155.6</ele>
        <time>2012-04-01T09:37:09Z</time>
      </trkpt>
      <trkpt lat="46.93781" lon="-0.64103">
        <ele>155.6</ele>
        <time>2012-04-01T09:37:10Z</time>
      </trkpt>
      <trkpt lat="46.93783" lon="-0.64095">
        <ele>155.5</ele>
        <time>2012-04-01T09:37:11Z</time>
      </trkpt>
      <trkpt lat="46.93786" lon="-0.64087">
        <ele>155.3</ele>
        <time>2012-04-01T09:37:12Z</time>
      </trkpt>
      <trkpt lat="46.93788" lon="-0.64079">
        <ele>155.3</ele>
        <time>2012-04-01T09:37:13Z</time>
      </trkpt>
      <trkpt lat="46.9379" lon="-0.6407">
        <ele>155.1</ele>
        <time>2012-04-01T09:37:14Z</time>
      </trkpt>
      <trkpt lat="46.93792" lon="-0.64062">
        <ele>155.1</ele>
        <time>2012-04-01T09:37:15Z</time>
      </trkpt>
      <trkpt lat="46.93793" lon="-0.64055">
        <ele>155.1</ele>
        <time>2012-04-01T09:37:16Z</time>
      </trkpt>
      <trkpt lat="46.93795" lon="-0.64048">
        <ele>155.1</ele>
        <time>2012-04-01T09:37:17Z</time>
      </trkpt>
      <trkpt lat="46.93797" lon="-0.64041">
        <ele>155</ele>
        <time>2012-04-01T09:37:18Z</time>
      </trkpt>
      <trkpt lat="46.93798" lon="-0.64035">
        <ele>155</ele>
        <time>2012-04-01T09:37:19Z</time>
      </trkpt>
      <trkpt lat="46.938" lon="-0.64028">
        <ele>155</ele>
        <time>2012-04-01T09:37:20Z</time>
      </trkpt>
      <trkpt lat="46.93801" lon="-0.64021">
        <ele>155</ele>
        <time>2012-04-01T09:37:21Z</time>
      </trkpt>
      <trkpt lat="46.93803" lon="-0.64013">
        <ele>155.1</ele>
        <time>2012-04-01T09:37:22Z</time>
      </trkpt>
      <trkpt lat="46.93804" lon="-0.64006">
        <ele>155.1</ele>
        <time>2012-04-01T09:37:23Z</time>
      </trkpt>
      <trkpt lat="46.93806" lon="-0.63999">
        <ele>155.1</ele>
        <time>2012-04-01T09:37:24Z</time>
      </trkpt>
      <trkpt lat="46.93807" lon="-0.63991">
        <ele>155.1</ele>
        <time>2012-04-01T09:37:25Z</time>
      </trkpt>
      <trkpt lat="46.93809" lon="-0.63983">
        <ele>155.1</ele>
        <time>2012-04-01T09:37:26Z</time>
      </trkpt>
      <trkpt lat="46.9381" lon="-0.63975">
        <ele>155</ele>
        <time>2012-04-01T09:37:27Z</time>
      </trkpt>
      <trkpt lat="46.93812" lon="-0.63967">
        <ele>155</ele>
        <time>2012-04-01T09:37:28Z</time>
      </trkpt>
      <trkpt lat="46.93813" lon="-0.63959">
        <ele>154.8</ele>
        <time>2012-04-01T09:37:29Z</time>
      </trkpt>
      <trkpt lat="46.93814" lon="-0.63951">
        <ele>154.8</ele>
        <time>2012-04-01T09:37:30Z</time>
      </trkpt>
      <trkpt lat="46.93815" lon="-0.63942">
        <ele>154.8</ele>
        <time>2012-04-01T09:37:31Z</time>
      </trkpt>
      <trkpt lat="46.93816" lon="-0.63934">
        <ele>154.6</ele>
        <time>2012-04-01T09:37:32Z</time>
      </trkpt>
      <trkpt lat="46.93817" lon="-0.63926">
        <ele>154.6</ele>
        <time>2012-04-01T09:37:33Z</time>
      </trkpt>
      <trkpt lat="46.93818" lon="-0.63918">
        <ele>154.5</ele>
        <time>2012-04-01T09:37:34Z</time>
      </trkpt>
      <trkpt lat="46.93819" lon="-0.6391">
        <ele>154.3</ele>
        <time>2012-04-01T09:37:35Z</time>
      </trkpt>
      <trkpt lat="46.9382" lon="-0.63902">
        <ele>154.3</ele>
        <time>2012-04-01T09:37:36Z</time>
      </trkpt>
      <trkpt lat="46.93821" lon="-0.63894">
        <ele>154.1</ele>
        <time>2012-04-01T09:37:37Z</time>
      </trkpt>
      <trkpt lat="46.93823" lon="-0.63886">
        <ele>153.8</ele>
        <time>2012-04-01T09:37:38Z</time>
      </trkpt>
      <trkpt lat="46.93824" lon="-0.63878">
        <ele>153.6</ele>
        <time>2012-04-01T09:37:39Z</time>
      </trkpt>
      <trkpt lat="46.93826" lon="-0.6387">
        <ele>153.6</ele>
        <time>2012-04-01T09:37:40Z</time>
      </trkpt>
      <trkpt lat="46.93827" lon="-0.63862">
        <ele>153.3</ele>
        <time>2012-04-01T09:37:41Z</time>
      </trkpt>
      <trkpt lat="46.93829" lon="-0.63854">
        <ele>153.3</ele>
        <time>2012-04-01T09:37:42Z</time>
      </trkpt>
      <trkpt lat="46.9383" lon="-0.63846">
        <ele>153.1</ele>
        <time>2012-04-01T09:37:43Z</time>
      </trkpt>
      <trkpt lat="46.93832" lon="-0.63838">
        <ele>153.1</ele>
        <time>2012-04-01T09:37:44Z</time>
      </trkpt>
      <trkpt lat="46.93833" lon="-0.6383">
        <ele>153</ele>
        <time>2012-04-01T09:37:45Z</time>
      </trkpt>
      <trkpt lat="46.93834" lon="-0.63822">
        <ele>153</ele>
        <time>2012-04-01T09:37:46Z</time>
      </trkpt>
      <trkpt lat="46.93835" lon="-0.63814">
        <ele>153</ele>
        <time>2012-04-01T09:37:47Z</time>
      </trkpt>
      <trkpt lat="46.93837" lon="-0.63806">
        <ele>153</ele>
        <time>2012-04-01T09:37:48Z</time>
      </trkpt>
      <trkpt lat="46.93838" lon="-0.63798">
        <ele>153</ele>
        <time>2012-04-01T09:37:49Z</time>
      </trkpt>
      <trkpt lat="46.9384" lon="-0.6379">
        <ele>153</ele>
        <time>2012-04-01T09:37:50Z</time>
      </trkpt>
      <trkpt lat="46.93842" lon="-0.63782">
        <ele>153</ele>
        <time>2012-04-01T09:37:51Z</time>
      </trkpt>
      <trkpt lat="46.93843" lon="-0.63774">
        <ele>153</ele>
        <time>2012-04-01T09:37:52Z</time>
      </trkpt>
      <trkpt lat="46.93845" lon="-0.63765">
        <ele>153</ele>
        <time>2012-04-01T09:37:53Z</time>
      </trkpt>
      <trkpt lat="46.93846" lon="-0.63757">
        <ele>152.8</ele>
        <time>2012-04-01T09:37:54Z</time>
      </trkpt>
      <trkpt lat="46.93848" lon="-0.63749">
        <ele>152.8</ele>
        <time>2012-04-01T09:37:55Z</time>
      </trkpt>
      <trkpt lat="46.93849" lon="-0.6374">
        <ele>152.8</ele>
        <time>2012-04-01T09:37:56Z</time>
      </trkpt>
      <trkpt lat="46.9385" lon="-0.63731">
        <ele>152.8</ele>
        <time>2012-04-01T09:37:57Z</time>
      </trkpt>
      <trkpt lat="46.93852" lon="-0.63723">
        <ele>152.6</ele>
        <time>2012-04-01T09:37:58Z</time>
      </trkpt>
      <trkpt lat="46.93853" lon="-0.63714">
        <ele>152.6</ele>
        <time>2012-04-01T09:37:59Z</time>
      </trkpt>
      <trkpt lat="46.93854" lon="-0.63706">
        <ele>152.6</ele>
        <time>2012-04-01T09:38:00Z</time>
      </trkpt>
      <trkpt lat="46.93856" lon="-0.63697">
        <ele>152.6</ele>
        <time>2012-04-01T09:38:01Z</time>
      </trkpt>
      <trkpt lat="46.93857" lon="-0.63688">
        <ele>152.6</ele>
        <time>2012-04-01T09:38:02Z</time>
      </trkpt>
      <trkpt lat="46.93858" lon="-0.63679">
        <ele>152.5</ele>
        <time>2012-04-01T09:38:03Z</time>
      </trkpt>
      <trkpt lat="46.93859" lon="-0.63671">
        <ele>152.3</ele>
        <time>2012-04-01T09:38:04Z</time>
      </trkpt>
      <trkpt lat="46.9386" lon="-0.63662">
        <ele>152.3</ele>
        <time>2012-04-01T09:38:05Z</time>
      </trkpt>
      <trkpt lat="46.93861" lon="-0.63654">
        <ele>152.3</ele>
        <time>2012-04-01T09:38:06Z</time>
      </trkpt>
      <trkpt lat="46.93862" lon="-0.63645">
        <ele>152.3</ele>
        <time>2012-04-01T09:38:07Z</time>
      </trkpt>
      <trkpt lat="46.93863" lon="-0.63637">
        <ele>152.3</ele>
        <time>2012-04-01T09:38:08Z</time>
      </trkpt>
      <trkpt lat="46.93864" lon="-0.63628">
        <ele>152.1</ele>
        <time>2012-04-01T09:38:09Z</time>
      </trkpt>
      <trkpt lat="46.93865" lon="-0.6362">
        <ele>152.1</ele>
        <time>2012-04-01T09:38:10Z</time>
      </trkpt>
      <trkpt lat="46.93866" lon="-0.63613">
        <ele>152.1</ele>
        <time>2012-04-01T09:38:11Z</time>
      </trkpt>
      <trkpt lat="46.93867" lon="-0.63604">
        <ele>152.1</ele>
        <time>2012-04-01T09:38:12Z</time>
      </trkpt>
      <trkpt lat="46.93868" lon="-0.63596">
        <ele>152.1</ele>
        <time>2012-04-01T09:38:13Z</time>
      </trkpt>
      <trkpt lat="46.93869" lon="-0.63588">
        <ele>152</ele>
        <time>2012-04-01T09:38:14Z</time>
      </trkpt>
      <trkpt lat="46.93871" lon="-0.6358">
        <ele>151.8</ele>
        <time>2012-04-01T09:38:15Z</time>
      </trkpt>
      <trkpt lat="46.93873" lon="-0.63573">
        <ele>151.8</ele>
        <time>2012-04-01T09:38:16Z</time>
      </trkpt>
      <trkpt lat="46.93875" lon="-0.63565">
        <ele>151.8</ele>
        <time>2012-04-01T09:38:17Z</time>
      </trkpt>
      <trkpt lat="46.93877" lon="-0.63558">
        <ele>151.6</ele>
        <time>2012-04-01T09:38:18Z</time>
      </trkpt>
      <trkpt lat="46.93879" lon="-0.63551">
        <ele>151.6</ele>
        <time>2012-04-01T09:38:19Z</time>
      </trkpt>
      <trkpt lat="46.93882" lon="-0.63544">
        <ele>151.6</ele>
        <time>2012-04-01T09:38:20Z</time>
      </trkpt>
      <trkpt lat="46.93884" lon="-0.63537">
        <ele>151.5</ele>
        <time>2012-04-01T09:38:21Z</time>
      </trkpt>
      <trkpt lat="46.93886" lon="-0.6353">
        <ele>151.3</ele>
        <time>2012-04-01T09:38:22Z</time>
      </trkpt>
      <trkpt lat="46.93887" lon="-0.63522">
        <ele>151.3</ele>
        <time>2012-04-01T09:38:23Z</time>
      </trkpt>
      <trkpt lat="46.93888" lon="-0.63514">
        <ele>151.1</ele>
        <time>2012-04-01T09:38:24Z</time>
      </trkpt>
      <trkpt lat="46.93887" lon="-0.63506">
        <ele>151</ele>
        <time>2012-04-01T09:38:25Z</time>
      </trkpt>
      <trkpt lat="46.93886" lon="-0.63499">
        <ele>150.8</ele>
        <time>2012-04-01T09:38:26Z</time>
      </trkpt>
      <trkpt lat="46.93885" lon="-0.63491">
        <ele>150.8</ele>
        <time>2012-04-01T09:38:27Z</time>
      </trkpt>
      <trkpt lat="46.93884" lon="-0.63483">
        <ele>150.6</ele>
        <time>2012-04-01T09:38:28Z</time>
      </trkpt>
      <trkpt lat="46.93882" lon="-0.63476">
        <ele>150.6</ele>
        <time>2012-04-01T09:38:29Z</time>
      </trkpt>
      <trkpt lat="46.93881" lon="-0.63469">
        <ele>150.5</ele>
        <time>2012-04-01T09:38:30Z</time>
      </trkpt>
      <trkpt lat="46.93879" lon="-0.63461">
        <ele>150.3</ele>
        <time>2012-04-01T09:38:31Z</time>
      </trkpt>
      <trkpt lat="46.93878" lon="-0.63454">
        <ele>150.3</ele>
        <time>2012-04-01T09:38:32Z</time>
      </trkpt>
      <trkpt lat="46.93877" lon="-0.63447">
        <ele>150.3</ele>
        <time>2012-04-01T09:38:33Z</time>
      </trkpt>
      <trkpt lat="46.93877" lon="-0.63439">
        <ele>150.3</ele>
        <time>2012-04-01T09:38:34Z</time>
      </trkpt>
      <trkpt lat="46.93877" lon="-0.63431">
        <ele>150.3</ele>
        <time>2012-04-01T09:38:35Z</time>
      </trkpt>
      <trkpt lat="46.93877" lon="-0.63423">
        <ele>150.1</ele>
        <time>2012-04-01T09:38:36Z</time>
      </trkpt>
      <trkpt lat="46.93876" lon="-0.63415">
        <ele>150.1</ele>
        <time>2012-04-01T09:38:37Z</time>
      </trkpt>
      <trkpt lat="46.93876" lon="-0.63407">
        <ele>150.1</ele>
        <time>2012-04-01T09:38:38Z</time>
      </trkpt>
      <trkpt lat="46.93876" lon="-0.63399">
        <ele>150.1</ele>
        <time>2012-04-01T09:38:39Z</time>
      </trkpt>
      <trkpt lat="46.93876" lon="-0.6339">
        <ele>150</ele>
        <time>2012-04-01T09:38:40Z</time>
      </trkpt>
      <trkpt lat="46.93876" lon="-0.63382">
        <ele>149.8</ele>
        <time>2012-04-01T09:38:41Z</time>
      </trkpt>
      <trkpt lat="46.93877" lon="-0.63374">
        <ele>149.8</ele>
        <time>2012-04-01T09:38:42Z</time>
      </trkpt>
      <trkpt lat="46.93877" lon="-0.63366">
        <ele>149.8</ele>
        <time>2012-04-01T09:38:43Z</time>
      </trkpt>
      <trkpt lat="46.93878" lon="-0.63358">
        <ele>149.8</ele>
        <time>2012-04-01T09:38:44Z</time>
      </trkpt>
      <trkpt lat="46.93879" lon="-0.63351">
        <ele>149.6</ele>
        <time>2012-04-01T09:38:45Z</time>
      </trkpt>
      <trkpt lat="46.9388" lon="-0.63343">
        <ele>149.6</ele>
        <time>2012-04-01T09:38:46Z</time>
      </trkpt>
      <trkpt lat="46.93881" lon="-0.63336">
        <ele>149.5</ele>
        <time>2012-04-01T09:38:47Z</time>
      </trkpt>
      <trkpt lat="46.93882" lon="-0.63329">
        <ele>149.3</ele>
        <time>2012-04-01T09:38:48Z</time>
      </trkpt>
      <trkpt lat="46.93883" lon="-0.63321">
        <ele>149.3</ele>
        <time>2012-04-01T09:38:49Z</time>
      </trkpt>
      <trkpt lat="46.93884" lon="-0.63314">
        <ele>149.1</ele>
        <time>2012-04-01T09:38:50Z</time>
      </trkpt>
      <trkpt lat="46.93885" lon="-0.63306">
        <ele>149.1</ele>
        <time>2012-04-01T09:38:51Z</time>
      </trkpt>
      <trkpt lat="46.93886" lon="-0.63299">
        <ele>149.1</ele>
        <time>2012-04-01T09:38:52Z</time>
      </trkpt>
      <trkpt lat="46.93887" lon="-0.63291">
        <ele>149</ele>
        <time>2012-04-01T09:38:53Z</time>
      </trkpt>
      <trkpt lat="46.93888" lon="-0.63283">
        <ele>148.8</ele>
        <time>2012-04-01T09:38:54Z</time>
      </trkpt>
      <trkpt lat="46.93889" lon="-0.63276">
        <ele>148.8</ele>
        <time>2012-04-01T09:38:55Z</time>
      </trkpt>
      <trkpt lat="46.9389" lon="-0.63269">
        <ele>148.8</ele>
        <time>2012-04-01T09:38:56Z</time>
      </trkpt>
      <trkpt lat="46.93891" lon="-0.63262">
        <ele>148.6</ele>
        <time>2012-04-01T09:38:57Z</time>
      </trkpt>
      <trkpt lat="46.93892" lon="-0.63255">
        <ele>148.6</ele>
        <time>2012-04-01T09:38:58Z</time>
      </trkpt>
      <trkpt lat="46.93893" lon="-0.63249">
        <ele>148.6</ele>
        <time>2012-04-01T09:38:59Z</time>
      </trkpt>
      <trkpt lat="46.93895" lon="-0.63236">
        <ele>148.3</ele>
        <time>2012-04-01T09:39:01Z</time>
      </trkpt>
      <trkpt lat="46.93896" lon="-0.6323">
        <ele>148.3</ele>
        <time>2012-04-01T09:39:02Z</time>
      </trkpt>
      <trkpt lat="46.93897" lon="-0.63223">
        <ele>148.3</ele>
        <time>2012-04-01T09:39:03Z</time>
      </trkpt>
      <trkpt lat="46.93898" lon="-0.63217">
        <ele>148.3</ele>
        <time>2012-04-01T09:39:04Z</time>
      </trkpt>
      <trkpt lat="46.93899" lon="-0.63209">
        <ele>148.1</ele>
        <time>2012-04-01T09:39:05Z</time>
      </trkpt>
      <trkpt lat="46.93899" lon="-0.63202">
        <ele>148.1</ele>
        <time>2012-04-01T09:39:06Z</time>
      </trkpt>
      <trkpt lat="46.939" lon="-0.63195">
        <ele>148.1</ele>
        <time>2012-04-01T09:39:07Z</time>
      </trkpt>
      <trkpt lat="46.939" lon="-0.63188">
        <ele>148.1</ele>
        <time>2012-04-01T09:39:08Z</time>
      </trkpt>
      <trkpt lat="46.93901" lon="-0.63181">
        <ele>148.1</ele>
        <time>2012-04-01T09:39:09Z</time>
      </trkpt>
      <trkpt lat="46.93901" lon="-0.63174">
        <ele>148.1</ele>
        <time>2012-04-01T09:39:10Z</time>
      </trkpt>
      <trkpt lat="46.93902" lon="-0.63167">
        <ele>148.1</ele>
        <time>2012-04-01T09:39:11Z</time>
      </trkpt>
      <trkpt lat="46.93903" lon="-0.6316">
        <ele>148</ele>
        <time>2012-04-01T09:39:12Z</time>
      </trkpt>
      <trkpt lat="46.93904" lon="-0.63153">
        <ele>148</ele>
        <time>2012-04-01T09:39:13Z</time>
      </trkpt>
      <trkpt lat="46.93905" lon="-0.63145">
        <ele>147.8</ele>
        <time>2012-04-01T09:39:14Z</time>
      </trkpt>
      <trkpt lat="46.93907" lon="-0.63138">
        <ele>147.8</ele>
        <time>2012-04-01T09:39:15Z</time>
      </trkpt>
      <trkpt lat="46.93908" lon="-0.63131">
        <ele>147.8</ele>
        <time>2012-04-01T09:39:16Z</time>
      </trkpt>
      <trkpt lat="46.93909" lon="-0.63124">
        <ele>147.6</ele>
        <time>2012-04-01T09:39:17Z</time>
      </trkpt>
      <trkpt lat="46.93911" lon="-0.63116">
        <ele>147.6</ele>
        <time>2012-04-01T09:39:18Z</time>
      </trkpt>
      <trkpt lat="46.93912" lon="-0.63109">
        <ele>147.6</ele>
        <time>2012-04-01T09:39:19Z</time>
      </trkpt>
      <trkpt lat="46.93914" lon="-0.63101">
        <ele>147.6</ele>
        <time>2012-04-01T09:39:20Z</time>
      </trkpt>
      <trkpt lat="46.93915" lon="-0.63094">
        <ele>147.6</ele>
        <time>2012-04-01T09:39:21Z</time>
      </trkpt>
      <trkpt lat="46.93917" lon="-0.63087">
        <ele>147.6</ele>
        <time>2012-04-01T09:39:22Z</time>
      </trkpt>
      <trkpt lat="46.93918" lon="-0.6308">
        <ele>147.6</ele>
        <time>2012-04-01T09:39:23Z</time>
      </trkpt>
      <trkpt lat="46.9392" lon="-0.63073">
        <ele>147.6</ele>
        <time>2012-04-01T09:39:24Z</time>
      </trkpt>
      <trkpt lat="46.93922" lon="-0.63066">
        <ele>147.6</ele>
        <time>2012-04-01T09:39:25Z</time>
      </trkpt>
      <trkpt lat="46.93923" lon="-0.63058">
        <ele>147.6</ele>
        <time>2012-04-01T09:39:26Z</time>
      </trkpt>
      <trkpt lat="46.93925" lon="-0.63051">
        <ele>147.5</ele>
        <time>2012-04-01T09:39:27Z</time>
      </trkpt>
      <trkpt lat="46.93926" lon="-0.63044">
        <ele>147.3</ele>
        <time>2012-04-01T09:39:28Z</time>
      </trkpt>
      <trkpt lat="46.93928" lon="-0.63037">
        <ele>147.3</ele>
        <time>2012-04-01T09:39:29Z</time>
      </trkpt>
      <trkpt lat="46.9393" lon="-0.6303">
        <ele>147.3</ele>
        <time>2012-04-01T09:39:30Z</time>
      </trkpt>
      <trkpt lat="46.93931" lon="-0.63023">
        <ele>147.3</ele>
        <time>2012-04-01T09:39:31Z</time>
      </trkpt>
      <trkpt lat="46.93933" lon="-0.63016">
        <ele>147.1</ele>
        <time>2012-04-01T09:39:32Z</time>
      </trkpt>
      <trkpt lat="46.93935" lon="-0.63009">
        <ele>147.1</ele>
        <time>2012-04-01T09:39:33Z</time>
      </trkpt>
      <trkpt lat="46.93937" lon="-0.63002">
        <ele>147.1</ele>
        <time>2012-04-01T09:39:34Z</time>
      </trkpt>
      <trkpt lat="46.93938" lon="-0.62995">
        <ele>147.1</ele>
        <time>2012-04-01T09:39:35Z</time>
      </trkpt>
      <trkpt lat="46.9394" lon="-0.62988">
        <ele>147</ele>
        <time>2012-04-01T09:39:36Z</time>
      </trkpt>
      <trkpt lat="46.93942" lon="-0.62981">
        <ele>147</ele>
        <time>2012-04-01T09:39:37Z</time>
      </trkpt>
      <trkpt lat="46.93944" lon="-0.62974">
        <ele>146.8</ele>
        <time>2012-04-01T09:39:38Z</time>
      </trkpt>
      <trkpt lat="46.93945" lon="-0.62967">
        <ele>146.8</ele>
        <time>2012-04-01T09:39:39Z</time>
      </trkpt>
      <trkpt lat="46.93947" lon="-0.6296">
        <ele>146.8</ele>
        <time>2012-04-01T09:39:40Z</time>
      </trkpt>
      <trkpt lat="46.93949" lon="-0.62954">
        <ele>146.8</ele>
        <time>2012-04-01T09:39:41Z</time>
      </trkpt>
      <trkpt lat="46.93951" lon="-0.62947">
        <ele>146.8</ele>
        <time>2012-04-01T09:39:42Z</time>
      </trkpt>
      <trkpt lat="46.93953" lon="-0.6294">
        <ele>146.6</ele>
        <time>2012-04-01T09:39:43Z</time>
      </trkpt>
      <trkpt lat="46.93955" lon="-0.62933">
        <ele>146.6</ele>
        <time>2012-04-01T09:39:44Z</time>
      </trkpt>
      <trkpt lat="46.93957" lon="-0.62927">
        <ele>146.6</ele>
        <time>2012-04-01T09:39:45Z</time>
      </trkpt>
      <trkpt lat="46.9396" lon="-0.62915">
        <ele>146.5</ele>
        <time>2012-04-01T09:39:47Z</time>
      </trkpt>
      <trkpt lat="46.93961" lon="-0.62908">
        <ele>146.3</ele>
        <time>2012-04-01T09:39:48Z</time>
      </trkpt>
      <trkpt lat="46.93963" lon="-0.62902">
        <ele>146.3</ele>
        <time>2012-04-01T09:39:49Z</time>
      </trkpt>
      <trkpt lat="46.93965" lon="-0.62896">
        <ele>146.3</ele>
        <time>2012-04-01T09:39:50Z</time>
      </trkpt>
      <trkpt lat="46.93966" lon="-0.62889">
        <ele>146.1</ele>
        <time>2012-04-01T09:39:51Z</time>
      </trkpt>
      <trkpt lat="46.93968" lon="-0.62883">
        <ele>146.1</ele>
        <time>2012-04-01T09:39:52Z</time>
      </trkpt>
      <trkpt lat="46.9397" lon="-0.62877">
        <ele>146.1</ele>
        <time>2012-04-01T09:39:53Z</time>
      </trkpt>
      <trkpt lat="46.93972" lon="-0.6287">
        <ele>146</ele>
        <time>2012-04-01T09:39:54Z</time>
      </trkpt>
      <trkpt lat="46.93973" lon="-0.62864">
        <ele>146</ele>
        <time>2012-04-01T09:39:55Z</time>
      </trkpt>
      <trkpt lat="46.93975" lon="-0.62858">
        <ele>145.8</ele>
        <time>2012-04-01T09:39:56Z</time>
      </trkpt>
      <trkpt lat="46.93977" lon="-0.62851">
        <ele>145.8</ele>
        <time>2012-04-01T09:39:57Z</time>
      </trkpt>
      <trkpt lat="46.93978" lon="-0.62845">
        <ele>145.8</ele>
        <time>2012-04-01T09:39:58Z</time>
      </trkpt>
      <trkpt lat="46.9398" lon="-0.62838">
        <ele>145.6</ele>
        <time>2012-04-01T09:39:59Z</time>
      </trkpt>
      <trkpt lat="46.93982" lon="-0.62832">
        <ele>145.6</ele>
        <time>2012-04-01T09:40:00Z</time>
      </trkpt>
      <trkpt lat="46.93983" lon="-0.62825">
        <ele>145.6</ele>
        <time>2012-04-01T09:40:01Z</time>
      </trkpt>
      <trkpt lat="46.93985" lon="-0.62819">
        <ele>145.5</ele>
        <time>2012-04-01T09:40:02Z</time>
      </trkpt>
      <trkpt lat="46.93987" lon="-0.62812">
        <ele>145.5</ele>
        <time>2012-04-01T09:40:03Z</time>
      </trkpt>
      <trkpt lat="46.93988" lon="-0.62805">
        <ele>145.3</ele>
        <time>2012-04-01T09:40:04Z</time>
      </trkpt>
      <trkpt lat="46.9399" lon="-0.62799">
        <ele>145.3</ele>
        <time>2012-04-01T09:40:05Z</time>
      </trkpt>
      <trkpt lat="46.93992" lon="-0.62792">
        <ele>145.3</ele>
        <time>2012-04-01T09:40:06Z</time>
      </trkpt>
      <trkpt lat="46.93993" lon="-0.62786">
        <ele>145.3</ele>
        <time>2012-04-01T09:40:07Z</time>
      </trkpt>
      <trkpt lat="46.93995" lon="-0.62779">
        <ele>145.3</ele>
        <time>2012-04-01T09:40:08Z</time>
      </trkpt>
      <trkpt lat="46.93997" lon="-0.62772">
        <ele>145.3</ele>
        <time>2012-04-01T09:40:09Z</time>
      </trkpt>
      <trkpt lat="46.93999" lon="-0.62766">
        <ele>145.1</ele>
        <time>2012-04-01T09:40:10Z</time>
      </trkpt>
      <trkpt lat="46.94" lon="-0.62759">
        <ele>145.1</ele>
        <time>2012-04-01T09:40:11Z</time>
      </trkpt>
      <trkpt lat="46.94002" lon="-0.62752">
        <ele>145.1</ele>
        <time>2012-04-01T09:40:12Z</time>
      </trkpt>
      <trkpt lat="46.94004" lon="-0.62745">
        <ele>145.1</ele>
        <time>2012-04-01T09:40:13Z</time>
      </trkpt>
      <trkpt lat="46.94006" lon="-0.62738">
        <ele>145.1</ele>
        <time>2012-04-01T09:40:14Z</time>
      </trkpt>
      <trkpt lat="46.94008" lon="-0.62731">
        <ele>145</ele>
        <time>2012-04-01T09:40:15Z</time>
      </trkpt>
      <trkpt lat="46.9401" lon="-0.62724">
        <ele>145</ele>
        <time>2012-04-01T09:40:16Z</time>
      </trkpt>
      <trkpt lat="46.94011" lon="-0.62717">
        <ele>145</ele>
        <time>2012-04-01T09:40:17Z</time>
      </trkpt>
      <trkpt lat="46.94013" lon="-0.6271">
        <ele>144.8</ele>
        <time>2012-04-01T09:40:18Z</time>
      </trkpt>
      <trkpt lat="46.94015" lon="-0.62704">
        <ele>144.8</ele>
        <time>2012-04-01T09:40:19Z</time>
      </trkpt>
      <trkpt lat="46.94016" lon="-0.62697">
        <ele>144.8</ele>
        <time>2012-04-01T09:40:20Z</time>
      </trkpt>
      <trkpt lat="46.94018" lon="-0.6269">
        <ele>144.8</ele>
        <time>2012-04-01T09:40:21Z</time>
      </trkpt>
      <trkpt lat="46.94019" lon="-0.62683">
        <ele>144.8</ele>
        <time>2012-04-01T09:40:22Z</time>
      </trkpt>
      <trkpt lat="46.94021" lon="-0.62676">
        <ele>144.6</ele>
        <time>2012-04-01T09:40:23Z</time>
      </trkpt>
      <trkpt lat="46.94022" lon="-0.62669">
        <ele>144.6</ele>
        <time>2012-04-01T09:40:24Z</time>
      </trkpt>
      <trkpt lat="46.94023" lon="-0.62662">
        <ele>144.6</ele>
        <time>2012-04-01T09:40:25Z</time>
      </trkpt>
      <trkpt lat="46.94024" lon="-0.62655">
        <ele>144.6</ele>
        <time>2012-04-01T09:40:26Z</time>
      </trkpt>
      <trkpt lat="46.94025" lon="-0.62648">
        <ele>144.6</ele>
        <time>2012-04-01T09:40:27Z</time>
      </trkpt>
      <trkpt lat="46.94026" lon="-0.62641">
        <ele>144.6</ele>
        <time>2012-04-01T09:40:28Z</time>
      </trkpt>
      <trkpt lat="46.94027" lon="-0.62634">
        <ele>144.6</ele>
        <time>2012-04-01T09:40:29Z</time>
      </trkpt>
      <trkpt lat="46.94027" lon="-0.62628">
        <ele>144.6</ele>
        <time>2012-04-01T09:40:30Z</time>
      </trkpt>
      <trkpt lat="46.94029" lon="-0.62615">
        <ele>144.8</ele>
        <time>2012-04-01T09:40:32Z</time>
      </trkpt>
      <trkpt lat="46.94032" lon="-0.62603">
        <ele>144.8</ele>
        <time>2012-04-01T09:40:34Z</time>
      </trkpt>
      <trkpt lat="46.94034" lon="-0.62598">
        <ele>144.8</ele>
        <time>2012-04-01T09:40:35Z</time>
      </trkpt>
      <trkpt lat="46.94036" lon="-0.62592">
        <ele>144.8</ele>
        <time>2012-04-01T09:40:36Z</time>
      </trkpt>
      <trkpt lat="46.94039" lon="-0.62586">
        <ele>144.8</ele>
        <time>2012-04-01T09:40:37Z</time>
      </trkpt>
      <trkpt lat="46.94044" lon="-0.62576">
        <ele>144.6</ele>
        <time>2012-04-01T09:40:39Z</time>
      </trkpt>
      <trkpt lat="46.94046" lon="-0.6257">
        <ele>144.6</ele>
        <time>2012-04-01T09:40:40Z</time>
      </trkpt>
      <trkpt lat="46.94053" lon="-0.62554">
        <ele>144.6</ele>
        <time>2012-04-01T09:40:43Z</time>
      </trkpt>
      <trkpt lat="46.94057" lon="-0.62542">
        <ele>144.6</ele>
        <time>2012-04-01T09:40:45Z</time>
      </trkpt>
      <trkpt lat="46.94061" lon="-0.6253">
        <ele>144.6</ele>
        <time>2012-04-01T09:40:47Z</time>
      </trkpt>
      <trkpt lat="46.94066" lon="-0.6252">
        <ele>144.6</ele>
        <time>2012-04-01T09:40:49Z</time>
      </trkpt>
      <trkpt lat="46.94072" lon="-0.6251">
        <ele>144.6</ele>
        <time>2012-04-01T09:40:51Z</time>
      </trkpt>
      <trkpt lat="46.94077" lon="-0.625">
        <ele>144.5</ele>
        <time>2012-04-01T09:40:53Z</time>
      </trkpt>
      <trkpt lat="46.94082" lon="-0.6249">
        <ele>144.3</ele>
        <time>2012-04-01T09:40:55Z</time>
      </trkpt>
      <trkpt lat="46.94086" lon="-0.6248">
        <ele>144.1</ele>
        <time>2012-04-01T09:40:57Z</time>
      </trkpt>
      <trkpt lat="46.94091" lon="-0.62471">
        <ele>144</ele>
        <time>2012-04-01T09:40:59Z</time>
      </trkpt>
      <trkpt lat="46.94095" lon="-0.62461">
        <ele>143.8</ele>
        <time>2012-04-01T09:41:01Z</time>
      </trkpt>
      <trkpt lat="46.941" lon="-0.62452">
        <ele>143.8</ele>
        <time>2012-04-01T09:41:03Z</time>
      </trkpt>
      <trkpt lat="46.94105" lon="-0.62442">
        <ele>143.8</ele>
        <time>2012-04-01T09:41:05Z</time>
      </trkpt>
      <trkpt lat="46.9411" lon="-0.62433">
        <ele>143.6</ele>
        <time>2012-04-01T09:41:07Z</time>
      </trkpt>
      <trkpt lat="46.94115" lon="-0.62423">
        <ele>143.6</ele>
        <time>2012-04-01T09:41:09Z</time>
      </trkpt>
      <trkpt lat="46.9412" lon="-0.62413">
        <ele>143.5</ele>
        <time>2012-04-01T09:41:11Z</time>
      </trkpt>
      <trkpt lat="46.94125" lon="-0.62404">
        <ele>143.3</ele>
        <time>2012-04-01T09:41:13Z</time>
      </trkpt>
      <trkpt lat="46.94129" lon="-0.62394">
        <ele>143.3</ele>
        <time>2012-04-01T09:41:15Z</time>
      </trkpt>
      <trkpt lat="46.94133" lon="-0.62384">
        <ele>143.3</ele>
        <time>2012-04-01T09:41:17Z</time>
      </trkpt>
      <trkpt lat="46.94137" lon="-0.62374">
        <ele>143.1</ele>
        <time>2012-04-01T09:41:19Z</time>
      </trkpt>
      <trkpt lat="46.94141" lon="-0.62364">
        <ele>143.1</ele>
        <time>2012-04-01T09:41:21Z</time>
      </trkpt>
      <trkpt lat="46.94145" lon="-0.62354">
        <ele>143.1</ele>
        <time>2012-04-01T09:41:23Z</time>
      </trkpt>
      <trkpt lat="46.94149" lon="-0.62343">
        <ele>143.1</ele>
        <time>2012-04-01T09:41:25Z</time>
      </trkpt>
      <trkpt lat="46.94154" lon="-0.62332">
        <ele>143.3</ele>
        <time>2012-04-01T09:41:27Z</time>
      </trkpt>
      <trkpt lat="46.94158" lon="-0.62321">
        <ele>143.3</ele>
        <time>2012-04-01T09:41:29Z</time>
      </trkpt>
      <trkpt lat="46.9416" lon="-0.62315">
        <ele>143.3</ele>
        <time>2012-04-01T09:41:30Z</time>
      </trkpt>
      <trkpt lat="46.94163" lon="-0.6231">
        <ele>143.3</ele>
        <time>2012-04-01T09:41:31Z</time>
      </trkpt>
      <trkpt lat="46.94165" lon="-0.62304">
        <ele>143.3</ele>
        <time>2012-04-01T09:41:32Z</time>
      </trkpt>
      <trkpt lat="46.94167" lon="-0.62298">
        <ele>143.3</ele>
        <time>2012-04-01T09:41:33Z</time>
      </trkpt>
      <trkpt lat="46.94169" lon="-0.62292">
        <ele>143.3</ele>
        <time>2012-04-01T09:41:34Z</time>
      </trkpt>
      <trkpt lat="46.94171" lon="-0.62285">
        <ele>143.3</ele>
        <time>2012-04-01T09:41:35Z</time>
      </trkpt>
      <trkpt lat="46.94174" lon="-0.62279">
        <ele>143.3</ele>
        <time>2012-04-01T09:41:36Z</time>
      </trkpt>
      <trkpt lat="46.94177" lon="-0.62273">
        <ele>143.3</ele>
        <time>2012-04-01T09:41:37Z</time>
      </trkpt>
      <trkpt lat="46.94179" lon="-0.62268">
        <ele>143.3</ele>
        <time>2012-04-01T09:41:38Z</time>
      </trkpt>
      <trkpt lat="46.94183" lon="-0.62262">
        <ele>143.3</ele>
        <time>2012-04-01T09:41:39Z</time>
      </trkpt>
      <trkpt lat="46.94186" lon="-0.62257">
        <ele>143.3</ele>
        <time>2012-04-01T09:41:40Z</time>
      </trkpt>
      <trkpt lat="46.94189" lon="-0.62252">
        <ele>143.3</ele>
        <time>2012-04-01T09:41:41Z</time>
      </trkpt>
      <trkpt lat="46.94193" lon="-0.62247">
        <ele>143.3</ele>
        <time>2012-04-01T09:41:42Z</time>
      </trkpt>
      <trkpt lat="46.94197" lon="-0.62242">
        <ele>143.3</ele>
        <time>2012-04-01T09:41:43Z</time>
      </trkpt>
      <trkpt lat="46.942" lon="-0.62237">
        <ele>143.3</ele>
        <time>2012-04-01T09:41:44Z</time>
      </trkpt>
      <trkpt lat="46.94204" lon="-0.62232">
        <ele>143.3</ele>
        <time>2012-04-01T09:41:45Z</time>
      </trkpt>
      <trkpt lat="46.94208" lon="-0.62227">
        <ele>143.1</ele>
        <time>2012-04-01T09:41:46Z</time>
      </trkpt>
      <trkpt lat="46.94212" lon="-0.62221">
        <ele>143.1</ele>
        <time>2012-04-01T09:41:47Z</time>
      </trkpt>
      <trkpt lat="46.94215" lon="-0.62216">
        <ele>143</ele>
        <time>2012-04-01T09:41:48Z</time>
      </trkpt>
      <trkpt lat="46.94219" lon="-0.62211">
        <ele>142.8</ele>
        <time>2012-04-01T09:41:49Z</time>
      </trkpt>
      <trkpt lat="46.94223" lon="-0.62206">
        <ele>142.8</ele>
        <time>2012-04-01T09:41:50Z</time>
      </trkpt>
      <trkpt lat="46.94227" lon="-0.62201">
        <ele>142.6</ele>
        <time>2012-04-01T09:41:51Z</time>
      </trkpt>
      <trkpt lat="46.9423" lon="-0.62195">
        <ele>142.5</ele>
        <time>2012-04-01T09:41:52Z</time>
      </trkpt>
      <trkpt lat="46.94234" lon="-0.62189">
        <ele>142.3</ele>
        <time>2012-04-01T09:41:53Z</time>
      </trkpt>
      <trkpt lat="46.94237" lon="-0.62184">
        <ele>142.1</ele>
        <time>2012-04-01T09:41:54Z</time>
      </trkpt>
      <trkpt lat="46.94241" lon="-0.62178">
        <ele>142.1</ele>
        <time>2012-04-01T09:41:55Z</time>
      </trkpt>
      <trkpt lat="46.94245" lon="-0.62173">
        <ele>142</ele>
        <time>2012-04-01T09:41:56Z</time>
      </trkpt>
      <trkpt lat="46.94249" lon="-0.62168">
        <ele>141.8</ele>
        <time>2012-04-01T09:41:57Z</time>
      </trkpt>
      <trkpt lat="46.94253" lon="-0.62163">
        <ele>141.6</ele>
        <time>2012-04-01T09:41:58Z</time>
      </trkpt>
      <trkpt lat="46.94257" lon="-0.62158">
        <ele>141.6</ele>
        <time>2012-04-01T09:41:59Z</time>
      </trkpt>
      <trkpt lat="46.94261" lon="-0.62154">
        <ele>141.6</ele>
        <time>2012-04-01T09:42:00Z</time>
      </trkpt>
      <trkpt lat="46.94265" lon="-0.62149">
        <ele>141.5</ele>
        <time>2012-04-01T09:42:01Z</time>
      </trkpt>
      <trkpt lat="46.94268" lon="-0.62143">
        <ele>141.3</ele>
        <time>2012-04-01T09:42:02Z</time>
      </trkpt>
      <trkpt lat="46.94272" lon="-0.62137">
        <ele>141.3</ele>
        <time>2012-04-01T09:42:03Z</time>
      </trkpt>
      <trkpt lat="46.94275" lon="-0.62131">
        <ele>141.1</ele>
        <time>2012-04-01T09:42:04Z</time>
      </trkpt>
      <trkpt lat="46.94278" lon="-0.62125">
        <ele>141.1</ele>
        <time>2012-04-01T09:42:05Z</time>
      </trkpt>
      <trkpt lat="46.94281" lon="-0.62118">
        <ele>141</ele>
        <time>2012-04-01T09:42:06Z</time>
      </trkpt>
      <trkpt lat="46.94284" lon="-0.62112">
        <ele>141</ele>
        <time>2012-04-01T09:42:07Z</time>
      </trkpt>
      <trkpt lat="46.94287" lon="-0.62106">
        <ele>141</ele>
        <time>2012-04-01T09:42:08Z</time>
      </trkpt>
      <trkpt lat="46.9429" lon="-0.621">
        <ele>141</ele>
        <time>2012-04-01T09:42:09Z</time>
      </trkpt>
      <trkpt lat="46.94293" lon="-0.62094">
        <ele>141</ele>
        <time>2012-04-01T09:42:10Z</time>
      </trkpt>
      <trkpt lat="46.94296" lon="-0.62088">
        <ele>141</ele>
        <time>2012-04-01T09:42:11Z</time>
      </trkpt>
      <trkpt lat="46.94299" lon="-0.62083">
        <ele>141</ele>
        <time>2012-04-01T09:42:12Z</time>
      </trkpt>
      <trkpt lat="46.94303" lon="-0.62077">
        <ele>141</ele>
        <time>2012-04-01T09:42:13Z</time>
      </trkpt>
      <trkpt lat="46.94306" lon="-0.62072">
        <ele>141</ele>
        <time>2012-04-01T09:42:14Z</time>
      </trkpt>
      <trkpt lat="46.9431" lon="-0.62066">
        <ele>141</ele>
        <time>2012-04-01T09:42:15Z</time>
      </trkpt>
      <trkpt lat="46.94314" lon="-0.62061">
        <ele>140.8</ele>
        <time>2012-04-01T09:42:16Z</time>
      </trkpt>
      <trkpt lat="46.94318" lon="-0.62055">
        <ele>140.8</ele>
        <time>2012-04-01T09:42:17Z</time>
      </trkpt>
      <trkpt lat="46.94321" lon="-0.6205">
        <ele>140.6</ele>
        <time>2012-04-01T09:42:18Z</time>
      </trkpt>
      <trkpt lat="46.94325" lon="-0.62044">
        <ele>140.5</ele>
        <time>2012-04-01T09:42:19Z</time>
      </trkpt>
      <trkpt lat="46.94329" lon="-0.62038">
        <ele>140.3</ele>
        <time>2012-04-01T09:42:20Z</time>
      </trkpt>
      <trkpt lat="46.94332" lon="-0.62031">
        <ele>140.1</ele>
        <time>2012-04-01T09:42:21Z</time>
      </trkpt>
      <trkpt lat="46.94336" lon="-0.62024">
        <ele>140.1</ele>
        <time>2012-04-01T09:42:22Z</time>
      </trkpt>
      <trkpt lat="46.94339" lon="-0.62018">
        <ele>140</ele>
        <time>2012-04-01T09:42:23Z</time>
      </trkpt>
      <trkpt lat="46.94342" lon="-0.6201">
        <ele>139.8</ele>
        <time>2012-04-01T09:42:24Z</time>
      </trkpt>
      <trkpt lat="46.94345" lon="-0.62003">
        <ele>139.8</ele>
        <time>2012-04-01T09:42:25Z</time>
      </trkpt>
      <trkpt lat="46.94348" lon="-0.61996">
        <ele>139.8</ele>
        <time>2012-04-01T09:42:26Z</time>
      </trkpt>
      <trkpt lat="46.94351" lon="-0.61988">
        <ele>139.8</ele>
        <time>2012-04-01T09:42:27Z</time>
      </trkpt>
      <trkpt lat="46.94353" lon="-0.61981">
        <ele>139.6</ele>
        <time>2012-04-01T09:42:28Z</time>
      </trkpt>
      <trkpt lat="46.94356" lon="-0.61973">
        <ele>139.6</ele>
        <time>2012-04-01T09:42:29Z</time>
      </trkpt>
      <trkpt lat="46.94359" lon="-0.61966">
        <ele>139.6</ele>
        <time>2012-04-01T09:42:30Z</time>
      </trkpt>
      <trkpt lat="46.94362" lon="-0.61958">
        <ele>139.6</ele>
        <time>2012-04-01T09:42:31Z</time>
      </trkpt>
      <trkpt lat="46.94365" lon="-0.6195">
        <ele>139.5</ele>
        <time>2012-04-01T09:42:32Z</time>
      </trkpt>
      <trkpt lat="46.94368" lon="-0.61942">
        <ele>139.3</ele>
        <time>2012-04-01T09:42:33Z</time>
      </trkpt>
      <trkpt lat="46.9437" lon="-0.61934">
        <ele>139.3</ele>
        <time>2012-04-01T09:42:34Z</time>
      </trkpt>
      <trkpt lat="46.94373" lon="-0.61926">
        <ele>139.1</ele>
        <time>2012-04-01T09:42:35Z</time>
      </trkpt>
      <trkpt lat="46.94375" lon="-0.61918">
        <ele>139.1</ele>
        <time>2012-04-01T09:42:36Z</time>
      </trkpt>
      <trkpt lat="46.94377" lon="-0.6191">
        <ele>139</ele>
        <time>2012-04-01T09:42:37Z</time>
      </trkpt>
      <trkpt lat="46.94379" lon="-0.61903">
        <ele>138.8</ele>
        <time>2012-04-01T09:42:38Z</time>
      </trkpt>
      <trkpt lat="46.94381" lon="-0.61895">
        <ele>138.8</ele>
        <time>2012-04-01T09:42:39Z</time>
      </trkpt>
      <trkpt lat="46.94383" lon="-0.61887">
        <ele>138.6</ele>
        <time>2012-04-01T09:42:40Z</time>
      </trkpt>
      <trkpt lat="46.94385" lon="-0.61879">
        <ele>138.6</ele>
        <time>2012-04-01T09:42:41Z</time>
      </trkpt>
      <trkpt lat="46.94387" lon="-0.61872">
        <ele>138.6</ele>
        <time>2012-04-01T09:42:42Z</time>
      </trkpt>
      <trkpt lat="46.94389" lon="-0.61864">
        <ele>138.5</ele>
        <time>2012-04-01T09:42:43Z</time>
      </trkpt>
      <trkpt lat="46.9439" lon="-0.61857">
        <ele>138.3</ele>
        <time>2012-04-01T09:42:44Z</time>
      </trkpt>
      <trkpt lat="46.94392" lon="-0.61849">
        <ele>138.3</ele>
        <time>2012-04-01T09:42:45Z</time>
      </trkpt>
      <trkpt lat="46.94393" lon="-0.61842">
        <ele>138.1</ele>
        <time>2012-04-01T09:42:46Z</time>
      </trkpt>
      <trkpt lat="46.94395" lon="-0.61835">
        <ele>138.1</ele>
        <time>2012-04-01T09:42:47Z</time>
      </trkpt>
      <trkpt lat="46.94396" lon="-0.61828">
        <ele>138</ele>
        <time>2012-04-01T09:42:48Z</time>
      </trkpt>
      <trkpt lat="46.94397" lon="-0.61821">
        <ele>137.8</ele>
        <time>2012-04-01T09:42:49Z</time>
      </trkpt>
      <trkpt lat="46.94398" lon="-0.61813">
        <ele>137.8</ele>
        <time>2012-04-01T09:42:50Z</time>
      </trkpt>
      <trkpt lat="46.94399" lon="-0.61805">
        <ele>137.6</ele>
        <time>2012-04-01T09:42:51Z</time>
      </trkpt>
      <trkpt lat="46.94398" lon="-0.61798">
        <ele>137.5</ele>
        <time>2012-04-01T09:42:52Z</time>
      </trkpt>
      <trkpt lat="46.94397" lon="-0.61791">
        <ele>137.3</ele>
        <time>2012-04-01T09:42:53Z</time>
      </trkpt>
      <trkpt lat="46.94396" lon="-0.61784">
        <ele>137.1</ele>
        <time>2012-04-01T09:42:54Z</time>
      </trkpt>
      <trkpt lat="46.94395" lon="-0.61771">
        <ele>136.8</ele>
        <time>2012-04-01T09:42:56Z</time>
      </trkpt>
      <trkpt lat="46.94398" lon="-0.61762">
        <ele>136.6</ele>
        <time>2012-04-01T09:42:58Z</time>
      </trkpt>
      <trkpt lat="46.94405" lon="-0.61753">
        <ele>136.6</ele>
        <time>2012-04-01T09:43:01Z</time>
      </trkpt>
      <trkpt lat="46.94404" lon="-0.61741">
        <ele>136.6</ele>
        <time>2012-04-01T09:43:04Z</time>
      </trkpt>
      <trkpt lat="46.94405" lon="-0.6173">
        <ele>136.5</ele>
        <time>2012-04-01T09:43:08Z</time>
      </trkpt>
      <trkpt lat="46.94408" lon="-0.61718">
        <ele>136.3</ele>
        <time>2012-04-01T09:43:11Z</time>
      </trkpt>
      <trkpt lat="46.94409" lon="-0.61708">
        <ele>136.1</ele>
        <time>2012-04-01T09:43:13Z</time>
      </trkpt>
      <trkpt lat="46.94411" lon="-0.61698">
        <ele>136.1</ele>
        <time>2012-04-01T09:43:15Z</time>
      </trkpt>
      <trkpt lat="46.94412" lon="-0.61685">
        <ele>136</ele>
        <time>2012-04-01T09:43:18Z</time>
      </trkpt>
      <trkpt lat="46.94418" lon="-0.61677">
        <ele>135.6</ele>
        <time>2012-04-01T09:43:23Z</time>
      </trkpt>
      <trkpt lat="46.94421" lon="-0.61665">
        <ele>135.6</ele>
        <time>2012-04-01T09:43:26Z</time>
      </trkpt>
      <trkpt lat="46.94422" lon="-0.61652">
        <ele>135.3</ele>
        <time>2012-04-01T09:43:29Z</time>
      </trkpt>
      <trkpt lat="46.9442" lon="-0.61641">
        <ele>135.1</ele>
        <time>2012-04-01T09:43:32Z</time>
      </trkpt>
      <trkpt lat="46.94419" lon="-0.61632">
        <ele>135</ele>
        <time>2012-04-01T09:43:34Z</time>
      </trkpt>
      <trkpt lat="46.94418" lon="-0.61621">
        <ele>134.8</ele>
        <time>2012-04-01T09:43:36Z</time>
      </trkpt>
      <trkpt lat="46.94418" lon="-0.61611">
        <ele>134.8</ele>
        <time>2012-04-01T09:43:38Z</time>
      </trkpt>
      <trkpt lat="46.94417" lon="-0.61599">
        <ele>133.6</ele>
        <time>2012-04-01T09:43:40Z</time>
      </trkpt>
      <trkpt lat="46.94417" lon="-0.61587">
        <ele>132.8</ele>
        <time>2012-04-01T09:43:42Z</time>
      </trkpt>
      <trkpt lat="46.94417" lon="-0.61581">
        <ele>132.6</ele>
        <time>2012-04-01T09:43:43Z</time>
      </trkpt>
      <trkpt lat="46.94417" lon="-0.61563">
        <ele>132</ele>
        <time>2012-04-01T09:43:46Z</time>
      </trkpt>
      <trkpt lat="46.94416" lon="-0.61552">
        <ele>131.8</ele>
        <time>2012-04-01T09:43:48Z</time>
      </trkpt>
      <trkpt lat="46.94415" lon="-0.61541">
        <ele>131.5</ele>
        <time>2012-04-01T09:43:50Z</time>
      </trkpt>
      <trkpt lat="46.94415" lon="-0.6153">
        <ele>131.3</ele>
        <time>2012-04-01T09:43:52Z</time>
      </trkpt>
      <trkpt lat="46.94414" lon="-0.61519">
        <ele>131.3</ele>
        <time>2012-04-01T09:43:54Z</time>
      </trkpt>
      <trkpt lat="46.94412" lon="-0.61507">
        <ele>131</ele>
        <time>2012-04-01T09:43:56Z</time>
      </trkpt>
      <trkpt lat="46.94411" lon="-0.61497">
        <ele>130.6</ele>
        <time>2012-04-01T09:43:58Z</time>
      </trkpt>
      <trkpt lat="46.9441" lon="-0.61486">
        <ele>130.3</ele>
        <time>2012-04-01T09:44:00Z</time>
      </trkpt>
      <trkpt lat="46.94409" lon="-0.61474">
        <ele>130.6</ele>
        <time>2012-04-01T09:44:02Z</time>
      </trkpt>
      <trkpt lat="46.94408" lon="-0.61467">
        <ele>131.5</ele>
        <time>2012-04-01T09:44:03Z</time>
      </trkpt>
      <trkpt lat="46.94407" lon="-0.61459">
        <ele>132.5</ele>
        <time>2012-04-01T09:44:04Z</time>
      </trkpt>
      <trkpt lat="46.94407" lon="-0.61451">
        <ele>132.8</ele>
        <time>2012-04-01T09:44:05Z</time>
      </trkpt>
      <trkpt lat="46.94406" lon="-0.61442">
        <ele>133.1</ele>
        <time>2012-04-01T09:44:06Z</time>
      </trkpt>
      <trkpt lat="46.94404" lon="-0.61433">
        <ele>133</ele>
        <time>2012-04-01T09:44:07Z</time>
      </trkpt>
      <trkpt lat="46.94403" lon="-0.61424">
        <ele>133</ele>
        <time>2012-04-01T09:44:08Z</time>
      </trkpt>
      <trkpt lat="46.94401" lon="-0.61415">
        <ele>132.8</ele>
        <time>2012-04-01T09:44:09Z</time>
      </trkpt>
      <trkpt lat="46.94399" lon="-0.61405">
        <ele>132.8</ele>
        <time>2012-04-01T09:44:10Z</time>
      </trkpt>
      <trkpt lat="46.94397" lon="-0.61396">
        <ele>133</ele>
        <time>2012-04-01T09:44:11Z</time>
      </trkpt>
      <trkpt lat="46.94395" lon="-0.61387">
        <ele>133</ele>
        <time>2012-04-01T09:44:12Z</time>
      </trkpt>
      <trkpt lat="46.94393" lon="-0.61378">
        <ele>133</ele>
        <time>2012-04-01T09:44:13Z</time>
      </trkpt>
      <trkpt lat="46.94392" lon="-0.6137">
        <ele>132.8</ele>
        <time>2012-04-01T09:44:14Z</time>
      </trkpt>
      <trkpt lat="46.9439" lon="-0.61361">
        <ele>132.8</ele>
        <time>2012-04-01T09:44:15Z</time>
      </trkpt>
      <trkpt lat="46.94388" lon="-0.61352">
        <ele>132.6</ele>
        <time>2012-04-01T09:44:16Z</time>
      </trkpt>
      <trkpt lat="46.94386" lon="-0.61344">
        <ele>132.6</ele>
        <time>2012-04-01T09:44:17Z</time>
      </trkpt>
      <trkpt lat="46.94385" lon="-0.61336">
        <ele>132.3</ele>
        <time>2012-04-01T09:44:18Z</time>
      </trkpt>
      <trkpt lat="46.94383" lon="-0.61329">
        <ele>132.3</ele>
        <time>2012-04-01T09:44:19Z</time>
      </trkpt>
      <trkpt lat="46.94382" lon="-0.61322">
        <ele>132.1</ele>
        <time>2012-04-01T09:44:20Z</time>
      </trkpt>
      <trkpt lat="46.9438" lon="-0.61315">
        <ele>132</ele>
        <time>2012-04-01T09:44:21Z</time>
      </trkpt>
      <trkpt lat="46.94379" lon="-0.61308">
        <ele>131.8</ele>
        <time>2012-04-01T09:44:22Z</time>
      </trkpt>
      <trkpt lat="46.94377" lon="-0.61301">
        <ele>131.6</ele>
        <time>2012-04-01T09:44:23Z</time>
      </trkpt>
      <trkpt lat="46.94375" lon="-0.61294">
        <ele>131.5</ele>
        <time>2012-04-01T09:44:24Z</time>
      </trkpt>
      <trkpt lat="46.94373" lon="-0.61281">
        <ele>131.1</ele>
        <time>2012-04-01T09:44:26Z</time>
      </trkpt>
      <trkpt lat="46.94371" lon="-0.61275">
        <ele>130.8</ele>
        <time>2012-04-01T09:44:27Z</time>
      </trkpt>
      <trkpt lat="46.94369" lon="-0.61263">
        <ele>130.5</ele>
        <time>2012-04-01T09:44:29Z</time>
      </trkpt>
      <trkpt lat="46.94367" lon="-0.61254">
        <ele>130.3</ele>
        <time>2012-04-01T09:44:31Z</time>
      </trkpt>
      <trkpt lat="46.94365" lon="-0.61245">
        <ele>130.3</ele>
        <time>2012-04-01T09:44:40Z</time>
      </trkpt>
      <trkpt lat="46.94361" lon="-0.61236">
        <ele>130.3</ele>
        <time>2012-04-01T09:44:41Z</time>
      </trkpt>
      <trkpt lat="46.94358" lon="-0.61224">
        <ele>130.1</ele>
        <time>2012-04-01T09:44:45Z</time>
      </trkpt>
      <trkpt lat="46.94357" lon="-0.6122">
        <ele>130.1</ele>
        <time>2012-04-01T09:44:46Z</time>
      </trkpt>
      <trkpt lat="46.94354" lon="-0.61206">
        <ele>130.1</ele>
        <time>2012-04-01T09:44:49Z</time>
      </trkpt>
      <trkpt lat="46.94351" lon="-0.61194">
        <ele>130.1</ele>
        <time>2012-04-01T09:44:52Z</time>
      </trkpt>
      <trkpt lat="46.94349" lon="-0.61183">
        <ele>130.1</ele>
        <time>2012-04-01T09:44:54Z</time>
      </trkpt>
      <trkpt lat="46.94346" lon="-0.61171">
        <ele>130.1</ele>
        <time>2012-04-01T09:44:56Z</time>
      </trkpt>
      <trkpt lat="46.94345" lon="-0.61165">
        <ele>130.1</ele>
        <time>2012-04-01T09:44:57Z</time>
      </trkpt>
      <trkpt lat="46.94343" lon="-0.61158">
        <ele>130.3</ele>
        <time>2012-04-01T09:44:58Z</time>
      </trkpt>
      <trkpt lat="46.94342" lon="-0.61151">
        <ele>130.3</ele>
        <time>2012-04-01T09:44:59Z</time>
      </trkpt>
      <trkpt lat="46.9434" lon="-0.61144">
        <ele>130.6</ele>
        <time>2012-04-01T09:45:00Z</time>
      </trkpt>
      <trkpt lat="46.94339" lon="-0.61137">
        <ele>130.6</ele>
        <time>2012-04-01T09:45:01Z</time>
      </trkpt>
      <trkpt lat="46.94338" lon="-0.6113">
        <ele>130.6</ele>
        <time>2012-04-01T09:45:02Z</time>
      </trkpt>
      <trkpt lat="46.94337" lon="-0.61123">
        <ele>130.6</ele>
        <time>2012-04-01T09:45:03Z</time>
      </trkpt>
      <trkpt lat="46.94336" lon="-0.61116">
        <ele>130.6</ele>
        <time>2012-04-01T09:45:04Z</time>
      </trkpt>
      <trkpt lat="46.94335" lon="-0.61108">
        <ele>130.5</ele>
        <time>2012-04-01T09:45:05Z</time>
      </trkpt>
      <trkpt lat="46.94335" lon="-0.61101">
        <ele>130.3</ele>
        <time>2012-04-01T09:45:06Z</time>
      </trkpt>
      <trkpt lat="46.94334" lon="-0.61095">
        <ele>130.1</ele>
        <time>2012-04-01T09:45:07Z</time>
      </trkpt>
      <trkpt lat="46.94334" lon="-0.61087">
        <ele>129.8</ele>
        <time>2012-04-01T09:45:08Z</time>
      </trkpt>
      <trkpt lat="46.94333" lon="-0.6108">
        <ele>129.3</ele>
        <time>2012-04-01T09:45:09Z</time>
      </trkpt>
      <trkpt lat="46.94333" lon="-0.61072">
        <ele>128.8</ele>
        <time>2012-04-01T09:45:10Z</time>
      </trkpt>
      <trkpt lat="46.94332" lon="-0.61064">
        <ele>128.8</ele>
        <time>2012-04-01T09:45:11Z</time>
      </trkpt>
      <trkpt lat="46.94332" lon="-0.61055">
        <ele>128.8</ele>
        <time>2012-04-01T09:45:12Z</time>
      </trkpt>
      <trkpt lat="46.94332" lon="-0.61047">
        <ele>129</ele>
        <time>2012-04-01T09:45:13Z</time>
      </trkpt>
      <trkpt lat="46.94332" lon="-0.61039">
        <ele>129.3</ele>
        <time>2012-04-01T09:45:14Z</time>
      </trkpt>
      <trkpt lat="46.94332" lon="-0.61031">
        <ele>129.5</ele>
        <time>2012-04-01T09:45:15Z</time>
      </trkpt>
      <trkpt lat="46.94332" lon="-0.61023">
        <ele>129.5</ele>
        <time>2012-04-01T09:45:16Z</time>
      </trkpt>
      <trkpt lat="46.94332" lon="-0.61015">
        <ele>129.3</ele>
        <time>2012-04-01T09:45:17Z</time>
      </trkpt>
      <trkpt lat="46.94332" lon="-0.61007">
        <ele>129.3</ele>
        <time>2012-04-01T09:45:18Z</time>
      </trkpt>
      <trkpt lat="46.94332" lon="-0.60999">
        <ele>129.1</ele>
        <time>2012-04-01T09:45:19Z</time>
      </trkpt>
      <trkpt lat="46.94332" lon="-0.60991">
        <ele>129</ele>
        <time>2012-04-01T09:45:20Z</time>
      </trkpt>
      <trkpt lat="46.94332" lon="-0.60983">
        <ele>129.1</ele>
        <time>2012-04-01T09:45:21Z</time>
      </trkpt>
      <trkpt lat="46.94333" lon="-0.60976">
        <ele>129.1</ele>
        <time>2012-04-01T09:45:22Z</time>
      </trkpt>
      <trkpt lat="46.94333" lon="-0.60965">
        <ele>129.1</ele>
        <time>2012-04-01T09:45:24Z</time>
      </trkpt>
      <trkpt lat="46.94335" lon="-0.60958">
        <ele>129.1</ele>
        <time>2012-04-01T09:45:29Z</time>
      </trkpt>
      <trkpt lat="46.9434" lon="-0.60948">
        <ele>129</ele>
        <time>2012-04-01T09:45:32Z</time>
      </trkpt>
      <trkpt lat="46.94342" lon="-0.60938">
        <ele>129</ele>
        <time>2012-04-01T09:45:36Z</time>
      </trkpt>
      <trkpt lat="46.94344" lon="-0.60927">
        <ele>128.8</ele>
        <time>2012-04-01T09:45:39Z</time>
      </trkpt>
      <trkpt lat="46.94345" lon="-0.60917">
        <ele>128.8</ele>
        <time>2012-04-01T09:45:41Z</time>
      </trkpt>
      <trkpt lat="46.94346" lon="-0.60905">
        <ele>127.9</ele>
        <time>2012-04-01T09:45:43Z</time>
      </trkpt>
      <trkpt lat="46.94347" lon="-0.60892">
        <ele>127.5</ele>
        <time>2012-04-01T09:45:45Z</time>
      </trkpt>
      <trkpt lat="46.94347" lon="-0.60886">
        <ele>127.5</ele>
        <time>2012-04-01T09:45:46Z</time>
      </trkpt>
      <trkpt lat="46.94347" lon="-0.60879">
        <ele>127.5</ele>
        <time>2012-04-01T09:45:47Z</time>
      </trkpt>
      <trkpt lat="46.94347" lon="-0.60872">
        <ele>127.8</ele>
        <time>2012-04-01T09:45:48Z</time>
      </trkpt>
      <trkpt lat="46.94347" lon="-0.60865">
        <ele>128</ele>
        <time>2012-04-01T09:45:49Z</time>
      </trkpt>
      <trkpt lat="46.94347" lon="-0.60858">
        <ele>128.1</ele>
        <time>2012-04-01T09:45:50Z</time>
      </trkpt>
      <trkpt lat="46.94348" lon="-0.60851">
        <ele>128.3</ele>
        <time>2012-04-01T09:45:51Z</time>
      </trkpt>
      <trkpt lat="46.94348" lon="-0.60844">
        <ele>128.3</ele>
        <time>2012-04-01T09:45:52Z</time>
      </trkpt>
      <trkpt lat="46.94348" lon="-0.60837">
        <ele>128.5</ele>
        <time>2012-04-01T09:45:53Z</time>
      </trkpt>
      <trkpt lat="46.94349" lon="-0.60829">
        <ele>128.5</ele>
        <time>2012-04-01T09:45:54Z</time>
      </trkpt>
      <trkpt lat="46.94349" lon="-0.60821">
        <ele>128.5</ele>
        <time>2012-04-01T09:45:55Z</time>
      </trkpt>
      <trkpt lat="46.94349" lon="-0.60814">
        <ele>128.3</ele>
        <time>2012-04-01T09:45:56Z</time>
      </trkpt>
      <trkpt lat="46.94349" lon="-0.60807">
        <ele>128.3</ele>
        <time>2012-04-01T09:45:57Z</time>
      </trkpt>
      <trkpt lat="46.9435" lon="-0.608">
        <ele>128.3</ele>
        <time>2012-04-01T09:45:58Z</time>
      </trkpt>
      <trkpt lat="46.9435" lon="-0.60793">
        <ele>128</ele>
        <time>2012-04-01T09:45:59Z</time>
      </trkpt>
      <trkpt lat="46.94351" lon="-0.60786">
        <ele>127.8</ele>
        <time>2012-04-01T09:46:00Z</time>
      </trkpt>
      <trkpt lat="46.94351" lon="-0.60779">
        <ele>127.5</ele>
        <time>2012-04-01T09:46:01Z</time>
      </trkpt>
      <trkpt lat="46.94352" lon="-0.60772">
        <ele>127.3</ele>
        <time>2012-04-01T09:46:02Z</time>
      </trkpt>
      <trkpt lat="46.94352" lon="-0.60765">
        <ele>127</ele>
        <time>2012-04-01T09:46:03Z</time>
      </trkpt>
      <trkpt lat="46.94353" lon="-0.60758">
        <ele>126.9</ele>
        <time>2012-04-01T09:46:04Z</time>
      </trkpt>
      <trkpt lat="46.94353" lon="-0.60745">
        <ele>126.5</ele>
        <time>2012-04-01T09:46:06Z</time>
      </trkpt>
      <trkpt lat="46.94354" lon="-0.60733">
        <ele>126</ele>
        <time>2012-04-01T09:46:08Z</time>
      </trkpt>
      <trkpt lat="46.94355" lon="-0.6072">
        <ele>125.5</ele>
        <time>2012-04-01T09:46:10Z</time>
      </trkpt>
      <trkpt lat="46.94355" lon="-0.60707">
        <ele>125.4</ele>
        <time>2012-04-01T09:46:12Z</time>
      </trkpt>
      <trkpt lat="46.94355" lon="-0.60696">
        <ele>125</ele>
        <time>2012-04-01T09:46:14Z</time>
      </trkpt>
      <trkpt lat="46.94354" lon="-0.60686">
        <ele>125</ele>
        <time>2012-04-01T09:46:18Z</time>
      </trkpt>
      <trkpt lat="46.94352" lon="-0.60674">
        <ele>125.5</ele>
        <time>2012-04-01T09:46:23Z</time>
      </trkpt>
      <trkpt lat="46.94353" lon="-0.60662">
        <ele>125.4</ele>
        <time>2012-04-01T09:46:26Z</time>
      </trkpt>
      <trkpt lat="46.94353" lon="-0.60652">
        <ele>125.3</ele>
        <time>2012-04-01T09:46:28Z</time>
      </trkpt>
      <trkpt lat="46.94354" lon="-0.60641">
        <ele>125</ele>
        <time>2012-04-01T09:46:30Z</time>
      </trkpt>
      <trkpt lat="46.94354" lon="-0.6063">
        <ele>125</ele>
        <time>2012-04-01T09:46:32Z</time>
      </trkpt>
      <trkpt lat="46.94354" lon="-0.60619">
        <ele>125</ele>
        <time>2012-04-01T09:46:34Z</time>
      </trkpt>
      <trkpt lat="46.94354" lon="-0.60607">
        <ele>125</ele>
        <time>2012-04-01T09:46:36Z</time>
      </trkpt>
      <trkpt lat="46.94354" lon="-0.60594">
        <ele>125</ele>
        <time>2012-04-01T09:46:38Z</time>
      </trkpt>
      <trkpt lat="46.94353" lon="-0.60581">
        <ele>125</ele>
        <time>2012-04-01T09:46:40Z</time>
      </trkpt>
      <trkpt lat="46.94351" lon="-0.60568">
        <ele>125.5</ele>
        <time>2012-04-01T09:46:42Z</time>
      </trkpt>
      <trkpt lat="46.94351" lon="-0.60558">
        <ele>125.5</ele>
        <time>2012-04-01T09:46:44Z</time>
      </trkpt>
      <trkpt lat="46.94351" lon="-0.60551">
        <ele>125.5</ele>
        <time>2012-04-01T09:46:52Z</time>
      </trkpt>
      <trkpt lat="46.94351" lon="-0.60543">
        <ele>125.5</ele>
        <time>2012-04-01T09:46:53Z</time>
      </trkpt>
      <trkpt lat="46.94352" lon="-0.60528">
        <ele>126</ele>
        <time>2012-04-01T09:46:58Z</time>
      </trkpt>
      <trkpt lat="46.94353" lon="-0.60517">
        <ele>126</ele>
        <time>2012-04-01T09:47:01Z</time>
      </trkpt>
      <trkpt lat="46.94353" lon="-0.60506">
        <ele>126.3</ele>
        <time>2012-04-01T09:47:03Z</time>
      </trkpt>
      <trkpt lat="46.94352" lon="-0.60494">
        <ele>126</ele>
        <time>2012-04-01T09:47:05Z</time>
      </trkpt>
      <trkpt lat="46.94351" lon="-0.60482">
        <ele>125.4</ele>
        <time>2012-04-01T09:47:07Z</time>
      </trkpt>
      <trkpt lat="46.94349" lon="-0.6047">
        <ele>125.3</ele>
        <time>2012-04-01T09:47:09Z</time>
      </trkpt>
      <trkpt lat="46.94349" lon="-0.60463">
        <ele>125</ele>
        <time>2012-04-01T09:47:10Z</time>
      </trkpt>
      <trkpt lat="46.94348" lon="-0.60456">
        <ele>124</ele>
        <time>2012-04-01T09:47:11Z</time>
      </trkpt>
      <trkpt lat="46.94347" lon="-0.60448">
        <ele>123</ele>
        <time>2012-04-01T09:47:12Z</time>
      </trkpt>
      <trkpt lat="46.94346" lon="-0.6044">
        <ele>122</ele>
        <time>2012-04-01T09:47:13Z</time>
      </trkpt>
      <trkpt lat="46.94346" lon="-0.60431">
        <ele>121.3</ele>
        <time>2012-04-01T09:47:14Z</time>
      </trkpt>
      <trkpt lat="46.94344" lon="-0.60422">
        <ele>120.3</ele>
        <time>2012-04-01T09:47:15Z</time>
      </trkpt>
      <trkpt lat="46.94343" lon="-0.60414">
        <ele>119.4</ele>
        <time>2012-04-01T09:47:16Z</time>
      </trkpt>
      <trkpt lat="46.94342" lon="-0.60406">
        <ele>118.5</ele>
        <time>2012-04-01T09:47:17Z</time>
      </trkpt>
      <trkpt lat="46.9434" lon="-0.60398">
        <ele>118.3</ele>
        <time>2012-04-01T09:47:18Z</time>
      </trkpt>
      <trkpt lat="46.94337" lon="-0.6039">
        <ele>118</ele>
        <time>2012-04-01T09:47:19Z</time>
      </trkpt>
      <trkpt lat="46.94335" lon="-0.60382">
        <ele>118.3</ele>
        <time>2012-04-01T09:47:20Z</time>
      </trkpt>
      <trkpt lat="46.94333" lon="-0.60374">
        <ele>118.5</ele>
        <time>2012-04-01T09:47:21Z</time>
      </trkpt>
      <trkpt lat="46.9433" lon="-0.60367">
        <ele>118.5</ele>
        <time>2012-04-01T09:47:22Z</time>
      </trkpt>
      <trkpt lat="46.94328" lon="-0.6036">
        <ele>119</ele>
        <time>2012-04-01T09:47:23Z</time>
      </trkpt>
      <trkpt lat="46.94326" lon="-0.60352">
        <ele>119</ele>
        <time>2012-04-01T09:47:24Z</time>
      </trkpt>
      <trkpt lat="46.94325" lon="-0.60344">
        <ele>119.4</ele>
        <time>2012-04-01T09:47:25Z</time>
      </trkpt>
      <trkpt lat="46.94324" lon="-0.60337">
        <ele>119.5</ele>
        <time>2012-04-01T09:47:26Z</time>
      </trkpt>
      <trkpt lat="46.94321" lon="-0.6033">
        <ele>119.5</ele>
        <time>2012-04-01T09:47:27Z</time>
      </trkpt>
      <trkpt lat="46.94318" lon="-0.60322">
        <ele>120</ele>
        <time>2012-04-01T09:47:28Z</time>
      </trkpt>
      <trkpt lat="46.94315" lon="-0.60315">
        <ele>120.4</ele>
        <time>2012-04-01T09:47:29Z</time>
      </trkpt>
      <trkpt lat="46.94313" lon="-0.60307">
        <ele>120.9</ele>
        <time>2012-04-01T09:47:30Z</time>
      </trkpt>
      <trkpt lat="46.94311" lon="-0.603">
        <ele>121.5</ele>
        <time>2012-04-01T09:47:31Z</time>
      </trkpt>
      <trkpt lat="46.94309" lon="-0.60292">
        <ele>122</ele>
        <time>2012-04-01T09:47:32Z</time>
      </trkpt>
      <trkpt lat="46.94308" lon="-0.60285">
        <ele>122.5</ele>
        <time>2012-04-01T09:47:33Z</time>
      </trkpt>
      <trkpt lat="46.94306" lon="-0.60278">
        <ele>123.3</ele>
        <time>2012-04-01T09:47:34Z</time>
      </trkpt>
      <trkpt lat="46.94305" lon="-0.60271">
        <ele>123.8</ele>
        <time>2012-04-01T09:47:35Z</time>
      </trkpt>
      <trkpt lat="46.94304" lon="-0.60264">
        <ele>124</ele>
        <time>2012-04-01T09:47:36Z</time>
      </trkpt>
      <trkpt lat="46.94303" lon="-0.60257">
        <ele>124.4</ele>
        <time>2012-04-01T09:47:37Z</time>
      </trkpt>
      <trkpt lat="46.94302" lon="-0.6025">
        <ele>124.5</ele>
        <time>2012-04-01T09:47:38Z</time>
      </trkpt>
      <trkpt lat="46.943" lon="-0.60238">
        <ele>124</ele>
        <time>2012-04-01T09:47:40Z</time>
      </trkpt>
      <trkpt lat="46.943" lon="-0.60231">
        <ele>123.8</ele>
        <time>2012-04-01T09:47:41Z</time>
      </trkpt>
      <trkpt lat="46.94299" lon="-0.60224">
        <ele>123.4</ele>
        <time>2012-04-01T09:47:42Z</time>
      </trkpt>
      <trkpt lat="46.94299" lon="-0.60217">
        <ele>123</ele>
        <time>2012-04-01T09:47:43Z</time>
      </trkpt>
      <trkpt lat="46.94298" lon="-0.6021">
        <ele>122.5</ele>
        <time>2012-04-01T09:47:44Z</time>
      </trkpt>
      <trkpt lat="46.94297" lon="-0.60203">
        <ele>122.5</ele>
        <time>2012-04-01T09:47:45Z</time>
      </trkpt>
      <trkpt lat="46.94295" lon="-0.60192">
        <ele>122.4</ele>
        <time>2012-04-01T09:47:47Z</time>
      </trkpt>
      <trkpt lat="46.94294" lon="-0.60179">
        <ele>122.4</ele>
        <time>2012-04-01T09:47:50Z</time>
      </trkpt>
      <trkpt lat="46.94292" lon="-0.60166">
        <ele>122</ele>
        <time>2012-04-01T09:47:53Z</time>
      </trkpt>
      <trkpt lat="46.94291" lon="-0.60161">
        <ele>122</ele>
        <time>2012-04-01T09:47:54Z</time>
      </trkpt>
      <trkpt lat="46.94286" lon="-0.60145">
        <ele>121.3</ele>
        <time>2012-04-01T09:47:57Z</time>
      </trkpt>
      <trkpt lat="46.94283" lon="-0.60134">
        <ele>120.3</ele>
        <time>2012-04-01T09:47:59Z</time>
      </trkpt>
      <trkpt lat="46.94281" lon="-0.60125">
        <ele>120.3</ele>
        <time>2012-04-01T09:48:01Z</time>
      </trkpt>
      <trkpt lat="46.94278" lon="-0.60115">
        <ele>120.3</ele>
        <time>2012-04-01T09:48:03Z</time>
      </trkpt>
      <trkpt lat="46.94276" lon="-0.60105">
        <ele>120.3</ele>
        <time>2012-04-01T09:48:05Z</time>
      </trkpt>
      <trkpt lat="46.94274" lon="-0.60093">
        <ele>120.4</ele>
        <time>2012-04-01T09:48:07Z</time>
      </trkpt>
      <trkpt lat="46.94274" lon="-0.6008">
        <ele>120.5</ele>
        <time>2012-04-01T09:48:09Z</time>
      </trkpt>
      <trkpt lat="46.94273" lon="-0.60073">
        <ele>120.5</ele>
        <time>2012-04-01T09:48:10Z</time>
      </trkpt>
      <trkpt lat="46.94271" lon="-0.60066">
        <ele>120.9</ele>
        <time>2012-04-01T09:48:11Z</time>
      </trkpt>
      <trkpt lat="46.9427" lon="-0.60059">
        <ele>121</ele>
        <time>2012-04-01T09:48:12Z</time>
      </trkpt>
      <trkpt lat="46.94268" lon="-0.60052">
        <ele>121.3</ele>
        <time>2012-04-01T09:48:13Z</time>
      </trkpt>
      <trkpt lat="46.94267" lon="-0.60045">
        <ele>121.8</ele>
        <time>2012-04-01T09:48:14Z</time>
      </trkpt>
      <trkpt lat="46.94265" lon="-0.60038">
        <ele>122.4</ele>
        <time>2012-04-01T09:48:15Z</time>
      </trkpt>
      <trkpt lat="46.94264" lon="-0.60031">
        <ele>122.9</ele>
        <time>2012-04-01T09:48:16Z</time>
      </trkpt>
      <trkpt lat="46.94262" lon="-0.60024">
        <ele>123.4</ele>
        <time>2012-04-01T09:48:17Z</time>
      </trkpt>
      <trkpt lat="46.94261" lon="-0.60018">
        <ele>123.9</ele>
        <time>2012-04-01T09:48:18Z</time>
      </trkpt>
      <trkpt lat="46.94258" lon="-0.60005">
        <ele>124</ele>
        <time>2012-04-01T09:48:20Z</time>
      </trkpt>
      <trkpt lat="46.94256" lon="-0.59994">
        <ele>124</ele>
        <time>2012-04-01T09:48:22Z</time>
      </trkpt>
      <trkpt lat="46.94254" lon="-0.59983">
        <ele>123.9</ele>
        <time>2012-04-01T09:48:24Z</time>
      </trkpt>
      <trkpt lat="46.94252" lon="-0.59971">
        <ele>123.8</ele>
        <time>2012-04-01T09:48:26Z</time>
      </trkpt>
      <trkpt lat="46.9425" lon="-0.5996">
        <ele>123.5</ele>
        <time>2012-04-01T09:48:28Z</time>
      </trkpt>
      <trkpt lat="46.94247" lon="-0.59949">
        <ele>123.4</ele>
        <time>2012-04-01T09:48:31Z</time>
      </trkpt>
      <trkpt lat="46.94247" lon="-0.59941">
        <ele>123.4</ele>
        <time>2012-04-01T09:48:33Z</time>
      </trkpt>
      <trkpt lat="46.94246" lon="-0.59929">
        <ele>123.4</ele>
        <time>2012-04-01T09:48:35Z</time>
      </trkpt>
      <trkpt lat="46.94246" lon="-0.59918">
        <ele>123.4</ele>
        <time>2012-04-01T09:48:37Z</time>
      </trkpt>
      <trkpt lat="46.94245" lon="-0.59907">
        <ele>123.3</ele>
        <time>2012-04-01T09:48:39Z</time>
      </trkpt>
      <trkpt lat="46.94245" lon="-0.59897">
        <ele>123.3</ele>
        <time>2012-04-01T09:48:41Z</time>
      </trkpt>
      <trkpt lat="46.94242" lon="-0.59887">
        <ele>123.3</ele>
        <time>2012-04-01T09:48:43Z</time>
      </trkpt>
      <trkpt lat="46.94241" lon="-0.59877">
        <ele>123.4</ele>
        <time>2012-04-01T09:48:45Z</time>
      </trkpt>
      <trkpt lat="46.94237" lon="-0.59868">
        <ele>123.5</ele>
        <time>2012-04-01T09:48:47Z</time>
      </trkpt>
      <trkpt lat="46.94234" lon="-0.59859">
        <ele>123.5</ele>
        <time>2012-04-01T09:48:49Z</time>
      </trkpt>
      <trkpt lat="46.9423" lon="-0.59848">
        <ele>123.5</ele>
        <time>2012-04-01T09:48:51Z</time>
      </trkpt>
      <trkpt lat="46.9423" lon="-0.59837">
        <ele>123.4</ele>
        <time>2012-04-01T09:48:53Z</time>
      </trkpt>
      <trkpt lat="46.9423" lon="-0.59824">
        <ele>123.4</ele>
        <time>2012-04-01T09:48:55Z</time>
      </trkpt>
      <trkpt lat="46.9423" lon="-0.59819">
        <ele>123.4</ele>
        <time>2012-04-01T09:48:56Z</time>
      </trkpt>
      <trkpt lat="46.94225" lon="-0.59803">
        <ele>123.4</ele>
        <time>2012-04-01T09:48:59Z</time>
      </trkpt>
      <trkpt lat="46.94221" lon="-0.59793">
        <ele>123.4</ele>
        <time>2012-04-01T09:49:01Z</time>
      </trkpt>
      <trkpt lat="46.9422" lon="-0.59781">
        <ele>123.4</ele>
        <time>2012-04-01T09:49:03Z</time>
      </trkpt>
      <trkpt lat="46.94219" lon="-0.59769">
        <ele>123.4</ele>
        <time>2012-04-01T09:49:05Z</time>
      </trkpt>
      <trkpt lat="46.94218" lon="-0.59758">
        <ele>123.3</ele>
        <time>2012-04-01T09:49:07Z</time>
      </trkpt>
      <trkpt lat="46.94218" lon="-0.59748">
        <ele>123.3</ele>
        <time>2012-04-01T09:49:09Z</time>
      </trkpt>
      <trkpt lat="46.94216" lon="-0.59736">
        <ele>123</ele>
        <time>2012-04-01T09:49:12Z</time>
      </trkpt>
      <trkpt lat="46.94213" lon="-0.59725">
        <ele>123</ele>
        <time>2012-04-01T09:49:15Z</time>
      </trkpt>
      <trkpt lat="46.9421" lon="-0.59716">
        <ele>123</ele>
        <time>2012-04-01T09:49:17Z</time>
      </trkpt>
      <trkpt lat="46.94209" lon="-0.59707">
        <ele>123</ele>
        <time>2012-04-01T09:49:19Z</time>
      </trkpt>
      <trkpt lat="46.94208" lon="-0.59697">
        <ele>123</ele>
        <time>2012-04-01T09:49:21Z</time>
      </trkpt>
      <trkpt lat="46.94208" lon="-0.59687">
        <ele>123</ele>
        <time>2012-04-01T09:49:23Z</time>
      </trkpt>
      <trkpt lat="46.94208" lon="-0.59676">
        <ele>122.9</ele>
        <time>2012-04-01T09:49:25Z</time>
      </trkpt>
      <trkpt lat="46.94207" lon="-0.5967">
        <ele>122.5</ele>
        <time>2012-04-01T09:49:26Z</time>
      </trkpt>
      <trkpt lat="46.94205" lon="-0.59663">
        <ele>122.4</ele>
        <time>2012-04-01T09:49:27Z</time>
      </trkpt>
      <trkpt lat="46.94203" lon="-0.59655">
        <ele>122</ele>
        <time>2012-04-01T09:49:28Z</time>
      </trkpt>
      <trkpt lat="46.94201" lon="-0.59648">
        <ele>122</ele>
        <time>2012-04-01T09:49:29Z</time>
      </trkpt>
      <trkpt lat="46.94198" lon="-0.5964">
        <ele>122</ele>
        <time>2012-04-01T09:49:30Z</time>
      </trkpt>
      <trkpt lat="46.94196" lon="-0.59633">
        <ele>121.9</ele>
        <time>2012-04-01T09:49:31Z</time>
      </trkpt>
      <trkpt lat="46.94193" lon="-0.59627">
        <ele>121.8</ele>
        <time>2012-04-01T09:49:32Z</time>
      </trkpt>
      <trkpt lat="46.9419" lon="-0.59615">
        <ele>121.8</ele>
        <time>2012-04-01T09:49:34Z</time>
      </trkpt>
      <trkpt lat="46.94187" lon="-0.59603">
        <ele>121.8</ele>
        <time>2012-04-01T09:49:36Z</time>
      </trkpt>
      <trkpt lat="46.94184" lon="-0.59592">
        <ele>121.5</ele>
        <time>2012-04-01T09:49:38Z</time>
      </trkpt>
      <trkpt lat="46.94181" lon="-0.59581">
        <ele>121.5</ele>
        <time>2012-04-01T09:49:40Z</time>
      </trkpt>
      <trkpt lat="46.94178" lon="-0.59569">
        <ele>121.5</ele>
        <time>2012-04-01T09:49:42Z</time>
      </trkpt>
      <trkpt lat="46.94175" lon="-0.59557">
        <ele>121.5</ele>
        <time>2012-04-01T09:49:44Z</time>
      </trkpt>
      <trkpt lat="46.94172" lon="-0.59546">
        <ele>121.5</ele>
        <time>2012-04-01T09:49:46Z</time>
      </trkpt>
      <trkpt lat="46.9417" lon="-0.59534">
        <ele>121.4</ele>
        <time>2012-04-01T09:49:48Z</time>
      </trkpt>
      <trkpt lat="46.94167" lon="-0.59522">
        <ele>121.3</ele>
        <time>2012-04-01T09:49:50Z</time>
      </trkpt>
      <trkpt lat="46.94165" lon="-0.59509">
        <ele>121.3</ele>
        <time>2012-04-01T09:49:52Z</time>
      </trkpt>
      <trkpt lat="46.94162" lon="-0.59497">
        <ele>121.3</ele>
        <time>2012-04-01T09:49:54Z</time>
      </trkpt>
      <trkpt lat="46.9416" lon="-0.59485">
        <ele>121.3</ele>
        <time>2012-04-01T09:49:56Z</time>
      </trkpt>
      <trkpt lat="46.94159" lon="-0.59479">
        <ele>121</ele>
        <time>2012-04-01T09:49:57Z</time>
      </trkpt>
      <trkpt lat="46.94155" lon="-0.59462">
        <ele>121</ele>
        <time>2012-04-01T09:50:00Z</time>
      </trkpt>
      <trkpt lat="46.94153" lon="-0.59451">
        <ele>121</ele>
        <time>2012-04-01T09:50:02Z</time>
      </trkpt>
      <trkpt lat="46.9415" lon="-0.59441">
        <ele>120.9</ele>
        <time>2012-04-01T09:50:04Z</time>
      </trkpt>
      <trkpt lat="46.94148" lon="-0.59431">
        <ele>120.9</ele>
        <time>2012-04-01T09:50:06Z</time>
      </trkpt>
      <trkpt lat="46.94146" lon="-0.5942">
        <ele>120.8</ele>
        <time>2012-04-01T09:50:08Z</time>
      </trkpt>
      <trkpt lat="46.94144" lon="-0.5941">
        <ele>120.5</ele>
        <time>2012-04-01T09:50:10Z</time>
      </trkpt>
      <trkpt lat="46.94141" lon="-0.59399">
        <ele>120.5</ele>
        <time>2012-04-01T09:50:12Z</time>
      </trkpt>
      <trkpt lat="46.94139" lon="-0.59388">
        <ele>120.5</ele>
        <time>2012-04-01T09:50:14Z</time>
      </trkpt>
      <trkpt lat="46.94138" lon="-0.59378">
        <ele>120.5</ele>
        <time>2012-04-01T09:50:16Z</time>
      </trkpt>
      <trkpt lat="46.94137" lon="-0.59369">
        <ele>120.5</ele>
        <time>2012-04-01T09:50:18Z</time>
      </trkpt>
      <trkpt lat="46.94135" lon="-0.59359">
        <ele>120.5</ele>
        <time>2012-04-01T09:50:20Z</time>
      </trkpt>
      <trkpt lat="46.94134" lon="-0.59349">
        <ele>120.5</ele>
        <time>2012-04-01T09:50:22Z</time>
      </trkpt>
      <trkpt lat="46.94132" lon="-0.59339">
        <ele>120.4</ele>
        <time>2012-04-01T09:50:24Z</time>
      </trkpt>
      <trkpt lat="46.94131" lon="-0.5933">
        <ele>120.4</ele>
        <time>2012-04-01T09:50:26Z</time>
      </trkpt>
      <trkpt lat="46.9413" lon="-0.5932">
        <ele>120.3</ele>
        <time>2012-04-01T09:50:28Z</time>
      </trkpt>
      <trkpt lat="46.94128" lon="-0.5931">
        <ele>120.3</ele>
        <time>2012-04-01T09:50:30Z</time>
      </trkpt>
      <trkpt lat="46.94127" lon="-0.593">
        <ele>120</ele>
        <time>2012-04-01T09:50:32Z</time>
      </trkpt>
      <trkpt lat="46.94126" lon="-0.59291">
        <ele>120</ele>
        <time>2012-04-01T09:50:34Z</time>
      </trkpt>
      <trkpt lat="46.94124" lon="-0.59282">
        <ele>120</ele>
        <time>2012-04-01T09:50:36Z</time>
      </trkpt>
      <trkpt lat="46.94122" lon="-0.59273">
        <ele>120</ele>
        <time>2012-04-01T09:50:38Z</time>
      </trkpt>
      <trkpt lat="46.94121" lon="-0.59263">
        <ele>120</ele>
        <time>2012-04-01T09:50:40Z</time>
      </trkpt>
      <trkpt lat="46.94118" lon="-0.59254">
        <ele>119.9</ele>
        <time>2012-04-01T09:50:42Z</time>
      </trkpt>
      <trkpt lat="46.94116" lon="-0.59244">
        <ele>119.9</ele>
        <time>2012-04-01T09:50:44Z</time>
      </trkpt>
      <trkpt lat="46.94114" lon="-0.59235">
        <ele>119.8</ele>
        <time>2012-04-01T09:50:46Z</time>
      </trkpt>
      <trkpt lat="46.94113" lon="-0.59226">
        <ele>119.8</ele>
        <time>2012-04-01T09:50:48Z</time>
      </trkpt>
      <trkpt lat="46.94111" lon="-0.59217">
        <ele>119.5</ele>
        <time>2012-04-01T09:50:50Z</time>
      </trkpt>
      <trkpt lat="46.94109" lon="-0.59209">
        <ele>119.5</ele>
        <time>2012-04-01T09:50:52Z</time>
      </trkpt>
      <trkpt lat="46.94107" lon="-0.59199">
        <ele>119.5</ele>
        <time>2012-04-01T09:50:54Z</time>
      </trkpt>
      <trkpt lat="46.94106" lon="-0.5919">
        <ele>119.5</ele>
        <time>2012-04-01T09:50:56Z</time>
      </trkpt>
      <trkpt lat="46.94103" lon="-0.59178">
        <ele>119.3</ele>
        <time>2012-04-01T09:50:59Z</time>
      </trkpt>
      <trkpt lat="46.94102" lon="-0.59174">
        <ele>119.3</ele>
        <time>2012-04-01T09:51:00Z</time>
      </trkpt>
      <trkpt lat="46.94093" lon="-0.59159">
        <ele>119</ele>
        <time>2012-04-01T09:51:05Z</time>
      </trkpt>
      <trkpt lat="46.94086" lon="-0.59151">
        <ele>118.9</ele>
        <time>2012-04-01T09:51:08Z</time>
      </trkpt>
      <trkpt lat="46.94082" lon="-0.59141">
        <ele>118.8</ele>
        <time>2012-04-01T09:51:11Z</time>
      </trkpt>
      <trkpt lat="46.94079" lon="-0.59132">
        <ele>118.5</ele>
        <time>2012-04-01T09:51:14Z</time>
      </trkpt>
      <trkpt lat="46.94075" lon="-0.59123">
        <ele>118.5</ele>
        <time>2012-04-01T09:51:17Z</time>
      </trkpt>
      <trkpt lat="46.94074" lon="-0.59114">
        <ele>118.5</ele>
        <time>2012-04-01T09:51:19Z</time>
      </trkpt>
      <trkpt lat="46.94072" lon="-0.59105">
        <ele>118.5</ele>
        <time>2012-04-01T09:51:21Z</time>
      </trkpt>
      <trkpt lat="46.94068" lon="-0.59094">
        <ele>118.9</ele>
        <time>2012-04-01T09:51:26Z</time>
      </trkpt>
      <trkpt lat="46.94065" lon="-0.59085">
        <ele>119</ele>
        <time>2012-04-01T09:51:28Z</time>
      </trkpt>
      <trkpt lat="46.94065" lon="-0.59074">
        <ele>119</ele>
        <time>2012-04-01T09:51:30Z</time>
      </trkpt>
      <trkpt lat="46.94063" lon="-0.59063">
        <ele>119.5</ele>
        <time>2012-04-01T09:51:32Z</time>
      </trkpt>
      <trkpt lat="46.9406" lon="-0.59052">
        <ele>120</ele>
        <time>2012-04-01T09:51:34Z</time>
      </trkpt>
      <trkpt lat="46.94058" lon="-0.59041">
        <ele>120</ele>
        <time>2012-04-01T09:51:36Z</time>
      </trkpt>
      <trkpt lat="46.94055" lon="-0.5903">
        <ele>120.3</ele>
        <time>2012-04-01T09:51:38Z</time>
      </trkpt>
      <trkpt lat="46.94053" lon="-0.59018">
        <ele>120.4</ele>
        <time>2012-04-01T09:51:40Z</time>
      </trkpt>
      <trkpt lat="46.9405" lon="-0.59007">
        <ele>120.4</ele>
        <time>2012-04-01T09:51:42Z</time>
      </trkpt>
      <trkpt lat="46.94047" lon="-0.58996">
        <ele>120</ele>
        <time>2012-04-01T09:51:44Z</time>
      </trkpt>
      <trkpt lat="46.94044" lon="-0.58984">
        <ele>120</ele>
        <time>2012-04-01T09:51:46Z</time>
      </trkpt>
      <trkpt lat="46.94041" lon="-0.58973">
        <ele>119.9</ele>
        <time>2012-04-01T09:51:48Z</time>
      </trkpt>
      <trkpt lat="46.94039" lon="-0.58961">
        <ele>119.5</ele>
        <time>2012-04-01T09:51:50Z</time>
      </trkpt>
      <trkpt lat="46.94036" lon="-0.5895">
        <ele>119.5</ele>
        <time>2012-04-01T09:51:52Z</time>
      </trkpt>
      <trkpt lat="46.94034" lon="-0.58938">
        <ele>119.4</ele>
        <time>2012-04-01T09:51:54Z</time>
      </trkpt>
      <trkpt lat="46.94031" lon="-0.58927">
        <ele>119.3</ele>
        <time>2012-04-01T09:51:56Z</time>
      </trkpt>
      <trkpt lat="46.94029" lon="-0.58916">
        <ele>119</ele>
        <time>2012-04-01T09:51:58Z</time>
      </trkpt>
      <trkpt lat="46.94026" lon="-0.58904">
        <ele>119</ele>
        <time>2012-04-01T09:52:00Z</time>
      </trkpt>
      <trkpt lat="46.94025" lon="-0.58898">
        <ele>119</ele>
        <time>2012-04-01T09:52:01Z</time>
      </trkpt>
      <trkpt lat="46.94021" lon="-0.58879">
        <ele>118.9</ele>
        <time>2012-04-01T09:52:04Z</time>
      </trkpt>
      <trkpt lat="46.94019" lon="-0.58868">
        <ele>118.8</ele>
        <time>2012-04-01T09:52:06Z</time>
      </trkpt>
      <trkpt lat="46.94017" lon="-0.58856">
        <ele>118.9</ele>
        <time>2012-04-01T09:52:08Z</time>
      </trkpt>
      <trkpt lat="46.94015" lon="-0.58845">
        <ele>118.9</ele>
        <time>2012-04-01T09:52:10Z</time>
      </trkpt>
      <trkpt lat="46.94013" lon="-0.58834">
        <ele>119</ele>
        <time>2012-04-01T09:52:12Z</time>
      </trkpt>
      <trkpt lat="46.94011" lon="-0.58822">
        <ele>119</ele>
        <time>2012-04-01T09:52:14Z</time>
      </trkpt>
      <trkpt lat="46.94008" lon="-0.58811">
        <ele>119</ele>
        <time>2012-04-01T09:52:16Z</time>
      </trkpt>
      <trkpt lat="46.94006" lon="-0.58799">
        <ele>119</ele>
        <time>2012-04-01T09:52:18Z</time>
      </trkpt>
      <trkpt lat="46.94004" lon="-0.58788">
        <ele>119</ele>
        <time>2012-04-01T09:52:20Z</time>
      </trkpt>
      <trkpt lat="46.94001" lon="-0.58776">
        <ele>119</ele>
        <time>2012-04-01T09:52:22Z</time>
      </trkpt>
      <trkpt lat="46.93999" lon="-0.58765">
        <ele>119</ele>
        <time>2012-04-01T09:52:24Z</time>
      </trkpt>
      <trkpt lat="46.93996" lon="-0.58754">
        <ele>119.4</ele>
        <time>2012-04-01T09:52:26Z</time>
      </trkpt>
      <trkpt lat="46.93994" lon="-0.58743">
        <ele>119.4</ele>
        <time>2012-04-01T09:52:28Z</time>
      </trkpt>
      <trkpt lat="46.93992" lon="-0.58732">
        <ele>119.5</ele>
        <time>2012-04-01T09:52:30Z</time>
      </trkpt>
      <trkpt lat="46.9399" lon="-0.58723">
        <ele>119.5</ele>
        <time>2012-04-01T09:52:32Z</time>
      </trkpt>
      <trkpt lat="46.93987" lon="-0.58712">
        <ele>119.5</ele>
        <time>2012-04-01T09:52:35Z</time>
      </trkpt>
      <trkpt lat="46.93985" lon="-0.58703">
        <ele>119.5</ele>
        <time>2012-04-01T09:52:38Z</time>
      </trkpt>
      <trkpt lat="46.93982" lon="-0.58692">
        <ele>119.5</ele>
        <time>2012-04-01T09:52:41Z</time>
      </trkpt>
      <trkpt lat="46.93977" lon="-0.58684">
        <ele>119.5</ele>
        <time>2012-04-01T09:52:46Z</time>
      </trkpt>
      <trkpt lat="46.93968" lon="-0.58686">
        <ele>119.5</ele>
        <time>2012-04-01T09:52:49Z</time>
      </trkpt>
      <trkpt lat="46.93963" lon="-0.58693">
        <ele>119.8</ele>
        <time>2012-04-01T09:52:52Z</time>
      </trkpt>
      <trkpt lat="46.93957" lon="-0.587">
        <ele>120</ele>
        <time>2012-04-01T09:52:55Z</time>
      </trkpt>
      <trkpt lat="46.93952" lon="-0.58708">
        <ele>120</ele>
        <time>2012-04-01T09:52:58Z</time>
      </trkpt>
      <trkpt lat="46.93947" lon="-0.58714">
        <ele>120.4</ele>
        <time>2012-04-01T09:53:00Z</time>
      </trkpt>
      <trkpt lat="46.93942" lon="-0.5872">
        <ele>120.5</ele>
        <time>2012-04-01T09:53:02Z</time>
      </trkpt>
      <trkpt lat="46.9394" lon="-0.58723">
        <ele>120.5</ele>
        <time>2012-04-01T09:53:03Z</time>
      </trkpt>
      <trkpt lat="46.93933" lon="-0.58733">
        <ele>120.9</ele>
        <time>2012-04-01T09:53:06Z</time>
      </trkpt>
      <trkpt lat="46.93928" lon="-0.5874">
        <ele>121</ele>
        <time>2012-04-01T09:53:08Z</time>
      </trkpt>
      <trkpt lat="46.93923" lon="-0.58747">
        <ele>121</ele>
        <time>2012-04-01T09:53:10Z</time>
      </trkpt>
      <trkpt lat="46.93918" lon="-0.58755">
        <ele>121.3</ele>
        <time>2012-04-01T09:53:12Z</time>
      </trkpt>
      <trkpt lat="46.93913" lon="-0.58763">
        <ele>121.5</ele>
        <time>2012-04-01T09:53:14Z</time>
      </trkpt>
      <trkpt lat="46.93908" lon="-0.5877">
        <ele>121.5</ele>
        <time>2012-04-01T09:53:16Z</time>
      </trkpt>
      <trkpt lat="46.93901" lon="-0.58773">
        <ele>121.8</ele>
        <time>2012-04-01T09:53:18Z</time>
      </trkpt>
      <trkpt lat="46.93894" lon="-0.5877">
        <ele>123</ele>
        <time>2012-04-01T09:53:20Z</time>
      </trkpt>
      <trkpt lat="46.93889" lon="-0.5876">
        <ele>123.8</ele>
        <time>2012-04-01T09:53:22Z</time>
      </trkpt>
      <trkpt lat="46.93885" lon="-0.58751">
        <ele>124.3</ele>
        <time>2012-04-01T09:53:24Z</time>
      </trkpt>
      <trkpt lat="46.93879" lon="-0.58743">
        <ele>124.5</ele>
        <time>2012-04-01T09:53:26Z</time>
      </trkpt>
      <trkpt lat="46.93873" lon="-0.58735">
        <ele>124.5</ele>
        <time>2012-04-01T09:53:28Z</time>
      </trkpt>
      <trkpt lat="46.93869" lon="-0.58731">
        <ele>124.8</ele>
        <time>2012-04-01T09:53:29Z</time>
      </trkpt>
      <trkpt lat="46.93865" lon="-0.58727">
        <ele>124.8</ele>
        <time>2012-04-01T09:53:30Z</time>
      </trkpt>
      <trkpt lat="46.93862" lon="-0.58722">
        <ele>124.9</ele>
        <time>2012-04-01T09:53:31Z</time>
      </trkpt>
      <trkpt lat="46.93858" lon="-0.58718">
        <ele>124.9</ele>
        <time>2012-04-01T09:53:32Z</time>
      </trkpt>
      <trkpt lat="46.93854" lon="-0.58713">
        <ele>125</ele>
        <time>2012-04-01T09:53:33Z</time>
      </trkpt>
      <trkpt lat="46.9385" lon="-0.58709">
        <ele>125</ele>
        <time>2012-04-01T09:53:34Z</time>
      </trkpt>
      <trkpt lat="46.93847" lon="-0.58704">
        <ele>125</ele>
        <time>2012-04-01T09:53:35Z</time>
      </trkpt>
      <trkpt lat="46.93844" lon="-0.58699">
        <ele>125</ele>
        <time>2012-04-01T09:53:36Z</time>
      </trkpt>
      <trkpt lat="46.9384" lon="-0.58693">
        <ele>125</ele>
        <time>2012-04-01T09:53:37Z</time>
      </trkpt>
      <trkpt lat="46.93837" lon="-0.58688">
        <ele>125</ele>
        <time>2012-04-01T09:53:38Z</time>
      </trkpt>
      <trkpt lat="46.93834" lon="-0.58682">
        <ele>125</ele>
        <time>2012-04-01T09:53:39Z</time>
      </trkpt>
      <trkpt lat="46.93831" lon="-0.58677">
        <ele>125</ele>
        <time>2012-04-01T09:53:40Z</time>
      </trkpt>
      <trkpt lat="46.93829" lon="-0.58671">
        <ele>125</ele>
        <time>2012-04-01T09:53:41Z</time>
      </trkpt>
      <trkpt lat="46.93827" lon="-0.58665">
        <ele>125</ele>
        <time>2012-04-01T09:53:42Z</time>
      </trkpt>
      <trkpt lat="46.93825" lon="-0.58659">
        <ele>124.9</ele>
        <time>2012-04-01T09:53:43Z</time>
      </trkpt>
      <trkpt lat="46.93823" lon="-0.58652">
        <ele>124.9</ele>
        <time>2012-04-01T09:53:44Z</time>
      </trkpt>
      <trkpt lat="46.93821" lon="-0.58646">
        <ele>124.9</ele>
        <time>2012-04-01T09:53:45Z</time>
      </trkpt>
      <trkpt lat="46.9382" lon="-0.5864">
        <ele>124.9</ele>
        <time>2012-04-01T09:53:46Z</time>
      </trkpt>
      <trkpt lat="46.93818" lon="-0.58633">
        <ele>124.9</ele>
        <time>2012-04-01T09:53:47Z</time>
      </trkpt>
      <trkpt lat="46.93817" lon="-0.58627">
        <ele>124.9</ele>
        <time>2012-04-01T09:53:48Z</time>
      </trkpt>
      <trkpt lat="46.93814" lon="-0.58614">
        <ele>124.8</ele>
        <time>2012-04-01T09:53:50Z</time>
      </trkpt>
      <trkpt lat="46.93812" lon="-0.58602">
        <ele>124.5</ele>
        <time>2012-04-01T09:53:52Z</time>
      </trkpt>
      <trkpt lat="46.93811" lon="-0.58595">
        <ele>124.5</ele>
        <time>2012-04-01T09:53:53Z</time>
      </trkpt>
      <trkpt lat="46.93809" lon="-0.58589">
        <ele>124.5</ele>
        <time>2012-04-01T09:53:54Z</time>
      </trkpt>
      <trkpt lat="46.93807" lon="-0.58582">
        <ele>124.5</ele>
        <time>2012-04-01T09:53:55Z</time>
      </trkpt>
      <trkpt lat="46.93805" lon="-0.58576">
        <ele>124.4</ele>
        <time>2012-04-01T09:53:56Z</time>
      </trkpt>
      <trkpt lat="46.93803" lon="-0.58569">
        <ele>124.3</ele>
        <time>2012-04-01T09:53:57Z</time>
      </trkpt>
      <trkpt lat="46.938" lon="-0.58563">
        <ele>124</ele>
        <time>2012-04-01T09:53:58Z</time>
      </trkpt>
      <trkpt lat="46.93797" lon="-0.58557">
        <ele>124</ele>
        <time>2012-04-01T09:53:59Z</time>
      </trkpt>
      <trkpt lat="46.93794" lon="-0.58551">
        <ele>124</ele>
        <time>2012-04-01T09:54:00Z</time>
      </trkpt>
      <trkpt lat="46.9379" lon="-0.58546">
        <ele>124</ele>
        <time>2012-04-01T09:54:01Z</time>
      </trkpt>
      <trkpt lat="46.93786" lon="-0.5854">
        <ele>124</ele>
        <time>2012-04-01T09:54:02Z</time>
      </trkpt>
      <trkpt lat="46.93782" lon="-0.58534">
        <ele>124</ele>
        <time>2012-04-01T09:54:03Z</time>
      </trkpt>
      <trkpt lat="46.93778" lon="-0.58529">
        <ele>124</ele>
        <time>2012-04-01T09:54:04Z</time>
      </trkpt>
      <trkpt lat="46.93773" lon="-0.58524">
        <ele>123.9</ele>
        <time>2012-04-01T09:54:05Z</time>
      </trkpt>
      <trkpt lat="46.93768" lon="-0.58519">
        <ele>123.9</ele>
        <time>2012-04-01T09:54:06Z</time>
      </trkpt>
      <trkpt lat="46.93762" lon="-0.58514">
        <ele>123.9</ele>
        <time>2012-04-01T09:54:07Z</time>
      </trkpt>
      <trkpt lat="46.93756" lon="-0.5851">
        <ele>123.8</ele>
        <time>2012-04-01T09:54:08Z</time>
      </trkpt>
      <trkpt lat="46.9375" lon="-0.58506">
        <ele>123.8</ele>
        <time>2012-04-01T09:54:09Z</time>
      </trkpt>
      <trkpt lat="46.93743" lon="-0.58503">
        <ele>123.5</ele>
        <time>2012-04-01T09:54:10Z</time>
      </trkpt>
      <trkpt lat="46.93736" lon="-0.585">
        <ele>123.5</ele>
        <time>2012-04-01T09:54:11Z</time>
      </trkpt>
      <trkpt lat="46.93729" lon="-0.58497">
        <ele>123.5</ele>
        <time>2012-04-01T09:54:12Z</time>
      </trkpt>
      <trkpt lat="46.93722" lon="-0.58494">
        <ele>123.4</ele>
        <time>2012-04-01T09:54:13Z</time>
      </trkpt>
      <trkpt lat="46.93716" lon="-0.58492">
        <ele>123</ele>
        <time>2012-04-01T09:54:14Z</time>
      </trkpt>
      <trkpt lat="46.9371" lon="-0.58489">
        <ele>123</ele>
        <time>2012-04-01T09:54:15Z</time>
      </trkpt>
      <trkpt lat="46.93705" lon="-0.58486">
        <ele>122.9</ele>
        <time>2012-04-01T09:54:16Z</time>
      </trkpt>
      <trkpt lat="46.93699" lon="-0.58483">
        <ele>122.5</ele>
        <time>2012-04-01T09:54:17Z</time>
      </trkpt>
      <trkpt lat="46.93695" lon="-0.5848">
        <ele>122.5</ele>
        <time>2012-04-01T09:54:18Z</time>
      </trkpt>
      <trkpt lat="46.93687" lon="-0.58483">
        <ele>122.3</ele>
        <time>2012-04-01T09:54:20Z</time>
      </trkpt>
      <trkpt lat="46.93683" lon="-0.58493">
        <ele>122</ele>
        <time>2012-04-01T09:54:22Z</time>
      </trkpt>
      <trkpt lat="46.93682" lon="-0.58499">
        <ele>122</ele>
        <time>2012-04-01T09:54:23Z</time>
      </trkpt>
      <trkpt lat="46.93681" lon="-0.58506">
        <ele>121.9</ele>
        <time>2012-04-01T09:54:24Z</time>
      </trkpt>
      <trkpt lat="46.93681" lon="-0.58513">
        <ele>121.8</ele>
        <time>2012-04-01T09:54:25Z</time>
      </trkpt>
      <trkpt lat="46.9368" lon="-0.5852">
        <ele>121.5</ele>
        <time>2012-04-01T09:54:26Z</time>
      </trkpt>
      <trkpt lat="46.93681" lon="-0.58528">
        <ele>121.5</ele>
        <time>2012-04-01T09:54:27Z</time>
      </trkpt>
      <trkpt lat="46.93681" lon="-0.58535">
        <ele>121.4</ele>
        <time>2012-04-01T09:54:28Z</time>
      </trkpt>
      <trkpt lat="46.93681" lon="-0.58542">
        <ele>121</ele>
        <time>2012-04-01T09:54:29Z</time>
      </trkpt>
      <trkpt lat="46.93681" lon="-0.58549">
        <ele>121</ele>
        <time>2012-04-01T09:54:30Z</time>
      </trkpt>
      <trkpt lat="46.93682" lon="-0.58556">
        <ele>120.8</ele>
        <time>2012-04-01T09:54:31Z</time>
      </trkpt>
      <trkpt lat="46.93682" lon="-0.58563">
        <ele>120.5</ele>
        <time>2012-04-01T09:54:32Z</time>
      </trkpt>
      <trkpt lat="46.93683" lon="-0.5857">
        <ele>120</ele>
        <time>2012-04-01T09:54:33Z</time>
      </trkpt>
      <trkpt lat="46.93684" lon="-0.58583">
        <ele>119.5</ele>
        <time>2012-04-01T09:54:35Z</time>
      </trkpt>
      <trkpt lat="46.93685" lon="-0.58595">
        <ele>119</ele>
        <time>2012-04-01T09:54:37Z</time>
      </trkpt>
      <trkpt lat="46.93685" lon="-0.58608">
        <ele>118.9</ele>
        <time>2012-04-01T09:54:39Z</time>
      </trkpt>
      <trkpt lat="46.93685" lon="-0.5862">
        <ele>118.8</ele>
        <time>2012-04-01T09:54:41Z</time>
      </trkpt>
      <trkpt lat="46.93685" lon="-0.5863">
        <ele>118.5</ele>
        <time>2012-04-01T09:54:43Z</time>
      </trkpt>
      <trkpt lat="46.93686" lon="-0.58643">
        <ele>118.5</ele>
        <time>2012-04-01T09:54:46Z</time>
      </trkpt>
      <trkpt lat="46.93679" lon="-0.58639">
        <ele>118.9</ele>
        <time>2012-04-01T09:55:46Z</time>
      </trkpt>
    </trkseg>
  </trk>
</gpx>